<?xml version="1.0" encoding="UTF-8" standalone="no" ?>
<gpx xmlns="http://www.topografix.com/GPX/1/1" xmlns:xsi="http://www.w3.org/2001/XMLSchema-instance" xsi:schemaLocation="http://www.topografix.com/GPX/1/1 http://www.topografix.com/GPX/1/1/gpx.xsd" version="1.1" creator="VisuGPX - https://www.visugpx.com">
  <metadata>
    <name>Serrechevalier ski de piste</name>
    <desc><![CDATA[Sortie ski de piste avec Gps pour évaluer les dénivelés et les kms réalisés en une journée]]></desc>
  </metadata>
  <trk>
    <name><![CDATA[2011-01-22T09:11:46Z]]></name>
    <trkseg>
      <trkpt lat="44.94802" lon="6.5539">
        <ele>1386.1</ele>
        <time>2011-01-22T09:11:46Z</time>
      </trkpt>
      <trkpt lat="44.94798" lon="6.55383">
        <ele>1407.4</ele>
        <time>2011-01-22T09:11:58Z</time>
      </trkpt>
      <trkpt lat="44.94806" lon="6.55394">
        <ele>1408.8</ele>
        <time>2011-01-22T09:12:32Z</time>
      </trkpt>
      <trkpt lat="44.94806" lon="6.55389">
        <ele>1409.6</ele>
        <time>2011-01-22T09:12:42Z</time>
      </trkpt>
      <trkpt lat="44.94804" lon="6.55388">
        <ele>1410.8</ele>
        <time>2011-01-22T09:13:02Z</time>
      </trkpt>
      <trkpt lat="44.94803" lon="6.55388">
        <ele>1411</ele>
        <time>2011-01-22T09:13:28Z</time>
      </trkpt>
      <trkpt lat="44.94804" lon="6.55395">
        <ele>1411</ele>
        <time>2011-01-22T09:13:39Z</time>
      </trkpt>
      <trkpt lat="44.94805" lon="6.55395">
        <ele>1411.2</ele>
        <time>2011-01-22T09:13:44Z</time>
      </trkpt>
      <trkpt lat="44.94809" lon="6.55383">
        <ele>1407.6</ele>
        <time>2011-01-22T09:15:31Z</time>
      </trkpt>
      <trkpt lat="44.94808" lon="6.55387">
        <ele>1407</ele>
        <time>2011-01-22T09:15:37Z</time>
      </trkpt>
      <trkpt lat="44.94806" lon="6.55392">
        <ele>1406.2</ele>
        <time>2011-01-22T09:15:43Z</time>
      </trkpt>
      <trkpt lat="44.94801" lon="6.55398">
        <ele>1405</ele>
        <time>2011-01-22T09:15:54Z</time>
      </trkpt>
      <trkpt lat="44.94796" lon="6.55394">
        <ele>1403.6</ele>
        <time>2011-01-22T09:16:06Z</time>
      </trkpt>
      <trkpt lat="44.94793" lon="6.55391">
        <ele>1403.2</ele>
        <time>2011-01-22T09:16:14Z</time>
      </trkpt>
      <trkpt lat="44.94791" lon="6.55389">
        <ele>1403</ele>
        <time>2011-01-22T09:16:15Z</time>
      </trkpt>
      <trkpt lat="44.9478" lon="6.55382">
        <ele>1402.8</ele>
        <time>2011-01-22T09:16:18Z</time>
      </trkpt>
      <trkpt lat="44.94776" lon="6.55379">
        <ele>1402.8</ele>
        <time>2011-01-22T09:16:19Z</time>
      </trkpt>
      <trkpt lat="44.94759" lon="6.55366">
        <ele>1402.8</ele>
        <time>2011-01-22T09:16:24Z</time>
      </trkpt>
      <trkpt lat="44.94755" lon="6.55364">
        <ele>1402.8</ele>
        <time>2011-01-22T09:16:25Z</time>
      </trkpt>
      <trkpt lat="44.94743" lon="6.55354">
        <ele>1403</ele>
        <time>2011-01-22T09:16:29Z</time>
      </trkpt>
      <trkpt lat="44.94733" lon="6.55346">
        <ele>1403.2</ele>
        <time>2011-01-22T09:16:32Z</time>
      </trkpt>
      <trkpt lat="44.94726" lon="6.5534">
        <ele>1403.4</ele>
        <time>2011-01-22T09:16:34Z</time>
      </trkpt>
      <trkpt lat="44.9471" lon="6.55328">
        <ele>1404</ele>
        <time>2011-01-22T09:16:39Z</time>
      </trkpt>
      <trkpt lat="44.94707" lon="6.55325">
        <ele>1404.2</ele>
        <time>2011-01-22T09:16:40Z</time>
      </trkpt>
      <trkpt lat="44.94695" lon="6.55315">
        <ele>1404.8</ele>
        <time>2011-01-22T09:16:44Z</time>
      </trkpt>
      <trkpt lat="44.94676" lon="6.553">
        <ele>1406.2</ele>
        <time>2011-01-22T09:16:50Z</time>
      </trkpt>
      <trkpt lat="44.9466" lon="6.55287">
        <ele>1407.8</ele>
        <time>2011-01-22T09:16:55Z</time>
      </trkpt>
      <trkpt lat="44.94647" lon="6.55277">
        <ele>1409.4</ele>
        <time>2011-01-22T09:16:59Z</time>
      </trkpt>
      <trkpt lat="44.94643" lon="6.55275">
        <ele>1409.8</ele>
        <time>2011-01-22T09:17:00Z</time>
      </trkpt>
      <trkpt lat="44.94625" lon="6.5526">
        <ele>1412.6</ele>
        <time>2011-01-22T09:17:06Z</time>
      </trkpt>
      <trkpt lat="44.94618" lon="6.55256">
        <ele>1413.6</ele>
        <time>2011-01-22T09:17:08Z</time>
      </trkpt>
      <trkpt lat="44.94609" lon="6.55248">
        <ele>1415.2</ele>
        <time>2011-01-22T09:17:11Z</time>
      </trkpt>
      <trkpt lat="44.9459" lon="6.55233">
        <ele>1418.6</ele>
        <time>2011-01-22T09:17:17Z</time>
      </trkpt>
      <trkpt lat="44.94587" lon="6.55231">
        <ele>1419.2</ele>
        <time>2011-01-22T09:17:18Z</time>
      </trkpt>
      <trkpt lat="44.94572" lon="6.55219">
        <ele>1422.2</ele>
        <time>2011-01-22T09:17:23Z</time>
      </trkpt>
      <trkpt lat="44.94553" lon="6.55205">
        <ele>1426.2</ele>
        <time>2011-01-22T09:17:29Z</time>
      </trkpt>
      <trkpt lat="44.94537" lon="6.55191">
        <ele>1430</ele>
        <time>2011-01-22T09:17:34Z</time>
      </trkpt>
      <trkpt lat="44.94534" lon="6.55186">
        <ele>1431.4</ele>
        <time>2011-01-22T09:17:36Z</time>
      </trkpt>
      <trkpt lat="44.94522" lon="6.55177">
        <ele>1434.4</ele>
        <time>2011-01-22T09:17:40Z</time>
      </trkpt>
      <trkpt lat="44.94519" lon="6.55174">
        <ele>1435</ele>
        <time>2011-01-22T09:17:41Z</time>
      </trkpt>
      <trkpt lat="44.94505" lon="6.55161">
        <ele>1438</ele>
        <time>2011-01-22T09:17:46Z</time>
      </trkpt>
      <trkpt lat="44.94495" lon="6.55153">
        <ele>1439.6</ele>
        <time>2011-01-22T09:17:49Z</time>
      </trkpt>
      <trkpt lat="44.94488" lon="6.55148">
        <ele>1440.6</ele>
        <time>2011-01-22T09:17:51Z</time>
      </trkpt>
      <trkpt lat="44.94472" lon="6.55135">
        <ele>1443.4</ele>
        <time>2011-01-22T09:17:56Z</time>
      </trkpt>
      <trkpt lat="44.94468" lon="6.55133">
        <ele>1444</ele>
        <time>2011-01-22T09:17:57Z</time>
      </trkpt>
      <trkpt lat="44.94454" lon="6.55118">
        <ele>1445.8</ele>
        <time>2011-01-22T09:18:02Z</time>
      </trkpt>
      <trkpt lat="44.9445" lon="6.55115">
        <ele>1446.4</ele>
        <time>2011-01-22T09:18:03Z</time>
      </trkpt>
      <trkpt lat="44.94436" lon="6.55107">
        <ele>1448.8</ele>
        <time>2011-01-22T09:18:07Z</time>
      </trkpt>
      <trkpt lat="44.94419" lon="6.55095">
        <ele>1452.4</ele>
        <time>2011-01-22T09:18:12Z</time>
      </trkpt>
      <trkpt lat="44.94402" lon="6.55084">
        <ele>1456</ele>
        <time>2011-01-22T09:18:17Z</time>
      </trkpt>
      <trkpt lat="44.94386" lon="6.55072">
        <ele>1459.8</ele>
        <time>2011-01-22T09:18:22Z</time>
      </trkpt>
      <trkpt lat="44.94383" lon="6.5507">
        <ele>1460.6</ele>
        <time>2011-01-22T09:18:23Z</time>
      </trkpt>
      <trkpt lat="44.94364" lon="6.55055">
        <ele>1465</ele>
        <time>2011-01-22T09:18:29Z</time>
      </trkpt>
      <trkpt lat="44.94349" lon="6.55043">
        <ele>1468.6</ele>
        <time>2011-01-22T09:18:34Z</time>
      </trkpt>
      <trkpt lat="44.94346" lon="6.55041">
        <ele>1469.4</ele>
        <time>2011-01-22T09:18:35Z</time>
      </trkpt>
      <trkpt lat="44.94328" lon="6.55026">
        <ele>1474.2</ele>
        <time>2011-01-22T09:18:41Z</time>
      </trkpt>
      <trkpt lat="44.94321" lon="6.55021">
        <ele>1475.6</ele>
        <time>2011-01-22T09:18:43Z</time>
      </trkpt>
      <trkpt lat="44.94312" lon="6.55013">
        <ele>1478</ele>
        <time>2011-01-22T09:18:46Z</time>
      </trkpt>
      <trkpt lat="44.94294" lon="6.54999">
        <ele>1482.8</ele>
        <time>2011-01-22T09:18:52Z</time>
      </trkpt>
      <trkpt lat="44.94287" lon="6.54994">
        <ele>1484.2</ele>
        <time>2011-01-22T09:18:54Z</time>
      </trkpt>
      <trkpt lat="44.94278" lon="6.54987">
        <ele>1486.6</ele>
        <time>2011-01-22T09:18:57Z</time>
      </trkpt>
      <trkpt lat="44.94259" lon="6.54972">
        <ele>1491.4</ele>
        <time>2011-01-22T09:19:03Z</time>
      </trkpt>
      <trkpt lat="44.94256" lon="6.5497">
        <ele>1492.2</ele>
        <time>2011-01-22T09:19:04Z</time>
      </trkpt>
      <trkpt lat="44.94243" lon="6.54959">
        <ele>1495.2</ele>
        <time>2011-01-22T09:19:08Z</time>
      </trkpt>
      <trkpt lat="44.94225" lon="6.54944">
        <ele>1500</ele>
        <time>2011-01-22T09:19:14Z</time>
      </trkpt>
      <trkpt lat="44.94214" lon="6.54935">
        <ele>1503.4</ele>
        <time>2011-01-22T09:19:18Z</time>
      </trkpt>
      <trkpt lat="44.94207" lon="6.5493">
        <ele>1505.2</ele>
        <time>2011-01-22T09:19:20Z</time>
      </trkpt>
      <trkpt lat="44.94191" lon="6.54917">
        <ele>1509.8</ele>
        <time>2011-01-22T09:19:25Z</time>
      </trkpt>
      <trkpt lat="44.94182" lon="6.5491">
        <ele>1512.8</ele>
        <time>2011-01-22T09:19:28Z</time>
      </trkpt>
      <trkpt lat="44.94173" lon="6.54903">
        <ele>1515.6</ele>
        <time>2011-01-22T09:19:31Z</time>
      </trkpt>
      <trkpt lat="44.94156" lon="6.54889">
        <ele>1522</ele>
        <time>2011-01-22T09:19:37Z</time>
      </trkpt>
      <trkpt lat="44.94153" lon="6.54887">
        <ele>1523.2</ele>
        <time>2011-01-22T09:19:38Z</time>
      </trkpt>
      <trkpt lat="44.94137" lon="6.54876">
        <ele>1528.6</ele>
        <time>2011-01-22T09:19:43Z</time>
      </trkpt>
      <trkpt lat="44.94125" lon="6.54866">
        <ele>1533</ele>
        <time>2011-01-22T09:19:47Z</time>
      </trkpt>
      <trkpt lat="44.9412" lon="6.54861">
        <ele>1535.2</ele>
        <time>2011-01-22T09:19:49Z</time>
      </trkpt>
      <trkpt lat="44.94102" lon="6.54847">
        <ele>1541.8</ele>
        <time>2011-01-22T09:19:55Z</time>
      </trkpt>
      <trkpt lat="44.94084" lon="6.54834">
        <ele>1546.4</ele>
        <time>2011-01-22T09:20:00Z</time>
      </trkpt>
      <trkpt lat="44.94072" lon="6.54825">
        <ele>1550.6</ele>
        <time>2011-01-22T09:20:04Z</time>
      </trkpt>
      <trkpt lat="44.94066" lon="6.54821">
        <ele>1552.6</ele>
        <time>2011-01-22T09:20:06Z</time>
      </trkpt>
      <trkpt lat="44.94055" lon="6.5481">
        <ele>1556.4</ele>
        <time>2011-01-22T09:20:10Z</time>
      </trkpt>
      <trkpt lat="44.94048" lon="6.54805">
        <ele>1558.4</ele>
        <time>2011-01-22T09:20:12Z</time>
      </trkpt>
      <trkpt lat="44.94032" lon="6.54799">
        <ele>1563.6</ele>
        <time>2011-01-22T09:20:17Z</time>
      </trkpt>
      <trkpt lat="44.94029" lon="6.54797">
        <ele>1564.8</ele>
        <time>2011-01-22T09:20:18Z</time>
      </trkpt>
      <trkpt lat="44.94011" lon="6.54784">
        <ele>1571</ele>
        <time>2011-01-22T09:20:24Z</time>
      </trkpt>
      <trkpt lat="44.93994" lon="6.54768">
        <ele>1576.8</ele>
        <time>2011-01-22T09:20:30Z</time>
      </trkpt>
      <trkpt lat="44.93985" lon="6.5476">
        <ele>1579.8</ele>
        <time>2011-01-22T09:20:33Z</time>
      </trkpt>
      <trkpt lat="44.93976" lon="6.54754">
        <ele>1582.6</ele>
        <time>2011-01-22T09:20:36Z</time>
      </trkpt>
      <trkpt lat="44.93957" lon="6.54741">
        <ele>1588.8</ele>
        <time>2011-01-22T09:20:42Z</time>
      </trkpt>
      <trkpt lat="44.93955" lon="6.54739">
        <ele>1589.6</ele>
        <time>2011-01-22T09:20:43Z</time>
      </trkpt>
      <trkpt lat="44.93939" lon="6.54727">
        <ele>1594.4</ele>
        <time>2011-01-22T09:20:48Z</time>
      </trkpt>
      <trkpt lat="44.93929" lon="6.5472">
        <ele>1597</ele>
        <time>2011-01-22T09:20:51Z</time>
      </trkpt>
      <trkpt lat="44.93923" lon="6.54715">
        <ele>1598.8</ele>
        <time>2011-01-22T09:20:53Z</time>
      </trkpt>
      <trkpt lat="44.93907" lon="6.54702">
        <ele>1602.8</ele>
        <time>2011-01-22T09:20:58Z</time>
      </trkpt>
      <trkpt lat="44.93895" lon="6.54695">
        <ele>1605</ele>
        <time>2011-01-22T09:21:01Z</time>
      </trkpt>
      <trkpt lat="44.93888" lon="6.54689">
        <ele>1606.2</ele>
        <time>2011-01-22T09:21:03Z</time>
      </trkpt>
      <trkpt lat="44.93873" lon="6.54678">
        <ele>1608.2</ele>
        <time>2011-01-22T09:21:07Z</time>
      </trkpt>
      <trkpt lat="44.9387" lon="6.54674">
        <ele>1608.8</ele>
        <time>2011-01-22T09:21:08Z</time>
      </trkpt>
      <trkpt lat="44.93859" lon="6.54666">
        <ele>1610</ele>
        <time>2011-01-22T09:21:11Z</time>
      </trkpt>
      <trkpt lat="44.93852" lon="6.5466">
        <ele>1610.8</ele>
        <time>2011-01-22T09:21:13Z</time>
      </trkpt>
      <trkpt lat="44.93835" lon="6.54647">
        <ele>1612.6</ele>
        <time>2011-01-22T09:21:18Z</time>
      </trkpt>
      <trkpt lat="44.9382" lon="6.54635">
        <ele>1614.6</ele>
        <time>2011-01-22T09:21:23Z</time>
      </trkpt>
      <trkpt lat="44.93803" lon="6.54622">
        <ele>1616.8</ele>
        <time>2011-01-22T09:21:28Z</time>
      </trkpt>
      <trkpt lat="44.93784" lon="6.54606">
        <ele>1619.8</ele>
        <time>2011-01-22T09:21:34Z</time>
      </trkpt>
      <trkpt lat="44.93775" lon="6.54595">
        <ele>1621.8</ele>
        <time>2011-01-22T09:21:38Z</time>
      </trkpt>
      <trkpt lat="44.93769" lon="6.54585">
        <ele>1625.2</ele>
        <time>2011-01-22T09:21:42Z</time>
      </trkpt>
      <trkpt lat="44.93753" lon="6.54573">
        <ele>1627.2</ele>
        <time>2011-01-22T09:21:46Z</time>
      </trkpt>
      <trkpt lat="44.9375" lon="6.5457">
        <ele>1627.8</ele>
        <time>2011-01-22T09:21:47Z</time>
      </trkpt>
      <trkpt lat="44.93731" lon="6.54557">
        <ele>1630.6</ele>
        <time>2011-01-22T09:21:52Z</time>
      </trkpt>
      <trkpt lat="44.93717" lon="6.54547">
        <ele>1632.6</ele>
        <time>2011-01-22T09:21:56Z</time>
      </trkpt>
      <trkpt lat="44.93714" lon="6.54544">
        <ele>1633.2</ele>
        <time>2011-01-22T09:21:57Z</time>
      </trkpt>
      <trkpt lat="44.93697" lon="6.54531">
        <ele>1636.2</ele>
        <time>2011-01-22T09:22:02Z</time>
      </trkpt>
      <trkpt lat="44.93679" lon="6.54514">
        <ele>1641.6</ele>
        <time>2011-01-22T09:22:09Z</time>
      </trkpt>
      <trkpt lat="44.93662" lon="6.54501">
        <ele>1647.4</ele>
        <time>2011-01-22T09:22:15Z</time>
      </trkpt>
      <trkpt lat="44.93647" lon="6.54489">
        <ele>1652.8</ele>
        <time>2011-01-22T09:22:20Z</time>
      </trkpt>
      <trkpt lat="44.93644" lon="6.54487">
        <ele>1653.8</ele>
        <time>2011-01-22T09:22:21Z</time>
      </trkpt>
      <trkpt lat="44.93627" lon="6.54475">
        <ele>1664.2</ele>
        <time>2011-01-22T09:22:28Z</time>
      </trkpt>
      <trkpt lat="44.93624" lon="6.54473">
        <ele>1665.8</ele>
        <time>2011-01-22T09:22:29Z</time>
      </trkpt>
      <trkpt lat="44.93611" lon="6.54465">
        <ele>1678</ele>
        <time>2011-01-22T09:22:35Z</time>
      </trkpt>
      <trkpt lat="44.93598" lon="6.54456">
        <ele>1685.2</ele>
        <time>2011-01-22T09:22:39Z</time>
      </trkpt>
      <trkpt lat="44.93594" lon="6.54452">
        <ele>1687.4</ele>
        <time>2011-01-22T09:22:40Z</time>
      </trkpt>
      <trkpt lat="44.93584" lon="6.54448">
        <ele>1693.4</ele>
        <time>2011-01-22T09:22:43Z</time>
      </trkpt>
      <trkpt lat="44.93575" lon="6.54444">
        <ele>1698.6</ele>
        <time>2011-01-22T09:22:46Z</time>
      </trkpt>
      <trkpt lat="44.93556" lon="6.54434">
        <ele>1708.6</ele>
        <time>2011-01-22T09:22:52Z</time>
      </trkpt>
      <trkpt lat="44.93538" lon="6.54419">
        <ele>1717.6</ele>
        <time>2011-01-22T09:22:58Z</time>
      </trkpt>
      <trkpt lat="44.93535" lon="6.54416">
        <ele>1719</ele>
        <time>2011-01-22T09:22:59Z</time>
      </trkpt>
      <trkpt lat="44.9352" lon="6.54403">
        <ele>1726.4</ele>
        <time>2011-01-22T09:23:04Z</time>
      </trkpt>
      <trkpt lat="44.93514" lon="6.54397">
        <ele>1729.2</ele>
        <time>2011-01-22T09:23:06Z</time>
      </trkpt>
      <trkpt lat="44.93502" lon="6.54387">
        <ele>1734.8</ele>
        <time>2011-01-22T09:23:10Z</time>
      </trkpt>
      <trkpt lat="44.93484" lon="6.54373">
        <ele>1743.2</ele>
        <time>2011-01-22T09:23:16Z</time>
      </trkpt>
      <trkpt lat="44.93481" lon="6.54371">
        <ele>1744.6</ele>
        <time>2011-01-22T09:23:17Z</time>
      </trkpt>
      <trkpt lat="44.93466" lon="6.54357">
        <ele>1750.6</ele>
        <time>2011-01-22T09:23:22Z</time>
      </trkpt>
      <trkpt lat="44.93459" lon="6.54352">
        <ele>1753</ele>
        <time>2011-01-22T09:23:24Z</time>
      </trkpt>
      <trkpt lat="44.9345" lon="6.54344">
        <ele>1756</ele>
        <time>2011-01-22T09:23:27Z</time>
      </trkpt>
      <trkpt lat="44.93434" lon="6.54334">
        <ele>1762.2</ele>
        <time>2011-01-22T09:23:33Z</time>
      </trkpt>
      <trkpt lat="44.93432" lon="6.54332">
        <ele>1763.4</ele>
        <time>2011-01-22T09:23:34Z</time>
      </trkpt>
      <trkpt lat="44.93428" lon="6.5433">
        <ele>1767.2</ele>
        <time>2011-01-22T09:23:38Z</time>
      </trkpt>
      <trkpt lat="44.93423" lon="6.54325">
        <ele>1777.4</ele>
        <time>2011-01-22T09:23:51Z</time>
      </trkpt>
      <trkpt lat="44.93425" lon="6.54314">
        <ele>1787.4</ele>
        <time>2011-01-22T09:24:06Z</time>
      </trkpt>
      <trkpt lat="44.93426" lon="6.54311">
        <ele>1788.6</ele>
        <time>2011-01-22T09:24:09Z</time>
      </trkpt>
      <trkpt lat="44.93427" lon="6.54313">
        <ele>1790.2</ele>
        <time>2011-01-22T09:24:15Z</time>
      </trkpt>
      <trkpt lat="44.93425" lon="6.54312">
        <ele>1791.4</ele>
        <time>2011-01-22T09:24:21Z</time>
      </trkpt>
      <trkpt lat="44.93424" lon="6.5431">
        <ele>1791.6</ele>
        <time>2011-01-22T09:24:23Z</time>
      </trkpt>
      <trkpt lat="44.93427" lon="6.54314">
        <ele>1792.8</ele>
        <time>2011-01-22T09:24:30Z</time>
      </trkpt>
      <trkpt lat="44.93434" lon="6.54316">
        <ele>1793.2</ele>
        <time>2011-01-22T09:24:35Z</time>
      </trkpt>
      <trkpt lat="44.93442" lon="6.54315">
        <ele>1793.4</ele>
        <time>2011-01-22T09:24:40Z</time>
      </trkpt>
      <trkpt lat="44.93444" lon="6.54315">
        <ele>1793.4</ele>
        <time>2011-01-22T09:24:41Z</time>
      </trkpt>
      <trkpt lat="44.93456" lon="6.5431">
        <ele>1793.2</ele>
        <time>2011-01-22T09:24:48Z</time>
      </trkpt>
      <trkpt lat="44.93461" lon="6.54306">
        <ele>1793.2</ele>
        <time>2011-01-22T09:24:50Z</time>
      </trkpt>
      <trkpt lat="44.93469" lon="6.543">
        <ele>1793</ele>
        <time>2011-01-22T09:24:52Z</time>
      </trkpt>
      <trkpt lat="44.93474" lon="6.54296">
        <ele>1793</ele>
        <time>2011-01-22T09:24:53Z</time>
      </trkpt>
      <trkpt lat="44.93479" lon="6.54294">
        <ele>1792.8</ele>
        <time>2011-01-22T09:24:54Z</time>
      </trkpt>
      <trkpt lat="44.93485" lon="6.54294">
        <ele>1792.8</ele>
        <time>2011-01-22T09:24:55Z</time>
      </trkpt>
      <trkpt lat="44.93499" lon="6.54297">
        <ele>1792.4</ele>
        <time>2011-01-22T09:24:57Z</time>
      </trkpt>
      <trkpt lat="44.93507" lon="6.543">
        <ele>1792.2</ele>
        <time>2011-01-22T09:24:58Z</time>
      </trkpt>
      <trkpt lat="44.93514" lon="6.54305">
        <ele>1792</ele>
        <time>2011-01-22T09:24:59Z</time>
      </trkpt>
      <trkpt lat="44.93523" lon="6.5431">
        <ele>1791.8</ele>
        <time>2011-01-22T09:25:00Z</time>
      </trkpt>
      <trkpt lat="44.93539" lon="6.54324">
        <ele>1791.4</ele>
        <time>2011-01-22T09:25:02Z</time>
      </trkpt>
      <trkpt lat="44.93545" lon="6.54332">
        <ele>1791.2</ele>
        <time>2011-01-22T09:25:03Z</time>
      </trkpt>
      <trkpt lat="44.93546" lon="6.54349">
        <ele>1790.8</ele>
        <time>2011-01-22T09:25:05Z</time>
      </trkpt>
      <trkpt lat="44.93545" lon="6.54352">
        <ele>1790.6</ele>
        <time>2011-01-22T09:25:06Z</time>
      </trkpt>
      <trkpt lat="44.93543" lon="6.54352">
        <ele>1790.4</ele>
        <time>2011-01-22T09:25:08Z</time>
      </trkpt>
      <trkpt lat="44.93542" lon="6.54351">
        <ele>1790.2</ele>
        <time>2011-01-22T09:25:09Z</time>
      </trkpt>
      <trkpt lat="44.93539" lon="6.54351">
        <ele>1788</ele>
        <time>2011-01-22T09:25:24Z</time>
      </trkpt>
      <trkpt lat="44.93537" lon="6.54351">
        <ele>1787.6</ele>
        <time>2011-01-22T09:25:29Z</time>
      </trkpt>
      <trkpt lat="44.93534" lon="6.54349">
        <ele>1787</ele>
        <time>2011-01-22T09:25:34Z</time>
      </trkpt>
      <trkpt lat="44.93532" lon="6.5435">
        <ele>1786.4</ele>
        <time>2011-01-22T09:25:40Z</time>
      </trkpt>
      <trkpt lat="44.9353" lon="6.54349">
        <ele>1785.6</ele>
        <time>2011-01-22T09:25:46Z</time>
      </trkpt>
      <trkpt lat="44.93529" lon="6.54342">
        <ele>1784.6</ele>
        <time>2011-01-22T09:25:52Z</time>
      </trkpt>
      <trkpt lat="44.93526" lon="6.54342">
        <ele>1784.6</ele>
        <time>2011-01-22T09:25:53Z</time>
      </trkpt>
      <trkpt lat="44.93522" lon="6.5434">
        <ele>1784.4</ele>
        <time>2011-01-22T09:25:55Z</time>
      </trkpt>
      <trkpt lat="44.93516" lon="6.54336">
        <ele>1784.2</ele>
        <time>2011-01-22T09:25:58Z</time>
      </trkpt>
      <trkpt lat="44.9351" lon="6.54333">
        <ele>1784</ele>
        <time>2011-01-22T09:26:01Z</time>
      </trkpt>
      <trkpt lat="44.93508" lon="6.54332">
        <ele>1784</ele>
        <time>2011-01-22T09:26:02Z</time>
      </trkpt>
      <trkpt lat="44.93502" lon="6.54329">
        <ele>1783.8</ele>
        <time>2011-01-22T09:26:05Z</time>
      </trkpt>
      <trkpt lat="44.93492" lon="6.54323">
        <ele>1783.8</ele>
        <time>2011-01-22T09:26:10Z</time>
      </trkpt>
      <trkpt lat="44.9349" lon="6.54322">
        <ele>1783.8</ele>
        <time>2011-01-22T09:26:11Z</time>
      </trkpt>
      <trkpt lat="44.93485" lon="6.5432">
        <ele>1784</ele>
        <time>2011-01-22T09:26:15Z</time>
      </trkpt>
      <trkpt lat="44.93474" lon="6.54313">
        <ele>1785.2</ele>
        <time>2011-01-22T09:26:24Z</time>
      </trkpt>
      <trkpt lat="44.93473" lon="6.54312">
        <ele>1785.2</ele>
        <time>2011-01-22T09:26:25Z</time>
      </trkpt>
      <trkpt lat="44.9346" lon="6.54304">
        <ele>1787.6</ele>
        <time>2011-01-22T09:26:36Z</time>
      </trkpt>
      <trkpt lat="44.93456" lon="6.54303">
        <ele>1788.4</ele>
        <time>2011-01-22T09:26:39Z</time>
      </trkpt>
      <trkpt lat="44.93449" lon="6.54298">
        <ele>1789.8</ele>
        <time>2011-01-22T09:26:45Z</time>
      </trkpt>
      <trkpt lat="44.9344" lon="6.54293">
        <ele>1791.2</ele>
        <time>2011-01-22T09:26:50Z</time>
      </trkpt>
      <trkpt lat="44.9343" lon="6.54288">
        <ele>1792.6</ele>
        <time>2011-01-22T09:26:55Z</time>
      </trkpt>
      <trkpt lat="44.93423" lon="6.54284">
        <ele>1794</ele>
        <time>2011-01-22T09:26:59Z</time>
      </trkpt>
      <trkpt lat="44.93405" lon="6.54277">
        <ele>1798</ele>
        <time>2011-01-22T09:27:08Z</time>
      </trkpt>
      <trkpt lat="44.93387" lon="6.54268">
        <ele>1803</ele>
        <time>2011-01-22T09:27:18Z</time>
      </trkpt>
      <trkpt lat="44.93383" lon="6.54267">
        <ele>1804</ele>
        <time>2011-01-22T09:27:20Z</time>
      </trkpt>
      <trkpt lat="44.93369" lon="6.5426">
        <ele>1807.4</ele>
        <time>2011-01-22T09:27:27Z</time>
      </trkpt>
      <trkpt lat="44.93351" lon="6.54249">
        <ele>1812.6</ele>
        <time>2011-01-22T09:27:37Z</time>
      </trkpt>
      <trkpt lat="44.93334" lon="6.54239">
        <ele>1818.4</ele>
        <time>2011-01-22T09:27:47Z</time>
      </trkpt>
      <trkpt lat="44.93316" lon="6.54228">
        <ele>1824.6</ele>
        <time>2011-01-22T09:27:57Z</time>
      </trkpt>
      <trkpt lat="44.93312" lon="6.54226">
        <ele>1826</ele>
        <time>2011-01-22T09:27:59Z</time>
      </trkpt>
      <trkpt lat="44.93298" lon="6.54218">
        <ele>1831.6</ele>
        <time>2011-01-22T09:28:07Z</time>
      </trkpt>
      <trkpt lat="44.93289" lon="6.54212">
        <ele>1835.4</ele>
        <time>2011-01-22T09:28:12Z</time>
      </trkpt>
      <trkpt lat="44.9328" lon="6.54208">
        <ele>1839.2</ele>
        <time>2011-01-22T09:28:17Z</time>
      </trkpt>
      <trkpt lat="44.93265" lon="6.54199">
        <ele>1845.4</ele>
        <time>2011-01-22T09:28:25Z</time>
      </trkpt>
      <trkpt lat="44.93262" lon="6.54197">
        <ele>1847</ele>
        <time>2011-01-22T09:28:27Z</time>
      </trkpt>
      <trkpt lat="44.93244" lon="6.54188">
        <ele>1854</ele>
        <time>2011-01-22T09:28:36Z</time>
      </trkpt>
      <trkpt lat="44.9324" lon="6.54186">
        <ele>1855.6</ele>
        <time>2011-01-22T09:28:38Z</time>
      </trkpt>
      <trkpt lat="44.93226" lon="6.54177">
        <ele>1862</ele>
        <time>2011-01-22T09:28:46Z</time>
      </trkpt>
      <trkpt lat="44.93213" lon="6.5417">
        <ele>1868</ele>
        <time>2011-01-22T09:28:53Z</time>
      </trkpt>
      <trkpt lat="44.93208" lon="6.54167">
        <ele>1870.4</ele>
        <time>2011-01-22T09:28:56Z</time>
      </trkpt>
      <trkpt lat="44.93194" lon="6.5416">
        <ele>1875.8</ele>
        <time>2011-01-22T09:29:03Z</time>
      </trkpt>
      <trkpt lat="44.93191" lon="6.54157">
        <ele>1877.4</ele>
        <time>2011-01-22T09:29:05Z</time>
      </trkpt>
      <trkpt lat="44.93172" lon="6.54149">
        <ele>1884.2</ele>
        <time>2011-01-22T09:29:15Z</time>
      </trkpt>
      <trkpt lat="44.93153" lon="6.54139">
        <ele>1890.6</ele>
        <time>2011-01-22T09:29:25Z</time>
      </trkpt>
      <trkpt lat="44.93149" lon="6.54137">
        <ele>1891.8</ele>
        <time>2011-01-22T09:29:27Z</time>
      </trkpt>
      <trkpt lat="44.93134" lon="6.54129">
        <ele>1897.4</ele>
        <time>2011-01-22T09:29:35Z</time>
      </trkpt>
      <trkpt lat="44.93123" lon="6.54123">
        <ele>1902</ele>
        <time>2011-01-22T09:29:42Z</time>
      </trkpt>
      <trkpt lat="44.93118" lon="6.5412">
        <ele>1904.2</ele>
        <time>2011-01-22T09:29:45Z</time>
      </trkpt>
      <trkpt lat="44.93103" lon="6.54113">
        <ele>1909.8</ele>
        <time>2011-01-22T09:29:53Z</time>
      </trkpt>
      <trkpt lat="44.931" lon="6.54111">
        <ele>1911.4</ele>
        <time>2011-01-22T09:29:55Z</time>
      </trkpt>
      <trkpt lat="44.93089" lon="6.54104">
        <ele>1916</ele>
        <time>2011-01-22T09:30:01Z</time>
      </trkpt>
      <trkpt lat="44.93082" lon="6.541">
        <ele>1919</ele>
        <time>2011-01-22T09:30:05Z</time>
      </trkpt>
      <trkpt lat="44.9307" lon="6.54093">
        <ele>1923.6</ele>
        <time>2011-01-22T09:30:11Z</time>
      </trkpt>
      <trkpt lat="44.93065" lon="6.5409">
        <ele>1926</ele>
        <time>2011-01-22T09:30:14Z</time>
      </trkpt>
      <trkpt lat="44.93048" lon="6.5408">
        <ele>1933</ele>
        <time>2011-01-22T09:30:23Z</time>
      </trkpt>
      <trkpt lat="44.93046" lon="6.54079">
        <ele>1933.8</ele>
        <time>2011-01-22T09:30:24Z</time>
      </trkpt>
      <trkpt lat="44.9303" lon="6.5407">
        <ele>1940.6</ele>
        <time>2011-01-22T09:30:33Z</time>
      </trkpt>
      <trkpt lat="44.93028" lon="6.54069">
        <ele>1941.4</ele>
        <time>2011-01-22T09:30:34Z</time>
      </trkpt>
      <trkpt lat="44.93012" lon="6.5406">
        <ele>1948.4</ele>
        <time>2011-01-22T09:30:43Z</time>
      </trkpt>
      <trkpt lat="44.93005" lon="6.54056">
        <ele>1951.4</ele>
        <time>2011-01-22T09:30:47Z</time>
      </trkpt>
      <trkpt lat="44.92994" lon="6.5405">
        <ele>1956.2</ele>
        <time>2011-01-22T09:30:53Z</time>
      </trkpt>
      <trkpt lat="44.92985" lon="6.54045">
        <ele>1960.2</ele>
        <time>2011-01-22T09:30:58Z</time>
      </trkpt>
      <trkpt lat="44.92976" lon="6.5404">
        <ele>1964.2</ele>
        <time>2011-01-22T09:31:03Z</time>
      </trkpt>
      <trkpt lat="44.92971" lon="6.54037">
        <ele>1966.6</ele>
        <time>2011-01-22T09:31:06Z</time>
      </trkpt>
      <trkpt lat="44.92958" lon="6.5403">
        <ele>1972.2</ele>
        <time>2011-01-22T09:31:13Z</time>
      </trkpt>
      <trkpt lat="44.92953" lon="6.54028">
        <ele>1974.4</ele>
        <time>2011-01-22T09:31:16Z</time>
      </trkpt>
      <trkpt lat="44.9294" lon="6.54022">
        <ele>1979.6</ele>
        <time>2011-01-22T09:31:23Z</time>
      </trkpt>
      <trkpt lat="44.92933" lon="6.54018">
        <ele>1982.4</ele>
        <time>2011-01-22T09:31:27Z</time>
      </trkpt>
      <trkpt lat="44.92922" lon="6.54012">
        <ele>1986.8</ele>
        <time>2011-01-22T09:31:33Z</time>
      </trkpt>
      <trkpt lat="44.92912" lon="6.54007">
        <ele>1990.4</ele>
        <time>2011-01-22T09:31:38Z</time>
      </trkpt>
      <trkpt lat="44.92903" lon="6.54002">
        <ele>1994</ele>
        <time>2011-01-22T09:31:43Z</time>
      </trkpt>
      <trkpt lat="44.92897" lon="6.53999">
        <ele>1996</ele>
        <time>2011-01-22T09:31:46Z</time>
      </trkpt>
      <trkpt lat="44.92885" lon="6.53993">
        <ele>2000.4</ele>
        <time>2011-01-22T09:31:52Z</time>
      </trkpt>
      <trkpt lat="44.92876" lon="6.53988">
        <ele>2004</ele>
        <time>2011-01-22T09:31:57Z</time>
      </trkpt>
      <trkpt lat="44.92867" lon="6.53982">
        <ele>2007.8</ele>
        <time>2011-01-22T09:32:02Z</time>
      </trkpt>
      <trkpt lat="44.92853" lon="6.53974">
        <ele>2013.8</ele>
        <time>2011-01-22T09:32:10Z</time>
      </trkpt>
      <trkpt lat="44.92849" lon="6.53972">
        <ele>2015.4</ele>
        <time>2011-01-22T09:32:12Z</time>
      </trkpt>
      <trkpt lat="44.92837" lon="6.53965">
        <ele>2020.8</ele>
        <time>2011-01-22T09:32:19Z</time>
      </trkpt>
      <trkpt lat="44.92831" lon="6.53962">
        <ele>2023.2</ele>
        <time>2011-01-22T09:32:22Z</time>
      </trkpt>
      <trkpt lat="44.92821" lon="6.53956">
        <ele>2028</ele>
        <time>2011-01-22T09:32:28Z</time>
      </trkpt>
      <trkpt lat="44.92814" lon="6.53952">
        <ele>2031.4</ele>
        <time>2011-01-22T09:32:32Z</time>
      </trkpt>
      <trkpt lat="44.92803" lon="6.53946">
        <ele>2036.4</ele>
        <time>2011-01-22T09:32:38Z</time>
      </trkpt>
      <trkpt lat="44.92797" lon="6.53942">
        <ele>2039.8</ele>
        <time>2011-01-22T09:32:42Z</time>
      </trkpt>
      <trkpt lat="44.92789" lon="6.53937">
        <ele>2043</ele>
        <time>2011-01-22T09:32:46Z</time>
      </trkpt>
      <trkpt lat="44.92779" lon="6.53932">
        <ele>2047</ele>
        <time>2011-01-22T09:32:51Z</time>
      </trkpt>
      <trkpt lat="44.92767" lon="6.53926">
        <ele>2051.4</ele>
        <time>2011-01-22T09:32:57Z</time>
      </trkpt>
      <trkpt lat="44.92762" lon="6.53923">
        <ele>2053.6</ele>
        <time>2011-01-22T09:33:00Z</time>
      </trkpt>
      <trkpt lat="44.92747" lon="6.53915">
        <ele>2059.4</ele>
        <time>2011-01-22T09:33:08Z</time>
      </trkpt>
      <trkpt lat="44.92745" lon="6.53914">
        <ele>2060</ele>
        <time>2011-01-22T09:33:09Z</time>
      </trkpt>
      <trkpt lat="44.92728" lon="6.53905">
        <ele>2066.4</ele>
        <time>2011-01-22T09:33:18Z</time>
      </trkpt>
      <trkpt lat="44.92724" lon="6.53903">
        <ele>2067.6</ele>
        <time>2011-01-22T09:33:20Z</time>
      </trkpt>
      <trkpt lat="44.9271" lon="6.53895">
        <ele>2071.8</ele>
        <time>2011-01-22T09:33:27Z</time>
      </trkpt>
      <trkpt lat="44.92697" lon="6.53887">
        <ele>2075.6</ele>
        <time>2011-01-22T09:33:34Z</time>
      </trkpt>
      <trkpt lat="44.92693" lon="6.53885">
        <ele>2076.8</ele>
        <time>2011-01-22T09:33:36Z</time>
      </trkpt>
      <trkpt lat="44.92687" lon="6.53882">
        <ele>2078.2</ele>
        <time>2011-01-22T09:33:39Z</time>
      </trkpt>
      <trkpt lat="44.92675" lon="6.53876">
        <ele>2081</ele>
        <time>2011-01-22T09:33:45Z</time>
      </trkpt>
      <trkpt lat="44.92671" lon="6.53874">
        <ele>2081.8</ele>
        <time>2011-01-22T09:33:47Z</time>
      </trkpt>
      <trkpt lat="44.92659" lon="6.53868">
        <ele>2085.4</ele>
        <time>2011-01-22T09:33:56Z</time>
      </trkpt>
      <trkpt lat="44.92659" lon="6.53869">
        <ele>2089.2</ele>
        <time>2011-01-22T09:34:13Z</time>
      </trkpt>
      <trkpt lat="44.92655" lon="6.53867">
        <ele>2089.8</ele>
        <time>2011-01-22T09:34:17Z</time>
      </trkpt>
      <trkpt lat="44.92646" lon="6.53862">
        <ele>2091.4</ele>
        <time>2011-01-22T09:34:24Z</time>
      </trkpt>
      <trkpt lat="44.92642" lon="6.53859">
        <ele>2092.2</ele>
        <time>2011-01-22T09:34:27Z</time>
      </trkpt>
      <trkpt lat="44.92635" lon="6.53855">
        <ele>2093.8</ele>
        <time>2011-01-22T09:34:33Z</time>
      </trkpt>
      <trkpt lat="44.92626" lon="6.5385">
        <ele>2095.6</ele>
        <time>2011-01-22T09:34:39Z</time>
      </trkpt>
      <trkpt lat="44.9262" lon="6.53847">
        <ele>2096.6</ele>
        <time>2011-01-22T09:34:42Z</time>
      </trkpt>
      <trkpt lat="44.92609" lon="6.5384">
        <ele>2099</ele>
        <time>2011-01-22T09:34:48Z</time>
      </trkpt>
      <trkpt lat="44.92596" lon="6.53834">
        <ele>2101.6</ele>
        <time>2011-01-22T09:34:55Z</time>
      </trkpt>
      <trkpt lat="44.92591" lon="6.53832">
        <ele>2102.6</ele>
        <time>2011-01-22T09:34:58Z</time>
      </trkpt>
      <trkpt lat="44.9258" lon="6.53826">
        <ele>2104.6</ele>
        <time>2011-01-22T09:35:04Z</time>
      </trkpt>
      <trkpt lat="44.92573" lon="6.53823">
        <ele>2105.6</ele>
        <time>2011-01-22T09:35:08Z</time>
      </trkpt>
      <trkpt lat="44.92557" lon="6.53814">
        <ele>2108</ele>
        <time>2011-01-22T09:35:17Z</time>
      </trkpt>
      <trkpt lat="44.92555" lon="6.53813">
        <ele>2108.2</ele>
        <time>2011-01-22T09:35:18Z</time>
      </trkpt>
      <trkpt lat="44.9254" lon="6.53806">
        <ele>2110</ele>
        <time>2011-01-22T09:35:26Z</time>
      </trkpt>
      <trkpt lat="44.92536" lon="6.53804">
        <ele>2110.6</ele>
        <time>2011-01-22T09:35:28Z</time>
      </trkpt>
      <trkpt lat="44.92519" lon="6.53794">
        <ele>2113</ele>
        <time>2011-01-22T09:35:37Z</time>
      </trkpt>
      <trkpt lat="44.92515" lon="6.53792">
        <ele>2113.8</ele>
        <time>2011-01-22T09:35:39Z</time>
      </trkpt>
      <trkpt lat="44.92502" lon="6.53785">
        <ele>2116.2</ele>
        <time>2011-01-22T09:35:46Z</time>
      </trkpt>
      <trkpt lat="44.92494" lon="6.53781">
        <ele>2117.6</ele>
        <time>2011-01-22T09:35:50Z</time>
      </trkpt>
      <trkpt lat="44.92483" lon="6.53774">
        <ele>2120.2</ele>
        <time>2011-01-22T09:35:56Z</time>
      </trkpt>
      <trkpt lat="44.92473" lon="6.53768">
        <ele>2122.8</ele>
        <time>2011-01-22T09:36:02Z</time>
      </trkpt>
      <trkpt lat="44.92466" lon="6.53765">
        <ele>2124</ele>
        <time>2011-01-22T09:36:05Z</time>
      </trkpt>
      <trkpt lat="44.92461" lon="6.53761">
        <ele>2125.2</ele>
        <time>2011-01-22T09:36:08Z</time>
      </trkpt>
      <trkpt lat="44.9245" lon="6.53755">
        <ele>2127.2</ele>
        <time>2011-01-22T09:36:14Z</time>
      </trkpt>
      <trkpt lat="44.92448" lon="6.53754">
        <ele>2127.4</ele>
        <time>2011-01-22T09:36:15Z</time>
      </trkpt>
      <trkpt lat="44.92435" lon="6.53742">
        <ele>2128.8</ele>
        <time>2011-01-22T09:36:21Z</time>
      </trkpt>
      <trkpt lat="44.92433" lon="6.53738">
        <ele>2129</ele>
        <time>2011-01-22T09:36:22Z</time>
      </trkpt>
      <trkpt lat="44.92435" lon="6.53727">
        <ele>2129.2</ele>
        <time>2011-01-22T09:36:25Z</time>
      </trkpt>
      <trkpt lat="44.92436" lon="6.53726">
        <ele>2129.6</ele>
        <time>2011-01-22T09:36:28Z</time>
      </trkpt>
      <trkpt lat="44.92436" lon="6.53726">
        <ele>2130.4</ele>
        <time>2011-01-22T09:36:49Z</time>
      </trkpt>
      <trkpt lat="44.92439" lon="6.53723">
        <ele>2130.6</ele>
        <time>2011-01-22T09:37:17Z</time>
      </trkpt>
      <trkpt lat="44.92441" lon="6.5372">
        <ele>2130.6</ele>
        <time>2011-01-22T09:37:18Z</time>
      </trkpt>
      <trkpt lat="44.92452" lon="6.53719">
        <ele>2130.4</ele>
        <time>2011-01-22T09:37:21Z</time>
      </trkpt>
      <trkpt lat="44.92456" lon="6.53718">
        <ele>2130.4</ele>
        <time>2011-01-22T09:37:22Z</time>
      </trkpt>
      <trkpt lat="44.92461" lon="6.53711">
        <ele>2130.4</ele>
        <time>2011-01-22T09:37:23Z</time>
      </trkpt>
      <trkpt lat="44.92471" lon="6.53708">
        <ele>2130.2</ele>
        <time>2011-01-22T09:37:24Z</time>
      </trkpt>
      <trkpt lat="44.92485" lon="6.53714">
        <ele>2130</ele>
        <time>2011-01-22T09:37:26Z</time>
      </trkpt>
      <trkpt lat="44.92493" lon="6.5371">
        <ele>2130</ele>
        <time>2011-01-22T09:37:27Z</time>
      </trkpt>
      <trkpt lat="44.92502" lon="6.53705">
        <ele>2129.8</ele>
        <time>2011-01-22T09:37:28Z</time>
      </trkpt>
      <trkpt lat="44.92514" lon="6.53706">
        <ele>2129.6</ele>
        <time>2011-01-22T09:37:29Z</time>
      </trkpt>
      <trkpt lat="44.92523" lon="6.53715">
        <ele>2129.4</ele>
        <time>2011-01-22T09:37:30Z</time>
      </trkpt>
      <trkpt lat="44.92531" lon="6.53723">
        <ele>2129.2</ele>
        <time>2011-01-22T09:37:31Z</time>
      </trkpt>
      <trkpt lat="44.9254" lon="6.53732">
        <ele>2128.8</ele>
        <time>2011-01-22T09:37:32Z</time>
      </trkpt>
      <trkpt lat="44.92547" lon="6.53745">
        <ele>2128.6</ele>
        <time>2011-01-22T09:37:33Z</time>
      </trkpt>
      <trkpt lat="44.92555" lon="6.53755">
        <ele>2128.2</ele>
        <time>2011-01-22T09:37:34Z</time>
      </trkpt>
      <trkpt lat="44.92565" lon="6.53761">
        <ele>2128</ele>
        <time>2011-01-22T09:37:35Z</time>
      </trkpt>
      <trkpt lat="44.92573" lon="6.5377">
        <ele>2127.6</ele>
        <time>2011-01-22T09:37:36Z</time>
      </trkpt>
      <trkpt lat="44.9258" lon="6.53781">
        <ele>2127.2</ele>
        <time>2011-01-22T09:37:37Z</time>
      </trkpt>
      <trkpt lat="44.92587" lon="6.53789">
        <ele>2126.8</ele>
        <time>2011-01-22T09:37:38Z</time>
      </trkpt>
      <trkpt lat="44.92596" lon="6.53797">
        <ele>2126.4</ele>
        <time>2011-01-22T09:37:39Z</time>
      </trkpt>
      <trkpt lat="44.9261" lon="6.53817">
        <ele>2125.6</ele>
        <time>2011-01-22T09:37:41Z</time>
      </trkpt>
      <trkpt lat="44.92626" lon="6.53846">
        <ele>2124.4</ele>
        <time>2011-01-22T09:37:44Z</time>
      </trkpt>
      <trkpt lat="44.92638" lon="6.53878">
        <ele>2123</ele>
        <time>2011-01-22T09:37:47Z</time>
      </trkpt>
      <trkpt lat="44.92643" lon="6.53886">
        <ele>2122.6</ele>
        <time>2011-01-22T09:37:48Z</time>
      </trkpt>
      <trkpt lat="44.92657" lon="6.53897">
        <ele>2121.6</ele>
        <time>2011-01-22T09:37:50Z</time>
      </trkpt>
      <trkpt lat="44.92673" lon="6.53909">
        <ele>2120.6</ele>
        <time>2011-01-22T09:37:52Z</time>
      </trkpt>
      <trkpt lat="44.9268" lon="6.53917">
        <ele>2120.2</ele>
        <time>2011-01-22T09:37:53Z</time>
      </trkpt>
      <trkpt lat="44.92694" lon="6.53923">
        <ele>2119.2</ele>
        <time>2011-01-22T09:37:55Z</time>
      </trkpt>
      <trkpt lat="44.92713" lon="6.53921">
        <ele>2117.6</ele>
        <time>2011-01-22T09:37:58Z</time>
      </trkpt>
      <trkpt lat="44.92731" lon="6.53927">
        <ele>2116</ele>
        <time>2011-01-22T09:38:01Z</time>
      </trkpt>
      <trkpt lat="44.92737" lon="6.53933">
        <ele>2115.4</ele>
        <time>2011-01-22T09:38:02Z</time>
      </trkpt>
      <trkpt lat="44.92743" lon="6.53949">
        <ele>2114.2</ele>
        <time>2011-01-22T09:38:04Z</time>
      </trkpt>
      <trkpt lat="44.92745" lon="6.53962">
        <ele>2112.6</ele>
        <time>2011-01-22T09:38:07Z</time>
      </trkpt>
      <trkpt lat="44.92743" lon="6.53963">
        <ele>2108.2</ele>
        <time>2011-01-22T09:38:16Z</time>
      </trkpt>
      <trkpt lat="44.92743" lon="6.5397">
        <ele>2104.4</ele>
        <time>2011-01-22T09:38:24Z</time>
      </trkpt>
      <trkpt lat="44.92742" lon="6.53983">
        <ele>2103.4</ele>
        <time>2011-01-22T09:38:26Z</time>
      </trkpt>
      <trkpt lat="44.92743" lon="6.5399">
        <ele>2103</ele>
        <time>2011-01-22T09:38:27Z</time>
      </trkpt>
      <trkpt lat="44.92749" lon="6.54002">
        <ele>2101.8</ele>
        <time>2011-01-22T09:38:29Z</time>
      </trkpt>
      <trkpt lat="44.92754" lon="6.54006">
        <ele>2101.4</ele>
        <time>2011-01-22T09:38:30Z</time>
      </trkpt>
      <trkpt lat="44.92764" lon="6.54019">
        <ele>2099.6</ele>
        <time>2011-01-22T09:38:33Z</time>
      </trkpt>
      <trkpt lat="44.92764" lon="6.54028">
        <ele>2098.6</ele>
        <time>2011-01-22T09:38:35Z</time>
      </trkpt>
      <trkpt lat="44.92764" lon="6.54033">
        <ele>2098</ele>
        <time>2011-01-22T09:38:36Z</time>
      </trkpt>
      <trkpt lat="44.92776" lon="6.54038">
        <ele>2096.2</ele>
        <time>2011-01-22T09:38:39Z</time>
      </trkpt>
      <trkpt lat="44.9278" lon="6.54041">
        <ele>2095.6</ele>
        <time>2011-01-22T09:38:40Z</time>
      </trkpt>
      <trkpt lat="44.92787" lon="6.5405">
        <ele>2094.2</ele>
        <time>2011-01-22T09:38:42Z</time>
      </trkpt>
      <trkpt lat="44.92796" lon="6.54055">
        <ele>2093</ele>
        <time>2011-01-22T09:38:44Z</time>
      </trkpt>
      <trkpt lat="44.928" lon="6.54058">
        <ele>2092.2</ele>
        <time>2011-01-22T09:38:45Z</time>
      </trkpt>
      <trkpt lat="44.92804" lon="6.54073">
        <ele>2090</ele>
        <time>2011-01-22T09:38:48Z</time>
      </trkpt>
      <trkpt lat="44.92808" lon="6.54078">
        <ele>2089.2</ele>
        <time>2011-01-22T09:38:49Z</time>
      </trkpt>
      <trkpt lat="44.92816" lon="6.54087">
        <ele>2087.6</ele>
        <time>2011-01-22T09:38:51Z</time>
      </trkpt>
      <trkpt lat="44.92827" lon="6.54092">
        <ele>2086.2</ele>
        <time>2011-01-22T09:38:53Z</time>
      </trkpt>
      <trkpt lat="44.92834" lon="6.54092">
        <ele>2085.4</ele>
        <time>2011-01-22T09:38:54Z</time>
      </trkpt>
      <trkpt lat="44.9285" lon="6.54093">
        <ele>2083.8</ele>
        <time>2011-01-22T09:38:56Z</time>
      </trkpt>
      <trkpt lat="44.9287" lon="6.54091">
        <ele>2081.4</ele>
        <time>2011-01-22T09:38:59Z</time>
      </trkpt>
      <trkpt lat="44.92873" lon="6.54089">
        <ele>2080</ele>
        <time>2011-01-22T09:39:01Z</time>
      </trkpt>
      <trkpt lat="44.92873" lon="6.54088">
        <ele>2079.2</ele>
        <time>2011-01-22T09:39:02Z</time>
      </trkpt>
      <trkpt lat="44.9287" lon="6.54084">
        <ele>2068.2</ele>
        <time>2011-01-22T09:39:19Z</time>
      </trkpt>
      <trkpt lat="44.92877" lon="6.54079">
        <ele>2056.4</ele>
        <time>2011-01-22T09:39:42Z</time>
      </trkpt>
      <trkpt lat="44.92882" lon="6.54075">
        <ele>2055.8</ele>
        <time>2011-01-22T09:39:43Z</time>
      </trkpt>
      <trkpt lat="44.92894" lon="6.54066">
        <ele>2054.8</ele>
        <time>2011-01-22T09:39:45Z</time>
      </trkpt>
      <trkpt lat="44.92901" lon="6.54062">
        <ele>2054.4</ele>
        <time>2011-01-22T09:39:46Z</time>
      </trkpt>
      <trkpt lat="44.92909" lon="6.54056">
        <ele>2053.8</ele>
        <time>2011-01-22T09:39:47Z</time>
      </trkpt>
      <trkpt lat="44.92916" lon="6.54044">
        <ele>2053.2</ele>
        <time>2011-01-22T09:39:48Z</time>
      </trkpt>
      <trkpt lat="44.92919" lon="6.54031">
        <ele>2052.8</ele>
        <time>2011-01-22T09:39:49Z</time>
      </trkpt>
      <trkpt lat="44.92921" lon="6.54018">
        <ele>2052.2</ele>
        <time>2011-01-22T09:39:50Z</time>
      </trkpt>
      <trkpt lat="44.92921" lon="6.53998">
        <ele>2051.2</ele>
        <time>2011-01-22T09:39:52Z</time>
      </trkpt>
      <trkpt lat="44.92919" lon="6.53984">
        <ele>2049.8</ele>
        <time>2011-01-22T09:39:55Z</time>
      </trkpt>
      <trkpt lat="44.92918" lon="6.53977">
        <ele>2048.4</ele>
        <time>2011-01-22T09:39:58Z</time>
      </trkpt>
      <trkpt lat="44.92918" lon="6.53975">
        <ele>2048</ele>
        <time>2011-01-22T09:39:59Z</time>
      </trkpt>
      <trkpt lat="44.92918" lon="6.53973">
        <ele>2047.4</ele>
        <time>2011-01-22T09:40:00Z</time>
      </trkpt>
      <trkpt lat="44.92919" lon="6.53967">
        <ele>2045.6</ele>
        <time>2011-01-22T09:40:04Z</time>
      </trkpt>
      <trkpt lat="44.92919" lon="6.53965">
        <ele>2044.8</ele>
        <time>2011-01-22T09:40:06Z</time>
      </trkpt>
      <trkpt lat="44.92919" lon="6.53965">
        <ele>2043</ele>
        <time>2011-01-22T09:40:10Z</time>
      </trkpt>
      <trkpt lat="44.92917" lon="6.53963">
        <ele>2028.2</ele>
        <time>2011-01-22T09:41:02Z</time>
      </trkpt>
      <trkpt lat="44.92918" lon="6.53964">
        <ele>2027</ele>
        <time>2011-01-22T09:41:07Z</time>
      </trkpt>
      <trkpt lat="44.92921" lon="6.53959">
        <ele>2025</ele>
        <time>2011-01-22T09:41:15Z</time>
      </trkpt>
      <trkpt lat="44.92922" lon="6.53958">
        <ele>2024.6</ele>
        <time>2011-01-22T09:41:16Z</time>
      </trkpt>
      <trkpt lat="44.92926" lon="6.53954">
        <ele>2024</ele>
        <time>2011-01-22T09:41:18Z</time>
      </trkpt>
      <trkpt lat="44.9293" lon="6.53955">
        <ele>2023.8</ele>
        <time>2011-01-22T09:41:19Z</time>
      </trkpt>
      <trkpt lat="44.92939" lon="6.53943">
        <ele>2022.8</ele>
        <time>2011-01-22T09:41:22Z</time>
      </trkpt>
      <trkpt lat="44.92941" lon="6.53934">
        <ele>2022.4</ele>
        <time>2011-01-22T09:41:23Z</time>
      </trkpt>
      <trkpt lat="44.92942" lon="6.53924">
        <ele>2022.2</ele>
        <time>2011-01-22T09:41:24Z</time>
      </trkpt>
      <trkpt lat="44.92944" lon="6.53915">
        <ele>2021.8</ele>
        <time>2011-01-22T09:41:25Z</time>
      </trkpt>
      <trkpt lat="44.92944" lon="6.53905">
        <ele>2021.6</ele>
        <time>2011-01-22T09:41:26Z</time>
      </trkpt>
      <trkpt lat="44.92947" lon="6.53878">
        <ele>2020.6</ele>
        <time>2011-01-22T09:41:29Z</time>
      </trkpt>
      <trkpt lat="44.92948" lon="6.53869">
        <ele>2020.2</ele>
        <time>2011-01-22T09:41:30Z</time>
      </trkpt>
      <trkpt lat="44.9295" lon="6.5385">
        <ele>2019.6</ele>
        <time>2011-01-22T09:41:32Z</time>
      </trkpt>
      <trkpt lat="44.92955" lon="6.53822">
        <ele>2018.4</ele>
        <time>2011-01-22T09:41:35Z</time>
      </trkpt>
      <trkpt lat="44.92956" lon="6.53812">
        <ele>2018</ele>
        <time>2011-01-22T09:41:36Z</time>
      </trkpt>
      <trkpt lat="44.92953" lon="6.53792">
        <ele>2017.4</ele>
        <time>2011-01-22T09:41:38Z</time>
      </trkpt>
      <trkpt lat="44.92952" lon="6.53782">
        <ele>2017</ele>
        <time>2011-01-22T09:41:39Z</time>
      </trkpt>
      <trkpt lat="44.92949" lon="6.53761">
        <ele>2016.4</ele>
        <time>2011-01-22T09:41:41Z</time>
      </trkpt>
      <trkpt lat="44.92947" lon="6.5373">
        <ele>2015.2</ele>
        <time>2011-01-22T09:41:44Z</time>
      </trkpt>
      <trkpt lat="44.92946" lon="6.53719">
        <ele>2014.8</ele>
        <time>2011-01-22T09:41:45Z</time>
      </trkpt>
      <trkpt lat="44.92942" lon="6.53697">
        <ele>2014</ele>
        <time>2011-01-22T09:41:47Z</time>
      </trkpt>
      <trkpt lat="44.92935" lon="6.53665">
        <ele>2012.6</ele>
        <time>2011-01-22T09:41:50Z</time>
      </trkpt>
      <trkpt lat="44.92932" lon="6.53654">
        <ele>2012.2</ele>
        <time>2011-01-22T09:41:51Z</time>
      </trkpt>
      <trkpt lat="44.92925" lon="6.53632">
        <ele>2011.4</ele>
        <time>2011-01-22T09:41:53Z</time>
      </trkpt>
      <trkpt lat="44.92917" lon="6.536">
        <ele>2010</ele>
        <time>2011-01-22T09:41:56Z</time>
      </trkpt>
      <trkpt lat="44.92915" lon="6.53589">
        <ele>2009.6</ele>
        <time>2011-01-22T09:41:57Z</time>
      </trkpt>
      <trkpt lat="44.9291" lon="6.53566">
        <ele>2008.6</ele>
        <time>2011-01-22T09:41:59Z</time>
      </trkpt>
      <trkpt lat="44.92911" lon="6.53542">
        <ele>2007.8</ele>
        <time>2011-01-22T09:42:01Z</time>
      </trkpt>
      <trkpt lat="44.92914" lon="6.53531">
        <ele>2007.2</ele>
        <time>2011-01-22T09:42:02Z</time>
      </trkpt>
      <trkpt lat="44.92925" lon="6.53515">
        <ele>2006.4</ele>
        <time>2011-01-22T09:42:04Z</time>
      </trkpt>
      <trkpt lat="44.92931" lon="6.5351">
        <ele>2005.8</ele>
        <time>2011-01-22T09:42:05Z</time>
      </trkpt>
      <trkpt lat="44.92947" lon="6.53506">
        <ele>2004.8</ele>
        <time>2011-01-22T09:42:07Z</time>
      </trkpt>
      <trkpt lat="44.92956" lon="6.53505">
        <ele>2004.2</ele>
        <time>2011-01-22T09:42:08Z</time>
      </trkpt>
      <trkpt lat="44.92965" lon="6.53505">
        <ele>2003.6</ele>
        <time>2011-01-22T09:42:09Z</time>
      </trkpt>
      <trkpt lat="44.92974" lon="6.53508">
        <ele>2003</ele>
        <time>2011-01-22T09:42:10Z</time>
      </trkpt>
      <trkpt lat="44.92984" lon="6.53516">
        <ele>2002.6</ele>
        <time>2011-01-22T09:42:11Z</time>
      </trkpt>
      <trkpt lat="44.92989" lon="6.53526">
        <ele>2002</ele>
        <time>2011-01-22T09:42:12Z</time>
      </trkpt>
      <trkpt lat="44.92999" lon="6.53545">
        <ele>2000.8</ele>
        <time>2011-01-22T09:42:14Z</time>
      </trkpt>
      <trkpt lat="44.93005" lon="6.53555">
        <ele>2000.2</ele>
        <time>2011-01-22T09:42:15Z</time>
      </trkpt>
      <trkpt lat="44.93016" lon="6.53577">
        <ele>1999</ele>
        <time>2011-01-22T09:42:17Z</time>
      </trkpt>
      <trkpt lat="44.93019" lon="6.53588">
        <ele>1998.4</ele>
        <time>2011-01-22T09:42:18Z</time>
      </trkpt>
      <trkpt lat="44.9302" lon="6.536">
        <ele>1997.8</ele>
        <time>2011-01-22T09:42:19Z</time>
      </trkpt>
      <trkpt lat="44.93019" lon="6.53614">
        <ele>1997.2</ele>
        <time>2011-01-22T09:42:20Z</time>
      </trkpt>
      <trkpt lat="44.93013" lon="6.53646">
        <ele>1995.8</ele>
        <time>2011-01-22T09:42:22Z</time>
      </trkpt>
      <trkpt lat="44.93012" lon="6.53682">
        <ele>1994</ele>
        <time>2011-01-22T09:42:25Z</time>
      </trkpt>
      <trkpt lat="44.93021" lon="6.53702">
        <ele>1992</ele>
        <time>2011-01-22T09:42:28Z</time>
      </trkpt>
      <trkpt lat="44.93025" lon="6.53706">
        <ele>1990.8</ele>
        <time>2011-01-22T09:42:30Z</time>
      </trkpt>
      <trkpt lat="44.93026" lon="6.53707">
        <ele>1990.2</ele>
        <time>2011-01-22T09:42:31Z</time>
      </trkpt>
      <trkpt lat="44.93026" lon="6.53707">
        <ele>1989</ele>
        <time>2011-01-22T09:42:33Z</time>
      </trkpt>
      <trkpt lat="44.93028" lon="6.53708">
        <ele>1987.2</ele>
        <time>2011-01-22T09:42:36Z</time>
      </trkpt>
      <trkpt lat="44.9303" lon="6.5371">
        <ele>1984.4</ele>
        <time>2011-01-22T09:42:41Z</time>
      </trkpt>
      <trkpt lat="44.93031" lon="6.53712">
        <ele>1982.2</ele>
        <time>2011-01-22T09:42:45Z</time>
      </trkpt>
      <trkpt lat="44.93034" lon="6.53713">
        <ele>1979.8</ele>
        <time>2011-01-22T09:42:50Z</time>
      </trkpt>
      <trkpt lat="44.93038" lon="6.53715">
        <ele>1975.4</ele>
        <time>2011-01-22T09:42:59Z</time>
      </trkpt>
      <trkpt lat="44.93037" lon="6.53718">
        <ele>1970.6</ele>
        <time>2011-01-22T09:43:08Z</time>
      </trkpt>
      <trkpt lat="44.93039" lon="6.53717">
        <ele>1969</ele>
        <time>2011-01-22T09:43:11Z</time>
      </trkpt>
      <trkpt lat="44.93042" lon="6.53716">
        <ele>1968.2</ele>
        <time>2011-01-22T09:43:13Z</time>
      </trkpt>
      <trkpt lat="44.93045" lon="6.53705">
        <ele>1965.8</ele>
        <time>2011-01-22T09:43:18Z</time>
      </trkpt>
      <trkpt lat="44.93044" lon="6.53689">
        <ele>1964.4</ele>
        <time>2011-01-22T09:43:21Z</time>
      </trkpt>
      <trkpt lat="44.93044" lon="6.53682">
        <ele>1964</ele>
        <time>2011-01-22T09:43:22Z</time>
      </trkpt>
      <trkpt lat="44.93045" lon="6.53663">
        <ele>1963</ele>
        <time>2011-01-22T09:43:25Z</time>
      </trkpt>
      <trkpt lat="44.93047" lon="6.53638">
        <ele>1962</ele>
        <time>2011-01-22T09:43:29Z</time>
      </trkpt>
      <trkpt lat="44.93047" lon="6.53632">
        <ele>1961.8</ele>
        <time>2011-01-22T09:43:30Z</time>
      </trkpt>
      <trkpt lat="44.93049" lon="6.53607">
        <ele>1961.4</ele>
        <time>2011-01-22T09:43:34Z</time>
      </trkpt>
      <trkpt lat="44.9305" lon="6.53588">
        <ele>1961.2</ele>
        <time>2011-01-22T09:43:37Z</time>
      </trkpt>
      <trkpt lat="44.93051" lon="6.53576">
        <ele>1961.2</ele>
        <time>2011-01-22T09:43:39Z</time>
      </trkpt>
      <trkpt lat="44.93054" lon="6.53547">
        <ele>1962</ele>
        <time>2011-01-22T09:43:44Z</time>
      </trkpt>
      <trkpt lat="44.93054" lon="6.5354">
        <ele>1962.2</ele>
        <time>2011-01-22T09:43:45Z</time>
      </trkpt>
      <trkpt lat="44.93056" lon="6.53516">
        <ele>1964</ele>
        <time>2011-01-22T09:43:49Z</time>
      </trkpt>
      <trkpt lat="44.93058" lon="6.53486">
        <ele>1966.8</ele>
        <time>2011-01-22T09:43:54Z</time>
      </trkpt>
      <trkpt lat="44.93058" lon="6.5348">
        <ele>1967.4</ele>
        <time>2011-01-22T09:43:55Z</time>
      </trkpt>
      <trkpt lat="44.9306" lon="6.53456">
        <ele>1970.2</ele>
        <time>2011-01-22T09:43:59Z</time>
      </trkpt>
      <trkpt lat="44.93059" lon="6.53442">
        <ele>1971.8</ele>
        <time>2011-01-22T09:44:01Z</time>
      </trkpt>
      <trkpt lat="44.93059" lon="6.53435">
        <ele>1972.6</ele>
        <time>2011-01-22T09:44:02Z</time>
      </trkpt>
      <trkpt lat="44.9306" lon="6.53428">
        <ele>1973.4</ele>
        <time>2011-01-22T09:44:03Z</time>
      </trkpt>
      <trkpt lat="44.93062" lon="6.53399">
        <ele>1977.6</ele>
        <time>2011-01-22T09:44:08Z</time>
      </trkpt>
      <trkpt lat="44.93063" lon="6.53369">
        <ele>1982.4</ele>
        <time>2011-01-22T09:44:13Z</time>
      </trkpt>
      <trkpt lat="44.93065" lon="6.53339">
        <ele>1987.6</ele>
        <time>2011-01-22T09:44:18Z</time>
      </trkpt>
      <trkpt lat="44.93066" lon="6.53309">
        <ele>1993.4</ele>
        <time>2011-01-22T09:44:23Z</time>
      </trkpt>
      <trkpt lat="44.93067" lon="6.53297">
        <ele>1995.8</ele>
        <time>2011-01-22T09:44:25Z</time>
      </trkpt>
      <trkpt lat="44.93069" lon="6.53279">
        <ele>1999.2</ele>
        <time>2011-01-22T09:44:28Z</time>
      </trkpt>
      <trkpt lat="44.93071" lon="6.53249">
        <ele>2005.2</ele>
        <time>2011-01-22T09:44:33Z</time>
      </trkpt>
      <trkpt lat="44.93072" lon="6.53237">
        <ele>2007.6</ele>
        <time>2011-01-22T09:44:35Z</time>
      </trkpt>
      <trkpt lat="44.93074" lon="6.53219">
        <ele>2011.2</ele>
        <time>2011-01-22T09:44:38Z</time>
      </trkpt>
      <trkpt lat="44.93076" lon="6.5319">
        <ele>2017.4</ele>
        <time>2011-01-22T09:44:43Z</time>
      </trkpt>
      <trkpt lat="44.93076" lon="6.53183">
        <ele>2018.6</ele>
        <time>2011-01-22T09:44:44Z</time>
      </trkpt>
      <trkpt lat="44.93078" lon="6.53159">
        <ele>2023.6</ele>
        <time>2011-01-22T09:44:48Z</time>
      </trkpt>
      <trkpt lat="44.93079" lon="6.53134">
        <ele>2028.8</ele>
        <time>2011-01-22T09:44:52Z</time>
      </trkpt>
      <trkpt lat="44.9308" lon="6.53128">
        <ele>2030</ele>
        <time>2011-01-22T09:44:53Z</time>
      </trkpt>
      <trkpt lat="44.93082" lon="6.53104">
        <ele>2035.2</ele>
        <time>2011-01-22T09:44:57Z</time>
      </trkpt>
      <trkpt lat="44.93082" lon="6.53098">
        <ele>2036.4</ele>
        <time>2011-01-22T09:44:58Z</time>
      </trkpt>
      <trkpt lat="44.93083" lon="6.53086">
        <ele>2038.8</ele>
        <time>2011-01-22T09:45:00Z</time>
      </trkpt>
      <trkpt lat="44.93085" lon="6.53067">
        <ele>2042.6</ele>
        <time>2011-01-22T09:45:03Z</time>
      </trkpt>
      <trkpt lat="44.93088" lon="6.53037">
        <ele>2048.8</ele>
        <time>2011-01-22T09:45:08Z</time>
      </trkpt>
      <trkpt lat="44.9309" lon="6.53007">
        <ele>2054.8</ele>
        <time>2011-01-22T09:45:13Z</time>
      </trkpt>
      <trkpt lat="44.93092" lon="6.52977">
        <ele>2061.2</ele>
        <time>2011-01-22T09:45:18Z</time>
      </trkpt>
      <trkpt lat="44.93095" lon="6.52948">
        <ele>2067.6</ele>
        <time>2011-01-22T09:45:23Z</time>
      </trkpt>
      <trkpt lat="44.93095" lon="6.52942">
        <ele>2069</ele>
        <time>2011-01-22T09:45:24Z</time>
      </trkpt>
      <trkpt lat="44.93097" lon="6.52917">
        <ele>2074</ele>
        <time>2011-01-22T09:45:28Z</time>
      </trkpt>
      <trkpt lat="44.93097" lon="6.52911">
        <ele>2075.2</ele>
        <time>2011-01-22T09:45:29Z</time>
      </trkpt>
      <trkpt lat="44.93097" lon="6.52891">
        <ele>2078.8</ele>
        <time>2011-01-22T09:45:32Z</time>
      </trkpt>
      <trkpt lat="44.93099" lon="6.52866">
        <ele>2083.6</ele>
        <time>2011-01-22T09:45:36Z</time>
      </trkpt>
      <trkpt lat="44.93102" lon="6.52836">
        <ele>2089.6</ele>
        <time>2011-01-22T09:45:41Z</time>
      </trkpt>
      <trkpt lat="44.93103" lon="6.52812">
        <ele>2094.2</ele>
        <time>2011-01-22T09:45:45Z</time>
      </trkpt>
      <trkpt lat="44.93104" lon="6.52806">
        <ele>2095.2</ele>
        <time>2011-01-22T09:45:46Z</time>
      </trkpt>
      <trkpt lat="44.93105" lon="6.52795">
        <ele>2097.6</ele>
        <time>2011-01-22T09:45:48Z</time>
      </trkpt>
      <trkpt lat="44.93107" lon="6.52778">
        <ele>2101.2</ele>
        <time>2011-01-22T09:45:51Z</time>
      </trkpt>
      <trkpt lat="44.93108" lon="6.52772">
        <ele>2102.4</ele>
        <time>2011-01-22T09:45:52Z</time>
      </trkpt>
      <trkpt lat="44.9311" lon="6.52747">
        <ele>2107</ele>
        <time>2011-01-22T09:45:56Z</time>
      </trkpt>
      <trkpt lat="44.93111" lon="6.52729">
        <ele>2110.4</ele>
        <time>2011-01-22T09:45:59Z</time>
      </trkpt>
      <trkpt lat="44.93112" lon="6.52716">
        <ele>2112.6</ele>
        <time>2011-01-22T09:46:01Z</time>
      </trkpt>
      <trkpt lat="44.93114" lon="6.52691">
        <ele>2116.8</ele>
        <time>2011-01-22T09:46:05Z</time>
      </trkpt>
      <trkpt lat="44.93116" lon="6.5266">
        <ele>2122.2</ele>
        <time>2011-01-22T09:46:10Z</time>
      </trkpt>
      <trkpt lat="44.93119" lon="6.5263">
        <ele>2127.4</ele>
        <time>2011-01-22T09:46:15Z</time>
      </trkpt>
      <trkpt lat="44.93121" lon="6.52599">
        <ele>2133</ele>
        <time>2011-01-22T09:46:20Z</time>
      </trkpt>
      <trkpt lat="44.93124" lon="6.5257">
        <ele>2138.8</ele>
        <time>2011-01-22T09:46:25Z</time>
      </trkpt>
      <trkpt lat="44.93125" lon="6.5255">
        <ele>2141.8</ele>
        <time>2011-01-22T09:46:28Z</time>
      </trkpt>
      <trkpt lat="44.93126" lon="6.52544">
        <ele>2142.8</ele>
        <time>2011-01-22T09:46:29Z</time>
      </trkpt>
      <trkpt lat="44.93127" lon="6.52519">
        <ele>2146.6</ele>
        <time>2011-01-22T09:46:33Z</time>
      </trkpt>
      <trkpt lat="44.9313" lon="6.52487">
        <ele>2151.2</ele>
        <time>2011-01-22T09:46:38Z</time>
      </trkpt>
      <trkpt lat="44.93132" lon="6.52456">
        <ele>2155.4</ele>
        <time>2011-01-22T09:46:43Z</time>
      </trkpt>
      <trkpt lat="44.93134" lon="6.52425">
        <ele>2159.6</ele>
        <time>2011-01-22T09:46:48Z</time>
      </trkpt>
      <trkpt lat="44.93135" lon="6.5242">
        <ele>2160.4</ele>
        <time>2011-01-22T09:46:49Z</time>
      </trkpt>
      <trkpt lat="44.93136" lon="6.524">
        <ele>2164.6</ele>
        <time>2011-01-22T09:46:54Z</time>
      </trkpt>
      <trkpt lat="44.93137" lon="6.52395">
        <ele>2165.4</ele>
        <time>2011-01-22T09:46:55Z</time>
      </trkpt>
      <trkpt lat="44.93138" lon="6.5238">
        <ele>2168.8</ele>
        <time>2011-01-22T09:46:59Z</time>
      </trkpt>
      <trkpt lat="44.9314" lon="6.52367">
        <ele>2171.2</ele>
        <time>2011-01-22T09:47:02Z</time>
      </trkpt>
      <trkpt lat="44.93141" lon="6.52354">
        <ele>2173.6</ele>
        <time>2011-01-22T09:47:05Z</time>
      </trkpt>
      <trkpt lat="44.93142" lon="6.52342">
        <ele>2175.2</ele>
        <time>2011-01-22T09:47:07Z</time>
      </trkpt>
      <trkpt lat="44.93144" lon="6.52311">
        <ele>2179</ele>
        <time>2011-01-22T09:47:12Z</time>
      </trkpt>
      <trkpt lat="44.93144" lon="6.52305">
        <ele>2179.6</ele>
        <time>2011-01-22T09:47:13Z</time>
      </trkpt>
      <trkpt lat="44.93147" lon="6.5228">
        <ele>2182.6</ele>
        <time>2011-01-22T09:47:17Z</time>
      </trkpt>
      <trkpt lat="44.9315" lon="6.52256">
        <ele>2185.6</ele>
        <time>2011-01-22T09:47:21Z</time>
      </trkpt>
      <trkpt lat="44.9315" lon="6.5225">
        <ele>2186.4</ele>
        <time>2011-01-22T09:47:22Z</time>
      </trkpt>
      <trkpt lat="44.93153" lon="6.52219">
        <ele>2190.2</ele>
        <time>2011-01-22T09:47:27Z</time>
      </trkpt>
      <trkpt lat="44.93154" lon="6.52196">
        <ele>2193.6</ele>
        <time>2011-01-22T09:47:31Z</time>
      </trkpt>
      <trkpt lat="44.93155" lon="6.5219">
        <ele>2194.6</ele>
        <time>2011-01-22T09:47:32Z</time>
      </trkpt>
      <trkpt lat="44.93155" lon="6.52172">
        <ele>2197.4</ele>
        <time>2011-01-22T09:47:35Z</time>
      </trkpt>
      <trkpt lat="44.93156" lon="6.5216">
        <ele>2199.4</ele>
        <time>2011-01-22T09:47:37Z</time>
      </trkpt>
      <trkpt lat="44.93158" lon="6.5213">
        <ele>2204.8</ele>
        <time>2011-01-22T09:47:42Z</time>
      </trkpt>
      <trkpt lat="44.93159" lon="6.52101">
        <ele>2211</ele>
        <time>2011-01-22T09:47:47Z</time>
      </trkpt>
      <trkpt lat="44.9316" lon="6.52095">
        <ele>2212.2</ele>
        <time>2011-01-22T09:47:48Z</time>
      </trkpt>
      <trkpt lat="44.93162" lon="6.52072">
        <ele>2217.6</ele>
        <time>2011-01-22T09:47:52Z</time>
      </trkpt>
      <trkpt lat="44.93163" lon="6.5206">
        <ele>2220.2</ele>
        <time>2011-01-22T09:47:54Z</time>
      </trkpt>
      <trkpt lat="44.93164" lon="6.52042">
        <ele>2224.4</ele>
        <time>2011-01-22T09:47:57Z</time>
      </trkpt>
      <trkpt lat="44.93166" lon="6.52019">
        <ele>2230</ele>
        <time>2011-01-22T09:48:01Z</time>
      </trkpt>
      <trkpt lat="44.93166" lon="6.52013">
        <ele>2231.6</ele>
        <time>2011-01-22T09:48:02Z</time>
      </trkpt>
      <trkpt lat="44.93168" lon="6.51984">
        <ele>2239.2</ele>
        <time>2011-01-22T09:48:07Z</time>
      </trkpt>
      <trkpt lat="44.9317" lon="6.51961">
        <ele>2245.6</ele>
        <time>2011-01-22T09:48:11Z</time>
      </trkpt>
      <trkpt lat="44.9317" lon="6.51956">
        <ele>2247.4</ele>
        <time>2011-01-22T09:48:12Z</time>
      </trkpt>
      <trkpt lat="44.93173" lon="6.51928">
        <ele>2255.8</ele>
        <time>2011-01-22T09:48:17Z</time>
      </trkpt>
      <trkpt lat="44.93173" lon="6.51915">
        <ele>2259.2</ele>
        <time>2011-01-22T09:48:19Z</time>
      </trkpt>
      <trkpt lat="44.93174" lon="6.51897">
        <ele>2264.2</ele>
        <time>2011-01-22T09:48:22Z</time>
      </trkpt>
      <trkpt lat="44.93176" lon="6.51867">
        <ele>2272.6</ele>
        <time>2011-01-22T09:48:27Z</time>
      </trkpt>
      <trkpt lat="44.93177" lon="6.51861">
        <ele>2274.4</ele>
        <time>2011-01-22T09:48:28Z</time>
      </trkpt>
      <trkpt lat="44.93178" lon="6.51838">
        <ele>2281.2</ele>
        <time>2011-01-22T09:48:32Z</time>
      </trkpt>
      <trkpt lat="44.9318" lon="6.51809">
        <ele>2290</ele>
        <time>2011-01-22T09:48:37Z</time>
      </trkpt>
      <trkpt lat="44.93181" lon="6.51803">
        <ele>2291.8</ele>
        <time>2011-01-22T09:48:38Z</time>
      </trkpt>
      <trkpt lat="44.93183" lon="6.5178">
        <ele>2298.8</ele>
        <time>2011-01-22T09:48:42Z</time>
      </trkpt>
      <trkpt lat="44.93185" lon="6.51751">
        <ele>2307.6</ele>
        <time>2011-01-22T09:48:47Z</time>
      </trkpt>
      <trkpt lat="44.93188" lon="6.51721">
        <ele>2316.4</ele>
        <time>2011-01-22T09:48:52Z</time>
      </trkpt>
      <trkpt lat="44.9319" lon="6.51698">
        <ele>2323.6</ele>
        <time>2011-01-22T09:48:56Z</time>
      </trkpt>
      <trkpt lat="44.9319" lon="6.51693">
        <ele>2325.4</ele>
        <time>2011-01-22T09:48:57Z</time>
      </trkpt>
      <trkpt lat="44.93192" lon="6.51664">
        <ele>2334.8</ele>
        <time>2011-01-22T09:49:02Z</time>
      </trkpt>
      <trkpt lat="44.93196" lon="6.51641">
        <ele>2341.8</ele>
        <time>2011-01-22T09:49:06Z</time>
      </trkpt>
      <trkpt lat="44.93196" lon="6.51635">
        <ele>2343.4</ele>
        <time>2011-01-22T09:49:07Z</time>
      </trkpt>
      <trkpt lat="44.93198" lon="6.51603">
        <ele>2351.6</ele>
        <time>2011-01-22T09:49:12Z</time>
      </trkpt>
      <trkpt lat="44.93199" lon="6.51597">
        <ele>2353.2</ele>
        <time>2011-01-22T09:49:13Z</time>
      </trkpt>
      <trkpt lat="44.93201" lon="6.51573">
        <ele>2359.4</ele>
        <time>2011-01-22T09:49:17Z</time>
      </trkpt>
      <trkpt lat="44.93203" lon="6.51542">
        <ele>2366.8</ele>
        <time>2011-01-22T09:49:22Z</time>
      </trkpt>
      <trkpt lat="44.93205" lon="6.51518">
        <ele>2372.8</ele>
        <time>2011-01-22T09:49:26Z</time>
      </trkpt>
      <trkpt lat="44.93205" lon="6.51512">
        <ele>2374.2</ele>
        <time>2011-01-22T09:49:27Z</time>
      </trkpt>
      <trkpt lat="44.93207" lon="6.51482">
        <ele>2381.4</ele>
        <time>2011-01-22T09:49:32Z</time>
      </trkpt>
      <trkpt lat="44.9321" lon="6.51451">
        <ele>2388.2</ele>
        <time>2011-01-22T09:49:37Z</time>
      </trkpt>
      <trkpt lat="44.93212" lon="6.51421">
        <ele>2394.8</ele>
        <time>2011-01-22T09:49:42Z</time>
      </trkpt>
      <trkpt lat="44.93215" lon="6.5139">
        <ele>2401.4</ele>
        <time>2011-01-22T09:49:47Z</time>
      </trkpt>
      <trkpt lat="44.93216" lon="6.51372">
        <ele>2405.4</ele>
        <time>2011-01-22T09:49:50Z</time>
      </trkpt>
      <trkpt lat="44.93217" lon="6.51361">
        <ele>2408</ele>
        <time>2011-01-22T09:49:52Z</time>
      </trkpt>
      <trkpt lat="44.93219" lon="6.5133">
        <ele>2414.2</ele>
        <time>2011-01-22T09:49:57Z</time>
      </trkpt>
      <trkpt lat="44.93219" lon="6.51317">
        <ele>2416.6</ele>
        <time>2011-01-22T09:49:59Z</time>
      </trkpt>
      <trkpt lat="44.93221" lon="6.51299">
        <ele>2420.2</ele>
        <time>2011-01-22T09:50:02Z</time>
      </trkpt>
      <trkpt lat="44.93223" lon="6.51268">
        <ele>2426</ele>
        <time>2011-01-22T09:50:07Z</time>
      </trkpt>
      <trkpt lat="44.93224" lon="6.51243">
        <ele>2430.8</ele>
        <time>2011-01-22T09:50:11Z</time>
      </trkpt>
      <trkpt lat="44.93225" lon="6.51237">
        <ele>2432</ele>
        <time>2011-01-22T09:50:12Z</time>
      </trkpt>
      <trkpt lat="44.93227" lon="6.51207">
        <ele>2437.8</ele>
        <time>2011-01-22T09:50:17Z</time>
      </trkpt>
      <trkpt lat="44.93229" lon="6.51176">
        <ele>2443.6</ele>
        <time>2011-01-22T09:50:22Z</time>
      </trkpt>
      <trkpt lat="44.9323" lon="6.5117">
        <ele>2444.8</ele>
        <time>2011-01-22T09:50:23Z</time>
      </trkpt>
      <trkpt lat="44.93231" lon="6.51146">
        <ele>2449.6</ele>
        <time>2011-01-22T09:50:27Z</time>
      </trkpt>
      <trkpt lat="44.93233" lon="6.51118">
        <ele>2456.2</ele>
        <time>2011-01-22T09:50:32Z</time>
      </trkpt>
      <trkpt lat="44.93234" lon="6.51112">
        <ele>2457.6</ele>
        <time>2011-01-22T09:50:33Z</time>
      </trkpt>
      <trkpt lat="44.93235" lon="6.51089">
        <ele>2463</ele>
        <time>2011-01-22T09:50:37Z</time>
      </trkpt>
      <trkpt lat="44.93237" lon="6.51061">
        <ele>2470.2</ele>
        <time>2011-01-22T09:50:42Z</time>
      </trkpt>
      <trkpt lat="44.93239" lon="6.51042">
        <ele>2474.4</ele>
        <time>2011-01-22T09:50:45Z</time>
      </trkpt>
      <trkpt lat="44.93241" lon="6.51033">
        <ele>2477</ele>
        <time>2011-01-22T09:50:47Z</time>
      </trkpt>
      <trkpt lat="44.93242" lon="6.51023">
        <ele>2478</ele>
        <time>2011-01-22T09:50:48Z</time>
      </trkpt>
      <trkpt lat="44.93242" lon="6.51014">
        <ele>2480.2</ele>
        <time>2011-01-22T09:50:50Z</time>
      </trkpt>
      <trkpt lat="44.93242" lon="6.51011">
        <ele>2485</ele>
        <time>2011-01-22T09:50:55Z</time>
      </trkpt>
      <trkpt lat="44.9324" lon="6.5101">
        <ele>2488</ele>
        <time>2011-01-22T09:50:59Z</time>
      </trkpt>
      <trkpt lat="44.93237" lon="6.51012">
        <ele>2488.8</ele>
        <time>2011-01-22T09:51:00Z</time>
      </trkpt>
      <trkpt lat="44.93234" lon="6.51014">
        <ele>2489.6</ele>
        <time>2011-01-22T09:51:01Z</time>
      </trkpt>
      <trkpt lat="44.93222" lon="6.51023">
        <ele>2492.4</ele>
        <time>2011-01-22T09:51:06Z</time>
      </trkpt>
      <trkpt lat="44.93221" lon="6.51025">
        <ele>2504.6</ele>
        <time>2011-01-22T09:51:35Z</time>
      </trkpt>
      <trkpt lat="44.93216" lon="6.51025">
        <ele>2506.6</ele>
        <time>2011-01-22T09:51:42Z</time>
      </trkpt>
      <trkpt lat="44.93213" lon="6.51029">
        <ele>2507</ele>
        <time>2011-01-22T09:51:44Z</time>
      </trkpt>
      <trkpt lat="44.93214" lon="6.51034">
        <ele>2507.2</ele>
        <time>2011-01-22T09:51:45Z</time>
      </trkpt>
      <trkpt lat="44.93214" lon="6.5104">
        <ele>2507.2</ele>
        <time>2011-01-22T09:51:46Z</time>
      </trkpt>
      <trkpt lat="44.93213" lon="6.51066">
        <ele>2506.8</ele>
        <time>2011-01-22T09:51:49Z</time>
      </trkpt>
      <trkpt lat="44.93214" lon="6.51077">
        <ele>2506.8</ele>
        <time>2011-01-22T09:51:50Z</time>
      </trkpt>
      <trkpt lat="44.93218" lon="6.51087">
        <ele>2506.8</ele>
        <time>2011-01-22T09:51:51Z</time>
      </trkpt>
      <trkpt lat="44.93221" lon="6.51097">
        <ele>2506.6</ele>
        <time>2011-01-22T09:51:52Z</time>
      </trkpt>
      <trkpt lat="44.93221" lon="6.51119">
        <ele>2506.2</ele>
        <time>2011-01-22T09:51:54Z</time>
      </trkpt>
      <trkpt lat="44.93216" lon="6.51129">
        <ele>2506</ele>
        <time>2011-01-22T09:51:55Z</time>
      </trkpt>
      <trkpt lat="44.93211" lon="6.51148">
        <ele>2505.2</ele>
        <time>2011-01-22T09:51:57Z</time>
      </trkpt>
      <trkpt lat="44.93207" lon="6.51163">
        <ele>2504.8</ele>
        <time>2011-01-22T09:51:58Z</time>
      </trkpt>
      <trkpt lat="44.93194" lon="6.51186">
        <ele>2503.8</ele>
        <time>2011-01-22T09:52:00Z</time>
      </trkpt>
      <trkpt lat="44.93174" lon="6.51218">
        <ele>2502.8</ele>
        <time>2011-01-22T09:52:02Z</time>
      </trkpt>
      <trkpt lat="44.93151" lon="6.51244">
        <ele>2501.6</ele>
        <time>2011-01-22T09:52:04Z</time>
      </trkpt>
      <trkpt lat="44.93142" lon="6.51258">
        <ele>2501</ele>
        <time>2011-01-22T09:52:05Z</time>
      </trkpt>
      <trkpt lat="44.93132" lon="6.51269">
        <ele>2500.4</ele>
        <time>2011-01-22T09:52:06Z</time>
      </trkpt>
      <trkpt lat="44.93117" lon="6.51287">
        <ele>2499</ele>
        <time>2011-01-22T09:52:08Z</time>
      </trkpt>
      <trkpt lat="44.931" lon="6.51307">
        <ele>2497</ele>
        <time>2011-01-22T09:52:11Z</time>
      </trkpt>
      <trkpt lat="44.93095" lon="6.5131">
        <ele>2496.4</ele>
        <time>2011-01-22T09:52:12Z</time>
      </trkpt>
      <trkpt lat="44.93092" lon="6.51314">
        <ele>2495.8</ele>
        <time>2011-01-22T09:52:13Z</time>
      </trkpt>
      <trkpt lat="44.9309" lon="6.51319">
        <ele>2495</ele>
        <time>2011-01-22T09:52:14Z</time>
      </trkpt>
      <trkpt lat="44.93088" lon="6.51325">
        <ele>2493.2</ele>
        <time>2011-01-22T09:52:17Z</time>
      </trkpt>
      <trkpt lat="44.93091" lon="6.51323">
        <ele>2487.2</ele>
        <time>2011-01-22T09:52:28Z</time>
      </trkpt>
      <trkpt lat="44.93092" lon="6.51323">
        <ele>2482</ele>
        <time>2011-01-22T09:52:39Z</time>
      </trkpt>
      <trkpt lat="44.93092" lon="6.51325">
        <ele>2477.6</ele>
        <time>2011-01-22T09:52:50Z</time>
      </trkpt>
      <trkpt lat="44.93089" lon="6.51333">
        <ele>2476.8</ele>
        <time>2011-01-22T09:52:52Z</time>
      </trkpt>
      <trkpt lat="44.93083" lon="6.5135">
        <ele>2476</ele>
        <time>2011-01-22T09:52:54Z</time>
      </trkpt>
      <trkpt lat="44.93077" lon="6.51361">
        <ele>2475.4</ele>
        <time>2011-01-22T09:52:55Z</time>
      </trkpt>
      <trkpt lat="44.93071" lon="6.51373">
        <ele>2474.8</ele>
        <time>2011-01-22T09:52:56Z</time>
      </trkpt>
      <trkpt lat="44.93062" lon="6.51383">
        <ele>2474.4</ele>
        <time>2011-01-22T09:52:57Z</time>
      </trkpt>
      <trkpt lat="44.93052" lon="6.51392">
        <ele>2473.8</ele>
        <time>2011-01-22T09:52:58Z</time>
      </trkpt>
      <trkpt lat="44.93029" lon="6.51409">
        <ele>2472.6</ele>
        <time>2011-01-22T09:53:00Z</time>
      </trkpt>
      <trkpt lat="44.93018" lon="6.51415">
        <ele>2471.8</ele>
        <time>2011-01-22T09:53:01Z</time>
      </trkpt>
      <trkpt lat="44.93008" lon="6.51423">
        <ele>2471.2</ele>
        <time>2011-01-22T09:53:02Z</time>
      </trkpt>
      <trkpt lat="44.93" lon="6.51435">
        <ele>2470.6</ele>
        <time>2011-01-22T09:53:03Z</time>
      </trkpt>
      <trkpt lat="44.92995" lon="6.5145">
        <ele>2469.8</ele>
        <time>2011-01-22T09:53:04Z</time>
      </trkpt>
      <trkpt lat="44.92985" lon="6.51476">
        <ele>2468.4</ele>
        <time>2011-01-22T09:53:06Z</time>
      </trkpt>
      <trkpt lat="44.9298" lon="6.51489">
        <ele>2467.6</ele>
        <time>2011-01-22T09:53:07Z</time>
      </trkpt>
      <trkpt lat="44.92975" lon="6.51501">
        <ele>2466.8</ele>
        <time>2011-01-22T09:53:08Z</time>
      </trkpt>
      <trkpt lat="44.92965" lon="6.5151">
        <ele>2466</ele>
        <time>2011-01-22T09:53:09Z</time>
      </trkpt>
      <trkpt lat="44.92955" lon="6.51518">
        <ele>2465</ele>
        <time>2011-01-22T09:53:10Z</time>
      </trkpt>
      <trkpt lat="44.92946" lon="6.51528">
        <ele>2464.2</ele>
        <time>2011-01-22T09:53:11Z</time>
      </trkpt>
      <trkpt lat="44.92938" lon="6.51544">
        <ele>2463.2</ele>
        <time>2011-01-22T09:53:12Z</time>
      </trkpt>
      <trkpt lat="44.92932" lon="6.51562">
        <ele>2462.2</ele>
        <time>2011-01-22T09:53:13Z</time>
      </trkpt>
      <trkpt lat="44.9293" lon="6.51582">
        <ele>2461.2</ele>
        <time>2011-01-22T09:53:14Z</time>
      </trkpt>
      <trkpt lat="44.9293" lon="6.51602">
        <ele>2460.2</ele>
        <time>2011-01-22T09:53:15Z</time>
      </trkpt>
      <trkpt lat="44.92933" lon="6.51622">
        <ele>2459</ele>
        <time>2011-01-22T09:53:16Z</time>
      </trkpt>
      <trkpt lat="44.92935" lon="6.51644">
        <ele>2457.8</ele>
        <time>2011-01-22T09:53:17Z</time>
      </trkpt>
      <trkpt lat="44.92935" lon="6.51665">
        <ele>2456.6</ele>
        <time>2011-01-22T09:53:18Z</time>
      </trkpt>
      <trkpt lat="44.92936" lon="6.51687">
        <ele>2455.4</ele>
        <time>2011-01-22T09:53:19Z</time>
      </trkpt>
      <trkpt lat="44.92937" lon="6.51709">
        <ele>2454.2</ele>
        <time>2011-01-22T09:53:20Z</time>
      </trkpt>
      <trkpt lat="44.92934" lon="6.51749">
        <ele>2451.6</ele>
        <time>2011-01-22T09:53:22Z</time>
      </trkpt>
      <trkpt lat="44.92937" lon="6.51792">
        <ele>2449</ele>
        <time>2011-01-22T09:53:24Z</time>
      </trkpt>
      <trkpt lat="44.92949" lon="6.51832">
        <ele>2446.2</ele>
        <time>2011-01-22T09:53:26Z</time>
      </trkpt>
      <trkpt lat="44.92957" lon="6.5185">
        <ele>2444.8</ele>
        <time>2011-01-22T09:53:27Z</time>
      </trkpt>
      <trkpt lat="44.92967" lon="6.51867">
        <ele>2443.6</ele>
        <time>2011-01-22T09:53:28Z</time>
      </trkpt>
      <trkpt lat="44.92983" lon="6.51903">
        <ele>2440.6</ele>
        <time>2011-01-22T09:53:30Z</time>
      </trkpt>
      <trkpt lat="44.93001" lon="6.51939">
        <ele>2437.6</ele>
        <time>2011-01-22T09:53:32Z</time>
      </trkpt>
      <trkpt lat="44.9301" lon="6.5196">
        <ele>2436</ele>
        <time>2011-01-22T09:53:33Z</time>
      </trkpt>
      <trkpt lat="44.93018" lon="6.51983">
        <ele>2434.4</ele>
        <time>2011-01-22T09:53:34Z</time>
      </trkpt>
      <trkpt lat="44.93026" lon="6.52006">
        <ele>2432.6</ele>
        <time>2011-01-22T09:53:35Z</time>
      </trkpt>
      <trkpt lat="44.93036" lon="6.52029">
        <ele>2430.8</ele>
        <time>2011-01-22T09:53:36Z</time>
      </trkpt>
      <trkpt lat="44.93047" lon="6.52052">
        <ele>2429</ele>
        <time>2011-01-22T09:53:37Z</time>
      </trkpt>
      <trkpt lat="44.93057" lon="6.52077">
        <ele>2427.2</ele>
        <time>2011-01-22T09:53:38Z</time>
      </trkpt>
      <trkpt lat="44.93066" lon="6.52103">
        <ele>2425.2</ele>
        <time>2011-01-22T09:53:39Z</time>
      </trkpt>
      <trkpt lat="44.93077" lon="6.52127">
        <ele>2423.2</ele>
        <time>2011-01-22T09:53:40Z</time>
      </trkpt>
      <trkpt lat="44.93088" lon="6.52152">
        <ele>2421.2</ele>
        <time>2011-01-22T09:53:41Z</time>
      </trkpt>
      <trkpt lat="44.93096" lon="6.52179">
        <ele>2419</ele>
        <time>2011-01-22T09:53:42Z</time>
      </trkpt>
      <trkpt lat="44.93098" lon="6.52208">
        <ele>2417</ele>
        <time>2011-01-22T09:53:43Z</time>
      </trkpt>
      <trkpt lat="44.93098" lon="6.52237">
        <ele>2414.8</ele>
        <time>2011-01-22T09:53:44Z</time>
      </trkpt>
      <trkpt lat="44.93097" lon="6.52267">
        <ele>2412.6</ele>
        <time>2011-01-22T09:53:45Z</time>
      </trkpt>
      <trkpt lat="44.93094" lon="6.52295">
        <ele>2410.4</ele>
        <time>2011-01-22T09:53:46Z</time>
      </trkpt>
      <trkpt lat="44.93092" lon="6.52323">
        <ele>2408.2</ele>
        <time>2011-01-22T09:53:47Z</time>
      </trkpt>
      <trkpt lat="44.93091" lon="6.52351">
        <ele>2406</ele>
        <time>2011-01-22T09:53:48Z</time>
      </trkpt>
      <trkpt lat="44.93091" lon="6.52395">
        <ele>2401.4</ele>
        <time>2011-01-22T09:53:50Z</time>
      </trkpt>
      <trkpt lat="44.93091" lon="6.52413">
        <ele>2399.2</ele>
        <time>2011-01-22T09:53:51Z</time>
      </trkpt>
      <trkpt lat="44.93091" lon="6.5243">
        <ele>2397</ele>
        <time>2011-01-22T09:53:52Z</time>
      </trkpt>
      <trkpt lat="44.93093" lon="6.52459">
        <ele>2392.8</ele>
        <time>2011-01-22T09:53:54Z</time>
      </trkpt>
      <trkpt lat="44.9309" lon="6.52472">
        <ele>2390.6</ele>
        <time>2011-01-22T09:53:55Z</time>
      </trkpt>
      <trkpt lat="44.9308" lon="6.52486">
        <ele>2386.2</ele>
        <time>2011-01-22T09:53:57Z</time>
      </trkpt>
      <trkpt lat="44.93078" lon="6.52489">
        <ele>2382.2</ele>
        <time>2011-01-22T09:53:59Z</time>
      </trkpt>
      <trkpt lat="44.93077" lon="6.52486">
        <ele>2376.4</ele>
        <time>2011-01-22T09:54:02Z</time>
      </trkpt>
      <trkpt lat="44.93077" lon="6.52486">
        <ele>2369</ele>
        <time>2011-01-22T09:54:06Z</time>
      </trkpt>
      <trkpt lat="44.93078" lon="6.52485">
        <ele>2350.2</ele>
        <time>2011-01-22T09:54:17Z</time>
      </trkpt>
      <trkpt lat="44.93078" lon="6.52486">
        <ele>2306.2</ele>
        <time>2011-01-22T09:54:49Z</time>
      </trkpt>
      <trkpt lat="44.93076" lon="6.52488">
        <ele>2266.8</ele>
        <time>2011-01-22T09:55:29Z</time>
      </trkpt>
      <trkpt lat="44.93071" lon="6.52494">
        <ele>2262.6</ele>
        <time>2011-01-22T09:55:34Z</time>
      </trkpt>
      <trkpt lat="44.93067" lon="6.52496">
        <ele>2261.8</ele>
        <time>2011-01-22T09:55:35Z</time>
      </trkpt>
      <trkpt lat="44.93056" lon="6.52514">
        <ele>2259.4</ele>
        <time>2011-01-22T09:55:38Z</time>
      </trkpt>
      <trkpt lat="44.93048" lon="6.52535">
        <ele>2257.6</ele>
        <time>2011-01-22T09:55:40Z</time>
      </trkpt>
      <trkpt lat="44.93043" lon="6.52548">
        <ele>2256.6</ele>
        <time>2011-01-22T09:55:41Z</time>
      </trkpt>
      <trkpt lat="44.93036" lon="6.5256">
        <ele>2255.6</ele>
        <time>2011-01-22T09:55:42Z</time>
      </trkpt>
      <trkpt lat="44.93027" lon="6.52586">
        <ele>2253.8</ele>
        <time>2011-01-22T09:55:44Z</time>
      </trkpt>
      <trkpt lat="44.93016" lon="6.52611">
        <ele>2251.6</ele>
        <time>2011-01-22T09:55:46Z</time>
      </trkpt>
      <trkpt lat="44.9301" lon="6.52624">
        <ele>2250.6</ele>
        <time>2011-01-22T09:55:47Z</time>
      </trkpt>
      <trkpt lat="44.93002" lon="6.52632">
        <ele>2249.4</ele>
        <time>2011-01-22T09:55:48Z</time>
      </trkpt>
      <trkpt lat="44.92997" lon="6.52648">
        <ele>2248.2</ele>
        <time>2011-01-22T09:55:49Z</time>
      </trkpt>
      <trkpt lat="44.92994" lon="6.52665">
        <ele>2247</ele>
        <time>2011-01-22T09:55:50Z</time>
      </trkpt>
      <trkpt lat="44.92986" lon="6.52701">
        <ele>2244.4</ele>
        <time>2011-01-22T09:55:52Z</time>
      </trkpt>
      <trkpt lat="44.92983" lon="6.52721">
        <ele>2243.2</ele>
        <time>2011-01-22T09:55:53Z</time>
      </trkpt>
      <trkpt lat="44.92979" lon="6.52739">
        <ele>2241.6</ele>
        <time>2011-01-22T09:55:54Z</time>
      </trkpt>
      <trkpt lat="44.92973" lon="6.52778">
        <ele>2238.8</ele>
        <time>2011-01-22T09:55:56Z</time>
      </trkpt>
      <trkpt lat="44.92972" lon="6.52799">
        <ele>2237.4</ele>
        <time>2011-01-22T09:55:57Z</time>
      </trkpt>
      <trkpt lat="44.92969" lon="6.52811">
        <ele>2235.6</ele>
        <time>2011-01-22T09:55:58Z</time>
      </trkpt>
      <trkpt lat="44.92961" lon="6.52841">
        <ele>2232.6</ele>
        <time>2011-01-22T09:56:00Z</time>
      </trkpt>
      <trkpt lat="44.92954" lon="6.52865">
        <ele>2229.4</ele>
        <time>2011-01-22T09:56:02Z</time>
      </trkpt>
      <trkpt lat="44.92951" lon="6.52878">
        <ele>2227.8</ele>
        <time>2011-01-22T09:56:03Z</time>
      </trkpt>
      <trkpt lat="44.92945" lon="6.52907">
        <ele>2224.4</ele>
        <time>2011-01-22T09:56:05Z</time>
      </trkpt>
      <trkpt lat="44.92942" lon="6.52922">
        <ele>2222.6</ele>
        <time>2011-01-22T09:56:06Z</time>
      </trkpt>
      <trkpt lat="44.92939" lon="6.52938">
        <ele>2221</ele>
        <time>2011-01-22T09:56:07Z</time>
      </trkpt>
      <trkpt lat="44.92938" lon="6.52967">
        <ele>2217.4</ele>
        <time>2011-01-22T09:56:09Z</time>
      </trkpt>
      <trkpt lat="44.92937" lon="6.5298">
        <ele>2215.8</ele>
        <time>2011-01-22T09:56:10Z</time>
      </trkpt>
      <trkpt lat="44.92935" lon="6.52995">
        <ele>2214</ele>
        <time>2011-01-22T09:56:11Z</time>
      </trkpt>
      <trkpt lat="44.92933" lon="6.5301">
        <ele>2212</ele>
        <time>2011-01-22T09:56:12Z</time>
      </trkpt>
      <trkpt lat="44.9293" lon="6.53028">
        <ele>2210.2</ele>
        <time>2011-01-22T09:56:13Z</time>
      </trkpt>
      <trkpt lat="44.92932" lon="6.53068">
        <ele>2206.6</ele>
        <time>2011-01-22T09:56:15Z</time>
      </trkpt>
      <trkpt lat="44.9293" lon="6.53103">
        <ele>2202.8</ele>
        <time>2011-01-22T09:56:17Z</time>
      </trkpt>
      <trkpt lat="44.92921" lon="6.53133">
        <ele>2199.2</ele>
        <time>2011-01-22T09:56:19Z</time>
      </trkpt>
      <trkpt lat="44.92915" lon="6.53148">
        <ele>2197.2</ele>
        <time>2011-01-22T09:56:20Z</time>
      </trkpt>
      <trkpt lat="44.92911" lon="6.53164">
        <ele>2195.4</ele>
        <time>2011-01-22T09:56:21Z</time>
      </trkpt>
      <trkpt lat="44.92904" lon="6.53196">
        <ele>2191.6</ele>
        <time>2011-01-22T09:56:23Z</time>
      </trkpt>
      <trkpt lat="44.92894" lon="6.53229">
        <ele>2187.8</ele>
        <time>2011-01-22T09:56:25Z</time>
      </trkpt>
      <trkpt lat="44.92889" lon="6.53246">
        <ele>2185.8</ele>
        <time>2011-01-22T09:56:26Z</time>
      </trkpt>
      <trkpt lat="44.92885" lon="6.53265">
        <ele>2183.8</ele>
        <time>2011-01-22T09:56:27Z</time>
      </trkpt>
      <trkpt lat="44.92881" lon="6.53306">
        <ele>2179.8</ele>
        <time>2011-01-22T09:56:29Z</time>
      </trkpt>
      <trkpt lat="44.92879" lon="6.53348">
        <ele>2176</ele>
        <time>2011-01-22T09:56:31Z</time>
      </trkpt>
      <trkpt lat="44.92879" lon="6.53368">
        <ele>2174</ele>
        <time>2011-01-22T09:56:32Z</time>
      </trkpt>
      <trkpt lat="44.92881" lon="6.53387">
        <ele>2172</ele>
        <time>2011-01-22T09:56:33Z</time>
      </trkpt>
      <trkpt lat="44.92883" lon="6.53406">
        <ele>2170</ele>
        <time>2011-01-22T09:56:34Z</time>
      </trkpt>
      <trkpt lat="44.92886" lon="6.53423">
        <ele>2168</ele>
        <time>2011-01-22T09:56:35Z</time>
      </trkpt>
      <trkpt lat="44.92894" lon="6.53454">
        <ele>2164.2</ele>
        <time>2011-01-22T09:56:37Z</time>
      </trkpt>
      <trkpt lat="44.929" lon="6.53467">
        <ele>2162.2</ele>
        <time>2011-01-22T09:56:38Z</time>
      </trkpt>
      <trkpt lat="44.92905" lon="6.5348">
        <ele>2160.2</ele>
        <time>2011-01-22T09:56:39Z</time>
      </trkpt>
      <trkpt lat="44.9291" lon="6.53502">
        <ele>2156.4</ele>
        <time>2011-01-22T09:56:41Z</time>
      </trkpt>
      <trkpt lat="44.92913" lon="6.53512">
        <ele>2154.4</ele>
        <time>2011-01-22T09:56:42Z</time>
      </trkpt>
      <trkpt lat="44.92917" lon="6.53519">
        <ele>2152.4</ele>
        <time>2011-01-22T09:56:43Z</time>
      </trkpt>
      <trkpt lat="44.92919" lon="6.53524">
        <ele>2150.6</ele>
        <time>2011-01-22T09:56:44Z</time>
      </trkpt>
      <trkpt lat="44.92925" lon="6.53525">
        <ele>2145</ele>
        <time>2011-01-22T09:56:47Z</time>
      </trkpt>
      <trkpt lat="44.92929" lon="6.53522">
        <ele>2141.4</ele>
        <time>2011-01-22T09:56:49Z</time>
      </trkpt>
      <trkpt lat="44.92931" lon="6.5352">
        <ele>2139.6</ele>
        <time>2011-01-22T09:56:50Z</time>
      </trkpt>
      <trkpt lat="44.92939" lon="6.53516">
        <ele>2136</ele>
        <time>2011-01-22T09:56:52Z</time>
      </trkpt>
      <trkpt lat="44.92948" lon="6.53513">
        <ele>2132.4</ele>
        <time>2011-01-22T09:56:54Z</time>
      </trkpt>
      <trkpt lat="44.92959" lon="6.53511">
        <ele>2129</ele>
        <time>2011-01-22T09:56:56Z</time>
      </trkpt>
      <trkpt lat="44.92966" lon="6.53511">
        <ele>2127.2</ele>
        <time>2011-01-22T09:56:57Z</time>
      </trkpt>
      <trkpt lat="44.92972" lon="6.53513">
        <ele>2125.4</ele>
        <time>2011-01-22T09:56:58Z</time>
      </trkpt>
      <trkpt lat="44.92983" lon="6.53523">
        <ele>2122.2</ele>
        <time>2011-01-22T09:57:00Z</time>
      </trkpt>
      <trkpt lat="44.92996" lon="6.53545">
        <ele>2117</ele>
        <time>2011-01-22T09:57:03Z</time>
      </trkpt>
      <trkpt lat="44.93" lon="6.53554">
        <ele>2115.4</ele>
        <time>2011-01-22T09:57:04Z</time>
      </trkpt>
      <trkpt lat="44.93004" lon="6.53563">
        <ele>2113.8</ele>
        <time>2011-01-22T09:57:05Z</time>
      </trkpt>
      <trkpt lat="44.93008" lon="6.53571">
        <ele>2112.2</ele>
        <time>2011-01-22T09:57:06Z</time>
      </trkpt>
      <trkpt lat="44.93012" lon="6.53579">
        <ele>2110.6</ele>
        <time>2011-01-22T09:57:07Z</time>
      </trkpt>
      <trkpt lat="44.93018" lon="6.53594">
        <ele>2107.2</ele>
        <time>2011-01-22T09:57:09Z</time>
      </trkpt>
      <trkpt lat="44.93012" lon="6.53609">
        <ele>2104</ele>
        <time>2011-01-22T09:57:11Z</time>
      </trkpt>
      <trkpt lat="44.93006" lon="6.5362">
        <ele>2102.4</ele>
        <time>2011-01-22T09:57:12Z</time>
      </trkpt>
      <trkpt lat="44.92997" lon="6.53647">
        <ele>2099.2</ele>
        <time>2011-01-22T09:57:14Z</time>
      </trkpt>
      <trkpt lat="44.92995" lon="6.53673">
        <ele>2096</ele>
        <time>2011-01-22T09:57:16Z</time>
      </trkpt>
      <trkpt lat="44.92997" lon="6.53684">
        <ele>2094.4</ele>
        <time>2011-01-22T09:57:17Z</time>
      </trkpt>
      <trkpt lat="44.93002" lon="6.53695">
        <ele>2092.8</ele>
        <time>2011-01-22T09:57:18Z</time>
      </trkpt>
      <trkpt lat="44.93013" lon="6.53716">
        <ele>2089.6</ele>
        <time>2011-01-22T09:57:20Z</time>
      </trkpt>
      <trkpt lat="44.93019" lon="6.53725">
        <ele>2088</ele>
        <time>2011-01-22T09:57:21Z</time>
      </trkpt>
      <trkpt lat="44.93033" lon="6.53739">
        <ele>2084.8</ele>
        <time>2011-01-22T09:57:23Z</time>
      </trkpt>
      <trkpt lat="44.9304" lon="6.53746">
        <ele>2083.4</ele>
        <time>2011-01-22T09:57:24Z</time>
      </trkpt>
      <trkpt lat="44.93055" lon="6.53761">
        <ele>2080.2</ele>
        <time>2011-01-22T09:57:26Z</time>
      </trkpt>
      <trkpt lat="44.93071" lon="6.53778">
        <ele>2077.2</ele>
        <time>2011-01-22T09:57:28Z</time>
      </trkpt>
      <trkpt lat="44.93088" lon="6.53792">
        <ele>2074</ele>
        <time>2011-01-22T09:57:30Z</time>
      </trkpt>
      <trkpt lat="44.93096" lon="6.53801">
        <ele>2072.6</ele>
        <time>2011-01-22T09:57:31Z</time>
      </trkpt>
      <trkpt lat="44.93104" lon="6.53812">
        <ele>2071</ele>
        <time>2011-01-22T09:57:32Z</time>
      </trkpt>
      <trkpt lat="44.93112" lon="6.53821">
        <ele>2069.4</ele>
        <time>2011-01-22T09:57:33Z</time>
      </trkpt>
      <trkpt lat="44.9312" lon="6.5383">
        <ele>2068</ele>
        <time>2011-01-22T09:57:34Z</time>
      </trkpt>
      <trkpt lat="44.93127" lon="6.53841">
        <ele>2066.4</ele>
        <time>2011-01-22T09:57:35Z</time>
      </trkpt>
      <trkpt lat="44.93132" lon="6.53853">
        <ele>2064.8</ele>
        <time>2011-01-22T09:57:36Z</time>
      </trkpt>
      <trkpt lat="44.93142" lon="6.53876">
        <ele>2061.8</ele>
        <time>2011-01-22T09:57:38Z</time>
      </trkpt>
      <trkpt lat="44.93153" lon="6.53896">
        <ele>2058.8</ele>
        <time>2011-01-22T09:57:40Z</time>
      </trkpt>
      <trkpt lat="44.93161" lon="6.53918">
        <ele>2056</ele>
        <time>2011-01-22T09:57:42Z</time>
      </trkpt>
      <trkpt lat="44.93165" lon="6.53929">
        <ele>2054.4</ele>
        <time>2011-01-22T09:57:43Z</time>
      </trkpt>
      <trkpt lat="44.93166" lon="6.53954">
        <ele>2051.4</ele>
        <time>2011-01-22T09:57:45Z</time>
      </trkpt>
      <trkpt lat="44.93165" lon="6.53966">
        <ele>2050</ele>
        <time>2011-01-22T09:57:46Z</time>
      </trkpt>
      <trkpt lat="44.93165" lon="6.53979">
        <ele>2048.6</ele>
        <time>2011-01-22T09:57:47Z</time>
      </trkpt>
      <trkpt lat="44.93167" lon="6.54003">
        <ele>2045.6</ele>
        <time>2011-01-22T09:57:49Z</time>
      </trkpt>
      <trkpt lat="44.93171" lon="6.54036">
        <ele>2041.4</ele>
        <time>2011-01-22T09:57:52Z</time>
      </trkpt>
      <trkpt lat="44.93169" lon="6.54068">
        <ele>2037</ele>
        <time>2011-01-22T09:57:55Z</time>
      </trkpt>
      <trkpt lat="44.93167" lon="6.54099">
        <ele>2033</ele>
        <time>2011-01-22T09:57:58Z</time>
      </trkpt>
      <trkpt lat="44.93167" lon="6.54124">
        <ele>2028.8</ele>
        <time>2011-01-22T09:58:01Z</time>
      </trkpt>
      <trkpt lat="44.93167" lon="6.5413">
        <ele>2027.6</ele>
        <time>2011-01-22T09:58:02Z</time>
      </trkpt>
      <trkpt lat="44.93166" lon="6.54133">
        <ele>2025</ele>
        <time>2011-01-22T09:58:04Z</time>
      </trkpt>
      <trkpt lat="44.93166" lon="6.5413">
        <ele>1998.4</ele>
        <time>2011-01-22T09:58:27Z</time>
      </trkpt>
      <trkpt lat="44.9317" lon="6.54131">
        <ele>1989.4</ele>
        <time>2011-01-22T09:58:36Z</time>
      </trkpt>
      <trkpt lat="44.93179" lon="6.54134">
        <ele>1987.4</ele>
        <time>2011-01-22T09:58:38Z</time>
      </trkpt>
      <trkpt lat="44.93186" lon="6.54137">
        <ele>1986.4</ele>
        <time>2011-01-22T09:58:39Z</time>
      </trkpt>
      <trkpt lat="44.93201" lon="6.54149">
        <ele>1984.2</ele>
        <time>2011-01-22T09:58:41Z</time>
      </trkpt>
      <trkpt lat="44.93209" lon="6.54156">
        <ele>1983.2</ele>
        <time>2011-01-22T09:58:42Z</time>
      </trkpt>
      <trkpt lat="44.93218" lon="6.54162">
        <ele>1982.2</ele>
        <time>2011-01-22T09:58:43Z</time>
      </trkpt>
      <trkpt lat="44.93227" lon="6.5417">
        <ele>1981</ele>
        <time>2011-01-22T09:58:44Z</time>
      </trkpt>
      <trkpt lat="44.93237" lon="6.5418">
        <ele>1980</ele>
        <time>2011-01-22T09:58:45Z</time>
      </trkpt>
      <trkpt lat="44.93247" lon="6.54194">
        <ele>1978.8</ele>
        <time>2011-01-22T09:58:46Z</time>
      </trkpt>
      <trkpt lat="44.93257" lon="6.54204">
        <ele>1977.6</ele>
        <time>2011-01-22T09:58:47Z</time>
      </trkpt>
      <trkpt lat="44.93266" lon="6.54217">
        <ele>1976.4</ele>
        <time>2011-01-22T09:58:48Z</time>
      </trkpt>
      <trkpt lat="44.93273" lon="6.54231">
        <ele>1975</ele>
        <time>2011-01-22T09:58:49Z</time>
      </trkpt>
      <trkpt lat="44.93294" lon="6.54249">
        <ele>1972.6</ele>
        <time>2011-01-22T09:58:51Z</time>
      </trkpt>
      <trkpt lat="44.93321" lon="6.54244">
        <ele>1969.8</ele>
        <time>2011-01-22T09:58:53Z</time>
      </trkpt>
      <trkpt lat="44.93348" lon="6.54231">
        <ele>1967</ele>
        <time>2011-01-22T09:58:55Z</time>
      </trkpt>
      <trkpt lat="44.9336" lon="6.54235">
        <ele>1965.4</ele>
        <time>2011-01-22T09:58:56Z</time>
      </trkpt>
      <trkpt lat="44.93371" lon="6.54242">
        <ele>1964</ele>
        <time>2011-01-22T09:58:57Z</time>
      </trkpt>
      <trkpt lat="44.93382" lon="6.54251">
        <ele>1962.4</ele>
        <time>2011-01-22T09:58:58Z</time>
      </trkpt>
      <trkpt lat="44.93393" lon="6.54265">
        <ele>1960.8</ele>
        <time>2011-01-22T09:58:59Z</time>
      </trkpt>
      <trkpt lat="44.93413" lon="6.54294">
        <ele>1957.6</ele>
        <time>2011-01-22T09:59:01Z</time>
      </trkpt>
      <trkpt lat="44.93433" lon="6.54309">
        <ele>1954.4</ele>
        <time>2011-01-22T09:59:03Z</time>
      </trkpt>
      <trkpt lat="44.93447" lon="6.54308">
        <ele>1953</ele>
        <time>2011-01-22T09:59:04Z</time>
      </trkpt>
      <trkpt lat="44.93457" lon="6.54304">
        <ele>1951.4</ele>
        <time>2011-01-22T09:59:05Z</time>
      </trkpt>
      <trkpt lat="44.93477" lon="6.54303">
        <ele>1948.2</ele>
        <time>2011-01-22T09:59:07Z</time>
      </trkpt>
      <trkpt lat="44.93487" lon="6.54303">
        <ele>1946.8</ele>
        <time>2011-01-22T09:59:08Z</time>
      </trkpt>
      <trkpt lat="44.93498" lon="6.54303">
        <ele>1945.2</ele>
        <time>2011-01-22T09:59:09Z</time>
      </trkpt>
      <trkpt lat="44.93518" lon="6.54312">
        <ele>1942</ele>
        <time>2011-01-22T09:59:11Z</time>
      </trkpt>
      <trkpt lat="44.93538" lon="6.5432">
        <ele>1939</ele>
        <time>2011-01-22T09:59:13Z</time>
      </trkpt>
      <trkpt lat="44.93547" lon="6.54327">
        <ele>1937.4</ele>
        <time>2011-01-22T09:59:14Z</time>
      </trkpt>
      <trkpt lat="44.93559" lon="6.54342">
        <ele>1934.2</ele>
        <time>2011-01-22T09:59:16Z</time>
      </trkpt>
      <trkpt lat="44.93561" lon="6.54347">
        <ele>1932.8</ele>
        <time>2011-01-22T09:59:17Z</time>
      </trkpt>
      <trkpt lat="44.93561" lon="6.54349">
        <ele>1931.2</ele>
        <time>2011-01-22T09:59:18Z</time>
      </trkpt>
      <trkpt lat="44.93561" lon="6.54348">
        <ele>1929.8</ele>
        <time>2011-01-22T09:59:19Z</time>
      </trkpt>
      <trkpt lat="44.93562" lon="6.54349">
        <ele>1924</ele>
        <time>2011-01-22T09:59:23Z</time>
      </trkpt>
      <trkpt lat="44.93576" lon="6.54351">
        <ele>1918.4</ele>
        <time>2011-01-22T09:59:27Z</time>
      </trkpt>
      <trkpt lat="44.93589" lon="6.54355">
        <ele>1915.6</ele>
        <time>2011-01-22T09:59:29Z</time>
      </trkpt>
      <trkpt lat="44.93597" lon="6.5436">
        <ele>1914.2</ele>
        <time>2011-01-22T09:59:30Z</time>
      </trkpt>
      <trkpt lat="44.93612" lon="6.54374">
        <ele>1911.4</ele>
        <time>2011-01-22T09:59:32Z</time>
      </trkpt>
      <trkpt lat="44.93627" lon="6.54391">
        <ele>1908.4</ele>
        <time>2011-01-22T09:59:34Z</time>
      </trkpt>
      <trkpt lat="44.93646" lon="6.54399">
        <ele>1905.6</ele>
        <time>2011-01-22T09:59:36Z</time>
      </trkpt>
      <trkpt lat="44.93656" lon="6.54402">
        <ele>1904.2</ele>
        <time>2011-01-22T09:59:37Z</time>
      </trkpt>
      <trkpt lat="44.93668" lon="6.54404">
        <ele>1903</ele>
        <time>2011-01-22T09:59:38Z</time>
      </trkpt>
      <trkpt lat="44.93691" lon="6.54401">
        <ele>1900.2</ele>
        <time>2011-01-22T09:59:40Z</time>
      </trkpt>
      <trkpt lat="44.93714" lon="6.54385">
        <ele>1897.4</ele>
        <time>2011-01-22T09:59:42Z</time>
      </trkpt>
      <trkpt lat="44.93725" lon="6.54377">
        <ele>1896</ele>
        <time>2011-01-22T09:59:43Z</time>
      </trkpt>
      <trkpt lat="44.93735" lon="6.54369">
        <ele>1894.8</ele>
        <time>2011-01-22T09:59:44Z</time>
      </trkpt>
      <trkpt lat="44.93746" lon="6.54361">
        <ele>1893.4</ele>
        <time>2011-01-22T09:59:45Z</time>
      </trkpt>
      <trkpt lat="44.93757" lon="6.54355">
        <ele>1892</ele>
        <time>2011-01-22T09:59:46Z</time>
      </trkpt>
      <trkpt lat="44.93779" lon="6.54348">
        <ele>1889.2</ele>
        <time>2011-01-22T09:59:48Z</time>
      </trkpt>
      <trkpt lat="44.9379" lon="6.54346">
        <ele>1887.8</ele>
        <time>2011-01-22T09:59:49Z</time>
      </trkpt>
      <trkpt lat="44.93801" lon="6.54345">
        <ele>1886.4</ele>
        <time>2011-01-22T09:59:50Z</time>
      </trkpt>
      <trkpt lat="44.93823" lon="6.54345">
        <ele>1883.4</ele>
        <time>2011-01-22T09:59:52Z</time>
      </trkpt>
      <trkpt lat="44.93844" lon="6.54345">
        <ele>1880.6</ele>
        <time>2011-01-22T09:59:54Z</time>
      </trkpt>
      <trkpt lat="44.93864" lon="6.5435">
        <ele>1877.6</ele>
        <time>2011-01-22T09:59:56Z</time>
      </trkpt>
      <trkpt lat="44.93873" lon="6.54355">
        <ele>1876</ele>
        <time>2011-01-22T09:59:57Z</time>
      </trkpt>
      <trkpt lat="44.93882" lon="6.5436">
        <ele>1874.6</ele>
        <time>2011-01-22T09:59:58Z</time>
      </trkpt>
      <trkpt lat="44.93889" lon="6.54367">
        <ele>1873</ele>
        <time>2011-01-22T09:59:59Z</time>
      </trkpt>
      <trkpt lat="44.93895" lon="6.5438">
        <ele>1871.6</ele>
        <time>2011-01-22T10:00:00Z</time>
      </trkpt>
      <trkpt lat="44.939" lon="6.54385">
        <ele>1870.2</ele>
        <time>2011-01-22T10:00:01Z</time>
      </trkpt>
      <trkpt lat="44.93908" lon="6.54395">
        <ele>1867.4</ele>
        <time>2011-01-22T10:00:03Z</time>
      </trkpt>
      <trkpt lat="44.93914" lon="6.54405">
        <ele>1864.4</ele>
        <time>2011-01-22T10:00:05Z</time>
      </trkpt>
      <trkpt lat="44.93917" lon="6.54413">
        <ele>1863</ele>
        <time>2011-01-22T10:00:06Z</time>
      </trkpt>
      <trkpt lat="44.93922" lon="6.54435">
        <ele>1860</ele>
        <time>2011-01-22T10:00:08Z</time>
      </trkpt>
      <trkpt lat="44.93924" lon="6.54449">
        <ele>1858.4</ele>
        <time>2011-01-22T10:00:09Z</time>
      </trkpt>
      <trkpt lat="44.93923" lon="6.54463">
        <ele>1856.8</ele>
        <time>2011-01-22T10:00:10Z</time>
      </trkpt>
      <trkpt lat="44.9392" lon="6.54482">
        <ele>1855.2</ele>
        <time>2011-01-22T10:00:11Z</time>
      </trkpt>
      <trkpt lat="44.93923" lon="6.54496">
        <ele>1853.6</ele>
        <time>2011-01-22T10:00:12Z</time>
      </trkpt>
      <trkpt lat="44.93929" lon="6.54504">
        <ele>1852</ele>
        <time>2011-01-22T10:00:13Z</time>
      </trkpt>
      <trkpt lat="44.93944" lon="6.54512">
        <ele>1848.8</ele>
        <time>2011-01-22T10:00:15Z</time>
      </trkpt>
      <trkpt lat="44.93956" lon="6.54526">
        <ele>1845.6</ele>
        <time>2011-01-22T10:00:17Z</time>
      </trkpt>
      <trkpt lat="44.93962" lon="6.54535">
        <ele>1843.8</ele>
        <time>2011-01-22T10:00:18Z</time>
      </trkpt>
      <trkpt lat="44.93968" lon="6.54545">
        <ele>1842</ele>
        <time>2011-01-22T10:00:19Z</time>
      </trkpt>
      <trkpt lat="44.93974" lon="6.54556">
        <ele>1840.4</ele>
        <time>2011-01-22T10:00:20Z</time>
      </trkpt>
      <trkpt lat="44.93982" lon="6.54579">
        <ele>1836.8</ele>
        <time>2011-01-22T10:00:22Z</time>
      </trkpt>
      <trkpt lat="44.93986" lon="6.54587">
        <ele>1835</ele>
        <time>2011-01-22T10:00:23Z</time>
      </trkpt>
      <trkpt lat="44.93996" lon="6.54605">
        <ele>1831.4</ele>
        <time>2011-01-22T10:00:25Z</time>
      </trkpt>
      <trkpt lat="44.94002" lon="6.54612">
        <ele>1829.4</ele>
        <time>2011-01-22T10:00:26Z</time>
      </trkpt>
      <trkpt lat="44.94011" lon="6.5462">
        <ele>1827.6</ele>
        <time>2011-01-22T10:00:27Z</time>
      </trkpt>
      <trkpt lat="44.94023" lon="6.54621">
        <ele>1825.6</ele>
        <time>2011-01-22T10:00:28Z</time>
      </trkpt>
      <trkpt lat="44.94036" lon="6.54625">
        <ele>1823.6</ele>
        <time>2011-01-22T10:00:29Z</time>
      </trkpt>
      <trkpt lat="44.94048" lon="6.54629">
        <ele>1821.8</ele>
        <time>2011-01-22T10:00:30Z</time>
      </trkpt>
      <trkpt lat="44.94072" lon="6.54638">
        <ele>1817.8</ele>
        <time>2011-01-22T10:00:32Z</time>
      </trkpt>
      <trkpt lat="44.9409" lon="6.54655">
        <ele>1813.8</ele>
        <time>2011-01-22T10:00:34Z</time>
      </trkpt>
      <trkpt lat="44.94097" lon="6.5467">
        <ele>1811.8</ele>
        <time>2011-01-22T10:00:35Z</time>
      </trkpt>
      <trkpt lat="44.94104" lon="6.54684">
        <ele>1809.8</ele>
        <time>2011-01-22T10:00:36Z</time>
      </trkpt>
      <trkpt lat="44.94109" lon="6.54715">
        <ele>1805.6</ele>
        <time>2011-01-22T10:00:38Z</time>
      </trkpt>
      <trkpt lat="44.94105" lon="6.54741">
        <ele>1801.4</ele>
        <time>2011-01-22T10:00:40Z</time>
      </trkpt>
      <trkpt lat="44.94107" lon="6.54754">
        <ele>1799.2</ele>
        <time>2011-01-22T10:00:41Z</time>
      </trkpt>
      <trkpt lat="44.94111" lon="6.54765">
        <ele>1797</ele>
        <time>2011-01-22T10:00:42Z</time>
      </trkpt>
      <trkpt lat="44.94115" lon="6.54778">
        <ele>1794.8</ele>
        <time>2011-01-22T10:00:43Z</time>
      </trkpt>
      <trkpt lat="44.94123" lon="6.54803">
        <ele>1790.2</ele>
        <time>2011-01-22T10:00:45Z</time>
      </trkpt>
      <trkpt lat="44.94138" lon="6.54828">
        <ele>1785.6</ele>
        <time>2011-01-22T10:00:47Z</time>
      </trkpt>
      <trkpt lat="44.94148" lon="6.54837">
        <ele>1783.4</ele>
        <time>2011-01-22T10:00:48Z</time>
      </trkpt>
      <trkpt lat="44.94156" lon="6.54838">
        <ele>1781.2</ele>
        <time>2011-01-22T10:00:49Z</time>
      </trkpt>
      <trkpt lat="44.94164" lon="6.54828">
        <ele>1778.8</ele>
        <time>2011-01-22T10:00:50Z</time>
      </trkpt>
      <trkpt lat="44.94182" lon="6.54805">
        <ele>1774.2</ele>
        <time>2011-01-22T10:00:52Z</time>
      </trkpt>
      <trkpt lat="44.94189" lon="6.54796">
        <ele>1771.8</ele>
        <time>2011-01-22T10:00:53Z</time>
      </trkpt>
      <trkpt lat="44.94196" lon="6.5479">
        <ele>1769.6</ele>
        <time>2011-01-22T10:00:54Z</time>
      </trkpt>
      <trkpt lat="44.9422" lon="6.54773">
        <ele>1763</ele>
        <time>2011-01-22T10:00:57Z</time>
      </trkpt>
      <trkpt lat="44.94237" lon="6.54761">
        <ele>1758.4</ele>
        <time>2011-01-22T10:00:59Z</time>
      </trkpt>
      <trkpt lat="44.94246" lon="6.54757">
        <ele>1756.2</ele>
        <time>2011-01-22T10:01:00Z</time>
      </trkpt>
      <trkpt lat="44.94256" lon="6.54755">
        <ele>1754</ele>
        <time>2011-01-22T10:01:01Z</time>
      </trkpt>
      <trkpt lat="44.94265" lon="6.54757">
        <ele>1751.8</ele>
        <time>2011-01-22T10:01:02Z</time>
      </trkpt>
      <trkpt lat="44.94283" lon="6.54762">
        <ele>1747.6</ele>
        <time>2011-01-22T10:01:04Z</time>
      </trkpt>
      <trkpt lat="44.94292" lon="6.54765">
        <ele>1745.6</ele>
        <time>2011-01-22T10:01:05Z</time>
      </trkpt>
      <trkpt lat="44.943" lon="6.5477">
        <ele>1743.6</ele>
        <time>2011-01-22T10:01:06Z</time>
      </trkpt>
      <trkpt lat="44.94307" lon="6.54774">
        <ele>1741.6</ele>
        <time>2011-01-22T10:01:07Z</time>
      </trkpt>
      <trkpt lat="44.94322" lon="6.54769">
        <ele>1737.4</ele>
        <time>2011-01-22T10:01:09Z</time>
      </trkpt>
      <trkpt lat="44.9433" lon="6.54767">
        <ele>1735.4</ele>
        <time>2011-01-22T10:01:10Z</time>
      </trkpt>
      <trkpt lat="44.94348" lon="6.54758">
        <ele>1731.4</ele>
        <time>2011-01-22T10:01:12Z</time>
      </trkpt>
      <trkpt lat="44.94353" lon="6.54756">
        <ele>1729.4</ele>
        <time>2011-01-22T10:01:13Z</time>
      </trkpt>
      <trkpt lat="44.94356" lon="6.54755">
        <ele>1727.4</ele>
        <time>2011-01-22T10:01:14Z</time>
      </trkpt>
      <trkpt lat="44.94355" lon="6.54755">
        <ele>1725.4</ele>
        <time>2011-01-22T10:01:15Z</time>
      </trkpt>
      <trkpt lat="44.94351" lon="6.54756">
        <ele>1703.8</ele>
        <time>2011-01-22T10:01:27Z</time>
      </trkpt>
      <trkpt lat="44.94352" lon="6.54757">
        <ele>1668.8</ele>
        <time>2011-01-22T10:01:50Z</time>
      </trkpt>
      <trkpt lat="44.94353" lon="6.54757">
        <ele>1662</ele>
        <time>2011-01-22T10:01:55Z</time>
      </trkpt>
      <trkpt lat="44.94353" lon="6.54759">
        <ele>1656.8</ele>
        <time>2011-01-22T10:01:59Z</time>
      </trkpt>
      <trkpt lat="44.94352" lon="6.54758">
        <ele>1647</ele>
        <time>2011-01-22T10:02:07Z</time>
      </trkpt>
      <trkpt lat="44.94354" lon="6.5476">
        <ele>1643.6</ele>
        <time>2011-01-22T10:02:10Z</time>
      </trkpt>
      <trkpt lat="44.94354" lon="6.54759">
        <ele>1641.4</ele>
        <time>2011-01-22T10:02:12Z</time>
      </trkpt>
      <trkpt lat="44.94357" lon="6.54761">
        <ele>1638</ele>
        <time>2011-01-22T10:02:15Z</time>
      </trkpt>
      <trkpt lat="44.94357" lon="6.54762">
        <ele>1637</ele>
        <time>2011-01-22T10:02:16Z</time>
      </trkpt>
      <trkpt lat="44.94355" lon="6.54766">
        <ele>1631.8</ele>
        <time>2011-01-22T10:02:21Z</time>
      </trkpt>
      <trkpt lat="44.94351" lon="6.54763">
        <ele>1611.2</ele>
        <time>2011-01-22T10:02:44Z</time>
      </trkpt>
      <trkpt lat="44.94351" lon="6.5477">
        <ele>1595.2</ele>
        <time>2011-01-22T10:03:07Z</time>
      </trkpt>
      <trkpt lat="44.94353" lon="6.54789">
        <ele>1593</ele>
        <time>2011-01-22T10:03:10Z</time>
      </trkpt>
      <trkpt lat="44.94359" lon="6.54795">
        <ele>1592.4</ele>
        <time>2011-01-22T10:03:11Z</time>
      </trkpt>
      <trkpt lat="44.94366" lon="6.54806">
        <ele>1591.6</ele>
        <time>2011-01-22T10:03:12Z</time>
      </trkpt>
      <trkpt lat="44.94371" lon="6.54821">
        <ele>1590.8</ele>
        <time>2011-01-22T10:03:13Z</time>
      </trkpt>
      <trkpt lat="44.94371" lon="6.54852">
        <ele>1589.2</ele>
        <time>2011-01-22T10:03:15Z</time>
      </trkpt>
      <trkpt lat="44.94357" lon="6.54887">
        <ele>1587.4</ele>
        <time>2011-01-22T10:03:17Z</time>
      </trkpt>
      <trkpt lat="44.94348" lon="6.54906">
        <ele>1586.4</ele>
        <time>2011-01-22T10:03:18Z</time>
      </trkpt>
      <trkpt lat="44.9434" lon="6.54923">
        <ele>1585.4</ele>
        <time>2011-01-22T10:03:19Z</time>
      </trkpt>
      <trkpt lat="44.94331" lon="6.5494">
        <ele>1584.4</ele>
        <time>2011-01-22T10:03:20Z</time>
      </trkpt>
      <trkpt lat="44.94323" lon="6.54957">
        <ele>1583.4</ele>
        <time>2011-01-22T10:03:21Z</time>
      </trkpt>
      <trkpt lat="44.94308" lon="6.54993">
        <ele>1581.6</ele>
        <time>2011-01-22T10:03:23Z</time>
      </trkpt>
      <trkpt lat="44.94296" lon="6.55025">
        <ele>1579.4</ele>
        <time>2011-01-22T10:03:25Z</time>
      </trkpt>
      <trkpt lat="44.94293" lon="6.55043">
        <ele>1578.4</ele>
        <time>2011-01-22T10:03:26Z</time>
      </trkpt>
      <trkpt lat="44.94291" lon="6.55061">
        <ele>1577.2</ele>
        <time>2011-01-22T10:03:27Z</time>
      </trkpt>
      <trkpt lat="44.9429" lon="6.55079">
        <ele>1576.2</ele>
        <time>2011-01-22T10:03:28Z</time>
      </trkpt>
      <trkpt lat="44.94287" lon="6.55097">
        <ele>1575.2</ele>
        <time>2011-01-22T10:03:29Z</time>
      </trkpt>
      <trkpt lat="44.94283" lon="6.55114">
        <ele>1574</ele>
        <time>2011-01-22T10:03:30Z</time>
      </trkpt>
      <trkpt lat="44.94278" lon="6.55129">
        <ele>1573</ele>
        <time>2011-01-22T10:03:31Z</time>
      </trkpt>
      <trkpt lat="44.94262" lon="6.55155">
        <ele>1570.8</ele>
        <time>2011-01-22T10:03:33Z</time>
      </trkpt>
      <trkpt lat="44.94252" lon="6.55167">
        <ele>1569.6</ele>
        <time>2011-01-22T10:03:34Z</time>
      </trkpt>
      <trkpt lat="44.94243" lon="6.55178">
        <ele>1568.6</ele>
        <time>2011-01-22T10:03:35Z</time>
      </trkpt>
      <trkpt lat="44.94236" lon="6.55189">
        <ele>1567.4</ele>
        <time>2011-01-22T10:03:36Z</time>
      </trkpt>
      <trkpt lat="44.94229" lon="6.55201">
        <ele>1566.4</ele>
        <time>2011-01-22T10:03:37Z</time>
      </trkpt>
      <trkpt lat="44.94218" lon="6.55223">
        <ele>1564.2</ele>
        <time>2011-01-22T10:03:39Z</time>
      </trkpt>
      <trkpt lat="44.94203" lon="6.55254">
        <ele>1561</ele>
        <time>2011-01-22T10:03:42Z</time>
      </trkpt>
      <trkpt lat="44.94193" lon="6.55274">
        <ele>1558.8</ele>
        <time>2011-01-22T10:03:44Z</time>
      </trkpt>
      <trkpt lat="44.94181" lon="6.55298">
        <ele>1556.8</ele>
        <time>2011-01-22T10:03:46Z</time>
      </trkpt>
      <trkpt lat="44.94168" lon="6.55324">
        <ele>1554.6</ele>
        <time>2011-01-22T10:03:48Z</time>
      </trkpt>
      <trkpt lat="44.94156" lon="6.55352">
        <ele>1552.4</ele>
        <time>2011-01-22T10:03:50Z</time>
      </trkpt>
      <trkpt lat="44.94151" lon="6.55366">
        <ele>1551.4</ele>
        <time>2011-01-22T10:03:51Z</time>
      </trkpt>
      <trkpt lat="44.94147" lon="6.55382">
        <ele>1550.4</ele>
        <time>2011-01-22T10:03:52Z</time>
      </trkpt>
      <trkpt lat="44.94143" lon="6.55413">
        <ele>1548.2</ele>
        <time>2011-01-22T10:03:54Z</time>
      </trkpt>
      <trkpt lat="44.9414" lon="6.55444">
        <ele>1546.2</ele>
        <time>2011-01-22T10:03:56Z</time>
      </trkpt>
      <trkpt lat="44.94138" lon="6.55475">
        <ele>1544</ele>
        <time>2011-01-22T10:03:58Z</time>
      </trkpt>
      <trkpt lat="44.94137" lon="6.55491">
        <ele>1543</ele>
        <time>2011-01-22T10:03:59Z</time>
      </trkpt>
      <trkpt lat="44.94135" lon="6.55506">
        <ele>1542</ele>
        <time>2011-01-22T10:04:00Z</time>
      </trkpt>
      <trkpt lat="44.94131" lon="6.55534">
        <ele>1540</ele>
        <time>2011-01-22T10:04:02Z</time>
      </trkpt>
      <trkpt lat="44.94131" lon="6.55547">
        <ele>1539</ele>
        <time>2011-01-22T10:04:03Z</time>
      </trkpt>
      <trkpt lat="44.94133" lon="6.55561">
        <ele>1538</ele>
        <time>2011-01-22T10:04:04Z</time>
      </trkpt>
      <trkpt lat="44.94134" lon="6.55589">
        <ele>1535.8</ele>
        <time>2011-01-22T10:04:06Z</time>
      </trkpt>
      <trkpt lat="44.94134" lon="6.55604">
        <ele>1534.8</ele>
        <time>2011-01-22T10:04:07Z</time>
      </trkpt>
      <trkpt lat="44.94134" lon="6.55619">
        <ele>1533.8</ele>
        <time>2011-01-22T10:04:08Z</time>
      </trkpt>
      <trkpt lat="44.94136" lon="6.5565">
        <ele>1531.8</ele>
        <time>2011-01-22T10:04:10Z</time>
      </trkpt>
      <trkpt lat="44.94139" lon="6.55666">
        <ele>1530.6</ele>
        <time>2011-01-22T10:04:11Z</time>
      </trkpt>
      <trkpt lat="44.94143" lon="6.5568">
        <ele>1529.6</ele>
        <time>2011-01-22T10:04:12Z</time>
      </trkpt>
      <trkpt lat="44.94155" lon="6.55706">
        <ele>1527.6</ele>
        <time>2011-01-22T10:04:14Z</time>
      </trkpt>
      <trkpt lat="44.94163" lon="6.55718">
        <ele>1526.4</ele>
        <time>2011-01-22T10:04:15Z</time>
      </trkpt>
      <trkpt lat="44.9417" lon="6.5573">
        <ele>1525.4</ele>
        <time>2011-01-22T10:04:16Z</time>
      </trkpt>
      <trkpt lat="44.94186" lon="6.55755">
        <ele>1523.2</ele>
        <time>2011-01-22T10:04:18Z</time>
      </trkpt>
      <trkpt lat="44.94195" lon="6.55767">
        <ele>1522</ele>
        <time>2011-01-22T10:04:19Z</time>
      </trkpt>
      <trkpt lat="44.94204" lon="6.55778">
        <ele>1521</ele>
        <time>2011-01-22T10:04:20Z</time>
      </trkpt>
      <trkpt lat="44.94213" lon="6.55787">
        <ele>1520</ele>
        <time>2011-01-22T10:04:21Z</time>
      </trkpt>
      <trkpt lat="44.94224" lon="6.55794">
        <ele>1518.8</ele>
        <time>2011-01-22T10:04:22Z</time>
      </trkpt>
      <trkpt lat="44.94245" lon="6.55802">
        <ele>1516.6</ele>
        <time>2011-01-22T10:04:24Z</time>
      </trkpt>
      <trkpt lat="44.94256" lon="6.55804">
        <ele>1515.6</ele>
        <time>2011-01-22T10:04:25Z</time>
      </trkpt>
      <trkpt lat="44.94267" lon="6.55804">
        <ele>1514.4</ele>
        <time>2011-01-22T10:04:26Z</time>
      </trkpt>
      <trkpt lat="44.94278" lon="6.55804">
        <ele>1513.4</ele>
        <time>2011-01-22T10:04:27Z</time>
      </trkpt>
      <trkpt lat="44.94285" lon="6.55814">
        <ele>1512.2</ele>
        <time>2011-01-22T10:04:28Z</time>
      </trkpt>
      <trkpt lat="44.9429" lon="6.55834">
        <ele>1510</ele>
        <time>2011-01-22T10:04:30Z</time>
      </trkpt>
      <trkpt lat="44.94291" lon="6.55844">
        <ele>1509</ele>
        <time>2011-01-22T10:04:31Z</time>
      </trkpt>
      <trkpt lat="44.94292" lon="6.55861">
        <ele>1507</ele>
        <time>2011-01-22T10:04:33Z</time>
      </trkpt>
      <trkpt lat="44.94294" lon="6.55868">
        <ele>1506</ele>
        <time>2011-01-22T10:04:34Z</time>
      </trkpt>
      <trkpt lat="44.94297" lon="6.55874">
        <ele>1505</ele>
        <time>2011-01-22T10:04:35Z</time>
      </trkpt>
      <trkpt lat="44.94301" lon="6.55879">
        <ele>1504</ele>
        <time>2011-01-22T10:04:36Z</time>
      </trkpt>
      <trkpt lat="44.94303" lon="6.55884">
        <ele>1503</ele>
        <time>2011-01-22T10:04:37Z</time>
      </trkpt>
      <trkpt lat="44.94304" lon="6.55897">
        <ele>1500.2</ele>
        <time>2011-01-22T10:04:40Z</time>
      </trkpt>
      <trkpt lat="44.94303" lon="6.55898">
        <ele>1499.4</ele>
        <time>2011-01-22T10:04:41Z</time>
      </trkpt>
      <trkpt lat="44.94301" lon="6.55899">
        <ele>1497.6</ele>
        <time>2011-01-22T10:04:43Z</time>
      </trkpt>
      <trkpt lat="44.94301" lon="6.559">
        <ele>1496.6</ele>
        <time>2011-01-22T10:04:44Z</time>
      </trkpt>
      <trkpt lat="44.94296" lon="6.559">
        <ele>1482.4</ele>
        <time>2011-01-22T10:05:02Z</time>
      </trkpt>
      <trkpt lat="44.94291" lon="6.55899">
        <ele>1472.4</ele>
        <time>2011-01-22T10:05:17Z</time>
      </trkpt>
      <trkpt lat="44.94288" lon="6.55898">
        <ele>1469.6</ele>
        <time>2011-01-22T10:05:22Z</time>
      </trkpt>
      <trkpt lat="44.94285" lon="6.55897">
        <ele>1465</ele>
        <time>2011-01-22T10:05:30Z</time>
      </trkpt>
      <trkpt lat="44.94285" lon="6.55896">
        <ele>1464.4</ele>
        <time>2011-01-22T10:05:31Z</time>
      </trkpt>
      <trkpt lat="44.94283" lon="6.55893">
        <ele>1462.2</ele>
        <time>2011-01-22T10:05:35Z</time>
      </trkpt>
      <trkpt lat="44.94278" lon="6.5589">
        <ele>1456.8</ele>
        <time>2011-01-22T10:05:45Z</time>
      </trkpt>
      <trkpt lat="44.9427" lon="6.55887">
        <ele>1456</ele>
        <time>2011-01-22T10:05:47Z</time>
      </trkpt>
      <trkpt lat="44.94261" lon="6.55884">
        <ele>1455.2</ele>
        <time>2011-01-22T10:05:49Z</time>
      </trkpt>
      <trkpt lat="44.94252" lon="6.5588">
        <ele>1454.4</ele>
        <time>2011-01-22T10:05:51Z</time>
      </trkpt>
      <trkpt lat="44.9424" lon="6.55876">
        <ele>1453.6</ele>
        <time>2011-01-22T10:05:54Z</time>
      </trkpt>
      <trkpt lat="44.94232" lon="6.55873">
        <ele>1453</ele>
        <time>2011-01-22T10:05:56Z</time>
      </trkpt>
      <trkpt lat="44.94212" lon="6.55865">
        <ele>1451.6</ele>
        <time>2011-01-22T10:06:01Z</time>
      </trkpt>
      <trkpt lat="44.94192" lon="6.55857">
        <ele>1450.4</ele>
        <time>2011-01-22T10:06:06Z</time>
      </trkpt>
      <trkpt lat="44.9418" lon="6.55853">
        <ele>1449.8</ele>
        <time>2011-01-22T10:06:09Z</time>
      </trkpt>
      <trkpt lat="44.94173" lon="6.55849">
        <ele>1449.4</ele>
        <time>2011-01-22T10:06:11Z</time>
      </trkpt>
      <trkpt lat="44.94153" lon="6.55842">
        <ele>1448.6</ele>
        <time>2011-01-22T10:06:16Z</time>
      </trkpt>
      <trkpt lat="44.94135" lon="6.55834">
        <ele>1448</ele>
        <time>2011-01-22T10:06:21Z</time>
      </trkpt>
      <trkpt lat="44.94119" lon="6.55828">
        <ele>1447.2</ele>
        <time>2011-01-22T10:06:27Z</time>
      </trkpt>
      <trkpt lat="44.94115" lon="6.55826">
        <ele>1447</ele>
        <time>2011-01-22T10:06:29Z</time>
      </trkpt>
      <trkpt lat="44.94106" lon="6.55823">
        <ele>1446.8</ele>
        <time>2011-01-22T10:06:33Z</time>
      </trkpt>
      <trkpt lat="44.94096" lon="6.55819">
        <ele>1446.4</ele>
        <time>2011-01-22T10:06:38Z</time>
      </trkpt>
      <trkpt lat="44.94094" lon="6.55818">
        <ele>1446.4</ele>
        <time>2011-01-22T10:06:39Z</time>
      </trkpt>
      <trkpt lat="44.94077" lon="6.55811">
        <ele>1446.2</ele>
        <time>2011-01-22T10:06:46Z</time>
      </trkpt>
      <trkpt lat="44.94058" lon="6.55803">
        <ele>1447</ele>
        <time>2011-01-22T10:06:52Z</time>
      </trkpt>
      <trkpt lat="44.94054" lon="6.55801">
        <ele>1447.4</ele>
        <time>2011-01-22T10:06:53Z</time>
      </trkpt>
      <trkpt lat="44.94037" lon="6.55794">
        <ele>1449.4</ele>
        <time>2011-01-22T10:06:58Z</time>
      </trkpt>
      <trkpt lat="44.94033" lon="6.55792">
        <ele>1450</ele>
        <time>2011-01-22T10:06:59Z</time>
      </trkpt>
      <trkpt lat="44.94029" lon="6.55791">
        <ele>1450.6</ele>
        <time>2011-01-22T10:07:00Z</time>
      </trkpt>
      <trkpt lat="44.94016" lon="6.55785">
        <ele>1453.4</ele>
        <time>2011-01-22T10:07:04Z</time>
      </trkpt>
      <trkpt lat="44.94008" lon="6.55782">
        <ele>1454.8</ele>
        <time>2011-01-22T10:07:06Z</time>
      </trkpt>
      <trkpt lat="44.93997" lon="6.55778">
        <ele>1457.2</ele>
        <time>2011-01-22T10:07:09Z</time>
      </trkpt>
      <trkpt lat="44.93979" lon="6.5577">
        <ele>1461.6</ele>
        <time>2011-01-22T10:07:14Z</time>
      </trkpt>
      <trkpt lat="44.93962" lon="6.55763">
        <ele>1466.6</ele>
        <time>2011-01-22T10:07:19Z</time>
      </trkpt>
      <trkpt lat="44.93948" lon="6.55757">
        <ele>1471</ele>
        <time>2011-01-22T10:07:23Z</time>
      </trkpt>
      <trkpt lat="44.93941" lon="6.55755">
        <ele>1473.4</ele>
        <time>2011-01-22T10:07:25Z</time>
      </trkpt>
      <trkpt lat="44.9392" lon="6.55746">
        <ele>1481.2</ele>
        <time>2011-01-22T10:07:31Z</time>
      </trkpt>
      <trkpt lat="44.93902" lon="6.55739">
        <ele>1488</ele>
        <time>2011-01-22T10:07:36Z</time>
      </trkpt>
      <trkpt lat="44.93899" lon="6.55737">
        <ele>1489.2</ele>
        <time>2011-01-22T10:07:37Z</time>
      </trkpt>
      <trkpt lat="44.93884" lon="6.55732">
        <ele>1494.6</ele>
        <time>2011-01-22T10:07:41Z</time>
      </trkpt>
      <trkpt lat="44.93866" lon="6.55724">
        <ele>1501.6</ele>
        <time>2011-01-22T10:07:46Z</time>
      </trkpt>
      <trkpt lat="44.93848" lon="6.55717">
        <ele>1508.6</ele>
        <time>2011-01-22T10:07:51Z</time>
      </trkpt>
      <trkpt lat="44.93837" lon="6.55713">
        <ele>1513</ele>
        <time>2011-01-22T10:07:54Z</time>
      </trkpt>
      <trkpt lat="44.9383" lon="6.5571">
        <ele>1516</ele>
        <time>2011-01-22T10:07:56Z</time>
      </trkpt>
      <trkpt lat="44.93809" lon="6.55702">
        <ele>1525.2</ele>
        <time>2011-01-22T10:08:02Z</time>
      </trkpt>
      <trkpt lat="44.93791" lon="6.55694">
        <ele>1532.6</ele>
        <time>2011-01-22T10:08:07Z</time>
      </trkpt>
      <trkpt lat="44.93784" lon="6.55691">
        <ele>1535.8</ele>
        <time>2011-01-22T10:08:09Z</time>
      </trkpt>
      <trkpt lat="44.93773" lon="6.55687">
        <ele>1540.2</ele>
        <time>2011-01-22T10:08:12Z</time>
      </trkpt>
      <trkpt lat="44.93762" lon="6.55682">
        <ele>1544.8</ele>
        <time>2011-01-22T10:08:15Z</time>
      </trkpt>
      <trkpt lat="44.93755" lon="6.55679">
        <ele>1548</ele>
        <time>2011-01-22T10:08:17Z</time>
      </trkpt>
      <trkpt lat="44.93737" lon="6.55672">
        <ele>1555.8</ele>
        <time>2011-01-22T10:08:22Z</time>
      </trkpt>
      <trkpt lat="44.9373" lon="6.55669">
        <ele>1559</ele>
        <time>2011-01-22T10:08:24Z</time>
      </trkpt>
      <trkpt lat="44.93719" lon="6.55665">
        <ele>1563.8</ele>
        <time>2011-01-22T10:08:27Z</time>
      </trkpt>
      <trkpt lat="44.93699" lon="6.55657">
        <ele>1574</ele>
        <time>2011-01-22T10:08:33Z</time>
      </trkpt>
      <trkpt lat="44.93681" lon="6.55649">
        <ele>1582.2</ele>
        <time>2011-01-22T10:08:38Z</time>
      </trkpt>
      <trkpt lat="44.9367" lon="6.55645">
        <ele>1587.2</ele>
        <time>2011-01-22T10:08:41Z</time>
      </trkpt>
      <trkpt lat="44.93662" lon="6.55642">
        <ele>1590.4</ele>
        <time>2011-01-22T10:08:43Z</time>
      </trkpt>
      <trkpt lat="44.93644" lon="6.55634">
        <ele>1598.6</ele>
        <time>2011-01-22T10:08:48Z</time>
      </trkpt>
      <trkpt lat="44.9363" lon="6.55628">
        <ele>1605.4</ele>
        <time>2011-01-22T10:08:52Z</time>
      </trkpt>
      <trkpt lat="44.93626" lon="6.55627">
        <ele>1607</ele>
        <time>2011-01-22T10:08:53Z</time>
      </trkpt>
      <trkpt lat="44.93608" lon="6.55619">
        <ele>1614.8</ele>
        <time>2011-01-22T10:08:58Z</time>
      </trkpt>
      <trkpt lat="44.93589" lon="6.55611">
        <ele>1622.4</ele>
        <time>2011-01-22T10:09:03Z</time>
      </trkpt>
      <trkpt lat="44.93578" lon="6.55607">
        <ele>1627</ele>
        <time>2011-01-22T10:09:06Z</time>
      </trkpt>
      <trkpt lat="44.93571" lon="6.55604">
        <ele>1630</ele>
        <time>2011-01-22T10:09:08Z</time>
      </trkpt>
      <trkpt lat="44.93551" lon="6.55596">
        <ele>1636.4</ele>
        <time>2011-01-22T10:09:13Z</time>
      </trkpt>
      <trkpt lat="44.93548" lon="6.55594">
        <ele>1637.8</ele>
        <time>2011-01-22T10:09:14Z</time>
      </trkpt>
      <trkpt lat="44.93532" lon="6.55588">
        <ele>1642.4</ele>
        <time>2011-01-22T10:09:18Z</time>
      </trkpt>
      <trkpt lat="44.93513" lon="6.5558">
        <ele>1648</ele>
        <time>2011-01-22T10:09:23Z</time>
      </trkpt>
      <trkpt lat="44.93501" lon="6.55575">
        <ele>1651.4</ele>
        <time>2011-01-22T10:09:26Z</time>
      </trkpt>
      <trkpt lat="44.93494" lon="6.55572">
        <ele>1653.4</ele>
        <time>2011-01-22T10:09:28Z</time>
      </trkpt>
      <trkpt lat="44.93475" lon="6.55564">
        <ele>1658</ele>
        <time>2011-01-22T10:09:33Z</time>
      </trkpt>
      <trkpt lat="44.93455" lon="6.55556">
        <ele>1662.4</ele>
        <time>2011-01-22T10:09:38Z</time>
      </trkpt>
      <trkpt lat="44.93436" lon="6.55548">
        <ele>1666.4</ele>
        <time>2011-01-22T10:09:43Z</time>
      </trkpt>
      <trkpt lat="44.93417" lon="6.55541">
        <ele>1670.4</ele>
        <time>2011-01-22T10:09:48Z</time>
      </trkpt>
      <trkpt lat="44.93402" lon="6.55534">
        <ele>1673.4</ele>
        <time>2011-01-22T10:09:52Z</time>
      </trkpt>
      <trkpt lat="44.93398" lon="6.55533">
        <ele>1674.2</ele>
        <time>2011-01-22T10:09:53Z</time>
      </trkpt>
      <trkpt lat="44.93379" lon="6.55524">
        <ele>1677.8</ele>
        <time>2011-01-22T10:09:58Z</time>
      </trkpt>
      <trkpt lat="44.93369" lon="6.55521">
        <ele>1680.2</ele>
        <time>2011-01-22T10:10:01Z</time>
      </trkpt>
      <trkpt lat="44.93359" lon="6.55516">
        <ele>1683</ele>
        <time>2011-01-22T10:10:04Z</time>
      </trkpt>
      <trkpt lat="44.93348" lon="6.55511">
        <ele>1685.8</ele>
        <time>2011-01-22T10:10:07Z</time>
      </trkpt>
      <trkpt lat="44.93338" lon="6.55507">
        <ele>1688.6</ele>
        <time>2011-01-22T10:10:10Z</time>
      </trkpt>
      <trkpt lat="44.93321" lon="6.55501">
        <ele>1693.8</ele>
        <time>2011-01-22T10:10:15Z</time>
      </trkpt>
      <trkpt lat="44.93317" lon="6.55499">
        <ele>1694.8</ele>
        <time>2011-01-22T10:10:16Z</time>
      </trkpt>
      <trkpt lat="44.93301" lon="6.55494">
        <ele>1698.8</ele>
        <time>2011-01-22T10:10:20Z</time>
      </trkpt>
      <trkpt lat="44.9329" lon="6.5549">
        <ele>1701.8</ele>
        <time>2011-01-22T10:10:23Z</time>
      </trkpt>
      <trkpt lat="44.93282" lon="6.55487">
        <ele>1704</ele>
        <time>2011-01-22T10:10:25Z</time>
      </trkpt>
      <trkpt lat="44.93264" lon="6.5548">
        <ele>1709.2</ele>
        <time>2011-01-22T10:10:30Z</time>
      </trkpt>
      <trkpt lat="44.93256" lon="6.55477">
        <ele>1711.4</ele>
        <time>2011-01-22T10:10:32Z</time>
      </trkpt>
      <trkpt lat="44.93246" lon="6.55473">
        <ele>1714.6</ele>
        <time>2011-01-22T10:10:35Z</time>
      </trkpt>
      <trkpt lat="44.93228" lon="6.55465">
        <ele>1720.2</ele>
        <time>2011-01-22T10:10:40Z</time>
      </trkpt>
      <trkpt lat="44.93209" lon="6.55458">
        <ele>1726</ele>
        <time>2011-01-22T10:10:45Z</time>
      </trkpt>
      <trkpt lat="44.93195" lon="6.55452">
        <ele>1731.4</ele>
        <time>2011-01-22T10:10:49Z</time>
      </trkpt>
      <trkpt lat="44.93191" lon="6.5545">
        <ele>1733</ele>
        <time>2011-01-22T10:10:50Z</time>
      </trkpt>
      <trkpt lat="44.93173" lon="6.55443">
        <ele>1739.8</ele>
        <time>2011-01-22T10:10:55Z</time>
      </trkpt>
      <trkpt lat="44.93169" lon="6.55442">
        <ele>1741.2</ele>
        <time>2011-01-22T10:10:56Z</time>
      </trkpt>
      <trkpt lat="44.93162" lon="6.55439">
        <ele>1744</ele>
        <time>2011-01-22T10:10:58Z</time>
      </trkpt>
      <trkpt lat="44.93154" lon="6.55436">
        <ele>1746.8</ele>
        <time>2011-01-22T10:11:00Z</time>
      </trkpt>
      <trkpt lat="44.93136" lon="6.55429">
        <ele>1754.2</ele>
        <time>2011-01-22T10:11:05Z</time>
      </trkpt>
      <trkpt lat="44.93129" lon="6.55425">
        <ele>1757</ele>
        <time>2011-01-22T10:11:07Z</time>
      </trkpt>
      <trkpt lat="44.93119" lon="6.55421">
        <ele>1761.6</ele>
        <time>2011-01-22T10:11:10Z</time>
      </trkpt>
      <trkpt lat="44.93099" lon="6.55412">
        <ele>1771</ele>
        <time>2011-01-22T10:11:16Z</time>
      </trkpt>
      <trkpt lat="44.93095" lon="6.55411">
        <ele>1772.6</ele>
        <time>2011-01-22T10:11:17Z</time>
      </trkpt>
      <trkpt lat="44.93079" lon="6.55404">
        <ele>1780.8</ele>
        <time>2011-01-22T10:11:22Z</time>
      </trkpt>
      <trkpt lat="44.93065" lon="6.55398">
        <ele>1788</ele>
        <time>2011-01-22T10:11:26Z</time>
      </trkpt>
      <trkpt lat="44.93061" lon="6.55397">
        <ele>1789.8</ele>
        <time>2011-01-22T10:11:27Z</time>
      </trkpt>
      <trkpt lat="44.93046" lon="6.55391">
        <ele>1796.8</ele>
        <time>2011-01-22T10:11:31Z</time>
      </trkpt>
      <trkpt lat="44.93042" lon="6.5539">
        <ele>1798.4</ele>
        <time>2011-01-22T10:11:32Z</time>
      </trkpt>
      <trkpt lat="44.93024" lon="6.55382">
        <ele>1807.4</ele>
        <time>2011-01-22T10:11:37Z</time>
      </trkpt>
      <trkpt lat="44.93017" lon="6.5538">
        <ele>1810.8</ele>
        <time>2011-01-22T10:11:39Z</time>
      </trkpt>
      <trkpt lat="44.93006" lon="6.55375">
        <ele>1816.2</ele>
        <time>2011-01-22T10:11:42Z</time>
      </trkpt>
      <trkpt lat="44.92989" lon="6.55368">
        <ele>1825.2</ele>
        <time>2011-01-22T10:11:47Z</time>
      </trkpt>
      <trkpt lat="44.92985" lon="6.55367">
        <ele>1826.8</ele>
        <time>2011-01-22T10:11:48Z</time>
      </trkpt>
      <trkpt lat="44.92967" lon="6.55359">
        <ele>1835.6</ele>
        <time>2011-01-22T10:11:53Z</time>
      </trkpt>
      <trkpt lat="44.92959" lon="6.55356">
        <ele>1839</ele>
        <time>2011-01-22T10:11:55Z</time>
      </trkpt>
      <trkpt lat="44.92948" lon="6.55351">
        <ele>1844</ele>
        <time>2011-01-22T10:11:58Z</time>
      </trkpt>
      <trkpt lat="44.92929" lon="6.55344">
        <ele>1852.4</ele>
        <time>2011-01-22T10:12:03Z</time>
      </trkpt>
      <trkpt lat="44.92926" lon="6.55342">
        <ele>1854</ele>
        <time>2011-01-22T10:12:04Z</time>
      </trkpt>
      <trkpt lat="44.92911" lon="6.55336">
        <ele>1860.6</ele>
        <time>2011-01-22T10:12:08Z</time>
      </trkpt>
      <trkpt lat="44.92897" lon="6.55329">
        <ele>1867.6</ele>
        <time>2011-01-22T10:12:12Z</time>
      </trkpt>
      <trkpt lat="44.92893" lon="6.55328">
        <ele>1869.4</ele>
        <time>2011-01-22T10:12:13Z</time>
      </trkpt>
      <trkpt lat="44.92875" lon="6.5532">
        <ele>1878.2</ele>
        <time>2011-01-22T10:12:18Z</time>
      </trkpt>
      <trkpt lat="44.92865" lon="6.55316">
        <ele>1883.4</ele>
        <time>2011-01-22T10:12:21Z</time>
      </trkpt>
      <trkpt lat="44.92858" lon="6.55313">
        <ele>1887</ele>
        <time>2011-01-22T10:12:23Z</time>
      </trkpt>
      <trkpt lat="44.9284" lon="6.55306">
        <ele>1896</ele>
        <time>2011-01-22T10:12:28Z</time>
      </trkpt>
      <trkpt lat="44.9283" lon="6.55301">
        <ele>1901.4</ele>
        <time>2011-01-22T10:12:31Z</time>
      </trkpt>
      <trkpt lat="44.92822" lon="6.55298">
        <ele>1904.8</ele>
        <time>2011-01-22T10:12:33Z</time>
      </trkpt>
      <trkpt lat="44.92804" lon="6.55291">
        <ele>1913.4</ele>
        <time>2011-01-22T10:12:38Z</time>
      </trkpt>
      <trkpt lat="44.92801" lon="6.55289">
        <ele>1915.2</ele>
        <time>2011-01-22T10:12:39Z</time>
      </trkpt>
      <trkpt lat="44.92786" lon="6.55284">
        <ele>1921.8</ele>
        <time>2011-01-22T10:12:43Z</time>
      </trkpt>
      <trkpt lat="44.92768" lon="6.55276">
        <ele>1930.2</ele>
        <time>2011-01-22T10:12:48Z</time>
      </trkpt>
      <trkpt lat="44.92749" lon="6.55269">
        <ele>1938.2</ele>
        <time>2011-01-22T10:12:53Z</time>
      </trkpt>
      <trkpt lat="44.92738" lon="6.55264">
        <ele>1942.8</ele>
        <time>2011-01-22T10:12:56Z</time>
      </trkpt>
      <trkpt lat="44.9273" lon="6.55261">
        <ele>1945.8</ele>
        <time>2011-01-22T10:12:58Z</time>
      </trkpt>
      <trkpt lat="44.92712" lon="6.55253">
        <ele>1953.2</ele>
        <time>2011-01-22T10:13:03Z</time>
      </trkpt>
      <trkpt lat="44.92693" lon="6.55246">
        <ele>1960.2</ele>
        <time>2011-01-22T10:13:08Z</time>
      </trkpt>
      <trkpt lat="44.92675" lon="6.55238">
        <ele>1967</ele>
        <time>2011-01-22T10:13:13Z</time>
      </trkpt>
      <trkpt lat="44.92657" lon="6.55231">
        <ele>1974</ele>
        <time>2011-01-22T10:13:18Z</time>
      </trkpt>
      <trkpt lat="44.92639" lon="6.55224">
        <ele>1981.4</ele>
        <time>2011-01-22T10:13:23Z</time>
      </trkpt>
      <trkpt lat="44.92632" lon="6.55221">
        <ele>1984.4</ele>
        <time>2011-01-22T10:13:25Z</time>
      </trkpt>
      <trkpt lat="44.92621" lon="6.55216">
        <ele>1989</ele>
        <time>2011-01-22T10:13:28Z</time>
      </trkpt>
      <trkpt lat="44.92601" lon="6.55208">
        <ele>1998.8</ele>
        <time>2011-01-22T10:13:34Z</time>
      </trkpt>
      <trkpt lat="44.92597" lon="6.55206">
        <ele>2000.4</ele>
        <time>2011-01-22T10:13:35Z</time>
      </trkpt>
      <trkpt lat="44.92583" lon="6.55201">
        <ele>2007</ele>
        <time>2011-01-22T10:13:39Z</time>
      </trkpt>
      <trkpt lat="44.92565" lon="6.55193">
        <ele>2015.4</ele>
        <time>2011-01-22T10:13:44Z</time>
      </trkpt>
      <trkpt lat="44.92544" lon="6.55185">
        <ele>2025.6</ele>
        <time>2011-01-22T10:13:50Z</time>
      </trkpt>
      <trkpt lat="44.92523" lon="6.55176">
        <ele>2036</ele>
        <time>2011-01-22T10:13:56Z</time>
      </trkpt>
      <trkpt lat="44.9252" lon="6.55175">
        <ele>2037.6</ele>
        <time>2011-01-22T10:13:57Z</time>
      </trkpt>
      <trkpt lat="44.92505" lon="6.55169">
        <ele>2044.4</ele>
        <time>2011-01-22T10:14:01Z</time>
      </trkpt>
      <trkpt lat="44.92487" lon="6.55162">
        <ele>2053</ele>
        <time>2011-01-22T10:14:06Z</time>
      </trkpt>
      <trkpt lat="44.9248" lon="6.55159">
        <ele>2056.6</ele>
        <time>2011-01-22T10:14:08Z</time>
      </trkpt>
      <trkpt lat="44.9247" lon="6.55154">
        <ele>2061.8</ele>
        <time>2011-01-22T10:14:11Z</time>
      </trkpt>
      <trkpt lat="44.92452" lon="6.55147">
        <ele>2070.6</ele>
        <time>2011-01-22T10:14:16Z</time>
      </trkpt>
      <trkpt lat="44.92435" lon="6.5514">
        <ele>2079.4</ele>
        <time>2011-01-22T10:14:21Z</time>
      </trkpt>
      <trkpt lat="44.92428" lon="6.55137">
        <ele>2083</ele>
        <time>2011-01-22T10:14:23Z</time>
      </trkpt>
      <trkpt lat="44.92414" lon="6.55132">
        <ele>2090.4</ele>
        <time>2011-01-22T10:14:27Z</time>
      </trkpt>
      <trkpt lat="44.92394" lon="6.55123">
        <ele>2101.6</ele>
        <time>2011-01-22T10:14:33Z</time>
      </trkpt>
      <trkpt lat="44.92373" lon="6.55115">
        <ele>2113.2</ele>
        <time>2011-01-22T10:14:39Z</time>
      </trkpt>
      <trkpt lat="44.92353" lon="6.55107">
        <ele>2125</ele>
        <time>2011-01-22T10:14:45Z</time>
      </trkpt>
      <trkpt lat="44.92334" lon="6.55099">
        <ele>2137.4</ele>
        <time>2011-01-22T10:14:51Z</time>
      </trkpt>
      <trkpt lat="44.92323" lon="6.55095">
        <ele>2143.4</ele>
        <time>2011-01-22T10:14:54Z</time>
      </trkpt>
      <trkpt lat="44.92316" lon="6.55092">
        <ele>2147.4</ele>
        <time>2011-01-22T10:14:56Z</time>
      </trkpt>
      <trkpt lat="44.92302" lon="6.55086">
        <ele>2155.2</ele>
        <time>2011-01-22T10:15:00Z</time>
      </trkpt>
      <trkpt lat="44.92298" lon="6.55084">
        <ele>2157.2</ele>
        <time>2011-01-22T10:15:01Z</time>
      </trkpt>
      <trkpt lat="44.9228" lon="6.55077">
        <ele>2166.4</ele>
        <time>2011-01-22T10:15:06Z</time>
      </trkpt>
      <trkpt lat="44.92272" lon="6.55073">
        <ele>2170</ele>
        <time>2011-01-22T10:15:08Z</time>
      </trkpt>
      <trkpt lat="44.92261" lon="6.55069">
        <ele>2175</ele>
        <time>2011-01-22T10:15:11Z</time>
      </trkpt>
      <trkpt lat="44.92246" lon="6.55063">
        <ele>2181.6</ele>
        <time>2011-01-22T10:15:15Z</time>
      </trkpt>
      <trkpt lat="44.92242" lon="6.55061">
        <ele>2183.2</ele>
        <time>2011-01-22T10:15:16Z</time>
      </trkpt>
      <trkpt lat="44.92224" lon="6.55053">
        <ele>2190.8</ele>
        <time>2011-01-22T10:15:21Z</time>
      </trkpt>
      <trkpt lat="44.92216" lon="6.5505">
        <ele>2193.6</ele>
        <time>2011-01-22T10:15:23Z</time>
      </trkpt>
      <trkpt lat="44.92205" lon="6.55046">
        <ele>2198</ele>
        <time>2011-01-22T10:15:26Z</time>
      </trkpt>
      <trkpt lat="44.92187" lon="6.55038">
        <ele>2205</ele>
        <time>2011-01-22T10:15:31Z</time>
      </trkpt>
      <trkpt lat="44.92183" lon="6.55037">
        <ele>2206.2</ele>
        <time>2011-01-22T10:15:32Z</time>
      </trkpt>
      <trkpt lat="44.92168" lon="6.55031">
        <ele>2211.4</ele>
        <time>2011-01-22T10:15:36Z</time>
      </trkpt>
      <trkpt lat="44.92149" lon="6.55023">
        <ele>2217.8</ele>
        <time>2011-01-22T10:15:41Z</time>
      </trkpt>
      <trkpt lat="44.92133" lon="6.55017">
        <ele>2222.6</ele>
        <time>2011-01-22T10:15:45Z</time>
      </trkpt>
      <trkpt lat="44.9213" lon="6.55015">
        <ele>2223.8</ele>
        <time>2011-01-22T10:15:46Z</time>
      </trkpt>
      <trkpt lat="44.92111" lon="6.55008">
        <ele>2229.6</ele>
        <time>2011-01-22T10:15:51Z</time>
      </trkpt>
      <trkpt lat="44.92092" lon="6.55">
        <ele>2235.2</ele>
        <time>2011-01-22T10:15:56Z</time>
      </trkpt>
      <trkpt lat="44.92077" lon="6.54994">
        <ele>2239.8</ele>
        <time>2011-01-22T10:16:00Z</time>
      </trkpt>
      <trkpt lat="44.92073" lon="6.54992">
        <ele>2241</ele>
        <time>2011-01-22T10:16:01Z</time>
      </trkpt>
      <trkpt lat="44.92055" lon="6.54985">
        <ele>2246.6</ele>
        <time>2011-01-22T10:16:06Z</time>
      </trkpt>
      <trkpt lat="44.9204" lon="6.54979">
        <ele>2251</ele>
        <time>2011-01-22T10:16:10Z</time>
      </trkpt>
      <trkpt lat="44.92036" lon="6.54978">
        <ele>2252.2</ele>
        <time>2011-01-22T10:16:11Z</time>
      </trkpt>
      <trkpt lat="44.92017" lon="6.54971">
        <ele>2257.2</ele>
        <time>2011-01-22T10:16:16Z</time>
      </trkpt>
      <trkpt lat="44.92014" lon="6.5497">
        <ele>2258.2</ele>
        <time>2011-01-22T10:16:17Z</time>
      </trkpt>
      <trkpt lat="44.92003" lon="6.54966">
        <ele>2261</ele>
        <time>2011-01-22T10:16:21Z</time>
      </trkpt>
      <trkpt lat="44.91997" lon="6.54966">
        <ele>2262.4</ele>
        <time>2011-01-22T10:16:23Z</time>
      </trkpt>
      <trkpt lat="44.9199" lon="6.5497">
        <ele>2264.2</ele>
        <time>2011-01-22T10:16:26Z</time>
      </trkpt>
      <trkpt lat="44.91989" lon="6.54971">
        <ele>2266</ele>
        <time>2011-01-22T10:16:30Z</time>
      </trkpt>
      <trkpt lat="44.91985" lon="6.54973">
        <ele>2282</ele>
        <time>2011-01-22T10:17:50Z</time>
      </trkpt>
      <trkpt lat="44.91984" lon="6.54974">
        <ele>2282.2</ele>
        <time>2011-01-22T10:17:51Z</time>
      </trkpt>
      <trkpt lat="44.91982" lon="6.54975">
        <ele>2282.2</ele>
        <time>2011-01-22T10:17:52Z</time>
      </trkpt>
      <trkpt lat="44.91977" lon="6.54979">
        <ele>2282.2</ele>
        <time>2011-01-22T10:17:54Z</time>
      </trkpt>
      <trkpt lat="44.91971" lon="6.54984">
        <ele>2282.2</ele>
        <time>2011-01-22T10:17:56Z</time>
      </trkpt>
      <trkpt lat="44.91965" lon="6.54989">
        <ele>2282.2</ele>
        <time>2011-01-22T10:17:58Z</time>
      </trkpt>
      <trkpt lat="44.91948" lon="6.55001">
        <ele>2282</ele>
        <time>2011-01-22T10:18:02Z</time>
      </trkpt>
      <trkpt lat="44.91944" lon="6.55005">
        <ele>2282</ele>
        <time>2011-01-22T10:18:03Z</time>
      </trkpt>
      <trkpt lat="44.91934" lon="6.55016">
        <ele>2282</ele>
        <time>2011-01-22T10:18:05Z</time>
      </trkpt>
      <trkpt lat="44.91924" lon="6.55029">
        <ele>2281.8</ele>
        <time>2011-01-22T10:18:07Z</time>
      </trkpt>
      <trkpt lat="44.91918" lon="6.55036">
        <ele>2281.6</ele>
        <time>2011-01-22T10:18:08Z</time>
      </trkpt>
      <trkpt lat="44.91901" lon="6.55057">
        <ele>2281.2</ele>
        <time>2011-01-22T10:18:11Z</time>
      </trkpt>
      <trkpt lat="44.91889" lon="6.55072">
        <ele>2281</ele>
        <time>2011-01-22T10:18:13Z</time>
      </trkpt>
      <trkpt lat="44.91884" lon="6.5508">
        <ele>2280.8</ele>
        <time>2011-01-22T10:18:14Z</time>
      </trkpt>
      <trkpt lat="44.91872" lon="6.55098">
        <ele>2280.4</ele>
        <time>2011-01-22T10:18:16Z</time>
      </trkpt>
      <trkpt lat="44.91865" lon="6.55106">
        <ele>2280.2</ele>
        <time>2011-01-22T10:18:17Z</time>
      </trkpt>
      <trkpt lat="44.91853" lon="6.55125">
        <ele>2279.8</ele>
        <time>2011-01-22T10:18:19Z</time>
      </trkpt>
      <trkpt lat="44.91848" lon="6.55136">
        <ele>2279.6</ele>
        <time>2011-01-22T10:18:20Z</time>
      </trkpt>
      <trkpt lat="44.91843" lon="6.55147">
        <ele>2279.4</ele>
        <time>2011-01-22T10:18:21Z</time>
      </trkpt>
      <trkpt lat="44.9184" lon="6.55164">
        <ele>2279</ele>
        <time>2011-01-22T10:18:22Z</time>
      </trkpt>
      <trkpt lat="44.9184" lon="6.55181">
        <ele>2278.8</ele>
        <time>2011-01-22T10:18:23Z</time>
      </trkpt>
      <trkpt lat="44.91842" lon="6.55198">
        <ele>2278.4</ele>
        <time>2011-01-22T10:18:24Z</time>
      </trkpt>
      <trkpt lat="44.91851" lon="6.55213">
        <ele>2278</ele>
        <time>2011-01-22T10:18:25Z</time>
      </trkpt>
      <trkpt lat="44.91861" lon="6.55229">
        <ele>2277.6</ele>
        <time>2011-01-22T10:18:26Z</time>
      </trkpt>
      <trkpt lat="44.91869" lon="6.55245">
        <ele>2277.2</ele>
        <time>2011-01-22T10:18:27Z</time>
      </trkpt>
      <trkpt lat="44.9188" lon="6.55257">
        <ele>2276.8</ele>
        <time>2011-01-22T10:18:28Z</time>
      </trkpt>
      <trkpt lat="44.9189" lon="6.55271">
        <ele>2276.2</ele>
        <time>2011-01-22T10:18:29Z</time>
      </trkpt>
      <trkpt lat="44.91897" lon="6.5529">
        <ele>2275.8</ele>
        <time>2011-01-22T10:18:30Z</time>
      </trkpt>
      <trkpt lat="44.91901" lon="6.55308">
        <ele>2275.2</ele>
        <time>2011-01-22T10:18:31Z</time>
      </trkpt>
      <trkpt lat="44.91905" lon="6.55329">
        <ele>2274.6</ele>
        <time>2011-01-22T10:18:32Z</time>
      </trkpt>
      <trkpt lat="44.91909" lon="6.5535">
        <ele>2274</ele>
        <time>2011-01-22T10:18:33Z</time>
      </trkpt>
      <trkpt lat="44.91916" lon="6.55393">
        <ele>2272.6</ele>
        <time>2011-01-22T10:18:35Z</time>
      </trkpt>
      <trkpt lat="44.91922" lon="6.55437">
        <ele>2271.2</ele>
        <time>2011-01-22T10:18:37Z</time>
      </trkpt>
      <trkpt lat="44.91925" lon="6.55458">
        <ele>2270.4</ele>
        <time>2011-01-22T10:18:38Z</time>
      </trkpt>
      <trkpt lat="44.91931" lon="6.55478">
        <ele>2269.8</ele>
        <time>2011-01-22T10:18:39Z</time>
      </trkpt>
      <trkpt lat="44.91933" lon="6.55499">
        <ele>2269</ele>
        <time>2011-01-22T10:18:40Z</time>
      </trkpt>
      <trkpt lat="44.91934" lon="6.5552">
        <ele>2268.2</ele>
        <time>2011-01-22T10:18:41Z</time>
      </trkpt>
      <trkpt lat="44.91936" lon="6.55539">
        <ele>2267.2</ele>
        <time>2011-01-22T10:18:42Z</time>
      </trkpt>
      <trkpt lat="44.9194" lon="6.55559">
        <ele>2266.4</ele>
        <time>2011-01-22T10:18:43Z</time>
      </trkpt>
      <trkpt lat="44.91942" lon="6.5558">
        <ele>2265.4</ele>
        <time>2011-01-22T10:18:44Z</time>
      </trkpt>
      <trkpt lat="44.91944" lon="6.55601">
        <ele>2264.6</ele>
        <time>2011-01-22T10:18:45Z</time>
      </trkpt>
      <trkpt lat="44.91947" lon="6.55622">
        <ele>2263.6</ele>
        <time>2011-01-22T10:18:46Z</time>
      </trkpt>
      <trkpt lat="44.91949" lon="6.55643">
        <ele>2262.8</ele>
        <time>2011-01-22T10:18:47Z</time>
      </trkpt>
      <trkpt lat="44.91953" lon="6.55682">
        <ele>2260.8</ele>
        <time>2011-01-22T10:18:49Z</time>
      </trkpt>
      <trkpt lat="44.91956" lon="6.55699">
        <ele>2260</ele>
        <time>2011-01-22T10:18:50Z</time>
      </trkpt>
      <trkpt lat="44.91958" lon="6.55716">
        <ele>2259</ele>
        <time>2011-01-22T10:18:51Z</time>
      </trkpt>
      <trkpt lat="44.91959" lon="6.55731">
        <ele>2258.2</ele>
        <time>2011-01-22T10:18:52Z</time>
      </trkpt>
      <trkpt lat="44.91958" lon="6.55746">
        <ele>2257.2</ele>
        <time>2011-01-22T10:18:53Z</time>
      </trkpt>
      <trkpt lat="44.91953" lon="6.55773">
        <ele>2255.4</ele>
        <time>2011-01-22T10:18:55Z</time>
      </trkpt>
      <trkpt lat="44.91947" lon="6.558">
        <ele>2253.6</ele>
        <time>2011-01-22T10:18:57Z</time>
      </trkpt>
      <trkpt lat="44.91946" lon="6.55813">
        <ele>2252.6</ele>
        <time>2011-01-22T10:18:58Z</time>
      </trkpt>
      <trkpt lat="44.91946" lon="6.55826">
        <ele>2251.6</ele>
        <time>2011-01-22T10:18:59Z</time>
      </trkpt>
      <trkpt lat="44.91946" lon="6.5584">
        <ele>2250.6</ele>
        <time>2011-01-22T10:19:00Z</time>
      </trkpt>
      <trkpt lat="44.91947" lon="6.55854">
        <ele>2249.8</ele>
        <time>2011-01-22T10:19:01Z</time>
      </trkpt>
      <trkpt lat="44.91952" lon="6.55881">
        <ele>2247.8</ele>
        <time>2011-01-22T10:19:03Z</time>
      </trkpt>
      <trkpt lat="44.91957" lon="6.55909">
        <ele>2246</ele>
        <time>2011-01-22T10:19:05Z</time>
      </trkpt>
      <trkpt lat="44.91958" lon="6.55923">
        <ele>2245</ele>
        <time>2011-01-22T10:19:06Z</time>
      </trkpt>
      <trkpt lat="44.9196" lon="6.55936">
        <ele>2244</ele>
        <time>2011-01-22T10:19:07Z</time>
      </trkpt>
      <trkpt lat="44.9196" lon="6.55961">
        <ele>2242.2</ele>
        <time>2011-01-22T10:19:09Z</time>
      </trkpt>
      <trkpt lat="44.91959" lon="6.5597">
        <ele>2241.4</ele>
        <time>2011-01-22T10:19:10Z</time>
      </trkpt>
      <trkpt lat="44.91959" lon="6.55974">
        <ele>2240.4</ele>
        <time>2011-01-22T10:19:11Z</time>
      </trkpt>
      <trkpt lat="44.91958" lon="6.55976">
        <ele>2239.6</ele>
        <time>2011-01-22T10:19:12Z</time>
      </trkpt>
      <trkpt lat="44.91958" lon="6.55976">
        <ele>2237.8</ele>
        <time>2011-01-22T10:19:14Z</time>
      </trkpt>
      <trkpt lat="44.91959" lon="6.55973">
        <ele>2225.4</ele>
        <time>2011-01-22T10:19:30Z</time>
      </trkpt>
      <trkpt lat="44.91961" lon="6.55973">
        <ele>2211</ele>
        <time>2011-01-22T10:19:52Z</time>
      </trkpt>
      <trkpt lat="44.91965" lon="6.55976">
        <ele>2209.8</ele>
        <time>2011-01-22T10:19:54Z</time>
      </trkpt>
      <trkpt lat="44.91971" lon="6.55978">
        <ele>2209.2</ele>
        <time>2011-01-22T10:19:55Z</time>
      </trkpt>
      <trkpt lat="44.91989" lon="6.5599">
        <ele>2208</ele>
        <time>2011-01-22T10:19:57Z</time>
      </trkpt>
      <trkpt lat="44.92" lon="6.55996">
        <ele>2207.2</ele>
        <time>2011-01-22T10:19:58Z</time>
      </trkpt>
      <trkpt lat="44.92012" lon="6.56003">
        <ele>2206.6</ele>
        <time>2011-01-22T10:19:59Z</time>
      </trkpt>
      <trkpt lat="44.92026" lon="6.56008">
        <ele>2205.8</ele>
        <time>2011-01-22T10:20:00Z</time>
      </trkpt>
      <trkpt lat="44.92041" lon="6.56011">
        <ele>2205</ele>
        <time>2011-01-22T10:20:01Z</time>
      </trkpt>
      <trkpt lat="44.92072" lon="6.56022">
        <ele>2203.4</ele>
        <time>2011-01-22T10:20:03Z</time>
      </trkpt>
      <trkpt lat="44.92088" lon="6.56029">
        <ele>2202.4</ele>
        <time>2011-01-22T10:20:04Z</time>
      </trkpt>
      <trkpt lat="44.92105" lon="6.56032">
        <ele>2201.6</ele>
        <time>2011-01-22T10:20:05Z</time>
      </trkpt>
      <trkpt lat="44.92123" lon="6.56029">
        <ele>2200.4</ele>
        <time>2011-01-22T10:20:06Z</time>
      </trkpt>
      <trkpt lat="44.92141" lon="6.56031">
        <ele>2199.4</ele>
        <time>2011-01-22T10:20:07Z</time>
      </trkpt>
      <trkpt lat="44.92159" lon="6.56033">
        <ele>2198.2</ele>
        <time>2011-01-22T10:20:08Z</time>
      </trkpt>
      <trkpt lat="44.9218" lon="6.5603">
        <ele>2197</ele>
        <time>2011-01-22T10:20:09Z</time>
      </trkpt>
      <trkpt lat="44.92197" lon="6.56035">
        <ele>2195.6</ele>
        <time>2011-01-22T10:20:10Z</time>
      </trkpt>
      <trkpt lat="44.92215" lon="6.56039">
        <ele>2194.2</ele>
        <time>2011-01-22T10:20:11Z</time>
      </trkpt>
      <trkpt lat="44.92235" lon="6.56038">
        <ele>2192.8</ele>
        <time>2011-01-22T10:20:12Z</time>
      </trkpt>
      <trkpt lat="44.92254" lon="6.56035">
        <ele>2191.2</ele>
        <time>2011-01-22T10:20:13Z</time>
      </trkpt>
      <trkpt lat="44.92273" lon="6.56035">
        <ele>2189.6</ele>
        <time>2011-01-22T10:20:14Z</time>
      </trkpt>
      <trkpt lat="44.92292" lon="6.56038">
        <ele>2188</ele>
        <time>2011-01-22T10:20:15Z</time>
      </trkpt>
      <trkpt lat="44.9231" lon="6.56042">
        <ele>2186.4</ele>
        <time>2011-01-22T10:20:16Z</time>
      </trkpt>
      <trkpt lat="44.92328" lon="6.5605">
        <ele>2184.6</ele>
        <time>2011-01-22T10:20:17Z</time>
      </trkpt>
      <trkpt lat="44.92346" lon="6.56056">
        <ele>2183</ele>
        <time>2011-01-22T10:20:18Z</time>
      </trkpt>
      <trkpt lat="44.92365" lon="6.56057">
        <ele>2181.2</ele>
        <time>2011-01-22T10:20:19Z</time>
      </trkpt>
      <trkpt lat="44.92382" lon="6.56059">
        <ele>2179.4</ele>
        <time>2011-01-22T10:20:20Z</time>
      </trkpt>
      <trkpt lat="44.92398" lon="6.56066">
        <ele>2177.6</ele>
        <time>2011-01-22T10:20:21Z</time>
      </trkpt>
      <trkpt lat="44.92423" lon="6.56089">
        <ele>2173.8</ele>
        <time>2011-01-22T10:20:23Z</time>
      </trkpt>
      <trkpt lat="44.92447" lon="6.56107">
        <ele>2170.2</ele>
        <time>2011-01-22T10:20:25Z</time>
      </trkpt>
      <trkpt lat="44.92454" lon="6.56113">
        <ele>2168.2</ele>
        <time>2011-01-22T10:20:26Z</time>
      </trkpt>
      <trkpt lat="44.92459" lon="6.56123">
        <ele>2164.6</ele>
        <time>2011-01-22T10:20:28Z</time>
      </trkpt>
      <trkpt lat="44.92456" lon="6.56123">
        <ele>2161</ele>
        <time>2011-01-22T10:20:30Z</time>
      </trkpt>
      <trkpt lat="44.92453" lon="6.56121">
        <ele>2154.4</ele>
        <time>2011-01-22T10:20:34Z</time>
      </trkpt>
      <trkpt lat="44.92449" lon="6.56125">
        <ele>2106.2</ele>
        <time>2011-01-22T10:21:11Z</time>
      </trkpt>
      <trkpt lat="44.92448" lon="6.5613">
        <ele>2105</ele>
        <time>2011-01-22T10:21:12Z</time>
      </trkpt>
      <trkpt lat="44.92445" lon="6.56149">
        <ele>2102.8</ele>
        <time>2011-01-22T10:21:14Z</time>
      </trkpt>
      <trkpt lat="44.92444" lon="6.56183">
        <ele>2099.6</ele>
        <time>2011-01-22T10:21:17Z</time>
      </trkpt>
      <trkpt lat="44.92443" lon="6.56192">
        <ele>2098.6</ele>
        <time>2011-01-22T10:21:18Z</time>
      </trkpt>
      <trkpt lat="44.92439" lon="6.56203">
        <ele>2096.4</ele>
        <time>2011-01-22T10:21:20Z</time>
      </trkpt>
      <trkpt lat="44.92433" lon="6.56204">
        <ele>2092.2</ele>
        <time>2011-01-22T10:21:24Z</time>
      </trkpt>
      <trkpt lat="44.92432" lon="6.56202">
        <ele>2087.4</ele>
        <time>2011-01-22T10:21:29Z</time>
      </trkpt>
      <trkpt lat="44.92431" lon="6.56201">
        <ele>2086.4</ele>
        <time>2011-01-22T10:21:30Z</time>
      </trkpt>
      <trkpt lat="44.92429" lon="6.56198">
        <ele>2080.8</ele>
        <time>2011-01-22T10:21:36Z</time>
      </trkpt>
      <trkpt lat="44.92426" lon="6.56195">
        <ele>2071.4</ele>
        <time>2011-01-22T10:21:47Z</time>
      </trkpt>
      <trkpt lat="44.92422" lon="6.56191">
        <ele>2061.6</ele>
        <time>2011-01-22T10:22:00Z</time>
      </trkpt>
      <trkpt lat="44.92421" lon="6.56188">
        <ele>2053.6</ele>
        <time>2011-01-22T10:22:12Z</time>
      </trkpt>
      <trkpt lat="44.9242" lon="6.56185">
        <ele>2050</ele>
        <time>2011-01-22T10:22:18Z</time>
      </trkpt>
      <trkpt lat="44.9242" lon="6.56184">
        <ele>2048.8</ele>
        <time>2011-01-22T10:22:20Z</time>
      </trkpt>
      <trkpt lat="44.92419" lon="6.56179">
        <ele>2046.2</ele>
        <time>2011-01-22T10:22:25Z</time>
      </trkpt>
      <trkpt lat="44.92407" lon="6.56165">
        <ele>2043.8</ele>
        <time>2011-01-22T10:22:30Z</time>
      </trkpt>
      <trkpt lat="44.92403" lon="6.56162">
        <ele>2043.2</ele>
        <time>2011-01-22T10:22:31Z</time>
      </trkpt>
      <trkpt lat="44.92391" lon="6.5615">
        <ele>2042</ele>
        <time>2011-01-22T10:22:34Z</time>
      </trkpt>
      <trkpt lat="44.92383" lon="6.56143">
        <ele>2041.2</ele>
        <time>2011-01-22T10:22:36Z</time>
      </trkpt>
      <trkpt lat="44.92373" lon="6.56133">
        <ele>2040.2</ele>
        <time>2011-01-22T10:22:39Z</time>
      </trkpt>
      <trkpt lat="44.92361" lon="6.56121">
        <ele>2039.2</ele>
        <time>2011-01-22T10:22:42Z</time>
      </trkpt>
      <trkpt lat="44.92358" lon="6.56117">
        <ele>2038.8</ele>
        <time>2011-01-22T10:22:43Z</time>
      </trkpt>
      <trkpt lat="44.92343" lon="6.56102">
        <ele>2038</ele>
        <time>2011-01-22T10:22:47Z</time>
      </trkpt>
      <trkpt lat="44.9234" lon="6.56098">
        <ele>2037.6</ele>
        <time>2011-01-22T10:22:48Z</time>
      </trkpt>
      <trkpt lat="44.92326" lon="6.56083">
        <ele>2037</ele>
        <time>2011-01-22T10:22:52Z</time>
      </trkpt>
      <trkpt lat="44.92315" lon="6.56073">
        <ele>2036.6</ele>
        <time>2011-01-22T10:22:55Z</time>
      </trkpt>
      <trkpt lat="44.92309" lon="6.56065">
        <ele>2036.4</ele>
        <time>2011-01-22T10:22:57Z</time>
      </trkpt>
      <trkpt lat="44.92288" lon="6.56043">
        <ele>2036.2</ele>
        <time>2011-01-22T10:23:02Z</time>
      </trkpt>
      <trkpt lat="44.9227" lon="6.56024">
        <ele>2036.2</ele>
        <time>2011-01-22T10:23:07Z</time>
      </trkpt>
      <trkpt lat="44.92256" lon="6.56009">
        <ele>2037.4</ele>
        <time>2011-01-22T10:23:12Z</time>
      </trkpt>
      <trkpt lat="44.92253" lon="6.56005">
        <ele>2037.8</ele>
        <time>2011-01-22T10:23:13Z</time>
      </trkpt>
      <trkpt lat="44.92239" lon="6.5599">
        <ele>2039.4</ele>
        <time>2011-01-22T10:23:17Z</time>
      </trkpt>
      <trkpt lat="44.92229" lon="6.55979">
        <ele>2041</ele>
        <time>2011-01-22T10:23:20Z</time>
      </trkpt>
      <trkpt lat="44.92223" lon="6.55972">
        <ele>2042.2</ele>
        <time>2011-01-22T10:23:22Z</time>
      </trkpt>
      <trkpt lat="44.92206" lon="6.55954">
        <ele>2044.6</ele>
        <time>2011-01-22T10:23:26Z</time>
      </trkpt>
      <trkpt lat="44.92202" lon="6.5595">
        <ele>2046</ele>
        <time>2011-01-22T10:23:28Z</time>
      </trkpt>
      <trkpt lat="44.92192" lon="6.55939">
        <ele>2048.2</ele>
        <time>2011-01-22T10:23:31Z</time>
      </trkpt>
      <trkpt lat="44.92175" lon="6.5592">
        <ele>2052</ele>
        <time>2011-01-22T10:23:36Z</time>
      </trkpt>
      <trkpt lat="44.92169" lon="6.55912">
        <ele>2053</ele>
        <time>2011-01-22T10:23:37Z</time>
      </trkpt>
      <trkpt lat="44.92158" lon="6.55902">
        <ele>2056.4</ele>
        <time>2011-01-22T10:23:41Z</time>
      </trkpt>
      <trkpt lat="44.92139" lon="6.5588">
        <ele>2061.4</ele>
        <time>2011-01-22T10:23:46Z</time>
      </trkpt>
      <trkpt lat="44.92125" lon="6.55865">
        <ele>2066.4</ele>
        <time>2011-01-22T10:23:51Z</time>
      </trkpt>
      <trkpt lat="44.92112" lon="6.5585">
        <ele>2069.6</ele>
        <time>2011-01-22T10:23:54Z</time>
      </trkpt>
      <trkpt lat="44.92108" lon="6.55846">
        <ele>2071.8</ele>
        <time>2011-01-22T10:23:56Z</time>
      </trkpt>
      <trkpt lat="44.92091" lon="6.55827">
        <ele>2077.4</ele>
        <time>2011-01-22T10:24:01Z</time>
      </trkpt>
      <trkpt lat="44.92075" lon="6.55809">
        <ele>2083.2</ele>
        <time>2011-01-22T10:24:06Z</time>
      </trkpt>
      <trkpt lat="44.92068" lon="6.55802">
        <ele>2084.4</ele>
        <time>2011-01-22T10:24:07Z</time>
      </trkpt>
      <trkpt lat="44.92055" lon="6.55787">
        <ele>2090.6</ele>
        <time>2011-01-22T10:24:12Z</time>
      </trkpt>
      <trkpt lat="44.92047" lon="6.55779">
        <ele>2095.6</ele>
        <time>2011-01-22T10:24:16Z</time>
      </trkpt>
      <trkpt lat="44.92042" lon="6.55773">
        <ele>2098</ele>
        <time>2011-01-22T10:24:18Z</time>
      </trkpt>
      <trkpt lat="44.92026" lon="6.55755">
        <ele>2105.4</ele>
        <time>2011-01-22T10:24:24Z</time>
      </trkpt>
      <trkpt lat="44.9202" lon="6.55749">
        <ele>2106.6</ele>
        <time>2011-01-22T10:24:25Z</time>
      </trkpt>
      <trkpt lat="44.92009" lon="6.55738">
        <ele>2112.8</ele>
        <time>2011-01-22T10:24:30Z</time>
      </trkpt>
      <trkpt lat="44.91995" lon="6.55722">
        <ele>2119</ele>
        <time>2011-01-22T10:24:35Z</time>
      </trkpt>
      <trkpt lat="44.91988" lon="6.55715">
        <ele>2121.6</ele>
        <time>2011-01-22T10:24:37Z</time>
      </trkpt>
      <trkpt lat="44.91978" lon="6.55704">
        <ele>2125.6</ele>
        <time>2011-01-22T10:24:40Z</time>
      </trkpt>
      <trkpt lat="44.9196" lon="6.55683">
        <ele>2132.2</ele>
        <time>2011-01-22T10:24:45Z</time>
      </trkpt>
      <trkpt lat="44.9196" lon="6.55683">
        <ele>2133.6</ele>
        <time>2011-01-22T10:24:46Z</time>
      </trkpt>
      <trkpt lat="44.91948" lon="6.5567">
        <ele>2138.8</ele>
        <time>2011-01-22T10:24:50Z</time>
      </trkpt>
      <trkpt lat="44.91938" lon="6.5566">
        <ele>2141.2</ele>
        <time>2011-01-22T10:24:52Z</time>
      </trkpt>
      <trkpt lat="44.91929" lon="6.5565">
        <ele>2145</ele>
        <time>2011-01-22T10:24:55Z</time>
      </trkpt>
      <trkpt lat="44.91917" lon="6.55637">
        <ele>2151.2</ele>
        <time>2011-01-22T10:25:00Z</time>
      </trkpt>
      <trkpt lat="44.91911" lon="6.5563">
        <ele>2153.8</ele>
        <time>2011-01-22T10:25:02Z</time>
      </trkpt>
      <trkpt lat="44.91899" lon="6.55617">
        <ele>2157.4</ele>
        <time>2011-01-22T10:25:05Z</time>
      </trkpt>
      <trkpt lat="44.91887" lon="6.55603">
        <ele>2163.4</ele>
        <time>2011-01-22T10:25:10Z</time>
      </trkpt>
      <trkpt lat="44.91881" lon="6.55596">
        <ele>2165.8</ele>
        <time>2011-01-22T10:25:12Z</time>
      </trkpt>
      <trkpt lat="44.91869" lon="6.55582">
        <ele>2169.4</ele>
        <time>2011-01-22T10:25:15Z</time>
      </trkpt>
      <trkpt lat="44.91859" lon="6.55572">
        <ele>2173.8</ele>
        <time>2011-01-22T10:25:19Z</time>
      </trkpt>
      <trkpt lat="44.91856" lon="6.55569">
        <ele>2174.8</ele>
        <time>2011-01-22T10:25:20Z</time>
      </trkpt>
      <trkpt lat="44.91837" lon="6.55548">
        <ele>2180</ele>
        <time>2011-01-22T10:25:25Z</time>
      </trkpt>
      <trkpt lat="44.91825" lon="6.55534">
        <ele>2185.2</ele>
        <time>2011-01-22T10:25:30Z</time>
      </trkpt>
      <trkpt lat="44.9181" lon="6.55517">
        <ele>2189.2</ele>
        <time>2011-01-22T10:25:34Z</time>
      </trkpt>
      <trkpt lat="44.9181" lon="6.55517">
        <ele>2190.2</ele>
        <time>2011-01-22T10:25:35Z</time>
      </trkpt>
      <trkpt lat="44.91794" lon="6.55501">
        <ele>2195.4</ele>
        <time>2011-01-22T10:25:40Z</time>
      </trkpt>
      <trkpt lat="44.91779" lon="6.55484">
        <ele>2200.6</ele>
        <time>2011-01-22T10:25:45Z</time>
      </trkpt>
      <trkpt lat="44.91764" lon="6.55467">
        <ele>2205.6</ele>
        <time>2011-01-22T10:25:50Z</time>
      </trkpt>
      <trkpt lat="44.91761" lon="6.55464">
        <ele>2206.6</ele>
        <time>2011-01-22T10:25:51Z</time>
      </trkpt>
      <trkpt lat="44.91749" lon="6.55451">
        <ele>2210.4</ele>
        <time>2011-01-22T10:25:55Z</time>
      </trkpt>
      <trkpt lat="44.91731" lon="6.5543">
        <ele>2215.2</ele>
        <time>2011-01-22T10:26:00Z</time>
      </trkpt>
      <trkpt lat="44.91718" lon="6.55417">
        <ele>2219</ele>
        <time>2011-01-22T10:26:04Z</time>
      </trkpt>
      <trkpt lat="44.91715" lon="6.55413">
        <ele>2220</ele>
        <time>2011-01-22T10:26:05Z</time>
      </trkpt>
      <trkpt lat="44.91701" lon="6.55396">
        <ele>2225</ele>
        <time>2011-01-22T10:26:10Z</time>
      </trkpt>
      <trkpt lat="44.91689" lon="6.55383">
        <ele>2229.2</ele>
        <time>2011-01-22T10:26:14Z</time>
      </trkpt>
      <trkpt lat="44.91689" lon="6.55383">
        <ele>2230.2</ele>
        <time>2011-01-22T10:26:15Z</time>
      </trkpt>
      <trkpt lat="44.91674" lon="6.55367">
        <ele>2235.6</ele>
        <time>2011-01-22T10:26:20Z</time>
      </trkpt>
      <trkpt lat="44.91665" lon="6.55357">
        <ele>2239</ele>
        <time>2011-01-22T10:26:23Z</time>
      </trkpt>
      <trkpt lat="44.91656" lon="6.55347">
        <ele>2241.4</ele>
        <time>2011-01-22T10:26:25Z</time>
      </trkpt>
      <trkpt lat="44.91642" lon="6.55331">
        <ele>2247.2</ele>
        <time>2011-01-22T10:26:30Z</time>
      </trkpt>
      <trkpt lat="44.91632" lon="6.5532">
        <ele>2250.8</ele>
        <time>2011-01-22T10:26:33Z</time>
      </trkpt>
      <trkpt lat="44.91625" lon="6.55313">
        <ele>2253.4</ele>
        <time>2011-01-22T10:26:35Z</time>
      </trkpt>
      <trkpt lat="44.9161" lon="6.55297">
        <ele>2259.6</ele>
        <time>2011-01-22T10:26:40Z</time>
      </trkpt>
      <trkpt lat="44.91599" lon="6.55284">
        <ele>2266.2</ele>
        <time>2011-01-22T10:26:45Z</time>
      </trkpt>
      <trkpt lat="44.91592" lon="6.55277">
        <ele>2269</ele>
        <time>2011-01-22T10:26:47Z</time>
      </trkpt>
      <trkpt lat="44.91583" lon="6.55268">
        <ele>2273.2</ele>
        <time>2011-01-22T10:26:50Z</time>
      </trkpt>
      <trkpt lat="44.91569" lon="6.55252">
        <ele>2280.4</ele>
        <time>2011-01-22T10:26:55Z</time>
      </trkpt>
      <trkpt lat="44.91552" lon="6.55233">
        <ele>2289.4</ele>
        <time>2011-01-22T10:27:01Z</time>
      </trkpt>
      <trkpt lat="44.91536" lon="6.55216">
        <ele>2296.8</ele>
        <time>2011-01-22T10:27:06Z</time>
      </trkpt>
      <trkpt lat="44.91536" lon="6.55216">
        <ele>2298.4</ele>
        <time>2011-01-22T10:27:07Z</time>
      </trkpt>
      <trkpt lat="44.91519" lon="6.55198">
        <ele>2305.8</ele>
        <time>2011-01-22T10:27:12Z</time>
      </trkpt>
      <trkpt lat="44.91504" lon="6.55181">
        <ele>2311.6</ele>
        <time>2011-01-22T10:27:16Z</time>
      </trkpt>
      <trkpt lat="44.91502" lon="6.55178">
        <ele>2313</ele>
        <time>2011-01-22T10:27:17Z</time>
      </trkpt>
      <trkpt lat="44.91487" lon="6.55161">
        <ele>2320.4</ele>
        <time>2011-01-22T10:27:22Z</time>
      </trkpt>
      <trkpt lat="44.91478" lon="6.55151">
        <ele>2326.2</ele>
        <time>2011-01-22T10:27:26Z</time>
      </trkpt>
      <trkpt lat="44.91475" lon="6.55148">
        <ele>2327.8</ele>
        <time>2011-01-22T10:27:27Z</time>
      </trkpt>
      <trkpt lat="44.91457" lon="6.55128">
        <ele>2335.2</ele>
        <time>2011-01-22T10:27:32Z</time>
      </trkpt>
      <trkpt lat="44.91445" lon="6.55115">
        <ele>2341.2</ele>
        <time>2011-01-22T10:27:36Z</time>
      </trkpt>
      <trkpt lat="44.91442" lon="6.55112">
        <ele>2342.8</ele>
        <time>2011-01-22T10:27:37Z</time>
      </trkpt>
      <trkpt lat="44.9143" lon="6.55099">
        <ele>2350.4</ele>
        <time>2011-01-22T10:27:42Z</time>
      </trkpt>
      <trkpt lat="44.91428" lon="6.55095">
        <ele>2351.8</ele>
        <time>2011-01-22T10:27:43Z</time>
      </trkpt>
      <trkpt lat="44.91416" lon="6.55083">
        <ele>2358</ele>
        <time>2011-01-22T10:27:47Z</time>
      </trkpt>
      <trkpt lat="44.91403" lon="6.5507">
        <ele>2362.2</ele>
        <time>2011-01-22T10:27:50Z</time>
      </trkpt>
      <trkpt lat="44.914" lon="6.55067">
        <ele>2365</ele>
        <time>2011-01-22T10:27:52Z</time>
      </trkpt>
      <trkpt lat="44.91393" lon="6.55062">
        <ele>2368.8</ele>
        <time>2011-01-22T10:27:55Z</time>
      </trkpt>
      <trkpt lat="44.91387" lon="6.55059">
        <ele>2373.6</ele>
        <time>2011-01-22T10:27:59Z</time>
      </trkpt>
      <trkpt lat="44.91385" lon="6.5506">
        <ele>2374.4</ele>
        <time>2011-01-22T10:28:00Z</time>
      </trkpt>
      <trkpt lat="44.91382" lon="6.55062">
        <ele>2375.4</ele>
        <time>2011-01-22T10:28:01Z</time>
      </trkpt>
      <trkpt lat="44.91381" lon="6.55065">
        <ele>2376.2</ele>
        <time>2011-01-22T10:28:02Z</time>
      </trkpt>
      <trkpt lat="44.9138" lon="6.5507">
        <ele>2379.6</ele>
        <time>2011-01-22T10:28:06Z</time>
      </trkpt>
      <trkpt lat="44.91379" lon="6.55071">
        <ele>2383.2</ele>
        <time>2011-01-22T10:28:11Z</time>
      </trkpt>
      <trkpt lat="44.91379" lon="6.55075">
        <ele>2387.2</ele>
        <time>2011-01-22T10:28:18Z</time>
      </trkpt>
      <trkpt lat="44.91378" lon="6.55086">
        <ele>2390.4</ele>
        <time>2011-01-22T10:28:25Z</time>
      </trkpt>
      <trkpt lat="44.91378" lon="6.55089">
        <ele>2390.8</ele>
        <time>2011-01-22T10:28:26Z</time>
      </trkpt>
      <trkpt lat="44.91379" lon="6.55097">
        <ele>2392.2</ele>
        <time>2011-01-22T10:28:30Z</time>
      </trkpt>
      <trkpt lat="44.91379" lon="6.551">
        <ele>2392.6</ele>
        <time>2011-01-22T10:28:31Z</time>
      </trkpt>
      <trkpt lat="44.91378" lon="6.5511">
        <ele>2393.6</ele>
        <time>2011-01-22T10:28:34Z</time>
      </trkpt>
      <trkpt lat="44.91377" lon="6.55116">
        <ele>2393.8</ele>
        <time>2011-01-22T10:28:35Z</time>
      </trkpt>
      <trkpt lat="44.91376" lon="6.55125">
        <ele>2394.8</ele>
        <time>2011-01-22T10:28:39Z</time>
      </trkpt>
      <trkpt lat="44.9137" lon="6.55143">
        <ele>2395.6</ele>
        <time>2011-01-22T10:28:44Z</time>
      </trkpt>
      <trkpt lat="44.91369" lon="6.55146">
        <ele>2395.8</ele>
        <time>2011-01-22T10:28:45Z</time>
      </trkpt>
      <trkpt lat="44.91356" lon="6.5517">
        <ele>2395.6</ele>
        <time>2011-01-22T10:28:49Z</time>
      </trkpt>
      <trkpt lat="44.91348" lon="6.55188">
        <ele>2395.4</ele>
        <time>2011-01-22T10:28:52Z</time>
      </trkpt>
      <trkpt lat="44.91345" lon="6.55201">
        <ele>2395.4</ele>
        <time>2011-01-22T10:28:53Z</time>
      </trkpt>
      <trkpt lat="44.91344" lon="6.55216">
        <ele>2395.4</ele>
        <time>2011-01-22T10:28:54Z</time>
      </trkpt>
      <trkpt lat="44.91348" lon="6.55269">
        <ele>2395</ele>
        <time>2011-01-22T10:28:56Z</time>
      </trkpt>
      <trkpt lat="44.91354" lon="6.55288">
        <ele>2394.4</ele>
        <time>2011-01-22T10:28:58Z</time>
      </trkpt>
      <trkpt lat="44.91383" lon="6.55341">
        <ele>2393.8</ele>
        <time>2011-01-22T10:29:00Z</time>
      </trkpt>
      <trkpt lat="44.91385" lon="6.55362">
        <ele>2393</ele>
        <time>2011-01-22T10:29:02Z</time>
      </trkpt>
      <trkpt lat="44.91402" lon="6.5542">
        <ele>2391.8</ele>
        <time>2011-01-22T10:29:04Z</time>
      </trkpt>
      <trkpt lat="44.91408" lon="6.55442">
        <ele>2391.2</ele>
        <time>2011-01-22T10:29:05Z</time>
      </trkpt>
      <trkpt lat="44.91408" lon="6.55442">
        <ele>2390.8</ele>
        <time>2011-01-22T10:29:06Z</time>
      </trkpt>
      <trkpt lat="44.9142" lon="6.55485">
        <ele>2389.4</ele>
        <time>2011-01-22T10:29:08Z</time>
      </trkpt>
      <trkpt lat="44.91424" lon="6.5553">
        <ele>2388.6</ele>
        <time>2011-01-22T10:29:09Z</time>
      </trkpt>
      <trkpt lat="44.91424" lon="6.5553">
        <ele>2387.8</ele>
        <time>2011-01-22T10:29:10Z</time>
      </trkpt>
      <trkpt lat="44.91427" lon="6.55599">
        <ele>2386.2</ele>
        <time>2011-01-22T10:29:12Z</time>
      </trkpt>
      <trkpt lat="44.91427" lon="6.5562">
        <ele>2384.4</ele>
        <time>2011-01-22T10:29:14Z</time>
      </trkpt>
      <trkpt lat="44.91432" lon="6.55656">
        <ele>2382.6</ele>
        <time>2011-01-22T10:29:16Z</time>
      </trkpt>
      <trkpt lat="44.91434" lon="6.55693">
        <ele>2381.8</ele>
        <time>2011-01-22T10:29:17Z</time>
      </trkpt>
      <trkpt lat="44.91434" lon="6.55693">
        <ele>2380.8</ele>
        <time>2011-01-22T10:29:18Z</time>
      </trkpt>
      <trkpt lat="44.91432" lon="6.55727">
        <ele>2379.8</ele>
        <time>2011-01-22T10:29:19Z</time>
      </trkpt>
      <trkpt lat="44.91432" lon="6.55727">
        <ele>2379</ele>
        <time>2011-01-22T10:29:20Z</time>
      </trkpt>
      <trkpt lat="44.91432" lon="6.55742">
        <ele>2378</ele>
        <time>2011-01-22T10:29:21Z</time>
      </trkpt>
      <trkpt lat="44.91431" lon="6.55756">
        <ele>2377.2</ele>
        <time>2011-01-22T10:29:22Z</time>
      </trkpt>
      <trkpt lat="44.91432" lon="6.55769">
        <ele>2376.2</ele>
        <time>2011-01-22T10:29:23Z</time>
      </trkpt>
      <trkpt lat="44.91431" lon="6.55798">
        <ele>2373.4</ele>
        <time>2011-01-22T10:29:26Z</time>
      </trkpt>
      <trkpt lat="44.91432" lon="6.558">
        <ele>2371.4</ele>
        <time>2011-01-22T10:29:28Z</time>
      </trkpt>
      <trkpt lat="44.91432" lon="6.55804">
        <ele>2370.6</ele>
        <time>2011-01-22T10:29:29Z</time>
      </trkpt>
      <trkpt lat="44.91437" lon="6.55822">
        <ele>2368.8</ele>
        <time>2011-01-22T10:29:31Z</time>
      </trkpt>
      <trkpt lat="44.91437" lon="6.55822">
        <ele>2367.8</ele>
        <time>2011-01-22T10:29:32Z</time>
      </trkpt>
      <trkpt lat="44.91441" lon="6.55841">
        <ele>2366</ele>
        <time>2011-01-22T10:29:34Z</time>
      </trkpt>
      <trkpt lat="44.91444" lon="6.55851">
        <ele>2365</ele>
        <time>2011-01-22T10:29:35Z</time>
      </trkpt>
      <trkpt lat="44.91453" lon="6.55871">
        <ele>2363.2</ele>
        <time>2011-01-22T10:29:37Z</time>
      </trkpt>
      <trkpt lat="44.91458" lon="6.55881">
        <ele>2362.2</ele>
        <time>2011-01-22T10:29:38Z</time>
      </trkpt>
      <trkpt lat="44.9147" lon="6.55899">
        <ele>2361.2</ele>
        <time>2011-01-22T10:29:39Z</time>
      </trkpt>
      <trkpt lat="44.91471" lon="6.5591">
        <ele>2360.4</ele>
        <time>2011-01-22T10:29:40Z</time>
      </trkpt>
      <trkpt lat="44.91471" lon="6.55921">
        <ele>2358.4</ele>
        <time>2011-01-22T10:29:42Z</time>
      </trkpt>
      <trkpt lat="44.91467" lon="6.55935">
        <ele>2357.4</ele>
        <time>2011-01-22T10:29:43Z</time>
      </trkpt>
      <trkpt lat="44.91462" lon="6.55968">
        <ele>2356.2</ele>
        <time>2011-01-22T10:29:44Z</time>
      </trkpt>
      <trkpt lat="44.91464" lon="6.55984">
        <ele>2355.2</ele>
        <time>2011-01-22T10:29:45Z</time>
      </trkpt>
      <trkpt lat="44.91466" lon="6.55998">
        <ele>2354.2</ele>
        <time>2011-01-22T10:29:46Z</time>
      </trkpt>
      <trkpt lat="44.91465" lon="6.56008">
        <ele>2353.2</ele>
        <time>2011-01-22T10:29:47Z</time>
      </trkpt>
      <trkpt lat="44.91465" lon="6.56008">
        <ele>2352.2</ele>
        <time>2011-01-22T10:29:48Z</time>
      </trkpt>
      <trkpt lat="44.91462" lon="6.56018">
        <ele>2351.2</ele>
        <time>2011-01-22T10:29:49Z</time>
      </trkpt>
      <trkpt lat="44.91459" lon="6.56043">
        <ele>2349</ele>
        <time>2011-01-22T10:29:51Z</time>
      </trkpt>
      <trkpt lat="44.91459" lon="6.56055">
        <ele>2348</ele>
        <time>2011-01-22T10:29:52Z</time>
      </trkpt>
      <trkpt lat="44.91461" lon="6.5608">
        <ele>2347</ele>
        <time>2011-01-22T10:29:53Z</time>
      </trkpt>
      <trkpt lat="44.91465" lon="6.56102">
        <ele>2343.8</ele>
        <time>2011-01-22T10:29:56Z</time>
      </trkpt>
      <trkpt lat="44.91467" lon="6.56111">
        <ele>2342.8</ele>
        <time>2011-01-22T10:29:57Z</time>
      </trkpt>
      <trkpt lat="44.91472" lon="6.56136">
        <ele>2339.6</ele>
        <time>2011-01-22T10:30:00Z</time>
      </trkpt>
      <trkpt lat="44.91473" lon="6.5614">
        <ele>2337.6</ele>
        <time>2011-01-22T10:30:02Z</time>
      </trkpt>
      <trkpt lat="44.91472" lon="6.56143">
        <ele>2336.6</ele>
        <time>2011-01-22T10:30:03Z</time>
      </trkpt>
      <trkpt lat="44.91463" lon="6.56153">
        <ele>2333.4</ele>
        <time>2011-01-22T10:30:06Z</time>
      </trkpt>
      <trkpt lat="44.91458" lon="6.56162">
        <ele>2332.4</ele>
        <time>2011-01-22T10:30:07Z</time>
      </trkpt>
      <trkpt lat="44.91451" lon="6.56172">
        <ele>2331.2</ele>
        <time>2011-01-22T10:30:08Z</time>
      </trkpt>
      <trkpt lat="44.91441" lon="6.5618">
        <ele>2330.2</ele>
        <time>2011-01-22T10:30:09Z</time>
      </trkpt>
      <trkpt lat="44.91425" lon="6.56197">
        <ele>2329</ele>
        <time>2011-01-22T10:30:10Z</time>
      </trkpt>
      <trkpt lat="44.91418" lon="6.56208">
        <ele>2327.8</ele>
        <time>2011-01-22T10:30:11Z</time>
      </trkpt>
      <trkpt lat="44.91418" lon="6.56208">
        <ele>2326.6</ele>
        <time>2011-01-22T10:30:12Z</time>
      </trkpt>
      <trkpt lat="44.91402" lon="6.56223">
        <ele>2325.6</ele>
        <time>2011-01-22T10:30:13Z</time>
      </trkpt>
      <trkpt lat="44.91402" lon="6.56223">
        <ele>2324.4</ele>
        <time>2011-01-22T10:30:14Z</time>
      </trkpt>
      <trkpt lat="44.9139" lon="6.56232">
        <ele>2323.4</ele>
        <time>2011-01-22T10:30:15Z</time>
      </trkpt>
      <trkpt lat="44.91384" lon="6.56237">
        <ele>2321</ele>
        <time>2011-01-22T10:30:17Z</time>
      </trkpt>
      <trkpt lat="44.91378" lon="6.56239">
        <ele>2320</ele>
        <time>2011-01-22T10:30:18Z</time>
      </trkpt>
      <trkpt lat="44.91363" lon="6.56243">
        <ele>2317.6</ele>
        <time>2011-01-22T10:30:20Z</time>
      </trkpt>
      <trkpt lat="44.91352" lon="6.56249">
        <ele>2316.4</ele>
        <time>2011-01-22T10:30:21Z</time>
      </trkpt>
      <trkpt lat="44.9135" lon="6.56253">
        <ele>2315.2</ele>
        <time>2011-01-22T10:30:22Z</time>
      </trkpt>
      <trkpt lat="44.91349" lon="6.56254">
        <ele>2310.8</ele>
        <time>2011-01-22T10:30:26Z</time>
      </trkpt>
      <trkpt lat="44.91351" lon="6.56253">
        <ele>2301.4</ele>
        <time>2011-01-22T10:30:35Z</time>
      </trkpt>
      <trkpt lat="44.91348" lon="6.56256">
        <ele>2285.8</ele>
        <time>2011-01-22T10:30:52Z</time>
      </trkpt>
      <trkpt lat="44.91346" lon="6.56259">
        <ele>2284</ele>
        <time>2011-01-22T10:30:54Z</time>
      </trkpt>
      <trkpt lat="44.91338" lon="6.5627">
        <ele>2282.4</ele>
        <time>2011-01-22T10:30:56Z</time>
      </trkpt>
      <trkpt lat="44.91327" lon="6.56285">
        <ele>2281.4</ele>
        <time>2011-01-22T10:30:57Z</time>
      </trkpt>
      <trkpt lat="44.91322" lon="6.56295">
        <ele>2280.4</ele>
        <time>2011-01-22T10:30:58Z</time>
      </trkpt>
      <trkpt lat="44.91322" lon="6.56295">
        <ele>2279.6</ele>
        <time>2011-01-22T10:30:59Z</time>
      </trkpt>
      <trkpt lat="44.91312" lon="6.56315">
        <ele>2278.6</ele>
        <time>2011-01-22T10:31:00Z</time>
      </trkpt>
      <trkpt lat="44.91306" lon="6.56325">
        <ele>2277.6</ele>
        <time>2011-01-22T10:31:01Z</time>
      </trkpt>
      <trkpt lat="44.91301" lon="6.56335">
        <ele>2276.6</ele>
        <time>2011-01-22T10:31:02Z</time>
      </trkpt>
      <trkpt lat="44.91301" lon="6.56335">
        <ele>2275.8</ele>
        <time>2011-01-22T10:31:03Z</time>
      </trkpt>
      <trkpt lat="44.91298" lon="6.5635">
        <ele>2274.8</ele>
        <time>2011-01-22T10:31:04Z</time>
      </trkpt>
      <trkpt lat="44.91295" lon="6.56364">
        <ele>2273.6</ele>
        <time>2011-01-22T10:31:05Z</time>
      </trkpt>
      <trkpt lat="44.91292" lon="6.56379">
        <ele>2272.6</ele>
        <time>2011-01-22T10:31:06Z</time>
      </trkpt>
      <trkpt lat="44.91288" lon="6.56396">
        <ele>2271.4</ele>
        <time>2011-01-22T10:31:07Z</time>
      </trkpt>
      <trkpt lat="44.91289" lon="6.56438">
        <ele>2270.2</ele>
        <time>2011-01-22T10:31:08Z</time>
      </trkpt>
      <trkpt lat="44.91289" lon="6.56438">
        <ele>2269.2</ele>
        <time>2011-01-22T10:31:09Z</time>
      </trkpt>
      <trkpt lat="44.91293" lon="6.56459">
        <ele>2268</ele>
        <time>2011-01-22T10:31:10Z</time>
      </trkpt>
      <trkpt lat="44.91299" lon="6.5648">
        <ele>2267</ele>
        <time>2011-01-22T10:31:11Z</time>
      </trkpt>
      <trkpt lat="44.91313" lon="6.56514">
        <ele>2265.6</ele>
        <time>2011-01-22T10:31:12Z</time>
      </trkpt>
      <trkpt lat="44.9132" lon="6.5653">
        <ele>2264.4</ele>
        <time>2011-01-22T10:31:13Z</time>
      </trkpt>
      <trkpt lat="44.9132" lon="6.5653">
        <ele>2263.2</ele>
        <time>2011-01-22T10:31:14Z</time>
      </trkpt>
      <trkpt lat="44.91335" lon="6.56565">
        <ele>2260.6</ele>
        <time>2011-01-22T10:31:16Z</time>
      </trkpt>
      <trkpt lat="44.91349" lon="6.56601">
        <ele>2258</ele>
        <time>2011-01-22T10:31:18Z</time>
      </trkpt>
      <trkpt lat="44.91354" lon="6.5662">
        <ele>2256.6</ele>
        <time>2011-01-22T10:31:19Z</time>
      </trkpt>
      <trkpt lat="44.9136" lon="6.56637">
        <ele>2255.4</ele>
        <time>2011-01-22T10:31:20Z</time>
      </trkpt>
      <trkpt lat="44.91367" lon="6.56655">
        <ele>2254</ele>
        <time>2011-01-22T10:31:21Z</time>
      </trkpt>
      <trkpt lat="44.91375" lon="6.56671">
        <ele>2252.4</ele>
        <time>2011-01-22T10:31:22Z</time>
      </trkpt>
      <trkpt lat="44.91382" lon="6.56689">
        <ele>2251</ele>
        <time>2011-01-22T10:31:23Z</time>
      </trkpt>
      <trkpt lat="44.9139" lon="6.56708">
        <ele>2249.4</ele>
        <time>2011-01-22T10:31:24Z</time>
      </trkpt>
      <trkpt lat="44.91399" lon="6.56728">
        <ele>2247.8</ele>
        <time>2011-01-22T10:31:25Z</time>
      </trkpt>
      <trkpt lat="44.9141" lon="6.56749">
        <ele>2246.2</ele>
        <time>2011-01-22T10:31:26Z</time>
      </trkpt>
      <trkpt lat="44.91424" lon="6.56799">
        <ele>2244.4</ele>
        <time>2011-01-22T10:31:27Z</time>
      </trkpt>
      <trkpt lat="44.91424" lon="6.56799">
        <ele>2242.8</ele>
        <time>2011-01-22T10:31:28Z</time>
      </trkpt>
      <trkpt lat="44.91438" lon="6.56852">
        <ele>2240.8</ele>
        <time>2011-01-22T10:31:29Z</time>
      </trkpt>
      <trkpt lat="44.91445" lon="6.56878">
        <ele>2239</ele>
        <time>2011-01-22T10:31:30Z</time>
      </trkpt>
      <trkpt lat="44.91457" lon="6.56902">
        <ele>2237</ele>
        <time>2011-01-22T10:31:31Z</time>
      </trkpt>
      <trkpt lat="44.91457" lon="6.56902">
        <ele>2235.2</ele>
        <time>2011-01-22T10:31:32Z</time>
      </trkpt>
      <trkpt lat="44.91469" lon="6.56925">
        <ele>2233.2</ele>
        <time>2011-01-22T10:31:33Z</time>
      </trkpt>
      <trkpt lat="44.91477" lon="6.56946">
        <ele>2231.2</ele>
        <time>2011-01-22T10:31:34Z</time>
      </trkpt>
      <trkpt lat="44.91487" lon="6.56984">
        <ele>2227.2</ele>
        <time>2011-01-22T10:31:36Z</time>
      </trkpt>
      <trkpt lat="44.91489" lon="6.5701">
        <ele>2221.2</ele>
        <time>2011-01-22T10:31:39Z</time>
      </trkpt>
      <trkpt lat="44.91489" lon="6.57012">
        <ele>2219.4</ele>
        <time>2011-01-22T10:31:40Z</time>
      </trkpt>
      <trkpt lat="44.91487" lon="6.57012">
        <ele>2217.6</ele>
        <time>2011-01-22T10:31:41Z</time>
      </trkpt>
      <trkpt lat="44.91486" lon="6.57011">
        <ele>2201.6</ele>
        <time>2011-01-22T10:31:50Z</time>
      </trkpt>
      <trkpt lat="44.91483" lon="6.57005">
        <ele>2186</ele>
        <time>2011-01-22T10:32:00Z</time>
      </trkpt>
      <trkpt lat="44.91483" lon="6.57002">
        <ele>2183</ele>
        <time>2011-01-22T10:32:02Z</time>
      </trkpt>
      <trkpt lat="44.91483" lon="6.56998">
        <ele>2180.2</ele>
        <time>2011-01-22T10:32:04Z</time>
      </trkpt>
      <trkpt lat="44.91483" lon="6.56992">
        <ele>2177.2</ele>
        <time>2011-01-22T10:32:06Z</time>
      </trkpt>
      <trkpt lat="44.91482" lon="6.56989">
        <ele>2175.8</ele>
        <time>2011-01-22T10:32:07Z</time>
      </trkpt>
      <trkpt lat="44.91481" lon="6.56986">
        <ele>2174.4</ele>
        <time>2011-01-22T10:32:08Z</time>
      </trkpt>
      <trkpt lat="44.91478" lon="6.56983">
        <ele>2169.2</ele>
        <time>2011-01-22T10:32:12Z</time>
      </trkpt>
      <trkpt lat="44.91478" lon="6.56986">
        <ele>2146.2</ele>
        <time>2011-01-22T10:32:31Z</time>
      </trkpt>
      <trkpt lat="44.91478" lon="6.56986">
        <ele>2109</ele>
        <time>2011-01-22T10:33:12Z</time>
      </trkpt>
      <trkpt lat="44.91478" lon="6.56984">
        <ele>2091.4</ele>
        <time>2011-01-22T10:33:38Z</time>
      </trkpt>
      <trkpt lat="44.91479" lon="6.56988">
        <ele>2087.8</ele>
        <time>2011-01-22T10:33:44Z</time>
      </trkpt>
      <trkpt lat="44.9148" lon="6.56991">
        <ele>2085</ele>
        <time>2011-01-22T10:33:49Z</time>
      </trkpt>
      <trkpt lat="44.91481" lon="6.56994">
        <ele>2083</ele>
        <time>2011-01-22T10:33:53Z</time>
      </trkpt>
      <trkpt lat="44.91483" lon="6.57">
        <ele>2080</ele>
        <time>2011-01-22T10:33:59Z</time>
      </trkpt>
      <trkpt lat="44.91484" lon="6.57004">
        <ele>2077.2</ele>
        <time>2011-01-22T10:34:05Z</time>
      </trkpt>
      <trkpt lat="44.91485" lon="6.57007">
        <ele>2075.4</ele>
        <time>2011-01-22T10:34:09Z</time>
      </trkpt>
      <trkpt lat="44.91485" lon="6.57008">
        <ele>2075</ele>
        <time>2011-01-22T10:34:10Z</time>
      </trkpt>
      <trkpt lat="44.91485" lon="6.57011">
        <ele>2072.8</ele>
        <time>2011-01-22T10:34:15Z</time>
      </trkpt>
      <trkpt lat="44.91485" lon="6.57015">
        <ele>2070.8</ele>
        <time>2011-01-22T10:34:20Z</time>
      </trkpt>
      <trkpt lat="44.91485" lon="6.57019">
        <ele>2069</ele>
        <time>2011-01-22T10:34:25Z</time>
      </trkpt>
      <trkpt lat="44.91483" lon="6.57022">
        <ele>2067.2</ele>
        <time>2011-01-22T10:34:30Z</time>
      </trkpt>
      <trkpt lat="44.91482" lon="6.57024">
        <ele>2063.8</ele>
        <time>2011-01-22T10:34:40Z</time>
      </trkpt>
      <trkpt lat="44.9148" lon="6.57025">
        <ele>2061.2</ele>
        <time>2011-01-22T10:34:49Z</time>
      </trkpt>
      <trkpt lat="44.91477" lon="6.57027">
        <ele>2057.2</ele>
        <time>2011-01-22T10:35:05Z</time>
      </trkpt>
      <trkpt lat="44.91472" lon="6.57024">
        <ele>2053.8</ele>
        <time>2011-01-22T10:35:20Z</time>
      </trkpt>
      <trkpt lat="44.91471" lon="6.57029">
        <ele>2052.8</ele>
        <time>2011-01-22T10:35:25Z</time>
      </trkpt>
      <trkpt lat="44.91472" lon="6.57033">
        <ele>2052.4</ele>
        <time>2011-01-22T10:35:27Z</time>
      </trkpt>
      <trkpt lat="44.91469" lon="6.57037">
        <ele>2051.2</ele>
        <time>2011-01-22T10:35:33Z</time>
      </trkpt>
      <trkpt lat="44.91467" lon="6.57037">
        <ele>2051</ele>
        <time>2011-01-22T10:35:34Z</time>
      </trkpt>
      <trkpt lat="44.91459" lon="6.57037">
        <ele>2050.6</ele>
        <time>2011-01-22T10:35:36Z</time>
      </trkpt>
      <trkpt lat="44.91447" lon="6.5704">
        <ele>2050.2</ele>
        <time>2011-01-22T10:35:39Z</time>
      </trkpt>
      <trkpt lat="44.91435" lon="6.57043">
        <ele>2049.8</ele>
        <time>2011-01-22T10:35:42Z</time>
      </trkpt>
      <trkpt lat="44.91428" lon="6.57045">
        <ele>2049.6</ele>
        <time>2011-01-22T10:35:44Z</time>
      </trkpt>
      <trkpt lat="44.9141" lon="6.5705">
        <ele>2049.4</ele>
        <time>2011-01-22T10:35:49Z</time>
      </trkpt>
      <trkpt lat="44.91392" lon="6.57056">
        <ele>2049.8</ele>
        <time>2011-01-22T10:35:54Z</time>
      </trkpt>
      <trkpt lat="44.91372" lon="6.57063">
        <ele>2052</ele>
        <time>2011-01-22T10:36:00Z</time>
      </trkpt>
      <trkpt lat="44.91362" lon="6.57066">
        <ele>2053.8</ele>
        <time>2011-01-22T10:36:03Z</time>
      </trkpt>
      <trkpt lat="44.91352" lon="6.57069">
        <ele>2055.8</ele>
        <time>2011-01-22T10:36:06Z</time>
      </trkpt>
      <trkpt lat="44.91338" lon="6.57075">
        <ele>2058.6</ele>
        <time>2011-01-22T10:36:10Z</time>
      </trkpt>
      <trkpt lat="44.91331" lon="6.57077">
        <ele>2060.4</ele>
        <time>2011-01-22T10:36:12Z</time>
      </trkpt>
      <trkpt lat="44.91316" lon="6.57082">
        <ele>2064.8</ele>
        <time>2011-01-22T10:36:17Z</time>
      </trkpt>
      <trkpt lat="44.91312" lon="6.57083">
        <ele>2065.6</ele>
        <time>2011-01-22T10:36:18Z</time>
      </trkpt>
      <trkpt lat="44.91293" lon="6.57089">
        <ele>2070.2</ele>
        <time>2011-01-22T10:36:23Z</time>
      </trkpt>
      <trkpt lat="44.91276" lon="6.57094">
        <ele>2075</ele>
        <time>2011-01-22T10:36:28Z</time>
      </trkpt>
      <trkpt lat="44.91273" lon="6.57095">
        <ele>2076</ele>
        <time>2011-01-22T10:36:29Z</time>
      </trkpt>
      <trkpt lat="44.91256" lon="6.57101">
        <ele>2081.2</ele>
        <time>2011-01-22T10:36:34Z</time>
      </trkpt>
      <trkpt lat="44.91246" lon="6.57104">
        <ele>2084.6</ele>
        <time>2011-01-22T10:36:37Z</time>
      </trkpt>
      <trkpt lat="44.91235" lon="6.57108">
        <ele>2087.8</ele>
        <time>2011-01-22T10:36:40Z</time>
      </trkpt>
      <trkpt lat="44.91224" lon="6.57111">
        <ele>2091.4</ele>
        <time>2011-01-22T10:36:43Z</time>
      </trkpt>
      <trkpt lat="44.91217" lon="6.57114">
        <ele>2093.6</ele>
        <time>2011-01-22T10:36:45Z</time>
      </trkpt>
      <trkpt lat="44.912" lon="6.57121">
        <ele>2099.6</ele>
        <time>2011-01-22T10:36:50Z</time>
      </trkpt>
      <trkpt lat="44.91193" lon="6.57124">
        <ele>2102</ele>
        <time>2011-01-22T10:36:52Z</time>
      </trkpt>
      <trkpt lat="44.91179" lon="6.57129">
        <ele>2106.8</ele>
        <time>2011-01-22T10:36:56Z</time>
      </trkpt>
      <trkpt lat="44.91165" lon="6.57134">
        <ele>2111.4</ele>
        <time>2011-01-22T10:37:00Z</time>
      </trkpt>
      <trkpt lat="44.91161" lon="6.57135">
        <ele>2112.6</ele>
        <time>2011-01-22T10:37:01Z</time>
      </trkpt>
      <trkpt lat="44.91143" lon="6.57141">
        <ele>2118.4</ele>
        <time>2011-01-22T10:37:06Z</time>
      </trkpt>
      <trkpt lat="44.91133" lon="6.57145">
        <ele>2121.8</ele>
        <time>2011-01-22T10:37:09Z</time>
      </trkpt>
      <trkpt lat="44.91125" lon="6.57148">
        <ele>2124</ele>
        <time>2011-01-22T10:37:11Z</time>
      </trkpt>
      <trkpt lat="44.91108" lon="6.57154">
        <ele>2129.6</ele>
        <time>2011-01-22T10:37:16Z</time>
      </trkpt>
      <trkpt lat="44.91105" lon="6.57155">
        <ele>2130.8</ele>
        <time>2011-01-22T10:37:17Z</time>
      </trkpt>
      <trkpt lat="44.91084" lon="6.57164">
        <ele>2137.6</ele>
        <time>2011-01-22T10:37:23Z</time>
      </trkpt>
      <trkpt lat="44.91081" lon="6.57165">
        <ele>2138.8</ele>
        <time>2011-01-22T10:37:24Z</time>
      </trkpt>
      <trkpt lat="44.91064" lon="6.57171">
        <ele>2144.8</ele>
        <time>2011-01-22T10:37:29Z</time>
      </trkpt>
      <trkpt lat="44.91057" lon="6.57173">
        <ele>2147</ele>
        <time>2011-01-22T10:37:31Z</time>
      </trkpt>
      <trkpt lat="44.91044" lon="6.57179">
        <ele>2152</ele>
        <time>2011-01-22T10:37:35Z</time>
      </trkpt>
      <trkpt lat="44.91024" lon="6.57187">
        <ele>2159.8</ele>
        <time>2011-01-22T10:37:41Z</time>
      </trkpt>
      <trkpt lat="44.9102" lon="6.57188">
        <ele>2161</ele>
        <time>2011-01-22T10:37:42Z</time>
      </trkpt>
      <trkpt lat="44.91005" lon="6.57192">
        <ele>2166.2</ele>
        <time>2011-01-22T10:37:46Z</time>
      </trkpt>
      <trkpt lat="44.90991" lon="6.57196">
        <ele>2171.6</ele>
        <time>2011-01-22T10:37:50Z</time>
      </trkpt>
      <trkpt lat="44.90987" lon="6.57197">
        <ele>2172.8</ele>
        <time>2011-01-22T10:37:51Z</time>
      </trkpt>
      <trkpt lat="44.90966" lon="6.57204">
        <ele>2181</ele>
        <time>2011-01-22T10:37:57Z</time>
      </trkpt>
      <trkpt lat="44.90956" lon="6.57209">
        <ele>2185</ele>
        <time>2011-01-22T10:38:00Z</time>
      </trkpt>
      <trkpt lat="44.90946" lon="6.57213">
        <ele>2189.2</ele>
        <time>2011-01-22T10:38:03Z</time>
      </trkpt>
      <trkpt lat="44.90926" lon="6.5722">
        <ele>2197.6</ele>
        <time>2011-01-22T10:38:09Z</time>
      </trkpt>
      <trkpt lat="44.90905" lon="6.57226">
        <ele>2206.2</ele>
        <time>2011-01-22T10:38:15Z</time>
      </trkpt>
      <trkpt lat="44.90895" lon="6.57229">
        <ele>2210.6</ele>
        <time>2011-01-22T10:38:18Z</time>
      </trkpt>
      <trkpt lat="44.90885" lon="6.57233">
        <ele>2215</ele>
        <time>2011-01-22T10:38:21Z</time>
      </trkpt>
      <trkpt lat="44.90865" lon="6.57241">
        <ele>2224</ele>
        <time>2011-01-22T10:38:27Z</time>
      </trkpt>
      <trkpt lat="44.90861" lon="6.57242">
        <ele>2225.6</ele>
        <time>2011-01-22T10:38:28Z</time>
      </trkpt>
      <trkpt lat="44.90848" lon="6.57246">
        <ele>2232</ele>
        <time>2011-01-22T10:38:32Z</time>
      </trkpt>
      <trkpt lat="44.90845" lon="6.57247">
        <ele>2233.6</ele>
        <time>2011-01-22T10:38:33Z</time>
      </trkpt>
      <trkpt lat="44.90833" lon="6.57251">
        <ele>2238.4</ele>
        <time>2011-01-22T10:38:36Z</time>
      </trkpt>
      <trkpt lat="44.90826" lon="6.57253">
        <ele>2241.4</ele>
        <time>2011-01-22T10:38:38Z</time>
      </trkpt>
      <trkpt lat="44.90807" lon="6.57259">
        <ele>2249</ele>
        <time>2011-01-22T10:38:43Z</time>
      </trkpt>
      <trkpt lat="44.90803" lon="6.5726">
        <ele>2250.6</ele>
        <time>2011-01-22T10:38:44Z</time>
      </trkpt>
      <trkpt lat="44.9079" lon="6.57264">
        <ele>2256.4</ele>
        <time>2011-01-22T10:38:48Z</time>
      </trkpt>
      <trkpt lat="44.90769" lon="6.57271">
        <ele>2265</ele>
        <time>2011-01-22T10:38:54Z</time>
      </trkpt>
      <trkpt lat="44.90748" lon="6.57277">
        <ele>2273.4</ele>
        <time>2011-01-22T10:39:00Z</time>
      </trkpt>
      <trkpt lat="44.90737" lon="6.57281">
        <ele>2277.4</ele>
        <time>2011-01-22T10:39:03Z</time>
      </trkpt>
      <trkpt lat="44.9073" lon="6.57283">
        <ele>2280.2</ele>
        <time>2011-01-22T10:39:05Z</time>
      </trkpt>
      <trkpt lat="44.90713" lon="6.5729">
        <ele>2286.8</ele>
        <time>2011-01-22T10:39:10Z</time>
      </trkpt>
      <trkpt lat="44.90692" lon="6.57297">
        <ele>2294.8</ele>
        <time>2011-01-22T10:39:16Z</time>
      </trkpt>
      <trkpt lat="44.90671" lon="6.57304">
        <ele>2302.6</ele>
        <time>2011-01-22T10:39:22Z</time>
      </trkpt>
      <trkpt lat="44.9065" lon="6.57311">
        <ele>2310.8</ele>
        <time>2011-01-22T10:39:28Z</time>
      </trkpt>
      <trkpt lat="44.9063" lon="6.57319">
        <ele>2318.8</ele>
        <time>2011-01-22T10:39:34Z</time>
      </trkpt>
      <trkpt lat="44.90619" lon="6.57322">
        <ele>2322.8</ele>
        <time>2011-01-22T10:39:37Z</time>
      </trkpt>
      <trkpt lat="44.90609" lon="6.57326">
        <ele>2326.8</ele>
        <time>2011-01-22T10:39:40Z</time>
      </trkpt>
      <trkpt lat="44.90588" lon="6.57333">
        <ele>2334.8</ele>
        <time>2011-01-22T10:39:46Z</time>
      </trkpt>
      <trkpt lat="44.90571" lon="6.57339">
        <ele>2341.4</ele>
        <time>2011-01-22T10:39:51Z</time>
      </trkpt>
      <trkpt lat="44.90568" lon="6.5734">
        <ele>2342.8</ele>
        <time>2011-01-22T10:39:52Z</time>
      </trkpt>
      <trkpt lat="44.90547" lon="6.57347">
        <ele>2350.8</ele>
        <time>2011-01-22T10:39:58Z</time>
      </trkpt>
      <trkpt lat="44.90529" lon="6.57353">
        <ele>2357.4</ele>
        <time>2011-01-22T10:40:03Z</time>
      </trkpt>
      <trkpt lat="44.90511" lon="6.5736">
        <ele>2363.8</ele>
        <time>2011-01-22T10:40:08Z</time>
      </trkpt>
      <trkpt lat="44.90493" lon="6.57366">
        <ele>2370</ele>
        <time>2011-01-22T10:40:13Z</time>
      </trkpt>
      <trkpt lat="44.9049" lon="6.57367">
        <ele>2371.2</ele>
        <time>2011-01-22T10:40:14Z</time>
      </trkpt>
      <trkpt lat="44.90476" lon="6.57372">
        <ele>2376</ele>
        <time>2011-01-22T10:40:18Z</time>
      </trkpt>
      <trkpt lat="44.90456" lon="6.57378">
        <ele>2381.8</ele>
        <time>2011-01-22T10:40:23Z</time>
      </trkpt>
      <trkpt lat="44.90437" lon="6.57384">
        <ele>2387.2</ele>
        <time>2011-01-22T10:40:28Z</time>
      </trkpt>
      <trkpt lat="44.90422" lon="6.57389">
        <ele>2391</ele>
        <time>2011-01-22T10:40:32Z</time>
      </trkpt>
      <trkpt lat="44.90419" lon="6.5739">
        <ele>2392</ele>
        <time>2011-01-22T10:40:33Z</time>
      </trkpt>
      <trkpt lat="44.90401" lon="6.57396">
        <ele>2396.4</ele>
        <time>2011-01-22T10:40:38Z</time>
      </trkpt>
      <trkpt lat="44.904" lon="6.57396">
        <ele>2397.2</ele>
        <time>2011-01-22T10:40:39Z</time>
      </trkpt>
      <trkpt lat="44.90397" lon="6.57398">
        <ele>2399.4</ele>
        <time>2011-01-22T10:40:42Z</time>
      </trkpt>
      <trkpt lat="44.90389" lon="6.57405">
        <ele>2401.2</ele>
        <time>2011-01-22T10:40:45Z</time>
      </trkpt>
      <trkpt lat="44.90384" lon="6.57411">
        <ele>2403</ele>
        <time>2011-01-22T10:40:48Z</time>
      </trkpt>
      <trkpt lat="44.90385" lon="6.57412">
        <ele>2405.4</ele>
        <time>2011-01-22T10:40:53Z</time>
      </trkpt>
      <trkpt lat="44.90384" lon="6.57417">
        <ele>2407.8</ele>
        <time>2011-01-22T10:40:59Z</time>
      </trkpt>
      <trkpt lat="44.90383" lon="6.5742">
        <ele>2408.6</ele>
        <time>2011-01-22T10:41:01Z</time>
      </trkpt>
      <trkpt lat="44.90382" lon="6.57426">
        <ele>2409.2</ele>
        <time>2011-01-22T10:41:04Z</time>
      </trkpt>
      <trkpt lat="44.90382" lon="6.57428">
        <ele>2409.8</ele>
        <time>2011-01-22T10:41:06Z</time>
      </trkpt>
      <trkpt lat="44.90381" lon="6.57429">
        <ele>2410.2</ele>
        <time>2011-01-22T10:41:07Z</time>
      </trkpt>
      <trkpt lat="44.90381" lon="6.5743">
        <ele>2410.6</ele>
        <time>2011-01-22T10:41:09Z</time>
      </trkpt>
      <trkpt lat="44.9038" lon="6.57432">
        <ele>2412.2</ele>
        <time>2011-01-22T10:41:16Z</time>
      </trkpt>
      <trkpt lat="44.90379" lon="6.57433">
        <ele>2416</ele>
        <time>2011-01-22T10:41:38Z</time>
      </trkpt>
      <trkpt lat="44.90377" lon="6.57437">
        <ele>2420</ele>
        <time>2011-01-22T10:42:33Z</time>
      </trkpt>
      <trkpt lat="44.90379" lon="6.5744">
        <ele>2420.2</ele>
        <time>2011-01-22T10:42:39Z</time>
      </trkpt>
      <trkpt lat="44.90379" lon="6.57448">
        <ele>2420.8</ele>
        <time>2011-01-22T10:43:10Z</time>
      </trkpt>
      <trkpt lat="44.90376" lon="6.57455">
        <ele>2420.6</ele>
        <time>2011-01-22T10:43:12Z</time>
      </trkpt>
      <trkpt lat="44.9037" lon="6.57464">
        <ele>2420.6</ele>
        <time>2011-01-22T10:43:14Z</time>
      </trkpt>
      <trkpt lat="44.9036" lon="6.57475">
        <ele>2420.6</ele>
        <time>2011-01-22T10:43:17Z</time>
      </trkpt>
      <trkpt lat="44.90349" lon="6.57487">
        <ele>2420.4</ele>
        <time>2011-01-22T10:43:20Z</time>
      </trkpt>
      <trkpt lat="44.90345" lon="6.57492">
        <ele>2420.2</ele>
        <time>2011-01-22T10:43:21Z</time>
      </trkpt>
      <trkpt lat="44.90333" lon="6.57506">
        <ele>2420</ele>
        <time>2011-01-22T10:43:23Z</time>
      </trkpt>
      <trkpt lat="44.90327" lon="6.57516">
        <ele>2420</ele>
        <time>2011-01-22T10:43:24Z</time>
      </trkpt>
      <trkpt lat="44.90312" lon="6.5754">
        <ele>2419.4</ele>
        <time>2011-01-22T10:43:26Z</time>
      </trkpt>
      <trkpt lat="44.90297" lon="6.57571">
        <ele>2419</ele>
        <time>2011-01-22T10:43:28Z</time>
      </trkpt>
      <trkpt lat="44.90289" lon="6.57587">
        <ele>2418.6</ele>
        <time>2011-01-22T10:43:29Z</time>
      </trkpt>
      <trkpt lat="44.9028" lon="6.57604">
        <ele>2418.4</ele>
        <time>2011-01-22T10:43:30Z</time>
      </trkpt>
      <trkpt lat="44.90261" lon="6.57639">
        <ele>2417.6</ele>
        <time>2011-01-22T10:43:32Z</time>
      </trkpt>
      <trkpt lat="44.9025" lon="6.57656">
        <ele>2417.2</ele>
        <time>2011-01-22T10:43:33Z</time>
      </trkpt>
      <trkpt lat="44.90239" lon="6.57673">
        <ele>2416.8</ele>
        <time>2011-01-22T10:43:34Z</time>
      </trkpt>
      <trkpt lat="44.90229" lon="6.5769">
        <ele>2416.4</ele>
        <time>2011-01-22T10:43:35Z</time>
      </trkpt>
      <trkpt lat="44.90221" lon="6.57708">
        <ele>2416</ele>
        <time>2011-01-22T10:43:36Z</time>
      </trkpt>
      <trkpt lat="44.90205" lon="6.5774">
        <ele>2415.2</ele>
        <time>2011-01-22T10:43:38Z</time>
      </trkpt>
      <trkpt lat="44.90197" lon="6.57754">
        <ele>2414.6</ele>
        <time>2011-01-22T10:43:39Z</time>
      </trkpt>
      <trkpt lat="44.90189" lon="6.57767">
        <ele>2414.2</ele>
        <time>2011-01-22T10:43:40Z</time>
      </trkpt>
      <trkpt lat="44.90175" lon="6.57794">
        <ele>2413.4</ele>
        <time>2011-01-22T10:43:42Z</time>
      </trkpt>
      <trkpt lat="44.90162" lon="6.57819">
        <ele>2412.4</ele>
        <time>2011-01-22T10:43:44Z</time>
      </trkpt>
      <trkpt lat="44.90146" lon="6.57843">
        <ele>2411.4</ele>
        <time>2011-01-22T10:43:46Z</time>
      </trkpt>
      <trkpt lat="44.90136" lon="6.57854">
        <ele>2410.8</ele>
        <time>2011-01-22T10:43:47Z</time>
      </trkpt>
      <trkpt lat="44.90126" lon="6.57867">
        <ele>2410.2</ele>
        <time>2011-01-22T10:43:48Z</time>
      </trkpt>
      <trkpt lat="44.90107" lon="6.57896">
        <ele>2408.8</ele>
        <time>2011-01-22T10:43:50Z</time>
      </trkpt>
      <trkpt lat="44.90097" lon="6.57913">
        <ele>2408.2</ele>
        <time>2011-01-22T10:43:51Z</time>
      </trkpt>
      <trkpt lat="44.90085" lon="6.57928">
        <ele>2407.4</ele>
        <time>2011-01-22T10:43:52Z</time>
      </trkpt>
      <trkpt lat="44.90061" lon="6.57959">
        <ele>2406</ele>
        <time>2011-01-22T10:43:54Z</time>
      </trkpt>
      <trkpt lat="44.90032" lon="6.57984">
        <ele>2404.4</ele>
        <time>2011-01-22T10:43:56Z</time>
      </trkpt>
      <trkpt lat="44.90017" lon="6.57995">
        <ele>2403.6</ele>
        <time>2011-01-22T10:43:57Z</time>
      </trkpt>
      <trkpt lat="44.90001" lon="6.58003">
        <ele>2402.6</ele>
        <time>2011-01-22T10:43:58Z</time>
      </trkpt>
      <trkpt lat="44.8997" lon="6.58018">
        <ele>2401</ele>
        <time>2011-01-22T10:44:00Z</time>
      </trkpt>
      <trkpt lat="44.89956" lon="6.58029">
        <ele>2400</ele>
        <time>2011-01-22T10:44:01Z</time>
      </trkpt>
      <trkpt lat="44.89944" lon="6.58041">
        <ele>2399.2</ele>
        <time>2011-01-22T10:44:02Z</time>
      </trkpt>
      <trkpt lat="44.89933" lon="6.58052">
        <ele>2398.2</ele>
        <time>2011-01-22T10:44:03Z</time>
      </trkpt>
      <trkpt lat="44.89922" lon="6.58061">
        <ele>2397.4</ele>
        <time>2011-01-22T10:44:04Z</time>
      </trkpt>
      <trkpt lat="44.89912" lon="6.58071">
        <ele>2396.4</ele>
        <time>2011-01-22T10:44:05Z</time>
      </trkpt>
      <trkpt lat="44.89901" lon="6.58081">
        <ele>2395.4</ele>
        <time>2011-01-22T10:44:06Z</time>
      </trkpt>
      <trkpt lat="44.89881" lon="6.58101">
        <ele>2393.4</ele>
        <time>2011-01-22T10:44:08Z</time>
      </trkpt>
      <trkpt lat="44.89875" lon="6.58115">
        <ele>2392.4</ele>
        <time>2011-01-22T10:44:09Z</time>
      </trkpt>
      <trkpt lat="44.89871" lon="6.58131">
        <ele>2391.4</ele>
        <time>2011-01-22T10:44:10Z</time>
      </trkpt>
      <trkpt lat="44.89866" lon="6.58142">
        <ele>2390.4</ele>
        <time>2011-01-22T10:44:11Z</time>
      </trkpt>
      <trkpt lat="44.89855" lon="6.5815">
        <ele>2388.2</ele>
        <time>2011-01-22T10:44:13Z</time>
      </trkpt>
      <trkpt lat="44.89854" lon="6.58148">
        <ele>2386.2</ele>
        <time>2011-01-22T10:44:15Z</time>
      </trkpt>
      <trkpt lat="44.89854" lon="6.58148">
        <ele>2385.2</ele>
        <time>2011-01-22T10:44:16Z</time>
      </trkpt>
      <trkpt lat="44.89856" lon="6.58147">
        <ele>2379</ele>
        <time>2011-01-22T10:44:23Z</time>
      </trkpt>
      <trkpt lat="44.89857" lon="6.58151">
        <ele>2364.2</ele>
        <time>2011-01-22T10:44:41Z</time>
      </trkpt>
      <trkpt lat="44.89857" lon="6.58154">
        <ele>2357.8</ele>
        <time>2011-01-22T10:44:50Z</time>
      </trkpt>
      <trkpt lat="44.89858" lon="6.58164">
        <ele>2334</ele>
        <time>2011-01-22T10:45:29Z</time>
      </trkpt>
      <trkpt lat="44.8986" lon="6.58174">
        <ele>2333</ele>
        <time>2011-01-22T10:45:31Z</time>
      </trkpt>
      <trkpt lat="44.89861" lon="6.58179">
        <ele>2332.4</ele>
        <time>2011-01-22T10:45:32Z</time>
      </trkpt>
      <trkpt lat="44.89866" lon="6.58201">
        <ele>2330</ele>
        <time>2011-01-22T10:45:37Z</time>
      </trkpt>
      <trkpt lat="44.89868" lon="6.58214">
        <ele>2328.6</ele>
        <time>2011-01-22T10:45:40Z</time>
      </trkpt>
      <trkpt lat="44.89871" lon="6.58226">
        <ele>2327.4</ele>
        <time>2011-01-22T10:45:43Z</time>
      </trkpt>
      <trkpt lat="44.89874" lon="6.58242">
        <ele>2325.8</ele>
        <time>2011-01-22T10:45:47Z</time>
      </trkpt>
      <trkpt lat="44.89876" lon="6.5825">
        <ele>2325.2</ele>
        <time>2011-01-22T10:45:49Z</time>
      </trkpt>
      <trkpt lat="44.89882" lon="6.58276">
        <ele>2323.4</ele>
        <time>2011-01-22T10:45:55Z</time>
      </trkpt>
      <trkpt lat="44.89882" lon="6.58279">
        <ele>2323.2</ele>
        <time>2011-01-22T10:45:56Z</time>
      </trkpt>
      <trkpt lat="44.89887" lon="6.58301">
        <ele>2322</ele>
        <time>2011-01-22T10:46:01Z</time>
      </trkpt>
      <trkpt lat="44.8989" lon="6.58313">
        <ele>2321.4</ele>
        <time>2011-01-22T10:46:04Z</time>
      </trkpt>
      <trkpt lat="44.89893" lon="6.58326">
        <ele>2321</ele>
        <time>2011-01-22T10:46:07Z</time>
      </trkpt>
      <trkpt lat="44.89899" lon="6.58353">
        <ele>2320</ele>
        <time>2011-01-22T10:46:13Z</time>
      </trkpt>
      <trkpt lat="44.89901" lon="6.58361">
        <ele>2319.8</ele>
        <time>2011-01-22T10:46:15Z</time>
      </trkpt>
      <trkpt lat="44.89905" lon="6.58378">
        <ele>2319.4</ele>
        <time>2011-01-22T10:46:19Z</time>
      </trkpt>
      <trkpt lat="44.89907" lon="6.5839">
        <ele>2319.2</ele>
        <time>2011-01-22T10:46:22Z</time>
      </trkpt>
      <trkpt lat="44.8991" lon="6.58403">
        <ele>2319</ele>
        <time>2011-01-22T10:46:25Z</time>
      </trkpt>
      <trkpt lat="44.89915" lon="6.58424">
        <ele>2319</ele>
        <time>2011-01-22T10:46:30Z</time>
      </trkpt>
      <trkpt lat="44.89916" lon="6.58428">
        <ele>2319</ele>
        <time>2011-01-22T10:46:31Z</time>
      </trkpt>
      <trkpt lat="44.89922" lon="6.58457">
        <ele>2318.8</ele>
        <time>2011-01-22T10:46:37Z</time>
      </trkpt>
      <trkpt lat="44.89928" lon="6.58482">
        <ele>2318.8</ele>
        <time>2011-01-22T10:46:43Z</time>
      </trkpt>
      <trkpt lat="44.89934" lon="6.58506">
        <ele>2319.2</ele>
        <time>2011-01-22T10:46:49Z</time>
      </trkpt>
      <trkpt lat="44.89936" lon="6.58518">
        <ele>2319.8</ele>
        <time>2011-01-22T10:46:52Z</time>
      </trkpt>
      <trkpt lat="44.89939" lon="6.58531">
        <ele>2320.4</ele>
        <time>2011-01-22T10:46:55Z</time>
      </trkpt>
      <trkpt lat="44.89945" lon="6.58556">
        <ele>2322.2</ele>
        <time>2011-01-22T10:47:01Z</time>
      </trkpt>
      <trkpt lat="44.89946" lon="6.58564">
        <ele>2323</ele>
        <time>2011-01-22T10:47:03Z</time>
      </trkpt>
      <trkpt lat="44.8995" lon="6.58581">
        <ele>2324.4</ele>
        <time>2011-01-22T10:47:07Z</time>
      </trkpt>
      <trkpt lat="44.89956" lon="6.58604">
        <ele>2326.4</ele>
        <time>2011-01-22T10:47:12Z</time>
      </trkpt>
      <trkpt lat="44.89956" lon="6.58608">
        <ele>2326.8</ele>
        <time>2011-01-22T10:47:13Z</time>
      </trkpt>
      <trkpt lat="44.89962" lon="6.58634">
        <ele>2329.8</ele>
        <time>2011-01-22T10:47:20Z</time>
      </trkpt>
      <trkpt lat="44.89967" lon="6.58658">
        <ele>2332.8</ele>
        <time>2011-01-22T10:47:26Z</time>
      </trkpt>
      <trkpt lat="44.89973" lon="6.58684">
        <ele>2336</ele>
        <time>2011-01-22T10:47:32Z</time>
      </trkpt>
      <trkpt lat="44.89978" lon="6.58705">
        <ele>2338.6</ele>
        <time>2011-01-22T10:47:37Z</time>
      </trkpt>
      <trkpt lat="44.8998" lon="6.58708">
        <ele>2339</ele>
        <time>2011-01-22T10:47:38Z</time>
      </trkpt>
      <trkpt lat="44.89983" lon="6.58711">
        <ele>2339.4</ele>
        <time>2011-01-22T10:47:39Z</time>
      </trkpt>
      <trkpt lat="44.89988" lon="6.58711">
        <ele>2340</ele>
        <time>2011-01-22T10:47:40Z</time>
      </trkpt>
      <trkpt lat="44.90001" lon="6.58711">
        <ele>2341.2</ele>
        <time>2011-01-22T10:47:43Z</time>
      </trkpt>
      <trkpt lat="44.90005" lon="6.58711">
        <ele>2341.6</ele>
        <time>2011-01-22T10:47:44Z</time>
      </trkpt>
      <trkpt lat="44.9002" lon="6.58714">
        <ele>2343.4</ele>
        <time>2011-01-22T10:47:48Z</time>
      </trkpt>
      <trkpt lat="44.90029" lon="6.5872">
        <ele>2344.4</ele>
        <time>2011-01-22T10:47:51Z</time>
      </trkpt>
      <trkpt lat="44.90036" lon="6.5873">
        <ele>2345.4</ele>
        <time>2011-01-22T10:47:54Z</time>
      </trkpt>
      <trkpt lat="44.90038" lon="6.58749">
        <ele>2346.4</ele>
        <time>2011-01-22T10:47:58Z</time>
      </trkpt>
      <trkpt lat="44.90039" lon="6.58755">
        <ele>2346.6</ele>
        <time>2011-01-22T10:47:59Z</time>
      </trkpt>
      <trkpt lat="44.90036" lon="6.58773">
        <ele>2347.2</ele>
        <time>2011-01-22T10:48:02Z</time>
      </trkpt>
      <trkpt lat="44.90036" lon="6.58784">
        <ele>2347.4</ele>
        <time>2011-01-22T10:48:04Z</time>
      </trkpt>
      <trkpt lat="44.90036" lon="6.588">
        <ele>2347.8</ele>
        <time>2011-01-22T10:48:07Z</time>
      </trkpt>
      <trkpt lat="44.90036" lon="6.58812">
        <ele>2347.8</ele>
        <time>2011-01-22T10:48:09Z</time>
      </trkpt>
      <trkpt lat="44.90038" lon="6.58823">
        <ele>2347.8</ele>
        <time>2011-01-22T10:48:11Z</time>
      </trkpt>
      <trkpt lat="44.90038" lon="6.58822">
        <ele>2348</ele>
        <time>2011-01-22T10:48:14Z</time>
      </trkpt>
      <trkpt lat="44.90038" lon="6.58823">
        <ele>2350.6</ele>
        <time>2011-01-22T10:48:49Z</time>
      </trkpt>
      <trkpt lat="44.90038" lon="6.58824">
        <ele>2351</ele>
        <time>2011-01-22T10:48:53Z</time>
      </trkpt>
      <trkpt lat="44.90038" lon="6.58819">
        <ele>2356.2</ele>
        <time>2011-01-22T10:50:28Z</time>
      </trkpt>
      <trkpt lat="44.90037" lon="6.58823">
        <ele>2356.4</ele>
        <time>2011-01-22T10:50:36Z</time>
      </trkpt>
      <trkpt lat="44.90037" lon="6.58823">
        <ele>2356.6</ele>
        <time>2011-01-22T10:50:41Z</time>
      </trkpt>
      <trkpt lat="44.90039" lon="6.58823">
        <ele>2356.8</ele>
        <time>2011-01-22T10:50:55Z</time>
      </trkpt>
      <trkpt lat="44.90039" lon="6.58823">
        <ele>2356.4</ele>
        <time>2011-01-22T10:51:20Z</time>
      </trkpt>
      <trkpt lat="44.90038" lon="6.58832">
        <ele>2356</ele>
        <time>2011-01-22T10:51:36Z</time>
      </trkpt>
      <trkpt lat="44.90037" lon="6.58842">
        <ele>2355.8</ele>
        <time>2011-01-22T10:51:38Z</time>
      </trkpt>
      <trkpt lat="44.90038" lon="6.58856">
        <ele>2355.8</ele>
        <time>2011-01-22T10:51:40Z</time>
      </trkpt>
      <trkpt lat="44.90043" lon="6.58869">
        <ele>2355.6</ele>
        <time>2011-01-22T10:51:42Z</time>
      </trkpt>
      <trkpt lat="44.90044" lon="6.58876">
        <ele>2355.4</ele>
        <time>2011-01-22T10:51:43Z</time>
      </trkpt>
      <trkpt lat="44.90046" lon="6.58894">
        <ele>2355.2</ele>
        <time>2011-01-22T10:51:45Z</time>
      </trkpt>
      <trkpt lat="44.90047" lon="6.58906">
        <ele>2355</ele>
        <time>2011-01-22T10:51:46Z</time>
      </trkpt>
      <trkpt lat="44.90049" lon="6.5892">
        <ele>2354.8</ele>
        <time>2011-01-22T10:51:47Z</time>
      </trkpt>
      <trkpt lat="44.9005" lon="6.58935">
        <ele>2354.4</ele>
        <time>2011-01-22T10:51:48Z</time>
      </trkpt>
      <trkpt lat="44.90054" lon="6.58949">
        <ele>2354.2</ele>
        <time>2011-01-22T10:51:49Z</time>
      </trkpt>
      <trkpt lat="44.90058" lon="6.58983">
        <ele>2353.6</ele>
        <time>2011-01-22T10:51:51Z</time>
      </trkpt>
      <trkpt lat="44.90059" lon="6.58999">
        <ele>2353.4</ele>
        <time>2011-01-22T10:51:52Z</time>
      </trkpt>
      <trkpt lat="44.90059" lon="6.59014">
        <ele>2353</ele>
        <time>2011-01-22T10:51:53Z</time>
      </trkpt>
      <trkpt lat="44.90062" lon="6.59042">
        <ele>2352.2</ele>
        <time>2011-01-22T10:51:55Z</time>
      </trkpt>
      <trkpt lat="44.90061" lon="6.59056">
        <ele>2351.8</ele>
        <time>2011-01-22T10:51:56Z</time>
      </trkpt>
      <trkpt lat="44.90059" lon="6.59069">
        <ele>2351.4</ele>
        <time>2011-01-22T10:51:57Z</time>
      </trkpt>
      <trkpt lat="44.90056" lon="6.59099">
        <ele>2350.2</ele>
        <time>2011-01-22T10:51:59Z</time>
      </trkpt>
      <trkpt lat="44.90049" lon="6.59125">
        <ele>2349.2</ele>
        <time>2011-01-22T10:52:01Z</time>
      </trkpt>
      <trkpt lat="44.90052" lon="6.59158">
        <ele>2347.4</ele>
        <time>2011-01-22T10:52:04Z</time>
      </trkpt>
      <trkpt lat="44.90051" lon="6.59162">
        <ele>2346.6</ele>
        <time>2011-01-22T10:52:05Z</time>
      </trkpt>
      <trkpt lat="44.90051" lon="6.59167">
        <ele>2346</ele>
        <time>2011-01-22T10:52:06Z</time>
      </trkpt>
      <trkpt lat="44.90054" lon="6.59169">
        <ele>2345.4</ele>
        <time>2011-01-22T10:52:07Z</time>
      </trkpt>
      <trkpt lat="44.90058" lon="6.5918">
        <ele>2344</ele>
        <time>2011-01-22T10:52:09Z</time>
      </trkpt>
      <trkpt lat="44.90055" lon="6.59184">
        <ele>2343.2</ele>
        <time>2011-01-22T10:52:10Z</time>
      </trkpt>
      <trkpt lat="44.90055" lon="6.59195">
        <ele>2341</ele>
        <time>2011-01-22T10:52:13Z</time>
      </trkpt>
      <trkpt lat="44.90053" lon="6.59204">
        <ele>2339.4</ele>
        <time>2011-01-22T10:52:15Z</time>
      </trkpt>
      <trkpt lat="44.9005" lon="6.59206">
        <ele>2338.8</ele>
        <time>2011-01-22T10:52:16Z</time>
      </trkpt>
      <trkpt lat="44.90046" lon="6.59208">
        <ele>2338</ele>
        <time>2011-01-22T10:52:17Z</time>
      </trkpt>
      <trkpt lat="44.90038" lon="6.59218">
        <ele>2335.6</ele>
        <time>2011-01-22T10:52:20Z</time>
      </trkpt>
      <trkpt lat="44.90042" lon="6.59233">
        <ele>2333</ele>
        <time>2011-01-22T10:52:23Z</time>
      </trkpt>
      <trkpt lat="44.90046" lon="6.5924">
        <ele>2332</ele>
        <time>2011-01-22T10:52:24Z</time>
      </trkpt>
      <trkpt lat="44.90046" lon="6.59246">
        <ele>2331.2</ele>
        <time>2011-01-22T10:52:25Z</time>
      </trkpt>
      <trkpt lat="44.90046" lon="6.5926">
        <ele>2328.4</ele>
        <time>2011-01-22T10:52:28Z</time>
      </trkpt>
      <trkpt lat="44.9005" lon="6.59262">
        <ele>2327.4</ele>
        <time>2011-01-22T10:52:29Z</time>
      </trkpt>
      <trkpt lat="44.90053" lon="6.59264">
        <ele>2326.6</ele>
        <time>2011-01-22T10:52:30Z</time>
      </trkpt>
      <trkpt lat="44.90056" lon="6.59268">
        <ele>2325.6</ele>
        <time>2011-01-22T10:52:31Z</time>
      </trkpt>
      <trkpt lat="44.90058" lon="6.59275">
        <ele>2323</ele>
        <time>2011-01-22T10:52:34Z</time>
      </trkpt>
      <trkpt lat="44.90057" lon="6.59273">
        <ele>2313.6</ele>
        <time>2011-01-22T10:52:45Z</time>
      </trkpt>
      <trkpt lat="44.90057" lon="6.59275">
        <ele>2301.8</ele>
        <time>2011-01-22T10:53:01Z</time>
      </trkpt>
      <trkpt lat="44.9006" lon="6.59281">
        <ele>2300.4</ele>
        <time>2011-01-22T10:53:03Z</time>
      </trkpt>
      <trkpt lat="44.9006" lon="6.59285">
        <ele>2299</ele>
        <time>2011-01-22T10:53:05Z</time>
      </trkpt>
      <trkpt lat="44.9006" lon="6.59285">
        <ele>2298.4</ele>
        <time>2011-01-22T10:53:06Z</time>
      </trkpt>
      <trkpt lat="44.90058" lon="6.59286">
        <ele>2292.6</ele>
        <time>2011-01-22T10:53:15Z</time>
      </trkpt>
      <trkpt lat="44.90058" lon="6.59287">
        <ele>2287.8</ele>
        <time>2011-01-22T10:53:23Z</time>
      </trkpt>
      <trkpt lat="44.90055" lon="6.59302">
        <ele>2286.6</ele>
        <time>2011-01-22T10:53:25Z</time>
      </trkpt>
      <trkpt lat="44.90052" lon="6.59315">
        <ele>2286</ele>
        <time>2011-01-22T10:53:26Z</time>
      </trkpt>
      <trkpt lat="44.90051" lon="6.5933">
        <ele>2285.2</ele>
        <time>2011-01-22T10:53:27Z</time>
      </trkpt>
      <trkpt lat="44.90047" lon="6.59347">
        <ele>2284.6</ele>
        <time>2011-01-22T10:53:28Z</time>
      </trkpt>
      <trkpt lat="44.90036" lon="6.59382">
        <ele>2283.2</ele>
        <time>2011-01-22T10:53:30Z</time>
      </trkpt>
      <trkpt lat="44.90024" lon="6.59418">
        <ele>2281.8</ele>
        <time>2011-01-22T10:53:32Z</time>
      </trkpt>
      <trkpt lat="44.90011" lon="6.59449">
        <ele>2280.4</ele>
        <time>2011-01-22T10:53:34Z</time>
      </trkpt>
      <trkpt lat="44.9" lon="6.59478">
        <ele>2278.8</ele>
        <time>2011-01-22T10:53:36Z</time>
      </trkpt>
      <trkpt lat="44.89995" lon="6.59492">
        <ele>2278</ele>
        <time>2011-01-22T10:53:37Z</time>
      </trkpt>
      <trkpt lat="44.89992" lon="6.59507">
        <ele>2277.4</ele>
        <time>2011-01-22T10:53:38Z</time>
      </trkpt>
      <trkpt lat="44.89985" lon="6.59535">
        <ele>2275.8</ele>
        <time>2011-01-22T10:53:40Z</time>
      </trkpt>
      <trkpt lat="44.89981" lon="6.59548">
        <ele>2275</ele>
        <time>2011-01-22T10:53:41Z</time>
      </trkpt>
      <trkpt lat="44.89972" lon="6.59563">
        <ele>2273.2</ele>
        <time>2011-01-22T10:53:43Z</time>
      </trkpt>
      <trkpt lat="44.89968" lon="6.59568">
        <ele>2272.4</ele>
        <time>2011-01-22T10:53:44Z</time>
      </trkpt>
      <trkpt lat="44.89956" lon="6.59576">
        <ele>2269.8</ele>
        <time>2011-01-22T10:53:47Z</time>
      </trkpt>
      <trkpt lat="44.89954" lon="6.59577">
        <ele>2267.2</ele>
        <time>2011-01-22T10:53:50Z</time>
      </trkpt>
      <trkpt lat="44.89955" lon="6.5959">
        <ele>2252.6</ele>
        <time>2011-01-22T10:54:09Z</time>
      </trkpt>
      <trkpt lat="44.89949" lon="6.59601">
        <ele>2251</ele>
        <time>2011-01-22T10:54:11Z</time>
      </trkpt>
      <trkpt lat="44.89944" lon="6.59609">
        <ele>2250.2</ele>
        <time>2011-01-22T10:54:12Z</time>
      </trkpt>
      <trkpt lat="44.89929" lon="6.59618">
        <ele>2248.6</ele>
        <time>2011-01-22T10:54:14Z</time>
      </trkpt>
      <trkpt lat="44.89906" lon="6.59616">
        <ele>2246</ele>
        <time>2011-01-22T10:54:17Z</time>
      </trkpt>
      <trkpt lat="44.8988" lon="6.59614">
        <ele>2243.4</ele>
        <time>2011-01-22T10:54:20Z</time>
      </trkpt>
      <trkpt lat="44.89856" lon="6.59606">
        <ele>2240.6</ele>
        <time>2011-01-22T10:54:23Z</time>
      </trkpt>
      <trkpt lat="44.89848" lon="6.59608">
        <ele>2239.8</ele>
        <time>2011-01-22T10:54:24Z</time>
      </trkpt>
      <trkpt lat="44.8984" lon="6.59609">
        <ele>2238.8</ele>
        <time>2011-01-22T10:54:25Z</time>
      </trkpt>
      <trkpt lat="44.89831" lon="6.5961">
        <ele>2238</ele>
        <time>2011-01-22T10:54:26Z</time>
      </trkpt>
      <trkpt lat="44.8981" lon="6.59613">
        <ele>2235.2</ele>
        <time>2011-01-22T10:54:29Z</time>
      </trkpt>
      <trkpt lat="44.89805" lon="6.59611">
        <ele>2234.2</ele>
        <time>2011-01-22T10:54:30Z</time>
      </trkpt>
      <trkpt lat="44.89799" lon="6.59611">
        <ele>2233.2</ele>
        <time>2011-01-22T10:54:31Z</time>
      </trkpt>
      <trkpt lat="44.89793" lon="6.59615">
        <ele>2232.4</ele>
        <time>2011-01-22T10:54:32Z</time>
      </trkpt>
      <trkpt lat="44.89788" lon="6.59623">
        <ele>2231.4</ele>
        <time>2011-01-22T10:54:33Z</time>
      </trkpt>
      <trkpt lat="44.89779" lon="6.59641">
        <ele>2229.4</ele>
        <time>2011-01-22T10:54:35Z</time>
      </trkpt>
      <trkpt lat="44.89779" lon="6.59653">
        <ele>2228.4</ele>
        <time>2011-01-22T10:54:36Z</time>
      </trkpt>
      <trkpt lat="44.89776" lon="6.59678">
        <ele>2226.4</ele>
        <time>2011-01-22T10:54:38Z</time>
      </trkpt>
      <trkpt lat="44.89777" lon="6.59692">
        <ele>2225.4</ele>
        <time>2011-01-22T10:54:39Z</time>
      </trkpt>
      <trkpt lat="44.89782" lon="6.59707">
        <ele>2224.2</ele>
        <time>2011-01-22T10:54:40Z</time>
      </trkpt>
      <trkpt lat="44.89786" lon="6.59724">
        <ele>2223.2</ele>
        <time>2011-01-22T10:54:41Z</time>
      </trkpt>
      <trkpt lat="44.89787" lon="6.59757">
        <ele>2220.8</ele>
        <time>2011-01-22T10:54:43Z</time>
      </trkpt>
      <trkpt lat="44.89786" lon="6.59777">
        <ele>2219.4</ele>
        <time>2011-01-22T10:54:44Z</time>
      </trkpt>
      <trkpt lat="44.89784" lon="6.59796">
        <ele>2218.2</ele>
        <time>2011-01-22T10:54:45Z</time>
      </trkpt>
      <trkpt lat="44.89782" lon="6.59817">
        <ele>2216.8</ele>
        <time>2011-01-22T10:54:46Z</time>
      </trkpt>
      <trkpt lat="44.89782" lon="6.59839">
        <ele>2215.4</ele>
        <time>2011-01-22T10:54:47Z</time>
      </trkpt>
      <trkpt lat="44.89782" lon="6.59865">
        <ele>2214</ele>
        <time>2011-01-22T10:54:48Z</time>
      </trkpt>
      <trkpt lat="44.89781" lon="6.59891">
        <ele>2212.4</ele>
        <time>2011-01-22T10:54:49Z</time>
      </trkpt>
      <trkpt lat="44.89779" lon="6.59916">
        <ele>2210.8</ele>
        <time>2011-01-22T10:54:50Z</time>
      </trkpt>
      <trkpt lat="44.89779" lon="6.59942">
        <ele>2209.2</ele>
        <time>2011-01-22T10:54:51Z</time>
      </trkpt>
      <trkpt lat="44.89783" lon="6.59965">
        <ele>2207.6</ele>
        <time>2011-01-22T10:54:52Z</time>
      </trkpt>
      <trkpt lat="44.89786" lon="6.59986">
        <ele>2206</ele>
        <time>2011-01-22T10:54:53Z</time>
      </trkpt>
      <trkpt lat="44.89788" lon="6.60018">
        <ele>2202.8</ele>
        <time>2011-01-22T10:54:55Z</time>
      </trkpt>
      <trkpt lat="44.89791" lon="6.60037">
        <ele>2199.4</ele>
        <time>2011-01-22T10:54:57Z</time>
      </trkpt>
      <trkpt lat="44.8979" lon="6.6004">
        <ele>2197.6</ele>
        <time>2011-01-22T10:54:58Z</time>
      </trkpt>
      <trkpt lat="44.89789" lon="6.60042">
        <ele>2194.4</ele>
        <time>2011-01-22T10:55:00Z</time>
      </trkpt>
      <trkpt lat="44.89789" lon="6.60045">
        <ele>2192.8</ele>
        <time>2011-01-22T10:55:01Z</time>
      </trkpt>
      <trkpt lat="44.89788" lon="6.6006">
        <ele>2187.8</ele>
        <time>2011-01-22T10:55:04Z</time>
      </trkpt>
      <trkpt lat="44.89787" lon="6.60079">
        <ele>2184.6</ele>
        <time>2011-01-22T10:55:06Z</time>
      </trkpt>
      <trkpt lat="44.8979" lon="6.6009">
        <ele>2182.8</ele>
        <time>2011-01-22T10:55:07Z</time>
      </trkpt>
      <trkpt lat="44.89794" lon="6.60099">
        <ele>2181.2</ele>
        <time>2011-01-22T10:55:08Z</time>
      </trkpt>
      <trkpt lat="44.89795" lon="6.60111">
        <ele>2179.6</ele>
        <time>2011-01-22T10:55:09Z</time>
      </trkpt>
      <trkpt lat="44.89795" lon="6.60118">
        <ele>2178</ele>
        <time>2011-01-22T10:55:10Z</time>
      </trkpt>
      <trkpt lat="44.89793" lon="6.60139">
        <ele>2173</ele>
        <time>2011-01-22T10:55:13Z</time>
      </trkpt>
      <trkpt lat="44.89792" lon="6.60144">
        <ele>2171.4</ele>
        <time>2011-01-22T10:55:14Z</time>
      </trkpt>
      <trkpt lat="44.89793" lon="6.60145">
        <ele>2169.8</ele>
        <time>2011-01-22T10:55:15Z</time>
      </trkpt>
      <trkpt lat="44.89793" lon="6.60145">
        <ele>2168.4</ele>
        <time>2011-01-22T10:55:16Z</time>
      </trkpt>
      <trkpt lat="44.89792" lon="6.60144">
        <ele>2159.4</ele>
        <time>2011-01-22T10:55:22Z</time>
      </trkpt>
      <trkpt lat="44.89791" lon="6.60145">
        <ele>2085.4</ele>
        <time>2011-01-22T10:56:34Z</time>
      </trkpt>
      <trkpt lat="44.89791" lon="6.60149">
        <ele>2084.6</ele>
        <time>2011-01-22T10:56:35Z</time>
      </trkpt>
      <trkpt lat="44.89799" lon="6.60161">
        <ele>2083.2</ele>
        <time>2011-01-22T10:56:37Z</time>
      </trkpt>
      <trkpt lat="44.89807" lon="6.60164">
        <ele>2082.6</ele>
        <time>2011-01-22T10:56:38Z</time>
      </trkpt>
      <trkpt lat="44.89816" lon="6.60166">
        <ele>2081.8</ele>
        <time>2011-01-22T10:56:39Z</time>
      </trkpt>
      <trkpt lat="44.89833" lon="6.6017">
        <ele>2080.4</ele>
        <time>2011-01-22T10:56:41Z</time>
      </trkpt>
      <trkpt lat="44.89841" lon="6.60171">
        <ele>2079.4</ele>
        <time>2011-01-22T10:56:42Z</time>
      </trkpt>
      <trkpt lat="44.89859" lon="6.60166">
        <ele>2077.8</ele>
        <time>2011-01-22T10:56:44Z</time>
      </trkpt>
      <trkpt lat="44.89881" lon="6.60157">
        <ele>2075.4</ele>
        <time>2011-01-22T10:56:47Z</time>
      </trkpt>
      <trkpt lat="44.89891" lon="6.60165">
        <ele>2073.8</ele>
        <time>2011-01-22T10:56:49Z</time>
      </trkpt>
      <trkpt lat="44.89895" lon="6.60176">
        <ele>2073</ele>
        <time>2011-01-22T10:56:50Z</time>
      </trkpt>
      <trkpt lat="44.89894" lon="6.60189">
        <ele>2072</ele>
        <time>2011-01-22T10:56:51Z</time>
      </trkpt>
      <trkpt lat="44.89892" lon="6.60204">
        <ele>2071.2</ele>
        <time>2011-01-22T10:56:52Z</time>
      </trkpt>
      <trkpt lat="44.89887" lon="6.6022">
        <ele>2070.2</ele>
        <time>2011-01-22T10:56:53Z</time>
      </trkpt>
      <trkpt lat="44.89882" lon="6.60235">
        <ele>2069.2</ele>
        <time>2011-01-22T10:56:54Z</time>
      </trkpt>
      <trkpt lat="44.89875" lon="6.60263">
        <ele>2067.4</ele>
        <time>2011-01-22T10:56:56Z</time>
      </trkpt>
      <trkpt lat="44.89871" lon="6.60273">
        <ele>2066.4</ele>
        <time>2011-01-22T10:56:57Z</time>
      </trkpt>
      <trkpt lat="44.89868" lon="6.60278">
        <ele>2065.4</ele>
        <time>2011-01-22T10:56:58Z</time>
      </trkpt>
      <trkpt lat="44.89863" lon="6.60283">
        <ele>2063.6</ele>
        <time>2011-01-22T10:57:00Z</time>
      </trkpt>
      <trkpt lat="44.89861" lon="6.60283">
        <ele>2062.6</ele>
        <time>2011-01-22T10:57:01Z</time>
      </trkpt>
      <trkpt lat="44.89861" lon="6.60294">
        <ele>2059.8</ele>
        <time>2011-01-22T10:57:04Z</time>
      </trkpt>
      <trkpt lat="44.89855" lon="6.60305">
        <ele>2057</ele>
        <time>2011-01-22T10:57:07Z</time>
      </trkpt>
      <trkpt lat="44.89853" lon="6.60309">
        <ele>2056</ele>
        <time>2011-01-22T10:57:08Z</time>
      </trkpt>
      <trkpt lat="44.89851" lon="6.60314">
        <ele>2055.2</ele>
        <time>2011-01-22T10:57:09Z</time>
      </trkpt>
      <trkpt lat="44.89844" lon="6.60327">
        <ele>2053.2</ele>
        <time>2011-01-22T10:57:11Z</time>
      </trkpt>
      <trkpt lat="44.89839" lon="6.60335">
        <ele>2052.4</ele>
        <time>2011-01-22T10:57:12Z</time>
      </trkpt>
      <trkpt lat="44.89829" lon="6.60351">
        <ele>2050.4</ele>
        <time>2011-01-22T10:57:14Z</time>
      </trkpt>
      <trkpt lat="44.89811" lon="6.60373">
        <ele>2047.6</ele>
        <time>2011-01-22T10:57:17Z</time>
      </trkpt>
      <trkpt lat="44.8979" lon="6.60392">
        <ele>2044.8</ele>
        <time>2011-01-22T10:57:20Z</time>
      </trkpt>
      <trkpt lat="44.89775" lon="6.60407">
        <ele>2042.8</ele>
        <time>2011-01-22T10:57:22Z</time>
      </trkpt>
      <trkpt lat="44.89768" lon="6.60415">
        <ele>2041.8</ele>
        <time>2011-01-22T10:57:23Z</time>
      </trkpt>
      <trkpt lat="44.89759" lon="6.6044">
        <ele>2039.8</ele>
        <time>2011-01-22T10:57:25Z</time>
      </trkpt>
      <trkpt lat="44.89759" lon="6.60468">
        <ele>2037.8</ele>
        <time>2011-01-22T10:57:27Z</time>
      </trkpt>
      <trkpt lat="44.8976" lon="6.60485">
        <ele>2036.8</ele>
        <time>2011-01-22T10:57:28Z</time>
      </trkpt>
      <trkpt lat="44.89756" lon="6.605">
        <ele>2035.6</ele>
        <time>2011-01-22T10:57:29Z</time>
      </trkpt>
      <trkpt lat="44.8975" lon="6.60512">
        <ele>2034.4</ele>
        <time>2011-01-22T10:57:30Z</time>
      </trkpt>
      <trkpt lat="44.89748" lon="6.60524">
        <ele>2033.4</ele>
        <time>2011-01-22T10:57:31Z</time>
      </trkpt>
      <trkpt lat="44.89748" lon="6.60541">
        <ele>2032.2</ele>
        <time>2011-01-22T10:57:32Z</time>
      </trkpt>
      <trkpt lat="44.89748" lon="6.60558">
        <ele>2031</ele>
        <time>2011-01-22T10:57:33Z</time>
      </trkpt>
      <trkpt lat="44.89743" lon="6.60592">
        <ele>2028.4</ele>
        <time>2011-01-22T10:57:35Z</time>
      </trkpt>
      <trkpt lat="44.89741" lon="6.60622">
        <ele>2025.6</ele>
        <time>2011-01-22T10:57:37Z</time>
      </trkpt>
      <trkpt lat="44.89745" lon="6.60637">
        <ele>2024.2</ele>
        <time>2011-01-22T10:57:38Z</time>
      </trkpt>
      <trkpt lat="44.89753" lon="6.60653">
        <ele>2022.8</ele>
        <time>2011-01-22T10:57:39Z</time>
      </trkpt>
      <trkpt lat="44.89764" lon="6.60665">
        <ele>2021.4</ele>
        <time>2011-01-22T10:57:40Z</time>
      </trkpt>
      <trkpt lat="44.89775" lon="6.60678">
        <ele>2019.8</ele>
        <time>2011-01-22T10:57:41Z</time>
      </trkpt>
      <trkpt lat="44.89784" lon="6.60694">
        <ele>2018.4</ele>
        <time>2011-01-22T10:57:42Z</time>
      </trkpt>
      <trkpt lat="44.89792" lon="6.60712">
        <ele>2016.8</ele>
        <time>2011-01-22T10:57:43Z</time>
      </trkpt>
      <trkpt lat="44.89805" lon="6.60751">
        <ele>2013.6</ele>
        <time>2011-01-22T10:57:45Z</time>
      </trkpt>
      <trkpt lat="44.89815" lon="6.60765">
        <ele>2012</ele>
        <time>2011-01-22T10:57:46Z</time>
      </trkpt>
      <trkpt lat="44.89826" lon="6.6078">
        <ele>2010.4</ele>
        <time>2011-01-22T10:57:47Z</time>
      </trkpt>
      <trkpt lat="44.89836" lon="6.60814">
        <ele>2006.8</ele>
        <time>2011-01-22T10:57:49Z</time>
      </trkpt>
      <trkpt lat="44.89829" lon="6.60856">
        <ele>2003.2</ele>
        <time>2011-01-22T10:57:51Z</time>
      </trkpt>
      <trkpt lat="44.89825" lon="6.60878">
        <ele>2001.2</ele>
        <time>2011-01-22T10:57:52Z</time>
      </trkpt>
      <trkpt lat="44.89825" lon="6.60902">
        <ele>1999.4</ele>
        <time>2011-01-22T10:57:53Z</time>
      </trkpt>
      <trkpt lat="44.8983" lon="6.60926">
        <ele>1997.4</ele>
        <time>2011-01-22T10:57:54Z</time>
      </trkpt>
      <trkpt lat="44.89839" lon="6.60948">
        <ele>1995.4</ele>
        <time>2011-01-22T10:57:55Z</time>
      </trkpt>
      <trkpt lat="44.89852" lon="6.60964">
        <ele>1993.4</ele>
        <time>2011-01-22T10:57:56Z</time>
      </trkpt>
      <trkpt lat="44.89868" lon="6.60973">
        <ele>1991.4</ele>
        <time>2011-01-22T10:57:57Z</time>
      </trkpt>
      <trkpt lat="44.89886" lon="6.60976">
        <ele>1989.4</ele>
        <time>2011-01-22T10:57:58Z</time>
      </trkpt>
      <trkpt lat="44.89903" lon="6.60978">
        <ele>1987.2</ele>
        <time>2011-01-22T10:57:59Z</time>
      </trkpt>
      <trkpt lat="44.89917" lon="6.60983">
        <ele>1985.2</ele>
        <time>2011-01-22T10:58:00Z</time>
      </trkpt>
      <trkpt lat="44.89931" lon="6.6099">
        <ele>1983.2</ele>
        <time>2011-01-22T10:58:01Z</time>
      </trkpt>
      <trkpt lat="44.89952" lon="6.61014">
        <ele>1979</ele>
        <time>2011-01-22T10:58:03Z</time>
      </trkpt>
      <trkpt lat="44.89971" lon="6.61045">
        <ele>1974.6</ele>
        <time>2011-01-22T10:58:05Z</time>
      </trkpt>
      <trkpt lat="44.89976" lon="6.61064">
        <ele>1972.4</ele>
        <time>2011-01-22T10:58:06Z</time>
      </trkpt>
      <trkpt lat="44.89976" lon="6.61087">
        <ele>1970</ele>
        <time>2011-01-22T10:58:07Z</time>
      </trkpt>
      <trkpt lat="44.89972" lon="6.6111">
        <ele>1967.6</ele>
        <time>2011-01-22T10:58:08Z</time>
      </trkpt>
      <trkpt lat="44.89965" lon="6.61131">
        <ele>1965.4</ele>
        <time>2011-01-22T10:58:09Z</time>
      </trkpt>
      <trkpt lat="44.89956" lon="6.61151">
        <ele>1962.8</ele>
        <time>2011-01-22T10:58:10Z</time>
      </trkpt>
      <trkpt lat="44.89948" lon="6.61172">
        <ele>1960.6</ele>
        <time>2011-01-22T10:58:11Z</time>
      </trkpt>
      <trkpt lat="44.89941" lon="6.61193">
        <ele>1958.2</ele>
        <time>2011-01-22T10:58:12Z</time>
      </trkpt>
      <trkpt lat="44.89933" lon="6.61212">
        <ele>1955.8</ele>
        <time>2011-01-22T10:58:13Z</time>
      </trkpt>
      <trkpt lat="44.89926" lon="6.61231">
        <ele>1953.4</ele>
        <time>2011-01-22T10:58:14Z</time>
      </trkpt>
      <trkpt lat="44.89919" lon="6.61248">
        <ele>1950.8</ele>
        <time>2011-01-22T10:58:15Z</time>
      </trkpt>
      <trkpt lat="44.89914" lon="6.61263">
        <ele>1948.4</ele>
        <time>2011-01-22T10:58:16Z</time>
      </trkpt>
      <trkpt lat="44.89913" lon="6.61279">
        <ele>1946</ele>
        <time>2011-01-22T10:58:17Z</time>
      </trkpt>
      <trkpt lat="44.89914" lon="6.61297">
        <ele>1943.4</ele>
        <time>2011-01-22T10:58:18Z</time>
      </trkpt>
      <trkpt lat="44.89916" lon="6.61317">
        <ele>1940.8</ele>
        <time>2011-01-22T10:58:19Z</time>
      </trkpt>
      <trkpt lat="44.89933" lon="6.61355">
        <ele>1935.8</ele>
        <time>2011-01-22T10:58:21Z</time>
      </trkpt>
      <trkpt lat="44.89963" lon="6.61372">
        <ele>1930.4</ele>
        <time>2011-01-22T10:58:23Z</time>
      </trkpt>
      <trkpt lat="44.89987" lon="6.6138">
        <ele>1925.4</ele>
        <time>2011-01-22T10:58:25Z</time>
      </trkpt>
      <trkpt lat="44.89992" lon="6.61386">
        <ele>1922.6</ele>
        <time>2011-01-22T10:58:26Z</time>
      </trkpt>
      <trkpt lat="44.89993" lon="6.61393">
        <ele>1920</ele>
        <time>2011-01-22T10:58:27Z</time>
      </trkpt>
      <trkpt lat="44.89992" lon="6.61401">
        <ele>1915</ele>
        <time>2011-01-22T10:58:29Z</time>
      </trkpt>
      <trkpt lat="44.89991" lon="6.61401">
        <ele>1912.6</ele>
        <time>2011-01-22T10:58:30Z</time>
      </trkpt>
      <trkpt lat="44.8999" lon="6.61403">
        <ele>1910.2</ele>
        <time>2011-01-22T10:58:31Z</time>
      </trkpt>
      <trkpt lat="44.89988" lon="6.61403">
        <ele>1905.2</ele>
        <time>2011-01-22T10:58:33Z</time>
      </trkpt>
      <trkpt lat="44.89987" lon="6.61403">
        <ele>1880.6</ele>
        <time>2011-01-22T10:58:44Z</time>
      </trkpt>
      <trkpt lat="44.89986" lon="6.614">
        <ele>1872.2</ele>
        <time>2011-01-22T10:58:48Z</time>
      </trkpt>
      <trkpt lat="44.89986" lon="6.61396">
        <ele>1866.2</ele>
        <time>2011-01-22T10:58:51Z</time>
      </trkpt>
      <trkpt lat="44.89986" lon="6.6139">
        <ele>1858.6</ele>
        <time>2011-01-22T10:58:55Z</time>
      </trkpt>
      <trkpt lat="44.89986" lon="6.61383">
        <ele>1847.4</ele>
        <time>2011-01-22T10:59:01Z</time>
      </trkpt>
      <trkpt lat="44.89986" lon="6.61381">
        <ele>1840.4</ele>
        <time>2011-01-22T10:59:05Z</time>
      </trkpt>
      <trkpt lat="44.89986" lon="6.6138">
        <ele>1838.8</ele>
        <time>2011-01-22T10:59:06Z</time>
      </trkpt>
      <trkpt lat="44.89986" lon="6.61377">
        <ele>1828.8</ele>
        <time>2011-01-22T10:59:12Z</time>
      </trkpt>
      <trkpt lat="44.89989" lon="6.61384">
        <ele>1761.8</ele>
        <time>2011-01-22T11:00:06Z</time>
      </trkpt>
      <trkpt lat="44.89995" lon="6.6139">
        <ele>1759.8</ele>
        <time>2011-01-22T11:00:08Z</time>
      </trkpt>
      <trkpt lat="44.90007" lon="6.614">
        <ele>1757</ele>
        <time>2011-01-22T11:00:11Z</time>
      </trkpt>
      <trkpt lat="44.90013" lon="6.61406">
        <ele>1756</ele>
        <time>2011-01-22T11:00:12Z</time>
      </trkpt>
      <trkpt lat="44.90023" lon="6.61426">
        <ele>1754</ele>
        <time>2011-01-22T11:00:14Z</time>
      </trkpt>
      <trkpt lat="44.90027" lon="6.61437">
        <ele>1753</ele>
        <time>2011-01-22T11:00:15Z</time>
      </trkpt>
      <trkpt lat="44.90032" lon="6.61461">
        <ele>1750.8</ele>
        <time>2011-01-22T11:00:17Z</time>
      </trkpt>
      <trkpt lat="44.90041" lon="6.6149">
        <ele>1748.6</ele>
        <time>2011-01-22T11:00:19Z</time>
      </trkpt>
      <trkpt lat="44.90051" lon="6.61501">
        <ele>1747.6</ele>
        <time>2011-01-22T11:00:20Z</time>
      </trkpt>
      <trkpt lat="44.90063" lon="6.61508">
        <ele>1746.4</ele>
        <time>2011-01-22T11:00:21Z</time>
      </trkpt>
      <trkpt lat="44.90089" lon="6.61504">
        <ele>1744</ele>
        <time>2011-01-22T11:00:23Z</time>
      </trkpt>
      <trkpt lat="44.90108" lon="6.61489">
        <ele>1741.6</ele>
        <time>2011-01-22T11:00:25Z</time>
      </trkpt>
      <trkpt lat="44.90117" lon="6.61484">
        <ele>1740.4</ele>
        <time>2011-01-22T11:00:26Z</time>
      </trkpt>
      <trkpt lat="44.90127" lon="6.6148">
        <ele>1739.2</ele>
        <time>2011-01-22T11:00:27Z</time>
      </trkpt>
      <trkpt lat="44.90137" lon="6.61477">
        <ele>1738</ele>
        <time>2011-01-22T11:00:28Z</time>
      </trkpt>
      <trkpt lat="44.90148" lon="6.61479">
        <ele>1736.8</ele>
        <time>2011-01-22T11:00:29Z</time>
      </trkpt>
      <trkpt lat="44.90166" lon="6.61502">
        <ele>1734.4</ele>
        <time>2011-01-22T11:00:31Z</time>
      </trkpt>
      <trkpt lat="44.90165" lon="6.61518">
        <ele>1733</ele>
        <time>2011-01-22T11:00:32Z</time>
      </trkpt>
      <trkpt lat="44.90166" lon="6.61535">
        <ele>1731.6</ele>
        <time>2011-01-22T11:00:33Z</time>
      </trkpt>
      <trkpt lat="44.90164" lon="6.61555">
        <ele>1730.4</ele>
        <time>2011-01-22T11:00:34Z</time>
      </trkpt>
      <trkpt lat="44.90159" lon="6.61576">
        <ele>1729</ele>
        <time>2011-01-22T11:00:35Z</time>
      </trkpt>
      <trkpt lat="44.90152" lon="6.61591">
        <ele>1727.6</ele>
        <time>2011-01-22T11:00:36Z</time>
      </trkpt>
      <trkpt lat="44.90147" lon="6.61607">
        <ele>1726</ele>
        <time>2011-01-22T11:00:37Z</time>
      </trkpt>
      <trkpt lat="44.90122" lon="6.61635">
        <ele>1723.2</ele>
        <time>2011-01-22T11:00:39Z</time>
      </trkpt>
      <trkpt lat="44.90111" lon="6.61648">
        <ele>1721.8</ele>
        <time>2011-01-22T11:00:40Z</time>
      </trkpt>
      <trkpt lat="44.901" lon="6.61661">
        <ele>1720.4</ele>
        <time>2011-01-22T11:00:41Z</time>
      </trkpt>
      <trkpt lat="44.90091" lon="6.61674">
        <ele>1718.8</ele>
        <time>2011-01-22T11:00:42Z</time>
      </trkpt>
      <trkpt lat="44.90086" lon="6.61689">
        <ele>1717.4</ele>
        <time>2011-01-22T11:00:43Z</time>
      </trkpt>
      <trkpt lat="44.90077" lon="6.61724">
        <ele>1714.2</ele>
        <time>2011-01-22T11:00:45Z</time>
      </trkpt>
      <trkpt lat="44.90071" lon="6.61743">
        <ele>1712.8</ele>
        <time>2011-01-22T11:00:46Z</time>
      </trkpt>
      <trkpt lat="44.90063" lon="6.6176">
        <ele>1711</ele>
        <time>2011-01-22T11:00:47Z</time>
      </trkpt>
      <trkpt lat="44.90042" lon="6.6179">
        <ele>1708</ele>
        <time>2011-01-22T11:00:49Z</time>
      </trkpt>
      <trkpt lat="44.9002" lon="6.61808">
        <ele>1704.8</ele>
        <time>2011-01-22T11:00:51Z</time>
      </trkpt>
      <trkpt lat="44.90007" lon="6.61812">
        <ele>1703</ele>
        <time>2011-01-22T11:00:52Z</time>
      </trkpt>
      <trkpt lat="44.89994" lon="6.61816">
        <ele>1701.4</ele>
        <time>2011-01-22T11:00:53Z</time>
      </trkpt>
      <trkpt lat="44.89978" lon="6.6182">
        <ele>1699.6</ele>
        <time>2011-01-22T11:00:54Z</time>
      </trkpt>
      <trkpt lat="44.89964" lon="6.6183">
        <ele>1697.8</ele>
        <time>2011-01-22T11:00:55Z</time>
      </trkpt>
      <trkpt lat="44.89948" lon="6.61864">
        <ele>1694.2</ele>
        <time>2011-01-22T11:00:57Z</time>
      </trkpt>
      <trkpt lat="44.89938" lon="6.61883">
        <ele>1692.4</ele>
        <time>2011-01-22T11:00:58Z</time>
      </trkpt>
      <trkpt lat="44.89927" lon="6.61898">
        <ele>1690.6</ele>
        <time>2011-01-22T11:00:59Z</time>
      </trkpt>
      <trkpt lat="44.89914" lon="6.61908">
        <ele>1688.8</ele>
        <time>2011-01-22T11:01:00Z</time>
      </trkpt>
      <trkpt lat="44.89901" lon="6.61917">
        <ele>1687</ele>
        <time>2011-01-22T11:01:01Z</time>
      </trkpt>
      <trkpt lat="44.89888" lon="6.61929">
        <ele>1685</ele>
        <time>2011-01-22T11:01:02Z</time>
      </trkpt>
      <trkpt lat="44.89876" lon="6.61941">
        <ele>1683.2</ele>
        <time>2011-01-22T11:01:03Z</time>
      </trkpt>
      <trkpt lat="44.89855" lon="6.61968">
        <ele>1679.2</ele>
        <time>2011-01-22T11:01:05Z</time>
      </trkpt>
      <trkpt lat="44.89852" lon="6.61984">
        <ele>1677.4</ele>
        <time>2011-01-22T11:01:06Z</time>
      </trkpt>
      <trkpt lat="44.89854" lon="6.62002">
        <ele>1675.4</ele>
        <time>2011-01-22T11:01:07Z</time>
      </trkpt>
      <trkpt lat="44.8986" lon="6.62019">
        <ele>1673.4</ele>
        <time>2011-01-22T11:01:08Z</time>
      </trkpt>
      <trkpt lat="44.89872" lon="6.62033">
        <ele>1671.4</ele>
        <time>2011-01-22T11:01:09Z</time>
      </trkpt>
      <trkpt lat="44.89881" lon="6.62051">
        <ele>1669.2</ele>
        <time>2011-01-22T11:01:10Z</time>
      </trkpt>
      <trkpt lat="44.89887" lon="6.62067">
        <ele>1667.2</ele>
        <time>2011-01-22T11:01:11Z</time>
      </trkpt>
      <trkpt lat="44.89892" lon="6.62083">
        <ele>1665</ele>
        <time>2011-01-22T11:01:12Z</time>
      </trkpt>
      <trkpt lat="44.89899" lon="6.62101">
        <ele>1662.8</ele>
        <time>2011-01-22T11:01:13Z</time>
      </trkpt>
      <trkpt lat="44.89906" lon="6.6212">
        <ele>1660.6</ele>
        <time>2011-01-22T11:01:14Z</time>
      </trkpt>
      <trkpt lat="44.89917" lon="6.62138">
        <ele>1658.6</ele>
        <time>2011-01-22T11:01:15Z</time>
      </trkpt>
      <trkpt lat="44.89928" lon="6.62156">
        <ele>1656.2</ele>
        <time>2011-01-22T11:01:16Z</time>
      </trkpt>
      <trkpt lat="44.89933" lon="6.62197">
        <ele>1651.4</ele>
        <time>2011-01-22T11:01:18Z</time>
      </trkpt>
      <trkpt lat="44.8994" lon="6.62232">
        <ele>1646.8</ele>
        <time>2011-01-22T11:01:20Z</time>
      </trkpt>
      <trkpt lat="44.89939" lon="6.62272">
        <ele>1641.6</ele>
        <time>2011-01-22T11:01:22Z</time>
      </trkpt>
      <trkpt lat="44.89938" lon="6.62293">
        <ele>1639</ele>
        <time>2011-01-22T11:01:23Z</time>
      </trkpt>
      <trkpt lat="44.89936" lon="6.62316">
        <ele>1636.4</ele>
        <time>2011-01-22T11:01:24Z</time>
      </trkpt>
      <trkpt lat="44.8992" lon="6.62358">
        <ele>1631</ele>
        <time>2011-01-22T11:01:26Z</time>
      </trkpt>
      <trkpt lat="44.89896" lon="6.62391">
        <ele>1625.6</ele>
        <time>2011-01-22T11:01:28Z</time>
      </trkpt>
      <trkpt lat="44.89875" lon="6.62422">
        <ele>1620.2</ele>
        <time>2011-01-22T11:01:30Z</time>
      </trkpt>
      <trkpt lat="44.89865" lon="6.62436">
        <ele>1617.6</ele>
        <time>2011-01-22T11:01:31Z</time>
      </trkpt>
      <trkpt lat="44.89855" lon="6.6245">
        <ele>1614.8</ele>
        <time>2011-01-22T11:01:32Z</time>
      </trkpt>
      <trkpt lat="44.89841" lon="6.62481">
        <ele>1609.4</ele>
        <time>2011-01-22T11:01:34Z</time>
      </trkpt>
      <trkpt lat="44.89828" lon="6.62514">
        <ele>1603.8</ele>
        <time>2011-01-22T11:01:36Z</time>
      </trkpt>
      <trkpt lat="44.89822" lon="6.62533">
        <ele>1601</ele>
        <time>2011-01-22T11:01:37Z</time>
      </trkpt>
      <trkpt lat="44.89816" lon="6.62553">
        <ele>1598.2</ele>
        <time>2011-01-22T11:01:38Z</time>
      </trkpt>
      <trkpt lat="44.89796" lon="6.62587">
        <ele>1592.6</ele>
        <time>2011-01-22T11:01:40Z</time>
      </trkpt>
      <trkpt lat="44.89777" lon="6.6262">
        <ele>1586.8</ele>
        <time>2011-01-22T11:01:42Z</time>
      </trkpt>
      <trkpt lat="44.89771" lon="6.62638">
        <ele>1584</ele>
        <time>2011-01-22T11:01:43Z</time>
      </trkpt>
      <trkpt lat="44.89765" lon="6.62655">
        <ele>1581.2</ele>
        <time>2011-01-22T11:01:44Z</time>
      </trkpt>
      <trkpt lat="44.89757" lon="6.62672">
        <ele>1578.4</ele>
        <time>2011-01-22T11:01:45Z</time>
      </trkpt>
      <trkpt lat="44.89748" lon="6.62688">
        <ele>1575.6</ele>
        <time>2011-01-22T11:01:46Z</time>
      </trkpt>
      <trkpt lat="44.8973" lon="6.62721">
        <ele>1570</ele>
        <time>2011-01-22T11:01:48Z</time>
      </trkpt>
      <trkpt lat="44.89722" lon="6.62737">
        <ele>1567.2</ele>
        <time>2011-01-22T11:01:49Z</time>
      </trkpt>
      <trkpt lat="44.89712" lon="6.62752">
        <ele>1564.4</ele>
        <time>2011-01-22T11:01:50Z</time>
      </trkpt>
      <trkpt lat="44.89692" lon="6.62782">
        <ele>1558.6</ele>
        <time>2011-01-22T11:01:52Z</time>
      </trkpt>
      <trkpt lat="44.89666" lon="6.62803">
        <ele>1553</ele>
        <time>2011-01-22T11:01:54Z</time>
      </trkpt>
      <trkpt lat="44.89654" lon="6.6281">
        <ele>1550.2</ele>
        <time>2011-01-22T11:01:55Z</time>
      </trkpt>
      <trkpt lat="44.89643" lon="6.62818">
        <ele>1547.4</ele>
        <time>2011-01-22T11:01:56Z</time>
      </trkpt>
      <trkpt lat="44.89629" lon="6.62841">
        <ele>1541.8</ele>
        <time>2011-01-22T11:01:58Z</time>
      </trkpt>
      <trkpt lat="44.89623" lon="6.62852">
        <ele>1539.2</ele>
        <time>2011-01-22T11:01:59Z</time>
      </trkpt>
      <trkpt lat="44.89618" lon="6.62864">
        <ele>1536.4</ele>
        <time>2011-01-22T11:02:00Z</time>
      </trkpt>
      <trkpt lat="44.89607" lon="6.62888">
        <ele>1530.8</ele>
        <time>2011-01-22T11:02:02Z</time>
      </trkpt>
      <trkpt lat="44.89601" lon="6.62898">
        <ele>1528</ele>
        <time>2011-01-22T11:02:03Z</time>
      </trkpt>
      <trkpt lat="44.89598" lon="6.62909">
        <ele>1525.2</ele>
        <time>2011-01-22T11:02:04Z</time>
      </trkpt>
      <trkpt lat="44.89599" lon="6.62917">
        <ele>1522.4</ele>
        <time>2011-01-22T11:02:05Z</time>
      </trkpt>
      <trkpt lat="44.89613" lon="6.62925">
        <ele>1516.8</ele>
        <time>2011-01-22T11:02:07Z</time>
      </trkpt>
      <trkpt lat="44.89623" lon="6.6292">
        <ele>1511.6</ele>
        <time>2011-01-22T11:02:09Z</time>
      </trkpt>
      <trkpt lat="44.8963" lon="6.62919">
        <ele>1508.8</ele>
        <time>2011-01-22T11:02:10Z</time>
      </trkpt>
      <trkpt lat="44.89645" lon="6.62918">
        <ele>1500.8</ele>
        <time>2011-01-22T11:02:13Z</time>
      </trkpt>
      <trkpt lat="44.89649" lon="6.62917">
        <ele>1498.2</ele>
        <time>2011-01-22T11:02:14Z</time>
      </trkpt>
      <trkpt lat="44.89657" lon="6.62918">
        <ele>1490.6</ele>
        <time>2011-01-22T11:02:17Z</time>
      </trkpt>
      <trkpt lat="44.89657" lon="6.6292">
        <ele>1478.4</ele>
        <time>2011-01-22T11:02:22Z</time>
      </trkpt>
      <trkpt lat="44.89655" lon="6.62928">
        <ele>1344.4</ele>
        <time>2011-01-22T11:03:51Z</time>
      </trkpt>
      <trkpt lat="44.89657" lon="6.62928">
        <ele>1336.2</ele>
        <time>2011-01-22T11:04:00Z</time>
      </trkpt>
      <trkpt lat="44.89659" lon="6.62929">
        <ele>1334.4</ele>
        <time>2011-01-22T11:04:02Z</time>
      </trkpt>
      <trkpt lat="44.8966" lon="6.62933">
        <ele>1329.4</ele>
        <time>2011-01-22T11:04:08Z</time>
      </trkpt>
      <trkpt lat="44.89661" lon="6.62936">
        <ele>1325.4</ele>
        <time>2011-01-22T11:04:13Z</time>
      </trkpt>
      <trkpt lat="44.89663" lon="6.62939">
        <ele>1321.4</ele>
        <time>2011-01-22T11:04:18Z</time>
      </trkpt>
      <trkpt lat="44.89664" lon="6.62945">
        <ele>1318.4</ele>
        <time>2011-01-22T11:04:22Z</time>
      </trkpt>
      <trkpt lat="44.89664" lon="6.62951">
        <ele>1316</ele>
        <time>2011-01-22T11:04:25Z</time>
      </trkpt>
      <trkpt lat="44.89665" lon="6.62957">
        <ele>1313.2</ele>
        <time>2011-01-22T11:04:29Z</time>
      </trkpt>
      <trkpt lat="44.89665" lon="6.62958">
        <ele>1312.4</ele>
        <time>2011-01-22T11:04:30Z</time>
      </trkpt>
      <trkpt lat="44.89665" lon="6.62962">
        <ele>1309.4</ele>
        <time>2011-01-22T11:04:34Z</time>
      </trkpt>
      <trkpt lat="44.89666" lon="6.62966">
        <ele>1305.2</ele>
        <time>2011-01-22T11:04:40Z</time>
      </trkpt>
      <trkpt lat="44.89666" lon="6.62969">
        <ele>1301.8</ele>
        <time>2011-01-22T11:04:45Z</time>
      </trkpt>
      <trkpt lat="44.89666" lon="6.62973">
        <ele>1298</ele>
        <time>2011-01-22T11:04:51Z</time>
      </trkpt>
      <trkpt lat="44.89667" lon="6.62977">
        <ele>1296</ele>
        <time>2011-01-22T11:04:54Z</time>
      </trkpt>
      <trkpt lat="44.89667" lon="6.62978">
        <ele>1295.4</ele>
        <time>2011-01-22T11:04:55Z</time>
      </trkpt>
      <trkpt lat="44.89668" lon="6.62985">
        <ele>1291.8</ele>
        <time>2011-01-22T11:05:01Z</time>
      </trkpt>
      <trkpt lat="44.89667" lon="6.62991">
        <ele>1288.8</ele>
        <time>2011-01-22T11:05:06Z</time>
      </trkpt>
      <trkpt lat="44.89665" lon="6.62991">
        <ele>1287.6</ele>
        <time>2011-01-22T11:05:08Z</time>
      </trkpt>
      <trkpt lat="44.89665" lon="6.62993">
        <ele>1284.6</ele>
        <time>2011-01-22T11:05:13Z</time>
      </trkpt>
      <trkpt lat="44.89664" lon="6.62996">
        <ele>1283.4</ele>
        <time>2011-01-22T11:05:15Z</time>
      </trkpt>
      <trkpt lat="44.89664" lon="6.63001">
        <ele>1281.6</ele>
        <time>2011-01-22T11:05:18Z</time>
      </trkpt>
      <trkpt lat="44.89664" lon="6.63002">
        <ele>1281</ele>
        <time>2011-01-22T11:05:19Z</time>
      </trkpt>
      <trkpt lat="44.89667" lon="6.63009">
        <ele>1278</ele>
        <time>2011-01-22T11:05:24Z</time>
      </trkpt>
      <trkpt lat="44.89667" lon="6.63012">
        <ele>1277</ele>
        <time>2011-01-22T11:05:26Z</time>
      </trkpt>
      <trkpt lat="44.89669" lon="6.63009">
        <ele>1273.4</ele>
        <time>2011-01-22T11:05:33Z</time>
      </trkpt>
      <trkpt lat="44.8967" lon="6.63006">
        <ele>1271.8</ele>
        <time>2011-01-22T11:05:36Z</time>
      </trkpt>
      <trkpt lat="44.89671" lon="6.63006">
        <ele>1271</ele>
        <time>2011-01-22T11:05:38Z</time>
      </trkpt>
      <trkpt lat="44.89672" lon="6.63008">
        <ele>1269.4</ele>
        <time>2011-01-22T11:05:41Z</time>
      </trkpt>
      <trkpt lat="44.89672" lon="6.63009">
        <ele>1268.6</ele>
        <time>2011-01-22T11:05:43Z</time>
      </trkpt>
      <trkpt lat="44.89673" lon="6.63013">
        <ele>1266.8</ele>
        <time>2011-01-22T11:05:47Z</time>
      </trkpt>
      <trkpt lat="44.89672" lon="6.6301">
        <ele>1262.2</ele>
        <time>2011-01-22T11:05:58Z</time>
      </trkpt>
      <trkpt lat="44.89668" lon="6.63002">
        <ele>1247.8</ele>
        <time>2011-01-22T11:06:40Z</time>
      </trkpt>
      <trkpt lat="44.89667" lon="6.62996">
        <ele>1246.4</ele>
        <time>2011-01-22T11:06:44Z</time>
      </trkpt>
      <trkpt lat="44.89666" lon="6.62992">
        <ele>1246</ele>
        <time>2011-01-22T11:06:45Z</time>
      </trkpt>
      <trkpt lat="44.89664" lon="6.62987">
        <ele>1245.8</ele>
        <time>2011-01-22T11:06:46Z</time>
      </trkpt>
      <trkpt lat="44.89666" lon="6.6297">
        <ele>1245</ele>
        <time>2011-01-22T11:06:49Z</time>
      </trkpt>
      <trkpt lat="44.89669" lon="6.6296">
        <ele>1244.4</ele>
        <time>2011-01-22T11:06:51Z</time>
      </trkpt>
      <trkpt lat="44.89674" lon="6.62938">
        <ele>1243.6</ele>
        <time>2011-01-22T11:06:56Z</time>
      </trkpt>
      <trkpt lat="44.89675" lon="6.62934">
        <ele>1243.6</ele>
        <time>2011-01-22T11:06:57Z</time>
      </trkpt>
      <trkpt lat="44.89682" lon="6.62905">
        <ele>1243.4</ele>
        <time>2011-01-22T11:07:03Z</time>
      </trkpt>
      <trkpt lat="44.89687" lon="6.62878">
        <ele>1244.6</ele>
        <time>2011-01-22T11:07:09Z</time>
      </trkpt>
      <trkpt lat="44.89688" lon="6.6285">
        <ele>1246.8</ele>
        <time>2011-01-22T11:07:15Z</time>
      </trkpt>
      <trkpt lat="44.89694" lon="6.62825">
        <ele>1249.4</ele>
        <time>2011-01-22T11:07:20Z</time>
      </trkpt>
      <trkpt lat="44.89696" lon="6.62805">
        <ele>1251.6</ele>
        <time>2011-01-22T11:07:24Z</time>
      </trkpt>
      <trkpt lat="44.89697" lon="6.62795">
        <ele>1252.6</ele>
        <time>2011-01-22T11:07:26Z</time>
      </trkpt>
      <trkpt lat="44.89699" lon="6.6277">
        <ele>1255.2</ele>
        <time>2011-01-22T11:07:31Z</time>
      </trkpt>
      <trkpt lat="44.89699" lon="6.62765">
        <ele>1255.8</ele>
        <time>2011-01-22T11:07:32Z</time>
      </trkpt>
      <trkpt lat="44.89702" lon="6.62742">
        <ele>1258.8</ele>
        <time>2011-01-22T11:07:37Z</time>
      </trkpt>
      <trkpt lat="44.89704" lon="6.62723">
        <ele>1261.4</ele>
        <time>2011-01-22T11:07:41Z</time>
      </trkpt>
      <trkpt lat="44.89705" lon="6.62713">
        <ele>1262.6</ele>
        <time>2011-01-22T11:07:43Z</time>
      </trkpt>
      <trkpt lat="44.89708" lon="6.62683">
        <ele>1266.4</ele>
        <time>2011-01-22T11:07:49Z</time>
      </trkpt>
      <trkpt lat="44.89709" lon="6.62674">
        <ele>1267.8</ele>
        <time>2011-01-22T11:07:51Z</time>
      </trkpt>
      <trkpt lat="44.89711" lon="6.62655">
        <ele>1270.6</ele>
        <time>2011-01-22T11:07:55Z</time>
      </trkpt>
      <trkpt lat="44.89713" lon="6.6263">
        <ele>1274.2</ele>
        <time>2011-01-22T11:08:00Z</time>
      </trkpt>
      <trkpt lat="44.89714" lon="6.62625">
        <ele>1275</ele>
        <time>2011-01-22T11:08:01Z</time>
      </trkpt>
      <trkpt lat="44.89716" lon="6.62597">
        <ele>1279.6</ele>
        <time>2011-01-22T11:08:07Z</time>
      </trkpt>
      <trkpt lat="44.89717" lon="6.62592">
        <ele>1280.2</ele>
        <time>2011-01-22T11:08:08Z</time>
      </trkpt>
      <trkpt lat="44.89721" lon="6.62568">
        <ele>1284.4</ele>
        <time>2011-01-22T11:08:13Z</time>
      </trkpt>
      <trkpt lat="44.89721" lon="6.62558">
        <ele>1286.2</ele>
        <time>2011-01-22T11:08:15Z</time>
      </trkpt>
      <trkpt lat="44.89722" lon="6.62539">
        <ele>1289.4</ele>
        <time>2011-01-22T11:08:19Z</time>
      </trkpt>
      <trkpt lat="44.89725" lon="6.62517">
        <ele>1293.8</ele>
        <time>2011-01-22T11:08:24Z</time>
      </trkpt>
      <trkpt lat="44.89726" lon="6.62512">
        <ele>1294.6</ele>
        <time>2011-01-22T11:08:25Z</time>
      </trkpt>
      <trkpt lat="44.89729" lon="6.62483">
        <ele>1300.2</ele>
        <time>2011-01-22T11:08:31Z</time>
      </trkpt>
      <trkpt lat="44.89731" lon="6.6246">
        <ele>1305.2</ele>
        <time>2011-01-22T11:08:36Z</time>
      </trkpt>
      <trkpt lat="44.89731" lon="6.62455">
        <ele>1306.2</ele>
        <time>2011-01-22T11:08:37Z</time>
      </trkpt>
      <trkpt lat="44.89733" lon="6.62426">
        <ele>1312.6</ele>
        <time>2011-01-22T11:08:43Z</time>
      </trkpt>
      <trkpt lat="44.89735" lon="6.62407">
        <ele>1317.2</ele>
        <time>2011-01-22T11:08:47Z</time>
      </trkpt>
      <trkpt lat="44.89736" lon="6.62397">
        <ele>1319.4</ele>
        <time>2011-01-22T11:08:49Z</time>
      </trkpt>
      <trkpt lat="44.8974" lon="6.62369">
        <ele>1326.6</ele>
        <time>2011-01-22T11:08:55Z</time>
      </trkpt>
      <trkpt lat="44.8974" lon="6.62364">
        <ele>1327.6</ele>
        <time>2011-01-22T11:08:56Z</time>
      </trkpt>
      <trkpt lat="44.89742" lon="6.62342">
        <ele>1333.4</ele>
        <time>2011-01-22T11:09:01Z</time>
      </trkpt>
      <trkpt lat="44.89745" lon="6.62314">
        <ele>1340.2</ele>
        <time>2011-01-22T11:09:07Z</time>
      </trkpt>
      <trkpt lat="44.89749" lon="6.62285">
        <ele>1348</ele>
        <time>2011-01-22T11:09:13Z</time>
      </trkpt>
      <trkpt lat="44.8975" lon="6.62272">
        <ele>1352.2</ele>
        <time>2011-01-22T11:09:16Z</time>
      </trkpt>
      <trkpt lat="44.89752" lon="6.62258">
        <ele>1356.4</ele>
        <time>2011-01-22T11:09:19Z</time>
      </trkpt>
      <trkpt lat="44.89755" lon="6.62233">
        <ele>1365.8</ele>
        <time>2011-01-22T11:09:25Z</time>
      </trkpt>
      <trkpt lat="44.89755" lon="6.62224">
        <ele>1369</ele>
        <time>2011-01-22T11:09:27Z</time>
      </trkpt>
      <trkpt lat="44.89757" lon="6.62206">
        <ele>1375.4</ele>
        <time>2011-01-22T11:09:31Z</time>
      </trkpt>
      <trkpt lat="44.89759" lon="6.62185">
        <ele>1383.8</ele>
        <time>2011-01-22T11:09:36Z</time>
      </trkpt>
      <trkpt lat="44.8976" lon="6.6218">
        <ele>1385.4</ele>
        <time>2011-01-22T11:09:37Z</time>
      </trkpt>
      <trkpt lat="44.89762" lon="6.62155">
        <ele>1395.6</ele>
        <time>2011-01-22T11:09:43Z</time>
      </trkpt>
      <trkpt lat="44.89762" lon="6.6215">
        <ele>1397.4</ele>
        <time>2011-01-22T11:09:44Z</time>
      </trkpt>
      <trkpt lat="44.89765" lon="6.62129">
        <ele>1405.6</ele>
        <time>2011-01-22T11:09:49Z</time>
      </trkpt>
      <trkpt lat="44.89768" lon="6.62113">
        <ele>1412</ele>
        <time>2011-01-22T11:09:53Z</time>
      </trkpt>
      <trkpt lat="44.89769" lon="6.62101">
        <ele>1416.8</ele>
        <time>2011-01-22T11:09:56Z</time>
      </trkpt>
      <trkpt lat="44.89769" lon="6.62078">
        <ele>1423.8</ele>
        <time>2011-01-22T11:10:01Z</time>
      </trkpt>
      <trkpt lat="44.8977" lon="6.62073">
        <ele>1425.2</ele>
        <time>2011-01-22T11:10:02Z</time>
      </trkpt>
      <trkpt lat="44.89773" lon="6.6205">
        <ele>1432.2</ele>
        <time>2011-01-22T11:10:07Z</time>
      </trkpt>
      <trkpt lat="44.89774" lon="6.62045">
        <ele>1433.6</ele>
        <time>2011-01-22T11:10:08Z</time>
      </trkpt>
      <trkpt lat="44.89776" lon="6.62018">
        <ele>1442.2</ele>
        <time>2011-01-22T11:10:14Z</time>
      </trkpt>
      <trkpt lat="44.89776" lon="6.62014">
        <ele>1443.6</ele>
        <time>2011-01-22T11:10:15Z</time>
      </trkpt>
      <trkpt lat="44.89775" lon="6.61989">
        <ele>1450.8</ele>
        <time>2011-01-22T11:10:21Z</time>
      </trkpt>
      <trkpt lat="44.89776" lon="6.61979">
        <ele>1453.4</ele>
        <time>2011-01-22T11:10:23Z</time>
      </trkpt>
      <trkpt lat="44.8978" lon="6.61964">
        <ele>1457.8</ele>
        <time>2011-01-22T11:10:26Z</time>
      </trkpt>
      <trkpt lat="44.89783" lon="6.61941">
        <ele>1465</ele>
        <time>2011-01-22T11:10:31Z</time>
      </trkpt>
      <trkpt lat="44.89783" lon="6.61937">
        <ele>1466.6</ele>
        <time>2011-01-22T11:10:32Z</time>
      </trkpt>
      <trkpt lat="44.89785" lon="6.61908">
        <ele>1477.4</ele>
        <time>2011-01-22T11:10:39Z</time>
      </trkpt>
      <trkpt lat="44.89786" lon="6.61904">
        <ele>1479.2</ele>
        <time>2011-01-22T11:10:40Z</time>
      </trkpt>
      <trkpt lat="44.89789" lon="6.61882">
        <ele>1487.4</ele>
        <time>2011-01-22T11:10:45Z</time>
      </trkpt>
      <trkpt lat="44.89793" lon="6.61858">
        <ele>1495</ele>
        <time>2011-01-22T11:10:50Z</time>
      </trkpt>
      <trkpt lat="44.89793" lon="6.61853">
        <ele>1496.4</ele>
        <time>2011-01-22T11:10:51Z</time>
      </trkpt>
      <trkpt lat="44.89797" lon="6.61824">
        <ele>1505</ele>
        <time>2011-01-22T11:10:57Z</time>
      </trkpt>
      <trkpt lat="44.89797" lon="6.6182">
        <ele>1506.4</ele>
        <time>2011-01-22T11:10:58Z</time>
      </trkpt>
      <trkpt lat="44.898" lon="6.61797">
        <ele>1513.8</ele>
        <time>2011-01-22T11:11:03Z</time>
      </trkpt>
      <trkpt lat="44.89802" lon="6.61776">
        <ele>1521.2</ele>
        <time>2011-01-22T11:11:08Z</time>
      </trkpt>
      <trkpt lat="44.89803" lon="6.61772">
        <ele>1522.8</ele>
        <time>2011-01-22T11:11:09Z</time>
      </trkpt>
      <trkpt lat="44.89805" lon="6.61744">
        <ele>1531.8</ele>
        <time>2011-01-22T11:11:15Z</time>
      </trkpt>
      <trkpt lat="44.89806" lon="6.61714">
        <ele>1541.2</ele>
        <time>2011-01-22T11:11:21Z</time>
      </trkpt>
      <trkpt lat="44.8981" lon="6.61686">
        <ele>1550</ele>
        <time>2011-01-22T11:11:27Z</time>
      </trkpt>
      <trkpt lat="44.8981" lon="6.61677">
        <ele>1552.8</ele>
        <time>2011-01-22T11:11:29Z</time>
      </trkpt>
      <trkpt lat="44.89811" lon="6.61659">
        <ele>1559</ele>
        <time>2011-01-22T11:11:33Z</time>
      </trkpt>
      <trkpt lat="44.89814" lon="6.61644">
        <ele>1563.6</ele>
        <time>2011-01-22T11:11:36Z</time>
      </trkpt>
      <trkpt lat="44.89816" lon="6.61631">
        <ele>1568.8</ele>
        <time>2011-01-22T11:11:39Z</time>
      </trkpt>
      <trkpt lat="44.89819" lon="6.61602">
        <ele>1578.8</ele>
        <time>2011-01-22T11:11:45Z</time>
      </trkpt>
      <trkpt lat="44.89819" lon="6.61598">
        <ele>1580.4</ele>
        <time>2011-01-22T11:11:46Z</time>
      </trkpt>
      <trkpt lat="44.89824" lon="6.61575">
        <ele>1588.4</ele>
        <time>2011-01-22T11:11:51Z</time>
      </trkpt>
      <trkpt lat="44.89826" lon="6.61546">
        <ele>1596.6</ele>
        <time>2011-01-22T11:11:57Z</time>
      </trkpt>
      <trkpt lat="44.89826" lon="6.61541">
        <ele>1599</ele>
        <time>2011-01-22T11:11:59Z</time>
      </trkpt>
      <trkpt lat="44.89827" lon="6.61539">
        <ele>1600</ele>
        <time>2011-01-22T11:12:00Z</time>
      </trkpt>
      <trkpt lat="44.89824" lon="6.61533">
        <ele>1603.2</ele>
        <time>2011-01-22T11:12:04Z</time>
      </trkpt>
      <trkpt lat="44.89823" lon="6.61533">
        <ele>1606.6</ele>
        <time>2011-01-22T11:12:08Z</time>
      </trkpt>
      <trkpt lat="44.89824" lon="6.61536">
        <ele>1608</ele>
        <time>2011-01-22T11:12:10Z</time>
      </trkpt>
      <trkpt lat="44.89827" lon="6.61538">
        <ele>1609.4</ele>
        <time>2011-01-22T11:12:13Z</time>
      </trkpt>
      <trkpt lat="44.89826" lon="6.61536">
        <ele>1610</ele>
        <time>2011-01-22T11:12:15Z</time>
      </trkpt>
      <trkpt lat="44.89826" lon="6.61533">
        <ele>1610.4</ele>
        <time>2011-01-22T11:12:16Z</time>
      </trkpt>
      <trkpt lat="44.89824" lon="6.61535">
        <ele>1611.4</ele>
        <time>2011-01-22T11:12:20Z</time>
      </trkpt>
      <trkpt lat="44.89824" lon="6.61535">
        <ele>1611.6</ele>
        <time>2011-01-22T11:12:21Z</time>
      </trkpt>
      <trkpt lat="44.89825" lon="6.61535">
        <ele>1612</ele>
        <time>2011-01-22T11:12:23Z</time>
      </trkpt>
      <trkpt lat="44.89822" lon="6.61535">
        <ele>1614.2</ele>
        <time>2011-01-22T11:12:28Z</time>
      </trkpt>
      <trkpt lat="44.89823" lon="6.61533">
        <ele>1618.2</ele>
        <time>2011-01-22T11:12:39Z</time>
      </trkpt>
      <trkpt lat="44.89826" lon="6.61533">
        <ele>1619.6</ele>
        <time>2011-01-22T11:12:43Z</time>
      </trkpt>
      <trkpt lat="44.8982" lon="6.61534">
        <ele>1621.8</ele>
        <time>2011-01-22T11:12:48Z</time>
      </trkpt>
      <trkpt lat="44.8982" lon="6.61535">
        <ele>1621.8</ele>
        <time>2011-01-22T11:12:49Z</time>
      </trkpt>
      <trkpt lat="44.8982" lon="6.61534">
        <ele>1621.8</ele>
        <time>2011-01-22T11:12:50Z</time>
      </trkpt>
      <trkpt lat="44.89823" lon="6.61524">
        <ele>1621.8</ele>
        <time>2011-01-22T11:12:53Z</time>
      </trkpt>
      <trkpt lat="44.89824" lon="6.61523">
        <ele>1622</ele>
        <time>2011-01-22T11:12:54Z</time>
      </trkpt>
      <trkpt lat="44.89824" lon="6.61521">
        <ele>1622.4</ele>
        <time>2011-01-22T11:12:56Z</time>
      </trkpt>
      <trkpt lat="44.89824" lon="6.61523">
        <ele>1622.6</ele>
        <time>2011-01-22T11:12:58Z</time>
      </trkpt>
      <trkpt lat="44.89828" lon="6.61523">
        <ele>1622.6</ele>
        <time>2011-01-22T11:13:01Z</time>
      </trkpt>
      <trkpt lat="44.89831" lon="6.61524">
        <ele>1622.8</ele>
        <time>2011-01-22T11:13:04Z</time>
      </trkpt>
      <trkpt lat="44.89834" lon="6.61524">
        <ele>1622.8</ele>
        <time>2011-01-22T11:13:06Z</time>
      </trkpt>
      <trkpt lat="44.89838" lon="6.61516">
        <ele>1622.8</ele>
        <time>2011-01-22T11:13:10Z</time>
      </trkpt>
      <trkpt lat="44.89838" lon="6.61515">
        <ele>1622.8</ele>
        <time>2011-01-22T11:13:11Z</time>
      </trkpt>
      <trkpt lat="44.89836" lon="6.61503">
        <ele>1622.8</ele>
        <time>2011-01-22T11:13:18Z</time>
      </trkpt>
      <trkpt lat="44.89836" lon="6.61501">
        <ele>1622.8</ele>
        <time>2011-01-22T11:13:20Z</time>
      </trkpt>
      <trkpt lat="44.89833" lon="6.615">
        <ele>1622.6</ele>
        <time>2011-01-22T11:13:23Z</time>
      </trkpt>
      <trkpt lat="44.89827" lon="6.61499">
        <ele>1622.4</ele>
        <time>2011-01-22T11:13:28Z</time>
      </trkpt>
      <trkpt lat="44.89827" lon="6.61496">
        <ele>1622.2</ele>
        <time>2011-01-22T11:13:31Z</time>
      </trkpt>
      <trkpt lat="44.89827" lon="6.61493">
        <ele>1621.8</ele>
        <time>2011-01-22T11:13:35Z</time>
      </trkpt>
      <trkpt lat="44.89822" lon="6.61489">
        <ele>1621</ele>
        <time>2011-01-22T11:13:42Z</time>
      </trkpt>
      <trkpt lat="44.89821" lon="6.61487">
        <ele>1620.8</ele>
        <time>2011-01-22T11:13:43Z</time>
      </trkpt>
      <trkpt lat="44.89818" lon="6.61486">
        <ele>1620.6</ele>
        <time>2011-01-22T11:13:45Z</time>
      </trkpt>
      <trkpt lat="44.89816" lon="6.61486">
        <ele>1620</ele>
        <time>2011-01-22T11:13:50Z</time>
      </trkpt>
      <trkpt lat="44.89817" lon="6.61487">
        <ele>1619.8</ele>
        <time>2011-01-22T11:13:51Z</time>
      </trkpt>
      <trkpt lat="44.89818" lon="6.61494">
        <ele>1619.8</ele>
        <time>2011-01-22T11:13:55Z</time>
      </trkpt>
      <trkpt lat="44.89822" lon="6.61502">
        <ele>1620</ele>
        <time>2011-01-22T11:14:07Z</time>
      </trkpt>
      <trkpt lat="44.89823" lon="6.61501">
        <ele>1620</ele>
        <time>2011-01-22T11:14:08Z</time>
      </trkpt>
      <trkpt lat="44.89822" lon="6.61496">
        <ele>1620.2</ele>
        <time>2011-01-22T11:14:10Z</time>
      </trkpt>
      <trkpt lat="44.8982" lon="6.61474">
        <ele>1621.6</ele>
        <time>2011-01-22T11:14:14Z</time>
      </trkpt>
      <trkpt lat="44.89821" lon="6.61467">
        <ele>1621.4</ele>
        <time>2011-01-22T11:14:16Z</time>
      </trkpt>
      <trkpt lat="44.89826" lon="6.61459">
        <ele>1622</ele>
        <time>2011-01-22T11:14:19Z</time>
      </trkpt>
      <trkpt lat="44.89828" lon="6.61444">
        <ele>1623.4</ele>
        <time>2011-01-22T11:14:22Z</time>
      </trkpt>
      <trkpt lat="44.89831" lon="6.61433">
        <ele>1624.2</ele>
        <time>2011-01-22T11:14:24Z</time>
      </trkpt>
      <trkpt lat="44.89834" lon="6.61418">
        <ele>1626</ele>
        <time>2011-01-22T11:14:27Z</time>
      </trkpt>
      <trkpt lat="44.89836" lon="6.61399">
        <ele>1631</ele>
        <time>2011-01-22T11:14:32Z</time>
      </trkpt>
      <trkpt lat="44.89837" lon="6.6139">
        <ele>1632.8</ele>
        <time>2011-01-22T11:14:34Z</time>
      </trkpt>
      <trkpt lat="44.89839" lon="6.61364">
        <ele>1638.4</ele>
        <time>2011-01-22T11:14:39Z</time>
      </trkpt>
      <trkpt lat="44.8984" lon="6.61355">
        <ele>1640.6</ele>
        <time>2011-01-22T11:14:41Z</time>
      </trkpt>
      <trkpt lat="44.89841" lon="6.61338">
        <ele>1645.4</ele>
        <time>2011-01-22T11:14:45Z</time>
      </trkpt>
      <trkpt lat="44.89842" lon="6.61312">
        <ele>1652</ele>
        <time>2011-01-22T11:14:51Z</time>
      </trkpt>
      <trkpt lat="44.89844" lon="6.61286">
        <ele>1658.6</ele>
        <time>2011-01-22T11:14:57Z</time>
      </trkpt>
      <trkpt lat="44.89846" lon="6.61268">
        <ele>1663.4</ele>
        <time>2011-01-22T11:15:01Z</time>
      </trkpt>
      <trkpt lat="44.89846" lon="6.61259">
        <ele>1666</ele>
        <time>2011-01-22T11:15:03Z</time>
      </trkpt>
      <trkpt lat="44.89849" lon="6.61233">
        <ele>1673.6</ele>
        <time>2011-01-22T11:15:09Z</time>
      </trkpt>
      <trkpt lat="44.8985" lon="6.61214">
        <ele>1679</ele>
        <time>2011-01-22T11:15:13Z</time>
      </trkpt>
      <trkpt lat="44.89851" lon="6.61205">
        <ele>1682.2</ele>
        <time>2011-01-22T11:15:15Z</time>
      </trkpt>
      <trkpt lat="44.89854" lon="6.61178">
        <ele>1691.2</ele>
        <time>2011-01-22T11:15:21Z</time>
      </trkpt>
      <trkpt lat="44.89854" lon="6.61174">
        <ele>1692.6</ele>
        <time>2011-01-22T11:15:22Z</time>
      </trkpt>
      <trkpt lat="44.89856" lon="6.61152">
        <ele>1700.6</ele>
        <time>2011-01-22T11:15:27Z</time>
      </trkpt>
      <trkpt lat="44.89857" lon="6.61138">
        <ele>1705</ele>
        <time>2011-01-22T11:15:30Z</time>
      </trkpt>
      <trkpt lat="44.89859" lon="6.61123">
        <ele>1709.6</ele>
        <time>2011-01-22T11:15:33Z</time>
      </trkpt>
      <trkpt lat="44.8986" lon="6.61096">
        <ele>1718</ele>
        <time>2011-01-22T11:15:39Z</time>
      </trkpt>
      <trkpt lat="44.89862" lon="6.61067">
        <ele>1726.2</ele>
        <time>2011-01-22T11:15:45Z</time>
      </trkpt>
      <trkpt lat="44.89862" lon="6.61057">
        <ele>1728.4</ele>
        <time>2011-01-22T11:15:47Z</time>
      </trkpt>
      <trkpt lat="44.89863" lon="6.61038">
        <ele>1733</ele>
        <time>2011-01-22T11:15:51Z</time>
      </trkpt>
      <trkpt lat="44.89862" lon="6.61022">
        <ele>1736.6</ele>
        <time>2011-01-22T11:15:54Z</time>
      </trkpt>
      <trkpt lat="44.89863" lon="6.61009">
        <ele>1740.2</ele>
        <time>2011-01-22T11:15:57Z</time>
      </trkpt>
      <trkpt lat="44.89866" lon="6.60993">
        <ele>1744.6</ele>
        <time>2011-01-22T11:16:01Z</time>
      </trkpt>
      <trkpt lat="44.89868" lon="6.60981">
        <ele>1746.2</ele>
        <time>2011-01-22T11:16:03Z</time>
      </trkpt>
      <trkpt lat="44.89871" lon="6.60955">
        <ele>1751.4</ele>
        <time>2011-01-22T11:16:08Z</time>
      </trkpt>
      <trkpt lat="44.89871" lon="6.6095">
        <ele>1752.4</ele>
        <time>2011-01-22T11:16:09Z</time>
      </trkpt>
      <trkpt lat="44.89872" lon="6.60924">
        <ele>1757.6</ele>
        <time>2011-01-22T11:16:14Z</time>
      </trkpt>
      <trkpt lat="44.89871" lon="6.60919">
        <ele>1758.6</ele>
        <time>2011-01-22T11:16:15Z</time>
      </trkpt>
      <trkpt lat="44.89874" lon="6.60899">
        <ele>1763.4</ele>
        <time>2011-01-22T11:16:19Z</time>
      </trkpt>
      <trkpt lat="44.89875" lon="6.6089">
        <ele>1765.8</ele>
        <time>2011-01-22T11:16:21Z</time>
      </trkpt>
      <trkpt lat="44.89877" lon="6.6087">
        <ele>1770.6</ele>
        <time>2011-01-22T11:16:25Z</time>
      </trkpt>
      <trkpt lat="44.89879" lon="6.60856">
        <ele>1774.6</ele>
        <time>2011-01-22T11:16:28Z</time>
      </trkpt>
      <trkpt lat="44.89881" lon="6.60841">
        <ele>1778.2</ele>
        <time>2011-01-22T11:16:31Z</time>
      </trkpt>
      <trkpt lat="44.89883" lon="6.60823">
        <ele>1783.6</ele>
        <time>2011-01-22T11:16:35Z</time>
      </trkpt>
      <trkpt lat="44.89884" lon="6.60814">
        <ele>1786.2</ele>
        <time>2011-01-22T11:16:37Z</time>
      </trkpt>
      <trkpt lat="44.89883" lon="6.60796">
        <ele>1790</ele>
        <time>2011-01-22T11:16:40Z</time>
      </trkpt>
      <trkpt lat="44.89881" lon="6.60785">
        <ele>1792.6</ele>
        <time>2011-01-22T11:16:42Z</time>
      </trkpt>
      <trkpt lat="44.89881" lon="6.60763">
        <ele>1799.6</ele>
        <time>2011-01-22T11:16:47Z</time>
      </trkpt>
      <trkpt lat="44.89881" lon="6.60758">
        <ele>1801</ele>
        <time>2011-01-22T11:16:48Z</time>
      </trkpt>
      <trkpt lat="44.89886" lon="6.60737">
        <ele>1807</ele>
        <time>2011-01-22T11:16:53Z</time>
      </trkpt>
      <trkpt lat="44.89886" lon="6.60733">
        <ele>1808.4</ele>
        <time>2011-01-22T11:16:54Z</time>
      </trkpt>
      <trkpt lat="44.89888" lon="6.60708">
        <ele>1815.4</ele>
        <time>2011-01-22T11:17:00Z</time>
      </trkpt>
      <trkpt lat="44.89888" lon="6.60694">
        <ele>1818.8</ele>
        <time>2011-01-22T11:17:03Z</time>
      </trkpt>
      <trkpt lat="44.89888" lon="6.60679">
        <ele>1822.4</ele>
        <time>2011-01-22T11:17:06Z</time>
      </trkpt>
      <trkpt lat="44.8989" lon="6.60656">
        <ele>1828</ele>
        <time>2011-01-22T11:17:11Z</time>
      </trkpt>
      <trkpt lat="44.8989" lon="6.60651">
        <ele>1829.2</ele>
        <time>2011-01-22T11:17:12Z</time>
      </trkpt>
      <trkpt lat="44.89888" lon="6.60626">
        <ele>1835.4</ele>
        <time>2011-01-22T11:17:18Z</time>
      </trkpt>
      <trkpt lat="44.89889" lon="6.60621">
        <ele>1836.6</ele>
        <time>2011-01-22T11:17:19Z</time>
      </trkpt>
      <trkpt lat="44.89888" lon="6.60601">
        <ele>1841.4</ele>
        <time>2011-01-22T11:17:24Z</time>
      </trkpt>
      <trkpt lat="44.89888" lon="6.60592">
        <ele>1843.4</ele>
        <time>2011-01-22T11:17:26Z</time>
      </trkpt>
      <trkpt lat="44.89891" lon="6.60563">
        <ele>1849.4</ele>
        <time>2011-01-22T11:17:32Z</time>
      </trkpt>
      <trkpt lat="44.89892" lon="6.60554">
        <ele>1851.8</ele>
        <time>2011-01-22T11:17:34Z</time>
      </trkpt>
      <trkpt lat="44.89896" lon="6.60534">
        <ele>1856.8</ele>
        <time>2011-01-22T11:17:38Z</time>
      </trkpt>
      <trkpt lat="44.89903" lon="6.60506">
        <ele>1864.2</ele>
        <time>2011-01-22T11:17:44Z</time>
      </trkpt>
      <trkpt lat="44.89906" lon="6.60481">
        <ele>1870.8</ele>
        <time>2011-01-22T11:17:49Z</time>
      </trkpt>
      <trkpt lat="44.89906" lon="6.60476">
        <ele>1872</ele>
        <time>2011-01-22T11:17:50Z</time>
      </trkpt>
      <trkpt lat="44.89907" lon="6.6045">
        <ele>1877.4</ele>
        <time>2011-01-22T11:17:55Z</time>
      </trkpt>
      <trkpt lat="44.89908" lon="6.60445">
        <ele>1878.8</ele>
        <time>2011-01-22T11:17:56Z</time>
      </trkpt>
      <trkpt lat="44.89909" lon="6.60421">
        <ele>1885.6</ele>
        <time>2011-01-22T11:18:01Z</time>
      </trkpt>
      <trkpt lat="44.8991" lon="6.60407">
        <ele>1889.6</ele>
        <time>2011-01-22T11:18:04Z</time>
      </trkpt>
      <trkpt lat="44.89911" lon="6.60392">
        <ele>1893.6</ele>
        <time>2011-01-22T11:18:07Z</time>
      </trkpt>
      <trkpt lat="44.89913" lon="6.60362">
        <ele>1901.6</ele>
        <time>2011-01-22T11:18:13Z</time>
      </trkpt>
      <trkpt lat="44.89914" lon="6.60353">
        <ele>1904.4</ele>
        <time>2011-01-22T11:18:15Z</time>
      </trkpt>
      <trkpt lat="44.89916" lon="6.60334">
        <ele>1909.8</ele>
        <time>2011-01-22T11:18:19Z</time>
      </trkpt>
      <trkpt lat="44.89917" lon="6.60305">
        <ele>1917.2</ele>
        <time>2011-01-22T11:18:25Z</time>
      </trkpt>
      <trkpt lat="44.8992" lon="6.60276">
        <ele>1924.6</ele>
        <time>2011-01-22T11:18:31Z</time>
      </trkpt>
      <trkpt lat="44.89922" lon="6.60262">
        <ele>1928.4</ele>
        <time>2011-01-22T11:18:34Z</time>
      </trkpt>
      <trkpt lat="44.89924" lon="6.60247">
        <ele>1932.2</ele>
        <time>2011-01-22T11:18:37Z</time>
      </trkpt>
      <trkpt lat="44.89927" lon="6.60223">
        <ele>1938.2</ele>
        <time>2011-01-22T11:18:42Z</time>
      </trkpt>
      <trkpt lat="44.89927" lon="6.60219">
        <ele>1939.6</ele>
        <time>2011-01-22T11:18:43Z</time>
      </trkpt>
      <trkpt lat="44.89929" lon="6.60189">
        <ele>1946.6</ele>
        <time>2011-01-22T11:18:49Z</time>
      </trkpt>
      <trkpt lat="44.8993" lon="6.6018">
        <ele>1949.2</ele>
        <time>2011-01-22T11:18:51Z</time>
      </trkpt>
      <trkpt lat="44.89931" lon="6.6016">
        <ele>1953.6</ele>
        <time>2011-01-22T11:18:55Z</time>
      </trkpt>
      <trkpt lat="44.89933" lon="6.60131">
        <ele>1960.6</ele>
        <time>2011-01-22T11:19:01Z</time>
      </trkpt>
      <trkpt lat="44.89934" lon="6.60104">
        <ele>1967.6</ele>
        <time>2011-01-22T11:19:07Z</time>
      </trkpt>
      <trkpt lat="44.89936" lon="6.60086">
        <ele>1972.6</ele>
        <time>2011-01-22T11:19:11Z</time>
      </trkpt>
      <trkpt lat="44.89937" lon="6.60077">
        <ele>1975</ele>
        <time>2011-01-22T11:19:13Z</time>
      </trkpt>
      <trkpt lat="44.89939" lon="6.60059">
        <ele>1980.2</ele>
        <time>2011-01-22T11:19:17Z</time>
      </trkpt>
      <trkpt lat="44.89939" lon="6.6005">
        <ele>1983</ele>
        <time>2011-01-22T11:19:19Z</time>
      </trkpt>
      <trkpt lat="44.8994" lon="6.60036">
        <ele>1987</ele>
        <time>2011-01-22T11:19:22Z</time>
      </trkpt>
      <trkpt lat="44.89942" lon="6.60024">
        <ele>1991</ele>
        <time>2011-01-22T11:19:25Z</time>
      </trkpt>
      <trkpt lat="44.89945" lon="6.60009">
        <ele>1996.2</ele>
        <time>2011-01-22T11:19:29Z</time>
      </trkpt>
      <trkpt lat="44.89946" lon="6.59995">
        <ele>2000.2</ele>
        <time>2011-01-22T11:19:32Z</time>
      </trkpt>
      <trkpt lat="44.89947" lon="6.59981">
        <ele>2004</ele>
        <time>2011-01-22T11:19:35Z</time>
      </trkpt>
      <trkpt lat="44.89948" lon="6.59966">
        <ele>2008</ele>
        <time>2011-01-22T11:19:38Z</time>
      </trkpt>
      <trkpt lat="44.89949" lon="6.59941">
        <ele>2014.4</ele>
        <time>2011-01-22T11:19:43Z</time>
      </trkpt>
      <trkpt lat="44.89949" lon="6.59936">
        <ele>2015.8</ele>
        <time>2011-01-22T11:19:44Z</time>
      </trkpt>
      <trkpt lat="44.89951" lon="6.59908">
        <ele>2023.6</ele>
        <time>2011-01-22T11:19:50Z</time>
      </trkpt>
      <trkpt lat="44.89952" lon="6.59893">
        <ele>2027.4</ele>
        <time>2011-01-22T11:19:53Z</time>
      </trkpt>
      <trkpt lat="44.89953" lon="6.59882">
        <ele>2031</ele>
        <time>2011-01-22T11:19:56Z</time>
      </trkpt>
      <trkpt lat="44.89955" lon="6.59864">
        <ele>2036.2</ele>
        <time>2011-01-22T11:20:00Z</time>
      </trkpt>
      <trkpt lat="44.89955" lon="6.59854">
        <ele>2038.8</ele>
        <time>2011-01-22T11:20:02Z</time>
      </trkpt>
      <trkpt lat="44.89959" lon="6.59826">
        <ele>2046.4</ele>
        <time>2011-01-22T11:20:08Z</time>
      </trkpt>
      <trkpt lat="44.89961" lon="6.59802">
        <ele>2052.6</ele>
        <time>2011-01-22T11:20:13Z</time>
      </trkpt>
      <trkpt lat="44.89961" lon="6.59798">
        <ele>2053.8</ele>
        <time>2011-01-22T11:20:14Z</time>
      </trkpt>
      <trkpt lat="44.89965" lon="6.59769">
        <ele>2061.8</ele>
        <time>2011-01-22T11:20:20Z</time>
      </trkpt>
      <trkpt lat="44.89966" lon="6.59751">
        <ele>2067.2</ele>
        <time>2011-01-22T11:20:24Z</time>
      </trkpt>
      <trkpt lat="44.89967" lon="6.59742">
        <ele>2070</ele>
        <time>2011-01-22T11:20:26Z</time>
      </trkpt>
      <trkpt lat="44.89969" lon="6.59714">
        <ele>2078.4</ele>
        <time>2011-01-22T11:20:32Z</time>
      </trkpt>
      <trkpt lat="44.8997" lon="6.5971">
        <ele>2080</ele>
        <time>2011-01-22T11:20:33Z</time>
      </trkpt>
      <trkpt lat="44.89972" lon="6.59687">
        <ele>2087.6</ele>
        <time>2011-01-22T11:20:38Z</time>
      </trkpt>
      <trkpt lat="44.89973" lon="6.59669">
        <ele>2093.6</ele>
        <time>2011-01-22T11:20:42Z</time>
      </trkpt>
      <trkpt lat="44.89973" lon="6.5966">
        <ele>2096.4</ele>
        <time>2011-01-22T11:20:44Z</time>
      </trkpt>
      <trkpt lat="44.89974" lon="6.59632">
        <ele>2105.4</ele>
        <time>2011-01-22T11:20:50Z</time>
      </trkpt>
      <trkpt lat="44.89976" lon="6.59604">
        <ele>2114.8</ele>
        <time>2011-01-22T11:20:56Z</time>
      </trkpt>
      <trkpt lat="44.89978" lon="6.5959">
        <ele>2119.6</ele>
        <time>2011-01-22T11:20:59Z</time>
      </trkpt>
      <trkpt lat="44.89979" lon="6.59576">
        <ele>2124.4</ele>
        <time>2011-01-22T11:21:02Z</time>
      </trkpt>
      <trkpt lat="44.89981" lon="6.59548">
        <ele>2133.8</ele>
        <time>2011-01-22T11:21:08Z</time>
      </trkpt>
      <trkpt lat="44.89983" lon="6.5952">
        <ele>2142.6</ele>
        <time>2011-01-22T11:21:14Z</time>
      </trkpt>
      <trkpt lat="44.89984" lon="6.59493">
        <ele>2151</ele>
        <time>2011-01-22T11:21:20Z</time>
      </trkpt>
      <trkpt lat="44.89984" lon="6.59478">
        <ele>2155</ele>
        <time>2011-01-22T11:21:23Z</time>
      </trkpt>
      <trkpt lat="44.89985" lon="6.59464">
        <ele>2159</ele>
        <time>2011-01-22T11:21:26Z</time>
      </trkpt>
      <trkpt lat="44.89987" lon="6.59445">
        <ele>2164.4</ele>
        <time>2011-01-22T11:21:30Z</time>
      </trkpt>
      <trkpt lat="44.89987" lon="6.59436">
        <ele>2167</ele>
        <time>2011-01-22T11:21:32Z</time>
      </trkpt>
      <trkpt lat="44.8999" lon="6.59407">
        <ele>2174.8</ele>
        <time>2011-01-22T11:21:38Z</time>
      </trkpt>
      <trkpt lat="44.89992" lon="6.5939">
        <ele>2180.4</ele>
        <time>2011-01-22T11:21:42Z</time>
      </trkpt>
      <trkpt lat="44.89993" lon="6.5938">
        <ele>2183</ele>
        <time>2011-01-22T11:21:44Z</time>
      </trkpt>
      <trkpt lat="44.89995" lon="6.59352">
        <ele>2191.4</ele>
        <time>2011-01-22T11:21:50Z</time>
      </trkpt>
      <trkpt lat="44.89997" lon="6.59325">
        <ele>2199.4</ele>
        <time>2011-01-22T11:21:56Z</time>
      </trkpt>
      <trkpt lat="44.89999" lon="6.593">
        <ele>2206.2</ele>
        <time>2011-01-22T11:22:01Z</time>
      </trkpt>
      <trkpt lat="44.89999" lon="6.59295">
        <ele>2207.4</ele>
        <time>2011-01-22T11:22:02Z</time>
      </trkpt>
      <trkpt lat="44.9" lon="6.59266">
        <ele>2215.4</ele>
        <time>2011-01-22T11:22:08Z</time>
      </trkpt>
      <trkpt lat="44.90001" lon="6.59262">
        <ele>2216.8</ele>
        <time>2011-01-22T11:22:09Z</time>
      </trkpt>
      <trkpt lat="44.90003" lon="6.59239">
        <ele>2223.6</ele>
        <time>2011-01-22T11:22:14Z</time>
      </trkpt>
      <trkpt lat="44.90004" lon="6.59231">
        <ele>2226.2</ele>
        <time>2011-01-22T11:22:16Z</time>
      </trkpt>
      <trkpt lat="44.90005" lon="6.59211">
        <ele>2231.4</ele>
        <time>2011-01-22T11:22:20Z</time>
      </trkpt>
      <trkpt lat="44.90005" lon="6.59206">
        <ele>2232.8</ele>
        <time>2011-01-22T11:22:21Z</time>
      </trkpt>
      <trkpt lat="44.90007" lon="6.59185">
        <ele>2238.2</ele>
        <time>2011-01-22T11:22:25Z</time>
      </trkpt>
      <trkpt lat="44.90009" lon="6.59157">
        <ele>2245.8</ele>
        <time>2011-01-22T11:22:31Z</time>
      </trkpt>
      <trkpt lat="44.90009" lon="6.59152">
        <ele>2247</ele>
        <time>2011-01-22T11:22:32Z</time>
      </trkpt>
      <trkpt lat="44.90011" lon="6.59128">
        <ele>2253</ele>
        <time>2011-01-22T11:22:37Z</time>
      </trkpt>
      <trkpt lat="44.90014" lon="6.59109">
        <ele>2257.6</ele>
        <time>2011-01-22T11:22:41Z</time>
      </trkpt>
      <trkpt lat="44.90014" lon="6.59099">
        <ele>2259.8</ele>
        <time>2011-01-22T11:22:43Z</time>
      </trkpt>
      <trkpt lat="44.90014" lon="6.59073">
        <ele>2265</ele>
        <time>2011-01-22T11:22:48Z</time>
      </trkpt>
      <trkpt lat="44.90017" lon="6.59046">
        <ele>2271.4</ele>
        <time>2011-01-22T11:22:54Z</time>
      </trkpt>
      <trkpt lat="44.90019" lon="6.59038">
        <ele>2273.6</ele>
        <time>2011-01-22T11:22:56Z</time>
      </trkpt>
      <trkpt lat="44.9002" lon="6.5902">
        <ele>2277.6</ele>
        <time>2011-01-22T11:23:00Z</time>
      </trkpt>
      <trkpt lat="44.9002" lon="6.59004">
        <ele>2280.4</ele>
        <time>2011-01-22T11:23:03Z</time>
      </trkpt>
      <trkpt lat="44.9002" lon="6.5899">
        <ele>2283.2</ele>
        <time>2011-01-22T11:23:06Z</time>
      </trkpt>
      <trkpt lat="44.90022" lon="6.58962">
        <ele>2288.2</ele>
        <time>2011-01-22T11:23:12Z</time>
      </trkpt>
      <trkpt lat="44.90022" lon="6.58957">
        <ele>2289</ele>
        <time>2011-01-22T11:23:13Z</time>
      </trkpt>
      <trkpt lat="44.90025" lon="6.58933">
        <ele>2293</ele>
        <time>2011-01-22T11:23:18Z</time>
      </trkpt>
      <trkpt lat="44.90027" lon="6.58915">
        <ele>2296.6</ele>
        <time>2011-01-22T11:23:22Z</time>
      </trkpt>
      <trkpt lat="44.90028" lon="6.58905">
        <ele>2298.4</ele>
        <time>2011-01-22T11:23:24Z</time>
      </trkpt>
      <trkpt lat="44.90031" lon="6.58878">
        <ele>2304</ele>
        <time>2011-01-22T11:23:30Z</time>
      </trkpt>
      <trkpt lat="44.90031" lon="6.58869">
        <ele>2305.6</ele>
        <time>2011-01-22T11:23:32Z</time>
      </trkpt>
      <trkpt lat="44.90032" lon="6.58849">
        <ele>2309.4</ele>
        <time>2011-01-22T11:23:36Z</time>
      </trkpt>
      <trkpt lat="44.90034" lon="6.58835">
        <ele>2312.8</ele>
        <time>2011-01-22T11:23:39Z</time>
      </trkpt>
      <trkpt lat="44.90035" lon="6.5882">
        <ele>2315.8</ele>
        <time>2011-01-22T11:23:42Z</time>
      </trkpt>
      <trkpt lat="44.90037" lon="6.588">
        <ele>2319.6</ele>
        <time>2011-01-22T11:23:46Z</time>
      </trkpt>
      <trkpt lat="44.90038" lon="6.58791">
        <ele>2321.8</ele>
        <time>2011-01-22T11:23:48Z</time>
      </trkpt>
      <trkpt lat="44.90041" lon="6.58761">
        <ele>2327</ele>
        <time>2011-01-22T11:23:54Z</time>
      </trkpt>
      <trkpt lat="44.90041" lon="6.58756">
        <ele>2327.8</ele>
        <time>2011-01-22T11:23:55Z</time>
      </trkpt>
      <trkpt lat="44.90043" lon="6.58734">
        <ele>2331</ele>
        <time>2011-01-22T11:23:59Z</time>
      </trkpt>
      <trkpt lat="44.90046" lon="6.58708">
        <ele>2334.8</ele>
        <time>2011-01-22T11:24:04Z</time>
      </trkpt>
      <trkpt lat="44.90048" lon="6.5868">
        <ele>2339</ele>
        <time>2011-01-22T11:24:10Z</time>
      </trkpt>
      <trkpt lat="44.90049" lon="6.5867">
        <ele>2340.2</ele>
        <time>2011-01-22T11:24:12Z</time>
      </trkpt>
      <trkpt lat="44.90049" lon="6.58652">
        <ele>2342.4</ele>
        <time>2011-01-22T11:24:16Z</time>
      </trkpt>
      <trkpt lat="44.90049" lon="6.58649">
        <ele>2342.8</ele>
        <time>2011-01-22T11:24:17Z</time>
      </trkpt>
      <trkpt lat="44.9005" lon="6.58645">
        <ele>2344.4</ele>
        <time>2011-01-22T11:24:20Z</time>
      </trkpt>
      <trkpt lat="44.9005" lon="6.58644">
        <ele>2345</ele>
        <time>2011-01-22T11:24:22Z</time>
      </trkpt>
      <trkpt lat="44.90047" lon="6.58636">
        <ele>2352</ele>
        <time>2011-01-22T11:24:39Z</time>
      </trkpt>
      <trkpt lat="44.90048" lon="6.58634">
        <ele>2353</ele>
        <time>2011-01-22T11:24:42Z</time>
      </trkpt>
      <trkpt lat="44.90049" lon="6.5863">
        <ele>2354.2</ele>
        <time>2011-01-22T11:24:47Z</time>
      </trkpt>
      <trkpt lat="44.90052" lon="6.58628">
        <ele>2355.2</ele>
        <time>2011-01-22T11:24:53Z</time>
      </trkpt>
      <trkpt lat="44.90053" lon="6.58628">
        <ele>2355.4</ele>
        <time>2011-01-22T11:24:54Z</time>
      </trkpt>
      <trkpt lat="44.90056" lon="6.58629">
        <ele>2356.2</ele>
        <time>2011-01-22T11:25:00Z</time>
      </trkpt>
      <trkpt lat="44.9006" lon="6.58627">
        <ele>2357</ele>
        <time>2011-01-22T11:25:07Z</time>
      </trkpt>
      <trkpt lat="44.9006" lon="6.58627">
        <ele>2358</ele>
        <time>2011-01-22T11:25:16Z</time>
      </trkpt>
      <trkpt lat="44.90062" lon="6.58619">
        <ele>2359.8</ele>
        <time>2011-01-22T11:25:36Z</time>
      </trkpt>
      <trkpt lat="44.90062" lon="6.58617">
        <ele>2360.2</ele>
        <time>2011-01-22T11:25:44Z</time>
      </trkpt>
      <trkpt lat="44.90062" lon="6.58615">
        <ele>2360.2</ele>
        <time>2011-01-22T11:25:46Z</time>
      </trkpt>
      <trkpt lat="44.90058" lon="6.58608">
        <ele>2360.4</ele>
        <time>2011-01-22T11:25:49Z</time>
      </trkpt>
      <trkpt lat="44.90046" lon="6.5859">
        <ele>2360</ele>
        <time>2011-01-22T11:25:52Z</time>
      </trkpt>
      <trkpt lat="44.90033" lon="6.58578">
        <ele>2360</ele>
        <time>2011-01-22T11:25:54Z</time>
      </trkpt>
      <trkpt lat="44.90026" lon="6.58575">
        <ele>2359.8</ele>
        <time>2011-01-22T11:25:55Z</time>
      </trkpt>
      <trkpt lat="44.90012" lon="6.5857">
        <ele>2359.6</ele>
        <time>2011-01-22T11:25:58Z</time>
      </trkpt>
      <trkpt lat="44.90008" lon="6.58567">
        <ele>2359.6</ele>
        <time>2011-01-22T11:25:59Z</time>
      </trkpt>
      <trkpt lat="44.90003" lon="6.5856">
        <ele>2359.4</ele>
        <time>2011-01-22T11:26:01Z</time>
      </trkpt>
      <trkpt lat="44.89995" lon="6.58561">
        <ele>2359</ele>
        <time>2011-01-22T11:26:04Z</time>
      </trkpt>
      <trkpt lat="44.89992" lon="6.58561">
        <ele>2358.8</ele>
        <time>2011-01-22T11:26:05Z</time>
      </trkpt>
      <trkpt lat="44.89989" lon="6.58558">
        <ele>2358.6</ele>
        <time>2011-01-22T11:26:06Z</time>
      </trkpt>
      <trkpt lat="44.89986" lon="6.58539">
        <ele>2358.2</ele>
        <time>2011-01-22T11:26:09Z</time>
      </trkpt>
      <trkpt lat="44.89984" lon="6.58535">
        <ele>2358</ele>
        <time>2011-01-22T11:26:10Z</time>
      </trkpt>
      <trkpt lat="44.89975" lon="6.58527">
        <ele>2357.4</ele>
        <time>2011-01-22T11:26:12Z</time>
      </trkpt>
      <trkpt lat="44.89972" lon="6.58519">
        <ele>2357.2</ele>
        <time>2011-01-22T11:26:13Z</time>
      </trkpt>
      <trkpt lat="44.89968" lon="6.58508">
        <ele>2356.8</ele>
        <time>2011-01-22T11:26:15Z</time>
      </trkpt>
      <trkpt lat="44.89957" lon="6.58501">
        <ele>2356.2</ele>
        <time>2011-01-22T11:26:17Z</time>
      </trkpt>
      <trkpt lat="44.89948" lon="6.58482">
        <ele>2355.4</ele>
        <time>2011-01-22T11:26:19Z</time>
      </trkpt>
      <trkpt lat="44.89945" lon="6.58471">
        <ele>2355</ele>
        <time>2011-01-22T11:26:20Z</time>
      </trkpt>
      <trkpt lat="44.89938" lon="6.58446">
        <ele>2354.2</ele>
        <time>2011-01-22T11:26:22Z</time>
      </trkpt>
      <trkpt lat="44.89937" lon="6.58431">
        <ele>2353.8</ele>
        <time>2011-01-22T11:26:23Z</time>
      </trkpt>
      <trkpt lat="44.89936" lon="6.58417">
        <ele>2353.4</ele>
        <time>2011-01-22T11:26:24Z</time>
      </trkpt>
      <trkpt lat="44.89936" lon="6.58387">
        <ele>2352.6</ele>
        <time>2011-01-22T11:26:26Z</time>
      </trkpt>
      <trkpt lat="44.89936" lon="6.58355">
        <ele>2351.6</ele>
        <time>2011-01-22T11:26:28Z</time>
      </trkpt>
      <trkpt lat="44.89939" lon="6.58321">
        <ele>2350.6</ele>
        <time>2011-01-22T11:26:30Z</time>
      </trkpt>
      <trkpt lat="44.89941" lon="6.58287">
        <ele>2349.6</ele>
        <time>2011-01-22T11:26:32Z</time>
      </trkpt>
      <trkpt lat="44.89942" lon="6.58271">
        <ele>2349.2</ele>
        <time>2011-01-22T11:26:33Z</time>
      </trkpt>
      <trkpt lat="44.8994" lon="6.58255">
        <ele>2348.6</ele>
        <time>2011-01-22T11:26:34Z</time>
      </trkpt>
      <trkpt lat="44.89935" lon="6.58223">
        <ele>2347.6</ele>
        <time>2011-01-22T11:26:36Z</time>
      </trkpt>
      <trkpt lat="44.89928" lon="6.58189">
        <ele>2346.4</ele>
        <time>2011-01-22T11:26:38Z</time>
      </trkpt>
      <trkpt lat="44.89924" lon="6.58157">
        <ele>2345.4</ele>
        <time>2011-01-22T11:26:40Z</time>
      </trkpt>
      <trkpt lat="44.89918" lon="6.5812">
        <ele>2343.8</ele>
        <time>2011-01-22T11:26:43Z</time>
      </trkpt>
      <trkpt lat="44.89912" lon="6.58092">
        <ele>2342.2</ele>
        <time>2011-01-22T11:26:46Z</time>
      </trkpt>
      <trkpt lat="44.89909" lon="6.58085">
        <ele>2341.6</ele>
        <time>2011-01-22T11:26:47Z</time>
      </trkpt>
      <trkpt lat="44.89904" lon="6.58075">
        <ele>2340.8</ele>
        <time>2011-01-22T11:26:49Z</time>
      </trkpt>
      <trkpt lat="44.89901" lon="6.5807">
        <ele>2339.8</ele>
        <time>2011-01-22T11:26:51Z</time>
      </trkpt>
      <trkpt lat="44.89894" lon="6.58056">
        <ele>2337.6</ele>
        <time>2011-01-22T11:26:56Z</time>
      </trkpt>
      <trkpt lat="44.89892" lon="6.58047">
        <ele>2335.8</ele>
        <time>2011-01-22T11:27:00Z</time>
      </trkpt>
      <trkpt lat="44.89891" lon="6.58043">
        <ele>2333.8</ele>
        <time>2011-01-22T11:27:05Z</time>
      </trkpt>
      <trkpt lat="44.89891" lon="6.58039">
        <ele>2332.4</ele>
        <time>2011-01-22T11:27:09Z</time>
      </trkpt>
      <trkpt lat="44.8989" lon="6.58037">
        <ele>2330.6</ele>
        <time>2011-01-22T11:27:14Z</time>
      </trkpt>
      <trkpt lat="44.89887" lon="6.58036">
        <ele>2329.2</ele>
        <time>2011-01-22T11:27:18Z</time>
      </trkpt>
      <trkpt lat="44.89886" lon="6.58034">
        <ele>2327.6</ele>
        <time>2011-01-22T11:27:23Z</time>
      </trkpt>
      <trkpt lat="44.89884" lon="6.58035">
        <ele>2324</ele>
        <time>2011-01-22T11:27:35Z</time>
      </trkpt>
      <trkpt lat="44.89882" lon="6.58034">
        <ele>2320.8</ele>
        <time>2011-01-22T11:27:48Z</time>
      </trkpt>
      <trkpt lat="44.89881" lon="6.58035">
        <ele>2315.8</ele>
        <time>2011-01-22T11:28:10Z</time>
      </trkpt>
      <trkpt lat="44.8988" lon="6.58035">
        <ele>2315.6</ele>
        <time>2011-01-22T11:28:11Z</time>
      </trkpt>
      <trkpt lat="44.89879" lon="6.58035">
        <ele>2315.4</ele>
        <time>2011-01-22T11:28:12Z</time>
      </trkpt>
      <trkpt lat="44.89881" lon="6.58035">
        <ele>2312.8</ele>
        <time>2011-01-22T11:28:26Z</time>
      </trkpt>
      <trkpt lat="44.89882" lon="6.58036">
        <ele>2311.6</ele>
        <time>2011-01-22T11:28:35Z</time>
      </trkpt>
      <trkpt lat="44.89881" lon="6.58037">
        <ele>2307</ele>
        <time>2011-01-22T11:29:08Z</time>
      </trkpt>
      <trkpt lat="44.89882" lon="6.58036">
        <ele>2306</ele>
        <time>2011-01-22T11:29:16Z</time>
      </trkpt>
      <trkpt lat="44.89883" lon="6.58039">
        <ele>2296.6</ele>
        <time>2011-01-22T11:33:46Z</time>
      </trkpt>
      <trkpt lat="44.89882" lon="6.58042">
        <ele>2299.6</ele>
        <time>2011-01-22T11:35:05Z</time>
      </trkpt>
      <trkpt lat="44.89882" lon="6.58043">
        <ele>2304.2</ele>
        <time>2011-01-22T11:41:46Z</time>
      </trkpt>
      <trkpt lat="44.89883" lon="6.58034">
        <ele>2291.2</ele>
        <time>2011-01-22T11:48:00Z</time>
      </trkpt>
      <trkpt lat="44.89882" lon="6.58033">
        <ele>2291.4</ele>
        <time>2011-01-22T11:48:26Z</time>
      </trkpt>
      <trkpt lat="44.89882" lon="6.58028">
        <ele>2291.4</ele>
        <time>2011-01-22T11:48:32Z</time>
      </trkpt>
      <trkpt lat="44.89885" lon="6.58023">
        <ele>2291.4</ele>
        <time>2011-01-22T11:48:38Z</time>
      </trkpt>
      <trkpt lat="44.89886" lon="6.58022">
        <ele>2291.4</ele>
        <time>2011-01-22T11:48:43Z</time>
      </trkpt>
      <trkpt lat="44.89888" lon="6.58024">
        <ele>2291.2</ele>
        <time>2011-01-22T11:48:50Z</time>
      </trkpt>
      <trkpt lat="44.8989" lon="6.58026">
        <ele>2290.8</ele>
        <time>2011-01-22T11:48:56Z</time>
      </trkpt>
      <trkpt lat="44.8989" lon="6.58024">
        <ele>2290.6</ele>
        <time>2011-01-22T11:49:00Z</time>
      </trkpt>
      <trkpt lat="44.89889" lon="6.58023">
        <ele>2290.6</ele>
        <time>2011-01-22T11:49:01Z</time>
      </trkpt>
      <trkpt lat="44.89889" lon="6.58018">
        <ele>2290.4</ele>
        <time>2011-01-22T11:49:04Z</time>
      </trkpt>
      <trkpt lat="44.89889" lon="6.58017">
        <ele>2290.4</ele>
        <time>2011-01-22T11:49:05Z</time>
      </trkpt>
      <trkpt lat="44.8989" lon="6.58019">
        <ele>2290.4</ele>
        <time>2011-01-22T11:49:12Z</time>
      </trkpt>
      <trkpt lat="44.89892" lon="6.58024">
        <ele>2291</ele>
        <time>2011-01-22T11:49:17Z</time>
      </trkpt>
      <trkpt lat="44.89892" lon="6.5802">
        <ele>2290.8</ele>
        <time>2011-01-22T11:49:21Z</time>
      </trkpt>
      <trkpt lat="44.89889" lon="6.58018">
        <ele>2290.8</ele>
        <time>2011-01-22T11:49:24Z</time>
      </trkpt>
      <trkpt lat="44.89889" lon="6.58017">
        <ele>2290.8</ele>
        <time>2011-01-22T11:49:26Z</time>
      </trkpt>
      <trkpt lat="44.8989" lon="6.58016">
        <ele>2290.6</ele>
        <time>2011-01-22T11:49:29Z</time>
      </trkpt>
      <trkpt lat="44.8989" lon="6.58015">
        <ele>2290.6</ele>
        <time>2011-01-22T11:49:30Z</time>
      </trkpt>
      <trkpt lat="44.89893" lon="6.58017">
        <ele>2290.6</ele>
        <time>2011-01-22T11:49:34Z</time>
      </trkpt>
      <trkpt lat="44.89893" lon="6.58017">
        <ele>2290.4</ele>
        <time>2011-01-22T11:49:42Z</time>
      </trkpt>
      <trkpt lat="44.89892" lon="6.58013">
        <ele>2290.4</ele>
        <time>2011-01-22T11:49:46Z</time>
      </trkpt>
      <trkpt lat="44.89886" lon="6.58004">
        <ele>2290.8</ele>
        <time>2011-01-22T11:49:51Z</time>
      </trkpt>
      <trkpt lat="44.89885" lon="6.58002">
        <ele>2291</ele>
        <time>2011-01-22T11:49:53Z</time>
      </trkpt>
      <trkpt lat="44.89879" lon="6.57991">
        <ele>2292.2</ele>
        <time>2011-01-22T11:49:58Z</time>
      </trkpt>
      <trkpt lat="44.89885" lon="6.58001">
        <ele>2293.4</ele>
        <time>2011-01-22T11:50:06Z</time>
      </trkpt>
      <trkpt lat="44.89889" lon="6.58006">
        <ele>2293.8</ele>
        <time>2011-01-22T11:50:09Z</time>
      </trkpt>
      <trkpt lat="44.89887" lon="6.58007">
        <ele>2293.6</ele>
        <time>2011-01-22T11:50:20Z</time>
      </trkpt>
      <trkpt lat="44.89889" lon="6.58009">
        <ele>2293.4</ele>
        <time>2011-01-22T11:50:22Z</time>
      </trkpt>
      <trkpt lat="44.8989" lon="6.58009">
        <ele>2293.4</ele>
        <time>2011-01-22T11:50:24Z</time>
      </trkpt>
      <trkpt lat="44.89887" lon="6.58005">
        <ele>2293.2</ele>
        <time>2011-01-22T11:50:29Z</time>
      </trkpt>
      <trkpt lat="44.89885" lon="6.58004">
        <ele>2293</ele>
        <time>2011-01-22T11:50:31Z</time>
      </trkpt>
      <trkpt lat="44.89885" lon="6.58002">
        <ele>2293</ele>
        <time>2011-01-22T11:50:32Z</time>
      </trkpt>
      <trkpt lat="44.89885" lon="6.58007">
        <ele>2292.8</ele>
        <time>2011-01-22T11:50:39Z</time>
      </trkpt>
      <trkpt lat="44.89887" lon="6.58011">
        <ele>2292.6</ele>
        <time>2011-01-22T11:50:44Z</time>
      </trkpt>
      <trkpt lat="44.89888" lon="6.58013">
        <ele>2292.6</ele>
        <time>2011-01-22T11:50:49Z</time>
      </trkpt>
      <trkpt lat="44.89889" lon="6.58014">
        <ele>2292.6</ele>
        <time>2011-01-22T11:50:51Z</time>
      </trkpt>
      <trkpt lat="44.89892" lon="6.58018">
        <ele>2292.6</ele>
        <time>2011-01-22T11:50:56Z</time>
      </trkpt>
      <trkpt lat="44.89891" lon="6.58009">
        <ele>2293.2</ele>
        <time>2011-01-22T11:51:02Z</time>
      </trkpt>
      <trkpt lat="44.8989" lon="6.5801">
        <ele>2293</ele>
        <time>2011-01-22T11:51:06Z</time>
      </trkpt>
      <trkpt lat="44.89891" lon="6.58014">
        <ele>2292.8</ele>
        <time>2011-01-22T11:51:11Z</time>
      </trkpt>
      <trkpt lat="44.89891" lon="6.5802">
        <ele>2291.8</ele>
        <time>2011-01-22T11:51:19Z</time>
      </trkpt>
      <trkpt lat="44.8989" lon="6.58018">
        <ele>2291.4</ele>
        <time>2011-01-22T11:51:22Z</time>
      </trkpt>
      <trkpt lat="44.8989" lon="6.58017">
        <ele>2291.2</ele>
        <time>2011-01-22T11:51:24Z</time>
      </trkpt>
      <trkpt lat="44.8989" lon="6.58016">
        <ele>2291</ele>
        <time>2011-01-22T11:51:27Z</time>
      </trkpt>
      <trkpt lat="44.89888" lon="6.58021">
        <ele>2290.4</ele>
        <time>2011-01-22T11:51:32Z</time>
      </trkpt>
      <trkpt lat="44.89891" lon="6.58023">
        <ele>2290</ele>
        <time>2011-01-22T11:51:37Z</time>
      </trkpt>
      <trkpt lat="44.89891" lon="6.58021">
        <ele>2289.6</ele>
        <time>2011-01-22T11:51:41Z</time>
      </trkpt>
      <trkpt lat="44.8989" lon="6.58018">
        <ele>2289.6</ele>
        <time>2011-01-22T11:51:43Z</time>
      </trkpt>
      <trkpt lat="44.89891" lon="6.5802">
        <ele>2289.2</ele>
        <time>2011-01-22T11:51:47Z</time>
      </trkpt>
      <trkpt lat="44.89892" lon="6.58016">
        <ele>2288.8</ele>
        <time>2011-01-22T11:51:51Z</time>
      </trkpt>
      <trkpt lat="44.89891" lon="6.58019">
        <ele>2288.6</ele>
        <time>2011-01-22T11:51:58Z</time>
      </trkpt>
      <trkpt lat="44.89891" lon="6.5802">
        <ele>2288.6</ele>
        <time>2011-01-22T11:51:59Z</time>
      </trkpt>
      <trkpt lat="44.89891" lon="6.58021">
        <ele>2288.6</ele>
        <time>2011-01-22T11:52:00Z</time>
      </trkpt>
      <trkpt lat="44.89891" lon="6.58023">
        <ele>2288.4</ele>
        <time>2011-01-22T11:52:05Z</time>
      </trkpt>
      <trkpt lat="44.89889" lon="6.5802">
        <ele>2288.8</ele>
        <time>2011-01-22T11:52:09Z</time>
      </trkpt>
      <trkpt lat="44.89889" lon="6.58019">
        <ele>2289.2</ele>
        <time>2011-01-22T11:52:13Z</time>
      </trkpt>
      <trkpt lat="44.89887" lon="6.5802">
        <ele>2289.4</ele>
        <time>2011-01-22T11:52:15Z</time>
      </trkpt>
      <trkpt lat="44.89886" lon="6.58019">
        <ele>2289.2</ele>
        <time>2011-01-22T11:52:17Z</time>
      </trkpt>
      <trkpt lat="44.89882" lon="6.58018">
        <ele>2289.4</ele>
        <time>2011-01-22T11:52:21Z</time>
      </trkpt>
      <trkpt lat="44.89882" lon="6.58017">
        <ele>2289.6</ele>
        <time>2011-01-22T11:52:22Z</time>
      </trkpt>
      <trkpt lat="44.8988" lon="6.58018">
        <ele>2290.2</ele>
        <time>2011-01-22T11:52:29Z</time>
      </trkpt>
      <trkpt lat="44.89881" lon="6.58025">
        <ele>2290</ele>
        <time>2011-01-22T11:52:33Z</time>
      </trkpt>
      <trkpt lat="44.89881" lon="6.58026">
        <ele>2290</ele>
        <time>2011-01-22T11:52:34Z</time>
      </trkpt>
      <trkpt lat="44.89881" lon="6.5803">
        <ele>2290</ele>
        <time>2011-01-22T11:52:37Z</time>
      </trkpt>
      <trkpt lat="44.89881" lon="6.58034">
        <ele>2290</ele>
        <time>2011-01-22T11:52:41Z</time>
      </trkpt>
      <trkpt lat="44.89881" lon="6.58036">
        <ele>2290</ele>
        <time>2011-01-22T11:52:43Z</time>
      </trkpt>
      <trkpt lat="44.89881" lon="6.58036">
        <ele>2290.2</ele>
        <time>2011-01-22T11:52:46Z</time>
      </trkpt>
      <trkpt lat="44.89882" lon="6.58038">
        <ele>2290.4</ele>
        <time>2011-01-22T11:53:04Z</time>
      </trkpt>
      <trkpt lat="44.89881" lon="6.5804">
        <ele>2290.2</ele>
        <time>2011-01-22T11:53:08Z</time>
      </trkpt>
      <trkpt lat="44.89883" lon="6.58041">
        <ele>2290.2</ele>
        <time>2011-01-22T11:53:14Z</time>
      </trkpt>
      <trkpt lat="44.89883" lon="6.58041">
        <ele>2290.4</ele>
        <time>2011-01-22T11:53:26Z</time>
      </trkpt>
      <trkpt lat="44.89881" lon="6.5804">
        <ele>2291</ele>
        <time>2011-01-22T11:53:42Z</time>
      </trkpt>
      <trkpt lat="44.8988" lon="6.58039">
        <ele>2293.4</ele>
        <time>2011-01-22T11:54:35Z</time>
      </trkpt>
      <trkpt lat="44.89881" lon="6.58038">
        <ele>2293.4</ele>
        <time>2011-01-22T11:54:38Z</time>
      </trkpt>
      <trkpt lat="44.89883" lon="6.58036">
        <ele>2292.6</ele>
        <time>2011-01-22T11:58:24Z</time>
      </trkpt>
      <trkpt lat="44.89883" lon="6.58039">
        <ele>2292.4</ele>
        <time>2011-01-22T11:58:35Z</time>
      </trkpt>
      <trkpt lat="44.89884" lon="6.58046">
        <ele>2292.4</ele>
        <time>2011-01-22T11:58:37Z</time>
      </trkpt>
      <trkpt lat="44.89886" lon="6.58049">
        <ele>2292.2</ele>
        <time>2011-01-22T11:58:38Z</time>
      </trkpt>
      <trkpt lat="44.89886" lon="6.58053">
        <ele>2292.2</ele>
        <time>2011-01-22T11:58:40Z</time>
      </trkpt>
      <trkpt lat="44.89879" lon="6.58058">
        <ele>2292</ele>
        <time>2011-01-22T11:58:44Z</time>
      </trkpt>
      <trkpt lat="44.89875" lon="6.58065">
        <ele>2291.6</ele>
        <time>2011-01-22T11:58:47Z</time>
      </trkpt>
      <trkpt lat="44.89873" lon="6.58068">
        <ele>2291.6</ele>
        <time>2011-01-22T11:58:48Z</time>
      </trkpt>
      <trkpt lat="44.89868" lon="6.58073">
        <ele>2291.4</ele>
        <time>2011-01-22T11:58:50Z</time>
      </trkpt>
      <trkpt lat="44.89862" lon="6.58086">
        <ele>2290.8</ele>
        <time>2011-01-22T11:58:53Z</time>
      </trkpt>
      <trkpt lat="44.89852" lon="6.58091">
        <ele>2290.4</ele>
        <time>2011-01-22T11:58:56Z</time>
      </trkpt>
      <trkpt lat="44.89848" lon="6.58095">
        <ele>2290.2</ele>
        <time>2011-01-22T11:58:57Z</time>
      </trkpt>
      <trkpt lat="44.89844" lon="6.58098">
        <ele>2289.8</ele>
        <time>2011-01-22T11:58:58Z</time>
      </trkpt>
      <trkpt lat="44.8984" lon="6.58098">
        <ele>2289.6</ele>
        <time>2011-01-22T11:58:59Z</time>
      </trkpt>
      <trkpt lat="44.89824" lon="6.58106">
        <ele>2288.8</ele>
        <time>2011-01-22T11:59:02Z</time>
      </trkpt>
      <trkpt lat="44.89818" lon="6.58109">
        <ele>2288.6</ele>
        <time>2011-01-22T11:59:03Z</time>
      </trkpt>
      <trkpt lat="44.89806" lon="6.58107">
        <ele>2288</ele>
        <time>2011-01-22T11:59:05Z</time>
      </trkpt>
      <trkpt lat="44.89793" lon="6.58109">
        <ele>2287.2</ele>
        <time>2011-01-22T11:59:07Z</time>
      </trkpt>
      <trkpt lat="44.89788" lon="6.58104">
        <ele>2287</ele>
        <time>2011-01-22T11:59:08Z</time>
      </trkpt>
      <trkpt lat="44.89771" lon="6.58086">
        <ele>2285.6</ele>
        <time>2011-01-22T11:59:11Z</time>
      </trkpt>
      <trkpt lat="44.89758" lon="6.58055">
        <ele>2284.2</ele>
        <time>2011-01-22T11:59:14Z</time>
      </trkpt>
      <trkpt lat="44.89749" lon="6.58031">
        <ele>2283</ele>
        <time>2011-01-22T11:59:16Z</time>
      </trkpt>
      <trkpt lat="44.89745" lon="6.58019">
        <ele>2282.4</ele>
        <time>2011-01-22T11:59:17Z</time>
      </trkpt>
      <trkpt lat="44.89742" lon="6.58007">
        <ele>2281.8</ele>
        <time>2011-01-22T11:59:18Z</time>
      </trkpt>
      <trkpt lat="44.89734" lon="6.57984">
        <ele>2280.6</ele>
        <time>2011-01-22T11:59:20Z</time>
      </trkpt>
      <trkpt lat="44.89711" lon="6.5797">
        <ele>2279.2</ele>
        <time>2011-01-22T11:59:22Z</time>
      </trkpt>
      <trkpt lat="44.89682" lon="6.57972">
        <ele>2277.8</ele>
        <time>2011-01-22T11:59:24Z</time>
      </trkpt>
      <trkpt lat="44.89658" lon="6.57957">
        <ele>2276</ele>
        <time>2011-01-22T11:59:26Z</time>
      </trkpt>
      <trkpt lat="44.89636" lon="6.57944">
        <ele>2274.4</ele>
        <time>2011-01-22T11:59:28Z</time>
      </trkpt>
      <trkpt lat="44.89623" lon="6.57942">
        <ele>2273.6</ele>
        <time>2011-01-22T11:59:29Z</time>
      </trkpt>
      <trkpt lat="44.89611" lon="6.5794">
        <ele>2272.6</ele>
        <time>2011-01-22T11:59:30Z</time>
      </trkpt>
      <trkpt lat="44.89593" lon="6.57927">
        <ele>2270.6</ele>
        <time>2011-01-22T11:59:32Z</time>
      </trkpt>
      <trkpt lat="44.89571" lon="6.5792">
        <ele>2267.4</ele>
        <time>2011-01-22T11:59:35Z</time>
      </trkpt>
      <trkpt lat="44.89544" lon="6.57912">
        <ele>2264.2</ele>
        <time>2011-01-22T11:59:38Z</time>
      </trkpt>
      <trkpt lat="44.89526" lon="6.57923">
        <ele>2261.8</ele>
        <time>2011-01-22T11:59:40Z</time>
      </trkpt>
      <trkpt lat="44.89515" lon="6.5793">
        <ele>2260.6</ele>
        <time>2011-01-22T11:59:41Z</time>
      </trkpt>
      <trkpt lat="44.89505" lon="6.57932">
        <ele>2259.4</ele>
        <time>2011-01-22T11:59:42Z</time>
      </trkpt>
      <trkpt lat="44.89494" lon="6.57934">
        <ele>2258</ele>
        <time>2011-01-22T11:59:43Z</time>
      </trkpt>
      <trkpt lat="44.89482" lon="6.57938">
        <ele>2256.8</ele>
        <time>2011-01-22T11:59:44Z</time>
      </trkpt>
      <trkpt lat="44.89454" lon="6.57952">
        <ele>2254</ele>
        <time>2011-01-22T11:59:46Z</time>
      </trkpt>
      <trkpt lat="44.89439" lon="6.57958">
        <ele>2252.6</ele>
        <time>2011-01-22T11:59:47Z</time>
      </trkpt>
      <trkpt lat="44.89424" lon="6.57965">
        <ele>2251.2</ele>
        <time>2011-01-22T11:59:48Z</time>
      </trkpt>
      <trkpt lat="44.89396" lon="6.57975">
        <ele>2248.6</ele>
        <time>2011-01-22T11:59:50Z</time>
      </trkpt>
      <trkpt lat="44.89377" lon="6.57985">
        <ele>2245.4</ele>
        <time>2011-01-22T11:59:52Z</time>
      </trkpt>
      <trkpt lat="44.89367" lon="6.57994">
        <ele>2243.8</ele>
        <time>2011-01-22T11:59:53Z</time>
      </trkpt>
      <trkpt lat="44.8936" lon="6.58007">
        <ele>2242.2</ele>
        <time>2011-01-22T11:59:54Z</time>
      </trkpt>
      <trkpt lat="44.8936" lon="6.58022">
        <ele>2240.8</ele>
        <time>2011-01-22T11:59:55Z</time>
      </trkpt>
      <trkpt lat="44.89356" lon="6.58034">
        <ele>2239.2</ele>
        <time>2011-01-22T11:59:56Z</time>
      </trkpt>
      <trkpt lat="44.89356" lon="6.58043">
        <ele>2237.6</ele>
        <time>2011-01-22T11:59:57Z</time>
      </trkpt>
      <trkpt lat="44.89364" lon="6.58042">
        <ele>2236.2</ele>
        <time>2011-01-22T11:59:58Z</time>
      </trkpt>
      <trkpt lat="44.89365" lon="6.58034">
        <ele>2233.4</ele>
        <time>2011-01-22T12:00:00Z</time>
      </trkpt>
      <trkpt lat="44.89366" lon="6.58027">
        <ele>2228</ele>
        <time>2011-01-22T12:00:04Z</time>
      </trkpt>
      <trkpt lat="44.89368" lon="6.58027">
        <ele>2206.4</ele>
        <time>2011-01-22T12:00:22Z</time>
      </trkpt>
      <trkpt lat="44.89372" lon="6.58023">
        <ele>2189.4</ele>
        <time>2011-01-22T12:00:39Z</time>
      </trkpt>
      <trkpt lat="44.89374" lon="6.58023">
        <ele>2187.4</ele>
        <time>2011-01-22T12:00:41Z</time>
      </trkpt>
      <trkpt lat="44.89379" lon="6.58022">
        <ele>2182.2</ele>
        <time>2011-01-22T12:00:47Z</time>
      </trkpt>
      <trkpt lat="44.89381" lon="6.58021">
        <ele>2180.4</ele>
        <time>2011-01-22T12:00:49Z</time>
      </trkpt>
      <trkpt lat="44.89389" lon="6.58017">
        <ele>2177.2</ele>
        <time>2011-01-22T12:00:53Z</time>
      </trkpt>
      <trkpt lat="44.8939" lon="6.58016">
        <ele>2176.4</ele>
        <time>2011-01-22T12:00:54Z</time>
      </trkpt>
      <trkpt lat="44.89395" lon="6.58013">
        <ele>2174.2</ele>
        <time>2011-01-22T12:00:57Z</time>
      </trkpt>
      <trkpt lat="44.89408" lon="6.58005">
        <ele>2169.4</ele>
        <time>2011-01-22T12:01:04Z</time>
      </trkpt>
      <trkpt lat="44.8941" lon="6.58004">
        <ele>2168.8</ele>
        <time>2011-01-22T12:01:05Z</time>
      </trkpt>
      <trkpt lat="44.89424" lon="6.57996">
        <ele>2164</ele>
        <time>2011-01-22T12:01:13Z</time>
      </trkpt>
      <trkpt lat="44.89426" lon="6.57995">
        <ele>2163.6</ele>
        <time>2011-01-22T12:01:14Z</time>
      </trkpt>
      <trkpt lat="44.89441" lon="6.57987">
        <ele>2159.6</ele>
        <time>2011-01-22T12:01:22Z</time>
      </trkpt>
      <trkpt lat="44.89444" lon="6.57985">
        <ele>2158.8</ele>
        <time>2011-01-22T12:01:24Z</time>
      </trkpt>
      <trkpt lat="44.8946" lon="6.57977">
        <ele>2155.4</ele>
        <time>2011-01-22T12:01:33Z</time>
      </trkpt>
      <trkpt lat="44.89462" lon="6.57976">
        <ele>2155.2</ele>
        <time>2011-01-22T12:01:34Z</time>
      </trkpt>
      <trkpt lat="44.89475" lon="6.5797">
        <ele>2153.2</ele>
        <time>2011-01-22T12:01:41Z</time>
      </trkpt>
      <trkpt lat="44.8948" lon="6.57967">
        <ele>2152.4</ele>
        <time>2011-01-22T12:01:44Z</time>
      </trkpt>
      <trkpt lat="44.89492" lon="6.57961">
        <ele>2151.2</ele>
        <time>2011-01-22T12:01:51Z</time>
      </trkpt>
      <trkpt lat="44.89497" lon="6.57958">
        <ele>2150.8</ele>
        <time>2011-01-22T12:01:54Z</time>
      </trkpt>
      <trkpt lat="44.8951" lon="6.57951">
        <ele>2150.2</ele>
        <time>2011-01-22T12:02:02Z</time>
      </trkpt>
      <trkpt lat="44.89514" lon="6.57949">
        <ele>2150.2</ele>
        <time>2011-01-22T12:02:04Z</time>
      </trkpt>
      <trkpt lat="44.89524" lon="6.57943">
        <ele>2150.2</ele>
        <time>2011-01-22T12:02:10Z</time>
      </trkpt>
      <trkpt lat="44.89531" lon="6.57939">
        <ele>2150.8</ele>
        <time>2011-01-22T12:02:14Z</time>
      </trkpt>
      <trkpt lat="44.89539" lon="6.57935">
        <ele>2151.8</ele>
        <time>2011-01-22T12:02:19Z</time>
      </trkpt>
      <trkpt lat="44.89549" lon="6.5793">
        <ele>2153.8</ele>
        <time>2011-01-22T12:02:25Z</time>
      </trkpt>
      <trkpt lat="44.89559" lon="6.57925">
        <ele>2156.2</ele>
        <time>2011-01-22T12:02:31Z</time>
      </trkpt>
      <trkpt lat="44.89567" lon="6.57922">
        <ele>2157.8</ele>
        <time>2011-01-22T12:02:35Z</time>
      </trkpt>
      <trkpt lat="44.89579" lon="6.57915">
        <ele>2161</ele>
        <time>2011-01-22T12:02:42Z</time>
      </trkpt>
      <trkpt lat="44.89585" lon="6.57912">
        <ele>2162.4</ele>
        <time>2011-01-22T12:02:45Z</time>
      </trkpt>
      <trkpt lat="44.89603" lon="6.57903">
        <ele>2167.4</ele>
        <time>2011-01-22T12:02:55Z</time>
      </trkpt>
      <trkpt lat="44.89605" lon="6.57902">
        <ele>2168</ele>
        <time>2011-01-22T12:02:56Z</time>
      </trkpt>
      <trkpt lat="44.8961" lon="6.57899">
        <ele>2169.6</ele>
        <time>2011-01-22T12:03:00Z</time>
      </trkpt>
      <trkpt lat="44.8962" lon="6.57894">
        <ele>2172.8</ele>
        <time>2011-01-22T12:03:05Z</time>
      </trkpt>
      <trkpt lat="44.89623" lon="6.57892">
        <ele>2174</ele>
        <time>2011-01-22T12:03:07Z</time>
      </trkpt>
      <trkpt lat="44.89638" lon="6.57884">
        <ele>2178.4</ele>
        <time>2011-01-22T12:03:16Z</time>
      </trkpt>
      <trkpt lat="44.89641" lon="6.57883">
        <ele>2179.8</ele>
        <time>2011-01-22T12:03:19Z</time>
      </trkpt>
      <trkpt lat="44.89656" lon="6.57875">
        <ele>2184</ele>
        <time>2011-01-22T12:03:29Z</time>
      </trkpt>
      <trkpt lat="44.89675" lon="6.57865">
        <ele>2188.6</ele>
        <time>2011-01-22T12:03:39Z</time>
      </trkpt>
      <trkpt lat="44.89678" lon="6.57863">
        <ele>2189.4</ele>
        <time>2011-01-22T12:03:41Z</time>
      </trkpt>
      <trkpt lat="44.89693" lon="6.57855">
        <ele>2193.2</ele>
        <time>2011-01-22T12:03:49Z</time>
      </trkpt>
      <trkpt lat="44.89703" lon="6.5785">
        <ele>2196.2</ele>
        <time>2011-01-22T12:03:55Z</time>
      </trkpt>
      <trkpt lat="44.8971" lon="6.57846">
        <ele>2198.2</ele>
        <time>2011-01-22T12:03:59Z</time>
      </trkpt>
      <trkpt lat="44.89721" lon="6.5784">
        <ele>2201.2</ele>
        <time>2011-01-22T12:04:05Z</time>
      </trkpt>
      <trkpt lat="44.89728" lon="6.57836">
        <ele>2203</ele>
        <time>2011-01-22T12:04:09Z</time>
      </trkpt>
      <trkpt lat="44.89747" lon="6.57826">
        <ele>2207.4</ele>
        <time>2011-01-22T12:04:19Z</time>
      </trkpt>
      <trkpt lat="44.89749" lon="6.57826">
        <ele>2207.8</ele>
        <time>2011-01-22T12:04:20Z</time>
      </trkpt>
      <trkpt lat="44.89765" lon="6.57817">
        <ele>2211.8</ele>
        <time>2011-01-22T12:04:29Z</time>
      </trkpt>
      <trkpt lat="44.89773" lon="6.57812">
        <ele>2214.2</ele>
        <time>2011-01-22T12:04:34Z</time>
      </trkpt>
      <trkpt lat="44.89782" lon="6.57807">
        <ele>2216.8</ele>
        <time>2011-01-22T12:04:39Z</time>
      </trkpt>
      <trkpt lat="44.898" lon="6.57798">
        <ele>2221.6</ele>
        <time>2011-01-22T12:04:49Z</time>
      </trkpt>
      <trkpt lat="44.89818" lon="6.57789">
        <ele>2226.4</ele>
        <time>2011-01-22T12:04:59Z</time>
      </trkpt>
      <trkpt lat="44.89825" lon="6.57785">
        <ele>2228.2</ele>
        <time>2011-01-22T12:05:03Z</time>
      </trkpt>
      <trkpt lat="44.89835" lon="6.5778">
        <ele>2231.2</ele>
        <time>2011-01-22T12:05:09Z</time>
      </trkpt>
      <trkpt lat="44.89851" lon="6.57772">
        <ele>2236.2</ele>
        <time>2011-01-22T12:05:18Z</time>
      </trkpt>
      <trkpt lat="44.89852" lon="6.57771">
        <ele>2237</ele>
        <time>2011-01-22T12:05:19Z</time>
      </trkpt>
      <trkpt lat="44.8987" lon="6.57762">
        <ele>2243.6</ele>
        <time>2011-01-22T12:05:29Z</time>
      </trkpt>
      <trkpt lat="44.89875" lon="6.57759">
        <ele>2245.6</ele>
        <time>2011-01-22T12:05:32Z</time>
      </trkpt>
      <trkpt lat="44.89888" lon="6.57752">
        <ele>2251.6</ele>
        <time>2011-01-22T12:05:40Z</time>
      </trkpt>
      <trkpt lat="44.89901" lon="6.57745">
        <ele>2258</ele>
        <time>2011-01-22T12:05:48Z</time>
      </trkpt>
      <trkpt lat="44.89906" lon="6.57743">
        <ele>2260.4</ele>
        <time>2011-01-22T12:05:51Z</time>
      </trkpt>
      <trkpt lat="44.89919" lon="6.57734">
        <ele>2267</ele>
        <time>2011-01-22T12:05:59Z</time>
      </trkpt>
      <trkpt lat="44.89923" lon="6.57732">
        <ele>2268.6</ele>
        <time>2011-01-22T12:06:01Z</time>
      </trkpt>
      <trkpt lat="44.89941" lon="6.57722">
        <ele>2278</ele>
        <time>2011-01-22T12:06:12Z</time>
      </trkpt>
      <trkpt lat="44.89949" lon="6.57718">
        <ele>2282.4</ele>
        <time>2011-01-22T12:06:17Z</time>
      </trkpt>
      <trkpt lat="44.8996" lon="6.57712">
        <ele>2287.4</ele>
        <time>2011-01-22T12:06:23Z</time>
      </trkpt>
      <trkpt lat="44.89968" lon="6.57708">
        <ele>2291.4</ele>
        <time>2011-01-22T12:06:28Z</time>
      </trkpt>
      <trkpt lat="44.89977" lon="6.57703">
        <ele>2295.2</ele>
        <time>2011-01-22T12:06:33Z</time>
      </trkpt>
      <trkpt lat="44.89994" lon="6.57694">
        <ele>2303</ele>
        <time>2011-01-22T12:06:43Z</time>
      </trkpt>
      <trkpt lat="44.90001" lon="6.5769">
        <ele>2306</ele>
        <time>2011-01-22T12:06:47Z</time>
      </trkpt>
      <trkpt lat="44.90011" lon="6.57684">
        <ele>2310.6</ele>
        <time>2011-01-22T12:06:53Z</time>
      </trkpt>
      <trkpt lat="44.90029" lon="6.57675">
        <ele>2319.4</ele>
        <time>2011-01-22T12:07:04Z</time>
      </trkpt>
      <trkpt lat="44.90037" lon="6.5767">
        <ele>2323.4</ele>
        <time>2011-01-22T12:07:09Z</time>
      </trkpt>
      <trkpt lat="44.90047" lon="6.57665">
        <ele>2328.6</ele>
        <time>2011-01-22T12:07:15Z</time>
      </trkpt>
      <trkpt lat="44.90064" lon="6.57657">
        <ele>2337.2</ele>
        <time>2011-01-22T12:07:25Z</time>
      </trkpt>
      <trkpt lat="44.90066" lon="6.57656">
        <ele>2338</ele>
        <time>2011-01-22T12:07:26Z</time>
      </trkpt>
      <trkpt lat="44.90083" lon="6.57647">
        <ele>2346.6</ele>
        <time>2011-01-22T12:07:36Z</time>
      </trkpt>
      <trkpt lat="44.9009" lon="6.57643">
        <ele>2349.8</ele>
        <time>2011-01-22T12:07:40Z</time>
      </trkpt>
      <trkpt lat="44.901" lon="6.57637">
        <ele>2354.4</ele>
        <time>2011-01-22T12:07:46Z</time>
      </trkpt>
      <trkpt lat="44.90102" lon="6.57636">
        <ele>2355</ele>
        <time>2011-01-22T12:07:47Z</time>
      </trkpt>
      <trkpt lat="44.90118" lon="6.57629">
        <ele>2360.6</ele>
        <time>2011-01-22T12:07:56Z</time>
      </trkpt>
      <trkpt lat="44.90134" lon="6.5762">
        <ele>2365</ele>
        <time>2011-01-22T12:08:05Z</time>
      </trkpt>
      <trkpt lat="44.90136" lon="6.57619">
        <ele>2365.4</ele>
        <time>2011-01-22T12:08:06Z</time>
      </trkpt>
      <trkpt lat="44.90155" lon="6.57609">
        <ele>2369</ele>
        <time>2011-01-22T12:08:16Z</time>
      </trkpt>
      <trkpt lat="44.90159" lon="6.57607">
        <ele>2369.6</ele>
        <time>2011-01-22T12:08:18Z</time>
      </trkpt>
      <trkpt lat="44.90173" lon="6.57599">
        <ele>2371.8</ele>
        <time>2011-01-22T12:08:26Z</time>
      </trkpt>
      <trkpt lat="44.90192" lon="6.57589">
        <ele>2374.4</ele>
        <time>2011-01-22T12:08:36Z</time>
      </trkpt>
      <trkpt lat="44.90195" lon="6.57588">
        <ele>2375</ele>
        <time>2011-01-22T12:08:38Z</time>
      </trkpt>
      <trkpt lat="44.9021" lon="6.5758">
        <ele>2377</ele>
        <time>2011-01-22T12:08:46Z</time>
      </trkpt>
      <trkpt lat="44.90228" lon="6.57571">
        <ele>2380</ele>
        <time>2011-01-22T12:08:56Z</time>
      </trkpt>
      <trkpt lat="44.9023" lon="6.5757">
        <ele>2380.2</ele>
        <time>2011-01-22T12:08:57Z</time>
      </trkpt>
      <trkpt lat="44.90246" lon="6.57561">
        <ele>2383</ele>
        <time>2011-01-22T12:09:06Z</time>
      </trkpt>
      <trkpt lat="44.90264" lon="6.57552">
        <ele>2386.2</ele>
        <time>2011-01-22T12:09:16Z</time>
      </trkpt>
      <trkpt lat="44.90281" lon="6.57543">
        <ele>2388.8</ele>
        <time>2011-01-22T12:09:25Z</time>
      </trkpt>
      <trkpt lat="44.903" lon="6.57533">
        <ele>2391.6</ele>
        <time>2011-01-22T12:09:35Z</time>
      </trkpt>
      <trkpt lat="44.90305" lon="6.5753">
        <ele>2392.4</ele>
        <time>2011-01-22T12:09:38Z</time>
      </trkpt>
      <trkpt lat="44.90318" lon="6.57523">
        <ele>2394.6</ele>
        <time>2011-01-22T12:09:45Z</time>
      </trkpt>
      <trkpt lat="44.90336" lon="6.57514">
        <ele>2397.8</ele>
        <time>2011-01-22T12:09:55Z</time>
      </trkpt>
      <trkpt lat="44.90341" lon="6.57511">
        <ele>2398.6</ele>
        <time>2011-01-22T12:09:58Z</time>
      </trkpt>
      <trkpt lat="44.90354" lon="6.57504">
        <ele>2400.8</ele>
        <time>2011-01-22T12:10:05Z</time>
      </trkpt>
      <trkpt lat="44.90355" lon="6.57503">
        <ele>2401</ele>
        <time>2011-01-22T12:10:06Z</time>
      </trkpt>
      <trkpt lat="44.9037" lon="6.57494">
        <ele>2402.8</ele>
        <time>2011-01-22T12:10:14Z</time>
      </trkpt>
      <trkpt lat="44.90373" lon="6.57492">
        <ele>2403</ele>
        <time>2011-01-22T12:10:15Z</time>
      </trkpt>
      <trkpt lat="44.90383" lon="6.57478">
        <ele>2403.6</ele>
        <time>2011-01-22T12:10:20Z</time>
      </trkpt>
      <trkpt lat="44.90384" lon="6.57477">
        <ele>2403.6</ele>
        <time>2011-01-22T12:10:21Z</time>
      </trkpt>
      <trkpt lat="44.90385" lon="6.57477">
        <ele>2403.8</ele>
        <time>2011-01-22T12:10:23Z</time>
      </trkpt>
      <trkpt lat="44.90385" lon="6.57477">
        <ele>2404.6</ele>
        <time>2011-01-22T12:10:31Z</time>
      </trkpt>
      <trkpt lat="44.90385" lon="6.57476">
        <ele>2405.8</ele>
        <time>2011-01-22T12:10:52Z</time>
      </trkpt>
      <trkpt lat="44.90389" lon="6.57475">
        <ele>2408.8</ele>
        <time>2011-01-22T12:11:53Z</time>
      </trkpt>
      <trkpt lat="44.90397" lon="6.57474">
        <ele>2408.6</ele>
        <time>2011-01-22T12:11:56Z</time>
      </trkpt>
      <trkpt lat="44.90405" lon="6.57473">
        <ele>2408.6</ele>
        <time>2011-01-22T12:11:58Z</time>
      </trkpt>
      <trkpt lat="44.90419" lon="6.57469">
        <ele>2408.6</ele>
        <time>2011-01-22T12:12:01Z</time>
      </trkpt>
      <trkpt lat="44.90435" lon="6.57467">
        <ele>2408.4</ele>
        <time>2011-01-22T12:12:04Z</time>
      </trkpt>
      <trkpt lat="44.90442" lon="6.57467">
        <ele>2408.2</ele>
        <time>2011-01-22T12:12:05Z</time>
      </trkpt>
      <trkpt lat="44.90455" lon="6.57465">
        <ele>2408</ele>
        <time>2011-01-22T12:12:07Z</time>
      </trkpt>
      <trkpt lat="44.90461" lon="6.57461">
        <ele>2408</ele>
        <time>2011-01-22T12:12:08Z</time>
      </trkpt>
      <trkpt lat="44.90466" lon="6.57456">
        <ele>2407.8</ele>
        <time>2011-01-22T12:12:09Z</time>
      </trkpt>
      <trkpt lat="44.90475" lon="6.57442">
        <ele>2407.6</ele>
        <time>2011-01-22T12:12:11Z</time>
      </trkpt>
      <trkpt lat="44.9048" lon="6.57434">
        <ele>2407.4</ele>
        <time>2011-01-22T12:12:12Z</time>
      </trkpt>
      <trkpt lat="44.90491" lon="6.57417">
        <ele>2407</ele>
        <time>2011-01-22T12:12:14Z</time>
      </trkpt>
      <trkpt lat="44.90499" lon="6.57408">
        <ele>2406.8</ele>
        <time>2011-01-22T12:12:15Z</time>
      </trkpt>
      <trkpt lat="44.90509" lon="6.574">
        <ele>2406.4</ele>
        <time>2011-01-22T12:12:16Z</time>
      </trkpt>
      <trkpt lat="44.90535" lon="6.57403">
        <ele>2405.8</ele>
        <time>2011-01-22T12:12:18Z</time>
      </trkpt>
      <trkpt lat="44.90558" lon="6.57422">
        <ele>2405</ele>
        <time>2011-01-22T12:12:20Z</time>
      </trkpt>
      <trkpt lat="44.90578" lon="6.57454">
        <ele>2404.2</ele>
        <time>2011-01-22T12:12:22Z</time>
      </trkpt>
      <trkpt lat="44.90589" lon="6.57467">
        <ele>2403.6</ele>
        <time>2011-01-22T12:12:23Z</time>
      </trkpt>
      <trkpt lat="44.90602" lon="6.57477">
        <ele>2403</ele>
        <time>2011-01-22T12:12:24Z</time>
      </trkpt>
      <trkpt lat="44.90619" lon="6.57505">
        <ele>2401.6</ele>
        <time>2011-01-22T12:12:26Z</time>
      </trkpt>
      <trkpt lat="44.9063" lon="6.57517">
        <ele>2401</ele>
        <time>2011-01-22T12:12:27Z</time>
      </trkpt>
      <trkpt lat="44.90635" lon="6.5753">
        <ele>2400</ele>
        <time>2011-01-22T12:12:28Z</time>
      </trkpt>
      <trkpt lat="44.90647" lon="6.57537">
        <ele>2399.2</ele>
        <time>2011-01-22T12:12:29Z</time>
      </trkpt>
      <trkpt lat="44.90658" lon="6.57549">
        <ele>2398.2</ele>
        <time>2011-01-22T12:12:30Z</time>
      </trkpt>
      <trkpt lat="44.90684" lon="6.57574">
        <ele>2396.2</ele>
        <time>2011-01-22T12:12:32Z</time>
      </trkpt>
      <trkpt lat="44.90714" lon="6.57578">
        <ele>2394</ele>
        <time>2011-01-22T12:12:34Z</time>
      </trkpt>
      <trkpt lat="44.90726" lon="6.57575">
        <ele>2393</ele>
        <time>2011-01-22T12:12:35Z</time>
      </trkpt>
      <trkpt lat="44.90736" lon="6.57582">
        <ele>2391.8</ele>
        <time>2011-01-22T12:12:36Z</time>
      </trkpt>
      <trkpt lat="44.90738" lon="6.57588">
        <ele>2390.6</ele>
        <time>2011-01-22T12:12:37Z</time>
      </trkpt>
      <trkpt lat="44.90738" lon="6.57587">
        <ele>2388.4</ele>
        <time>2011-01-22T12:12:39Z</time>
      </trkpt>
      <trkpt lat="44.90737" lon="6.57586">
        <ele>2387.4</ele>
        <time>2011-01-22T12:12:40Z</time>
      </trkpt>
      <trkpt lat="44.90734" lon="6.57585">
        <ele>2383.4</ele>
        <time>2011-01-22T12:12:44Z</time>
      </trkpt>
      <trkpt lat="44.90733" lon="6.57583">
        <ele>2376.8</ele>
        <time>2011-01-22T12:12:51Z</time>
      </trkpt>
      <trkpt lat="44.90736" lon="6.57577">
        <ele>2340.4</ele>
        <time>2011-01-22T12:13:44Z</time>
      </trkpt>
      <trkpt lat="44.90739" lon="6.57574">
        <ele>2339.8</ele>
        <time>2011-01-22T12:13:45Z</time>
      </trkpt>
      <trkpt lat="44.9076" lon="6.57566">
        <ele>2338</ele>
        <time>2011-01-22T12:13:48Z</time>
      </trkpt>
      <trkpt lat="44.90775" lon="6.57551">
        <ele>2336.8</ele>
        <time>2011-01-22T12:13:50Z</time>
      </trkpt>
      <trkpt lat="44.90783" lon="6.57541">
        <ele>2336</ele>
        <time>2011-01-22T12:13:51Z</time>
      </trkpt>
      <trkpt lat="44.90792" lon="6.57529">
        <ele>2335.4</ele>
        <time>2011-01-22T12:13:52Z</time>
      </trkpt>
      <trkpt lat="44.9081" lon="6.57498">
        <ele>2333.8</ele>
        <time>2011-01-22T12:13:54Z</time>
      </trkpt>
      <trkpt lat="44.90836" lon="6.57474">
        <ele>2332.2</ele>
        <time>2011-01-22T12:13:56Z</time>
      </trkpt>
      <trkpt lat="44.90849" lon="6.57463">
        <ele>2331.4</ele>
        <time>2011-01-22T12:13:57Z</time>
      </trkpt>
      <trkpt lat="44.90863" lon="6.5745">
        <ele>2330.4</ele>
        <time>2011-01-22T12:13:59Z</time>
      </trkpt>
      <trkpt lat="44.90896" lon="6.57433">
        <ele>2328.4</ele>
        <time>2011-01-22T12:14:01Z</time>
      </trkpt>
      <trkpt lat="44.90913" lon="6.57427">
        <ele>2327.2</ele>
        <time>2011-01-22T12:14:02Z</time>
      </trkpt>
      <trkpt lat="44.90947" lon="6.57417">
        <ele>2324.8</ele>
        <time>2011-01-22T12:14:04Z</time>
      </trkpt>
      <trkpt lat="44.90966" lon="6.57414">
        <ele>2323.6</ele>
        <time>2011-01-22T12:14:05Z</time>
      </trkpt>
      <trkpt lat="44.90985" lon="6.57417">
        <ele>2322.2</ele>
        <time>2011-01-22T12:14:06Z</time>
      </trkpt>
      <trkpt lat="44.91003" lon="6.57422">
        <ele>2321</ele>
        <time>2011-01-22T12:14:07Z</time>
      </trkpt>
      <trkpt lat="44.91033" lon="6.57443">
        <ele>2318.4</ele>
        <time>2011-01-22T12:14:09Z</time>
      </trkpt>
      <trkpt lat="44.91057" lon="6.57469">
        <ele>2315.8</ele>
        <time>2011-01-22T12:14:11Z</time>
      </trkpt>
      <trkpt lat="44.91068" lon="6.57482">
        <ele>2314.6</ele>
        <time>2011-01-22T12:14:12Z</time>
      </trkpt>
      <trkpt lat="44.91078" lon="6.57495">
        <ele>2313.2</ele>
        <time>2011-01-22T12:14:13Z</time>
      </trkpt>
      <trkpt lat="44.911" lon="6.57518">
        <ele>2310.6</ele>
        <time>2011-01-22T12:14:15Z</time>
      </trkpt>
      <trkpt lat="44.91122" lon="6.57541">
        <ele>2307.8</ele>
        <time>2011-01-22T12:14:17Z</time>
      </trkpt>
      <trkpt lat="44.91131" lon="6.57553">
        <ele>2306.6</ele>
        <time>2011-01-22T12:14:18Z</time>
      </trkpt>
      <trkpt lat="44.9114" lon="6.57566">
        <ele>2305.2</ele>
        <time>2011-01-22T12:14:19Z</time>
      </trkpt>
      <trkpt lat="44.91148" lon="6.57578">
        <ele>2303.8</ele>
        <time>2011-01-22T12:14:20Z</time>
      </trkpt>
      <trkpt lat="44.91153" lon="6.5759">
        <ele>2301.2</ele>
        <time>2011-01-22T12:14:21Z</time>
      </trkpt>
      <trkpt lat="44.91154" lon="6.57591">
        <ele>2299.8</ele>
        <time>2011-01-22T12:14:23Z</time>
      </trkpt>
      <trkpt lat="44.91154" lon="6.5759">
        <ele>2298.6</ele>
        <time>2011-01-22T12:14:24Z</time>
      </trkpt>
      <trkpt lat="44.91153" lon="6.5759">
        <ele>2297.4</ele>
        <time>2011-01-22T12:14:25Z</time>
      </trkpt>
      <trkpt lat="44.9115" lon="6.57587">
        <ele>2291.4</ele>
        <time>2011-01-22T12:14:30Z</time>
      </trkpt>
      <trkpt lat="44.9115" lon="6.57589">
        <ele>2275.2</ele>
        <time>2011-01-22T12:14:45Z</time>
      </trkpt>
      <trkpt lat="44.91152" lon="6.57592">
        <ele>2274.2</ele>
        <time>2011-01-22T12:14:46Z</time>
      </trkpt>
      <trkpt lat="44.91159" lon="6.57601">
        <ele>2272.2</ele>
        <time>2011-01-22T12:14:48Z</time>
      </trkpt>
      <trkpt lat="44.91164" lon="6.57608">
        <ele>2271.2</ele>
        <time>2011-01-22T12:14:49Z</time>
      </trkpt>
      <trkpt lat="44.91169" lon="6.57616">
        <ele>2270.2</ele>
        <time>2011-01-22T12:14:50Z</time>
      </trkpt>
      <trkpt lat="44.91176" lon="6.57624">
        <ele>2269.2</ele>
        <time>2011-01-22T12:14:51Z</time>
      </trkpt>
      <trkpt lat="44.91192" lon="6.5764">
        <ele>2267</ele>
        <time>2011-01-22T12:14:53Z</time>
      </trkpt>
      <trkpt lat="44.91212" lon="6.57655">
        <ele>2265</ele>
        <time>2011-01-22T12:14:55Z</time>
      </trkpt>
      <trkpt lat="44.91232" lon="6.57675">
        <ele>2262.8</ele>
        <time>2011-01-22T12:14:57Z</time>
      </trkpt>
      <trkpt lat="44.91255" lon="6.57695">
        <ele>2260.6</ele>
        <time>2011-01-22T12:14:59Z</time>
      </trkpt>
      <trkpt lat="44.91273" lon="6.57721">
        <ele>2258.4</ele>
        <time>2011-01-22T12:15:01Z</time>
      </trkpt>
      <trkpt lat="44.91279" lon="6.57733">
        <ele>2257.2</ele>
        <time>2011-01-22T12:15:02Z</time>
      </trkpt>
      <trkpt lat="44.91286" lon="6.57747">
        <ele>2256</ele>
        <time>2011-01-22T12:15:03Z</time>
      </trkpt>
      <trkpt lat="44.91292" lon="6.57762">
        <ele>2254.8</ele>
        <time>2011-01-22T12:15:04Z</time>
      </trkpt>
      <trkpt lat="44.91296" lon="6.57776">
        <ele>2253.6</ele>
        <time>2011-01-22T12:15:05Z</time>
      </trkpt>
      <trkpt lat="44.91307" lon="6.57805">
        <ele>2251</ele>
        <time>2011-01-22T12:15:07Z</time>
      </trkpt>
      <trkpt lat="44.91324" lon="6.57833">
        <ele>2248.2</ele>
        <time>2011-01-22T12:15:09Z</time>
      </trkpt>
      <trkpt lat="44.91335" lon="6.57844">
        <ele>2246.8</ele>
        <time>2011-01-22T12:15:10Z</time>
      </trkpt>
      <trkpt lat="44.91348" lon="6.57848">
        <ele>2245.4</ele>
        <time>2011-01-22T12:15:11Z</time>
      </trkpt>
      <trkpt lat="44.91373" lon="6.57833">
        <ele>2242.2</ele>
        <time>2011-01-22T12:15:13Z</time>
      </trkpt>
      <trkpt lat="44.91402" lon="6.57812">
        <ele>2239</ele>
        <time>2011-01-22T12:15:15Z</time>
      </trkpt>
      <trkpt lat="44.91418" lon="6.57813">
        <ele>2237.4</ele>
        <time>2011-01-22T12:15:16Z</time>
      </trkpt>
      <trkpt lat="44.91432" lon="6.57819">
        <ele>2235.6</ele>
        <time>2011-01-22T12:15:17Z</time>
      </trkpt>
      <trkpt lat="44.91445" lon="6.57827">
        <ele>2233.8</ele>
        <time>2011-01-22T12:15:18Z</time>
      </trkpt>
      <trkpt lat="44.91458" lon="6.57831">
        <ele>2232</ele>
        <time>2011-01-22T12:15:19Z</time>
      </trkpt>
      <trkpt lat="44.91485" lon="6.57827">
        <ele>2228.2</ele>
        <time>2011-01-22T12:15:21Z</time>
      </trkpt>
      <trkpt lat="44.9151" lon="6.57831">
        <ele>2224.2</ele>
        <time>2011-01-22T12:15:23Z</time>
      </trkpt>
      <trkpt lat="44.91522" lon="6.57831">
        <ele>2222.2</ele>
        <time>2011-01-22T12:15:24Z</time>
      </trkpt>
      <trkpt lat="44.91534" lon="6.57834">
        <ele>2220.2</ele>
        <time>2011-01-22T12:15:25Z</time>
      </trkpt>
      <trkpt lat="44.91561" lon="6.5785">
        <ele>2216</ele>
        <time>2011-01-22T12:15:27Z</time>
      </trkpt>
      <trkpt lat="44.91579" lon="6.57885">
        <ele>2212</ele>
        <time>2011-01-22T12:15:29Z</time>
      </trkpt>
      <trkpt lat="44.9158" lon="6.57901">
        <ele>2209.8</ele>
        <time>2011-01-22T12:15:30Z</time>
      </trkpt>
      <trkpt lat="44.91584" lon="6.57918">
        <ele>2207.8</ele>
        <time>2011-01-22T12:15:31Z</time>
      </trkpt>
      <trkpt lat="44.91579" lon="6.57941">
        <ele>2205.8</ele>
        <time>2011-01-22T12:15:32Z</time>
      </trkpt>
      <trkpt lat="44.9158" lon="6.57959">
        <ele>2203.6</ele>
        <time>2011-01-22T12:15:33Z</time>
      </trkpt>
      <trkpt lat="44.9159" lon="6.57989">
        <ele>2199.2</ele>
        <time>2011-01-22T12:15:35Z</time>
      </trkpt>
      <trkpt lat="44.91612" lon="6.57994">
        <ele>2194.8</ele>
        <time>2011-01-22T12:15:37Z</time>
      </trkpt>
      <trkpt lat="44.91646" lon="6.57984">
        <ele>2190.2</ele>
        <time>2011-01-22T12:15:39Z</time>
      </trkpt>
      <trkpt lat="44.91665" lon="6.57981">
        <ele>2187.8</ele>
        <time>2011-01-22T12:15:40Z</time>
      </trkpt>
      <trkpt lat="44.91683" lon="6.57984">
        <ele>2185.4</ele>
        <time>2011-01-22T12:15:41Z</time>
      </trkpt>
      <trkpt lat="44.91699" lon="6.57989">
        <ele>2183.2</ele>
        <time>2011-01-22T12:15:42Z</time>
      </trkpt>
      <trkpt lat="44.91706" lon="6.57996">
        <ele>2180.6</ele>
        <time>2011-01-22T12:15:43Z</time>
      </trkpt>
      <trkpt lat="44.91713" lon="6.58008">
        <ele>2178.4</ele>
        <time>2011-01-22T12:15:44Z</time>
      </trkpt>
      <trkpt lat="44.91718" lon="6.58027">
        <ele>2173.8</ele>
        <time>2011-01-22T12:15:46Z</time>
      </trkpt>
      <trkpt lat="44.91711" lon="6.58026">
        <ele>2167.6</ele>
        <time>2011-01-22T12:15:49Z</time>
      </trkpt>
      <trkpt lat="44.91705" lon="6.58021">
        <ele>2161.6</ele>
        <time>2011-01-22T12:15:52Z</time>
      </trkpt>
      <trkpt lat="44.91704" lon="6.58021">
        <ele>2159.4</ele>
        <time>2011-01-22T12:15:53Z</time>
      </trkpt>
      <trkpt lat="44.91704" lon="6.58027">
        <ele>2062.4</ele>
        <time>2011-01-22T12:17:01Z</time>
      </trkpt>
      <trkpt lat="44.9171" lon="6.58035">
        <ele>2060.2</ele>
        <time>2011-01-22T12:17:03Z</time>
      </trkpt>
      <trkpt lat="44.91718" lon="6.58044">
        <ele>2058</ele>
        <time>2011-01-22T12:17:05Z</time>
      </trkpt>
      <trkpt lat="44.91724" lon="6.5805">
        <ele>2057</ele>
        <time>2011-01-22T12:17:06Z</time>
      </trkpt>
      <trkpt lat="44.91729" lon="6.58059">
        <ele>2055.8</ele>
        <time>2011-01-22T12:17:07Z</time>
      </trkpt>
      <trkpt lat="44.91734" lon="6.58069">
        <ele>2054.8</ele>
        <time>2011-01-22T12:17:08Z</time>
      </trkpt>
      <trkpt lat="44.91739" lon="6.5808">
        <ele>2053.6</ele>
        <time>2011-01-22T12:17:09Z</time>
      </trkpt>
      <trkpt lat="44.91746" lon="6.58106">
        <ele>2051.4</ele>
        <time>2011-01-22T12:17:11Z</time>
      </trkpt>
      <trkpt lat="44.91756" lon="6.58135">
        <ele>2047.8</ele>
        <time>2011-01-22T12:17:14Z</time>
      </trkpt>
      <trkpt lat="44.91767" lon="6.58159">
        <ele>2045.4</ele>
        <time>2011-01-22T12:17:16Z</time>
      </trkpt>
      <trkpt lat="44.91772" lon="6.58173">
        <ele>2044</ele>
        <time>2011-01-22T12:17:17Z</time>
      </trkpt>
      <trkpt lat="44.91779" lon="6.58187">
        <ele>2042.8</ele>
        <time>2011-01-22T12:17:18Z</time>
      </trkpt>
      <trkpt lat="44.91793" lon="6.58217">
        <ele>2040</ele>
        <time>2011-01-22T12:17:20Z</time>
      </trkpt>
      <trkpt lat="44.91801" lon="6.5823">
        <ele>2038.8</ele>
        <time>2011-01-22T12:17:21Z</time>
      </trkpt>
      <trkpt lat="44.91809" lon="6.58241">
        <ele>2037.4</ele>
        <time>2011-01-22T12:17:22Z</time>
      </trkpt>
      <trkpt lat="44.91818" lon="6.58252">
        <ele>2036</ele>
        <time>2011-01-22T12:17:23Z</time>
      </trkpt>
      <trkpt lat="44.91828" lon="6.58262">
        <ele>2034.6</ele>
        <time>2011-01-22T12:17:24Z</time>
      </trkpt>
      <trkpt lat="44.91849" lon="6.58279">
        <ele>2031.6</ele>
        <time>2011-01-22T12:17:26Z</time>
      </trkpt>
      <trkpt lat="44.9187" lon="6.58298">
        <ele>2028.4</ele>
        <time>2011-01-22T12:17:28Z</time>
      </trkpt>
      <trkpt lat="44.91892" lon="6.58321">
        <ele>2025.2</ele>
        <time>2011-01-22T12:17:30Z</time>
      </trkpt>
      <trkpt lat="44.9191" lon="6.58351">
        <ele>2022</ele>
        <time>2011-01-22T12:17:32Z</time>
      </trkpt>
      <trkpt lat="44.91917" lon="6.58367">
        <ele>2020.2</ele>
        <time>2011-01-22T12:17:33Z</time>
      </trkpt>
      <trkpt lat="44.91923" lon="6.58384">
        <ele>2018.6</ele>
        <time>2011-01-22T12:17:34Z</time>
      </trkpt>
      <trkpt lat="44.91929" lon="6.58402">
        <ele>2016.8</ele>
        <time>2011-01-22T12:17:35Z</time>
      </trkpt>
      <trkpt lat="44.91932" lon="6.58422">
        <ele>2015</ele>
        <time>2011-01-22T12:17:36Z</time>
      </trkpt>
      <trkpt lat="44.91937" lon="6.58463">
        <ele>2011.2</ele>
        <time>2011-01-22T12:17:38Z</time>
      </trkpt>
      <trkpt lat="44.91941" lon="6.58485">
        <ele>2009.4</ele>
        <time>2011-01-22T12:17:39Z</time>
      </trkpt>
      <trkpt lat="44.91945" lon="6.58508">
        <ele>2007.4</ele>
        <time>2011-01-22T12:17:40Z</time>
      </trkpt>
      <trkpt lat="44.91954" lon="6.58552">
        <ele>2003.6</ele>
        <time>2011-01-22T12:17:42Z</time>
      </trkpt>
      <trkpt lat="44.91958" lon="6.58573">
        <ele>2001.8</ele>
        <time>2011-01-22T12:17:43Z</time>
      </trkpt>
      <trkpt lat="44.91961" lon="6.58593">
        <ele>1999.8</ele>
        <time>2011-01-22T12:17:44Z</time>
      </trkpt>
      <trkpt lat="44.91962" lon="6.58627">
        <ele>1996</ele>
        <time>2011-01-22T12:17:46Z</time>
      </trkpt>
      <trkpt lat="44.91959" lon="6.58659">
        <ele>1992</ele>
        <time>2011-01-22T12:17:48Z</time>
      </trkpt>
      <trkpt lat="44.91956" lon="6.58675">
        <ele>1990.2</ele>
        <time>2011-01-22T12:17:49Z</time>
      </trkpt>
      <trkpt lat="44.91954" lon="6.5869">
        <ele>1988.2</ele>
        <time>2011-01-22T12:17:50Z</time>
      </trkpt>
      <trkpt lat="44.91951" lon="6.58723">
        <ele>1984.4</ele>
        <time>2011-01-22T12:17:52Z</time>
      </trkpt>
      <trkpt lat="44.91959" lon="6.58757">
        <ele>1980.4</ele>
        <time>2011-01-22T12:17:54Z</time>
      </trkpt>
      <trkpt lat="44.91967" lon="6.58771">
        <ele>1978.4</ele>
        <time>2011-01-22T12:17:55Z</time>
      </trkpt>
      <trkpt lat="44.91979" lon="6.58781">
        <ele>1976.4</ele>
        <time>2011-01-22T12:17:56Z</time>
      </trkpt>
      <trkpt lat="44.91991" lon="6.58791">
        <ele>1974.2</ele>
        <time>2011-01-22T12:17:57Z</time>
      </trkpt>
      <trkpt lat="44.92002" lon="6.58803">
        <ele>1972.2</ele>
        <time>2011-01-22T12:17:58Z</time>
      </trkpt>
      <trkpt lat="44.92014" lon="6.58814">
        <ele>1970.2</ele>
        <time>2011-01-22T12:17:59Z</time>
      </trkpt>
      <trkpt lat="44.92028" lon="6.58824">
        <ele>1968</ele>
        <time>2011-01-22T12:18:00Z</time>
      </trkpt>
      <trkpt lat="44.9204" lon="6.58836">
        <ele>1966</ele>
        <time>2011-01-22T12:18:01Z</time>
      </trkpt>
      <trkpt lat="44.92052" lon="6.58847">
        <ele>1964</ele>
        <time>2011-01-22T12:18:02Z</time>
      </trkpt>
      <trkpt lat="44.92065" lon="6.58856">
        <ele>1961.8</ele>
        <time>2011-01-22T12:18:03Z</time>
      </trkpt>
      <trkpt lat="44.92078" lon="6.58865">
        <ele>1959.8</ele>
        <time>2011-01-22T12:18:04Z</time>
      </trkpt>
      <trkpt lat="44.92097" lon="6.58886">
        <ele>1955.6</ele>
        <time>2011-01-22T12:18:06Z</time>
      </trkpt>
      <trkpt lat="44.92103" lon="6.58889">
        <ele>1953.6</ele>
        <time>2011-01-22T12:18:07Z</time>
      </trkpt>
      <trkpt lat="44.92119" lon="6.58892">
        <ele>1949.6</ele>
        <time>2011-01-22T12:18:09Z</time>
      </trkpt>
      <trkpt lat="44.92123" lon="6.58892">
        <ele>1947.6</ele>
        <time>2011-01-22T12:18:10Z</time>
      </trkpt>
      <trkpt lat="44.92123" lon="6.58891">
        <ele>1945.6</ele>
        <time>2011-01-22T12:18:11Z</time>
      </trkpt>
      <trkpt lat="44.92122" lon="6.58889">
        <ele>1938.2</ele>
        <time>2011-01-22T12:18:15Z</time>
      </trkpt>
      <trkpt lat="44.92118" lon="6.58881">
        <ele>1882.2</ele>
        <time>2011-01-22T12:18:53Z</time>
      </trkpt>
      <trkpt lat="44.92119" lon="6.58878">
        <ele>1876.2</ele>
        <time>2011-01-22T12:18:58Z</time>
      </trkpt>
      <trkpt lat="44.92119" lon="6.58875">
        <ele>1869.6</ele>
        <time>2011-01-22T12:19:04Z</time>
      </trkpt>
      <trkpt lat="44.92119" lon="6.58873">
        <ele>1863.2</ele>
        <time>2011-01-22T12:19:10Z</time>
      </trkpt>
      <trkpt lat="44.92116" lon="6.58868">
        <ele>1856.2</ele>
        <time>2011-01-22T12:19:17Z</time>
      </trkpt>
      <trkpt lat="44.92115" lon="6.58868">
        <ele>1855.2</ele>
        <time>2011-01-22T12:19:18Z</time>
      </trkpt>
      <trkpt lat="44.92114" lon="6.58867">
        <ele>1850.6</ele>
        <time>2011-01-22T12:19:23Z</time>
      </trkpt>
      <trkpt lat="44.92108" lon="6.58861">
        <ele>1846.2</ele>
        <time>2011-01-22T12:19:28Z</time>
      </trkpt>
      <trkpt lat="44.92103" lon="6.58857">
        <ele>1843.6</ele>
        <time>2011-01-22T12:19:31Z</time>
      </trkpt>
      <trkpt lat="44.92097" lon="6.58853">
        <ele>1841.2</ele>
        <time>2011-01-22T12:19:34Z</time>
      </trkpt>
      <trkpt lat="44.92095" lon="6.58851">
        <ele>1840.4</ele>
        <time>2011-01-22T12:19:35Z</time>
      </trkpt>
      <trkpt lat="44.92088" lon="6.58845">
        <ele>1837.6</ele>
        <time>2011-01-22T12:19:39Z</time>
      </trkpt>
      <trkpt lat="44.9208" lon="6.58838">
        <ele>1834</ele>
        <time>2011-01-22T12:19:44Z</time>
      </trkpt>
      <trkpt lat="44.92072" lon="6.58831">
        <ele>1831</ele>
        <time>2011-01-22T12:19:49Z</time>
      </trkpt>
      <trkpt lat="44.92064" lon="6.58825">
        <ele>1828.4</ele>
        <time>2011-01-22T12:19:53Z</time>
      </trkpt>
      <trkpt lat="44.92061" lon="6.58822">
        <ele>1827.2</ele>
        <time>2011-01-22T12:19:55Z</time>
      </trkpt>
      <trkpt lat="44.92049" lon="6.58811">
        <ele>1824</ele>
        <time>2011-01-22T12:20:01Z</time>
      </trkpt>
      <trkpt lat="44.92041" lon="6.58805">
        <ele>1822</ele>
        <time>2011-01-22T12:20:05Z</time>
      </trkpt>
      <trkpt lat="44.92033" lon="6.58797">
        <ele>1819.8</ele>
        <time>2011-01-22T12:20:10Z</time>
      </trkpt>
      <trkpt lat="44.92024" lon="6.58789">
        <ele>1817.6</ele>
        <time>2011-01-22T12:20:15Z</time>
      </trkpt>
      <trkpt lat="44.92017" lon="6.58782">
        <ele>1815.8</ele>
        <time>2011-01-22T12:20:20Z</time>
      </trkpt>
      <trkpt lat="44.92011" lon="6.58778">
        <ele>1814.4</ele>
        <time>2011-01-22T12:20:24Z</time>
      </trkpt>
      <trkpt lat="44.92002" lon="6.5877">
        <ele>1812.2</ele>
        <time>2011-01-22T12:20:32Z</time>
      </trkpt>
      <trkpt lat="44.92001" lon="6.58769">
        <ele>1812</ele>
        <time>2011-01-22T12:20:33Z</time>
      </trkpt>
      <trkpt lat="44.91993" lon="6.58761">
        <ele>1810.8</ele>
        <time>2011-01-22T12:20:38Z</time>
      </trkpt>
      <trkpt lat="44.91984" lon="6.58753">
        <ele>1809.8</ele>
        <time>2011-01-22T12:20:43Z</time>
      </trkpt>
      <trkpt lat="44.91973" lon="6.58742">
        <ele>1808.6</ele>
        <time>2011-01-22T12:20:50Z</time>
      </trkpt>
      <trkpt lat="44.91968" lon="6.58738">
        <ele>1808</ele>
        <time>2011-01-22T12:20:53Z</time>
      </trkpt>
      <trkpt lat="44.91951" lon="6.58723">
        <ele>1807</ele>
        <time>2011-01-22T12:21:03Z</time>
      </trkpt>
      <trkpt lat="44.9195" lon="6.58722">
        <ele>1807</ele>
        <time>2011-01-22T12:21:04Z</time>
      </trkpt>
      <trkpt lat="44.91935" lon="6.5871">
        <ele>1806.6</ele>
        <time>2011-01-22T12:21:13Z</time>
      </trkpt>
      <trkpt lat="44.91926" lon="6.58702">
        <ele>1806.8</ele>
        <time>2011-01-22T12:21:18Z</time>
      </trkpt>
      <trkpt lat="44.91919" lon="6.58694">
        <ele>1807</ele>
        <time>2011-01-22T12:21:23Z</time>
      </trkpt>
      <trkpt lat="44.91908" lon="6.58684">
        <ele>1808</ele>
        <time>2011-01-22T12:21:30Z</time>
      </trkpt>
      <trkpt lat="44.91902" lon="6.58678">
        <ele>1808.6</ele>
        <time>2011-01-22T12:21:34Z</time>
      </trkpt>
      <trkpt lat="44.91901" lon="6.58677">
        <ele>1808.8</ele>
        <time>2011-01-22T12:21:35Z</time>
      </trkpt>
      <trkpt lat="44.91893" lon="6.5867">
        <ele>1810</ele>
        <time>2011-01-22T12:21:40Z</time>
      </trkpt>
      <trkpt lat="44.91886" lon="6.58665">
        <ele>1811</ele>
        <time>2011-01-22T12:21:44Z</time>
      </trkpt>
      <trkpt lat="44.9187" lon="6.5865">
        <ele>1814.4</ele>
        <time>2011-01-22T12:21:53Z</time>
      </trkpt>
      <trkpt lat="44.91863" lon="6.58643">
        <ele>1816.4</ele>
        <time>2011-01-22T12:21:57Z</time>
      </trkpt>
      <trkpt lat="44.91854" lon="6.58634">
        <ele>1819.4</ele>
        <time>2011-01-22T12:22:03Z</time>
      </trkpt>
      <trkpt lat="44.91839" lon="6.5862">
        <ele>1825</ele>
        <time>2011-01-22T12:22:13Z</time>
      </trkpt>
      <trkpt lat="44.91837" lon="6.58618">
        <ele>1825.6</ele>
        <time>2011-01-22T12:22:14Z</time>
      </trkpt>
      <trkpt lat="44.91823" lon="6.58606">
        <ele>1831.8</ele>
        <time>2011-01-22T12:22:23Z</time>
      </trkpt>
      <trkpt lat="44.91818" lon="6.58601">
        <ele>1834.2</ele>
        <time>2011-01-22T12:22:26Z</time>
      </trkpt>
      <trkpt lat="44.91807" lon="6.58591">
        <ele>1839.4</ele>
        <time>2011-01-22T12:22:33Z</time>
      </trkpt>
      <trkpt lat="44.91802" lon="6.58586">
        <ele>1841.4</ele>
        <time>2011-01-22T12:22:36Z</time>
      </trkpt>
      <trkpt lat="44.91792" lon="6.58577">
        <ele>1845.8</ele>
        <time>2011-01-22T12:22:42Z</time>
      </trkpt>
      <trkpt lat="44.91782" lon="6.58568">
        <ele>1850</ele>
        <time>2011-01-22T12:22:48Z</time>
      </trkpt>
      <trkpt lat="44.91775" lon="6.58562">
        <ele>1853</ele>
        <time>2011-01-22T12:22:52Z</time>
      </trkpt>
      <trkpt lat="44.91764" lon="6.58552">
        <ele>1858</ele>
        <time>2011-01-22T12:22:59Z</time>
      </trkpt>
      <trkpt lat="44.91758" lon="6.58548">
        <ele>1860</ele>
        <time>2011-01-22T12:23:02Z</time>
      </trkpt>
      <trkpt lat="44.91748" lon="6.5854">
        <ele>1864.6</ele>
        <time>2011-01-22T12:23:08Z</time>
      </trkpt>
      <trkpt lat="44.91742" lon="6.58534">
        <ele>1867.6</ele>
        <time>2011-01-22T12:23:12Z</time>
      </trkpt>
      <trkpt lat="44.91729" lon="6.58524">
        <ele>1873.8</ele>
        <time>2011-01-22T12:23:20Z</time>
      </trkpt>
      <trkpt lat="44.91726" lon="6.58521">
        <ele>1875.4</ele>
        <time>2011-01-22T12:23:22Z</time>
      </trkpt>
      <trkpt lat="44.91717" lon="6.58511">
        <ele>1881.6</ele>
        <time>2011-01-22T12:23:29Z</time>
      </trkpt>
      <trkpt lat="44.91711" lon="6.58505">
        <ele>1885</ele>
        <time>2011-01-22T12:23:33Z</time>
      </trkpt>
      <trkpt lat="44.91695" lon="6.5849">
        <ele>1893.6</ele>
        <time>2011-01-22T12:23:43Z</time>
      </trkpt>
      <trkpt lat="44.91693" lon="6.58489">
        <ele>1894.6</ele>
        <time>2011-01-22T12:23:44Z</time>
      </trkpt>
      <trkpt lat="44.91679" lon="6.58476">
        <ele>1902.2</ele>
        <time>2011-01-22T12:23:53Z</time>
      </trkpt>
      <trkpt lat="44.91667" lon="6.58465">
        <ele>1909</ele>
        <time>2011-01-22T12:24:01Z</time>
      </trkpt>
      <trkpt lat="44.91664" lon="6.58462">
        <ele>1910.6</ele>
        <time>2011-01-22T12:24:03Z</time>
      </trkpt>
      <trkpt lat="44.91652" lon="6.58452">
        <ele>1917.4</ele>
        <time>2011-01-22T12:24:11Z</time>
      </trkpt>
      <trkpt lat="44.91648" lon="6.58448">
        <ele>1919.8</ele>
        <time>2011-01-22T12:24:14Z</time>
      </trkpt>
      <trkpt lat="44.91637" lon="6.58438">
        <ele>1925.8</ele>
        <time>2011-01-22T12:24:21Z</time>
      </trkpt>
      <trkpt lat="44.91632" lon="6.58434">
        <ele>1928.4</ele>
        <time>2011-01-22T12:24:24Z</time>
      </trkpt>
      <trkpt lat="44.91616" lon="6.58419">
        <ele>1938.4</ele>
        <time>2011-01-22T12:24:35Z</time>
      </trkpt>
      <trkpt lat="44.91614" lon="6.58418">
        <ele>1939.4</ele>
        <time>2011-01-22T12:24:36Z</time>
      </trkpt>
      <trkpt lat="44.91599" lon="6.58404">
        <ele>1948.8</ele>
        <time>2011-01-22T12:24:46Z</time>
      </trkpt>
      <trkpt lat="44.91589" lon="6.58395">
        <ele>1955.8</ele>
        <time>2011-01-22T12:24:53Z</time>
      </trkpt>
      <trkpt lat="44.91583" lon="6.5839">
        <ele>1960</ele>
        <time>2011-01-22T12:24:57Z</time>
      </trkpt>
      <trkpt lat="44.91568" lon="6.58375">
        <ele>1970.6</ele>
        <time>2011-01-22T12:25:07Z</time>
      </trkpt>
      <trkpt lat="44.91552" lon="6.58361">
        <ele>1981.4</ele>
        <time>2011-01-22T12:25:17Z</time>
      </trkpt>
      <trkpt lat="44.91549" lon="6.58359">
        <ele>1983.6</ele>
        <time>2011-01-22T12:25:19Z</time>
      </trkpt>
      <trkpt lat="44.91536" lon="6.58348">
        <ele>1992.6</ele>
        <time>2011-01-22T12:25:27Z</time>
      </trkpt>
      <trkpt lat="44.9153" lon="6.58343">
        <ele>1997.2</ele>
        <time>2011-01-22T12:25:31Z</time>
      </trkpt>
      <trkpt lat="44.91519" lon="6.58334">
        <ele>2005</ele>
        <time>2011-01-22T12:25:38Z</time>
      </trkpt>
      <trkpt lat="44.91513" lon="6.58329">
        <ele>2009.6</ele>
        <time>2011-01-22T12:25:42Z</time>
      </trkpt>
      <trkpt lat="44.91503" lon="6.58319">
        <ele>2017.6</ele>
        <time>2011-01-22T12:25:49Z</time>
      </trkpt>
      <trkpt lat="44.91495" lon="6.58312">
        <ele>2023.4</ele>
        <time>2011-01-22T12:25:54Z</time>
      </trkpt>
      <trkpt lat="44.91488" lon="6.58304">
        <ele>2030</ele>
        <time>2011-01-22T12:26:00Z</time>
      </trkpt>
      <trkpt lat="44.91483" lon="6.58299">
        <ele>2033</ele>
        <time>2011-01-22T12:26:03Z</time>
      </trkpt>
      <trkpt lat="44.91472" lon="6.58289">
        <ele>2039.8</ele>
        <time>2011-01-22T12:26:10Z</time>
      </trkpt>
      <trkpt lat="44.91462" lon="6.58281">
        <ele>2045.2</ele>
        <time>2011-01-22T12:26:16Z</time>
      </trkpt>
      <trkpt lat="44.91456" lon="6.58275">
        <ele>2048.6</ele>
        <time>2011-01-22T12:26:20Z</time>
      </trkpt>
      <trkpt lat="44.91446" lon="6.58267">
        <ele>2054</ele>
        <time>2011-01-22T12:26:26Z</time>
      </trkpt>
      <trkpt lat="44.9144" lon="6.5826">
        <ele>2057.8</ele>
        <time>2011-01-22T12:26:30Z</time>
      </trkpt>
      <trkpt lat="44.91431" lon="6.58251">
        <ele>2063.2</ele>
        <time>2011-01-22T12:26:36Z</time>
      </trkpt>
      <trkpt lat="44.91424" lon="6.58246">
        <ele>2067.8</ele>
        <time>2011-01-22T12:26:41Z</time>
      </trkpt>
      <trkpt lat="44.91422" lon="6.58244">
        <ele>2068.6</ele>
        <time>2011-01-22T12:26:42Z</time>
      </trkpt>
      <trkpt lat="44.91408" lon="6.58232">
        <ele>2075.6</ele>
        <time>2011-01-22T12:26:50Z</time>
      </trkpt>
      <trkpt lat="44.91406" lon="6.5823">
        <ele>2076.4</ele>
        <time>2011-01-22T12:26:51Z</time>
      </trkpt>
      <trkpt lat="44.91392" lon="6.58217">
        <ele>2083.2</ele>
        <time>2011-01-22T12:27:00Z</time>
      </trkpt>
      <trkpt lat="44.91376" lon="6.58204">
        <ele>2089</ele>
        <time>2011-01-22T12:27:09Z</time>
      </trkpt>
      <trkpt lat="44.91373" lon="6.58201">
        <ele>2090.2</ele>
        <time>2011-01-22T12:27:11Z</time>
      </trkpt>
      <trkpt lat="44.9136" lon="6.5819">
        <ele>2094.4</ele>
        <time>2011-01-22T12:27:18Z</time>
      </trkpt>
      <trkpt lat="44.91347" lon="6.58178">
        <ele>2099.6</ele>
        <time>2011-01-22T12:27:26Z</time>
      </trkpt>
      <trkpt lat="44.91345" lon="6.58176">
        <ele>2100.4</ele>
        <time>2011-01-22T12:27:27Z</time>
      </trkpt>
      <trkpt lat="44.9133" lon="6.58162">
        <ele>2106.4</ele>
        <time>2011-01-22T12:27:36Z</time>
      </trkpt>
      <trkpt lat="44.91328" lon="6.58161">
        <ele>2107.2</ele>
        <time>2011-01-22T12:27:37Z</time>
      </trkpt>
      <trkpt lat="44.91313" lon="6.58148">
        <ele>2113.6</ele>
        <time>2011-01-22T12:27:46Z</time>
      </trkpt>
      <trkpt lat="44.91312" lon="6.58147">
        <ele>2114.2</ele>
        <time>2011-01-22T12:27:47Z</time>
      </trkpt>
      <trkpt lat="44.91299" lon="6.58135">
        <ele>2119.8</ele>
        <time>2011-01-22T12:27:55Z</time>
      </trkpt>
      <trkpt lat="44.91296" lon="6.58132">
        <ele>2121</ele>
        <time>2011-01-22T12:27:57Z</time>
      </trkpt>
      <trkpt lat="44.91283" lon="6.58121">
        <ele>2126.4</ele>
        <time>2011-01-22T12:28:05Z</time>
      </trkpt>
      <trkpt lat="44.91279" lon="6.58118">
        <ele>2127.8</ele>
        <time>2011-01-22T12:28:07Z</time>
      </trkpt>
      <trkpt lat="44.91263" lon="6.58103">
        <ele>2134.2</ele>
        <time>2011-01-22T12:28:17Z</time>
      </trkpt>
      <trkpt lat="44.91259" lon="6.581">
        <ele>2135.4</ele>
        <time>2011-01-22T12:28:19Z</time>
      </trkpt>
      <trkpt lat="44.91247" lon="6.58089">
        <ele>2139.8</ele>
        <time>2011-01-22T12:28:26Z</time>
      </trkpt>
      <trkpt lat="44.91241" lon="6.58083">
        <ele>2142.2</ele>
        <time>2011-01-22T12:28:30Z</time>
      </trkpt>
      <trkpt lat="44.91231" lon="6.58074">
        <ele>2146</ele>
        <time>2011-01-22T12:28:36Z</time>
      </trkpt>
      <trkpt lat="44.91224" lon="6.58068">
        <ele>2148.6</ele>
        <time>2011-01-22T12:28:40Z</time>
      </trkpt>
      <trkpt lat="44.91216" lon="6.5806">
        <ele>2151.8</ele>
        <time>2011-01-22T12:28:45Z</time>
      </trkpt>
      <trkpt lat="44.91205" lon="6.58052">
        <ele>2155.8</ele>
        <time>2011-01-22T12:28:51Z</time>
      </trkpt>
      <trkpt lat="44.91199" lon="6.58046">
        <ele>2158.6</ele>
        <time>2011-01-22T12:28:55Z</time>
      </trkpt>
      <trkpt lat="44.91194" lon="6.58039">
        <ele>2161</ele>
        <time>2011-01-22T12:28:59Z</time>
      </trkpt>
      <trkpt lat="44.91185" lon="6.5803">
        <ele>2164.2</ele>
        <time>2011-01-22T12:29:05Z</time>
      </trkpt>
      <trkpt lat="44.9118" lon="6.58026">
        <ele>2165.8</ele>
        <time>2011-01-22T12:29:08Z</time>
      </trkpt>
      <trkpt lat="44.91169" lon="6.58017">
        <ele>2169.4</ele>
        <time>2011-01-22T12:29:15Z</time>
      </trkpt>
      <trkpt lat="44.91159" lon="6.58009">
        <ele>2172.6</ele>
        <time>2011-01-22T12:29:21Z</time>
      </trkpt>
      <trkpt lat="44.91153" lon="6.58003">
        <ele>2174.8</ele>
        <time>2011-01-22T12:29:25Z</time>
      </trkpt>
      <trkpt lat="44.91143" lon="6.57995">
        <ele>2178</ele>
        <time>2011-01-22T12:29:31Z</time>
      </trkpt>
      <trkpt lat="44.91142" lon="6.57993">
        <ele>2178.8</ele>
        <time>2011-01-22T12:29:32Z</time>
      </trkpt>
      <trkpt lat="44.91137" lon="6.57989">
        <ele>2180.6</ele>
        <time>2011-01-22T12:29:35Z</time>
      </trkpt>
      <trkpt lat="44.91129" lon="6.57982">
        <ele>2183.6</ele>
        <time>2011-01-22T12:29:40Z</time>
      </trkpt>
      <trkpt lat="44.9112" lon="6.57975">
        <ele>2186.6</ele>
        <time>2011-01-22T12:29:45Z</time>
      </trkpt>
      <trkpt lat="44.9111" lon="6.57965">
        <ele>2191.2</ele>
        <time>2011-01-22T12:29:52Z</time>
      </trkpt>
      <trkpt lat="44.91105" lon="6.5796">
        <ele>2193.4</ele>
        <time>2011-01-22T12:29:55Z</time>
      </trkpt>
      <trkpt lat="44.9109" lon="6.57945">
        <ele>2200.8</ele>
        <time>2011-01-22T12:30:05Z</time>
      </trkpt>
      <trkpt lat="44.91087" lon="6.57942">
        <ele>2202.4</ele>
        <time>2011-01-22T12:30:07Z</time>
      </trkpt>
      <trkpt lat="44.91073" lon="6.57931">
        <ele>2208</ele>
        <time>2011-01-22T12:30:14Z</time>
      </trkpt>
      <trkpt lat="44.91071" lon="6.5793">
        <ele>2208.8</ele>
        <time>2011-01-22T12:30:15Z</time>
      </trkpt>
      <trkpt lat="44.91056" lon="6.57919">
        <ele>2215.2</ele>
        <time>2011-01-22T12:30:24Z</time>
      </trkpt>
      <trkpt lat="44.91044" lon="6.57905">
        <ele>2220.4</ele>
        <time>2011-01-22T12:30:32Z</time>
      </trkpt>
      <trkpt lat="44.91044" lon="6.579">
        <ele>2221</ele>
        <time>2011-01-22T12:30:33Z</time>
      </trkpt>
      <trkpt lat="44.91044" lon="6.57888">
        <ele>2222</ele>
        <time>2011-01-22T12:30:35Z</time>
      </trkpt>
      <trkpt lat="44.91046" lon="6.57875">
        <ele>2222.8</ele>
        <time>2011-01-22T12:30:37Z</time>
      </trkpt>
      <trkpt lat="44.91048" lon="6.57862">
        <ele>2223.6</ele>
        <time>2011-01-22T12:30:39Z</time>
      </trkpt>
      <trkpt lat="44.91046" lon="6.57849">
        <ele>2224.2</ele>
        <time>2011-01-22T12:30:41Z</time>
      </trkpt>
      <trkpt lat="44.91044" lon="6.57843">
        <ele>2224.6</ele>
        <time>2011-01-22T12:30:42Z</time>
      </trkpt>
      <trkpt lat="44.91041" lon="6.57837">
        <ele>2224.8</ele>
        <time>2011-01-22T12:30:43Z</time>
      </trkpt>
      <trkpt lat="44.91034" lon="6.57825">
        <ele>2225.4</ele>
        <time>2011-01-22T12:30:45Z</time>
      </trkpt>
      <trkpt lat="44.91017" lon="6.57802">
        <ele>2226</ele>
        <time>2011-01-22T12:30:49Z</time>
      </trkpt>
      <trkpt lat="44.91002" lon="6.57784">
        <ele>2226.2</ele>
        <time>2011-01-22T12:30:52Z</time>
      </trkpt>
      <trkpt lat="44.90987" lon="6.57769">
        <ele>2226.4</ele>
        <time>2011-01-22T12:30:55Z</time>
      </trkpt>
      <trkpt lat="44.90982" lon="6.57763">
        <ele>2226.2</ele>
        <time>2011-01-22T12:30:56Z</time>
      </trkpt>
      <trkpt lat="44.90977" lon="6.57746">
        <ele>2226.2</ele>
        <time>2011-01-22T12:30:58Z</time>
      </trkpt>
      <trkpt lat="44.90976" lon="6.57736">
        <ele>2226</ele>
        <time>2011-01-22T12:31:01Z</time>
      </trkpt>
      <trkpt lat="44.90983" lon="6.57734">
        <ele>2227.2</ele>
        <time>2011-01-22T12:31:53Z</time>
      </trkpt>
      <trkpt lat="44.90987" lon="6.57726">
        <ele>2227.2</ele>
        <time>2011-01-22T12:31:54Z</time>
      </trkpt>
      <trkpt lat="44.90994" lon="6.57716">
        <ele>2227</ele>
        <time>2011-01-22T12:31:55Z</time>
      </trkpt>
      <trkpt lat="44.91003" lon="6.57706">
        <ele>2227</ele>
        <time>2011-01-22T12:31:56Z</time>
      </trkpt>
      <trkpt lat="44.91024" lon="6.5768">
        <ele>2226.6</ele>
        <time>2011-01-22T12:31:58Z</time>
      </trkpt>
      <trkpt lat="44.91034" lon="6.57665">
        <ele>2226.4</ele>
        <time>2011-01-22T12:31:59Z</time>
      </trkpt>
      <trkpt lat="44.91041" lon="6.57648">
        <ele>2226.2</ele>
        <time>2011-01-22T12:32:00Z</time>
      </trkpt>
      <trkpt lat="44.91046" lon="6.5763">
        <ele>2226</ele>
        <time>2011-01-22T12:32:01Z</time>
      </trkpt>
      <trkpt lat="44.9105" lon="6.5761">
        <ele>2225.8</ele>
        <time>2011-01-22T12:32:02Z</time>
      </trkpt>
      <trkpt lat="44.91054" lon="6.57568">
        <ele>2225.2</ele>
        <time>2011-01-22T12:32:04Z</time>
      </trkpt>
      <trkpt lat="44.91065" lon="6.57528">
        <ele>2224.4</ele>
        <time>2011-01-22T12:32:06Z</time>
      </trkpt>
      <trkpt lat="44.91087" lon="6.57507">
        <ele>2223.6</ele>
        <time>2011-01-22T12:32:08Z</time>
      </trkpt>
      <trkpt lat="44.91111" lon="6.57506">
        <ele>2222.6</ele>
        <time>2011-01-22T12:32:10Z</time>
      </trkpt>
      <trkpt lat="44.91136" lon="6.57513">
        <ele>2221.6</ele>
        <time>2011-01-22T12:32:12Z</time>
      </trkpt>
      <trkpt lat="44.91159" lon="6.57507">
        <ele>2220.4</ele>
        <time>2011-01-22T12:32:14Z</time>
      </trkpt>
      <trkpt lat="44.9117" lon="6.57501">
        <ele>2219.8</ele>
        <time>2011-01-22T12:32:15Z</time>
      </trkpt>
      <trkpt lat="44.91181" lon="6.57493">
        <ele>2219.2</ele>
        <time>2011-01-22T12:32:16Z</time>
      </trkpt>
      <trkpt lat="44.91201" lon="6.5748">
        <ele>2218</ele>
        <time>2011-01-22T12:32:18Z</time>
      </trkpt>
      <trkpt lat="44.91211" lon="6.57478">
        <ele>2217.4</ele>
        <time>2011-01-22T12:32:19Z</time>
      </trkpt>
      <trkpt lat="44.91226" lon="6.57476">
        <ele>2216.2</ele>
        <time>2011-01-22T12:32:21Z</time>
      </trkpt>
      <trkpt lat="44.91233" lon="6.57467">
        <ele>2215.4</ele>
        <time>2011-01-22T12:32:22Z</time>
      </trkpt>
      <trkpt lat="44.9124" lon="6.57454">
        <ele>2214.8</ele>
        <time>2011-01-22T12:32:23Z</time>
      </trkpt>
      <trkpt lat="44.91259" lon="6.57423">
        <ele>2213.2</ele>
        <time>2011-01-22T12:32:25Z</time>
      </trkpt>
      <trkpt lat="44.91267" lon="6.57406">
        <ele>2212.4</ele>
        <time>2011-01-22T12:32:26Z</time>
      </trkpt>
      <trkpt lat="44.91275" lon="6.5739">
        <ele>2211.6</ele>
        <time>2011-01-22T12:32:27Z</time>
      </trkpt>
      <trkpt lat="44.91285" lon="6.57377">
        <ele>2210.8</ele>
        <time>2011-01-22T12:32:28Z</time>
      </trkpt>
      <trkpt lat="44.91296" lon="6.57366">
        <ele>2209.8</ele>
        <time>2011-01-22T12:32:29Z</time>
      </trkpt>
      <trkpt lat="44.91313" lon="6.57339">
        <ele>2208</ele>
        <time>2011-01-22T12:32:31Z</time>
      </trkpt>
      <trkpt lat="44.9132" lon="6.57326">
        <ele>2207</ele>
        <time>2011-01-22T12:32:32Z</time>
      </trkpt>
      <trkpt lat="44.91325" lon="6.57311">
        <ele>2206</ele>
        <time>2011-01-22T12:32:33Z</time>
      </trkpt>
      <trkpt lat="44.9133" lon="6.57297">
        <ele>2205</ele>
        <time>2011-01-22T12:32:34Z</time>
      </trkpt>
      <trkpt lat="44.91336" lon="6.57285">
        <ele>2203.8</ele>
        <time>2011-01-22T12:32:35Z</time>
      </trkpt>
      <trkpt lat="44.9135" lon="6.57267">
        <ele>2201.6</ele>
        <time>2011-01-22T12:32:37Z</time>
      </trkpt>
      <trkpt lat="44.9137" lon="6.57264">
        <ele>2199.2</ele>
        <time>2011-01-22T12:32:39Z</time>
      </trkpt>
      <trkpt lat="44.91393" lon="6.57271">
        <ele>2196.4</ele>
        <time>2011-01-22T12:32:41Z</time>
      </trkpt>
      <trkpt lat="44.91407" lon="6.57268">
        <ele>2195.2</ele>
        <time>2011-01-22T12:32:42Z</time>
      </trkpt>
      <trkpt lat="44.91419" lon="6.5726">
        <ele>2193.8</ele>
        <time>2011-01-22T12:32:43Z</time>
      </trkpt>
      <trkpt lat="44.9143" lon="6.57248">
        <ele>2192.2</ele>
        <time>2011-01-22T12:32:44Z</time>
      </trkpt>
      <trkpt lat="44.91436" lon="6.57234">
        <ele>2190.6</ele>
        <time>2011-01-22T12:32:45Z</time>
      </trkpt>
      <trkpt lat="44.91442" lon="6.57217">
        <ele>2189</ele>
        <time>2011-01-22T12:32:46Z</time>
      </trkpt>
      <trkpt lat="44.91447" lon="6.57199">
        <ele>2187.4</ele>
        <time>2011-01-22T12:32:47Z</time>
      </trkpt>
      <trkpt lat="44.91453" lon="6.5718">
        <ele>2185.8</ele>
        <time>2011-01-22T12:32:48Z</time>
      </trkpt>
      <trkpt lat="44.9146" lon="6.57162">
        <ele>2184.2</ele>
        <time>2011-01-22T12:32:49Z</time>
      </trkpt>
      <trkpt lat="44.91468" lon="6.57147">
        <ele>2182.8</ele>
        <time>2011-01-22T12:32:50Z</time>
      </trkpt>
      <trkpt lat="44.91475" lon="6.57132">
        <ele>2181.2</ele>
        <time>2011-01-22T12:32:51Z</time>
      </trkpt>
      <trkpt lat="44.91481" lon="6.57118">
        <ele>2179.6</ele>
        <time>2011-01-22T12:32:52Z</time>
      </trkpt>
      <trkpt lat="44.91487" lon="6.57105">
        <ele>2178</ele>
        <time>2011-01-22T12:32:53Z</time>
      </trkpt>
      <trkpt lat="44.91493" lon="6.57079">
        <ele>2174.8</ele>
        <time>2011-01-22T12:32:55Z</time>
      </trkpt>
      <trkpt lat="44.9149" lon="6.57049">
        <ele>2171.6</ele>
        <time>2011-01-22T12:32:57Z</time>
      </trkpt>
      <trkpt lat="44.91489" lon="6.57034">
        <ele>2170</ele>
        <time>2011-01-22T12:32:58Z</time>
      </trkpt>
      <trkpt lat="44.91489" lon="6.57021">
        <ele>2168.6</ele>
        <time>2011-01-22T12:32:59Z</time>
      </trkpt>
      <trkpt lat="44.91488" lon="6.57014">
        <ele>2167</ele>
        <time>2011-01-22T12:33:00Z</time>
      </trkpt>
      <trkpt lat="44.91487" lon="6.57013">
        <ele>2165.6</ele>
        <time>2011-01-22T12:33:01Z</time>
      </trkpt>
      <trkpt lat="44.91486" lon="6.57011">
        <ele>2164.2</ele>
        <time>2011-01-22T12:33:02Z</time>
      </trkpt>
      <trkpt lat="44.91486" lon="6.57012">
        <ele>2161.4</ele>
        <time>2011-01-22T12:33:04Z</time>
      </trkpt>
      <trkpt lat="44.91485" lon="6.57018">
        <ele>2102.6</ele>
        <time>2011-01-22T12:34:01Z</time>
      </trkpt>
      <trkpt lat="44.91483" lon="6.5702">
        <ele>2096</ele>
        <time>2011-01-22T12:34:10Z</time>
      </trkpt>
      <trkpt lat="44.91475" lon="6.57025">
        <ele>2072.2</ele>
        <time>2011-01-22T12:34:51Z</time>
      </trkpt>
      <trkpt lat="44.91473" lon="6.57027">
        <ele>2071.4</ele>
        <time>2011-01-22T12:34:53Z</time>
      </trkpt>
      <trkpt lat="44.91472" lon="6.57028">
        <ele>2070.4</ele>
        <time>2011-01-22T12:34:55Z</time>
      </trkpt>
      <trkpt lat="44.91471" lon="6.57029">
        <ele>2066.6</ele>
        <time>2011-01-22T12:35:05Z</time>
      </trkpt>
      <trkpt lat="44.9147" lon="6.5703">
        <ele>2066.2</ele>
        <time>2011-01-22T12:35:06Z</time>
      </trkpt>
      <trkpt lat="44.91459" lon="6.57031">
        <ele>2065.2</ele>
        <time>2011-01-22T12:35:09Z</time>
      </trkpt>
      <trkpt lat="44.91455" lon="6.57033">
        <ele>2064.8</ele>
        <time>2011-01-22T12:35:10Z</time>
      </trkpt>
      <trkpt lat="44.91435" lon="6.57041">
        <ele>2063.4</ele>
        <time>2011-01-22T12:35:15Z</time>
      </trkpt>
      <trkpt lat="44.91416" lon="6.57047">
        <ele>2062.2</ele>
        <time>2011-01-22T12:35:20Z</time>
      </trkpt>
      <trkpt lat="44.91402" lon="6.57052">
        <ele>2061.8</ele>
        <time>2011-01-22T12:35:24Z</time>
      </trkpt>
      <trkpt lat="44.91398" lon="6.57053">
        <ele>2061.6</ele>
        <time>2011-01-22T12:35:25Z</time>
      </trkpt>
      <trkpt lat="44.9138" lon="6.57058">
        <ele>2061.2</ele>
        <time>2011-01-22T12:35:30Z</time>
      </trkpt>
      <trkpt lat="44.9137" lon="6.57062">
        <ele>2061.2</ele>
        <time>2011-01-22T12:35:33Z</time>
      </trkpt>
      <trkpt lat="44.9136" lon="6.57065">
        <ele>2061.6</ele>
        <time>2011-01-22T12:35:36Z</time>
      </trkpt>
      <trkpt lat="44.91341" lon="6.57072">
        <ele>2062.8</ele>
        <time>2011-01-22T12:35:41Z</time>
      </trkpt>
      <trkpt lat="44.91324" lon="6.57078">
        <ele>2064.8</ele>
        <time>2011-01-22T12:35:46Z</time>
      </trkpt>
      <trkpt lat="44.9131" lon="6.57082">
        <ele>2066.8</ele>
        <time>2011-01-22T12:35:50Z</time>
      </trkpt>
      <trkpt lat="44.91303" lon="6.57084">
        <ele>2067.8</ele>
        <time>2011-01-22T12:35:52Z</time>
      </trkpt>
      <trkpt lat="44.91282" lon="6.5709">
        <ele>2072</ele>
        <time>2011-01-22T12:35:58Z</time>
      </trkpt>
      <trkpt lat="44.91275" lon="6.57092">
        <ele>2073.4</ele>
        <time>2011-01-22T12:36:00Z</time>
      </trkpt>
      <trkpt lat="44.91264" lon="6.57096">
        <ele>2076</ele>
        <time>2011-01-22T12:36:03Z</time>
      </trkpt>
      <trkpt lat="44.91248" lon="6.57102">
        <ele>2080.6</ele>
        <time>2011-01-22T12:36:08Z</time>
      </trkpt>
      <trkpt lat="44.91245" lon="6.57103">
        <ele>2081.6</ele>
        <time>2011-01-22T12:36:09Z</time>
      </trkpt>
      <trkpt lat="44.9123" lon="6.57108">
        <ele>2085.4</ele>
        <time>2011-01-22T12:36:13Z</time>
      </trkpt>
      <trkpt lat="44.91226" lon="6.57108">
        <ele>2086.4</ele>
        <time>2011-01-22T12:36:14Z</time>
      </trkpt>
      <trkpt lat="44.91208" lon="6.57113">
        <ele>2091.6</ele>
        <time>2011-01-22T12:36:19Z</time>
      </trkpt>
      <trkpt lat="44.9119" lon="6.57119">
        <ele>2096.8</ele>
        <time>2011-01-22T12:36:24Z</time>
      </trkpt>
      <trkpt lat="44.91176" lon="6.57124">
        <ele>2101.2</ele>
        <time>2011-01-22T12:36:28Z</time>
      </trkpt>
      <trkpt lat="44.91172" lon="6.57125">
        <ele>2102.4</ele>
        <time>2011-01-22T12:36:29Z</time>
      </trkpt>
      <trkpt lat="44.91153" lon="6.57132">
        <ele>2107.6</ele>
        <time>2011-01-22T12:36:34Z</time>
      </trkpt>
      <trkpt lat="44.91149" lon="6.57134">
        <ele>2108.8</ele>
        <time>2011-01-22T12:36:35Z</time>
      </trkpt>
      <trkpt lat="44.91134" lon="6.5714">
        <ele>2113</ele>
        <time>2011-01-22T12:36:39Z</time>
      </trkpt>
      <trkpt lat="44.91123" lon="6.57144">
        <ele>2116.4</ele>
        <time>2011-01-22T12:36:42Z</time>
      </trkpt>
      <trkpt lat="44.91116" lon="6.57146">
        <ele>2118.6</ele>
        <time>2011-01-22T12:36:44Z</time>
      </trkpt>
      <trkpt lat="44.91102" lon="6.5715">
        <ele>2123.2</ele>
        <time>2011-01-22T12:36:48Z</time>
      </trkpt>
      <trkpt lat="44.91098" lon="6.57151">
        <ele>2124.4</ele>
        <time>2011-01-22T12:36:49Z</time>
      </trkpt>
      <trkpt lat="44.9108" lon="6.57158">
        <ele>2130.4</ele>
        <time>2011-01-22T12:36:54Z</time>
      </trkpt>
      <trkpt lat="44.91077" lon="6.57159">
        <ele>2131.6</ele>
        <time>2011-01-22T12:36:55Z</time>
      </trkpt>
      <trkpt lat="44.9106" lon="6.57164">
        <ele>2137.8</ele>
        <time>2011-01-22T12:37:00Z</time>
      </trkpt>
      <trkpt lat="44.91056" lon="6.57165">
        <ele>2139</ele>
        <time>2011-01-22T12:37:01Z</time>
      </trkpt>
      <trkpt lat="44.91042" lon="6.5717">
        <ele>2144</ele>
        <time>2011-01-22T12:37:05Z</time>
      </trkpt>
      <trkpt lat="44.91029" lon="6.57175">
        <ele>2149.2</ele>
        <time>2011-01-22T12:37:09Z</time>
      </trkpt>
      <trkpt lat="44.91022" lon="6.57178">
        <ele>2151.8</ele>
        <time>2011-01-22T12:37:11Z</time>
      </trkpt>
      <trkpt lat="44.91008" lon="6.57182">
        <ele>2157</ele>
        <time>2011-01-22T12:37:15Z</time>
      </trkpt>
      <trkpt lat="44.91004" lon="6.57183">
        <ele>2158.4</ele>
        <time>2011-01-22T12:37:16Z</time>
      </trkpt>
      <trkpt lat="44.90986" lon="6.57189">
        <ele>2165</ele>
        <time>2011-01-22T12:37:21Z</time>
      </trkpt>
      <trkpt lat="44.90972" lon="6.57194">
        <ele>2170.6</ele>
        <time>2011-01-22T12:37:25Z</time>
      </trkpt>
      <trkpt lat="44.90968" lon="6.57195">
        <ele>2172</ele>
        <time>2011-01-22T12:37:26Z</time>
      </trkpt>
      <trkpt lat="44.90951" lon="6.57201">
        <ele>2179</ele>
        <time>2011-01-22T12:37:31Z</time>
      </trkpt>
      <trkpt lat="44.90933" lon="6.57208">
        <ele>2186.2</ele>
        <time>2011-01-22T12:37:36Z</time>
      </trkpt>
      <trkpt lat="44.90912" lon="6.57215">
        <ele>2194.8</ele>
        <time>2011-01-22T12:37:42Z</time>
      </trkpt>
      <trkpt lat="44.90909" lon="6.57216">
        <ele>2196.2</ele>
        <time>2011-01-22T12:37:43Z</time>
      </trkpt>
      <trkpt lat="44.90891" lon="6.57222">
        <ele>2203.8</ele>
        <time>2011-01-22T12:37:48Z</time>
      </trkpt>
      <trkpt lat="44.90878" lon="6.57226">
        <ele>2209.8</ele>
        <time>2011-01-22T12:37:52Z</time>
      </trkpt>
      <trkpt lat="44.90871" lon="6.57228">
        <ele>2213</ele>
        <time>2011-01-22T12:37:54Z</time>
      </trkpt>
      <trkpt lat="44.9085" lon="6.57235">
        <ele>2222.4</ele>
        <time>2011-01-22T12:38:00Z</time>
      </trkpt>
      <trkpt lat="44.90844" lon="6.57237">
        <ele>2225.6</ele>
        <time>2011-01-22T12:38:02Z</time>
      </trkpt>
      <trkpt lat="44.90833" lon="6.5724">
        <ele>2230.4</ele>
        <time>2011-01-22T12:38:05Z</time>
      </trkpt>
      <trkpt lat="44.90825" lon="6.57242">
        <ele>2233.4</ele>
        <time>2011-01-22T12:38:07Z</time>
      </trkpt>
      <trkpt lat="44.90815" lon="6.57246">
        <ele>2237.8</ele>
        <time>2011-01-22T12:38:10Z</time>
      </trkpt>
      <trkpt lat="44.90796" lon="6.57252">
        <ele>2245.4</ele>
        <time>2011-01-22T12:38:15Z</time>
      </trkpt>
      <trkpt lat="44.90782" lon="6.57257">
        <ele>2251.4</ele>
        <time>2011-01-22T12:38:19Z</time>
      </trkpt>
      <trkpt lat="44.90778" lon="6.57259">
        <ele>2252.8</ele>
        <time>2011-01-22T12:38:20Z</time>
      </trkpt>
      <trkpt lat="44.9076" lon="6.57265">
        <ele>2260.2</ele>
        <time>2011-01-22T12:38:25Z</time>
      </trkpt>
      <trkpt lat="44.90742" lon="6.57271">
        <ele>2267.4</ele>
        <time>2011-01-22T12:38:30Z</time>
      </trkpt>
      <trkpt lat="44.90724" lon="6.57276">
        <ele>2274.4</ele>
        <time>2011-01-22T12:38:35Z</time>
      </trkpt>
      <trkpt lat="44.90706" lon="6.57283">
        <ele>2281</ele>
        <time>2011-01-22T12:38:40Z</time>
      </trkpt>
      <trkpt lat="44.90703" lon="6.57284">
        <ele>2282.4</ele>
        <time>2011-01-22T12:38:41Z</time>
      </trkpt>
      <trkpt lat="44.90689" lon="6.5729">
        <ele>2287.8</ele>
        <time>2011-01-22T12:38:45Z</time>
      </trkpt>
      <trkpt lat="44.90668" lon="6.57298">
        <ele>2295.8</ele>
        <time>2011-01-22T12:38:51Z</time>
      </trkpt>
      <trkpt lat="44.90647" lon="6.57306">
        <ele>2303.8</ele>
        <time>2011-01-22T12:38:57Z</time>
      </trkpt>
      <trkpt lat="44.90633" lon="6.57311">
        <ele>2309.2</ele>
        <time>2011-01-22T12:39:01Z</time>
      </trkpt>
      <trkpt lat="44.90629" lon="6.57312">
        <ele>2310.6</ele>
        <time>2011-01-22T12:39:02Z</time>
      </trkpt>
      <trkpt lat="44.90611" lon="6.57319">
        <ele>2317.2</ele>
        <time>2011-01-22T12:39:07Z</time>
      </trkpt>
      <trkpt lat="44.90603" lon="6.57321">
        <ele>2320</ele>
        <time>2011-01-22T12:39:09Z</time>
      </trkpt>
      <trkpt lat="44.90593" lon="6.57325">
        <ele>2324</ele>
        <time>2011-01-22T12:39:12Z</time>
      </trkpt>
      <trkpt lat="44.90575" lon="6.57331">
        <ele>2331</ele>
        <time>2011-01-22T12:39:17Z</time>
      </trkpt>
      <trkpt lat="44.90561" lon="6.57336">
        <ele>2336.6</ele>
        <time>2011-01-22T12:39:21Z</time>
      </trkpt>
      <trkpt lat="44.90557" lon="6.57337">
        <ele>2338</ele>
        <time>2011-01-22T12:39:22Z</time>
      </trkpt>
      <trkpt lat="44.90536" lon="6.57344">
        <ele>2346.4</ele>
        <time>2011-01-22T12:39:28Z</time>
      </trkpt>
      <trkpt lat="44.90532" lon="6.57345">
        <ele>2347.8</ele>
        <time>2011-01-22T12:39:29Z</time>
      </trkpt>
      <trkpt lat="44.90517" lon="6.5735">
        <ele>2353.2</ele>
        <time>2011-01-22T12:39:33Z</time>
      </trkpt>
      <trkpt lat="44.90506" lon="6.57354">
        <ele>2357.2</ele>
        <time>2011-01-22T12:39:36Z</time>
      </trkpt>
      <trkpt lat="44.90499" lon="6.57357">
        <ele>2359.8</ele>
        <time>2011-01-22T12:39:38Z</time>
      </trkpt>
      <trkpt lat="44.90481" lon="6.57363">
        <ele>2366</ele>
        <time>2011-01-22T12:39:43Z</time>
      </trkpt>
      <trkpt lat="44.9047" lon="6.57367">
        <ele>2369.8</ele>
        <time>2011-01-22T12:39:46Z</time>
      </trkpt>
      <trkpt lat="44.90462" lon="6.57369">
        <ele>2372</ele>
        <time>2011-01-22T12:39:48Z</time>
      </trkpt>
      <trkpt lat="44.90447" lon="6.57375">
        <ele>2376.4</ele>
        <time>2011-01-22T12:39:52Z</time>
      </trkpt>
      <trkpt lat="44.90443" lon="6.57376">
        <ele>2377.4</ele>
        <time>2011-01-22T12:39:53Z</time>
      </trkpt>
      <trkpt lat="44.90425" lon="6.57383">
        <ele>2382.4</ele>
        <time>2011-01-22T12:39:58Z</time>
      </trkpt>
      <trkpt lat="44.90418" lon="6.57386">
        <ele>2384.2</ele>
        <time>2011-01-22T12:40:00Z</time>
      </trkpt>
      <trkpt lat="44.90407" lon="6.5739">
        <ele>2386.6</ele>
        <time>2011-01-22T12:40:03Z</time>
      </trkpt>
      <trkpt lat="44.90396" lon="6.57393">
        <ele>2389.8</ele>
        <time>2011-01-22T12:40:07Z</time>
      </trkpt>
      <trkpt lat="44.90389" lon="6.57386">
        <ele>2391.6</ele>
        <time>2011-01-22T12:40:10Z</time>
      </trkpt>
      <trkpt lat="44.90388" lon="6.57381">
        <ele>2392.2</ele>
        <time>2011-01-22T12:40:11Z</time>
      </trkpt>
      <trkpt lat="44.90391" lon="6.57371">
        <ele>2393.6</ele>
        <time>2011-01-22T12:40:14Z</time>
      </trkpt>
      <trkpt lat="44.90395" lon="6.57367">
        <ele>2394.6</ele>
        <time>2011-01-22T12:40:16Z</time>
      </trkpt>
      <trkpt lat="44.90398" lon="6.57365">
        <ele>2395.4</ele>
        <time>2011-01-22T12:40:18Z</time>
      </trkpt>
      <trkpt lat="44.904" lon="6.57362">
        <ele>2396.2</ele>
        <time>2011-01-22T12:40:20Z</time>
      </trkpt>
      <trkpt lat="44.90407" lon="6.57357">
        <ele>2398</ele>
        <time>2011-01-22T12:40:26Z</time>
      </trkpt>
      <trkpt lat="44.90412" lon="6.5735">
        <ele>2400</ele>
        <time>2011-01-22T12:40:34Z</time>
      </trkpt>
      <trkpt lat="44.90412" lon="6.57349">
        <ele>2400.2</ele>
        <time>2011-01-22T12:40:35Z</time>
      </trkpt>
      <trkpt lat="44.90418" lon="6.57343">
        <ele>2401</ele>
        <time>2011-01-22T12:40:41Z</time>
      </trkpt>
      <trkpt lat="44.90426" lon="6.57334">
        <ele>2401.4</ele>
        <time>2011-01-22T12:40:46Z</time>
      </trkpt>
      <trkpt lat="44.90428" lon="6.57334">
        <ele>2401.4</ele>
        <time>2011-01-22T12:40:47Z</time>
      </trkpt>
      <trkpt lat="44.90433" lon="6.57329">
        <ele>2401.6</ele>
        <time>2011-01-22T12:40:51Z</time>
      </trkpt>
      <trkpt lat="44.9044" lon="6.57325">
        <ele>2401.4</ele>
        <time>2011-01-22T12:40:53Z</time>
      </trkpt>
      <trkpt lat="44.90446" lon="6.57321">
        <ele>2401.4</ele>
        <time>2011-01-22T12:40:54Z</time>
      </trkpt>
      <trkpt lat="44.90457" lon="6.57307">
        <ele>2401.2</ele>
        <time>2011-01-22T12:40:56Z</time>
      </trkpt>
      <trkpt lat="44.90462" lon="6.57299">
        <ele>2401.2</ele>
        <time>2011-01-22T12:40:57Z</time>
      </trkpt>
      <trkpt lat="44.90466" lon="6.57294">
        <ele>2401.2</ele>
        <time>2011-01-22T12:40:58Z</time>
      </trkpt>
      <trkpt lat="44.9047" lon="6.57291">
        <ele>2401</ele>
        <time>2011-01-22T12:40:59Z</time>
      </trkpt>
      <trkpt lat="44.90473" lon="6.57285">
        <ele>2400.8</ele>
        <time>2011-01-22T12:41:01Z</time>
      </trkpt>
      <trkpt lat="44.90475" lon="6.5728">
        <ele>2400.8</ele>
        <time>2011-01-22T12:41:02Z</time>
      </trkpt>
      <trkpt lat="44.90486" lon="6.57267">
        <ele>2400.2</ele>
        <time>2011-01-22T12:41:05Z</time>
      </trkpt>
      <trkpt lat="44.90491" lon="6.57262">
        <ele>2400</ele>
        <time>2011-01-22T12:41:06Z</time>
      </trkpt>
      <trkpt lat="44.90498" lon="6.57245">
        <ele>2399.6</ele>
        <time>2011-01-22T12:41:08Z</time>
      </trkpt>
      <trkpt lat="44.90508" lon="6.57216">
        <ele>2398.6</ele>
        <time>2011-01-22T12:41:12Z</time>
      </trkpt>
      <trkpt lat="44.90515" lon="6.57206">
        <ele>2397.8</ele>
        <time>2011-01-22T12:41:14Z</time>
      </trkpt>
      <trkpt lat="44.90521" lon="6.57204">
        <ele>2397.4</ele>
        <time>2011-01-22T12:41:15Z</time>
      </trkpt>
      <trkpt lat="44.90526" lon="6.57207">
        <ele>2397</ele>
        <time>2011-01-22T12:41:16Z</time>
      </trkpt>
      <trkpt lat="44.90531" lon="6.5721">
        <ele>2396.6</ele>
        <time>2011-01-22T12:41:17Z</time>
      </trkpt>
      <trkpt lat="44.90546" lon="6.57212">
        <ele>2395.2</ele>
        <time>2011-01-22T12:41:20Z</time>
      </trkpt>
      <trkpt lat="44.90559" lon="6.57206">
        <ele>2393.6</ele>
        <time>2011-01-22T12:41:23Z</time>
      </trkpt>
      <trkpt lat="44.90566" lon="6.57206">
        <ele>2393</ele>
        <time>2011-01-22T12:41:24Z</time>
      </trkpt>
      <trkpt lat="44.90579" lon="6.57211">
        <ele>2391.8</ele>
        <time>2011-01-22T12:41:26Z</time>
      </trkpt>
      <trkpt lat="44.90585" lon="6.57209">
        <ele>2391.2</ele>
        <time>2011-01-22T12:41:27Z</time>
      </trkpt>
      <trkpt lat="44.906" lon="6.57206">
        <ele>2389.2</ele>
        <time>2011-01-22T12:41:30Z</time>
      </trkpt>
      <trkpt lat="44.90603" lon="6.57201">
        <ele>2388.4</ele>
        <time>2011-01-22T12:41:31Z</time>
      </trkpt>
      <trkpt lat="44.90607" lon="6.57189">
        <ele>2386.8</ele>
        <time>2011-01-22T12:41:33Z</time>
      </trkpt>
      <trkpt lat="44.90605" lon="6.57176">
        <ele>2385.4</ele>
        <time>2011-01-22T12:41:35Z</time>
      </trkpt>
      <trkpt lat="44.90601" lon="6.57164">
        <ele>2383</ele>
        <time>2011-01-22T12:41:38Z</time>
      </trkpt>
      <trkpt lat="44.90599" lon="6.57158">
        <ele>2382.2</ele>
        <time>2011-01-22T12:41:39Z</time>
      </trkpt>
      <trkpt lat="44.90604" lon="6.57155">
        <ele>2380.6</ele>
        <time>2011-01-22T12:41:41Z</time>
      </trkpt>
      <trkpt lat="44.90604" lon="6.57141">
        <ele>2378</ele>
        <time>2011-01-22T12:41:44Z</time>
      </trkpt>
      <trkpt lat="44.90606" lon="6.57131">
        <ele>2376.2</ele>
        <time>2011-01-22T12:41:46Z</time>
      </trkpt>
      <trkpt lat="44.90615" lon="6.57133">
        <ele>2374.4</ele>
        <time>2011-01-22T12:41:48Z</time>
      </trkpt>
      <trkpt lat="44.90626" lon="6.57128">
        <ele>2372.4</ele>
        <time>2011-01-22T12:41:50Z</time>
      </trkpt>
      <trkpt lat="44.90626" lon="6.57124">
        <ele>2371.4</ele>
        <time>2011-01-22T12:41:51Z</time>
      </trkpt>
      <trkpt lat="44.90618" lon="6.57111">
        <ele>2368.6</ele>
        <time>2011-01-22T12:41:54Z</time>
      </trkpt>
      <trkpt lat="44.90615" lon="6.57107">
        <ele>2366</ele>
        <time>2011-01-22T12:41:57Z</time>
      </trkpt>
      <trkpt lat="44.90615" lon="6.57108">
        <ele>2365</ele>
        <time>2011-01-22T12:41:58Z</time>
      </trkpt>
      <trkpt lat="44.90613" lon="6.57107">
        <ele>2359.8</ele>
        <time>2011-01-22T12:42:04Z</time>
      </trkpt>
      <trkpt lat="44.90613" lon="6.57108">
        <ele>2350.2</ele>
        <time>2011-01-22T12:42:16Z</time>
      </trkpt>
      <trkpt lat="44.90614" lon="6.57115">
        <ele>2338.4</ele>
        <time>2011-01-22T12:42:36Z</time>
      </trkpt>
      <trkpt lat="44.90615" lon="6.57114">
        <ele>2337.2</ele>
        <time>2011-01-22T12:42:38Z</time>
      </trkpt>
      <trkpt lat="44.90615" lon="6.57113">
        <ele>2336.2</ele>
        <time>2011-01-22T12:42:40Z</time>
      </trkpt>
      <trkpt lat="44.90622" lon="6.57104">
        <ele>2317.6</ele>
        <time>2011-01-22T12:43:24Z</time>
      </trkpt>
      <trkpt lat="44.9062" lon="6.57104">
        <ele>2315.6</ele>
        <time>2011-01-22T12:43:30Z</time>
      </trkpt>
      <trkpt lat="44.90619" lon="6.57102">
        <ele>2315.2</ele>
        <time>2011-01-22T12:43:31Z</time>
      </trkpt>
      <trkpt lat="44.9062" lon="6.571">
        <ele>2314.8</ele>
        <time>2011-01-22T12:43:32Z</time>
      </trkpt>
      <trkpt lat="44.90632" lon="6.57094">
        <ele>2313.8</ele>
        <time>2011-01-22T12:43:35Z</time>
      </trkpt>
      <trkpt lat="44.90638" lon="6.57092">
        <ele>2313.4</ele>
        <time>2011-01-22T12:43:36Z</time>
      </trkpt>
      <trkpt lat="44.90654" lon="6.57089">
        <ele>2312.4</ele>
        <time>2011-01-22T12:43:39Z</time>
      </trkpt>
      <trkpt lat="44.90669" lon="6.57085">
        <ele>2311</ele>
        <time>2011-01-22T12:43:42Z</time>
      </trkpt>
      <trkpt lat="44.90675" lon="6.57084">
        <ele>2310.6</ele>
        <time>2011-01-22T12:43:43Z</time>
      </trkpt>
      <trkpt lat="44.90692" lon="6.57081">
        <ele>2309.6</ele>
        <time>2011-01-22T12:43:45Z</time>
      </trkpt>
      <trkpt lat="44.907" lon="6.5708">
        <ele>2309</ele>
        <time>2011-01-22T12:43:46Z</time>
      </trkpt>
      <trkpt lat="44.90715" lon="6.57074">
        <ele>2308</ele>
        <time>2011-01-22T12:43:48Z</time>
      </trkpt>
      <trkpt lat="44.90722" lon="6.57071">
        <ele>2307.4</ele>
        <time>2011-01-22T12:43:49Z</time>
      </trkpt>
      <trkpt lat="44.90733" lon="6.57063">
        <ele>2306.2</ele>
        <time>2011-01-22T12:43:51Z</time>
      </trkpt>
      <trkpt lat="44.9074" lon="6.57048">
        <ele>2304.8</ele>
        <time>2011-01-22T12:43:53Z</time>
      </trkpt>
      <trkpt lat="44.90746" lon="6.57043">
        <ele>2304.2</ele>
        <time>2011-01-22T12:43:54Z</time>
      </trkpt>
      <trkpt lat="44.90751" lon="6.57035">
        <ele>2303.6</ele>
        <time>2011-01-22T12:43:55Z</time>
      </trkpt>
      <trkpt lat="44.90756" lon="6.5703">
        <ele>2302.8</ele>
        <time>2011-01-22T12:43:56Z</time>
      </trkpt>
      <trkpt lat="44.90766" lon="6.57028">
        <ele>2301.4</ele>
        <time>2011-01-22T12:43:58Z</time>
      </trkpt>
      <trkpt lat="44.90776" lon="6.57024">
        <ele>2299.6</ele>
        <time>2011-01-22T12:44:00Z</time>
      </trkpt>
      <trkpt lat="44.90788" lon="6.57027">
        <ele>2298</ele>
        <time>2011-01-22T12:44:02Z</time>
      </trkpt>
      <trkpt lat="44.90799" lon="6.57025">
        <ele>2296.4</ele>
        <time>2011-01-22T12:44:04Z</time>
      </trkpt>
      <trkpt lat="44.90809" lon="6.57026">
        <ele>2294.6</ele>
        <time>2011-01-22T12:44:06Z</time>
      </trkpt>
      <trkpt lat="44.90815" lon="6.57026">
        <ele>2293.8</ele>
        <time>2011-01-22T12:44:07Z</time>
      </trkpt>
      <trkpt lat="44.90821" lon="6.57027">
        <ele>2293</ele>
        <time>2011-01-22T12:44:08Z</time>
      </trkpt>
      <trkpt lat="44.90829" lon="6.57029">
        <ele>2292</ele>
        <time>2011-01-22T12:44:09Z</time>
      </trkpt>
      <trkpt lat="44.90836" lon="6.57032">
        <ele>2291.2</ele>
        <time>2011-01-22T12:44:10Z</time>
      </trkpt>
      <trkpt lat="44.90842" lon="6.57034">
        <ele>2290.4</ele>
        <time>2011-01-22T12:44:11Z</time>
      </trkpt>
      <trkpt lat="44.90847" lon="6.57033">
        <ele>2289.4</ele>
        <time>2011-01-22T12:44:12Z</time>
      </trkpt>
      <trkpt lat="44.9086" lon="6.57033">
        <ele>2287.6</ele>
        <time>2011-01-22T12:44:14Z</time>
      </trkpt>
      <trkpt lat="44.90866" lon="6.57033">
        <ele>2286.6</ele>
        <time>2011-01-22T12:44:15Z</time>
      </trkpt>
      <trkpt lat="44.90879" lon="6.57033">
        <ele>2284.6</ele>
        <time>2011-01-22T12:44:17Z</time>
      </trkpt>
      <trkpt lat="44.90883" lon="6.57033">
        <ele>2283.8</ele>
        <time>2011-01-22T12:44:18Z</time>
      </trkpt>
      <trkpt lat="44.90887" lon="6.57034">
        <ele>2280.8</ele>
        <time>2011-01-22T12:44:21Z</time>
      </trkpt>
      <trkpt lat="44.90886" lon="6.57034">
        <ele>2277</ele>
        <time>2011-01-22T12:44:25Z</time>
      </trkpt>
      <trkpt lat="44.90891" lon="6.57032">
        <ele>2258.6</ele>
        <time>2011-01-22T12:44:48Z</time>
      </trkpt>
      <trkpt lat="44.90896" lon="6.57032">
        <ele>2258</ele>
        <time>2011-01-22T12:44:49Z</time>
      </trkpt>
      <trkpt lat="44.90908" lon="6.57035">
        <ele>2256.4</ele>
        <time>2011-01-22T12:44:51Z</time>
      </trkpt>
      <trkpt lat="44.90917" lon="6.57037">
        <ele>2255.6</ele>
        <time>2011-01-22T12:44:52Z</time>
      </trkpt>
      <trkpt lat="44.90938" lon="6.5704">
        <ele>2254</ele>
        <time>2011-01-22T12:44:54Z</time>
      </trkpt>
      <trkpt lat="44.90963" lon="6.57042">
        <ele>2252.2</ele>
        <time>2011-01-22T12:44:56Z</time>
      </trkpt>
      <trkpt lat="44.90976" lon="6.57046">
        <ele>2251.4</ele>
        <time>2011-01-22T12:44:57Z</time>
      </trkpt>
      <trkpt lat="44.90989" lon="6.57049">
        <ele>2250.4</ele>
        <time>2011-01-22T12:44:58Z</time>
      </trkpt>
      <trkpt lat="44.91018" lon="6.57044">
        <ele>2248.6</ele>
        <time>2011-01-22T12:45:00Z</time>
      </trkpt>
      <trkpt lat="44.91045" lon="6.57045">
        <ele>2246.8</ele>
        <time>2011-01-22T12:45:02Z</time>
      </trkpt>
      <trkpt lat="44.91057" lon="6.57048">
        <ele>2245.8</ele>
        <time>2011-01-22T12:45:03Z</time>
      </trkpt>
      <trkpt lat="44.91066" lon="6.57053">
        <ele>2245</ele>
        <time>2011-01-22T12:45:04Z</time>
      </trkpt>
      <trkpt lat="44.91075" lon="6.57058">
        <ele>2243</ele>
        <time>2011-01-22T12:45:06Z</time>
      </trkpt>
      <trkpt lat="44.91072" lon="6.57058">
        <ele>2241</ele>
        <time>2011-01-22T12:45:08Z</time>
      </trkpt>
      <trkpt lat="44.91072" lon="6.57057">
        <ele>2237.6</ele>
        <time>2011-01-22T12:45:12Z</time>
      </trkpt>
      <trkpt lat="44.91074" lon="6.57057">
        <ele>2236.6</ele>
        <time>2011-01-22T12:45:13Z</time>
      </trkpt>
      <trkpt lat="44.91084" lon="6.5706">
        <ele>2234.8</ele>
        <time>2011-01-22T12:45:15Z</time>
      </trkpt>
      <trkpt lat="44.91091" lon="6.57061">
        <ele>2233.8</ele>
        <time>2011-01-22T12:45:16Z</time>
      </trkpt>
      <trkpt lat="44.91106" lon="6.5706">
        <ele>2232</ele>
        <time>2011-01-22T12:45:18Z</time>
      </trkpt>
      <trkpt lat="44.91114" lon="6.57058">
        <ele>2231</ele>
        <time>2011-01-22T12:45:19Z</time>
      </trkpt>
      <trkpt lat="44.91124" lon="6.57057">
        <ele>2230.2</ele>
        <time>2011-01-22T12:45:20Z</time>
      </trkpt>
      <trkpt lat="44.91145" lon="6.57057">
        <ele>2228.2</ele>
        <time>2011-01-22T12:45:22Z</time>
      </trkpt>
      <trkpt lat="44.91155" lon="6.57063">
        <ele>2227.2</ele>
        <time>2011-01-22T12:45:23Z</time>
      </trkpt>
      <trkpt lat="44.91166" lon="6.57068">
        <ele>2226.2</ele>
        <time>2011-01-22T12:45:24Z</time>
      </trkpt>
      <trkpt lat="44.91177" lon="6.5707">
        <ele>2225</ele>
        <time>2011-01-22T12:45:25Z</time>
      </trkpt>
      <trkpt lat="44.91188" lon="6.57074">
        <ele>2224</ele>
        <time>2011-01-22T12:45:26Z</time>
      </trkpt>
      <trkpt lat="44.91207" lon="6.5709">
        <ele>2221.8</ele>
        <time>2011-01-22T12:45:28Z</time>
      </trkpt>
      <trkpt lat="44.91228" lon="6.57088">
        <ele>2219.4</ele>
        <time>2011-01-22T12:45:30Z</time>
      </trkpt>
      <trkpt lat="44.91238" lon="6.57083">
        <ele>2218.4</ele>
        <time>2011-01-22T12:45:31Z</time>
      </trkpt>
      <trkpt lat="44.91247" lon="6.57078">
        <ele>2217.2</ele>
        <time>2011-01-22T12:45:32Z</time>
      </trkpt>
      <trkpt lat="44.9127" lon="6.57065">
        <ele>2214.6</ele>
        <time>2011-01-22T12:45:34Z</time>
      </trkpt>
      <trkpt lat="44.91282" lon="6.57061">
        <ele>2213.4</ele>
        <time>2011-01-22T12:45:35Z</time>
      </trkpt>
      <trkpt lat="44.91295" lon="6.57057">
        <ele>2212</ele>
        <time>2011-01-22T12:45:36Z</time>
      </trkpt>
      <trkpt lat="44.91309" lon="6.57049">
        <ele>2210.6</ele>
        <time>2011-01-22T12:45:37Z</time>
      </trkpt>
      <trkpt lat="44.91323" lon="6.57041">
        <ele>2209.2</ele>
        <time>2011-01-22T12:45:38Z</time>
      </trkpt>
      <trkpt lat="44.91351" lon="6.57026">
        <ele>2206.2</ele>
        <time>2011-01-22T12:45:40Z</time>
      </trkpt>
      <trkpt lat="44.91366" lon="6.57019">
        <ele>2204.6</ele>
        <time>2011-01-22T12:45:41Z</time>
      </trkpt>
      <trkpt lat="44.91378" lon="6.57011">
        <ele>2202.8</ele>
        <time>2011-01-22T12:45:42Z</time>
      </trkpt>
      <trkpt lat="44.91411" lon="6.56994">
        <ele>2199.4</ele>
        <time>2011-01-22T12:45:44Z</time>
      </trkpt>
      <trkpt lat="44.91445" lon="6.56986">
        <ele>2196</ele>
        <time>2011-01-22T12:45:46Z</time>
      </trkpt>
      <trkpt lat="44.91461" lon="6.56983">
        <ele>2194.2</ele>
        <time>2011-01-22T12:45:47Z</time>
      </trkpt>
      <trkpt lat="44.91474" lon="6.56986">
        <ele>2192.4</ele>
        <time>2011-01-22T12:45:48Z</time>
      </trkpt>
      <trkpt lat="44.9148" lon="6.56992">
        <ele>2190.6</ele>
        <time>2011-01-22T12:45:49Z</time>
      </trkpt>
      <trkpt lat="44.91487" lon="6.56998">
        <ele>2188.8</ele>
        <time>2011-01-22T12:45:50Z</time>
      </trkpt>
      <trkpt lat="44.91493" lon="6.57007">
        <ele>2185.2</ele>
        <time>2011-01-22T12:45:52Z</time>
      </trkpt>
      <trkpt lat="44.91493" lon="6.57016">
        <ele>2181.6</ele>
        <time>2011-01-22T12:45:54Z</time>
      </trkpt>
      <trkpt lat="44.91493" lon="6.57018">
        <ele>2179.8</ele>
        <time>2011-01-22T12:45:55Z</time>
      </trkpt>
      <trkpt lat="44.91493" lon="6.5702">
        <ele>2178.2</ele>
        <time>2011-01-22T12:45:56Z</time>
      </trkpt>
      <trkpt lat="44.91492" lon="6.57018">
        <ele>2176.6</ele>
        <time>2011-01-22T12:45:57Z</time>
      </trkpt>
      <trkpt lat="44.9149" lon="6.57013">
        <ele>2172</ele>
        <time>2011-01-22T12:46:00Z</time>
      </trkpt>
      <trkpt lat="44.9149" lon="6.57013">
        <ele>2170.4</ele>
        <time>2011-01-22T12:46:01Z</time>
      </trkpt>
      <trkpt lat="44.91488" lon="6.5701">
        <ele>2156.2</ele>
        <time>2011-01-22T12:46:11Z</time>
      </trkpt>
      <trkpt lat="44.91486" lon="6.57011">
        <ele>2130.6</ele>
        <time>2011-01-22T12:46:32Z</time>
      </trkpt>
      <trkpt lat="44.91485" lon="6.5701">
        <ele>2092.2</ele>
        <time>2011-01-22T12:47:16Z</time>
      </trkpt>
      <trkpt lat="44.91489" lon="6.57004">
        <ele>2083</ele>
        <time>2011-01-22T12:47:30Z</time>
      </trkpt>
      <trkpt lat="44.9149" lon="6.57002">
        <ele>2082.4</ele>
        <time>2011-01-22T12:47:31Z</time>
      </trkpt>
      <trkpt lat="44.91499" lon="6.56997">
        <ele>2080.6</ele>
        <time>2011-01-22T12:47:34Z</time>
      </trkpt>
      <trkpt lat="44.9151" lon="6.56995">
        <ele>2078.8</ele>
        <time>2011-01-22T12:47:37Z</time>
      </trkpt>
      <trkpt lat="44.91516" lon="6.56997">
        <ele>2077.6</ele>
        <time>2011-01-22T12:47:39Z</time>
      </trkpt>
      <trkpt lat="44.91528" lon="6.57003">
        <ele>2075.2</ele>
        <time>2011-01-22T12:47:43Z</time>
      </trkpt>
      <trkpt lat="44.9154" lon="6.57009">
        <ele>2073</ele>
        <time>2011-01-22T12:47:47Z</time>
      </trkpt>
      <trkpt lat="44.91547" lon="6.57012">
        <ele>2071.8</ele>
        <time>2011-01-22T12:47:49Z</time>
      </trkpt>
      <trkpt lat="44.91565" lon="6.57023">
        <ele>2069</ele>
        <time>2011-01-22T12:47:54Z</time>
      </trkpt>
      <trkpt lat="44.91582" lon="6.57034">
        <ele>2066.6</ele>
        <time>2011-01-22T12:47:58Z</time>
      </trkpt>
      <trkpt lat="44.91592" lon="6.5704">
        <ele>2065.6</ele>
        <time>2011-01-22T12:48:00Z</time>
      </trkpt>
      <trkpt lat="44.91604" lon="6.57046">
        <ele>2064.4</ele>
        <time>2011-01-22T12:48:02Z</time>
      </trkpt>
      <trkpt lat="44.91618" lon="6.57051">
        <ele>2063.2</ele>
        <time>2011-01-22T12:48:04Z</time>
      </trkpt>
      <trkpt lat="44.91626" lon="6.57053">
        <ele>2062.6</ele>
        <time>2011-01-22T12:48:05Z</time>
      </trkpt>
      <trkpt lat="44.91645" lon="6.57056">
        <ele>2061.2</ele>
        <time>2011-01-22T12:48:07Z</time>
      </trkpt>
      <trkpt lat="44.91667" lon="6.57055">
        <ele>2059.8</ele>
        <time>2011-01-22T12:48:09Z</time>
      </trkpt>
      <trkpt lat="44.91679" lon="6.57055">
        <ele>2059.2</ele>
        <time>2011-01-22T12:48:10Z</time>
      </trkpt>
      <trkpt lat="44.91691" lon="6.57061">
        <ele>2058.4</ele>
        <time>2011-01-22T12:48:11Z</time>
      </trkpt>
      <trkpt lat="44.91702" lon="6.57069">
        <ele>2057.6</ele>
        <time>2011-01-22T12:48:12Z</time>
      </trkpt>
      <trkpt lat="44.91714" lon="6.57079">
        <ele>2056.8</ele>
        <time>2011-01-22T12:48:13Z</time>
      </trkpt>
      <trkpt lat="44.91737" lon="6.57097">
        <ele>2055</ele>
        <time>2011-01-22T12:48:15Z</time>
      </trkpt>
      <trkpt lat="44.9175" lon="6.57105">
        <ele>2054.2</ele>
        <time>2011-01-22T12:48:16Z</time>
      </trkpt>
      <trkpt lat="44.91764" lon="6.57112">
        <ele>2053.2</ele>
        <time>2011-01-22T12:48:17Z</time>
      </trkpt>
      <trkpt lat="44.91791" lon="6.57129">
        <ele>2051.4</ele>
        <time>2011-01-22T12:48:19Z</time>
      </trkpt>
      <trkpt lat="44.91815" lon="6.57151">
        <ele>2049.6</ele>
        <time>2011-01-22T12:48:21Z</time>
      </trkpt>
      <trkpt lat="44.91824" lon="6.57163">
        <ele>2048.6</ele>
        <time>2011-01-22T12:48:22Z</time>
      </trkpt>
      <trkpt lat="44.91834" lon="6.57174">
        <ele>2047.6</ele>
        <time>2011-01-22T12:48:23Z</time>
      </trkpt>
      <trkpt lat="44.91854" lon="6.57191">
        <ele>2045.8</ele>
        <time>2011-01-22T12:48:25Z</time>
      </trkpt>
      <trkpt lat="44.91876" lon="6.572">
        <ele>2043.6</ele>
        <time>2011-01-22T12:48:27Z</time>
      </trkpt>
      <trkpt lat="44.91888" lon="6.57205">
        <ele>2042.8</ele>
        <time>2011-01-22T12:48:28Z</time>
      </trkpt>
      <trkpt lat="44.91899" lon="6.57208">
        <ele>2041.8</ele>
        <time>2011-01-22T12:48:29Z</time>
      </trkpt>
      <trkpt lat="44.91922" lon="6.57203">
        <ele>2039.6</ele>
        <time>2011-01-22T12:48:31Z</time>
      </trkpt>
      <trkpt lat="44.91944" lon="6.57192">
        <ele>2037.6</ele>
        <time>2011-01-22T12:48:33Z</time>
      </trkpt>
      <trkpt lat="44.91964" lon="6.57186">
        <ele>2035.4</ele>
        <time>2011-01-22T12:48:35Z</time>
      </trkpt>
      <trkpt lat="44.91984" lon="6.57188">
        <ele>2033.6</ele>
        <time>2011-01-22T12:48:37Z</time>
      </trkpt>
      <trkpt lat="44.91994" lon="6.5719">
        <ele>2032.6</ele>
        <time>2011-01-22T12:48:38Z</time>
      </trkpt>
      <trkpt lat="44.92003" lon="6.57193">
        <ele>2031.6</ele>
        <time>2011-01-22T12:48:39Z</time>
      </trkpt>
      <trkpt lat="44.92029" lon="6.57199">
        <ele>2028.8</ele>
        <time>2011-01-22T12:48:42Z</time>
      </trkpt>
      <trkpt lat="44.92045" lon="6.57201">
        <ele>2027</ele>
        <time>2011-01-22T12:48:44Z</time>
      </trkpt>
      <trkpt lat="44.92052" lon="6.57201">
        <ele>2026</ele>
        <time>2011-01-22T12:48:45Z</time>
      </trkpt>
      <trkpt lat="44.92067" lon="6.57198">
        <ele>2024.2</ele>
        <time>2011-01-22T12:48:47Z</time>
      </trkpt>
      <trkpt lat="44.92073" lon="6.57193">
        <ele>2023.2</ele>
        <time>2011-01-22T12:48:48Z</time>
      </trkpt>
      <trkpt lat="44.9209" lon="6.57177">
        <ele>2020.6</ele>
        <time>2011-01-22T12:48:51Z</time>
      </trkpt>
      <trkpt lat="44.92095" lon="6.57177">
        <ele>2018</ele>
        <time>2011-01-22T12:48:54Z</time>
      </trkpt>
      <trkpt lat="44.92096" lon="6.57179">
        <ele>2014.6</ele>
        <time>2011-01-22T12:48:58Z</time>
      </trkpt>
      <trkpt lat="44.92108" lon="6.57181">
        <ele>2012.8</ele>
        <time>2011-01-22T12:49:00Z</time>
      </trkpt>
      <trkpt lat="44.92119" lon="6.57181">
        <ele>2012</ele>
        <time>2011-01-22T12:49:01Z</time>
      </trkpt>
      <trkpt lat="44.92136" lon="6.57183">
        <ele>2011</ele>
        <time>2011-01-22T12:49:02Z</time>
      </trkpt>
      <trkpt lat="44.92151" lon="6.57184">
        <ele>2010</ele>
        <time>2011-01-22T12:49:03Z</time>
      </trkpt>
      <trkpt lat="44.92167" lon="6.57185">
        <ele>2009</ele>
        <time>2011-01-22T12:49:04Z</time>
      </trkpt>
      <trkpt lat="44.92194" lon="6.57188">
        <ele>2007</ele>
        <time>2011-01-22T12:49:06Z</time>
      </trkpt>
      <trkpt lat="44.92206" lon="6.57191">
        <ele>2006</ele>
        <time>2011-01-22T12:49:07Z</time>
      </trkpt>
      <trkpt lat="44.92221" lon="6.57193">
        <ele>2004.8</ele>
        <time>2011-01-22T12:49:08Z</time>
      </trkpt>
      <trkpt lat="44.9225" lon="6.57204">
        <ele>2002.6</ele>
        <time>2011-01-22T12:49:10Z</time>
      </trkpt>
      <trkpt lat="44.92264" lon="6.57212">
        <ele>2001.4</ele>
        <time>2011-01-22T12:49:11Z</time>
      </trkpt>
      <trkpt lat="44.92279" lon="6.57217">
        <ele>2000.4</ele>
        <time>2011-01-22T12:49:12Z</time>
      </trkpt>
      <trkpt lat="44.92293" lon="6.5722">
        <ele>1999.2</ele>
        <time>2011-01-22T12:49:13Z</time>
      </trkpt>
      <trkpt lat="44.92307" lon="6.57218">
        <ele>1998</ele>
        <time>2011-01-22T12:49:14Z</time>
      </trkpt>
      <trkpt lat="44.92319" lon="6.57215">
        <ele>1996.8</ele>
        <time>2011-01-22T12:49:15Z</time>
      </trkpt>
      <trkpt lat="44.9233" lon="6.57213">
        <ele>1995.8</ele>
        <time>2011-01-22T12:49:16Z</time>
      </trkpt>
      <trkpt lat="44.92349" lon="6.57221">
        <ele>1993.4</ele>
        <time>2011-01-22T12:49:18Z</time>
      </trkpt>
      <trkpt lat="44.92356" lon="6.57229">
        <ele>1992.2</ele>
        <time>2011-01-22T12:49:19Z</time>
      </trkpt>
      <trkpt lat="44.92362" lon="6.57238">
        <ele>1991.2</ele>
        <time>2011-01-22T12:49:20Z</time>
      </trkpt>
      <trkpt lat="44.92367" lon="6.57258">
        <ele>1988.8</ele>
        <time>2011-01-22T12:49:22Z</time>
      </trkpt>
      <trkpt lat="44.92369" lon="6.57267">
        <ele>1987.6</ele>
        <time>2011-01-22T12:49:23Z</time>
      </trkpt>
      <trkpt lat="44.92373" lon="6.57281">
        <ele>1985.4</ele>
        <time>2011-01-22T12:49:25Z</time>
      </trkpt>
      <trkpt lat="44.92374" lon="6.57285">
        <ele>1984.4</ele>
        <time>2011-01-22T12:49:26Z</time>
      </trkpt>
      <trkpt lat="44.92374" lon="6.57287">
        <ele>1983.4</ele>
        <time>2011-01-22T12:49:27Z</time>
      </trkpt>
      <trkpt lat="44.92374" lon="6.57291">
        <ele>1981.2</ele>
        <time>2011-01-22T12:49:29Z</time>
      </trkpt>
      <trkpt lat="44.92374" lon="6.57292">
        <ele>1980.2</ele>
        <time>2011-01-22T12:49:30Z</time>
      </trkpt>
      <trkpt lat="44.92376" lon="6.57297">
        <ele>1960.4</ele>
        <time>2011-01-22T12:49:52Z</time>
      </trkpt>
      <trkpt lat="44.92366" lon="6.57298">
        <ele>1922.6</ele>
        <time>2011-01-22T12:50:58Z</time>
      </trkpt>
      <trkpt lat="44.92366" lon="6.57285">
        <ele>1904.2</ele>
        <time>2011-01-22T12:52:01Z</time>
      </trkpt>
      <trkpt lat="44.92364" lon="6.57284">
        <ele>1902.6</ele>
        <time>2011-01-22T12:52:10Z</time>
      </trkpt>
      <trkpt lat="44.92361" lon="6.57276">
        <ele>1901.8</ele>
        <time>2011-01-22T12:52:14Z</time>
      </trkpt>
      <trkpt lat="44.92351" lon="6.57262">
        <ele>1901</ele>
        <time>2011-01-22T12:52:17Z</time>
      </trkpt>
      <trkpt lat="44.92344" lon="6.57252">
        <ele>1900.6</ele>
        <time>2011-01-22T12:52:19Z</time>
      </trkpt>
      <trkpt lat="44.92339" lon="6.57243">
        <ele>1900.4</ele>
        <time>2011-01-22T12:52:21Z</time>
      </trkpt>
      <trkpt lat="44.92327" lon="6.57219">
        <ele>1900</ele>
        <time>2011-01-22T12:52:26Z</time>
      </trkpt>
      <trkpt lat="44.92316" lon="6.57197">
        <ele>1899.8</ele>
        <time>2011-01-22T12:52:31Z</time>
      </trkpt>
      <trkpt lat="44.92308" lon="6.57183">
        <ele>1899.6</ele>
        <time>2011-01-22T12:52:34Z</time>
      </trkpt>
      <trkpt lat="44.92304" lon="6.57174">
        <ele>1899.6</ele>
        <time>2011-01-22T12:52:36Z</time>
      </trkpt>
      <trkpt lat="44.92292" lon="6.57152">
        <ele>1899.8</ele>
        <time>2011-01-22T12:52:41Z</time>
      </trkpt>
      <trkpt lat="44.9229" lon="6.57148">
        <ele>1900</ele>
        <time>2011-01-22T12:52:42Z</time>
      </trkpt>
      <trkpt lat="44.92282" lon="6.57131">
        <ele>1900.6</ele>
        <time>2011-01-22T12:52:46Z</time>
      </trkpt>
      <trkpt lat="44.9227" lon="6.57109">
        <ele>1901.8</ele>
        <time>2011-01-22T12:52:51Z</time>
      </trkpt>
      <trkpt lat="44.92266" lon="6.571">
        <ele>1902.6</ele>
        <time>2011-01-22T12:52:53Z</time>
      </trkpt>
      <trkpt lat="44.92259" lon="6.57087">
        <ele>1903.8</ele>
        <time>2011-01-22T12:52:56Z</time>
      </trkpt>
      <trkpt lat="44.92249" lon="6.57066">
        <ele>1906.2</ele>
        <time>2011-01-22T12:53:01Z</time>
      </trkpt>
      <trkpt lat="44.92244" lon="6.57058">
        <ele>1907.2</ele>
        <time>2011-01-22T12:53:03Z</time>
      </trkpt>
      <trkpt lat="44.92238" lon="6.57045">
        <ele>1909.2</ele>
        <time>2011-01-22T12:53:06Z</time>
      </trkpt>
      <trkpt lat="44.92227" lon="6.57024">
        <ele>1912.4</ele>
        <time>2011-01-22T12:53:11Z</time>
      </trkpt>
      <trkpt lat="44.92216" lon="6.57003">
        <ele>1916.2</ele>
        <time>2011-01-22T12:53:16Z</time>
      </trkpt>
      <trkpt lat="44.92206" lon="6.56983">
        <ele>1920.6</ele>
        <time>2011-01-22T12:53:21Z</time>
      </trkpt>
      <trkpt lat="44.92204" lon="6.56978">
        <ele>1921.4</ele>
        <time>2011-01-22T12:53:22Z</time>
      </trkpt>
      <trkpt lat="44.92192" lon="6.56955">
        <ele>1927.6</ele>
        <time>2011-01-22T12:53:28Z</time>
      </trkpt>
      <trkpt lat="44.92186" lon="6.56943">
        <ele>1930.8</ele>
        <time>2011-01-22T12:53:31Z</time>
      </trkpt>
      <trkpt lat="44.9218" lon="6.56931">
        <ele>1934.4</ele>
        <time>2011-01-22T12:53:34Z</time>
      </trkpt>
      <trkpt lat="44.92171" lon="6.56915">
        <ele>1939.2</ele>
        <time>2011-01-22T12:53:38Z</time>
      </trkpt>
      <trkpt lat="44.92169" lon="6.56911">
        <ele>1940.4</ele>
        <time>2011-01-22T12:53:39Z</time>
      </trkpt>
      <trkpt lat="44.92156" lon="6.56888">
        <ele>1948.4</ele>
        <time>2011-01-22T12:53:45Z</time>
      </trkpt>
      <trkpt lat="44.92154" lon="6.56884">
        <ele>1949.6</ele>
        <time>2011-01-22T12:53:46Z</time>
      </trkpt>
      <trkpt lat="44.92145" lon="6.56867">
        <ele>1955</ele>
        <time>2011-01-22T12:53:50Z</time>
      </trkpt>
      <trkpt lat="44.9214" lon="6.56858">
        <ele>1957.4</ele>
        <time>2011-01-22T12:53:52Z</time>
      </trkpt>
      <trkpt lat="44.92133" lon="6.56845">
        <ele>1961.2</ele>
        <time>2011-01-22T12:53:55Z</time>
      </trkpt>
      <trkpt lat="44.92124" lon="6.56828">
        <ele>1966</ele>
        <time>2011-01-22T12:53:59Z</time>
      </trkpt>
      <trkpt lat="44.92122" lon="6.56824">
        <ele>1967.4</ele>
        <time>2011-01-22T12:54:00Z</time>
      </trkpt>
      <trkpt lat="44.92111" lon="6.56802">
        <ele>1973.4</ele>
        <time>2011-01-22T12:54:05Z</time>
      </trkpt>
      <trkpt lat="44.92104" lon="6.56789">
        <ele>1977.2</ele>
        <time>2011-01-22T12:54:08Z</time>
      </trkpt>
      <trkpt lat="44.921" lon="6.56781">
        <ele>1979.6</ele>
        <time>2011-01-22T12:54:10Z</time>
      </trkpt>
      <trkpt lat="44.92089" lon="6.5676">
        <ele>1986</ele>
        <time>2011-01-22T12:54:15Z</time>
      </trkpt>
      <trkpt lat="44.92085" lon="6.56751">
        <ele>1988.6</ele>
        <time>2011-01-22T12:54:17Z</time>
      </trkpt>
      <trkpt lat="44.92078" lon="6.56739">
        <ele>1992.6</ele>
        <time>2011-01-22T12:54:20Z</time>
      </trkpt>
      <trkpt lat="44.92065" lon="6.56715">
        <ele>2000.6</ele>
        <time>2011-01-22T12:54:26Z</time>
      </trkpt>
      <trkpt lat="44.92063" lon="6.56711">
        <ele>2002</ele>
        <time>2011-01-22T12:54:27Z</time>
      </trkpt>
      <trkpt lat="44.92053" lon="6.56691">
        <ele>2009.2</ele>
        <time>2011-01-22T12:54:32Z</time>
      </trkpt>
      <trkpt lat="44.92043" lon="6.56671">
        <ele>2016.4</ele>
        <time>2011-01-22T12:54:37Z</time>
      </trkpt>
      <trkpt lat="44.9204" lon="6.56667">
        <ele>2018</ele>
        <time>2011-01-22T12:54:38Z</time>
      </trkpt>
      <trkpt lat="44.92031" lon="6.5665">
        <ele>2023.4</ele>
        <time>2011-01-22T12:54:42Z</time>
      </trkpt>
      <trkpt lat="44.92029" lon="6.56645">
        <ele>2024.8</ele>
        <time>2011-01-22T12:54:43Z</time>
      </trkpt>
      <trkpt lat="44.92018" lon="6.56624">
        <ele>2031.6</ele>
        <time>2011-01-22T12:54:48Z</time>
      </trkpt>
      <trkpt lat="44.92009" lon="6.56607">
        <ele>2037</ele>
        <time>2011-01-22T12:54:52Z</time>
      </trkpt>
      <trkpt lat="44.92007" lon="6.56603">
        <ele>2038.2</ele>
        <time>2011-01-22T12:54:53Z</time>
      </trkpt>
      <trkpt lat="44.91996" lon="6.56582">
        <ele>2044.8</ele>
        <time>2011-01-22T12:54:58Z</time>
      </trkpt>
      <trkpt lat="44.91985" lon="6.56562">
        <ele>2051.6</ele>
        <time>2011-01-22T12:55:03Z</time>
      </trkpt>
      <trkpt lat="44.91981" lon="6.56553">
        <ele>2054.2</ele>
        <time>2011-01-22T12:55:05Z</time>
      </trkpt>
      <trkpt lat="44.91974" lon="6.5654">
        <ele>2058.2</ele>
        <time>2011-01-22T12:55:08Z</time>
      </trkpt>
      <trkpt lat="44.91967" lon="6.56527">
        <ele>2062</ele>
        <time>2011-01-22T12:55:11Z</time>
      </trkpt>
      <trkpt lat="44.91963" lon="6.56518">
        <ele>2064.4</ele>
        <time>2011-01-22T12:55:13Z</time>
      </trkpt>
      <trkpt lat="44.91952" lon="6.56497">
        <ele>2070.8</ele>
        <time>2011-01-22T12:55:18Z</time>
      </trkpt>
      <trkpt lat="44.91945" lon="6.56484">
        <ele>2074.4</ele>
        <time>2011-01-22T12:55:21Z</time>
      </trkpt>
      <trkpt lat="44.91941" lon="6.56476">
        <ele>2077</ele>
        <time>2011-01-22T12:55:23Z</time>
      </trkpt>
      <trkpt lat="44.9193" lon="6.56455">
        <ele>2083.2</ele>
        <time>2011-01-22T12:55:28Z</time>
      </trkpt>
      <trkpt lat="44.91924" lon="6.56442">
        <ele>2087</ele>
        <time>2011-01-22T12:55:31Z</time>
      </trkpt>
      <trkpt lat="44.91919" lon="6.56434">
        <ele>2089.4</ele>
        <time>2011-01-22T12:55:33Z</time>
      </trkpt>
      <trkpt lat="44.91909" lon="6.56413">
        <ele>2095.8</ele>
        <time>2011-01-22T12:55:38Z</time>
      </trkpt>
      <trkpt lat="44.91898" lon="6.56393">
        <ele>2101.8</ele>
        <time>2011-01-22T12:55:43Z</time>
      </trkpt>
      <trkpt lat="44.91887" lon="6.56372">
        <ele>2107.8</ele>
        <time>2011-01-22T12:55:48Z</time>
      </trkpt>
      <trkpt lat="44.91875" lon="6.56347">
        <ele>2115</ele>
        <time>2011-01-22T12:55:54Z</time>
      </trkpt>
      <trkpt lat="44.91873" lon="6.56343">
        <ele>2116.2</ele>
        <time>2011-01-22T12:55:55Z</time>
      </trkpt>
      <trkpt lat="44.91866" lon="6.56331">
        <ele>2119.8</ele>
        <time>2011-01-22T12:55:58Z</time>
      </trkpt>
      <trkpt lat="44.91864" lon="6.56327">
        <ele>2121</ele>
        <time>2011-01-22T12:55:59Z</time>
      </trkpt>
      <trkpt lat="44.91852" lon="6.56302">
        <ele>2128.6</ele>
        <time>2011-01-22T12:56:05Z</time>
      </trkpt>
      <trkpt lat="44.91841" lon="6.56281">
        <ele>2135</ele>
        <time>2011-01-22T12:56:10Z</time>
      </trkpt>
      <trkpt lat="44.91839" lon="6.56277">
        <ele>2136.2</ele>
        <time>2011-01-22T12:56:11Z</time>
      </trkpt>
      <trkpt lat="44.91826" lon="6.56253">
        <ele>2144.2</ele>
        <time>2011-01-22T12:56:17Z</time>
      </trkpt>
      <trkpt lat="44.91816" lon="6.56233">
        <ele>2151.2</ele>
        <time>2011-01-22T12:56:22Z</time>
      </trkpt>
      <trkpt lat="44.91814" lon="6.56229">
        <ele>2152.4</ele>
        <time>2011-01-22T12:56:23Z</time>
      </trkpt>
      <trkpt lat="44.91802" lon="6.56207">
        <ele>2159.2</ele>
        <time>2011-01-22T12:56:28Z</time>
      </trkpt>
      <trkpt lat="44.91798" lon="6.56199">
        <ele>2162</ele>
        <time>2011-01-22T12:56:30Z</time>
      </trkpt>
      <trkpt lat="44.91791" lon="6.56187">
        <ele>2166</ele>
        <time>2011-01-22T12:56:33Z</time>
      </trkpt>
      <trkpt lat="44.91781" lon="6.56166">
        <ele>2173</ele>
        <time>2011-01-22T12:56:38Z</time>
      </trkpt>
      <trkpt lat="44.91772" lon="6.56149">
        <ele>2178.4</ele>
        <time>2011-01-22T12:56:42Z</time>
      </trkpt>
      <trkpt lat="44.9177" lon="6.56145">
        <ele>2179.8</ele>
        <time>2011-01-22T12:56:43Z</time>
      </trkpt>
      <trkpt lat="44.91757" lon="6.56121">
        <ele>2188.4</ele>
        <time>2011-01-22T12:56:49Z</time>
      </trkpt>
      <trkpt lat="44.91747" lon="6.561">
        <ele>2195.8</ele>
        <time>2011-01-22T12:56:54Z</time>
      </trkpt>
      <trkpt lat="44.91745" lon="6.56096">
        <ele>2197.2</ele>
        <time>2011-01-22T12:56:55Z</time>
      </trkpt>
      <trkpt lat="44.91733" lon="6.56075">
        <ele>2204.2</ele>
        <time>2011-01-22T12:57:00Z</time>
      </trkpt>
      <trkpt lat="44.91731" lon="6.56071">
        <ele>2205.6</ele>
        <time>2011-01-22T12:57:01Z</time>
      </trkpt>
      <trkpt lat="44.91722" lon="6.56054">
        <ele>2210.8</ele>
        <time>2011-01-22T12:57:05Z</time>
      </trkpt>
      <trkpt lat="44.91711" lon="6.56032">
        <ele>2216.8</ele>
        <time>2011-01-22T12:57:10Z</time>
      </trkpt>
      <trkpt lat="44.91706" lon="6.56023">
        <ele>2219.2</ele>
        <time>2011-01-22T12:57:12Z</time>
      </trkpt>
      <trkpt lat="44.917" lon="6.5601">
        <ele>2223</ele>
        <time>2011-01-22T12:57:15Z</time>
      </trkpt>
      <trkpt lat="44.91689" lon="6.55989">
        <ele>2228.8</ele>
        <time>2011-01-22T12:57:20Z</time>
      </trkpt>
      <trkpt lat="44.91678" lon="6.55968">
        <ele>2234.6</ele>
        <time>2011-01-22T12:57:25Z</time>
      </trkpt>
      <trkpt lat="44.91675" lon="6.55964">
        <ele>2235.8</ele>
        <time>2011-01-22T12:57:26Z</time>
      </trkpt>
      <trkpt lat="44.91666" lon="6.55946">
        <ele>2239.8</ele>
        <time>2011-01-22T12:57:30Z</time>
      </trkpt>
      <trkpt lat="44.91662" lon="6.55939">
        <ele>2241.8</ele>
        <time>2011-01-22T12:57:32Z</time>
      </trkpt>
      <trkpt lat="44.91657" lon="6.55929">
        <ele>2246.2</ele>
        <time>2011-01-22T12:57:37Z</time>
      </trkpt>
      <trkpt lat="44.91654" lon="6.55922">
        <ele>2250</ele>
        <time>2011-01-22T12:57:42Z</time>
      </trkpt>
      <trkpt lat="44.91648" lon="6.55912">
        <ele>2254.4</ele>
        <time>2011-01-22T12:57:49Z</time>
      </trkpt>
      <trkpt lat="44.91643" lon="6.55902">
        <ele>2258.4</ele>
        <time>2011-01-22T12:57:56Z</time>
      </trkpt>
      <trkpt lat="44.91639" lon="6.55895">
        <ele>2260</ele>
        <time>2011-01-22T12:57:59Z</time>
      </trkpt>
      <trkpt lat="44.91631" lon="6.5588">
        <ele>2262.6</ele>
        <time>2011-01-22T12:58:04Z</time>
      </trkpt>
      <trkpt lat="44.91623" lon="6.55864">
        <ele>2264.6</ele>
        <time>2011-01-22T12:58:08Z</time>
      </trkpt>
      <trkpt lat="44.9162" lon="6.55859">
        <ele>2265.2</ele>
        <time>2011-01-22T12:58:09Z</time>
      </trkpt>
      <trkpt lat="44.91609" lon="6.55838">
        <ele>2267.8</ele>
        <time>2011-01-22T12:58:14Z</time>
      </trkpt>
      <trkpt lat="44.91598" lon="6.55816">
        <ele>2270.6</ele>
        <time>2011-01-22T12:58:19Z</time>
      </trkpt>
      <trkpt lat="44.91593" lon="6.55806">
        <ele>2271.6</ele>
        <time>2011-01-22T12:58:21Z</time>
      </trkpt>
      <trkpt lat="44.91586" lon="6.55793">
        <ele>2273</ele>
        <time>2011-01-22T12:58:24Z</time>
      </trkpt>
      <trkpt lat="44.91574" lon="6.55771">
        <ele>2275.6</ele>
        <time>2011-01-22T12:58:29Z</time>
      </trkpt>
      <trkpt lat="44.91563" lon="6.55749">
        <ele>2278</ele>
        <time>2011-01-22T12:58:34Z</time>
      </trkpt>
      <trkpt lat="44.91561" lon="6.55744">
        <ele>2278.6</ele>
        <time>2011-01-22T12:58:35Z</time>
      </trkpt>
      <trkpt lat="44.91551" lon="6.55727">
        <ele>2280.6</ele>
        <time>2011-01-22T12:58:39Z</time>
      </trkpt>
      <trkpt lat="44.9154" lon="6.55705">
        <ele>2283.2</ele>
        <time>2011-01-22T12:58:44Z</time>
      </trkpt>
      <trkpt lat="44.91527" lon="6.5568">
        <ele>2286.6</ele>
        <time>2011-01-22T12:58:50Z</time>
      </trkpt>
      <trkpt lat="44.91516" lon="6.55659">
        <ele>2289.2</ele>
        <time>2011-01-22T12:58:55Z</time>
      </trkpt>
      <trkpt lat="44.91504" lon="6.55636">
        <ele>2291.8</ele>
        <time>2011-01-22T12:59:00Z</time>
      </trkpt>
      <trkpt lat="44.91492" lon="6.55615">
        <ele>2294.4</ele>
        <time>2011-01-22T12:59:05Z</time>
      </trkpt>
      <trkpt lat="44.91481" lon="6.55593">
        <ele>2296.8</ele>
        <time>2011-01-22T12:59:10Z</time>
      </trkpt>
      <trkpt lat="44.91474" lon="6.5558">
        <ele>2298.2</ele>
        <time>2011-01-22T12:59:13Z</time>
      </trkpt>
      <trkpt lat="44.91469" lon="6.55571">
        <ele>2299.2</ele>
        <time>2011-01-22T12:59:15Z</time>
      </trkpt>
      <trkpt lat="44.91457" lon="6.55549">
        <ele>2301.4</ele>
        <time>2011-01-22T12:59:20Z</time>
      </trkpt>
      <trkpt lat="44.91449" lon="6.55532">
        <ele>2303</ele>
        <time>2011-01-22T12:59:24Z</time>
      </trkpt>
      <trkpt lat="44.91448" lon="6.5553">
        <ele>2304.2</ele>
        <time>2011-01-22T12:59:27Z</time>
      </trkpt>
      <trkpt lat="44.91448" lon="6.55533">
        <ele>2306.4</ele>
        <time>2011-01-22T12:59:34Z</time>
      </trkpt>
      <trkpt lat="44.91448" lon="6.55532">
        <ele>2311.4</ele>
        <time>2011-01-22T12:59:55Z</time>
      </trkpt>
      <trkpt lat="44.91445" lon="6.55526">
        <ele>2312.2</ele>
        <time>2011-01-22T13:00:00Z</time>
      </trkpt>
      <trkpt lat="44.91438" lon="6.55512">
        <ele>2313.8</ele>
        <time>2011-01-22T13:00:08Z</time>
      </trkpt>
      <trkpt lat="44.91435" lon="6.55506">
        <ele>2314.2</ele>
        <time>2011-01-22T13:00:10Z</time>
      </trkpt>
      <trkpt lat="44.91426" lon="6.5549">
        <ele>2315.2</ele>
        <time>2011-01-22T13:00:15Z</time>
      </trkpt>
      <trkpt lat="44.91422" lon="6.55482">
        <ele>2315.8</ele>
        <time>2011-01-22T13:00:17Z</time>
      </trkpt>
      <trkpt lat="44.91415" lon="6.55469">
        <ele>2316.6</ele>
        <time>2011-01-22T13:00:20Z</time>
      </trkpt>
      <trkpt lat="44.91404" lon="6.55447">
        <ele>2318.2</ele>
        <time>2011-01-22T13:00:25Z</time>
      </trkpt>
      <trkpt lat="44.91399" lon="6.55438">
        <ele>2318.8</ele>
        <time>2011-01-22T13:00:27Z</time>
      </trkpt>
      <trkpt lat="44.91393" lon="6.55425">
        <ele>2320</ele>
        <time>2011-01-22T13:00:30Z</time>
      </trkpt>
      <trkpt lat="44.91382" lon="6.55403">
        <ele>2322</ele>
        <time>2011-01-22T13:00:35Z</time>
      </trkpt>
      <trkpt lat="44.91375" lon="6.5539">
        <ele>2323.4</ele>
        <time>2011-01-22T13:00:38Z</time>
      </trkpt>
      <trkpt lat="44.9137" lon="6.55382">
        <ele>2324.4</ele>
        <time>2011-01-22T13:00:40Z</time>
      </trkpt>
      <trkpt lat="44.91359" lon="6.5536">
        <ele>2327.2</ele>
        <time>2011-01-22T13:00:45Z</time>
      </trkpt>
      <trkpt lat="44.91348" lon="6.5534">
        <ele>2330.4</ele>
        <time>2011-01-22T13:00:50Z</time>
      </trkpt>
      <trkpt lat="44.91342" lon="6.55327">
        <ele>2332.6</ele>
        <time>2011-01-22T13:00:53Z</time>
      </trkpt>
      <trkpt lat="44.91337" lon="6.55318">
        <ele>2334</ele>
        <time>2011-01-22T13:00:55Z</time>
      </trkpt>
      <trkpt lat="44.91331" lon="6.55306">
        <ele>2336.2</ele>
        <time>2011-01-22T13:00:58Z</time>
      </trkpt>
      <trkpt lat="44.91326" lon="6.55297">
        <ele>2337.8</ele>
        <time>2011-01-22T13:01:00Z</time>
      </trkpt>
      <trkpt lat="44.91313" lon="6.55273">
        <ele>2343.2</ele>
        <time>2011-01-22T13:01:06Z</time>
      </trkpt>
      <trkpt lat="44.91309" lon="6.55266">
        <ele>2345.2</ele>
        <time>2011-01-22T13:01:08Z</time>
      </trkpt>
      <trkpt lat="44.913" lon="6.55252">
        <ele>2348.8</ele>
        <time>2011-01-22T13:01:12Z</time>
      </trkpt>
      <trkpt lat="44.91298" lon="6.55248">
        <ele>2349.6</ele>
        <time>2011-01-22T13:01:13Z</time>
      </trkpt>
      <trkpt lat="44.91294" lon="6.55237">
        <ele>2352.6</ele>
        <time>2011-01-22T13:01:17Z</time>
      </trkpt>
      <trkpt lat="44.91287" lon="6.55229">
        <ele>2356</ele>
        <time>2011-01-22T13:01:22Z</time>
      </trkpt>
      <trkpt lat="44.9128" lon="6.55229">
        <ele>2357.6</ele>
        <time>2011-01-22T13:01:25Z</time>
      </trkpt>
      <trkpt lat="44.91279" lon="6.5523">
        <ele>2358.2</ele>
        <time>2011-01-22T13:01:26Z</time>
      </trkpt>
      <trkpt lat="44.91277" lon="6.55231">
        <ele>2360.4</ele>
        <time>2011-01-22T13:01:31Z</time>
      </trkpt>
      <trkpt lat="44.91272" lon="6.55234">
        <ele>2362.4</ele>
        <time>2011-01-22T13:01:37Z</time>
      </trkpt>
      <trkpt lat="44.9127" lon="6.55236">
        <ele>2364.4</ele>
        <time>2011-01-22T13:01:44Z</time>
      </trkpt>
      <trkpt lat="44.9127" lon="6.55238">
        <ele>2364.6</ele>
        <time>2011-01-22T13:01:45Z</time>
      </trkpt>
      <trkpt lat="44.9127" lon="6.5524">
        <ele>2364.8</ele>
        <time>2011-01-22T13:01:46Z</time>
      </trkpt>
      <trkpt lat="44.91271" lon="6.55241">
        <ele>2366</ele>
        <time>2011-01-22T13:01:51Z</time>
      </trkpt>
      <trkpt lat="44.9127" lon="6.55245">
        <ele>2366.8</ele>
        <time>2011-01-22T13:01:57Z</time>
      </trkpt>
      <trkpt lat="44.91266" lon="6.55255">
        <ele>2366.8</ele>
        <time>2011-01-22T13:01:59Z</time>
      </trkpt>
      <trkpt lat="44.91263" lon="6.55264">
        <ele>2366.6</ele>
        <time>2011-01-22T13:02:00Z</time>
      </trkpt>
      <trkpt lat="44.91259" lon="6.55273">
        <ele>2366.6</ele>
        <time>2011-01-22T13:02:01Z</time>
      </trkpt>
      <trkpt lat="44.91254" lon="6.5528">
        <ele>2366.6</ele>
        <time>2011-01-22T13:02:02Z</time>
      </trkpt>
      <trkpt lat="44.9125" lon="6.55285">
        <ele>2366.4</ele>
        <time>2011-01-22T13:02:03Z</time>
      </trkpt>
      <trkpt lat="44.91239" lon="6.55298">
        <ele>2366.2</ele>
        <time>2011-01-22T13:02:06Z</time>
      </trkpt>
      <trkpt lat="44.91234" lon="6.55301">
        <ele>2366</ele>
        <time>2011-01-22T13:02:07Z</time>
      </trkpt>
      <trkpt lat="44.9122" lon="6.55306">
        <ele>2365.4</ele>
        <time>2011-01-22T13:02:10Z</time>
      </trkpt>
      <trkpt lat="44.91211" lon="6.55324">
        <ele>2364.6</ele>
        <time>2011-01-22T13:02:13Z</time>
      </trkpt>
      <trkpt lat="44.9121" lon="6.55333">
        <ele>2364.4</ele>
        <time>2011-01-22T13:02:14Z</time>
      </trkpt>
      <trkpt lat="44.91203" lon="6.55354">
        <ele>2363.8</ele>
        <time>2011-01-22T13:02:16Z</time>
      </trkpt>
      <trkpt lat="44.91204" lon="6.55382">
        <ele>2363</ele>
        <time>2011-01-22T13:02:18Z</time>
      </trkpt>
      <trkpt lat="44.91209" lon="6.55398">
        <ele>2362.6</ele>
        <time>2011-01-22T13:02:19Z</time>
      </trkpt>
      <trkpt lat="44.91211" lon="6.55413">
        <ele>2362.2</ele>
        <time>2011-01-22T13:02:20Z</time>
      </trkpt>
      <trkpt lat="44.91221" lon="6.55442">
        <ele>2361.2</ele>
        <time>2011-01-22T13:02:22Z</time>
      </trkpt>
      <trkpt lat="44.91228" lon="6.55474">
        <ele>2360</ele>
        <time>2011-01-22T13:02:24Z</time>
      </trkpt>
      <trkpt lat="44.91233" lon="6.55492">
        <ele>2359.4</ele>
        <time>2011-01-22T13:02:25Z</time>
      </trkpt>
      <trkpt lat="44.91239" lon="6.55512">
        <ele>2358.8</ele>
        <time>2011-01-22T13:02:26Z</time>
      </trkpt>
      <trkpt lat="44.91245" lon="6.55557">
        <ele>2357.4</ele>
        <time>2011-01-22T13:02:28Z</time>
      </trkpt>
      <trkpt lat="44.91249" lon="6.55602">
        <ele>2355.8</ele>
        <time>2011-01-22T13:02:30Z</time>
      </trkpt>
      <trkpt lat="44.91247" lon="6.55625">
        <ele>2355</ele>
        <time>2011-01-22T13:02:31Z</time>
      </trkpt>
      <trkpt lat="44.91247" lon="6.55648">
        <ele>2354</ele>
        <time>2011-01-22T13:02:32Z</time>
      </trkpt>
      <trkpt lat="44.91256" lon="6.55688">
        <ele>2352.2</ele>
        <time>2011-01-22T13:02:34Z</time>
      </trkpt>
      <trkpt lat="44.91258" lon="6.55707">
        <ele>2351.4</ele>
        <time>2011-01-22T13:02:35Z</time>
      </trkpt>
      <trkpt lat="44.9126" lon="6.55727">
        <ele>2350.4</ele>
        <time>2011-01-22T13:02:36Z</time>
      </trkpt>
      <trkpt lat="44.91265" lon="6.55742">
        <ele>2349.4</ele>
        <time>2011-01-22T13:02:37Z</time>
      </trkpt>
      <trkpt lat="44.91274" lon="6.55757">
        <ele>2348.2</ele>
        <time>2011-01-22T13:02:38Z</time>
      </trkpt>
      <trkpt lat="44.91279" lon="6.55776">
        <ele>2347.2</ele>
        <time>2011-01-22T13:02:39Z</time>
      </trkpt>
      <trkpt lat="44.91281" lon="6.55794">
        <ele>2346.2</ele>
        <time>2011-01-22T13:02:40Z</time>
      </trkpt>
      <trkpt lat="44.91285" lon="6.55813">
        <ele>2345.2</ele>
        <time>2011-01-22T13:02:41Z</time>
      </trkpt>
      <trkpt lat="44.91291" lon="6.5583">
        <ele>2344</ele>
        <time>2011-01-22T13:02:42Z</time>
      </trkpt>
      <trkpt lat="44.91298" lon="6.55864">
        <ele>2341.8</ele>
        <time>2011-01-22T13:02:44Z</time>
      </trkpt>
      <trkpt lat="44.91307" lon="6.55897">
        <ele>2339.6</ele>
        <time>2011-01-22T13:02:46Z</time>
      </trkpt>
      <trkpt lat="44.91311" lon="6.55915">
        <ele>2338.2</ele>
        <time>2011-01-22T13:02:47Z</time>
      </trkpt>
      <trkpt lat="44.91317" lon="6.55934">
        <ele>2337</ele>
        <time>2011-01-22T13:02:48Z</time>
      </trkpt>
      <trkpt lat="44.9133" lon="6.55971">
        <ele>2334.6</ele>
        <time>2011-01-22T13:02:50Z</time>
      </trkpt>
      <trkpt lat="44.91338" lon="6.55987">
        <ele>2333.4</ele>
        <time>2011-01-22T13:02:51Z</time>
      </trkpt>
      <trkpt lat="44.91345" lon="6.56002">
        <ele>2332.2</ele>
        <time>2011-01-22T13:02:52Z</time>
      </trkpt>
      <trkpt lat="44.9135" lon="6.56018">
        <ele>2330.8</ele>
        <time>2011-01-22T13:02:53Z</time>
      </trkpt>
      <trkpt lat="44.91355" lon="6.56035">
        <ele>2329.6</ele>
        <time>2011-01-22T13:02:54Z</time>
      </trkpt>
      <trkpt lat="44.91368" lon="6.56067">
        <ele>2327</ele>
        <time>2011-01-22T13:02:56Z</time>
      </trkpt>
      <trkpt lat="44.91376" lon="6.56101">
        <ele>2324.4</ele>
        <time>2011-01-22T13:02:58Z</time>
      </trkpt>
      <trkpt lat="44.91381" lon="6.56118">
        <ele>2323</ele>
        <time>2011-01-22T13:02:59Z</time>
      </trkpt>
      <trkpt lat="44.91387" lon="6.56135">
        <ele>2321.8</ele>
        <time>2011-01-22T13:03:00Z</time>
      </trkpt>
      <trkpt lat="44.91395" lon="6.56169">
        <ele>2319</ele>
        <time>2011-01-22T13:03:02Z</time>
      </trkpt>
      <trkpt lat="44.91398" lon="6.56183">
        <ele>2317.8</ele>
        <time>2011-01-22T13:03:03Z</time>
      </trkpt>
      <trkpt lat="44.91402" lon="6.56196">
        <ele>2316.4</ele>
        <time>2011-01-22T13:03:04Z</time>
      </trkpt>
      <trkpt lat="44.91402" lon="6.56205">
        <ele>2315.2</ele>
        <time>2011-01-22T13:03:05Z</time>
      </trkpt>
      <trkpt lat="44.91395" lon="6.56215">
        <ele>2312.4</ele>
        <time>2011-01-22T13:03:07Z</time>
      </trkpt>
      <trkpt lat="44.9139" lon="6.56216">
        <ele>2309.8</ele>
        <time>2011-01-22T13:03:09Z</time>
      </trkpt>
      <trkpt lat="44.91388" lon="6.56215">
        <ele>2308.6</ele>
        <time>2011-01-22T13:03:10Z</time>
      </trkpt>
      <trkpt lat="44.91384" lon="6.56211">
        <ele>2304</ele>
        <time>2011-01-22T13:03:14Z</time>
      </trkpt>
      <trkpt lat="44.91384" lon="6.56211">
        <ele>2302.8</ele>
        <time>2011-01-22T13:03:15Z</time>
      </trkpt>
      <trkpt lat="44.91383" lon="6.56207">
        <ele>2275.8</ele>
        <time>2011-01-22T13:03:43Z</time>
      </trkpt>
      <trkpt lat="44.91383" lon="6.56206">
        <ele>2273.4</ele>
        <time>2011-01-22T13:03:46Z</time>
      </trkpt>
      <trkpt lat="44.91382" lon="6.56203">
        <ele>2267.4</ele>
        <time>2011-01-22T13:03:54Z</time>
      </trkpt>
      <trkpt lat="44.9138" lon="6.562">
        <ele>2263</ele>
        <time>2011-01-22T13:04:00Z</time>
      </trkpt>
      <trkpt lat="44.91379" lon="6.56197">
        <ele>2260.2</ele>
        <time>2011-01-22T13:04:04Z</time>
      </trkpt>
      <trkpt lat="44.91379" lon="6.56196">
        <ele>2259</ele>
        <time>2011-01-22T13:04:06Z</time>
      </trkpt>
      <trkpt lat="44.91378" lon="6.56194">
        <ele>2255.8</ele>
        <time>2011-01-22T13:04:11Z</time>
      </trkpt>
      <trkpt lat="44.91377" lon="6.56191">
        <ele>2251.4</ele>
        <time>2011-01-22T13:04:18Z</time>
      </trkpt>
      <trkpt lat="44.91373" lon="6.56193">
        <ele>2248</ele>
        <time>2011-01-22T13:04:24Z</time>
      </trkpt>
      <trkpt lat="44.91372" lon="6.5619">
        <ele>2247</ele>
        <time>2011-01-22T13:04:26Z</time>
      </trkpt>
      <trkpt lat="44.91371" lon="6.5618">
        <ele>2245.8</ele>
        <time>2011-01-22T13:04:28Z</time>
      </trkpt>
      <trkpt lat="44.91371" lon="6.56175">
        <ele>2245.4</ele>
        <time>2011-01-22T13:04:29Z</time>
      </trkpt>
      <trkpt lat="44.91371" lon="6.56168">
        <ele>2244.8</ele>
        <time>2011-01-22T13:04:30Z</time>
      </trkpt>
      <trkpt lat="44.91368" lon="6.56147">
        <ele>2243.4</ele>
        <time>2011-01-22T13:04:33Z</time>
      </trkpt>
      <trkpt lat="44.91367" lon="6.56142">
        <ele>2242.8</ele>
        <time>2011-01-22T13:04:34Z</time>
      </trkpt>
      <trkpt lat="44.91362" lon="6.5612">
        <ele>2241.2</ele>
        <time>2011-01-22T13:04:38Z</time>
      </trkpt>
      <trkpt lat="44.9136" lon="6.5611">
        <ele>2240.4</ele>
        <time>2011-01-22T13:04:40Z</time>
      </trkpt>
      <trkpt lat="44.91357" lon="6.56093">
        <ele>2239.4</ele>
        <time>2011-01-22T13:04:43Z</time>
      </trkpt>
      <trkpt lat="44.91353" lon="6.56077">
        <ele>2238.4</ele>
        <time>2011-01-22T13:04:46Z</time>
      </trkpt>
      <trkpt lat="44.91351" lon="6.56066">
        <ele>2238</ele>
        <time>2011-01-22T13:04:48Z</time>
      </trkpt>
      <trkpt lat="44.91347" lon="6.56044">
        <ele>2236.8</ele>
        <time>2011-01-22T13:04:52Z</time>
      </trkpt>
      <trkpt lat="44.91346" lon="6.56039">
        <ele>2236.6</ele>
        <time>2011-01-22T13:04:53Z</time>
      </trkpt>
      <trkpt lat="44.9134" lon="6.56012">
        <ele>2235.8</ele>
        <time>2011-01-22T13:04:58Z</time>
      </trkpt>
      <trkpt lat="44.91335" lon="6.55985">
        <ele>2235</ele>
        <time>2011-01-22T13:05:03Z</time>
      </trkpt>
      <trkpt lat="44.91334" lon="6.5598">
        <ele>2235</ele>
        <time>2011-01-22T13:05:04Z</time>
      </trkpt>
      <trkpt lat="44.91329" lon="6.55958">
        <ele>2234.6</ele>
        <time>2011-01-22T13:05:08Z</time>
      </trkpt>
      <trkpt lat="44.91327" lon="6.55947">
        <ele>2234.4</ele>
        <time>2011-01-22T13:05:10Z</time>
      </trkpt>
      <trkpt lat="44.91324" lon="6.55931">
        <ele>2234.2</ele>
        <time>2011-01-22T13:05:13Z</time>
      </trkpt>
      <trkpt lat="44.91319" lon="6.5591">
        <ele>2234.2</ele>
        <time>2011-01-22T13:05:17Z</time>
      </trkpt>
      <trkpt lat="44.91318" lon="6.55905">
        <ele>2234.2</ele>
        <time>2011-01-22T13:05:18Z</time>
      </trkpt>
      <trkpt lat="44.91313" lon="6.55878">
        <ele>2234.8</ele>
        <time>2011-01-22T13:05:23Z</time>
      </trkpt>
      <trkpt lat="44.91312" lon="6.55873">
        <ele>2235</ele>
        <time>2011-01-22T13:05:24Z</time>
      </trkpt>
      <trkpt lat="44.91307" lon="6.55852">
        <ele>2236.2</ele>
        <time>2011-01-22T13:05:28Z</time>
      </trkpt>
      <trkpt lat="44.91304" lon="6.55836">
        <ele>2237</ele>
        <time>2011-01-22T13:05:31Z</time>
      </trkpt>
      <trkpt lat="44.91302" lon="6.55825">
        <ele>2237.6</ele>
        <time>2011-01-22T13:05:33Z</time>
      </trkpt>
      <trkpt lat="44.91296" lon="6.55798">
        <ele>2239.4</ele>
        <time>2011-01-22T13:05:38Z</time>
      </trkpt>
      <trkpt lat="44.91291" lon="6.55771">
        <ele>2241.6</ele>
        <time>2011-01-22T13:05:43Z</time>
      </trkpt>
      <trkpt lat="44.91286" lon="6.55749">
        <ele>2243.6</ele>
        <time>2011-01-22T13:05:47Z</time>
      </trkpt>
      <trkpt lat="44.91285" lon="6.55744">
        <ele>2244</ele>
        <time>2011-01-22T13:05:48Z</time>
      </trkpt>
      <trkpt lat="44.9128" lon="6.55718">
        <ele>2247</ele>
        <time>2011-01-22T13:05:53Z</time>
      </trkpt>
      <trkpt lat="44.91276" lon="6.55702">
        <ele>2248.8</ele>
        <time>2011-01-22T13:05:56Z</time>
      </trkpt>
      <trkpt lat="44.91274" lon="6.55691">
        <ele>2250.2</ele>
        <time>2011-01-22T13:05:58Z</time>
      </trkpt>
      <trkpt lat="44.91269" lon="6.55665">
        <ele>2254</ele>
        <time>2011-01-22T13:06:03Z</time>
      </trkpt>
      <trkpt lat="44.91266" lon="6.55649">
        <ele>2256.2</ele>
        <time>2011-01-22T13:06:06Z</time>
      </trkpt>
      <trkpt lat="44.91263" lon="6.55639">
        <ele>2257.6</ele>
        <time>2011-01-22T13:06:08Z</time>
      </trkpt>
      <trkpt lat="44.91258" lon="6.55612">
        <ele>2261.6</ele>
        <time>2011-01-22T13:06:13Z</time>
      </trkpt>
      <trkpt lat="44.91254" lon="6.55596">
        <ele>2263.8</ele>
        <time>2011-01-22T13:06:16Z</time>
      </trkpt>
      <trkpt lat="44.91252" lon="6.55585">
        <ele>2265.4</ele>
        <time>2011-01-22T13:06:18Z</time>
      </trkpt>
      <trkpt lat="44.91247" lon="6.55559">
        <ele>2269.6</ele>
        <time>2011-01-22T13:06:23Z</time>
      </trkpt>
      <trkpt lat="44.91241" lon="6.55532">
        <ele>2273.8</ele>
        <time>2011-01-22T13:06:28Z</time>
      </trkpt>
      <trkpt lat="44.91237" lon="6.55512">
        <ele>2277.6</ele>
        <time>2011-01-22T13:06:32Z</time>
      </trkpt>
      <trkpt lat="44.91236" lon="6.55506">
        <ele>2278.4</ele>
        <time>2011-01-22T13:06:33Z</time>
      </trkpt>
      <trkpt lat="44.91231" lon="6.5548">
        <ele>2283.4</ele>
        <time>2011-01-22T13:06:38Z</time>
      </trkpt>
      <trkpt lat="44.91225" lon="6.55454">
        <ele>2288.4</ele>
        <time>2011-01-22T13:06:43Z</time>
      </trkpt>
      <trkpt lat="44.91222" lon="6.55439">
        <ele>2291.4</ele>
        <time>2011-01-22T13:06:46Z</time>
      </trkpt>
      <trkpt lat="44.9122" lon="6.55428">
        <ele>2293.4</ele>
        <time>2011-01-22T13:06:48Z</time>
      </trkpt>
      <trkpt lat="44.91214" lon="6.55402">
        <ele>2298.4</ele>
        <time>2011-01-22T13:06:53Z</time>
      </trkpt>
      <trkpt lat="44.91212" lon="6.55391">
        <ele>2300.6</ele>
        <time>2011-01-22T13:06:55Z</time>
      </trkpt>
      <trkpt lat="44.91209" lon="6.55375">
        <ele>2303.6</ele>
        <time>2011-01-22T13:06:58Z</time>
      </trkpt>
      <trkpt lat="44.91203" lon="6.55349">
        <ele>2309</ele>
        <time>2011-01-22T13:07:03Z</time>
      </trkpt>
      <trkpt lat="44.91202" lon="6.55344">
        <ele>2310.2</ele>
        <time>2011-01-22T13:07:04Z</time>
      </trkpt>
      <trkpt lat="44.91198" lon="6.55324">
        <ele>2314.6</ele>
        <time>2011-01-22T13:07:08Z</time>
      </trkpt>
      <trkpt lat="44.91193" lon="6.55298">
        <ele>2320.6</ele>
        <time>2011-01-22T13:07:13Z</time>
      </trkpt>
      <trkpt lat="44.91188" lon="6.55273">
        <ele>2327</ele>
        <time>2011-01-22T13:07:18Z</time>
      </trkpt>
      <trkpt lat="44.91185" lon="6.55258">
        <ele>2331</ele>
        <time>2011-01-22T13:07:21Z</time>
      </trkpt>
      <trkpt lat="44.91183" lon="6.55249">
        <ele>2333.6</ele>
        <time>2011-01-22T13:07:23Z</time>
      </trkpt>
      <trkpt lat="44.91177" lon="6.55224">
        <ele>2340.6</ele>
        <time>2011-01-22T13:07:28Z</time>
      </trkpt>
      <trkpt lat="44.91172" lon="6.55199">
        <ele>2348</ele>
        <time>2011-01-22T13:07:33Z</time>
      </trkpt>
      <trkpt lat="44.9117" lon="6.5519">
        <ele>2351.2</ele>
        <time>2011-01-22T13:07:35Z</time>
      </trkpt>
      <trkpt lat="44.91166" lon="6.5517">
        <ele>2357.4</ele>
        <time>2011-01-22T13:07:39Z</time>
      </trkpt>
      <trkpt lat="44.91161" lon="6.55146">
        <ele>2365.4</ele>
        <time>2011-01-22T13:07:44Z</time>
      </trkpt>
      <trkpt lat="44.9116" lon="6.55141">
        <ele>2367</ele>
        <time>2011-01-22T13:07:45Z</time>
      </trkpt>
      <trkpt lat="44.91155" lon="6.55117">
        <ele>2375.4</ele>
        <time>2011-01-22T13:07:50Z</time>
      </trkpt>
      <trkpt lat="44.91151" lon="6.55101">
        <ele>2382.8</ele>
        <time>2011-01-22T13:07:54Z</time>
      </trkpt>
      <trkpt lat="44.9115" lon="6.55092">
        <ele>2386.6</ele>
        <time>2011-01-22T13:07:56Z</time>
      </trkpt>
      <trkpt lat="44.91145" lon="6.55071">
        <ele>2396.6</ele>
        <time>2011-01-22T13:08:01Z</time>
      </trkpt>
      <trkpt lat="44.91144" lon="6.55067">
        <ele>2398.8</ele>
        <time>2011-01-22T13:08:02Z</time>
      </trkpt>
      <trkpt lat="44.9114" lon="6.55046">
        <ele>2409.2</ele>
        <time>2011-01-22T13:08:07Z</time>
      </trkpt>
      <trkpt lat="44.91139" lon="6.55041">
        <ele>2411.4</ele>
        <time>2011-01-22T13:08:08Z</time>
      </trkpt>
      <trkpt lat="44.91135" lon="6.55026">
        <ele>2417.6</ele>
        <time>2011-01-22T13:08:11Z</time>
      </trkpt>
      <trkpt lat="44.91131" lon="6.55016">
        <ele>2421.8</ele>
        <time>2011-01-22T13:08:13Z</time>
      </trkpt>
      <trkpt lat="44.91127" lon="6.55006">
        <ele>2427.6</ele>
        <time>2011-01-22T13:08:16Z</time>
      </trkpt>
      <trkpt lat="44.91127" lon="6.54998">
        <ele>2432.8</ele>
        <time>2011-01-22T13:08:19Z</time>
      </trkpt>
      <trkpt lat="44.91125" lon="6.5499">
        <ele>2436</ele>
        <time>2011-01-22T13:08:21Z</time>
      </trkpt>
      <trkpt lat="44.9112" lon="6.54976">
        <ele>2442.2</ele>
        <time>2011-01-22T13:08:25Z</time>
      </trkpt>
      <trkpt lat="44.91121" lon="6.54973">
        <ele>2446.8</ele>
        <time>2011-01-22T13:08:29Z</time>
      </trkpt>
      <trkpt lat="44.91126" lon="6.54978">
        <ele>2479</ele>
        <time>2011-01-22T13:09:40Z</time>
      </trkpt>
      <trkpt lat="44.91127" lon="6.54978">
        <ele>2479.2</ele>
        <time>2011-01-22T13:09:42Z</time>
      </trkpt>
      <trkpt lat="44.91129" lon="6.54977">
        <ele>2479.4</ele>
        <time>2011-01-22T13:09:45Z</time>
      </trkpt>
      <trkpt lat="44.9113" lon="6.54976">
        <ele>2479.8</ele>
        <time>2011-01-22T13:09:51Z</time>
      </trkpt>
      <trkpt lat="44.91133" lon="6.54977">
        <ele>2482.2</ele>
        <time>2011-01-22T13:10:48Z</time>
      </trkpt>
      <trkpt lat="44.91136" lon="6.54978">
        <ele>2482.2</ele>
        <time>2011-01-22T13:10:50Z</time>
      </trkpt>
      <trkpt lat="44.91143" lon="6.54985">
        <ele>2482</ele>
        <time>2011-01-22T13:10:54Z</time>
      </trkpt>
      <trkpt lat="44.91146" lon="6.54989">
        <ele>2482</ele>
        <time>2011-01-22T13:10:55Z</time>
      </trkpt>
      <trkpt lat="44.91149" lon="6.55006">
        <ele>2481.8</ele>
        <time>2011-01-22T13:10:58Z</time>
      </trkpt>
      <trkpt lat="44.91152" lon="6.55014">
        <ele>2481.6</ele>
        <time>2011-01-22T13:10:59Z</time>
      </trkpt>
      <trkpt lat="44.9115" lon="6.55035">
        <ele>2481.2</ele>
        <time>2011-01-22T13:11:02Z</time>
      </trkpt>
      <trkpt lat="44.9114" lon="6.55046">
        <ele>2480.6</ele>
        <time>2011-01-22T13:11:05Z</time>
      </trkpt>
      <trkpt lat="44.91133" lon="6.55052">
        <ele>2480</ele>
        <time>2011-01-22T13:11:08Z</time>
      </trkpt>
      <trkpt lat="44.9113" lon="6.55054">
        <ele>2479.8</ele>
        <time>2011-01-22T13:11:09Z</time>
      </trkpt>
      <trkpt lat="44.9112" lon="6.55061">
        <ele>2478.8</ele>
        <time>2011-01-22T13:11:14Z</time>
      </trkpt>
      <trkpt lat="44.91117" lon="6.55065">
        <ele>2478.4</ele>
        <time>2011-01-22T13:11:15Z</time>
      </trkpt>
      <trkpt lat="44.91108" lon="6.55074">
        <ele>2478</ele>
        <time>2011-01-22T13:11:17Z</time>
      </trkpt>
      <trkpt lat="44.91102" lon="6.5508">
        <ele>2477.6</ele>
        <time>2011-01-22T13:11:18Z</time>
      </trkpt>
      <trkpt lat="44.91088" lon="6.55097">
        <ele>2476.6</ele>
        <time>2011-01-22T13:11:21Z</time>
      </trkpt>
      <trkpt lat="44.91088" lon="6.55104">
        <ele>2476.2</ele>
        <time>2011-01-22T13:11:22Z</time>
      </trkpt>
      <trkpt lat="44.91088" lon="6.55113">
        <ele>2475.8</ele>
        <time>2011-01-22T13:11:23Z</time>
      </trkpt>
      <trkpt lat="44.9108" lon="6.55128">
        <ele>2474.8</ele>
        <time>2011-01-22T13:11:25Z</time>
      </trkpt>
      <trkpt lat="44.91077" lon="6.55135">
        <ele>2474.2</ele>
        <time>2011-01-22T13:11:26Z</time>
      </trkpt>
      <trkpt lat="44.91086" lon="6.55147">
        <ele>2473</ele>
        <time>2011-01-22T13:11:28Z</time>
      </trkpt>
      <trkpt lat="44.91094" lon="6.55156">
        <ele>2472.6</ele>
        <time>2011-01-22T13:11:29Z</time>
      </trkpt>
      <trkpt lat="44.91098" lon="6.55165">
        <ele>2471.8</ele>
        <time>2011-01-22T13:11:30Z</time>
      </trkpt>
      <trkpt lat="44.91101" lon="6.55174">
        <ele>2471.2</ele>
        <time>2011-01-22T13:11:31Z</time>
      </trkpt>
      <trkpt lat="44.91107" lon="6.5518">
        <ele>2470.6</ele>
        <time>2011-01-22T13:11:32Z</time>
      </trkpt>
      <trkpt lat="44.91113" lon="6.55187">
        <ele>2469.8</ele>
        <time>2011-01-22T13:11:33Z</time>
      </trkpt>
      <trkpt lat="44.91116" lon="6.55202">
        <ele>2468.4</ele>
        <time>2011-01-22T13:11:35Z</time>
      </trkpt>
      <trkpt lat="44.91119" lon="6.55209">
        <ele>2467.6</ele>
        <time>2011-01-22T13:11:36Z</time>
      </trkpt>
      <trkpt lat="44.91131" lon="6.55219">
        <ele>2465.2</ele>
        <time>2011-01-22T13:11:39Z</time>
      </trkpt>
      <trkpt lat="44.91128" lon="6.5524">
        <ele>2462.6</ele>
        <time>2011-01-22T13:11:42Z</time>
      </trkpt>
      <trkpt lat="44.91122" lon="6.55258">
        <ele>2460.8</ele>
        <time>2011-01-22T13:11:44Z</time>
      </trkpt>
      <trkpt lat="44.91122" lon="6.55268">
        <ele>2459.8</ele>
        <time>2011-01-22T13:11:45Z</time>
      </trkpt>
      <trkpt lat="44.9114" lon="6.55287">
        <ele>2456.8</ele>
        <time>2011-01-22T13:11:48Z</time>
      </trkpt>
      <trkpt lat="44.9114" lon="6.55301">
        <ele>2454.6</ele>
        <time>2011-01-22T13:11:50Z</time>
      </trkpt>
      <trkpt lat="44.91138" lon="6.55306">
        <ele>2452.6</ele>
        <time>2011-01-22T13:11:52Z</time>
      </trkpt>
      <trkpt lat="44.91138" lon="6.55305">
        <ele>2447.6</ele>
        <time>2011-01-22T13:11:57Z</time>
      </trkpt>
      <trkpt lat="44.91138" lon="6.55304">
        <ele>2439.8</ele>
        <time>2011-01-22T13:12:06Z</time>
      </trkpt>
      <trkpt lat="44.91137" lon="6.55302">
        <ele>2416.2</ele>
        <time>2011-01-22T13:12:41Z</time>
      </trkpt>
      <trkpt lat="44.91137" lon="6.55302">
        <ele>2399</ele>
        <time>2011-01-22T13:13:18Z</time>
      </trkpt>
      <trkpt lat="44.91138" lon="6.55302">
        <ele>2397.8</ele>
        <time>2011-01-22T13:13:21Z</time>
      </trkpt>
      <trkpt lat="44.91145" lon="6.55305">
        <ele>2396.6</ele>
        <time>2011-01-22T13:13:24Z</time>
      </trkpt>
      <trkpt lat="44.91154" lon="6.55312">
        <ele>2395.8</ele>
        <time>2011-01-22T13:13:26Z</time>
      </trkpt>
      <trkpt lat="44.91162" lon="6.5532">
        <ele>2394.8</ele>
        <time>2011-01-22T13:13:28Z</time>
      </trkpt>
      <trkpt lat="44.91169" lon="6.55319">
        <ele>2394</ele>
        <time>2011-01-22T13:13:30Z</time>
      </trkpt>
      <trkpt lat="44.9117" lon="6.55319">
        <ele>2392.8</ele>
        <time>2011-01-22T13:13:33Z</time>
      </trkpt>
      <trkpt lat="44.9117" lon="6.55321">
        <ele>2389</ele>
        <time>2011-01-22T13:13:42Z</time>
      </trkpt>
      <trkpt lat="44.91171" lon="6.55322">
        <ele>2387.2</ele>
        <time>2011-01-22T13:13:46Z</time>
      </trkpt>
      <trkpt lat="44.91174" lon="6.55331">
        <ele>2382.4</ele>
        <time>2011-01-22T13:13:58Z</time>
      </trkpt>
      <trkpt lat="44.91175" lon="6.55345">
        <ele>2381.4</ele>
        <time>2011-01-22T13:14:00Z</time>
      </trkpt>
      <trkpt lat="44.91177" lon="6.55354">
        <ele>2381</ele>
        <time>2011-01-22T13:14:01Z</time>
      </trkpt>
      <trkpt lat="44.91179" lon="6.55374">
        <ele>2380.2</ele>
        <time>2011-01-22T13:14:03Z</time>
      </trkpt>
      <trkpt lat="44.9118" lon="6.55384">
        <ele>2379.6</ele>
        <time>2011-01-22T13:14:04Z</time>
      </trkpt>
      <trkpt lat="44.91181" lon="6.55393">
        <ele>2379.2</ele>
        <time>2011-01-22T13:14:05Z</time>
      </trkpt>
      <trkpt lat="44.91181" lon="6.55402">
        <ele>2378.6</ele>
        <time>2011-01-22T13:14:06Z</time>
      </trkpt>
      <trkpt lat="44.91181" lon="6.55412">
        <ele>2378.2</ele>
        <time>2011-01-22T13:14:07Z</time>
      </trkpt>
      <trkpt lat="44.91183" lon="6.55422">
        <ele>2377.6</ele>
        <time>2011-01-22T13:14:08Z</time>
      </trkpt>
      <trkpt lat="44.91186" lon="6.55432">
        <ele>2377</ele>
        <time>2011-01-22T13:14:09Z</time>
      </trkpt>
      <trkpt lat="44.91188" lon="6.55441">
        <ele>2376.4</ele>
        <time>2011-01-22T13:14:10Z</time>
      </trkpt>
      <trkpt lat="44.91193" lon="6.55465">
        <ele>2374.6</ele>
        <time>2011-01-22T13:14:13Z</time>
      </trkpt>
      <trkpt lat="44.91194" lon="6.55473">
        <ele>2374</ele>
        <time>2011-01-22T13:14:14Z</time>
      </trkpt>
      <trkpt lat="44.91198" lon="6.55494">
        <ele>2372.6</ele>
        <time>2011-01-22T13:14:16Z</time>
      </trkpt>
      <trkpt lat="44.91201" lon="6.55508">
        <ele>2371.8</ele>
        <time>2011-01-22T13:14:17Z</time>
      </trkpt>
      <trkpt lat="44.91204" lon="6.55524">
        <ele>2371</ele>
        <time>2011-01-22T13:14:18Z</time>
      </trkpt>
      <trkpt lat="44.9121" lon="6.55556">
        <ele>2369.4</ele>
        <time>2011-01-22T13:14:20Z</time>
      </trkpt>
      <trkpt lat="44.91214" lon="6.55587">
        <ele>2367.8</ele>
        <time>2011-01-22T13:14:22Z</time>
      </trkpt>
      <trkpt lat="44.91217" lon="6.55604">
        <ele>2366.8</ele>
        <time>2011-01-22T13:14:23Z</time>
      </trkpt>
      <trkpt lat="44.9122" lon="6.5562">
        <ele>2366</ele>
        <time>2011-01-22T13:14:24Z</time>
      </trkpt>
      <trkpt lat="44.91226" lon="6.55651">
        <ele>2364.2</ele>
        <time>2011-01-22T13:14:26Z</time>
      </trkpt>
      <trkpt lat="44.91232" lon="6.55682">
        <ele>2362.4</ele>
        <time>2011-01-22T13:14:28Z</time>
      </trkpt>
      <trkpt lat="44.91236" lon="6.55697">
        <ele>2361.4</ele>
        <time>2011-01-22T13:14:29Z</time>
      </trkpt>
      <trkpt lat="44.91239" lon="6.55711">
        <ele>2360.4</ele>
        <time>2011-01-22T13:14:30Z</time>
      </trkpt>
      <trkpt lat="44.91247" lon="6.55741">
        <ele>2358.4</ele>
        <time>2011-01-22T13:14:32Z</time>
      </trkpt>
      <trkpt lat="44.91255" lon="6.55774">
        <ele>2356.4</ele>
        <time>2011-01-22T13:14:34Z</time>
      </trkpt>
      <trkpt lat="44.91264" lon="6.55804">
        <ele>2354.4</ele>
        <time>2011-01-22T13:14:36Z</time>
      </trkpt>
      <trkpt lat="44.91271" lon="6.55834">
        <ele>2352.2</ele>
        <time>2011-01-22T13:14:38Z</time>
      </trkpt>
      <trkpt lat="44.91275" lon="6.55848">
        <ele>2351.2</ele>
        <time>2011-01-22T13:14:39Z</time>
      </trkpt>
      <trkpt lat="44.9128" lon="6.55863">
        <ele>2350.2</ele>
        <time>2011-01-22T13:14:40Z</time>
      </trkpt>
      <trkpt lat="44.91288" lon="6.5589">
        <ele>2348</ele>
        <time>2011-01-22T13:14:42Z</time>
      </trkpt>
      <trkpt lat="44.91297" lon="6.5592">
        <ele>2345.6</ele>
        <time>2011-01-22T13:14:44Z</time>
      </trkpt>
      <trkpt lat="44.91307" lon="6.55952">
        <ele>2343.4</ele>
        <time>2011-01-22T13:14:46Z</time>
      </trkpt>
      <trkpt lat="44.91319" lon="6.55985">
        <ele>2340.8</ele>
        <time>2011-01-22T13:14:48Z</time>
      </trkpt>
      <trkpt lat="44.91325" lon="6.56001">
        <ele>2339.6</ele>
        <time>2011-01-22T13:14:49Z</time>
      </trkpt>
      <trkpt lat="44.9133" lon="6.56017">
        <ele>2338.4</ele>
        <time>2011-01-22T13:14:50Z</time>
      </trkpt>
      <trkpt lat="44.9134" lon="6.56051">
        <ele>2335.8</ele>
        <time>2011-01-22T13:14:52Z</time>
      </trkpt>
      <trkpt lat="44.91347" lon="6.56086">
        <ele>2333.2</ele>
        <time>2011-01-22T13:14:54Z</time>
      </trkpt>
      <trkpt lat="44.91353" lon="6.5612">
        <ele>2330.4</ele>
        <time>2011-01-22T13:14:56Z</time>
      </trkpt>
      <trkpt lat="44.9136" lon="6.5615">
        <ele>2327.8</ele>
        <time>2011-01-22T13:14:58Z</time>
      </trkpt>
      <trkpt lat="44.91366" lon="6.56178">
        <ele>2325</ele>
        <time>2011-01-22T13:15:00Z</time>
      </trkpt>
      <trkpt lat="44.91373" lon="6.562">
        <ele>2322.4</ele>
        <time>2011-01-22T13:15:02Z</time>
      </trkpt>
      <trkpt lat="44.91376" lon="6.56208">
        <ele>2321</ele>
        <time>2011-01-22T13:15:03Z</time>
      </trkpt>
      <trkpt lat="44.91384" lon="6.56212">
        <ele>2318.2</ele>
        <time>2011-01-22T13:15:05Z</time>
      </trkpt>
      <trkpt lat="44.91382" lon="6.56208">
        <ele>2315.6</ele>
        <time>2011-01-22T13:15:07Z</time>
      </trkpt>
      <trkpt lat="44.91382" lon="6.56208">
        <ele>2314.4</ele>
        <time>2011-01-22T13:15:08Z</time>
      </trkpt>
      <trkpt lat="44.9138" lon="6.56203">
        <ele>2289</ele>
        <time>2011-01-22T13:15:31Z</time>
      </trkpt>
      <trkpt lat="44.91378" lon="6.56198">
        <ele>2280.6</ele>
        <time>2011-01-22T13:15:40Z</time>
      </trkpt>
      <trkpt lat="44.91377" lon="6.56194">
        <ele>2274</ele>
        <time>2011-01-22T13:15:48Z</time>
      </trkpt>
      <trkpt lat="44.91378" lon="6.5619">
        <ele>2266.4</ele>
        <time>2011-01-22T13:15:58Z</time>
      </trkpt>
      <trkpt lat="44.91378" lon="6.56186">
        <ele>2263.4</ele>
        <time>2011-01-22T13:16:02Z</time>
      </trkpt>
      <trkpt lat="44.91373" lon="6.56183">
        <ele>2257.2</ele>
        <time>2011-01-22T13:16:11Z</time>
      </trkpt>
      <trkpt lat="44.9137" lon="6.56171">
        <ele>2255.2</ele>
        <time>2011-01-22T13:16:14Z</time>
      </trkpt>
      <trkpt lat="44.91369" lon="6.56165">
        <ele>2254.6</ele>
        <time>2011-01-22T13:16:15Z</time>
      </trkpt>
      <trkpt lat="44.91366" lon="6.56143">
        <ele>2252</ele>
        <time>2011-01-22T13:16:19Z</time>
      </trkpt>
      <trkpt lat="44.91365" lon="6.56133">
        <ele>2250.8</ele>
        <time>2011-01-22T13:16:21Z</time>
      </trkpt>
      <trkpt lat="44.91362" lon="6.56113">
        <ele>2248.8</ele>
        <time>2011-01-22T13:16:25Z</time>
      </trkpt>
      <trkpt lat="44.91359" lon="6.56101">
        <ele>2247.8</ele>
        <time>2011-01-22T13:16:27Z</time>
      </trkpt>
      <trkpt lat="44.91356" lon="6.56085">
        <ele>2246.6</ele>
        <time>2011-01-22T13:16:30Z</time>
      </trkpt>
      <trkpt lat="44.91354" lon="6.56075">
        <ele>2245.8</ele>
        <time>2011-01-22T13:16:32Z</time>
      </trkpt>
      <trkpt lat="44.91351" lon="6.56058">
        <ele>2244.8</ele>
        <time>2011-01-22T13:16:35Z</time>
      </trkpt>
      <trkpt lat="44.91348" lon="6.56042">
        <ele>2243.8</ele>
        <time>2011-01-22T13:16:38Z</time>
      </trkpt>
      <trkpt lat="44.91345" lon="6.56031">
        <ele>2243.4</ele>
        <time>2011-01-22T13:16:40Z</time>
      </trkpt>
      <trkpt lat="44.91341" lon="6.56009">
        <ele>2242.8</ele>
        <time>2011-01-22T13:16:44Z</time>
      </trkpt>
      <trkpt lat="44.9134" lon="6.56003">
        <ele>2242.6</ele>
        <time>2011-01-22T13:16:45Z</time>
      </trkpt>
      <trkpt lat="44.91334" lon="6.55976">
        <ele>2242</ele>
        <time>2011-01-22T13:16:50Z</time>
      </trkpt>
      <trkpt lat="44.91328" lon="6.55948">
        <ele>2241.8</ele>
        <time>2011-01-22T13:16:55Z</time>
      </trkpt>
      <trkpt lat="44.91326" lon="6.55937">
        <ele>2241.8</ele>
        <time>2011-01-22T13:16:57Z</time>
      </trkpt>
      <trkpt lat="44.91323" lon="6.55921">
        <ele>2241.8</ele>
        <time>2011-01-22T13:17:00Z</time>
      </trkpt>
      <trkpt lat="44.91317" lon="6.55894">
        <ele>2242.8</ele>
        <time>2011-01-22T13:17:05Z</time>
      </trkpt>
      <trkpt lat="44.91312" lon="6.55868">
        <ele>2244.4</ele>
        <time>2011-01-22T13:17:10Z</time>
      </trkpt>
      <trkpt lat="44.91308" lon="6.55852">
        <ele>2245.8</ele>
        <time>2011-01-22T13:17:13Z</time>
      </trkpt>
      <trkpt lat="44.91306" lon="6.55841">
        <ele>2246.6</ele>
        <time>2011-01-22T13:17:15Z</time>
      </trkpt>
      <trkpt lat="44.91302" lon="6.55819">
        <ele>2248.6</ele>
        <time>2011-01-22T13:17:19Z</time>
      </trkpt>
      <trkpt lat="44.913" lon="6.55814">
        <ele>2249.2</ele>
        <time>2011-01-22T13:17:20Z</time>
      </trkpt>
      <trkpt lat="44.91295" lon="6.55787">
        <ele>2251.8</ele>
        <time>2011-01-22T13:17:25Z</time>
      </trkpt>
      <trkpt lat="44.91291" lon="6.55766">
        <ele>2254</ele>
        <time>2011-01-22T13:17:29Z</time>
      </trkpt>
      <trkpt lat="44.91289" lon="6.5576">
        <ele>2254.6</ele>
        <time>2011-01-22T13:17:30Z</time>
      </trkpt>
      <trkpt lat="44.91284" lon="6.55734">
        <ele>2257.8</ele>
        <time>2011-01-22T13:17:35Z</time>
      </trkpt>
      <trkpt lat="44.91279" lon="6.55708">
        <ele>2261.2</ele>
        <time>2011-01-22T13:17:40Z</time>
      </trkpt>
      <trkpt lat="44.91273" lon="6.55682">
        <ele>2264.8</ele>
        <time>2011-01-22T13:17:45Z</time>
      </trkpt>
      <trkpt lat="44.91267" lon="6.55655">
        <ele>2269.2</ele>
        <time>2011-01-22T13:17:50Z</time>
      </trkpt>
      <trkpt lat="44.91266" lon="6.5565">
        <ele>2270</ele>
        <time>2011-01-22T13:17:51Z</time>
      </trkpt>
      <trkpt lat="44.91262" lon="6.55628">
        <ele>2273.4</ele>
        <time>2011-01-22T13:17:55Z</time>
      </trkpt>
      <trkpt lat="44.91256" lon="6.55601">
        <ele>2277.6</ele>
        <time>2011-01-22T13:18:00Z</time>
      </trkpt>
      <trkpt lat="44.9125" lon="6.55574">
        <ele>2282.2</ele>
        <time>2011-01-22T13:18:05Z</time>
      </trkpt>
      <trkpt lat="44.91245" lon="6.55547">
        <ele>2286.8</ele>
        <time>2011-01-22T13:18:10Z</time>
      </trkpt>
      <trkpt lat="44.91242" lon="6.55537">
        <ele>2288.8</ele>
        <time>2011-01-22T13:18:12Z</time>
      </trkpt>
      <trkpt lat="44.91239" lon="6.55521">
        <ele>2291.6</ele>
        <time>2011-01-22T13:18:15Z</time>
      </trkpt>
      <trkpt lat="44.91234" lon="6.55495">
        <ele>2296.6</ele>
        <time>2011-01-22T13:18:20Z</time>
      </trkpt>
      <trkpt lat="44.91229" lon="6.5547">
        <ele>2301.8</ele>
        <time>2011-01-22T13:18:25Z</time>
      </trkpt>
      <trkpt lat="44.91223" lon="6.55444">
        <ele>2306.6</ele>
        <time>2011-01-22T13:18:30Z</time>
      </trkpt>
      <trkpt lat="44.9122" lon="6.55428">
        <ele>2309.8</ele>
        <time>2011-01-22T13:18:33Z</time>
      </trkpt>
      <trkpt lat="44.91218" lon="6.55418">
        <ele>2311.8</ele>
        <time>2011-01-22T13:18:35Z</time>
      </trkpt>
      <trkpt lat="44.91213" lon="6.55391">
        <ele>2316.6</ele>
        <time>2011-01-22T13:18:40Z</time>
      </trkpt>
      <trkpt lat="44.91209" lon="6.55375">
        <ele>2319.8</ele>
        <time>2011-01-22T13:18:43Z</time>
      </trkpt>
      <trkpt lat="44.91207" lon="6.55365">
        <ele>2321.8</ele>
        <time>2011-01-22T13:18:45Z</time>
      </trkpt>
      <trkpt lat="44.91201" lon="6.55336">
        <ele>2327.4</ele>
        <time>2011-01-22T13:18:51Z</time>
      </trkpt>
      <trkpt lat="44.91197" lon="6.55316">
        <ele>2331.4</ele>
        <time>2011-01-22T13:18:55Z</time>
      </trkpt>
      <trkpt lat="44.91196" lon="6.55311">
        <ele>2332.4</ele>
        <time>2011-01-22T13:18:56Z</time>
      </trkpt>
      <trkpt lat="44.91191" lon="6.55286">
        <ele>2337.8</ele>
        <time>2011-01-22T13:19:01Z</time>
      </trkpt>
      <trkpt lat="44.91186" lon="6.55265">
        <ele>2342.4</ele>
        <time>2011-01-22T13:19:05Z</time>
      </trkpt>
      <trkpt lat="44.91185" lon="6.5526">
        <ele>2343.6</ele>
        <time>2011-01-22T13:19:06Z</time>
      </trkpt>
      <trkpt lat="44.9118" lon="6.55236">
        <ele>2349.8</ele>
        <time>2011-01-22T13:19:11Z</time>
      </trkpt>
      <trkpt lat="44.91174" lon="6.55206">
        <ele>2358</ele>
        <time>2011-01-22T13:19:17Z</time>
      </trkpt>
      <trkpt lat="44.91168" lon="6.55178">
        <ele>2367</ele>
        <time>2011-01-22T13:19:23Z</time>
      </trkpt>
      <trkpt lat="44.91163" lon="6.55152">
        <ele>2374.8</ele>
        <time>2011-01-22T13:19:28Z</time>
      </trkpt>
      <trkpt lat="44.91162" lon="6.55147">
        <ele>2376.4</ele>
        <time>2011-01-22T13:19:29Z</time>
      </trkpt>
      <trkpt lat="44.91158" lon="6.55128">
        <ele>2382.8</ele>
        <time>2011-01-22T13:19:33Z</time>
      </trkpt>
      <trkpt lat="44.91153" lon="6.55105">
        <ele>2391.6</ele>
        <time>2011-01-22T13:19:38Z</time>
      </trkpt>
      <trkpt lat="44.91152" lon="6.55101">
        <ele>2393.4</ele>
        <time>2011-01-22T13:19:39Z</time>
      </trkpt>
      <trkpt lat="44.91147" lon="6.55076">
        <ele>2405</ele>
        <time>2011-01-22T13:19:45Z</time>
      </trkpt>
      <trkpt lat="44.91146" lon="6.55071">
        <ele>2407.2</ele>
        <time>2011-01-22T13:19:46Z</time>
      </trkpt>
      <trkpt lat="44.91142" lon="6.55051">
        <ele>2417.2</ele>
        <time>2011-01-22T13:19:51Z</time>
      </trkpt>
      <trkpt lat="44.91141" lon="6.55046">
        <ele>2419</ele>
        <time>2011-01-22T13:19:52Z</time>
      </trkpt>
      <trkpt lat="44.91136" lon="6.55025">
        <ele>2427.4</ele>
        <time>2011-01-22T13:19:56Z</time>
      </trkpt>
      <trkpt lat="44.91134" lon="6.5502">
        <ele>2429.2</ele>
        <time>2011-01-22T13:19:57Z</time>
      </trkpt>
      <trkpt lat="44.91129" lon="6.55001">
        <ele>2438</ele>
        <time>2011-01-22T13:20:02Z</time>
      </trkpt>
      <trkpt lat="44.91128" lon="6.54998">
        <ele>2439.4</ele>
        <time>2011-01-22T13:20:03Z</time>
      </trkpt>
      <trkpt lat="44.91125" lon="6.54978">
        <ele>2445.2</ele>
        <time>2011-01-22T13:20:07Z</time>
      </trkpt>
      <trkpt lat="44.91126" lon="6.54971">
        <ele>2448</ele>
        <time>2011-01-22T13:20:09Z</time>
      </trkpt>
      <trkpt lat="44.91125" lon="6.54968">
        <ele>2450.6</ele>
        <time>2011-01-22T13:20:11Z</time>
      </trkpt>
      <trkpt lat="44.91127" lon="6.54969">
        <ele>2459.4</ele>
        <time>2011-01-22T13:20:20Z</time>
      </trkpt>
      <trkpt lat="44.91132" lon="6.5497">
        <ele>2463.8</ele>
        <time>2011-01-22T13:20:26Z</time>
      </trkpt>
      <trkpt lat="44.91135" lon="6.54971">
        <ele>2466.2</ele>
        <time>2011-01-22T13:20:31Z</time>
      </trkpt>
      <trkpt lat="44.91139" lon="6.54971">
        <ele>2470.2</ele>
        <time>2011-01-22T13:20:41Z</time>
      </trkpt>
      <trkpt lat="44.9114" lon="6.54971">
        <ele>2470.4</ele>
        <time>2011-01-22T13:20:42Z</time>
      </trkpt>
      <trkpt lat="44.91144" lon="6.54973">
        <ele>2474</ele>
        <time>2011-01-22T13:20:59Z</time>
      </trkpt>
      <trkpt lat="44.91147" lon="6.54974">
        <ele>2474.2</ele>
        <time>2011-01-22T13:21:01Z</time>
      </trkpt>
      <trkpt lat="44.91158" lon="6.5498">
        <ele>2474.4</ele>
        <time>2011-01-22T13:21:06Z</time>
      </trkpt>
      <trkpt lat="44.91161" lon="6.54983">
        <ele>2474.4</ele>
        <time>2011-01-22T13:21:07Z</time>
      </trkpt>
      <trkpt lat="44.91164" lon="6.54988">
        <ele>2474.4</ele>
        <time>2011-01-22T13:21:08Z</time>
      </trkpt>
      <trkpt lat="44.91165" lon="6.54993">
        <ele>2474.2</ele>
        <time>2011-01-22T13:21:09Z</time>
      </trkpt>
      <trkpt lat="44.91168" lon="6.55006">
        <ele>2474.2</ele>
        <time>2011-01-22T13:21:11Z</time>
      </trkpt>
      <trkpt lat="44.91173" lon="6.55012">
        <ele>2474.2</ele>
        <time>2011-01-22T13:21:12Z</time>
      </trkpt>
      <trkpt lat="44.91186" lon="6.55017">
        <ele>2473.8</ele>
        <time>2011-01-22T13:21:14Z</time>
      </trkpt>
      <trkpt lat="44.91193" lon="6.5502">
        <ele>2473.6</ele>
        <time>2011-01-22T13:21:15Z</time>
      </trkpt>
      <trkpt lat="44.91199" lon="6.55026">
        <ele>2473.6</ele>
        <time>2011-01-22T13:21:16Z</time>
      </trkpt>
      <trkpt lat="44.91206" lon="6.55032">
        <ele>2473.4</ele>
        <time>2011-01-22T13:21:17Z</time>
      </trkpt>
      <trkpt lat="44.91215" lon="6.55034">
        <ele>2473.2</ele>
        <time>2011-01-22T13:21:18Z</time>
      </trkpt>
      <trkpt lat="44.91224" lon="6.55038">
        <ele>2472.8</ele>
        <time>2011-01-22T13:21:19Z</time>
      </trkpt>
      <trkpt lat="44.91243" lon="6.55043">
        <ele>2472.2</ele>
        <time>2011-01-22T13:21:21Z</time>
      </trkpt>
      <trkpt lat="44.91264" lon="6.55043">
        <ele>2471.6</ele>
        <time>2011-01-22T13:21:23Z</time>
      </trkpt>
      <trkpt lat="44.91273" lon="6.55042">
        <ele>2471.2</ele>
        <time>2011-01-22T13:21:24Z</time>
      </trkpt>
      <trkpt lat="44.91288" lon="6.55035">
        <ele>2470.4</ele>
        <time>2011-01-22T13:21:26Z</time>
      </trkpt>
      <trkpt lat="44.91295" lon="6.55034">
        <ele>2470</ele>
        <time>2011-01-22T13:21:27Z</time>
      </trkpt>
      <trkpt lat="44.91307" lon="6.55028">
        <ele>2469.2</ele>
        <time>2011-01-22T13:21:29Z</time>
      </trkpt>
      <trkpt lat="44.91314" lon="6.55023">
        <ele>2468.6</ele>
        <time>2011-01-22T13:21:30Z</time>
      </trkpt>
      <trkpt lat="44.91326" lon="6.55009">
        <ele>2467.6</ele>
        <time>2011-01-22T13:21:32Z</time>
      </trkpt>
      <trkpt lat="44.91331" lon="6.54999">
        <ele>2467</ele>
        <time>2011-01-22T13:21:33Z</time>
      </trkpt>
      <trkpt lat="44.91336" lon="6.54986">
        <ele>2466.4</ele>
        <time>2011-01-22T13:21:34Z</time>
      </trkpt>
      <trkpt lat="44.91343" lon="6.54959">
        <ele>2465.4</ele>
        <time>2011-01-22T13:21:36Z</time>
      </trkpt>
      <trkpt lat="44.9134" lon="6.54925">
        <ele>2463.6</ele>
        <time>2011-01-22T13:21:39Z</time>
      </trkpt>
      <trkpt lat="44.91339" lon="6.54921">
        <ele>2463</ele>
        <time>2011-01-22T13:21:40Z</time>
      </trkpt>
      <trkpt lat="44.91335" lon="6.54913">
        <ele>2461.8</ele>
        <time>2011-01-22T13:21:42Z</time>
      </trkpt>
      <trkpt lat="44.91328" lon="6.54898">
        <ele>2460.6</ele>
        <time>2011-01-22T13:21:44Z</time>
      </trkpt>
      <trkpt lat="44.91323" lon="6.5489">
        <ele>2460</ele>
        <time>2011-01-22T13:21:45Z</time>
      </trkpt>
      <trkpt lat="44.91313" lon="6.54875">
        <ele>2458.6</ele>
        <time>2011-01-22T13:21:47Z</time>
      </trkpt>
      <trkpt lat="44.91308" lon="6.5487">
        <ele>2458</ele>
        <time>2011-01-22T13:21:48Z</time>
      </trkpt>
      <trkpt lat="44.91303" lon="6.54864">
        <ele>2457.4</ele>
        <time>2011-01-22T13:21:49Z</time>
      </trkpt>
      <trkpt lat="44.91298" lon="6.5486">
        <ele>2456.8</ele>
        <time>2011-01-22T13:21:50Z</time>
      </trkpt>
      <trkpt lat="44.91285" lon="6.54851">
        <ele>2455.4</ele>
        <time>2011-01-22T13:21:52Z</time>
      </trkpt>
      <trkpt lat="44.91277" lon="6.54847">
        <ele>2454.8</ele>
        <time>2011-01-22T13:21:53Z</time>
      </trkpt>
      <trkpt lat="44.91256" lon="6.54829">
        <ele>2452.6</ele>
        <time>2011-01-22T13:21:56Z</time>
      </trkpt>
      <trkpt lat="44.91252" lon="6.54821">
        <ele>2452</ele>
        <time>2011-01-22T13:21:57Z</time>
      </trkpt>
      <trkpt lat="44.91248" lon="6.54799">
        <ele>2450.6</ele>
        <time>2011-01-22T13:21:59Z</time>
      </trkpt>
      <trkpt lat="44.91252" lon="6.54787">
        <ele>2449.8</ele>
        <time>2011-01-22T13:22:00Z</time>
      </trkpt>
      <trkpt lat="44.91256" lon="6.54762">
        <ele>2448.4</ele>
        <time>2011-01-22T13:22:02Z</time>
      </trkpt>
      <trkpt lat="44.91254" lon="6.54748">
        <ele>2447.6</ele>
        <time>2011-01-22T13:22:03Z</time>
      </trkpt>
      <trkpt lat="44.91256" lon="6.54736">
        <ele>2446.8</ele>
        <time>2011-01-22T13:22:04Z</time>
      </trkpt>
      <trkpt lat="44.9126" lon="6.54715">
        <ele>2445.4</ele>
        <time>2011-01-22T13:22:06Z</time>
      </trkpt>
      <trkpt lat="44.91264" lon="6.54711">
        <ele>2444.6</ele>
        <time>2011-01-22T13:22:07Z</time>
      </trkpt>
      <trkpt lat="44.91268" lon="6.54706">
        <ele>2443.6</ele>
        <time>2011-01-22T13:22:08Z</time>
      </trkpt>
      <trkpt lat="44.91274" lon="6.54703">
        <ele>2442.8</ele>
        <time>2011-01-22T13:22:09Z</time>
      </trkpt>
      <trkpt lat="44.9128" lon="6.54701">
        <ele>2442</ele>
        <time>2011-01-22T13:22:10Z</time>
      </trkpt>
      <trkpt lat="44.91284" lon="6.54696">
        <ele>2441.2</ele>
        <time>2011-01-22T13:22:11Z</time>
      </trkpt>
      <trkpt lat="44.91296" lon="6.54685">
        <ele>2439.2</ele>
        <time>2011-01-22T13:22:13Z</time>
      </trkpt>
      <trkpt lat="44.91299" lon="6.54678">
        <ele>2438.4</ele>
        <time>2011-01-22T13:22:14Z</time>
      </trkpt>
      <trkpt lat="44.91305" lon="6.5466">
        <ele>2436.4</ele>
        <time>2011-01-22T13:22:16Z</time>
      </trkpt>
      <trkpt lat="44.91308" lon="6.54653">
        <ele>2435.4</ele>
        <time>2011-01-22T13:22:17Z</time>
      </trkpt>
      <trkpt lat="44.9131" lon="6.54637">
        <ele>2433.4</ele>
        <time>2011-01-22T13:22:19Z</time>
      </trkpt>
      <trkpt lat="44.91316" lon="6.54626">
        <ele>2431.4</ele>
        <time>2011-01-22T13:22:21Z</time>
      </trkpt>
      <trkpt lat="44.91317" lon="6.54619">
        <ele>2430.2</ele>
        <time>2011-01-22T13:22:22Z</time>
      </trkpt>
      <trkpt lat="44.91324" lon="6.54601">
        <ele>2428</ele>
        <time>2011-01-22T13:22:24Z</time>
      </trkpt>
      <trkpt lat="44.91329" lon="6.54596">
        <ele>2426.8</ele>
        <time>2011-01-22T13:22:25Z</time>
      </trkpt>
      <trkpt lat="44.91332" lon="6.54603">
        <ele>2424.6</ele>
        <time>2011-01-22T13:22:27Z</time>
      </trkpt>
      <trkpt lat="44.91332" lon="6.54597">
        <ele>2421</ele>
        <time>2011-01-22T13:22:30Z</time>
      </trkpt>
      <trkpt lat="44.9133" lon="6.54591">
        <ele>2419.8</ele>
        <time>2011-01-22T13:22:31Z</time>
      </trkpt>
      <trkpt lat="44.91325" lon="6.54583">
        <ele>2417.4</ele>
        <time>2011-01-22T13:22:33Z</time>
      </trkpt>
      <trkpt lat="44.91326" lon="6.54578">
        <ele>2414.2</ele>
        <time>2011-01-22T13:22:36Z</time>
      </trkpt>
      <trkpt lat="44.91326" lon="6.54579">
        <ele>2413</ele>
        <time>2011-01-22T13:22:37Z</time>
      </trkpt>
      <trkpt lat="44.91335" lon="6.54575">
        <ele>2362.4</ele>
        <time>2011-01-22T13:23:37Z</time>
      </trkpt>
      <trkpt lat="44.91351" lon="6.54557">
        <ele>2360.4</ele>
        <time>2011-01-22T13:23:40Z</time>
      </trkpt>
      <trkpt lat="44.91368" lon="6.54542">
        <ele>2358.4</ele>
        <time>2011-01-22T13:23:43Z</time>
      </trkpt>
      <trkpt lat="44.91373" lon="6.54536">
        <ele>2357.6</ele>
        <time>2011-01-22T13:23:44Z</time>
      </trkpt>
      <trkpt lat="44.91376" lon="6.54528">
        <ele>2357</ele>
        <time>2011-01-22T13:23:45Z</time>
      </trkpt>
      <trkpt lat="44.91379" lon="6.54519">
        <ele>2356.2</ele>
        <time>2011-01-22T13:23:46Z</time>
      </trkpt>
      <trkpt lat="44.91385" lon="6.54512">
        <ele>2355.6</ele>
        <time>2011-01-22T13:23:47Z</time>
      </trkpt>
      <trkpt lat="44.91394" lon="6.54497">
        <ele>2354</ele>
        <time>2011-01-22T13:23:49Z</time>
      </trkpt>
      <trkpt lat="44.91397" lon="6.54491">
        <ele>2353.2</ele>
        <time>2011-01-22T13:23:50Z</time>
      </trkpt>
      <trkpt lat="44.91398" lon="6.54485">
        <ele>2352.4</ele>
        <time>2011-01-22T13:23:51Z</time>
      </trkpt>
      <trkpt lat="44.91402" lon="6.54469">
        <ele>2350.8</ele>
        <time>2011-01-22T13:23:53Z</time>
      </trkpt>
      <trkpt lat="44.91407" lon="6.54462">
        <ele>2350</ele>
        <time>2011-01-22T13:23:54Z</time>
      </trkpt>
      <trkpt lat="44.91416" lon="6.54453">
        <ele>2348.2</ele>
        <time>2011-01-22T13:23:56Z</time>
      </trkpt>
      <trkpt lat="44.9142" lon="6.5445">
        <ele>2347.4</ele>
        <time>2011-01-22T13:23:57Z</time>
      </trkpt>
      <trkpt lat="44.91422" lon="6.54449">
        <ele>2344.6</ele>
        <time>2011-01-22T13:24:00Z</time>
      </trkpt>
      <trkpt lat="44.91413" lon="6.5445">
        <ele>2341.8</ele>
        <time>2011-01-22T13:24:03Z</time>
      </trkpt>
      <trkpt lat="44.91407" lon="6.54448">
        <ele>2340.6</ele>
        <time>2011-01-22T13:24:04Z</time>
      </trkpt>
      <trkpt lat="44.91408" lon="6.54438">
        <ele>2338.6</ele>
        <time>2011-01-22T13:24:06Z</time>
      </trkpt>
      <trkpt lat="44.91411" lon="6.54424">
        <ele>2336.4</ele>
        <time>2011-01-22T13:24:08Z</time>
      </trkpt>
      <trkpt lat="44.91404" lon="6.54397">
        <ele>2333</ele>
        <time>2011-01-22T13:24:11Z</time>
      </trkpt>
      <trkpt lat="44.91394" lon="6.54374">
        <ele>2330.8</ele>
        <time>2011-01-22T13:24:13Z</time>
      </trkpt>
      <trkpt lat="44.91386" lon="6.54354">
        <ele>2328.6</ele>
        <time>2011-01-22T13:24:15Z</time>
      </trkpt>
      <trkpt lat="44.91382" lon="6.54345">
        <ele>2327.4</ele>
        <time>2011-01-22T13:24:16Z</time>
      </trkpt>
      <trkpt lat="44.91379" lon="6.54327">
        <ele>2325.2</ele>
        <time>2011-01-22T13:24:18Z</time>
      </trkpt>
      <trkpt lat="44.91383" lon="6.54314">
        <ele>2323</ele>
        <time>2011-01-22T13:24:20Z</time>
      </trkpt>
      <trkpt lat="44.91385" lon="6.5431">
        <ele>2321.8</ele>
        <time>2011-01-22T13:24:21Z</time>
      </trkpt>
      <trkpt lat="44.91391" lon="6.543">
        <ele>2319.6</ele>
        <time>2011-01-22T13:24:23Z</time>
      </trkpt>
      <trkpt lat="44.91394" lon="6.54295">
        <ele>2318.6</ele>
        <time>2011-01-22T13:24:24Z</time>
      </trkpt>
      <trkpt lat="44.91403" lon="6.54284">
        <ele>2316.4</ele>
        <time>2011-01-22T13:24:26Z</time>
      </trkpt>
      <trkpt lat="44.91413" lon="6.54275">
        <ele>2314.2</ele>
        <time>2011-01-22T13:24:28Z</time>
      </trkpt>
      <trkpt lat="44.91423" lon="6.54266">
        <ele>2312</ele>
        <time>2011-01-22T13:24:30Z</time>
      </trkpt>
      <trkpt lat="44.91433" lon="6.54259">
        <ele>2309.8</ele>
        <time>2011-01-22T13:24:32Z</time>
      </trkpt>
      <trkpt lat="44.91442" lon="6.54253">
        <ele>2307.8</ele>
        <time>2011-01-22T13:24:34Z</time>
      </trkpt>
      <trkpt lat="44.9145" lon="6.54245">
        <ele>2305.6</ele>
        <time>2011-01-22T13:24:36Z</time>
      </trkpt>
      <trkpt lat="44.91456" lon="6.54237">
        <ele>2303.4</ele>
        <time>2011-01-22T13:24:38Z</time>
      </trkpt>
      <trkpt lat="44.91468" lon="6.54239">
        <ele>2300</ele>
        <time>2011-01-22T13:24:41Z</time>
      </trkpt>
      <trkpt lat="44.91473" lon="6.54242">
        <ele>2298</ele>
        <time>2011-01-22T13:24:43Z</time>
      </trkpt>
      <trkpt lat="44.91478" lon="6.54242">
        <ele>2295.8</ele>
        <time>2011-01-22T13:24:45Z</time>
      </trkpt>
      <trkpt lat="44.91487" lon="6.54239">
        <ele>2291.8</ele>
        <time>2011-01-22T13:24:49Z</time>
      </trkpt>
      <trkpt lat="44.91491" lon="6.54238">
        <ele>2290.8</ele>
        <time>2011-01-22T13:24:50Z</time>
      </trkpt>
      <trkpt lat="44.91506" lon="6.54232">
        <ele>2286.8</ele>
        <time>2011-01-22T13:24:54Z</time>
      </trkpt>
      <trkpt lat="44.91511" lon="6.5423">
        <ele>2285.8</ele>
        <time>2011-01-22T13:24:55Z</time>
      </trkpt>
      <trkpt lat="44.91527" lon="6.54221">
        <ele>2282.8</ele>
        <time>2011-01-22T13:24:58Z</time>
      </trkpt>
      <trkpt lat="44.91538" lon="6.54214">
        <ele>2281</ele>
        <time>2011-01-22T13:25:00Z</time>
      </trkpt>
      <trkpt lat="44.91547" lon="6.54211">
        <ele>2279</ele>
        <time>2011-01-22T13:25:02Z</time>
      </trkpt>
      <trkpt lat="44.9155" lon="6.5421">
        <ele>2278</ele>
        <time>2011-01-22T13:25:03Z</time>
      </trkpt>
      <trkpt lat="44.91552" lon="6.54209">
        <ele>2277</ele>
        <time>2011-01-22T13:25:04Z</time>
      </trkpt>
      <trkpt lat="44.91556" lon="6.54207">
        <ele>2275.2</ele>
        <time>2011-01-22T13:25:06Z</time>
      </trkpt>
      <trkpt lat="44.91562" lon="6.54204">
        <ele>2272.2</ele>
        <time>2011-01-22T13:25:09Z</time>
      </trkpt>
      <trkpt lat="44.91566" lon="6.54201">
        <ele>2270.4</ele>
        <time>2011-01-22T13:25:11Z</time>
      </trkpt>
      <trkpt lat="44.91571" lon="6.54194">
        <ele>2267.6</ele>
        <time>2011-01-22T13:25:14Z</time>
      </trkpt>
      <trkpt lat="44.91573" lon="6.54192">
        <ele>2266</ele>
        <time>2011-01-22T13:25:16Z</time>
      </trkpt>
      <trkpt lat="44.91573" lon="6.54193">
        <ele>2264.2</ele>
        <time>2011-01-22T13:25:18Z</time>
      </trkpt>
      <trkpt lat="44.9157" lon="6.54194">
        <ele>2237.2</ele>
        <time>2011-01-22T13:25:55Z</time>
      </trkpt>
      <trkpt lat="44.91576" lon="6.54189">
        <ele>2234.8</ele>
        <time>2011-01-22T13:25:59Z</time>
      </trkpt>
      <trkpt lat="44.91591" lon="6.54175">
        <ele>2233</ele>
        <time>2011-01-22T13:26:02Z</time>
      </trkpt>
      <trkpt lat="44.91599" lon="6.54171">
        <ele>2232.4</ele>
        <time>2011-01-22T13:26:03Z</time>
      </trkpt>
      <trkpt lat="44.91608" lon="6.54166">
        <ele>2231.6</ele>
        <time>2011-01-22T13:26:04Z</time>
      </trkpt>
      <trkpt lat="44.91617" lon="6.54161">
        <ele>2231</ele>
        <time>2011-01-22T13:26:05Z</time>
      </trkpt>
      <trkpt lat="44.91626" lon="6.54154">
        <ele>2230.4</ele>
        <time>2011-01-22T13:26:06Z</time>
      </trkpt>
      <trkpt lat="44.91644" lon="6.54142">
        <ele>2229</ele>
        <time>2011-01-22T13:26:08Z</time>
      </trkpt>
      <trkpt lat="44.91653" lon="6.54136">
        <ele>2228.4</ele>
        <time>2011-01-22T13:26:09Z</time>
      </trkpt>
      <trkpt lat="44.91662" lon="6.54131">
        <ele>2227.6</ele>
        <time>2011-01-22T13:26:10Z</time>
      </trkpt>
      <trkpt lat="44.91687" lon="6.54118">
        <ele>2225.4</ele>
        <time>2011-01-22T13:26:13Z</time>
      </trkpt>
      <trkpt lat="44.91695" lon="6.54116">
        <ele>2224.6</ele>
        <time>2011-01-22T13:26:14Z</time>
      </trkpt>
      <trkpt lat="44.9171" lon="6.54117">
        <ele>2222.8</ele>
        <time>2011-01-22T13:26:16Z</time>
      </trkpt>
      <trkpt lat="44.91723" lon="6.54115">
        <ele>2221.2</ele>
        <time>2011-01-22T13:26:18Z</time>
      </trkpt>
      <trkpt lat="44.91728" lon="6.54114">
        <ele>2220.2</ele>
        <time>2011-01-22T13:26:19Z</time>
      </trkpt>
      <trkpt lat="44.91733" lon="6.54113">
        <ele>2219.4</ele>
        <time>2011-01-22T13:26:20Z</time>
      </trkpt>
      <trkpt lat="44.91744" lon="6.54112">
        <ele>2217.6</ele>
        <time>2011-01-22T13:26:22Z</time>
      </trkpt>
      <trkpt lat="44.91752" lon="6.54115">
        <ele>2215.6</ele>
        <time>2011-01-22T13:26:24Z</time>
      </trkpt>
      <trkpt lat="44.91756" lon="6.54111">
        <ele>2214.8</ele>
        <time>2011-01-22T13:26:25Z</time>
      </trkpt>
      <trkpt lat="44.91772" lon="6.54104">
        <ele>2212.8</ele>
        <time>2011-01-22T13:26:27Z</time>
      </trkpt>
      <trkpt lat="44.91784" lon="6.54107">
        <ele>2211.8</ele>
        <time>2011-01-22T13:26:28Z</time>
      </trkpt>
      <trkpt lat="44.91796" lon="6.54115">
        <ele>2210.6</ele>
        <time>2011-01-22T13:26:29Z</time>
      </trkpt>
      <trkpt lat="44.91807" lon="6.54124">
        <ele>2209.6</ele>
        <time>2011-01-22T13:26:30Z</time>
      </trkpt>
      <trkpt lat="44.91819" lon="6.54131">
        <ele>2208.6</ele>
        <time>2011-01-22T13:26:31Z</time>
      </trkpt>
      <trkpt lat="44.91844" lon="6.5414">
        <ele>2206.6</ele>
        <time>2011-01-22T13:26:33Z</time>
      </trkpt>
      <trkpt lat="44.91869" lon="6.54141">
        <ele>2204.4</ele>
        <time>2011-01-22T13:26:35Z</time>
      </trkpt>
      <trkpt lat="44.9188" lon="6.54138">
        <ele>2203.4</ele>
        <time>2011-01-22T13:26:36Z</time>
      </trkpt>
      <trkpt lat="44.91889" lon="6.54134">
        <ele>2202.2</ele>
        <time>2011-01-22T13:26:37Z</time>
      </trkpt>
      <trkpt lat="44.91898" lon="6.54129">
        <ele>2201.2</ele>
        <time>2011-01-22T13:26:38Z</time>
      </trkpt>
      <trkpt lat="44.91907" lon="6.54124">
        <ele>2200.2</ele>
        <time>2011-01-22T13:26:39Z</time>
      </trkpt>
      <trkpt lat="44.91924" lon="6.54113">
        <ele>2198</ele>
        <time>2011-01-22T13:26:41Z</time>
      </trkpt>
      <trkpt lat="44.91941" lon="6.541">
        <ele>2195.8</ele>
        <time>2011-01-22T13:26:43Z</time>
      </trkpt>
      <trkpt lat="44.91949" lon="6.54095">
        <ele>2194.8</ele>
        <time>2011-01-22T13:26:44Z</time>
      </trkpt>
      <trkpt lat="44.91962" lon="6.54088">
        <ele>2192.8</ele>
        <time>2011-01-22T13:26:46Z</time>
      </trkpt>
      <trkpt lat="44.91967" lon="6.54085">
        <ele>2191.8</ele>
        <time>2011-01-22T13:26:47Z</time>
      </trkpt>
      <trkpt lat="44.91971" lon="6.54085">
        <ele>2188.8</ele>
        <time>2011-01-22T13:26:50Z</time>
      </trkpt>
      <trkpt lat="44.9197" lon="6.54084">
        <ele>2183.2</ele>
        <time>2011-01-22T13:26:56Z</time>
      </trkpt>
      <trkpt lat="44.9197" lon="6.54083">
        <ele>2171.8</ele>
        <time>2011-01-22T13:27:10Z</time>
      </trkpt>
      <trkpt lat="44.91973" lon="6.54083">
        <ele>2168.8</ele>
        <time>2011-01-22T13:27:14Z</time>
      </trkpt>
      <trkpt lat="44.91976" lon="6.54082">
        <ele>2165.4</ele>
        <time>2011-01-22T13:27:19Z</time>
      </trkpt>
      <trkpt lat="44.91979" lon="6.5408">
        <ele>2162.2</ele>
        <time>2011-01-22T13:27:24Z</time>
      </trkpt>
      <trkpt lat="44.91981" lon="6.54079">
        <ele>2159.6</ele>
        <time>2011-01-22T13:27:28Z</time>
      </trkpt>
      <trkpt lat="44.91982" lon="6.54077">
        <ele>2156</ele>
        <time>2011-01-22T13:27:34Z</time>
      </trkpt>
      <trkpt lat="44.91985" lon="6.54074">
        <ele>2148.8</ele>
        <time>2011-01-22T13:27:46Z</time>
      </trkpt>
      <trkpt lat="44.91986" lon="6.54073">
        <ele>2142.4</ele>
        <time>2011-01-22T13:27:57Z</time>
      </trkpt>
      <trkpt lat="44.91989" lon="6.54078">
        <ele>2138.6</ele>
        <time>2011-01-22T13:28:05Z</time>
      </trkpt>
      <trkpt lat="44.91993" lon="6.54072">
        <ele>2137.2</ele>
        <time>2011-01-22T13:28:08Z</time>
      </trkpt>
      <trkpt lat="44.91997" lon="6.54062">
        <ele>2135.2</ele>
        <time>2011-01-22T13:28:13Z</time>
      </trkpt>
      <trkpt lat="44.91994" lon="6.5405">
        <ele>2134</ele>
        <time>2011-01-22T13:28:16Z</time>
      </trkpt>
      <trkpt lat="44.9199" lon="6.54045">
        <ele>2133.6</ele>
        <time>2011-01-22T13:28:17Z</time>
      </trkpt>
      <trkpt lat="44.91988" lon="6.5404">
        <ele>2133.4</ele>
        <time>2011-01-22T13:28:18Z</time>
      </trkpt>
      <trkpt lat="44.91979" lon="6.54026">
        <ele>2132.4</ele>
        <time>2011-01-22T13:28:21Z</time>
      </trkpt>
      <trkpt lat="44.91968" lon="6.54003">
        <ele>2131.4</ele>
        <time>2011-01-22T13:28:26Z</time>
      </trkpt>
      <trkpt lat="44.91958" lon="6.5398">
        <ele>2130.8</ele>
        <time>2011-01-22T13:28:31Z</time>
      </trkpt>
      <trkpt lat="44.91956" lon="6.53975">
        <ele>2130.6</ele>
        <time>2011-01-22T13:28:32Z</time>
      </trkpt>
      <trkpt lat="44.91949" lon="6.53956">
        <ele>2130.4</ele>
        <time>2011-01-22T13:28:36Z</time>
      </trkpt>
      <trkpt lat="44.9194" lon="6.53933">
        <ele>2130.6</ele>
        <time>2011-01-22T13:28:41Z</time>
      </trkpt>
      <trkpt lat="44.91931" lon="6.5391">
        <ele>2132.2</ele>
        <time>2011-01-22T13:28:46Z</time>
      </trkpt>
      <trkpt lat="44.91925" lon="6.53895">
        <ele>2133.2</ele>
        <time>2011-01-22T13:28:49Z</time>
      </trkpt>
      <trkpt lat="44.91921" lon="6.53885">
        <ele>2134.2</ele>
        <time>2011-01-22T13:28:51Z</time>
      </trkpt>
      <trkpt lat="44.91912" lon="6.5386">
        <ele>2136.8</ele>
        <time>2011-01-22T13:28:56Z</time>
      </trkpt>
      <trkpt lat="44.9191" lon="6.53855">
        <ele>2137.4</ele>
        <time>2011-01-22T13:28:57Z</time>
      </trkpt>
      <trkpt lat="44.91903" lon="6.53836">
        <ele>2140</ele>
        <time>2011-01-22T13:29:01Z</time>
      </trkpt>
      <trkpt lat="44.91896" lon="6.53817">
        <ele>2143</ele>
        <time>2011-01-22T13:29:05Z</time>
      </trkpt>
      <trkpt lat="44.91894" lon="6.53813">
        <ele>2143.8</ele>
        <time>2011-01-22T13:29:06Z</time>
      </trkpt>
      <trkpt lat="44.91885" lon="6.53789">
        <ele>2148</ele>
        <time>2011-01-22T13:29:11Z</time>
      </trkpt>
      <trkpt lat="44.91883" lon="6.53783">
        <ele>2149</ele>
        <time>2011-01-22T13:29:12Z</time>
      </trkpt>
      <trkpt lat="44.91876" lon="6.53764">
        <ele>2152</ele>
        <time>2011-01-22T13:29:16Z</time>
      </trkpt>
      <trkpt lat="44.9187" lon="6.53749">
        <ele>2154.4</ele>
        <time>2011-01-22T13:29:19Z</time>
      </trkpt>
      <trkpt lat="44.91867" lon="6.53739">
        <ele>2156</ele>
        <time>2011-01-22T13:29:21Z</time>
      </trkpt>
      <trkpt lat="44.91858" lon="6.53714">
        <ele>2160.4</ele>
        <time>2011-01-22T13:29:26Z</time>
      </trkpt>
      <trkpt lat="44.91854" lon="6.53704">
        <ele>2162.2</ele>
        <time>2011-01-22T13:29:28Z</time>
      </trkpt>
      <trkpt lat="44.91849" lon="6.53689">
        <ele>2165</ele>
        <time>2011-01-22T13:29:31Z</time>
      </trkpt>
      <trkpt lat="44.9184" lon="6.53665">
        <ele>2169.6</ele>
        <time>2011-01-22T13:29:36Z</time>
      </trkpt>
      <trkpt lat="44.91836" lon="6.53654">
        <ele>2171.2</ele>
        <time>2011-01-22T13:29:38Z</time>
      </trkpt>
      <trkpt lat="44.91831" lon="6.53639">
        <ele>2173.8</ele>
        <time>2011-01-22T13:29:41Z</time>
      </trkpt>
      <trkpt lat="44.91822" lon="6.53614">
        <ele>2178.2</ele>
        <time>2011-01-22T13:29:46Z</time>
      </trkpt>
      <trkpt lat="44.9182" lon="6.53609">
        <ele>2179</ele>
        <time>2011-01-22T13:29:47Z</time>
      </trkpt>
      <trkpt lat="44.91812" lon="6.53589">
        <ele>2182.2</ele>
        <time>2011-01-22T13:29:51Z</time>
      </trkpt>
      <trkpt lat="44.91805" lon="6.53569">
        <ele>2185.6</ele>
        <time>2011-01-22T13:29:55Z</time>
      </trkpt>
      <trkpt lat="44.91803" lon="6.53564">
        <ele>2186.4</ele>
        <time>2011-01-22T13:29:56Z</time>
      </trkpt>
      <trkpt lat="44.91794" lon="6.53539">
        <ele>2190.6</ele>
        <time>2011-01-22T13:30:01Z</time>
      </trkpt>
      <trkpt lat="44.91792" lon="6.53534">
        <ele>2191.4</ele>
        <time>2011-01-22T13:30:02Z</time>
      </trkpt>
      <trkpt lat="44.91785" lon="6.53515">
        <ele>2194.6</ele>
        <time>2011-01-22T13:30:06Z</time>
      </trkpt>
      <trkpt lat="44.91777" lon="6.53495">
        <ele>2197.4</ele>
        <time>2011-01-22T13:30:10Z</time>
      </trkpt>
      <trkpt lat="44.91776" lon="6.5349">
        <ele>2198.2</ele>
        <time>2011-01-22T13:30:11Z</time>
      </trkpt>
      <trkpt lat="44.91766" lon="6.53465">
        <ele>2201.4</ele>
        <time>2011-01-22T13:30:16Z</time>
      </trkpt>
      <trkpt lat="44.91761" lon="6.53449">
        <ele>2203.2</ele>
        <time>2011-01-22T13:30:19Z</time>
      </trkpt>
      <trkpt lat="44.91757" lon="6.5344">
        <ele>2204.2</ele>
        <time>2011-01-22T13:30:21Z</time>
      </trkpt>
      <trkpt lat="44.91748" lon="6.53415">
        <ele>2207</ele>
        <time>2011-01-22T13:30:26Z</time>
      </trkpt>
      <trkpt lat="44.91743" lon="6.534">
        <ele>2208.4</ele>
        <time>2011-01-22T13:30:29Z</time>
      </trkpt>
      <trkpt lat="44.91739" lon="6.5339">
        <ele>2209.4</ele>
        <time>2011-01-22T13:30:31Z</time>
      </trkpt>
      <trkpt lat="44.9173" lon="6.53365">
        <ele>2212</ele>
        <time>2011-01-22T13:30:36Z</time>
      </trkpt>
      <trkpt lat="44.91724" lon="6.53351">
        <ele>2213.8</ele>
        <time>2011-01-22T13:30:39Z</time>
      </trkpt>
      <trkpt lat="44.91721" lon="6.53342">
        <ele>2215.4</ele>
        <time>2011-01-22T13:30:41Z</time>
      </trkpt>
      <trkpt lat="44.91713" lon="6.53319">
        <ele>2219.6</ele>
        <time>2011-01-22T13:30:46Z</time>
      </trkpt>
      <trkpt lat="44.91708" lon="6.53305">
        <ele>2222.6</ele>
        <time>2011-01-22T13:30:49Z</time>
      </trkpt>
      <trkpt lat="44.91703" lon="6.53292">
        <ele>2225.8</ele>
        <time>2011-01-22T13:30:52Z</time>
      </trkpt>
      <trkpt lat="44.91694" lon="6.53266">
        <ele>2232.8</ele>
        <time>2011-01-22T13:30:58Z</time>
      </trkpt>
      <trkpt lat="44.91692" lon="6.53261">
        <ele>2234.2</ele>
        <time>2011-01-22T13:30:59Z</time>
      </trkpt>
      <trkpt lat="44.91685" lon="6.53243">
        <ele>2239.4</ele>
        <time>2011-01-22T13:31:03Z</time>
      </trkpt>
      <trkpt lat="44.91677" lon="6.5322">
        <ele>2246.4</ele>
        <time>2011-01-22T13:31:08Z</time>
      </trkpt>
      <trkpt lat="44.91674" lon="6.53211">
        <ele>2249.4</ele>
        <time>2011-01-22T13:31:10Z</time>
      </trkpt>
      <trkpt lat="44.91667" lon="6.53194">
        <ele>2255.6</ele>
        <time>2011-01-22T13:31:14Z</time>
      </trkpt>
      <trkpt lat="44.91658" lon="6.53168">
        <ele>2265.6</ele>
        <time>2011-01-22T13:31:20Z</time>
      </trkpt>
      <trkpt lat="44.91656" lon="6.53163">
        <ele>2267.4</ele>
        <time>2011-01-22T13:31:21Z</time>
      </trkpt>
      <trkpt lat="44.91648" lon="6.53142">
        <ele>2276.4</ele>
        <time>2011-01-22T13:31:26Z</time>
      </trkpt>
      <trkpt lat="44.91641" lon="6.53121">
        <ele>2285</ele>
        <time>2011-01-22T13:31:31Z</time>
      </trkpt>
      <trkpt lat="44.91639" lon="6.53117">
        <ele>2286.6</ele>
        <time>2011-01-22T13:31:32Z</time>
      </trkpt>
      <trkpt lat="44.91633" lon="6.531">
        <ele>2293.4</ele>
        <time>2011-01-22T13:31:36Z</time>
      </trkpt>
      <trkpt lat="44.9163" lon="6.53091">
        <ele>2296.6</ele>
        <time>2011-01-22T13:31:38Z</time>
      </trkpt>
      <trkpt lat="44.9162" lon="6.53065">
        <ele>2306.6</ele>
        <time>2011-01-22T13:31:44Z</time>
      </trkpt>
      <trkpt lat="44.91617" lon="6.53056">
        <ele>2310</ele>
        <time>2011-01-22T13:31:46Z</time>
      </trkpt>
      <trkpt lat="44.91611" lon="6.53039">
        <ele>2316.8</ele>
        <time>2011-01-22T13:31:50Z</time>
      </trkpt>
      <trkpt lat="44.91604" lon="6.53022">
        <ele>2323.6</ele>
        <time>2011-01-22T13:31:54Z</time>
      </trkpt>
      <trkpt lat="44.91601" lon="6.53013">
        <ele>2327.2</ele>
        <time>2011-01-22T13:31:56Z</time>
      </trkpt>
      <trkpt lat="44.91592" lon="6.52988">
        <ele>2338.4</ele>
        <time>2011-01-22T13:32:02Z</time>
      </trkpt>
      <trkpt lat="44.91583" lon="6.52962">
        <ele>2350.4</ele>
        <time>2011-01-22T13:32:08Z</time>
      </trkpt>
      <trkpt lat="44.91576" lon="6.52945">
        <ele>2358.8</ele>
        <time>2011-01-22T13:32:12Z</time>
      </trkpt>
      <trkpt lat="44.91574" lon="6.5294">
        <ele>2360.8</ele>
        <time>2011-01-22T13:32:13Z</time>
      </trkpt>
      <trkpt lat="44.91568" lon="6.52921">
        <ele>2369.2</ele>
        <time>2011-01-22T13:32:17Z</time>
      </trkpt>
      <trkpt lat="44.91566" lon="6.52916">
        <ele>2371.2</ele>
        <time>2011-01-22T13:32:18Z</time>
      </trkpt>
      <trkpt lat="44.91557" lon="6.52892">
        <ele>2381.4</ele>
        <time>2011-01-22T13:32:23Z</time>
      </trkpt>
      <trkpt lat="44.91554" lon="6.52883">
        <ele>2385.4</ele>
        <time>2011-01-22T13:32:25Z</time>
      </trkpt>
      <trkpt lat="44.91548" lon="6.52869">
        <ele>2391.4</ele>
        <time>2011-01-22T13:32:28Z</time>
      </trkpt>
      <trkpt lat="44.9154" lon="6.52846">
        <ele>2401.6</ele>
        <time>2011-01-22T13:32:33Z</time>
      </trkpt>
      <trkpt lat="44.91535" lon="6.52832">
        <ele>2407.8</ele>
        <time>2011-01-22T13:32:36Z</time>
      </trkpt>
      <trkpt lat="44.91531" lon="6.52823">
        <ele>2412.2</ele>
        <time>2011-01-22T13:32:38Z</time>
      </trkpt>
      <trkpt lat="44.91521" lon="6.52796">
        <ele>2425.4</ele>
        <time>2011-01-22T13:32:44Z</time>
      </trkpt>
      <trkpt lat="44.91517" lon="6.52787">
        <ele>2430.2</ele>
        <time>2011-01-22T13:32:46Z</time>
      </trkpt>
      <trkpt lat="44.91511" lon="6.52771">
        <ele>2438.6</ele>
        <time>2011-01-22T13:32:50Z</time>
      </trkpt>
      <trkpt lat="44.91509" lon="6.52762">
        <ele>2442.6</ele>
        <time>2011-01-22T13:32:52Z</time>
      </trkpt>
      <trkpt lat="44.91502" lon="6.52745">
        <ele>2451</ele>
        <time>2011-01-22T13:32:56Z</time>
      </trkpt>
      <trkpt lat="44.91499" lon="6.52742">
        <ele>2453</ele>
        <time>2011-01-22T13:32:57Z</time>
      </trkpt>
      <trkpt lat="44.91491" lon="6.52727">
        <ele>2457.8</ele>
        <time>2011-01-22T13:33:00Z</time>
      </trkpt>
      <trkpt lat="44.91489" lon="6.52722">
        <ele>2459.4</ele>
        <time>2011-01-22T13:33:01Z</time>
      </trkpt>
      <trkpt lat="44.91484" lon="6.52719">
        <ele>2462.8</ele>
        <time>2011-01-22T13:33:04Z</time>
      </trkpt>
      <trkpt lat="44.91485" lon="6.52723">
        <ele>2469.2</ele>
        <time>2011-01-22T13:33:11Z</time>
      </trkpt>
      <trkpt lat="44.91481" lon="6.52722">
        <ele>2488.4</ele>
        <time>2011-01-22T13:34:03Z</time>
      </trkpt>
      <trkpt lat="44.91478" lon="6.52719">
        <ele>2488.4</ele>
        <time>2011-01-22T13:34:05Z</time>
      </trkpt>
      <trkpt lat="44.9147" lon="6.52717">
        <ele>2488.4</ele>
        <time>2011-01-22T13:34:08Z</time>
      </trkpt>
      <trkpt lat="44.91466" lon="6.52716">
        <ele>2488.4</ele>
        <time>2011-01-22T13:34:09Z</time>
      </trkpt>
      <trkpt lat="44.91463" lon="6.52711">
        <ele>2488.4</ele>
        <time>2011-01-22T13:34:10Z</time>
      </trkpt>
      <trkpt lat="44.91458" lon="6.52703">
        <ele>2488.4</ele>
        <time>2011-01-22T13:34:11Z</time>
      </trkpt>
      <trkpt lat="44.91452" lon="6.52693">
        <ele>2488.2</ele>
        <time>2011-01-22T13:34:12Z</time>
      </trkpt>
      <trkpt lat="44.91445" lon="6.52684">
        <ele>2488.2</ele>
        <time>2011-01-22T13:34:13Z</time>
      </trkpt>
      <trkpt lat="44.91435" lon="6.52675">
        <ele>2488</ele>
        <time>2011-01-22T13:34:14Z</time>
      </trkpt>
      <trkpt lat="44.91413" lon="6.52673">
        <ele>2487.4</ele>
        <time>2011-01-22T13:34:16Z</time>
      </trkpt>
      <trkpt lat="44.91399" lon="6.52676">
        <ele>2487.2</ele>
        <time>2011-01-22T13:34:17Z</time>
      </trkpt>
      <trkpt lat="44.91388" lon="6.52682">
        <ele>2487</ele>
        <time>2011-01-22T13:34:18Z</time>
      </trkpt>
      <trkpt lat="44.91369" lon="6.5271">
        <ele>2486.4</ele>
        <time>2011-01-22T13:34:20Z</time>
      </trkpt>
      <trkpt lat="44.91347" lon="6.52728">
        <ele>2485.6</ele>
        <time>2011-01-22T13:34:22Z</time>
      </trkpt>
      <trkpt lat="44.91338" lon="6.5274">
        <ele>2485.2</ele>
        <time>2011-01-22T13:34:23Z</time>
      </trkpt>
      <trkpt lat="44.91332" lon="6.52755">
        <ele>2484.8</ele>
        <time>2011-01-22T13:34:24Z</time>
      </trkpt>
      <trkpt lat="44.91318" lon="6.52783">
        <ele>2484</ele>
        <time>2011-01-22T13:34:26Z</time>
      </trkpt>
      <trkpt lat="44.91305" lon="6.52805">
        <ele>2482.8</ele>
        <time>2011-01-22T13:34:28Z</time>
      </trkpt>
      <trkpt lat="44.9129" lon="6.52834">
        <ele>2481.6</ele>
        <time>2011-01-22T13:34:30Z</time>
      </trkpt>
      <trkpt lat="44.91274" lon="6.52862">
        <ele>2480.4</ele>
        <time>2011-01-22T13:34:32Z</time>
      </trkpt>
      <trkpt lat="44.91264" lon="6.52875">
        <ele>2479.6</ele>
        <time>2011-01-22T13:34:33Z</time>
      </trkpt>
      <trkpt lat="44.91254" lon="6.52886">
        <ele>2479</ele>
        <time>2011-01-22T13:34:34Z</time>
      </trkpt>
      <trkpt lat="44.91243" lon="6.52893">
        <ele>2478.2</ele>
        <time>2011-01-22T13:34:35Z</time>
      </trkpt>
      <trkpt lat="44.91233" lon="6.52897">
        <ele>2477.4</ele>
        <time>2011-01-22T13:34:36Z</time>
      </trkpt>
      <trkpt lat="44.9122" lon="6.52906">
        <ele>2476</ele>
        <time>2011-01-22T13:34:38Z</time>
      </trkpt>
      <trkpt lat="44.91218" lon="6.52912">
        <ele>2474.4</ele>
        <time>2011-01-22T13:34:40Z</time>
      </trkpt>
      <trkpt lat="44.9122" lon="6.52913">
        <ele>2472.2</ele>
        <time>2011-01-22T13:34:43Z</time>
      </trkpt>
      <trkpt lat="44.91222" lon="6.52912">
        <ele>2465</ele>
        <time>2011-01-22T13:34:54Z</time>
      </trkpt>
      <trkpt lat="44.91222" lon="6.52913">
        <ele>2461.6</ele>
        <time>2011-01-22T13:35:00Z</time>
      </trkpt>
      <trkpt lat="44.9122" lon="6.52915">
        <ele>2454</ele>
        <time>2011-01-22T13:35:14Z</time>
      </trkpt>
      <trkpt lat="44.9122" lon="6.52915">
        <ele>2453.6</ele>
        <time>2011-01-22T13:35:15Z</time>
      </trkpt>
      <trkpt lat="44.91219" lon="6.52915">
        <ele>2449.8</ele>
        <time>2011-01-22T13:35:23Z</time>
      </trkpt>
      <trkpt lat="44.91216" lon="6.52915">
        <ele>2442.6</ele>
        <time>2011-01-22T13:35:39Z</time>
      </trkpt>
      <trkpt lat="44.91215" lon="6.52913">
        <ele>2439.8</ele>
        <time>2011-01-22T13:35:46Z</time>
      </trkpt>
      <trkpt lat="44.91207" lon="6.52914">
        <ele>2437.6</ele>
        <time>2011-01-22T13:35:52Z</time>
      </trkpt>
      <trkpt lat="44.91202" lon="6.52914">
        <ele>2437.4</ele>
        <time>2011-01-22T13:35:53Z</time>
      </trkpt>
      <trkpt lat="44.91193" lon="6.52913">
        <ele>2436.2</ele>
        <time>2011-01-22T13:35:56Z</time>
      </trkpt>
      <trkpt lat="44.91182" lon="6.52913">
        <ele>2435.4</ele>
        <time>2011-01-22T13:35:59Z</time>
      </trkpt>
      <trkpt lat="44.91174" lon="6.52913">
        <ele>2435</ele>
        <time>2011-01-22T13:36:01Z</time>
      </trkpt>
      <trkpt lat="44.91163" lon="6.52914">
        <ele>2434.2</ele>
        <time>2011-01-22T13:36:04Z</time>
      </trkpt>
      <trkpt lat="44.91157" lon="6.52915">
        <ele>2433.8</ele>
        <time>2011-01-22T13:36:06Z</time>
      </trkpt>
      <trkpt lat="44.91143" lon="6.52915">
        <ele>2433.2</ele>
        <time>2011-01-22T13:36:10Z</time>
      </trkpt>
      <trkpt lat="44.91139" lon="6.52915">
        <ele>2433</ele>
        <time>2011-01-22T13:36:11Z</time>
      </trkpt>
      <trkpt lat="44.91125" lon="6.52915">
        <ele>2432.4</ele>
        <time>2011-01-22T13:36:15Z</time>
      </trkpt>
      <trkpt lat="44.91114" lon="6.52916">
        <ele>2432.2</ele>
        <time>2011-01-22T13:36:18Z</time>
      </trkpt>
      <trkpt lat="44.91104" lon="6.52917">
        <ele>2432.2</ele>
        <time>2011-01-22T13:36:21Z</time>
      </trkpt>
      <trkpt lat="44.91086" lon="6.52917">
        <ele>2432.6</ele>
        <time>2011-01-22T13:36:26Z</time>
      </trkpt>
      <trkpt lat="44.91083" lon="6.52917">
        <ele>2432.8</ele>
        <time>2011-01-22T13:36:27Z</time>
      </trkpt>
      <trkpt lat="44.91063" lon="6.52918">
        <ele>2435.4</ele>
        <time>2011-01-22T13:36:33Z</time>
      </trkpt>
      <trkpt lat="44.9106" lon="6.52918">
        <ele>2436</ele>
        <time>2011-01-22T13:36:34Z</time>
      </trkpt>
      <trkpt lat="44.91045" lon="6.52918">
        <ele>2439.2</ele>
        <time>2011-01-22T13:36:39Z</time>
      </trkpt>
      <trkpt lat="44.91026" lon="6.52918">
        <ele>2444.4</ele>
        <time>2011-01-22T13:36:45Z</time>
      </trkpt>
      <trkpt lat="44.91022" lon="6.52918">
        <ele>2445.4</ele>
        <time>2011-01-22T13:36:46Z</time>
      </trkpt>
      <trkpt lat="44.91006" lon="6.52918">
        <ele>2450.4</ele>
        <time>2011-01-22T13:36:51Z</time>
      </trkpt>
      <trkpt lat="44.90987" lon="6.52918">
        <ele>2457.4</ele>
        <time>2011-01-22T13:36:57Z</time>
      </trkpt>
      <trkpt lat="44.90984" lon="6.52918">
        <ele>2458.6</ele>
        <time>2011-01-22T13:36:58Z</time>
      </trkpt>
      <trkpt lat="44.90967" lon="6.52919">
        <ele>2464.8</ele>
        <time>2011-01-22T13:37:03Z</time>
      </trkpt>
      <trkpt lat="44.90951" lon="6.52919">
        <ele>2471.4</ele>
        <time>2011-01-22T13:37:08Z</time>
      </trkpt>
      <trkpt lat="44.90948" lon="6.52919">
        <ele>2472.8</ele>
        <time>2011-01-22T13:37:09Z</time>
      </trkpt>
      <trkpt lat="44.90929" lon="6.52919">
        <ele>2481.6</ele>
        <time>2011-01-22T13:37:15Z</time>
      </trkpt>
      <trkpt lat="44.90913" lon="6.52919">
        <ele>2489.2</ele>
        <time>2011-01-22T13:37:20Z</time>
      </trkpt>
      <trkpt lat="44.9091" lon="6.52919">
        <ele>2490.8</ele>
        <time>2011-01-22T13:37:21Z</time>
      </trkpt>
      <trkpt lat="44.90891" lon="6.52919">
        <ele>2500.6</ele>
        <time>2011-01-22T13:37:27Z</time>
      </trkpt>
      <trkpt lat="44.90875" lon="6.52919">
        <ele>2509.2</ele>
        <time>2011-01-22T13:37:32Z</time>
      </trkpt>
      <trkpt lat="44.90872" lon="6.52919">
        <ele>2510.8</ele>
        <time>2011-01-22T13:37:33Z</time>
      </trkpt>
      <trkpt lat="44.90853" lon="6.52919">
        <ele>2521.4</ele>
        <time>2011-01-22T13:37:39Z</time>
      </trkpt>
      <trkpt lat="44.90843" lon="6.52919">
        <ele>2526.8</ele>
        <time>2011-01-22T13:37:42Z</time>
      </trkpt>
      <trkpt lat="44.90834" lon="6.52919">
        <ele>2532.2</ele>
        <time>2011-01-22T13:37:45Z</time>
      </trkpt>
      <trkpt lat="44.90817" lon="6.52919">
        <ele>2541.4</ele>
        <time>2011-01-22T13:37:50Z</time>
      </trkpt>
      <trkpt lat="44.90814" lon="6.52919">
        <ele>2543.4</ele>
        <time>2011-01-22T13:37:51Z</time>
      </trkpt>
      <trkpt lat="44.90798" lon="6.5292">
        <ele>2551.8</ele>
        <time>2011-01-22T13:37:56Z</time>
      </trkpt>
      <trkpt lat="44.90795" lon="6.5292">
        <ele>2553.6</ele>
        <time>2011-01-22T13:37:57Z</time>
      </trkpt>
      <trkpt lat="44.90782" lon="6.5292">
        <ele>2560.6</ele>
        <time>2011-01-22T13:38:01Z</time>
      </trkpt>
      <trkpt lat="44.90776" lon="6.5292">
        <ele>2564</ele>
        <time>2011-01-22T13:38:03Z</time>
      </trkpt>
      <trkpt lat="44.90758" lon="6.5292">
        <ele>2574.2</ele>
        <time>2011-01-22T13:38:09Z</time>
      </trkpt>
      <trkpt lat="44.90755" lon="6.5292">
        <ele>2576</ele>
        <time>2011-01-22T13:38:10Z</time>
      </trkpt>
      <trkpt lat="44.90739" lon="6.52919">
        <ele>2584.6</ele>
        <time>2011-01-22T13:38:15Z</time>
      </trkpt>
      <trkpt lat="44.90725" lon="6.52919">
        <ele>2591.6</ele>
        <time>2011-01-22T13:38:19Z</time>
      </trkpt>
      <trkpt lat="44.90722" lon="6.52916">
        <ele>2593.6</ele>
        <time>2011-01-22T13:38:20Z</time>
      </trkpt>
      <trkpt lat="44.90721" lon="6.52913">
        <ele>2595.4</ele>
        <time>2011-01-22T13:38:21Z</time>
      </trkpt>
      <trkpt lat="44.90721" lon="6.52911">
        <ele>2596.8</ele>
        <time>2011-01-22T13:38:22Z</time>
      </trkpt>
      <trkpt lat="44.90722" lon="6.52909">
        <ele>2604.8</ele>
        <time>2011-01-22T13:38:27Z</time>
      </trkpt>
      <trkpt lat="44.90722" lon="6.5291">
        <ele>2618</ele>
        <time>2011-01-22T13:38:36Z</time>
      </trkpt>
      <trkpt lat="44.90724" lon="6.529">
        <ele>2646.2</ele>
        <time>2011-01-22T13:39:02Z</time>
      </trkpt>
      <trkpt lat="44.9073" lon="6.52893">
        <ele>2648</ele>
        <time>2011-01-22T13:39:05Z</time>
      </trkpt>
      <trkpt lat="44.90736" lon="6.52884">
        <ele>2649</ele>
        <time>2011-01-22T13:39:07Z</time>
      </trkpt>
      <trkpt lat="44.90743" lon="6.52872">
        <ele>2650</ele>
        <time>2011-01-22T13:39:09Z</time>
      </trkpt>
      <trkpt lat="44.90752" lon="6.52856">
        <ele>2650.4</ele>
        <time>2011-01-22T13:39:11Z</time>
      </trkpt>
      <trkpt lat="44.90757" lon="6.52846">
        <ele>2650.6</ele>
        <time>2011-01-22T13:39:12Z</time>
      </trkpt>
      <trkpt lat="44.90761" lon="6.52836">
        <ele>2650.6</ele>
        <time>2011-01-22T13:39:13Z</time>
      </trkpt>
      <trkpt lat="44.90766" lon="6.52824">
        <ele>2650.6</ele>
        <time>2011-01-22T13:39:14Z</time>
      </trkpt>
      <trkpt lat="44.90776" lon="6.52798">
        <ele>2650.2</ele>
        <time>2011-01-22T13:39:16Z</time>
      </trkpt>
      <trkpt lat="44.90782" lon="6.52785">
        <ele>2650</ele>
        <time>2011-01-22T13:39:17Z</time>
      </trkpt>
      <trkpt lat="44.90789" lon="6.52772">
        <ele>2650</ele>
        <time>2011-01-22T13:39:18Z</time>
      </trkpt>
      <trkpt lat="44.90796" lon="6.5276">
        <ele>2650</ele>
        <time>2011-01-22T13:39:19Z</time>
      </trkpt>
      <trkpt lat="44.90805" lon="6.5275">
        <ele>2649.8</ele>
        <time>2011-01-22T13:39:20Z</time>
      </trkpt>
      <trkpt lat="44.9082" lon="6.52727">
        <ele>2649.4</ele>
        <time>2011-01-22T13:39:22Z</time>
      </trkpt>
      <trkpt lat="44.90827" lon="6.52715">
        <ele>2649.2</ele>
        <time>2011-01-22T13:39:23Z</time>
      </trkpt>
      <trkpt lat="44.90835" lon="6.52704">
        <ele>2649</ele>
        <time>2011-01-22T13:39:24Z</time>
      </trkpt>
      <trkpt lat="44.90849" lon="6.52685">
        <ele>2648.4</ele>
        <time>2011-01-22T13:39:26Z</time>
      </trkpt>
      <trkpt lat="44.90864" lon="6.52669">
        <ele>2647.8</ele>
        <time>2011-01-22T13:39:28Z</time>
      </trkpt>
      <trkpt lat="44.90871" lon="6.52662">
        <ele>2647.6</ele>
        <time>2011-01-22T13:39:29Z</time>
      </trkpt>
      <trkpt lat="44.90878" lon="6.52655">
        <ele>2647.2</ele>
        <time>2011-01-22T13:39:30Z</time>
      </trkpt>
      <trkpt lat="44.90886" lon="6.52646">
        <ele>2647</ele>
        <time>2011-01-22T13:39:31Z</time>
      </trkpt>
      <trkpt lat="44.90893" lon="6.52636">
        <ele>2646.6</ele>
        <time>2011-01-22T13:39:32Z</time>
      </trkpt>
      <trkpt lat="44.90901" lon="6.52624">
        <ele>2646</ele>
        <time>2011-01-22T13:39:33Z</time>
      </trkpt>
      <trkpt lat="44.90908" lon="6.52611">
        <ele>2645.6</ele>
        <time>2011-01-22T13:39:34Z</time>
      </trkpt>
      <trkpt lat="44.90915" lon="6.52599">
        <ele>2645.2</ele>
        <time>2011-01-22T13:39:35Z</time>
      </trkpt>
      <trkpt lat="44.90921" lon="6.52586">
        <ele>2644.8</ele>
        <time>2011-01-22T13:39:36Z</time>
      </trkpt>
      <trkpt lat="44.90932" lon="6.52576">
        <ele>2643.6</ele>
        <time>2011-01-22T13:39:38Z</time>
      </trkpt>
      <trkpt lat="44.90932" lon="6.52576">
        <ele>2642.6</ele>
        <time>2011-01-22T13:39:40Z</time>
      </trkpt>
      <trkpt lat="44.9093" lon="6.52579">
        <ele>2640</ele>
        <time>2011-01-22T13:39:45Z</time>
      </trkpt>
      <trkpt lat="44.90931" lon="6.52581">
        <ele>2639</ele>
        <time>2011-01-22T13:39:47Z</time>
      </trkpt>
      <trkpt lat="44.90934" lon="6.52582">
        <ele>2638.4</ele>
        <time>2011-01-22T13:39:48Z</time>
      </trkpt>
      <trkpt lat="44.90941" lon="6.52577">
        <ele>2637.8</ele>
        <time>2011-01-22T13:39:49Z</time>
      </trkpt>
      <trkpt lat="44.90949" lon="6.5257">
        <ele>2637.2</ele>
        <time>2011-01-22T13:39:50Z</time>
      </trkpt>
      <trkpt lat="44.90957" lon="6.52561">
        <ele>2636.6</ele>
        <time>2011-01-22T13:39:51Z</time>
      </trkpt>
      <trkpt lat="44.90975" lon="6.5254">
        <ele>2635.4</ele>
        <time>2011-01-22T13:39:53Z</time>
      </trkpt>
      <trkpt lat="44.90986" lon="6.52536">
        <ele>2634.6</ele>
        <time>2011-01-22T13:39:54Z</time>
      </trkpt>
      <trkpt lat="44.90995" lon="6.52538">
        <ele>2633.8</ele>
        <time>2011-01-22T13:39:55Z</time>
      </trkpt>
      <trkpt lat="44.91005" lon="6.52543">
        <ele>2633.2</ele>
        <time>2011-01-22T13:39:56Z</time>
      </trkpt>
      <trkpt lat="44.91014" lon="6.52552">
        <ele>2632.2</ele>
        <time>2011-01-22T13:39:57Z</time>
      </trkpt>
      <trkpt lat="44.9102" lon="6.52566">
        <ele>2631.4</ele>
        <time>2011-01-22T13:39:58Z</time>
      </trkpt>
      <trkpt lat="44.91026" lon="6.52575">
        <ele>2630.6</ele>
        <time>2011-01-22T13:39:59Z</time>
      </trkpt>
      <trkpt lat="44.91037" lon="6.52591">
        <ele>2628.8</ele>
        <time>2011-01-22T13:40:01Z</time>
      </trkpt>
      <trkpt lat="44.91042" lon="6.52596">
        <ele>2627.8</ele>
        <time>2011-01-22T13:40:02Z</time>
      </trkpt>
      <trkpt lat="44.91054" lon="6.526">
        <ele>2625.8</ele>
        <time>2011-01-22T13:40:04Z</time>
      </trkpt>
      <trkpt lat="44.91056" lon="6.5261">
        <ele>2624.8</ele>
        <time>2011-01-22T13:40:05Z</time>
      </trkpt>
      <trkpt lat="44.91055" lon="6.52619">
        <ele>2623.8</ele>
        <time>2011-01-22T13:40:06Z</time>
      </trkpt>
      <trkpt lat="44.91054" lon="6.52627">
        <ele>2622.8</ele>
        <time>2011-01-22T13:40:07Z</time>
      </trkpt>
      <trkpt lat="44.91053" lon="6.52635">
        <ele>2621.6</ele>
        <time>2011-01-22T13:40:08Z</time>
      </trkpt>
      <trkpt lat="44.91059" lon="6.52638">
        <ele>2619.4</ele>
        <time>2011-01-22T13:40:10Z</time>
      </trkpt>
      <trkpt lat="44.91071" lon="6.5263">
        <ele>2617.2</ele>
        <time>2011-01-22T13:40:12Z</time>
      </trkpt>
      <trkpt lat="44.91076" lon="6.52634">
        <ele>2616</ele>
        <time>2011-01-22T13:40:13Z</time>
      </trkpt>
      <trkpt lat="44.91079" lon="6.5265">
        <ele>2613.6</ele>
        <time>2011-01-22T13:40:15Z</time>
      </trkpt>
      <trkpt lat="44.91079" lon="6.5267">
        <ele>2610</ele>
        <time>2011-01-22T13:40:18Z</time>
      </trkpt>
      <trkpt lat="44.91091" lon="6.52662">
        <ele>2607.4</ele>
        <time>2011-01-22T13:40:20Z</time>
      </trkpt>
      <trkpt lat="44.91105" lon="6.5268">
        <ele>2603.6</ele>
        <time>2011-01-22T13:40:23Z</time>
      </trkpt>
      <trkpt lat="44.91104" lon="6.52704">
        <ele>2600.6</ele>
        <time>2011-01-22T13:40:25Z</time>
      </trkpt>
      <trkpt lat="44.91095" lon="6.52732">
        <ele>2597.8</ele>
        <time>2011-01-22T13:40:27Z</time>
      </trkpt>
      <trkpt lat="44.91092" lon="6.52745">
        <ele>2596.4</ele>
        <time>2011-01-22T13:40:28Z</time>
      </trkpt>
      <trkpt lat="44.91092" lon="6.52759">
        <ele>2595</ele>
        <time>2011-01-22T13:40:29Z</time>
      </trkpt>
      <trkpt lat="44.91109" lon="6.52773">
        <ele>2592.2</ele>
        <time>2011-01-22T13:40:31Z</time>
      </trkpt>
      <trkpt lat="44.91119" lon="6.52783">
        <ele>2590.6</ele>
        <time>2011-01-22T13:40:32Z</time>
      </trkpt>
      <trkpt lat="44.91128" lon="6.52795">
        <ele>2589.2</ele>
        <time>2011-01-22T13:40:33Z</time>
      </trkpt>
      <trkpt lat="44.91136" lon="6.52808">
        <ele>2587.6</ele>
        <time>2011-01-22T13:40:34Z</time>
      </trkpt>
      <trkpt lat="44.91146" lon="6.5282">
        <ele>2586</ele>
        <time>2011-01-22T13:40:35Z</time>
      </trkpt>
      <trkpt lat="44.91157" lon="6.5283">
        <ele>2584.4</ele>
        <time>2011-01-22T13:40:36Z</time>
      </trkpt>
      <trkpt lat="44.91181" lon="6.52845">
        <ele>2581.2</ele>
        <time>2011-01-22T13:40:38Z</time>
      </trkpt>
      <trkpt lat="44.91194" lon="6.52849">
        <ele>2579.6</ele>
        <time>2011-01-22T13:40:39Z</time>
      </trkpt>
      <trkpt lat="44.91207" lon="6.52853">
        <ele>2577.8</ele>
        <time>2011-01-22T13:40:40Z</time>
      </trkpt>
      <trkpt lat="44.91233" lon="6.52864">
        <ele>2574.6</ele>
        <time>2011-01-22T13:40:42Z</time>
      </trkpt>
      <trkpt lat="44.91255" lon="6.52869">
        <ele>2571.2</ele>
        <time>2011-01-22T13:40:44Z</time>
      </trkpt>
      <trkpt lat="44.91265" lon="6.52871">
        <ele>2569.6</ele>
        <time>2011-01-22T13:40:45Z</time>
      </trkpt>
      <trkpt lat="44.9128" lon="6.52876">
        <ele>2566.4</ele>
        <time>2011-01-22T13:40:47Z</time>
      </trkpt>
      <trkpt lat="44.91287" lon="6.52879">
        <ele>2565</ele>
        <time>2011-01-22T13:40:48Z</time>
      </trkpt>
      <trkpt lat="44.91292" lon="6.52883">
        <ele>2563.4</ele>
        <time>2011-01-22T13:40:49Z</time>
      </trkpt>
      <trkpt lat="44.91302" lon="6.52891">
        <ele>2560.4</ele>
        <time>2011-01-22T13:40:51Z</time>
      </trkpt>
      <trkpt lat="44.9131" lon="6.52899">
        <ele>2557.6</ele>
        <time>2011-01-22T13:40:53Z</time>
      </trkpt>
      <trkpt lat="44.91313" lon="6.52902">
        <ele>2556.2</ele>
        <time>2011-01-22T13:40:54Z</time>
      </trkpt>
      <trkpt lat="44.91317" lon="6.52908">
        <ele>2552</ele>
        <time>2011-01-22T13:40:57Z</time>
      </trkpt>
      <trkpt lat="44.91318" lon="6.52911">
        <ele>2549.4</ele>
        <time>2011-01-22T13:40:59Z</time>
      </trkpt>
      <trkpt lat="44.91318" lon="6.52913">
        <ele>2546.8</ele>
        <time>2011-01-22T13:41:01Z</time>
      </trkpt>
      <trkpt lat="44.91317" lon="6.52913">
        <ele>2545.6</ele>
        <time>2011-01-22T13:41:02Z</time>
      </trkpt>
      <trkpt lat="44.91316" lon="6.52913">
        <ele>2540.6</ele>
        <time>2011-01-22T13:41:06Z</time>
      </trkpt>
      <trkpt lat="44.91314" lon="6.52912">
        <ele>2450</ele>
        <time>2011-01-22T13:43:28Z</time>
      </trkpt>
      <trkpt lat="44.91313" lon="6.52913">
        <ele>2442.6</ele>
        <time>2011-01-22T13:43:56Z</time>
      </trkpt>
      <trkpt lat="44.91311" lon="6.52915">
        <ele>2442.4</ele>
        <time>2011-01-22T13:43:57Z</time>
      </trkpt>
      <trkpt lat="44.91308" lon="6.5292">
        <ele>2442</ele>
        <time>2011-01-22T13:43:58Z</time>
      </trkpt>
      <trkpt lat="44.91303" lon="6.52937">
        <ele>2441.4</ele>
        <time>2011-01-22T13:44:00Z</time>
      </trkpt>
      <trkpt lat="44.91302" lon="6.52948">
        <ele>2441.2</ele>
        <time>2011-01-22T13:44:01Z</time>
      </trkpt>
      <trkpt lat="44.91298" lon="6.52973">
        <ele>2440.4</ele>
        <time>2011-01-22T13:44:03Z</time>
      </trkpt>
      <trkpt lat="44.9129" lon="6.53001">
        <ele>2439.6</ele>
        <time>2011-01-22T13:44:05Z</time>
      </trkpt>
      <trkpt lat="44.91284" lon="6.53013">
        <ele>2439.2</ele>
        <time>2011-01-22T13:44:06Z</time>
      </trkpt>
      <trkpt lat="44.91279" lon="6.53024">
        <ele>2438.8</ele>
        <time>2011-01-22T13:44:07Z</time>
      </trkpt>
      <trkpt lat="44.91277" lon="6.53049">
        <ele>2438</ele>
        <time>2011-01-22T13:44:09Z</time>
      </trkpt>
      <trkpt lat="44.9128" lon="6.53061">
        <ele>2437.4</ele>
        <time>2011-01-22T13:44:10Z</time>
      </trkpt>
      <trkpt lat="44.91287" lon="6.53083">
        <ele>2436.4</ele>
        <time>2011-01-22T13:44:12Z</time>
      </trkpt>
      <trkpt lat="44.91287" lon="6.53095">
        <ele>2436</ele>
        <time>2011-01-22T13:44:13Z</time>
      </trkpt>
      <trkpt lat="44.91288" lon="6.53107">
        <ele>2435.4</ele>
        <time>2011-01-22T13:44:14Z</time>
      </trkpt>
      <trkpt lat="44.91288" lon="6.53119">
        <ele>2434.8</ele>
        <time>2011-01-22T13:44:15Z</time>
      </trkpt>
      <trkpt lat="44.91292" lon="6.53143">
        <ele>2433.4</ele>
        <time>2011-01-22T13:44:17Z</time>
      </trkpt>
      <trkpt lat="44.91292" lon="6.53166">
        <ele>2432.2</ele>
        <time>2011-01-22T13:44:19Z</time>
      </trkpt>
      <trkpt lat="44.91293" lon="6.53175">
        <ele>2431.6</ele>
        <time>2011-01-22T13:44:20Z</time>
      </trkpt>
      <trkpt lat="44.913" lon="6.53197">
        <ele>2430</ele>
        <time>2011-01-22T13:44:22Z</time>
      </trkpt>
      <trkpt lat="44.91315" lon="6.53212">
        <ele>2428.6</ele>
        <time>2011-01-22T13:44:24Z</time>
      </trkpt>
      <trkpt lat="44.91339" lon="6.53218">
        <ele>2426.4</ele>
        <time>2011-01-22T13:44:27Z</time>
      </trkpt>
      <trkpt lat="44.91362" lon="6.53232">
        <ele>2424</ele>
        <time>2011-01-22T13:44:30Z</time>
      </trkpt>
      <trkpt lat="44.91369" lon="6.5324">
        <ele>2423.2</ele>
        <time>2011-01-22T13:44:31Z</time>
      </trkpt>
      <trkpt lat="44.91376" lon="6.53249">
        <ele>2422.2</ele>
        <time>2011-01-22T13:44:32Z</time>
      </trkpt>
      <trkpt lat="44.9139" lon="6.53268">
        <ele>2420.6</ele>
        <time>2011-01-22T13:44:34Z</time>
      </trkpt>
      <trkpt lat="44.91405" lon="6.533">
        <ele>2418</ele>
        <time>2011-01-22T13:44:37Z</time>
      </trkpt>
      <trkpt lat="44.91409" lon="6.53334">
        <ele>2415</ele>
        <time>2011-01-22T13:44:40Z</time>
      </trkpt>
      <trkpt lat="44.91424" lon="6.53355">
        <ele>2412</ele>
        <time>2011-01-22T13:44:43Z</time>
      </trkpt>
      <trkpt lat="44.91438" lon="6.53377">
        <ele>2408.8</ele>
        <time>2011-01-22T13:44:46Z</time>
      </trkpt>
      <trkpt lat="44.91455" lon="6.53387">
        <ele>2406.6</ele>
        <time>2011-01-22T13:44:48Z</time>
      </trkpt>
      <trkpt lat="44.91465" lon="6.53391">
        <ele>2405.4</ele>
        <time>2011-01-22T13:44:49Z</time>
      </trkpt>
      <trkpt lat="44.91476" lon="6.53393">
        <ele>2404.4</ele>
        <time>2011-01-22T13:44:50Z</time>
      </trkpt>
      <trkpt lat="44.91492" lon="6.53399">
        <ele>2402.2</ele>
        <time>2011-01-22T13:44:52Z</time>
      </trkpt>
      <trkpt lat="44.91499" lon="6.53401">
        <ele>2401</ele>
        <time>2011-01-22T13:44:53Z</time>
      </trkpt>
      <trkpt lat="44.91512" lon="6.534">
        <ele>2398.8</ele>
        <time>2011-01-22T13:44:55Z</time>
      </trkpt>
      <trkpt lat="44.91518" lon="6.53398">
        <ele>2397.8</ele>
        <time>2011-01-22T13:44:56Z</time>
      </trkpt>
      <trkpt lat="44.91525" lon="6.53396">
        <ele>2396.6</ele>
        <time>2011-01-22T13:44:57Z</time>
      </trkpt>
      <trkpt lat="44.91531" lon="6.53395">
        <ele>2395.6</ele>
        <time>2011-01-22T13:44:58Z</time>
      </trkpt>
      <trkpt lat="44.91537" lon="6.53394">
        <ele>2394.4</ele>
        <time>2011-01-22T13:44:59Z</time>
      </trkpt>
      <trkpt lat="44.91552" lon="6.53394">
        <ele>2391.2</ele>
        <time>2011-01-22T13:45:02Z</time>
      </trkpt>
      <trkpt lat="44.91557" lon="6.53392">
        <ele>2390.2</ele>
        <time>2011-01-22T13:45:03Z</time>
      </trkpt>
      <trkpt lat="44.91567" lon="6.53392">
        <ele>2388</ele>
        <time>2011-01-22T13:45:05Z</time>
      </trkpt>
      <trkpt lat="44.9158" lon="6.53392">
        <ele>2385.6</ele>
        <time>2011-01-22T13:45:07Z</time>
      </trkpt>
      <trkpt lat="44.91587" lon="6.53394">
        <ele>2384.6</ele>
        <time>2011-01-22T13:45:08Z</time>
      </trkpt>
      <trkpt lat="44.91596" lon="6.53395">
        <ele>2383.4</ele>
        <time>2011-01-22T13:45:09Z</time>
      </trkpt>
      <trkpt lat="44.91605" lon="6.53392">
        <ele>2382.2</ele>
        <time>2011-01-22T13:45:10Z</time>
      </trkpt>
      <trkpt lat="44.91615" lon="6.53386">
        <ele>2381</ele>
        <time>2011-01-22T13:45:11Z</time>
      </trkpt>
      <trkpt lat="44.91626" lon="6.53378">
        <ele>2379.8</ele>
        <time>2011-01-22T13:45:12Z</time>
      </trkpt>
      <trkpt lat="44.91641" lon="6.53375">
        <ele>2378.6</ele>
        <time>2011-01-22T13:45:13Z</time>
      </trkpt>
      <trkpt lat="44.91654" lon="6.53374">
        <ele>2377.4</ele>
        <time>2011-01-22T13:45:14Z</time>
      </trkpt>
      <trkpt lat="44.91681" lon="6.53375">
        <ele>2374.8</ele>
        <time>2011-01-22T13:45:16Z</time>
      </trkpt>
      <trkpt lat="44.91693" lon="6.53383">
        <ele>2373.4</ele>
        <time>2011-01-22T13:45:17Z</time>
      </trkpt>
      <trkpt lat="44.91705" lon="6.53392">
        <ele>2372</ele>
        <time>2011-01-22T13:45:18Z</time>
      </trkpt>
      <trkpt lat="44.91718" lon="6.53402">
        <ele>2370.4</ele>
        <time>2011-01-22T13:45:19Z</time>
      </trkpt>
      <trkpt lat="44.91731" lon="6.53416">
        <ele>2369</ele>
        <time>2011-01-22T13:45:20Z</time>
      </trkpt>
      <trkpt lat="44.91743" lon="6.53434">
        <ele>2367.4</ele>
        <time>2011-01-22T13:45:21Z</time>
      </trkpt>
      <trkpt lat="44.91759" lon="6.53473">
        <ele>2364.4</ele>
        <time>2011-01-22T13:45:23Z</time>
      </trkpt>
      <trkpt lat="44.91766" lon="6.53492">
        <ele>2362.8</ele>
        <time>2011-01-22T13:45:24Z</time>
      </trkpt>
      <trkpt lat="44.9177" lon="6.53512">
        <ele>2361.2</ele>
        <time>2011-01-22T13:45:25Z</time>
      </trkpt>
      <trkpt lat="44.91774" lon="6.53532">
        <ele>2359.6</ele>
        <time>2011-01-22T13:45:26Z</time>
      </trkpt>
      <trkpt lat="44.91777" lon="6.53553">
        <ele>2358</ele>
        <time>2011-01-22T13:45:27Z</time>
      </trkpt>
      <trkpt lat="44.91779" lon="6.53595">
        <ele>2354.6</ele>
        <time>2011-01-22T13:45:29Z</time>
      </trkpt>
      <trkpt lat="44.9179" lon="6.53635">
        <ele>2351.4</ele>
        <time>2011-01-22T13:45:31Z</time>
      </trkpt>
      <trkpt lat="44.91795" lon="6.53654">
        <ele>2349.6</ele>
        <time>2011-01-22T13:45:32Z</time>
      </trkpt>
      <trkpt lat="44.91799" lon="6.53672">
        <ele>2348</ele>
        <time>2011-01-22T13:45:33Z</time>
      </trkpt>
      <trkpt lat="44.91809" lon="6.53708">
        <ele>2344.6</ele>
        <time>2011-01-22T13:45:35Z</time>
      </trkpt>
      <trkpt lat="44.91822" lon="6.53738">
        <ele>2341.2</ele>
        <time>2011-01-22T13:45:37Z</time>
      </trkpt>
      <trkpt lat="44.9183" lon="6.53751">
        <ele>2339.6</ele>
        <time>2011-01-22T13:45:38Z</time>
      </trkpt>
      <trkpt lat="44.91838" lon="6.53763">
        <ele>2338</ele>
        <time>2011-01-22T13:45:39Z</time>
      </trkpt>
      <trkpt lat="44.91854" lon="6.53786">
        <ele>2334.6</ele>
        <time>2011-01-22T13:45:41Z</time>
      </trkpt>
      <trkpt lat="44.91868" lon="6.53809">
        <ele>2331.4</ele>
        <time>2011-01-22T13:45:43Z</time>
      </trkpt>
      <trkpt lat="44.91884" lon="6.53832">
        <ele>2328</ele>
        <time>2011-01-22T13:45:45Z</time>
      </trkpt>
      <trkpt lat="44.91902" lon="6.53854">
        <ele>2324.6</ele>
        <time>2011-01-22T13:45:47Z</time>
      </trkpt>
      <trkpt lat="44.91906" lon="6.53867">
        <ele>2322.8</ele>
        <time>2011-01-22T13:45:48Z</time>
      </trkpt>
      <trkpt lat="44.91908" lon="6.53883">
        <ele>2321</ele>
        <time>2011-01-22T13:45:49Z</time>
      </trkpt>
      <trkpt lat="44.91912" lon="6.53899">
        <ele>2319.2</ele>
        <time>2011-01-22T13:45:50Z</time>
      </trkpt>
      <trkpt lat="44.91917" lon="6.53916">
        <ele>2317.4</ele>
        <time>2011-01-22T13:45:51Z</time>
      </trkpt>
      <trkpt lat="44.91921" lon="6.53948">
        <ele>2314</ele>
        <time>2011-01-22T13:45:53Z</time>
      </trkpt>
      <trkpt lat="44.91924" lon="6.5398">
        <ele>2308.4</ele>
        <time>2011-01-22T13:45:56Z</time>
      </trkpt>
      <trkpt lat="44.91923" lon="6.54012">
        <ele>2302.8</ele>
        <time>2011-01-22T13:45:59Z</time>
      </trkpt>
      <trkpt lat="44.91923" lon="6.5404">
        <ele>2299</ele>
        <time>2011-01-22T13:46:01Z</time>
      </trkpt>
      <trkpt lat="44.91927" lon="6.54054">
        <ele>2297</ele>
        <time>2011-01-22T13:46:02Z</time>
      </trkpt>
      <trkpt lat="44.91933" lon="6.54068">
        <ele>2295.2</ele>
        <time>2011-01-22T13:46:03Z</time>
      </trkpt>
      <trkpt lat="44.91946" lon="6.54088">
        <ele>2291.4</ele>
        <time>2011-01-22T13:46:05Z</time>
      </trkpt>
      <trkpt lat="44.91953" lon="6.54092">
        <ele>2289.6</ele>
        <time>2011-01-22T13:46:06Z</time>
      </trkpt>
      <trkpt lat="44.91964" lon="6.54089">
        <ele>2285.8</ele>
        <time>2011-01-22T13:46:08Z</time>
      </trkpt>
      <trkpt lat="44.91969" lon="6.54085">
        <ele>2284</ele>
        <time>2011-01-22T13:46:09Z</time>
      </trkpt>
      <trkpt lat="44.91971" lon="6.54084">
        <ele>2282.2</ele>
        <time>2011-01-22T13:46:10Z</time>
      </trkpt>
      <trkpt lat="44.91972" lon="6.54083">
        <ele>2280.4</ele>
        <time>2011-01-22T13:46:11Z</time>
      </trkpt>
      <trkpt lat="44.91971" lon="6.5408">
        <ele>2270.4</ele>
        <time>2011-01-22T13:46:17Z</time>
      </trkpt>
      <trkpt lat="44.91972" lon="6.5408">
        <ele>2179.4</ele>
        <time>2011-01-22T13:47:38Z</time>
      </trkpt>
      <trkpt lat="44.91973" lon="6.5408">
        <ele>2176.6</ele>
        <time>2011-01-22T13:47:42Z</time>
      </trkpt>
      <trkpt lat="44.91975" lon="6.5408">
        <ele>2173</ele>
        <time>2011-01-22T13:47:47Z</time>
      </trkpt>
      <trkpt lat="44.91978" lon="6.5408">
        <ele>2167.6</ele>
        <time>2011-01-22T13:47:55Z</time>
      </trkpt>
      <trkpt lat="44.91979" lon="6.54078">
        <ele>2163.2</ele>
        <time>2011-01-22T13:48:02Z</time>
      </trkpt>
      <trkpt lat="44.91983" lon="6.54074">
        <ele>2146.8</ele>
        <time>2011-01-22T13:48:33Z</time>
      </trkpt>
      <trkpt lat="44.91984" lon="6.54073">
        <ele>2145</ele>
        <time>2011-01-22T13:48:37Z</time>
      </trkpt>
      <trkpt lat="44.91987" lon="6.54071">
        <ele>2141.4</ele>
        <time>2011-01-22T13:48:45Z</time>
      </trkpt>
      <trkpt lat="44.91989" lon="6.54069">
        <ele>2140.8</ele>
        <time>2011-01-22T13:48:46Z</time>
      </trkpt>
      <trkpt lat="44.9199" lon="6.54069">
        <ele>2140.4</ele>
        <time>2011-01-22T13:48:47Z</time>
      </trkpt>
      <trkpt lat="44.91991" lon="6.5407">
        <ele>2138.6</ele>
        <time>2011-01-22T13:48:51Z</time>
      </trkpt>
      <trkpt lat="44.91993" lon="6.54071">
        <ele>2134.4</ele>
        <time>2011-01-22T13:49:01Z</time>
      </trkpt>
      <trkpt lat="44.91991" lon="6.54056">
        <ele>2131.4</ele>
        <time>2011-01-22T13:49:07Z</time>
      </trkpt>
      <trkpt lat="44.9199" lon="6.54048">
        <ele>2130.6</ele>
        <time>2011-01-22T13:49:09Z</time>
      </trkpt>
      <trkpt lat="44.91984" lon="6.54038">
        <ele>2130</ele>
        <time>2011-01-22T13:49:11Z</time>
      </trkpt>
      <trkpt lat="44.91982" lon="6.54034">
        <ele>2129.6</ele>
        <time>2011-01-22T13:49:12Z</time>
      </trkpt>
      <trkpt lat="44.91969" lon="6.54009">
        <ele>2128.6</ele>
        <time>2011-01-22T13:49:17Z</time>
      </trkpt>
      <trkpt lat="44.9196" lon="6.53985">
        <ele>2127.8</ele>
        <time>2011-01-22T13:49:22Z</time>
      </trkpt>
      <trkpt lat="44.91956" lon="6.53975">
        <ele>2127.8</ele>
        <time>2011-01-22T13:49:24Z</time>
      </trkpt>
      <trkpt lat="44.9195" lon="6.5396">
        <ele>2127.8</ele>
        <time>2011-01-22T13:49:27Z</time>
      </trkpt>
      <trkpt lat="44.91943" lon="6.53941">
        <ele>2128.6</ele>
        <time>2011-01-22T13:49:31Z</time>
      </trkpt>
      <trkpt lat="44.91941" lon="6.53937">
        <ele>2129</ele>
        <time>2011-01-22T13:49:32Z</time>
      </trkpt>
      <trkpt lat="44.91931" lon="6.53913">
        <ele>2131.4</ele>
        <time>2011-01-22T13:49:37Z</time>
      </trkpt>
      <trkpt lat="44.91929" lon="6.53908">
        <ele>2131.8</ele>
        <time>2011-01-22T13:49:38Z</time>
      </trkpt>
      <trkpt lat="44.91922" lon="6.53888">
        <ele>2134.2</ele>
        <time>2011-01-22T13:49:42Z</time>
      </trkpt>
      <trkpt lat="44.91913" lon="6.53864">
        <ele>2137.4</ele>
        <time>2011-01-22T13:49:47Z</time>
      </trkpt>
      <trkpt lat="44.91905" lon="6.53839">
        <ele>2141.2</ele>
        <time>2011-01-22T13:49:52Z</time>
      </trkpt>
      <trkpt lat="44.919" lon="6.53825">
        <ele>2143.8</ele>
        <time>2011-01-22T13:49:55Z</time>
      </trkpt>
      <trkpt lat="44.91896" lon="6.53816">
        <ele>2145.6</ele>
        <time>2011-01-22T13:49:57Z</time>
      </trkpt>
      <trkpt lat="44.91888" lon="6.53791">
        <ele>2150.6</ele>
        <time>2011-01-22T13:50:02Z</time>
      </trkpt>
      <trkpt lat="44.91886" lon="6.53786">
        <ele>2151.6</ele>
        <time>2011-01-22T13:50:03Z</time>
      </trkpt>
      <trkpt lat="44.91878" lon="6.53766">
        <ele>2155.2</ele>
        <time>2011-01-22T13:50:07Z</time>
      </trkpt>
      <trkpt lat="44.91875" lon="6.53756">
        <ele>2157.2</ele>
        <time>2011-01-22T13:50:09Z</time>
      </trkpt>
      <trkpt lat="44.91869" lon="6.53741">
        <ele>2159.8</ele>
        <time>2011-01-22T13:50:12Z</time>
      </trkpt>
      <trkpt lat="44.91862" lon="6.53721">
        <ele>2163.6</ele>
        <time>2011-01-22T13:50:16Z</time>
      </trkpt>
      <trkpt lat="44.9186" lon="6.53716">
        <ele>2164.6</ele>
        <time>2011-01-22T13:50:17Z</time>
      </trkpt>
      <trkpt lat="44.91851" lon="6.53692">
        <ele>2169.2</ele>
        <time>2011-01-22T13:50:22Z</time>
      </trkpt>
      <trkpt lat="44.91849" lon="6.53687">
        <ele>2170.2</ele>
        <time>2011-01-22T13:50:23Z</time>
      </trkpt>
      <trkpt lat="44.91847" lon="6.53682">
        <ele>2171.2</ele>
        <time>2011-01-22T13:50:24Z</time>
      </trkpt>
      <trkpt lat="44.91842" lon="6.53667">
        <ele>2174.2</ele>
        <time>2011-01-22T13:50:27Z</time>
      </trkpt>
      <trkpt lat="44.91832" lon="6.53642">
        <ele>2178.6</ele>
        <time>2011-01-22T13:50:32Z</time>
      </trkpt>
      <trkpt lat="44.91823" lon="6.53617">
        <ele>2183</ele>
        <time>2011-01-22T13:50:37Z</time>
      </trkpt>
      <trkpt lat="44.91814" lon="6.53591">
        <ele>2187</ele>
        <time>2011-01-22T13:50:42Z</time>
      </trkpt>
      <trkpt lat="44.91804" lon="6.53566">
        <ele>2191.2</ele>
        <time>2011-01-22T13:50:47Z</time>
      </trkpt>
      <trkpt lat="44.91798" lon="6.53551">
        <ele>2193.8</ele>
        <time>2011-01-22T13:50:50Z</time>
      </trkpt>
      <trkpt lat="44.91795" lon="6.53542">
        <ele>2195.6</ele>
        <time>2011-01-22T13:50:52Z</time>
      </trkpt>
      <trkpt lat="44.91787" lon="6.53518">
        <ele>2200</ele>
        <time>2011-01-22T13:50:57Z</time>
      </trkpt>
      <trkpt lat="44.91777" lon="6.53493">
        <ele>2203.6</ele>
        <time>2011-01-22T13:51:02Z</time>
      </trkpt>
      <trkpt lat="44.91775" lon="6.53487">
        <ele>2204.4</ele>
        <time>2011-01-22T13:51:03Z</time>
      </trkpt>
      <trkpt lat="44.91768" lon="6.53467">
        <ele>2207</ele>
        <time>2011-01-22T13:51:07Z</time>
      </trkpt>
      <trkpt lat="44.91759" lon="6.53442">
        <ele>2210.2</ele>
        <time>2011-01-22T13:51:12Z</time>
      </trkpt>
      <trkpt lat="44.91755" lon="6.53432">
        <ele>2211.4</ele>
        <time>2011-01-22T13:51:14Z</time>
      </trkpt>
      <trkpt lat="44.91749" lon="6.53417">
        <ele>2213.2</ele>
        <time>2011-01-22T13:51:17Z</time>
      </trkpt>
      <trkpt lat="44.9174" lon="6.53392">
        <ele>2216.2</ele>
        <time>2011-01-22T13:51:22Z</time>
      </trkpt>
      <trkpt lat="44.91738" lon="6.53387">
        <ele>2216.8</ele>
        <time>2011-01-22T13:51:23Z</time>
      </trkpt>
      <trkpt lat="44.91731" lon="6.53367">
        <ele>2219.4</ele>
        <time>2011-01-22T13:51:27Z</time>
      </trkpt>
      <trkpt lat="44.91727" lon="6.53354">
        <ele>2221.2</ele>
        <time>2011-01-22T13:51:30Z</time>
      </trkpt>
      <trkpt lat="44.91721" lon="6.5334">
        <ele>2223.6</ele>
        <time>2011-01-22T13:51:33Z</time>
      </trkpt>
      <trkpt lat="44.91713" lon="6.53318">
        <ele>2228.4</ele>
        <time>2011-01-22T13:51:38Z</time>
      </trkpt>
      <trkpt lat="44.91712" lon="6.53313">
        <ele>2229.4</ele>
        <time>2011-01-22T13:51:39Z</time>
      </trkpt>
      <trkpt lat="44.91702" lon="6.53287">
        <ele>2236.2</ele>
        <time>2011-01-22T13:51:45Z</time>
      </trkpt>
      <trkpt lat="44.91699" lon="6.53278">
        <ele>2238.6</ele>
        <time>2011-01-22T13:51:47Z</time>
      </trkpt>
      <trkpt lat="44.91694" lon="6.53264">
        <ele>2242.4</ele>
        <time>2011-01-22T13:51:50Z</time>
      </trkpt>
      <trkpt lat="44.91687" lon="6.53246">
        <ele>2247.8</ele>
        <time>2011-01-22T13:51:54Z</time>
      </trkpt>
      <trkpt lat="44.91686" lon="6.53242">
        <ele>2249.2</ele>
        <time>2011-01-22T13:51:55Z</time>
      </trkpt>
      <trkpt lat="44.91677" lon="6.53219">
        <ele>2256.6</ele>
        <time>2011-01-22T13:52:00Z</time>
      </trkpt>
      <trkpt lat="44.91669" lon="6.53197">
        <ele>2264.6</ele>
        <time>2011-01-22T13:52:05Z</time>
      </trkpt>
      <trkpt lat="44.91668" lon="6.53193">
        <ele>2266.2</ele>
        <time>2011-01-22T13:52:06Z</time>
      </trkpt>
      <trkpt lat="44.91658" lon="6.53167">
        <ele>2276.4</ele>
        <time>2011-01-22T13:52:12Z</time>
      </trkpt>
      <trkpt lat="44.91652" lon="6.5315">
        <ele>2283.6</ele>
        <time>2011-01-22T13:52:16Z</time>
      </trkpt>
      <trkpt lat="44.91649" lon="6.53142">
        <ele>2287.4</ele>
        <time>2011-01-22T13:52:18Z</time>
      </trkpt>
      <trkpt lat="44.9164" lon="6.53119">
        <ele>2296.4</ele>
        <time>2011-01-22T13:52:23Z</time>
      </trkpt>
      <trkpt lat="44.91639" lon="6.53115">
        <ele>2298.4</ele>
        <time>2011-01-22T13:52:24Z</time>
      </trkpt>
      <trkpt lat="44.91632" lon="6.53097">
        <ele>2305.8</ele>
        <time>2011-01-22T13:52:28Z</time>
      </trkpt>
      <trkpt lat="44.91625" lon="6.53079">
        <ele>2313.4</ele>
        <time>2011-01-22T13:52:32Z</time>
      </trkpt>
      <trkpt lat="44.91622" lon="6.5307">
        <ele>2317.2</ele>
        <time>2011-01-22T13:52:34Z</time>
      </trkpt>
      <trkpt lat="44.91612" lon="6.53043">
        <ele>2328.8</ele>
        <time>2011-01-22T13:52:40Z</time>
      </trkpt>
      <trkpt lat="44.91602" lon="6.53017">
        <ele>2340.8</ele>
        <time>2011-01-22T13:52:46Z</time>
      </trkpt>
      <trkpt lat="44.91599" lon="6.53009">
        <ele>2344.8</ele>
        <time>2011-01-22T13:52:48Z</time>
      </trkpt>
      <trkpt lat="44.91593" lon="6.52992">
        <ele>2353</ele>
        <time>2011-01-22T13:52:52Z</time>
      </trkpt>
      <trkpt lat="44.91588" lon="6.5298">
        <ele>2359.4</ele>
        <time>2011-01-22T13:52:55Z</time>
      </trkpt>
      <trkpt lat="44.91584" lon="6.52967">
        <ele>2365.6</ele>
        <time>2011-01-22T13:52:58Z</time>
      </trkpt>
      <trkpt lat="44.91574" lon="6.52941">
        <ele>2378.4</ele>
        <time>2011-01-22T13:53:04Z</time>
      </trkpt>
      <trkpt lat="44.91565" lon="6.52917">
        <ele>2388.6</ele>
        <time>2011-01-22T13:53:09Z</time>
      </trkpt>
      <trkpt lat="44.91564" lon="6.52912">
        <ele>2390.6</ele>
        <time>2011-01-22T13:53:10Z</time>
      </trkpt>
      <trkpt lat="44.91557" lon="6.52894">
        <ele>2398.6</ele>
        <time>2011-01-22T13:53:14Z</time>
      </trkpt>
      <trkpt lat="44.91548" lon="6.5287">
        <ele>2408.2</ele>
        <time>2011-01-22T13:53:19Z</time>
      </trkpt>
      <trkpt lat="44.9154" lon="6.52848">
        <ele>2418</ele>
        <time>2011-01-22T13:53:24Z</time>
      </trkpt>
      <trkpt lat="44.91532" lon="6.52825">
        <ele>2427.4</ele>
        <time>2011-01-22T13:53:29Z</time>
      </trkpt>
      <trkpt lat="44.91522" lon="6.52798">
        <ele>2439</ele>
        <time>2011-01-22T13:53:35Z</time>
      </trkpt>
      <trkpt lat="44.91518" lon="6.52789">
        <ele>2443</ele>
        <time>2011-01-22T13:53:37Z</time>
      </trkpt>
      <trkpt lat="44.91514" lon="6.52776">
        <ele>2448.4</ele>
        <time>2011-01-22T13:53:40Z</time>
      </trkpt>
      <trkpt lat="44.91511" lon="6.52767">
        <ele>2452.2</ele>
        <time>2011-01-22T13:53:42Z</time>
      </trkpt>
      <trkpt lat="44.91506" lon="6.52749">
        <ele>2460.4</ele>
        <time>2011-01-22T13:53:47Z</time>
      </trkpt>
      <trkpt lat="44.91504" lon="6.52746">
        <ele>2461.8</ele>
        <time>2011-01-22T13:53:48Z</time>
      </trkpt>
      <trkpt lat="44.91498" lon="6.52736">
        <ele>2463.8</ele>
        <time>2011-01-22T13:53:50Z</time>
      </trkpt>
      <trkpt lat="44.91496" lon="6.52731">
        <ele>2465</ele>
        <time>2011-01-22T13:53:51Z</time>
      </trkpt>
      <trkpt lat="44.91493" lon="6.5272">
        <ele>2467</ele>
        <time>2011-01-22T13:53:53Z</time>
      </trkpt>
      <trkpt lat="44.91494" lon="6.52717">
        <ele>2467.6</ele>
        <time>2011-01-22T13:53:54Z</time>
      </trkpt>
      <trkpt lat="44.91496" lon="6.52715">
        <ele>2470</ele>
        <time>2011-01-22T13:53:57Z</time>
      </trkpt>
      <trkpt lat="44.91496" lon="6.52715">
        <ele>2470.8</ele>
        <time>2011-01-22T13:53:58Z</time>
      </trkpt>
      <trkpt lat="44.91498" lon="6.5271">
        <ele>2477</ele>
        <time>2011-01-22T13:54:07Z</time>
      </trkpt>
      <trkpt lat="44.915" lon="6.5271">
        <ele>2481</ele>
        <time>2011-01-22T13:54:16Z</time>
      </trkpt>
      <trkpt lat="44.91502" lon="6.52709">
        <ele>2486.6</ele>
        <time>2011-01-22T13:54:37Z</time>
      </trkpt>
      <trkpt lat="44.91502" lon="6.52709">
        <ele>2488</ele>
        <time>2011-01-22T13:54:48Z</time>
      </trkpt>
      <trkpt lat="44.91501" lon="6.52709">
        <ele>2489</ele>
        <time>2011-01-22T13:54:59Z</time>
      </trkpt>
      <trkpt lat="44.915" lon="6.52697">
        <ele>2492.6</ele>
        <time>2011-01-22T13:56:03Z</time>
      </trkpt>
      <trkpt lat="44.915" lon="6.52689">
        <ele>2492.6</ele>
        <time>2011-01-22T13:56:05Z</time>
      </trkpt>
      <trkpt lat="44.91502" lon="6.52676">
        <ele>2492.6</ele>
        <time>2011-01-22T13:56:07Z</time>
      </trkpt>
      <trkpt lat="44.91504" lon="6.52658">
        <ele>2492.4</ele>
        <time>2011-01-22T13:56:09Z</time>
      </trkpt>
      <trkpt lat="44.91506" lon="6.52647">
        <ele>2492.2</ele>
        <time>2011-01-22T13:56:10Z</time>
      </trkpt>
      <trkpt lat="44.91508" lon="6.52635">
        <ele>2492.2</ele>
        <time>2011-01-22T13:56:11Z</time>
      </trkpt>
      <trkpt lat="44.91513" lon="6.52608">
        <ele>2492</ele>
        <time>2011-01-22T13:56:13Z</time>
      </trkpt>
      <trkpt lat="44.91518" lon="6.52583">
        <ele>2491.8</ele>
        <time>2011-01-22T13:56:15Z</time>
      </trkpt>
      <trkpt lat="44.91523" lon="6.52559">
        <ele>2491.4</ele>
        <time>2011-01-22T13:56:17Z</time>
      </trkpt>
      <trkpt lat="44.91532" lon="6.52525">
        <ele>2491</ele>
        <time>2011-01-22T13:56:20Z</time>
      </trkpt>
      <trkpt lat="44.91535" lon="6.52514">
        <ele>2491</ele>
        <time>2011-01-22T13:56:21Z</time>
      </trkpt>
      <trkpt lat="44.91538" lon="6.52503">
        <ele>2490.8</ele>
        <time>2011-01-22T13:56:22Z</time>
      </trkpt>
      <trkpt lat="44.91545" lon="6.52475">
        <ele>2490.2</ele>
        <time>2011-01-22T13:56:24Z</time>
      </trkpt>
      <trkpt lat="44.9155" lon="6.52461">
        <ele>2490</ele>
        <time>2011-01-22T13:56:25Z</time>
      </trkpt>
      <trkpt lat="44.91557" lon="6.52447">
        <ele>2489.8</ele>
        <time>2011-01-22T13:56:26Z</time>
      </trkpt>
      <trkpt lat="44.91578" lon="6.52424">
        <ele>2489.2</ele>
        <time>2011-01-22T13:56:28Z</time>
      </trkpt>
      <trkpt lat="44.916" lon="6.52408">
        <ele>2488.6</ele>
        <time>2011-01-22T13:56:30Z</time>
      </trkpt>
      <trkpt lat="44.91612" lon="6.52401">
        <ele>2488.2</ele>
        <time>2011-01-22T13:56:31Z</time>
      </trkpt>
      <trkpt lat="44.91623" lon="6.52394">
        <ele>2487.8</ele>
        <time>2011-01-22T13:56:32Z</time>
      </trkpt>
      <trkpt lat="44.91644" lon="6.52378">
        <ele>2487.2</ele>
        <time>2011-01-22T13:56:34Z</time>
      </trkpt>
      <trkpt lat="44.91663" lon="6.52358">
        <ele>2486.4</ele>
        <time>2011-01-22T13:56:36Z</time>
      </trkpt>
      <trkpt lat="44.91672" lon="6.52347">
        <ele>2485.8</ele>
        <time>2011-01-22T13:56:37Z</time>
      </trkpt>
      <trkpt lat="44.91682" lon="6.52336">
        <ele>2485.2</ele>
        <time>2011-01-22T13:56:38Z</time>
      </trkpt>
      <trkpt lat="44.91695" lon="6.52328">
        <ele>2484.6</ele>
        <time>2011-01-22T13:56:39Z</time>
      </trkpt>
      <trkpt lat="44.91707" lon="6.52326">
        <ele>2484</ele>
        <time>2011-01-22T13:56:40Z</time>
      </trkpt>
      <trkpt lat="44.91728" lon="6.52327">
        <ele>2482.8</ele>
        <time>2011-01-22T13:56:42Z</time>
      </trkpt>
      <trkpt lat="44.91736" lon="6.52334">
        <ele>2482.2</ele>
        <time>2011-01-22T13:56:43Z</time>
      </trkpt>
      <trkpt lat="44.91749" lon="6.52339">
        <ele>2480.8</ele>
        <time>2011-01-22T13:56:45Z</time>
      </trkpt>
      <trkpt lat="44.91755" lon="6.52343">
        <ele>2480.2</ele>
        <time>2011-01-22T13:56:46Z</time>
      </trkpt>
      <trkpt lat="44.91765" lon="6.52341">
        <ele>2478</ele>
        <time>2011-01-22T13:56:49Z</time>
      </trkpt>
      <trkpt lat="44.91779" lon="6.52328">
        <ele>2476.4</ele>
        <time>2011-01-22T13:56:51Z</time>
      </trkpt>
      <trkpt lat="44.91788" lon="6.52329">
        <ele>2475.6</ele>
        <time>2011-01-22T13:56:52Z</time>
      </trkpt>
      <trkpt lat="44.91798" lon="6.52331">
        <ele>2474.8</ele>
        <time>2011-01-22T13:56:53Z</time>
      </trkpt>
      <trkpt lat="44.91808" lon="6.52335">
        <ele>2474</ele>
        <time>2011-01-22T13:56:54Z</time>
      </trkpt>
      <trkpt lat="44.91818" lon="6.5234">
        <ele>2473</ele>
        <time>2011-01-22T13:56:55Z</time>
      </trkpt>
      <trkpt lat="44.91845" lon="6.52352">
        <ele>2471</ele>
        <time>2011-01-22T13:56:57Z</time>
      </trkpt>
      <trkpt lat="44.91874" lon="6.52365">
        <ele>2469</ele>
        <time>2011-01-22T13:56:59Z</time>
      </trkpt>
      <trkpt lat="44.9189" lon="6.5237">
        <ele>2468</ele>
        <time>2011-01-22T13:57:00Z</time>
      </trkpt>
      <trkpt lat="44.91907" lon="6.52377">
        <ele>2467</ele>
        <time>2011-01-22T13:57:01Z</time>
      </trkpt>
      <trkpt lat="44.91925" lon="6.52386">
        <ele>2465.8</ele>
        <time>2011-01-22T13:57:02Z</time>
      </trkpt>
      <trkpt lat="44.91944" lon="6.52397">
        <ele>2464.4</ele>
        <time>2011-01-22T13:57:03Z</time>
      </trkpt>
      <trkpt lat="44.91963" lon="6.52413">
        <ele>2463.2</ele>
        <time>2011-01-22T13:57:04Z</time>
      </trkpt>
      <trkpt lat="44.91978" lon="6.52431">
        <ele>2462</ele>
        <time>2011-01-22T13:57:05Z</time>
      </trkpt>
      <trkpt lat="44.91996" lon="6.52468">
        <ele>2459.4</ele>
        <time>2011-01-22T13:57:07Z</time>
      </trkpt>
      <trkpt lat="44.92004" lon="6.52478">
        <ele>2458</ele>
        <time>2011-01-22T13:57:08Z</time>
      </trkpt>
      <trkpt lat="44.92011" lon="6.52487">
        <ele>2456.6</ele>
        <time>2011-01-22T13:57:09Z</time>
      </trkpt>
      <trkpt lat="44.92018" lon="6.52495">
        <ele>2455.4</ele>
        <time>2011-01-22T13:57:10Z</time>
      </trkpt>
      <trkpt lat="44.92024" lon="6.52506">
        <ele>2453.8</ele>
        <time>2011-01-22T13:57:11Z</time>
      </trkpt>
      <trkpt lat="44.9203" lon="6.5252">
        <ele>2452.4</ele>
        <time>2011-01-22T13:57:12Z</time>
      </trkpt>
      <trkpt lat="44.92046" lon="6.52556">
        <ele>2449.4</ele>
        <time>2011-01-22T13:57:14Z</time>
      </trkpt>
      <trkpt lat="44.92055" lon="6.52579">
        <ele>2447.8</ele>
        <time>2011-01-22T13:57:15Z</time>
      </trkpt>
      <trkpt lat="44.92065" lon="6.52604">
        <ele>2446.2</ele>
        <time>2011-01-22T13:57:16Z</time>
      </trkpt>
      <trkpt lat="44.92076" lon="6.52628">
        <ele>2444.6</ele>
        <time>2011-01-22T13:57:17Z</time>
      </trkpt>
      <trkpt lat="44.92087" lon="6.52651">
        <ele>2443</ele>
        <time>2011-01-22T13:57:18Z</time>
      </trkpt>
      <trkpt lat="44.92098" lon="6.52674">
        <ele>2441.4</ele>
        <time>2011-01-22T13:57:19Z</time>
      </trkpt>
      <trkpt lat="44.9211" lon="6.52697">
        <ele>2439.6</ele>
        <time>2011-01-22T13:57:20Z</time>
      </trkpt>
      <trkpt lat="44.92123" lon="6.5272">
        <ele>2438</ele>
        <time>2011-01-22T13:57:21Z</time>
      </trkpt>
      <trkpt lat="44.92135" lon="6.52743">
        <ele>2436.2</ele>
        <time>2011-01-22T13:57:22Z</time>
      </trkpt>
      <trkpt lat="44.92147" lon="6.52765">
        <ele>2434.6</ele>
        <time>2011-01-22T13:57:23Z</time>
      </trkpt>
      <trkpt lat="44.92159" lon="6.52788">
        <ele>2432.8</ele>
        <time>2011-01-22T13:57:24Z</time>
      </trkpt>
      <trkpt lat="44.9217" lon="6.52809">
        <ele>2431</ele>
        <time>2011-01-22T13:57:25Z</time>
      </trkpt>
      <trkpt lat="44.92188" lon="6.5285">
        <ele>2427.6</ele>
        <time>2011-01-22T13:57:27Z</time>
      </trkpt>
      <trkpt lat="44.92201" lon="6.52885">
        <ele>2424</ele>
        <time>2011-01-22T13:57:29Z</time>
      </trkpt>
      <trkpt lat="44.92206" lon="6.52901">
        <ele>2422.4</ele>
        <time>2011-01-22T13:57:30Z</time>
      </trkpt>
      <trkpt lat="44.92215" lon="6.52933">
        <ele>2420.6</ele>
        <time>2011-01-22T13:57:31Z</time>
      </trkpt>
      <trkpt lat="44.92219" lon="6.52949">
        <ele>2417</ele>
        <time>2011-01-22T13:57:33Z</time>
      </trkpt>
      <trkpt lat="44.92224" lon="6.52966">
        <ele>2415.2</ele>
        <time>2011-01-22T13:57:34Z</time>
      </trkpt>
      <trkpt lat="44.92229" lon="6.52984">
        <ele>2413.2</ele>
        <time>2011-01-22T13:57:35Z</time>
      </trkpt>
      <trkpt lat="44.92235" lon="6.53003">
        <ele>2411.2</ele>
        <time>2011-01-22T13:57:36Z</time>
      </trkpt>
      <trkpt lat="44.92245" lon="6.53025">
        <ele>2409.4</ele>
        <time>2011-01-22T13:57:37Z</time>
      </trkpt>
      <trkpt lat="44.92263" lon="6.53065">
        <ele>2405.4</ele>
        <time>2011-01-22T13:57:39Z</time>
      </trkpt>
      <trkpt lat="44.92267" lon="6.53085">
        <ele>2403.4</ele>
        <time>2011-01-22T13:57:40Z</time>
      </trkpt>
      <trkpt lat="44.92274" lon="6.53105">
        <ele>2401.4</ele>
        <time>2011-01-22T13:57:41Z</time>
      </trkpt>
      <trkpt lat="44.92283" lon="6.5317">
        <ele>2397.2</ele>
        <time>2011-01-22T13:57:43Z</time>
      </trkpt>
      <trkpt lat="44.92283" lon="6.5317">
        <ele>2395.2</ele>
        <time>2011-01-22T13:57:44Z</time>
      </trkpt>
      <trkpt lat="44.92282" lon="6.5319">
        <ele>2393.2</ele>
        <time>2011-01-22T13:57:45Z</time>
      </trkpt>
      <trkpt lat="44.92288" lon="6.53231">
        <ele>2391.2</ele>
        <time>2011-01-22T13:57:46Z</time>
      </trkpt>
      <trkpt lat="44.92288" lon="6.53231">
        <ele>2389.2</ele>
        <time>2011-01-22T13:57:47Z</time>
      </trkpt>
      <trkpt lat="44.92303" lon="6.53282">
        <ele>2385</ele>
        <time>2011-01-22T13:57:49Z</time>
      </trkpt>
      <trkpt lat="44.92303" lon="6.53282">
        <ele>2382.8</ele>
        <time>2011-01-22T13:57:50Z</time>
      </trkpt>
      <trkpt lat="44.92307" lon="6.533">
        <ele>2380.6</ele>
        <time>2011-01-22T13:57:51Z</time>
      </trkpt>
      <trkpt lat="44.9232" lon="6.53364">
        <ele>2376.2</ele>
        <time>2011-01-22T13:57:53Z</time>
      </trkpt>
      <trkpt lat="44.9232" lon="6.53364">
        <ele>2374</ele>
        <time>2011-01-22T13:57:54Z</time>
      </trkpt>
      <trkpt lat="44.92332" lon="6.5341">
        <ele>2371.8</ele>
        <time>2011-01-22T13:57:55Z</time>
      </trkpt>
      <trkpt lat="44.92339" lon="6.53432">
        <ele>2367.4</ele>
        <time>2011-01-22T13:57:57Z</time>
      </trkpt>
      <trkpt lat="44.92357" lon="6.53471">
        <ele>2365.2</ele>
        <time>2011-01-22T13:57:58Z</time>
      </trkpt>
      <trkpt lat="44.92357" lon="6.53471">
        <ele>2362.8</ele>
        <time>2011-01-22T13:57:59Z</time>
      </trkpt>
      <trkpt lat="44.92382" lon="6.53501">
        <ele>2360.6</ele>
        <time>2011-01-22T13:58:00Z</time>
      </trkpt>
      <trkpt lat="44.92395" lon="6.53516">
        <ele>2358.2</ele>
        <time>2011-01-22T13:58:01Z</time>
      </trkpt>
      <trkpt lat="44.92395" lon="6.53516">
        <ele>2356</ele>
        <time>2011-01-22T13:58:02Z</time>
      </trkpt>
      <trkpt lat="44.92406" lon="6.53532">
        <ele>2353.6</ele>
        <time>2011-01-22T13:58:03Z</time>
      </trkpt>
      <trkpt lat="44.92427" lon="6.53563">
        <ele>2349.2</ele>
        <time>2011-01-22T13:58:05Z</time>
      </trkpt>
      <trkpt lat="44.92448" lon="6.53592">
        <ele>2347</ele>
        <time>2011-01-22T13:58:06Z</time>
      </trkpt>
      <trkpt lat="44.92448" lon="6.53592">
        <ele>2344.8</ele>
        <time>2011-01-22T13:58:07Z</time>
      </trkpt>
      <trkpt lat="44.92469" lon="6.53618">
        <ele>2340.2</ele>
        <time>2011-01-22T13:58:09Z</time>
      </trkpt>
      <trkpt lat="44.92499" lon="6.53656">
        <ele>2335.8</ele>
        <time>2011-01-22T13:58:11Z</time>
      </trkpt>
      <trkpt lat="44.92508" lon="6.53668">
        <ele>2333.6</ele>
        <time>2011-01-22T13:58:12Z</time>
      </trkpt>
      <trkpt lat="44.92518" lon="6.53679">
        <ele>2331.2</ele>
        <time>2011-01-22T13:58:13Z</time>
      </trkpt>
      <trkpt lat="44.92518" lon="6.53679">
        <ele>2329</ele>
        <time>2011-01-22T13:58:14Z</time>
      </trkpt>
      <trkpt lat="44.92529" lon="6.53687">
        <ele>2326.8</ele>
        <time>2011-01-22T13:58:15Z</time>
      </trkpt>
      <trkpt lat="44.92549" lon="6.53704">
        <ele>2322.4</ele>
        <time>2011-01-22T13:58:17Z</time>
      </trkpt>
      <trkpt lat="44.92571" lon="6.53723">
        <ele>2318</ele>
        <time>2011-01-22T13:58:19Z</time>
      </trkpt>
      <trkpt lat="44.92573" lon="6.53725">
        <ele>2313.4</ele>
        <time>2011-01-22T13:58:21Z</time>
      </trkpt>
      <trkpt lat="44.92573" lon="6.53727">
        <ele>2311.4</ele>
        <time>2011-01-22T13:58:22Z</time>
      </trkpt>
      <trkpt lat="44.92573" lon="6.53726">
        <ele>2303.2</ele>
        <time>2011-01-22T13:58:26Z</time>
      </trkpt>
      <trkpt lat="44.92573" lon="6.5372">
        <ele>2146.2</ele>
        <time>2011-01-22T14:00:41Z</time>
      </trkpt>
      <trkpt lat="44.92573" lon="6.53731">
        <ele>2143.4</ele>
        <time>2011-01-22T14:00:46Z</time>
      </trkpt>
      <trkpt lat="44.92577" lon="6.53743">
        <ele>2142.2</ele>
        <time>2011-01-22T14:00:48Z</time>
      </trkpt>
      <trkpt lat="44.92583" lon="6.53756">
        <ele>2141</ele>
        <time>2011-01-22T14:00:50Z</time>
      </trkpt>
      <trkpt lat="44.92591" lon="6.53769">
        <ele>2139.8</ele>
        <time>2011-01-22T14:00:52Z</time>
      </trkpt>
      <trkpt lat="44.92606" lon="6.53792">
        <ele>2138</ele>
        <time>2011-01-22T14:00:55Z</time>
      </trkpt>
      <trkpt lat="44.92612" lon="6.53801">
        <ele>2137.4</ele>
        <time>2011-01-22T14:00:56Z</time>
      </trkpt>
      <trkpt lat="44.92626" lon="6.53818">
        <ele>2136.2</ele>
        <time>2011-01-22T14:00:58Z</time>
      </trkpt>
      <trkpt lat="44.92642" lon="6.53836">
        <ele>2134.8</ele>
        <time>2011-01-22T14:01:00Z</time>
      </trkpt>
      <trkpt lat="44.92649" lon="6.53846">
        <ele>2134.2</ele>
        <time>2011-01-22T14:01:01Z</time>
      </trkpt>
      <trkpt lat="44.92657" lon="6.53855">
        <ele>2133.6</ele>
        <time>2011-01-22T14:01:02Z</time>
      </trkpt>
      <trkpt lat="44.92674" lon="6.53869">
        <ele>2132.2</ele>
        <time>2011-01-22T14:01:04Z</time>
      </trkpt>
      <trkpt lat="44.92689" lon="6.53891">
        <ele>2130.2</ele>
        <time>2011-01-22T14:01:07Z</time>
      </trkpt>
      <trkpt lat="44.92697" lon="6.53901">
        <ele>2128.4</ele>
        <time>2011-01-22T14:01:10Z</time>
      </trkpt>
      <trkpt lat="44.92698" lon="6.53905">
        <ele>2126.4</ele>
        <time>2011-01-22T14:01:13Z</time>
      </trkpt>
      <trkpt lat="44.92698" lon="6.53906">
        <ele>2125.8</ele>
        <time>2011-01-22T14:01:14Z</time>
      </trkpt>
      <trkpt lat="44.92695" lon="6.53909">
        <ele>2119.8</ele>
        <time>2011-01-22T14:01:25Z</time>
      </trkpt>
      <trkpt lat="44.92694" lon="6.53909">
        <ele>2118.6</ele>
        <time>2011-01-22T14:01:27Z</time>
      </trkpt>
      <trkpt lat="44.92692" lon="6.53909">
        <ele>2117.2</ele>
        <time>2011-01-22T14:01:30Z</time>
      </trkpt>
      <trkpt lat="44.9269" lon="6.53908">
        <ele>2113.8</ele>
        <time>2011-01-22T14:01:37Z</time>
      </trkpt>
      <trkpt lat="44.92687" lon="6.53906">
        <ele>2109.4</ele>
        <time>2011-01-22T14:01:47Z</time>
      </trkpt>
      <trkpt lat="44.9268" lon="6.53899">
        <ele>2106.6</ele>
        <time>2011-01-22T14:01:54Z</time>
      </trkpt>
      <trkpt lat="44.92676" lon="6.53896">
        <ele>2106.4</ele>
        <time>2011-01-22T14:01:55Z</time>
      </trkpt>
      <trkpt lat="44.92673" lon="6.53894">
        <ele>2105.6</ele>
        <time>2011-01-22T14:01:57Z</time>
      </trkpt>
      <trkpt lat="44.92657" lon="6.53886">
        <ele>2104.4</ele>
        <time>2011-01-22T14:02:01Z</time>
      </trkpt>
      <trkpt lat="44.9264" lon="6.53876">
        <ele>2103</ele>
        <time>2011-01-22T14:02:06Z</time>
      </trkpt>
      <trkpt lat="44.92623" lon="6.53867">
        <ele>2101.8</ele>
        <time>2011-01-22T14:02:11Z</time>
      </trkpt>
      <trkpt lat="44.92604" lon="6.53856">
        <ele>2100.6</ele>
        <time>2011-01-22T14:02:17Z</time>
      </trkpt>
      <trkpt lat="44.92585" lon="6.53846">
        <ele>2099.8</ele>
        <time>2011-01-22T14:02:23Z</time>
      </trkpt>
      <trkpt lat="44.92575" lon="6.53841">
        <ele>2099.6</ele>
        <time>2011-01-22T14:02:26Z</time>
      </trkpt>
      <trkpt lat="44.92565" lon="6.53836">
        <ele>2099.4</ele>
        <time>2011-01-22T14:02:29Z</time>
      </trkpt>
      <trkpt lat="44.92546" lon="6.53825">
        <ele>2099.4</ele>
        <time>2011-01-22T14:02:35Z</time>
      </trkpt>
      <trkpt lat="44.92543" lon="6.53823">
        <ele>2099.4</ele>
        <time>2011-01-22T14:02:36Z</time>
      </trkpt>
      <trkpt lat="44.92527" lon="6.53815">
        <ele>2099.8</ele>
        <time>2011-01-22T14:02:41Z</time>
      </trkpt>
      <trkpt lat="44.92507" lon="6.53804">
        <ele>2101</ele>
        <time>2011-01-22T14:02:47Z</time>
      </trkpt>
      <trkpt lat="44.92504" lon="6.53803">
        <ele>2101.2</ele>
        <time>2011-01-22T14:02:48Z</time>
      </trkpt>
      <trkpt lat="44.92488" lon="6.53794">
        <ele>2102.8</ele>
        <time>2011-01-22T14:02:53Z</time>
      </trkpt>
      <trkpt lat="44.92472" lon="6.53785">
        <ele>2105</ele>
        <time>2011-01-22T14:02:58Z</time>
      </trkpt>
      <trkpt lat="44.92469" lon="6.53783">
        <ele>2105.4</ele>
        <time>2011-01-22T14:02:59Z</time>
      </trkpt>
      <trkpt lat="44.92449" lon="6.53772">
        <ele>2108.6</ele>
        <time>2011-01-22T14:03:05Z</time>
      </trkpt>
      <trkpt lat="44.92439" lon="6.53767">
        <ele>2110.2</ele>
        <time>2011-01-22T14:03:08Z</time>
      </trkpt>
      <trkpt lat="44.9243" lon="6.53762">
        <ele>2112.2</ele>
        <time>2011-01-22T14:03:11Z</time>
      </trkpt>
      <trkpt lat="44.92411" lon="6.53752">
        <ele>2116.2</ele>
        <time>2011-01-22T14:03:17Z</time>
      </trkpt>
      <trkpt lat="44.92391" lon="6.53741">
        <ele>2120.6</ele>
        <time>2011-01-22T14:03:23Z</time>
      </trkpt>
      <trkpt lat="44.92376" lon="6.53733">
        <ele>2124.8</ele>
        <time>2011-01-22T14:03:28Z</time>
      </trkpt>
      <trkpt lat="44.92373" lon="6.53731">
        <ele>2125.6</ele>
        <time>2011-01-22T14:03:29Z</time>
      </trkpt>
      <trkpt lat="44.92354" lon="6.53721">
        <ele>2131</ele>
        <time>2011-01-22T14:03:35Z</time>
      </trkpt>
      <trkpt lat="44.92348" lon="6.53718">
        <ele>2133</ele>
        <time>2011-01-22T14:03:37Z</time>
      </trkpt>
      <trkpt lat="44.92336" lon="6.53711">
        <ele>2137</ele>
        <time>2011-01-22T14:03:41Z</time>
      </trkpt>
      <trkpt lat="44.92331" lon="6.53708">
        <ele>2139.2</ele>
        <time>2011-01-22T14:03:43Z</time>
      </trkpt>
      <trkpt lat="44.92319" lon="6.53701">
        <ele>2144</ele>
        <time>2011-01-22T14:03:47Z</time>
      </trkpt>
      <trkpt lat="44.923" lon="6.5369">
        <ele>2151.4</ele>
        <time>2011-01-22T14:03:53Z</time>
      </trkpt>
      <trkpt lat="44.92297" lon="6.53689">
        <ele>2152.6</ele>
        <time>2011-01-22T14:03:54Z</time>
      </trkpt>
      <trkpt lat="44.92282" lon="6.53681">
        <ele>2159.2</ele>
        <time>2011-01-22T14:03:59Z</time>
      </trkpt>
      <trkpt lat="44.9227" lon="6.53674">
        <ele>2164.6</ele>
        <time>2011-01-22T14:04:03Z</time>
      </trkpt>
      <trkpt lat="44.92264" lon="6.5367">
        <ele>2167.4</ele>
        <time>2011-01-22T14:04:05Z</time>
      </trkpt>
      <trkpt lat="44.92245" lon="6.53658">
        <ele>2175.4</ele>
        <time>2011-01-22T14:04:11Z</time>
      </trkpt>
      <trkpt lat="44.92242" lon="6.53655">
        <ele>2176.8</ele>
        <time>2011-01-22T14:04:12Z</time>
      </trkpt>
      <trkpt lat="44.9223" lon="6.53639">
        <ele>2183.2</ele>
        <time>2011-01-22T14:04:17Z</time>
      </trkpt>
      <trkpt lat="44.92217" lon="6.53624">
        <ele>2189.6</ele>
        <time>2011-01-22T14:04:22Z</time>
      </trkpt>
      <trkpt lat="44.92214" lon="6.53621">
        <ele>2191</ele>
        <time>2011-01-22T14:04:23Z</time>
      </trkpt>
      <trkpt lat="44.92198" lon="6.53603">
        <ele>2198.6</ele>
        <time>2011-01-22T14:04:29Z</time>
      </trkpt>
      <trkpt lat="44.92193" lon="6.53597">
        <ele>2201.2</ele>
        <time>2011-01-22T14:04:31Z</time>
      </trkpt>
      <trkpt lat="44.92182" lon="6.53585">
        <ele>2206.2</ele>
        <time>2011-01-22T14:04:35Z</time>
      </trkpt>
      <trkpt lat="44.92174" lon="6.53576">
        <ele>2209.8</ele>
        <time>2011-01-22T14:04:38Z</time>
      </trkpt>
      <trkpt lat="44.92166" lon="6.53568">
        <ele>2213.4</ele>
        <time>2011-01-22T14:04:41Z</time>
      </trkpt>
      <trkpt lat="44.92153" lon="6.53553">
        <ele>2219.2</ele>
        <time>2011-01-22T14:04:46Z</time>
      </trkpt>
      <trkpt lat="44.92151" lon="6.5355">
        <ele>2220.2</ele>
        <time>2011-01-22T14:04:47Z</time>
      </trkpt>
      <trkpt lat="44.92135" lon="6.53532">
        <ele>2226.8</ele>
        <time>2011-01-22T14:04:53Z</time>
      </trkpt>
      <trkpt lat="44.92127" lon="6.53523">
        <ele>2230</ele>
        <time>2011-01-22T14:04:56Z</time>
      </trkpt>
      <trkpt lat="44.92119" lon="6.53514">
        <ele>2233.2</ele>
        <time>2011-01-22T14:04:59Z</time>
      </trkpt>
      <trkpt lat="44.92102" lon="6.53496">
        <ele>2239.4</ele>
        <time>2011-01-22T14:05:05Z</time>
      </trkpt>
      <trkpt lat="44.92099" lon="6.53494">
        <ele>2240.4</ele>
        <time>2011-01-22T14:05:06Z</time>
      </trkpt>
      <trkpt lat="44.92086" lon="6.5348">
        <ele>2245.2</ele>
        <time>2011-01-22T14:05:11Z</time>
      </trkpt>
      <trkpt lat="44.92078" lon="6.5347">
        <ele>2248</ele>
        <time>2011-01-22T14:05:14Z</time>
      </trkpt>
      <trkpt lat="44.9207" lon="6.53461">
        <ele>2250.8</ele>
        <time>2011-01-22T14:05:17Z</time>
      </trkpt>
      <trkpt lat="44.92054" lon="6.53442">
        <ele>2256</ele>
        <time>2011-01-22T14:05:23Z</time>
      </trkpt>
      <trkpt lat="44.92046" lon="6.53433">
        <ele>2258.6</ele>
        <time>2011-01-22T14:05:26Z</time>
      </trkpt>
      <trkpt lat="44.92037" lon="6.53423">
        <ele>2261</ele>
        <time>2011-01-22T14:05:29Z</time>
      </trkpt>
      <trkpt lat="44.92023" lon="6.53407">
        <ele>2265</ele>
        <time>2011-01-22T14:05:34Z</time>
      </trkpt>
      <trkpt lat="44.92018" lon="6.53388">
        <ele>2268</ele>
        <time>2011-01-22T14:05:38Z</time>
      </trkpt>
      <trkpt lat="44.92016" lon="6.53379">
        <ele>2269.4</ele>
        <time>2011-01-22T14:05:40Z</time>
      </trkpt>
      <trkpt lat="44.92012" lon="6.53359">
        <ele>2273.4</ele>
        <time>2011-01-22T14:05:45Z</time>
      </trkpt>
      <trkpt lat="44.92009" lon="6.53349">
        <ele>2274</ele>
        <time>2011-01-22T14:05:46Z</time>
      </trkpt>
      <trkpt lat="44.92008" lon="6.53344">
        <ele>2274.8</ele>
        <time>2011-01-22T14:05:47Z</time>
      </trkpt>
      <trkpt lat="44.92002" lon="6.53321">
        <ele>2278.4</ele>
        <time>2011-01-22T14:05:52Z</time>
      </trkpt>
      <trkpt lat="44.92" lon="6.53312">
        <ele>2280</ele>
        <time>2011-01-22T14:05:54Z</time>
      </trkpt>
      <trkpt lat="44.91995" lon="6.53294">
        <ele>2283</ele>
        <time>2011-01-22T14:05:58Z</time>
      </trkpt>
      <trkpt lat="44.9199" lon="6.53275">
        <ele>2286.6</ele>
        <time>2011-01-22T14:06:03Z</time>
      </trkpt>
      <trkpt lat="44.91988" lon="6.53266">
        <ele>2287.4</ele>
        <time>2011-01-22T14:06:04Z</time>
      </trkpt>
      <trkpt lat="44.91981" lon="6.53242">
        <ele>2290.6</ele>
        <time>2011-01-22T14:06:09Z</time>
      </trkpt>
      <trkpt lat="44.9198" lon="6.53237">
        <ele>2291.4</ele>
        <time>2011-01-22T14:06:10Z</time>
      </trkpt>
      <trkpt lat="44.91975" lon="6.53217">
        <ele>2294.4</ele>
        <time>2011-01-22T14:06:15Z</time>
      </trkpt>
      <trkpt lat="44.91968" lon="6.53189">
        <ele>2298.4</ele>
        <time>2011-01-22T14:06:21Z</time>
      </trkpt>
      <trkpt lat="44.91963" lon="6.53166">
        <ele>2303.4</ele>
        <time>2011-01-22T14:06:27Z</time>
      </trkpt>
      <trkpt lat="44.91956" lon="6.53135">
        <ele>2309</ele>
        <time>2011-01-22T14:06:33Z</time>
      </trkpt>
      <trkpt lat="44.91953" lon="6.53125">
        <ele>2311</ele>
        <time>2011-01-22T14:06:35Z</time>
      </trkpt>
      <trkpt lat="44.91948" lon="6.53107">
        <ele>2314.6</ele>
        <time>2011-01-22T14:06:39Z</time>
      </trkpt>
      <trkpt lat="44.91943" lon="6.53089">
        <ele>2318.2</ele>
        <time>2011-01-22T14:06:43Z</time>
      </trkpt>
      <trkpt lat="44.9194" lon="6.5308">
        <ele>2319.8</ele>
        <time>2011-01-22T14:06:45Z</time>
      </trkpt>
      <trkpt lat="44.91934" lon="6.53056">
        <ele>2324.8</ele>
        <time>2011-01-22T14:06:51Z</time>
      </trkpt>
      <trkpt lat="44.9193" lon="6.53043">
        <ele>2326.4</ele>
        <time>2011-01-22T14:06:53Z</time>
      </trkpt>
      <trkpt lat="44.91924" lon="6.53034">
        <ele>2328.4</ele>
        <time>2011-01-22T14:06:56Z</time>
      </trkpt>
      <trkpt lat="44.91922" lon="6.53034">
        <ele>2329</ele>
        <time>2011-01-22T14:06:57Z</time>
      </trkpt>
      <trkpt lat="44.91921" lon="6.53034">
        <ele>2331.8</ele>
        <time>2011-01-22T14:07:02Z</time>
      </trkpt>
      <trkpt lat="44.91922" lon="6.53039">
        <ele>2339.6</ele>
        <time>2011-01-22T14:07:26Z</time>
      </trkpt>
      <trkpt lat="44.91922" lon="6.5304">
        <ele>2344.2</ele>
        <time>2011-01-22T14:08:06Z</time>
      </trkpt>
      <trkpt lat="44.91923" lon="6.53047">
        <ele>2346.8</ele>
        <time>2011-01-22T14:10:43Z</time>
      </trkpt>
      <trkpt lat="44.91927" lon="6.53059">
        <ele>2346.6</ele>
        <time>2011-01-22T14:10:47Z</time>
      </trkpt>
      <trkpt lat="44.91931" lon="6.53066">
        <ele>2346.6</ele>
        <time>2011-01-22T14:10:49Z</time>
      </trkpt>
      <trkpt lat="44.91939" lon="6.53083">
        <ele>2346.4</ele>
        <time>2011-01-22T14:10:53Z</time>
      </trkpt>
      <trkpt lat="44.91941" lon="6.53089">
        <ele>2346.4</ele>
        <time>2011-01-22T14:10:54Z</time>
      </trkpt>
      <trkpt lat="44.91948" lon="6.53099">
        <ele>2346.2</ele>
        <time>2011-01-22T14:10:57Z</time>
      </trkpt>
      <trkpt lat="44.91955" lon="6.53113">
        <ele>2346</ele>
        <time>2011-01-22T14:10:58Z</time>
      </trkpt>
      <trkpt lat="44.91961" lon="6.53129">
        <ele>2345.6</ele>
        <time>2011-01-22T14:11:00Z</time>
      </trkpt>
      <trkpt lat="44.91968" lon="6.53158">
        <ele>2345</ele>
        <time>2011-01-22T14:11:03Z</time>
      </trkpt>
      <trkpt lat="44.91971" lon="6.5317">
        <ele>2344.8</ele>
        <time>2011-01-22T14:11:04Z</time>
      </trkpt>
      <trkpt lat="44.91975" lon="6.53183">
        <ele>2344.6</ele>
        <time>2011-01-22T14:11:05Z</time>
      </trkpt>
      <trkpt lat="44.91982" lon="6.53208">
        <ele>2343.8</ele>
        <time>2011-01-22T14:11:07Z</time>
      </trkpt>
      <trkpt lat="44.91986" lon="6.53222">
        <ele>2343.6</ele>
        <time>2011-01-22T14:11:08Z</time>
      </trkpt>
      <trkpt lat="44.91986" lon="6.53222">
        <ele>2343.2</ele>
        <time>2011-01-22T14:11:09Z</time>
      </trkpt>
      <trkpt lat="44.91995" lon="6.53265">
        <ele>2342.2</ele>
        <time>2011-01-22T14:11:12Z</time>
      </trkpt>
      <trkpt lat="44.92" lon="6.53281">
        <ele>2341.4</ele>
        <time>2011-01-22T14:11:14Z</time>
      </trkpt>
      <trkpt lat="44.92" lon="6.53281">
        <ele>2341</ele>
        <time>2011-01-22T14:11:15Z</time>
      </trkpt>
      <trkpt lat="44.92005" lon="6.53296">
        <ele>2340.6</ele>
        <time>2011-01-22T14:11:16Z</time>
      </trkpt>
      <trkpt lat="44.92008" lon="6.53305">
        <ele>2340.2</ele>
        <time>2011-01-22T14:11:17Z</time>
      </trkpt>
      <trkpt lat="44.92011" lon="6.53315">
        <ele>2339.8</ele>
        <time>2011-01-22T14:11:18Z</time>
      </trkpt>
      <trkpt lat="44.92014" lon="6.53325">
        <ele>2339.4</ele>
        <time>2011-01-22T14:11:19Z</time>
      </trkpt>
      <trkpt lat="44.92018" lon="6.53335">
        <ele>2339</ele>
        <time>2011-01-22T14:11:20Z</time>
      </trkpt>
      <trkpt lat="44.92021" lon="6.53344">
        <ele>2338.4</ele>
        <time>2011-01-22T14:11:21Z</time>
      </trkpt>
      <trkpt lat="44.92028" lon="6.53365">
        <ele>2337.6</ele>
        <time>2011-01-22T14:11:23Z</time>
      </trkpt>
      <trkpt lat="44.92031" lon="6.53377">
        <ele>2337.2</ele>
        <time>2011-01-22T14:11:24Z</time>
      </trkpt>
      <trkpt lat="44.92037" lon="6.53396">
        <ele>2336.2</ele>
        <time>2011-01-22T14:11:26Z</time>
      </trkpt>
      <trkpt lat="44.92042" lon="6.53404">
        <ele>2335.6</ele>
        <time>2011-01-22T14:11:27Z</time>
      </trkpt>
      <trkpt lat="44.92055" lon="6.5343">
        <ele>2334.2</ele>
        <time>2011-01-22T14:11:30Z</time>
      </trkpt>
      <trkpt lat="44.9206" lon="6.53449">
        <ele>2332.6</ele>
        <time>2011-01-22T14:11:33Z</time>
      </trkpt>
      <trkpt lat="44.92067" lon="6.53466">
        <ele>2332</ele>
        <time>2011-01-22T14:11:34Z</time>
      </trkpt>
      <trkpt lat="44.92069" lon="6.53471">
        <ele>2331</ele>
        <time>2011-01-22T14:11:36Z</time>
      </trkpt>
      <trkpt lat="44.9207" lon="6.53474">
        <ele>2319.8</ele>
        <time>2011-01-22T14:12:02Z</time>
      </trkpt>
      <trkpt lat="44.92072" lon="6.53482">
        <ele>2319.4</ele>
        <time>2011-01-22T14:12:03Z</time>
      </trkpt>
      <trkpt lat="44.92081" lon="6.53498">
        <ele>2318.4</ele>
        <time>2011-01-22T14:12:05Z</time>
      </trkpt>
      <trkpt lat="44.92082" lon="6.53509">
        <ele>2318</ele>
        <time>2011-01-22T14:12:06Z</time>
      </trkpt>
      <trkpt lat="44.92081" lon="6.53519">
        <ele>2317.4</ele>
        <time>2011-01-22T14:12:07Z</time>
      </trkpt>
      <trkpt lat="44.9208" lon="6.5353">
        <ele>2317</ele>
        <time>2011-01-22T14:12:08Z</time>
      </trkpt>
      <trkpt lat="44.9208" lon="6.5353">
        <ele>2316.4</ele>
        <time>2011-01-22T14:12:09Z</time>
      </trkpt>
      <trkpt lat="44.92087" lon="6.53553">
        <ele>2315.8</ele>
        <time>2011-01-22T14:12:10Z</time>
      </trkpt>
      <trkpt lat="44.92095" lon="6.53563">
        <ele>2315.2</ele>
        <time>2011-01-22T14:12:11Z</time>
      </trkpt>
      <trkpt lat="44.9211" lon="6.53579">
        <ele>2313.8</ele>
        <time>2011-01-22T14:12:13Z</time>
      </trkpt>
      <trkpt lat="44.92125" lon="6.5359">
        <ele>2312.6</ele>
        <time>2011-01-22T14:12:15Z</time>
      </trkpt>
      <trkpt lat="44.92132" lon="6.53599">
        <ele>2311.8</ele>
        <time>2011-01-22T14:12:16Z</time>
      </trkpt>
      <trkpt lat="44.92139" lon="6.53609">
        <ele>2310.4</ele>
        <time>2011-01-22T14:12:18Z</time>
      </trkpt>
      <trkpt lat="44.92133" lon="6.53633">
        <ele>2309.4</ele>
        <time>2011-01-22T14:12:19Z</time>
      </trkpt>
      <trkpt lat="44.92128" lon="6.53643">
        <ele>2308.6</ele>
        <time>2011-01-22T14:12:20Z</time>
      </trkpt>
      <trkpt lat="44.92128" lon="6.53668">
        <ele>2306.8</ele>
        <time>2011-01-22T14:12:22Z</time>
      </trkpt>
      <trkpt lat="44.92132" lon="6.5368">
        <ele>2305.8</ele>
        <time>2011-01-22T14:12:23Z</time>
      </trkpt>
      <trkpt lat="44.92141" lon="6.5369">
        <ele>2304.8</ele>
        <time>2011-01-22T14:12:24Z</time>
      </trkpt>
      <trkpt lat="44.92143" lon="6.53696">
        <ele>2304</ele>
        <time>2011-01-22T14:12:25Z</time>
      </trkpt>
      <trkpt lat="44.92143" lon="6.53698">
        <ele>2302</ele>
        <time>2011-01-22T14:12:27Z</time>
      </trkpt>
      <trkpt lat="44.92144" lon="6.53697">
        <ele>2297.8</ele>
        <time>2011-01-22T14:12:32Z</time>
      </trkpt>
      <trkpt lat="44.92144" lon="6.53697">
        <ele>2287</ele>
        <time>2011-01-22T14:12:46Z</time>
      </trkpt>
      <trkpt lat="44.92147" lon="6.53704">
        <ele>2254.2</ele>
        <time>2011-01-22T14:13:46Z</time>
      </trkpt>
      <trkpt lat="44.92149" lon="6.5371">
        <ele>2253.6</ele>
        <time>2011-01-22T14:13:47Z</time>
      </trkpt>
      <trkpt lat="44.92153" lon="6.53734">
        <ele>2252.2</ele>
        <time>2011-01-22T14:13:50Z</time>
      </trkpt>
      <trkpt lat="44.92156" lon="6.53748">
        <ele>2251.2</ele>
        <time>2011-01-22T14:13:52Z</time>
      </trkpt>
      <trkpt lat="44.9216" lon="6.53759">
        <ele>2250.6</ele>
        <time>2011-01-22T14:13:53Z</time>
      </trkpt>
      <trkpt lat="44.92166" lon="6.5377">
        <ele>2250</ele>
        <time>2011-01-22T14:13:54Z</time>
      </trkpt>
      <trkpt lat="44.92182" lon="6.53779">
        <ele>2248.8</ele>
        <time>2011-01-22T14:13:56Z</time>
      </trkpt>
      <trkpt lat="44.92182" lon="6.53779">
        <ele>2248.2</ele>
        <time>2011-01-22T14:13:57Z</time>
      </trkpt>
      <trkpt lat="44.92202" lon="6.53788">
        <ele>2247.2</ele>
        <time>2011-01-22T14:13:59Z</time>
      </trkpt>
      <trkpt lat="44.92206" lon="6.53792">
        <ele>2246.4</ele>
        <time>2011-01-22T14:14:00Z</time>
      </trkpt>
      <trkpt lat="44.92211" lon="6.538">
        <ele>2244.6</ele>
        <time>2011-01-22T14:14:03Z</time>
      </trkpt>
      <trkpt lat="44.92214" lon="6.53804">
        <ele>2243.2</ele>
        <time>2011-01-22T14:14:05Z</time>
      </trkpt>
      <trkpt lat="44.92223" lon="6.53809">
        <ele>2242.6</ele>
        <time>2011-01-22T14:14:06Z</time>
      </trkpt>
      <trkpt lat="44.92224" lon="6.53809">
        <ele>2241.4</ele>
        <time>2011-01-22T14:14:08Z</time>
      </trkpt>
      <trkpt lat="44.92222" lon="6.53809">
        <ele>2230.6</ele>
        <time>2011-01-22T14:14:26Z</time>
      </trkpt>
      <trkpt lat="44.92224" lon="6.53817">
        <ele>2221.8</ele>
        <time>2011-01-22T14:14:44Z</time>
      </trkpt>
      <trkpt lat="44.92228" lon="6.53823">
        <ele>2221.4</ele>
        <time>2011-01-22T14:14:45Z</time>
      </trkpt>
      <trkpt lat="44.92235" lon="6.53839">
        <ele>2220.2</ele>
        <time>2011-01-22T14:14:47Z</time>
      </trkpt>
      <trkpt lat="44.92238" lon="6.53848">
        <ele>2219.8</ele>
        <time>2011-01-22T14:14:48Z</time>
      </trkpt>
      <trkpt lat="44.92245" lon="6.53868">
        <ele>2218.2</ele>
        <time>2011-01-22T14:14:51Z</time>
      </trkpt>
      <trkpt lat="44.92245" lon="6.5387">
        <ele>2217.6</ele>
        <time>2011-01-22T14:14:52Z</time>
      </trkpt>
      <trkpt lat="44.92245" lon="6.5387">
        <ele>2216.6</ele>
        <time>2011-01-22T14:14:54Z</time>
      </trkpt>
      <trkpt lat="44.92244" lon="6.5387">
        <ele>2215.6</ele>
        <time>2011-01-22T14:14:56Z</time>
      </trkpt>
      <trkpt lat="44.9224" lon="6.53871">
        <ele>2214.6</ele>
        <time>2011-01-22T14:14:58Z</time>
      </trkpt>
      <trkpt lat="44.92223" lon="6.53883">
        <ele>2213</ele>
        <time>2011-01-22T14:15:01Z</time>
      </trkpt>
      <trkpt lat="44.92218" lon="6.53889">
        <ele>2212.4</ele>
        <time>2011-01-22T14:15:02Z</time>
      </trkpt>
      <trkpt lat="44.92209" lon="6.539">
        <ele>2211.2</ele>
        <time>2011-01-22T14:15:04Z</time>
      </trkpt>
      <trkpt lat="44.92199" lon="6.53921">
        <ele>2208.8</ele>
        <time>2011-01-22T14:15:08Z</time>
      </trkpt>
      <trkpt lat="44.92202" lon="6.53941">
        <ele>2207.2</ele>
        <time>2011-01-22T14:15:11Z</time>
      </trkpt>
      <trkpt lat="44.92205" lon="6.53947">
        <ele>2206</ele>
        <time>2011-01-22T14:15:13Z</time>
      </trkpt>
      <trkpt lat="44.92205" lon="6.53947">
        <ele>2205.4</ele>
        <time>2011-01-22T14:15:14Z</time>
      </trkpt>
      <trkpt lat="44.92207" lon="6.53953">
        <ele>2195</ele>
        <time>2011-01-22T14:15:34Z</time>
      </trkpt>
      <trkpt lat="44.92205" lon="6.53975">
        <ele>2193.6</ele>
        <time>2011-01-22T14:15:37Z</time>
      </trkpt>
      <trkpt lat="44.92204" lon="6.53982">
        <ele>2193</ele>
        <time>2011-01-22T14:15:38Z</time>
      </trkpt>
      <trkpt lat="44.922" lon="6.54">
        <ele>2192</ele>
        <time>2011-01-22T14:15:40Z</time>
      </trkpt>
      <trkpt lat="44.92195" lon="6.54014">
        <ele>2190.8</ele>
        <time>2011-01-22T14:15:42Z</time>
      </trkpt>
      <trkpt lat="44.92195" lon="6.5403">
        <ele>2189.6</ele>
        <time>2011-01-22T14:15:44Z</time>
      </trkpt>
      <trkpt lat="44.92193" lon="6.54035">
        <ele>2189</ele>
        <time>2011-01-22T14:15:45Z</time>
      </trkpt>
      <trkpt lat="44.92195" lon="6.54045">
        <ele>2187</ele>
        <time>2011-01-22T14:15:48Z</time>
      </trkpt>
      <trkpt lat="44.92195" lon="6.54052">
        <ele>2186.4</ele>
        <time>2011-01-22T14:15:49Z</time>
      </trkpt>
      <trkpt lat="44.92188" lon="6.54056">
        <ele>2184.8</ele>
        <time>2011-01-22T14:15:51Z</time>
      </trkpt>
      <trkpt lat="44.92189" lon="6.54073">
        <ele>2183.4</ele>
        <time>2011-01-22T14:15:53Z</time>
      </trkpt>
      <trkpt lat="44.92193" lon="6.54088">
        <ele>2181</ele>
        <time>2011-01-22T14:15:56Z</time>
      </trkpt>
      <trkpt lat="44.92196" lon="6.54094">
        <ele>2180.2</ele>
        <time>2011-01-22T14:15:57Z</time>
      </trkpt>
      <trkpt lat="44.922" lon="6.54113">
        <ele>2177.6</ele>
        <time>2011-01-22T14:16:00Z</time>
      </trkpt>
      <trkpt lat="44.92197" lon="6.54113">
        <ele>2176.8</ele>
        <time>2011-01-22T14:16:01Z</time>
      </trkpt>
      <trkpt lat="44.92197" lon="6.54111">
        <ele>2176</ele>
        <time>2011-01-22T14:16:02Z</time>
      </trkpt>
      <trkpt lat="44.92197" lon="6.54109">
        <ele>2172.8</ele>
        <time>2011-01-22T14:16:06Z</time>
      </trkpt>
      <trkpt lat="44.92195" lon="6.5411">
        <ele>2169</ele>
        <time>2011-01-22T14:16:11Z</time>
      </trkpt>
      <trkpt lat="44.92195" lon="6.5411">
        <ele>2168.2</ele>
        <time>2011-01-22T14:16:12Z</time>
      </trkpt>
      <trkpt lat="44.92194" lon="6.54111">
        <ele>2163.4</ele>
        <time>2011-01-22T14:16:19Z</time>
      </trkpt>
      <trkpt lat="44.92194" lon="6.54111">
        <ele>2161.6</ele>
        <time>2011-01-22T14:16:22Z</time>
      </trkpt>
      <trkpt lat="44.92194" lon="6.54111">
        <ele>2152.8</ele>
        <time>2011-01-22T14:16:37Z</time>
      </trkpt>
      <trkpt lat="44.92195" lon="6.54111">
        <ele>2139.6</ele>
        <time>2011-01-22T14:17:06Z</time>
      </trkpt>
      <trkpt lat="44.92199" lon="6.5411">
        <ele>2135.2</ele>
        <time>2011-01-22T14:17:18Z</time>
      </trkpt>
      <trkpt lat="44.92201" lon="6.54111">
        <ele>2134.8</ele>
        <time>2011-01-22T14:17:19Z</time>
      </trkpt>
      <trkpt lat="44.92213" lon="6.54118">
        <ele>2133.6</ele>
        <time>2011-01-22T14:17:22Z</time>
      </trkpt>
      <trkpt lat="44.92218" lon="6.54122">
        <ele>2133.2</ele>
        <time>2011-01-22T14:17:23Z</time>
      </trkpt>
      <trkpt lat="44.92232" lon="6.54134">
        <ele>2131.8</ele>
        <time>2011-01-22T14:17:26Z</time>
      </trkpt>
      <trkpt lat="44.92232" lon="6.54134">
        <ele>2131.4</ele>
        <time>2011-01-22T14:17:27Z</time>
      </trkpt>
      <trkpt lat="44.92242" lon="6.54139">
        <ele>2131</ele>
        <time>2011-01-22T14:17:28Z</time>
      </trkpt>
      <trkpt lat="44.92252" lon="6.54145">
        <ele>2130</ele>
        <time>2011-01-22T14:17:30Z</time>
      </trkpt>
      <trkpt lat="44.92257" lon="6.5415">
        <ele>2129.4</ele>
        <time>2011-01-22T14:17:31Z</time>
      </trkpt>
      <trkpt lat="44.92267" lon="6.54162">
        <ele>2127.6</ele>
        <time>2011-01-22T14:17:34Z</time>
      </trkpt>
      <trkpt lat="44.92274" lon="6.54168">
        <ele>2126.4</ele>
        <time>2011-01-22T14:17:36Z</time>
      </trkpt>
      <trkpt lat="44.92272" lon="6.54173">
        <ele>2125.2</ele>
        <time>2011-01-22T14:17:38Z</time>
      </trkpt>
      <trkpt lat="44.9227" lon="6.54176">
        <ele>2121</ele>
        <time>2011-01-22T14:17:46Z</time>
      </trkpt>
      <trkpt lat="44.9227" lon="6.54179">
        <ele>2101.2</ele>
        <time>2011-01-22T14:18:33Z</time>
      </trkpt>
      <trkpt lat="44.92279" lon="6.5418">
        <ele>2100.2</ele>
        <time>2011-01-22T14:18:36Z</time>
      </trkpt>
      <trkpt lat="44.92282" lon="6.5418">
        <ele>2099.8</ele>
        <time>2011-01-22T14:18:37Z</time>
      </trkpt>
      <trkpt lat="44.92298" lon="6.54181">
        <ele>2098.4</ele>
        <time>2011-01-22T14:18:41Z</time>
      </trkpt>
      <trkpt lat="44.92303" lon="6.54182">
        <ele>2098</ele>
        <time>2011-01-22T14:18:42Z</time>
      </trkpt>
      <trkpt lat="44.9232" lon="6.54187">
        <ele>2096.8</ele>
        <time>2011-01-22T14:18:45Z</time>
      </trkpt>
      <trkpt lat="44.92326" lon="6.54189">
        <ele>2096.4</ele>
        <time>2011-01-22T14:18:46Z</time>
      </trkpt>
      <trkpt lat="44.92339" lon="6.54196">
        <ele>2095.6</ele>
        <time>2011-01-22T14:18:48Z</time>
      </trkpt>
      <trkpt lat="44.92352" lon="6.54203">
        <ele>2094.4</ele>
        <time>2011-01-22T14:18:51Z</time>
      </trkpt>
      <trkpt lat="44.92366" lon="6.5421">
        <ele>2094</ele>
        <time>2011-01-22T14:18:52Z</time>
      </trkpt>
      <trkpt lat="44.92381" lon="6.54218">
        <ele>2093.2</ele>
        <time>2011-01-22T14:18:54Z</time>
      </trkpt>
      <trkpt lat="44.92395" lon="6.54224">
        <ele>2092</ele>
        <time>2011-01-22T14:18:57Z</time>
      </trkpt>
      <trkpt lat="44.92419" lon="6.54232">
        <ele>2091</ele>
        <time>2011-01-22T14:18:59Z</time>
      </trkpt>
      <trkpt lat="44.92427" lon="6.54234">
        <ele>2090.6</ele>
        <time>2011-01-22T14:19:00Z</time>
      </trkpt>
      <trkpt lat="44.92443" lon="6.54237">
        <ele>2089.8</ele>
        <time>2011-01-22T14:19:02Z</time>
      </trkpt>
      <trkpt lat="44.92451" lon="6.54237">
        <ele>2089.2</ele>
        <time>2011-01-22T14:19:03Z</time>
      </trkpt>
      <trkpt lat="44.92458" lon="6.54237">
        <ele>2088.8</ele>
        <time>2011-01-22T14:19:04Z</time>
      </trkpt>
      <trkpt lat="44.92469" lon="6.54246">
        <ele>2087.8</ele>
        <time>2011-01-22T14:19:06Z</time>
      </trkpt>
      <trkpt lat="44.92474" lon="6.54253">
        <ele>2087.4</ele>
        <time>2011-01-22T14:19:07Z</time>
      </trkpt>
      <trkpt lat="44.92484" lon="6.54268">
        <ele>2086.2</ele>
        <time>2011-01-22T14:19:09Z</time>
      </trkpt>
      <trkpt lat="44.92491" lon="6.54285">
        <ele>2085</ele>
        <time>2011-01-22T14:19:11Z</time>
      </trkpt>
      <trkpt lat="44.92495" lon="6.54295">
        <ele>2084.4</ele>
        <time>2011-01-22T14:19:12Z</time>
      </trkpt>
      <trkpt lat="44.92501" lon="6.54299">
        <ele>2083.8</ele>
        <time>2011-01-22T14:19:13Z</time>
      </trkpt>
      <trkpt lat="44.92513" lon="6.54298">
        <ele>2082.6</ele>
        <time>2011-01-22T14:19:15Z</time>
      </trkpt>
      <trkpt lat="44.92529" lon="6.54302">
        <ele>2080.6</ele>
        <time>2011-01-22T14:19:18Z</time>
      </trkpt>
      <trkpt lat="44.92534" lon="6.54303">
        <ele>2079.8</ele>
        <time>2011-01-22T14:19:19Z</time>
      </trkpt>
      <trkpt lat="44.9254" lon="6.54305">
        <ele>2079</ele>
        <time>2011-01-22T14:19:20Z</time>
      </trkpt>
      <trkpt lat="44.9255" lon="6.54311">
        <ele>2077.6</ele>
        <time>2011-01-22T14:19:22Z</time>
      </trkpt>
      <trkpt lat="44.92551" lon="6.54315">
        <ele>2076.8</ele>
        <time>2011-01-22T14:19:23Z</time>
      </trkpt>
      <trkpt lat="44.9255" lon="6.5432">
        <ele>2076</ele>
        <time>2011-01-22T14:19:24Z</time>
      </trkpt>
      <trkpt lat="44.92552" lon="6.54331">
        <ele>2073.6</ele>
        <time>2011-01-22T14:19:27Z</time>
      </trkpt>
      <trkpt lat="44.92556" lon="6.54334">
        <ele>2072.8</ele>
        <time>2011-01-22T14:19:28Z</time>
      </trkpt>
      <trkpt lat="44.92557" lon="6.54333">
        <ele>2071.4</ele>
        <time>2011-01-22T14:19:30Z</time>
      </trkpt>
      <trkpt lat="44.92555" lon="6.54333">
        <ele>2056.6</ele>
        <time>2011-01-22T14:19:53Z</time>
      </trkpt>
      <trkpt lat="44.92559" lon="6.54336">
        <ele>2037</ele>
        <time>2011-01-22T14:20:37Z</time>
      </trkpt>
      <trkpt lat="44.92569" lon="6.5434">
        <ele>2035.8</ele>
        <time>2011-01-22T14:20:40Z</time>
      </trkpt>
      <trkpt lat="44.92575" lon="6.54343">
        <ele>2035.4</ele>
        <time>2011-01-22T14:20:41Z</time>
      </trkpt>
      <trkpt lat="44.9259" lon="6.54348">
        <ele>2034.6</ele>
        <time>2011-01-22T14:20:43Z</time>
      </trkpt>
      <trkpt lat="44.92598" lon="6.54353">
        <ele>2034</ele>
        <time>2011-01-22T14:20:44Z</time>
      </trkpt>
      <trkpt lat="44.92613" lon="6.54358">
        <ele>2033</ele>
        <time>2011-01-22T14:20:46Z</time>
      </trkpt>
      <trkpt lat="44.92619" lon="6.54358">
        <ele>2032.6</ele>
        <time>2011-01-22T14:20:47Z</time>
      </trkpt>
      <trkpt lat="44.92633" lon="6.54358">
        <ele>2031</ele>
        <time>2011-01-22T14:20:50Z</time>
      </trkpt>
      <trkpt lat="44.92636" lon="6.54357">
        <ele>2030.6</ele>
        <time>2011-01-22T14:20:51Z</time>
      </trkpt>
      <trkpt lat="44.92638" lon="6.54356">
        <ele>2030</ele>
        <time>2011-01-22T14:20:52Z</time>
      </trkpt>
      <trkpt lat="44.92641" lon="6.54356">
        <ele>2029.6</ele>
        <time>2011-01-22T14:20:53Z</time>
      </trkpt>
      <trkpt lat="44.92648" lon="6.54355">
        <ele>2028.6</ele>
        <time>2011-01-22T14:20:55Z</time>
      </trkpt>
      <trkpt lat="44.92651" lon="6.54355">
        <ele>2028</ele>
        <time>2011-01-22T14:20:56Z</time>
      </trkpt>
      <trkpt lat="44.9266" lon="6.54357">
        <ele>2027</ele>
        <time>2011-01-22T14:20:58Z</time>
      </trkpt>
      <trkpt lat="44.92666" lon="6.54359">
        <ele>2026.4</ele>
        <time>2011-01-22T14:20:59Z</time>
      </trkpt>
      <trkpt lat="44.92678" lon="6.54366">
        <ele>2025.4</ele>
        <time>2011-01-22T14:21:01Z</time>
      </trkpt>
      <trkpt lat="44.92685" lon="6.5437">
        <ele>2024.8</ele>
        <time>2011-01-22T14:21:02Z</time>
      </trkpt>
      <trkpt lat="44.92693" lon="6.54374">
        <ele>2024.2</ele>
        <time>2011-01-22T14:21:03Z</time>
      </trkpt>
      <trkpt lat="44.92702" lon="6.54379">
        <ele>2023.4</ele>
        <time>2011-01-22T14:21:04Z</time>
      </trkpt>
      <trkpt lat="44.92711" lon="6.54384">
        <ele>2022.8</ele>
        <time>2011-01-22T14:21:05Z</time>
      </trkpt>
      <trkpt lat="44.9272" lon="6.54389">
        <ele>2022.2</ele>
        <time>2011-01-22T14:21:06Z</time>
      </trkpt>
      <trkpt lat="44.92728" lon="6.54396">
        <ele>2021.6</ele>
        <time>2011-01-22T14:21:07Z</time>
      </trkpt>
      <trkpt lat="44.92736" lon="6.54404">
        <ele>2020.8</ele>
        <time>2011-01-22T14:21:08Z</time>
      </trkpt>
      <trkpt lat="44.92749" lon="6.54422">
        <ele>2019.4</ele>
        <time>2011-01-22T14:21:10Z</time>
      </trkpt>
      <trkpt lat="44.92754" lon="6.54433">
        <ele>2018.6</ele>
        <time>2011-01-22T14:21:11Z</time>
      </trkpt>
      <trkpt lat="44.92767" lon="6.54439">
        <ele>2017.2</ele>
        <time>2011-01-22T14:21:13Z</time>
      </trkpt>
      <trkpt lat="44.92778" lon="6.54435">
        <ele>2016.4</ele>
        <time>2011-01-22T14:21:14Z</time>
      </trkpt>
      <trkpt lat="44.92787" lon="6.54432">
        <ele>2015.6</ele>
        <time>2011-01-22T14:21:15Z</time>
      </trkpt>
      <trkpt lat="44.92804" lon="6.54424">
        <ele>2014.2</ele>
        <time>2011-01-22T14:21:17Z</time>
      </trkpt>
      <trkpt lat="44.92828" lon="6.54411">
        <ele>2011.8</ele>
        <time>2011-01-22T14:21:20Z</time>
      </trkpt>
      <trkpt lat="44.92846" lon="6.54403">
        <ele>2010.2</ele>
        <time>2011-01-22T14:21:22Z</time>
      </trkpt>
      <trkpt lat="44.92857" lon="6.54402">
        <ele>2009.2</ele>
        <time>2011-01-22T14:21:23Z</time>
      </trkpt>
      <trkpt lat="44.92867" lon="6.54401">
        <ele>2008.4</ele>
        <time>2011-01-22T14:21:24Z</time>
      </trkpt>
      <trkpt lat="44.92888" lon="6.54394">
        <ele>2006.8</ele>
        <time>2011-01-22T14:21:26Z</time>
      </trkpt>
      <trkpt lat="44.92897" lon="6.54392">
        <ele>2006</ele>
        <time>2011-01-22T14:21:27Z</time>
      </trkpt>
      <trkpt lat="44.92906" lon="6.5439">
        <ele>2005.2</ele>
        <time>2011-01-22T14:21:28Z</time>
      </trkpt>
      <trkpt lat="44.92915" lon="6.54389">
        <ele>2004.4</ele>
        <time>2011-01-22T14:21:29Z</time>
      </trkpt>
      <trkpt lat="44.92933" lon="6.54386">
        <ele>2002.6</ele>
        <time>2011-01-22T14:21:31Z</time>
      </trkpt>
      <trkpt lat="44.92942" lon="6.54384">
        <ele>2001.8</ele>
        <time>2011-01-22T14:21:32Z</time>
      </trkpt>
      <trkpt lat="44.92952" lon="6.54384">
        <ele>2000.8</ele>
        <time>2011-01-22T14:21:33Z</time>
      </trkpt>
      <trkpt lat="44.92962" lon="6.54382">
        <ele>2000</ele>
        <time>2011-01-22T14:21:34Z</time>
      </trkpt>
      <trkpt lat="44.92973" lon="6.54377">
        <ele>1999</ele>
        <time>2011-01-22T14:21:35Z</time>
      </trkpt>
      <trkpt lat="44.92983" lon="6.54374">
        <ele>1998.2</ele>
        <time>2011-01-22T14:21:36Z</time>
      </trkpt>
      <trkpt lat="44.92993" lon="6.54372">
        <ele>1997.2</ele>
        <time>2011-01-22T14:21:37Z</time>
      </trkpt>
      <trkpt lat="44.93013" lon="6.54367">
        <ele>1995.4</ele>
        <time>2011-01-22T14:21:39Z</time>
      </trkpt>
      <trkpt lat="44.93032" lon="6.54362">
        <ele>1993.6</ele>
        <time>2011-01-22T14:21:41Z</time>
      </trkpt>
      <trkpt lat="44.93041" lon="6.54359">
        <ele>1992.6</ele>
        <time>2011-01-22T14:21:42Z</time>
      </trkpt>
      <trkpt lat="44.93056" lon="6.54352">
        <ele>1990.8</ele>
        <time>2011-01-22T14:21:44Z</time>
      </trkpt>
      <trkpt lat="44.93075" lon="6.54346">
        <ele>1989</ele>
        <time>2011-01-22T14:21:46Z</time>
      </trkpt>
      <trkpt lat="44.93084" lon="6.54343">
        <ele>1988</ele>
        <time>2011-01-22T14:21:47Z</time>
      </trkpt>
      <trkpt lat="44.93092" lon="6.54337">
        <ele>1987</ele>
        <time>2011-01-22T14:21:48Z</time>
      </trkpt>
      <trkpt lat="44.93099" lon="6.5433">
        <ele>1986.2</ele>
        <time>2011-01-22T14:21:49Z</time>
      </trkpt>
      <trkpt lat="44.93114" lon="6.54317">
        <ele>1984.4</ele>
        <time>2011-01-22T14:21:51Z</time>
      </trkpt>
      <trkpt lat="44.9312" lon="6.5431">
        <ele>1983.4</ele>
        <time>2011-01-22T14:21:52Z</time>
      </trkpt>
      <trkpt lat="44.9313" lon="6.54292">
        <ele>1981.8</ele>
        <time>2011-01-22T14:21:54Z</time>
      </trkpt>
      <trkpt lat="44.93134" lon="6.54282">
        <ele>1980.8</ele>
        <time>2011-01-22T14:21:55Z</time>
      </trkpt>
      <trkpt lat="44.93139" lon="6.54273">
        <ele>1980</ele>
        <time>2011-01-22T14:21:56Z</time>
      </trkpt>
      <trkpt lat="44.93144" lon="6.54264">
        <ele>1979.2</ele>
        <time>2011-01-22T14:21:57Z</time>
      </trkpt>
      <trkpt lat="44.93155" lon="6.54249">
        <ele>1977.4</ele>
        <time>2011-01-22T14:21:59Z</time>
      </trkpt>
      <trkpt lat="44.93161" lon="6.54241">
        <ele>1976.6</ele>
        <time>2011-01-22T14:22:00Z</time>
      </trkpt>
      <trkpt lat="44.93174" lon="6.54223">
        <ele>1974.8</ele>
        <time>2011-01-22T14:22:02Z</time>
      </trkpt>
      <trkpt lat="44.9318" lon="6.54214">
        <ele>1974</ele>
        <time>2011-01-22T14:22:03Z</time>
      </trkpt>
      <trkpt lat="44.93186" lon="6.54196">
        <ele>1972.4</ele>
        <time>2011-01-22T14:22:05Z</time>
      </trkpt>
      <trkpt lat="44.93183" lon="6.54191">
        <ele>1970.6</ele>
        <time>2011-01-22T14:22:07Z</time>
      </trkpt>
      <trkpt lat="44.93182" lon="6.54191">
        <ele>1969.8</ele>
        <time>2011-01-22T14:22:08Z</time>
      </trkpt>
      <trkpt lat="44.9318" lon="6.54192">
        <ele>1961.4</ele>
        <time>2011-01-22T14:22:19Z</time>
      </trkpt>
      <trkpt lat="44.9318" lon="6.54193">
        <ele>1949.2</ele>
        <time>2011-01-22T14:22:37Z</time>
      </trkpt>
      <trkpt lat="44.93187" lon="6.54186">
        <ele>1914.8</ele>
        <time>2011-01-22T14:23:54Z</time>
      </trkpt>
      <trkpt lat="44.93196" lon="6.54178">
        <ele>1914</ele>
        <time>2011-01-22T14:23:56Z</time>
      </trkpt>
      <trkpt lat="44.93205" lon="6.54177">
        <ele>1913.6</ele>
        <time>2011-01-22T14:23:57Z</time>
      </trkpt>
      <trkpt lat="44.93222" lon="6.54185">
        <ele>1912.8</ele>
        <time>2011-01-22T14:23:59Z</time>
      </trkpt>
      <trkpt lat="44.93231" lon="6.54188">
        <ele>1912.4</ele>
        <time>2011-01-22T14:24:00Z</time>
      </trkpt>
      <trkpt lat="44.93242" lon="6.54187">
        <ele>1912</ele>
        <time>2011-01-22T14:24:01Z</time>
      </trkpt>
      <trkpt lat="44.93261" lon="6.54194">
        <ele>1911</ele>
        <time>2011-01-22T14:24:03Z</time>
      </trkpt>
      <trkpt lat="44.93269" lon="6.54209">
        <ele>1909.8</ele>
        <time>2011-01-22T14:24:05Z</time>
      </trkpt>
      <trkpt lat="44.93274" lon="6.54216">
        <ele>1909.2</ele>
        <time>2011-01-22T14:24:06Z</time>
      </trkpt>
      <trkpt lat="44.93287" lon="6.54225">
        <ele>1908</ele>
        <time>2011-01-22T14:24:08Z</time>
      </trkpt>
      <trkpt lat="44.93294" lon="6.54229">
        <ele>1907.4</ele>
        <time>2011-01-22T14:24:09Z</time>
      </trkpt>
      <trkpt lat="44.9331" lon="6.54236">
        <ele>1905.8</ele>
        <time>2011-01-22T14:24:11Z</time>
      </trkpt>
      <trkpt lat="44.9332" lon="6.54239">
        <ele>1905</ele>
        <time>2011-01-22T14:24:12Z</time>
      </trkpt>
      <trkpt lat="44.93329" lon="6.54237">
        <ele>1904.2</ele>
        <time>2011-01-22T14:24:13Z</time>
      </trkpt>
      <trkpt lat="44.93339" lon="6.54233">
        <ele>1903.4</ele>
        <time>2011-01-22T14:24:14Z</time>
      </trkpt>
      <trkpt lat="44.93353" lon="6.54235">
        <ele>1901.6</ele>
        <time>2011-01-22T14:24:16Z</time>
      </trkpt>
      <trkpt lat="44.93358" lon="6.54238">
        <ele>1900.8</ele>
        <time>2011-01-22T14:24:17Z</time>
      </trkpt>
      <trkpt lat="44.93376" lon="6.54258">
        <ele>1898</ele>
        <time>2011-01-22T14:24:20Z</time>
      </trkpt>
      <trkpt lat="44.93383" lon="6.54268">
        <ele>1897</ele>
        <time>2011-01-22T14:24:21Z</time>
      </trkpt>
      <trkpt lat="44.93391" lon="6.54278">
        <ele>1896</ele>
        <time>2011-01-22T14:24:22Z</time>
      </trkpt>
      <trkpt lat="44.93407" lon="6.54297">
        <ele>1894.2</ele>
        <time>2011-01-22T14:24:24Z</time>
      </trkpt>
      <trkpt lat="44.93424" lon="6.54311">
        <ele>1892.2</ele>
        <time>2011-01-22T14:24:26Z</time>
      </trkpt>
      <trkpt lat="44.93432" lon="6.54314">
        <ele>1891.2</ele>
        <time>2011-01-22T14:24:27Z</time>
      </trkpt>
      <trkpt lat="44.93448" lon="6.54312">
        <ele>1889.4</ele>
        <time>2011-01-22T14:24:29Z</time>
      </trkpt>
      <trkpt lat="44.93455" lon="6.54311">
        <ele>1888.4</ele>
        <time>2011-01-22T14:24:30Z</time>
      </trkpt>
      <trkpt lat="44.93471" lon="6.54309">
        <ele>1886.4</ele>
        <time>2011-01-22T14:24:32Z</time>
      </trkpt>
      <trkpt lat="44.93489" lon="6.54309">
        <ele>1884.4</ele>
        <time>2011-01-22T14:24:34Z</time>
      </trkpt>
      <trkpt lat="44.93498" lon="6.54309">
        <ele>1883.4</ele>
        <time>2011-01-22T14:24:35Z</time>
      </trkpt>
      <trkpt lat="44.93517" lon="6.5431">
        <ele>1881.4</ele>
        <time>2011-01-22T14:24:37Z</time>
      </trkpt>
      <trkpt lat="44.93535" lon="6.54321">
        <ele>1879.4</ele>
        <time>2011-01-22T14:24:39Z</time>
      </trkpt>
      <trkpt lat="44.93545" lon="6.54328">
        <ele>1878.6</ele>
        <time>2011-01-22T14:24:40Z</time>
      </trkpt>
      <trkpt lat="44.93554" lon="6.54334">
        <ele>1877.6</ele>
        <time>2011-01-22T14:24:41Z</time>
      </trkpt>
      <trkpt lat="44.93574" lon="6.54344">
        <ele>1875.4</ele>
        <time>2011-01-22T14:24:43Z</time>
      </trkpt>
      <trkpt lat="44.93596" lon="6.54358">
        <ele>1873.4</ele>
        <time>2011-01-22T14:24:45Z</time>
      </trkpt>
      <trkpt lat="44.93608" lon="6.54365">
        <ele>1872.4</ele>
        <time>2011-01-22T14:24:46Z</time>
      </trkpt>
      <trkpt lat="44.93618" lon="6.54375">
        <ele>1871.2</ele>
        <time>2011-01-22T14:24:47Z</time>
      </trkpt>
      <trkpt lat="44.93639" lon="6.54393">
        <ele>1869.2</ele>
        <time>2011-01-22T14:24:49Z</time>
      </trkpt>
      <trkpt lat="44.9365" lon="6.54398">
        <ele>1868</ele>
        <time>2011-01-22T14:24:50Z</time>
      </trkpt>
      <trkpt lat="44.93662" lon="6.544">
        <ele>1867</ele>
        <time>2011-01-22T14:24:51Z</time>
      </trkpt>
      <trkpt lat="44.93688" lon="6.54395">
        <ele>1864.8</ele>
        <time>2011-01-22T14:24:53Z</time>
      </trkpt>
      <trkpt lat="44.93713" lon="6.54384">
        <ele>1862.6</ele>
        <time>2011-01-22T14:24:55Z</time>
      </trkpt>
      <trkpt lat="44.93726" lon="6.54371">
        <ele>1861.4</ele>
        <time>2011-01-22T14:24:56Z</time>
      </trkpt>
      <trkpt lat="44.93737" lon="6.54362">
        <ele>1860.2</ele>
        <time>2011-01-22T14:24:57Z</time>
      </trkpt>
      <trkpt lat="44.93748" lon="6.54354">
        <ele>1859.2</ele>
        <time>2011-01-22T14:24:58Z</time>
      </trkpt>
      <trkpt lat="44.9376" lon="6.54347">
        <ele>1858</ele>
        <time>2011-01-22T14:24:59Z</time>
      </trkpt>
      <trkpt lat="44.93771" lon="6.54343">
        <ele>1856.8</ele>
        <time>2011-01-22T14:25:00Z</time>
      </trkpt>
      <trkpt lat="44.93783" lon="6.54341">
        <ele>1855.6</ele>
        <time>2011-01-22T14:25:01Z</time>
      </trkpt>
      <trkpt lat="44.93805" lon="6.54339">
        <ele>1853.4</ele>
        <time>2011-01-22T14:25:03Z</time>
      </trkpt>
      <trkpt lat="44.93816" lon="6.5434">
        <ele>1852.2</ele>
        <time>2011-01-22T14:25:04Z</time>
      </trkpt>
      <trkpt lat="44.93827" lon="6.54342">
        <ele>1851</ele>
        <time>2011-01-22T14:25:05Z</time>
      </trkpt>
      <trkpt lat="44.9385" lon="6.54345">
        <ele>1848.6</ele>
        <time>2011-01-22T14:25:07Z</time>
      </trkpt>
      <trkpt lat="44.93861" lon="6.54349">
        <ele>1847.4</ele>
        <time>2011-01-22T14:25:08Z</time>
      </trkpt>
      <trkpt lat="44.93873" lon="6.54355">
        <ele>1846.2</ele>
        <time>2011-01-22T14:25:09Z</time>
      </trkpt>
      <trkpt lat="44.93893" lon="6.54366">
        <ele>1843.8</ele>
        <time>2011-01-22T14:25:11Z</time>
      </trkpt>
      <trkpt lat="44.93902" lon="6.54371">
        <ele>1842.6</ele>
        <time>2011-01-22T14:25:12Z</time>
      </trkpt>
      <trkpt lat="44.9391" lon="6.54376">
        <ele>1841.4</ele>
        <time>2011-01-22T14:25:13Z</time>
      </trkpt>
      <trkpt lat="44.93918" lon="6.5438">
        <ele>1840.2</ele>
        <time>2011-01-22T14:25:14Z</time>
      </trkpt>
      <trkpt lat="44.93933" lon="6.54395">
        <ele>1837.8</ele>
        <time>2011-01-22T14:25:16Z</time>
      </trkpt>
      <trkpt lat="44.93946" lon="6.54419">
        <ele>1835</ele>
        <time>2011-01-22T14:25:18Z</time>
      </trkpt>
      <trkpt lat="44.93946" lon="6.54434">
        <ele>1833.8</ele>
        <time>2011-01-22T14:25:19Z</time>
      </trkpt>
      <trkpt lat="44.93942" lon="6.54451">
        <ele>1832.4</ele>
        <time>2011-01-22T14:25:20Z</time>
      </trkpt>
      <trkpt lat="44.9394" lon="6.54463">
        <ele>1831</ele>
        <time>2011-01-22T14:25:21Z</time>
      </trkpt>
      <trkpt lat="44.93942" lon="6.54475">
        <ele>1829.6</ele>
        <time>2011-01-22T14:25:22Z</time>
      </trkpt>
      <trkpt lat="44.93952" lon="6.54495">
        <ele>1826.8</ele>
        <time>2011-01-22T14:25:24Z</time>
      </trkpt>
      <trkpt lat="44.93959" lon="6.54503">
        <ele>1825.4</ele>
        <time>2011-01-22T14:25:25Z</time>
      </trkpt>
      <trkpt lat="44.93977" lon="6.54514">
        <ele>1822.6</ele>
        <time>2011-01-22T14:25:27Z</time>
      </trkpt>
      <trkpt lat="44.93981" lon="6.54532">
        <ele>1819.6</ele>
        <time>2011-01-22T14:25:29Z</time>
      </trkpt>
      <trkpt lat="44.93983" lon="6.54542">
        <ele>1818</ele>
        <time>2011-01-22T14:25:30Z</time>
      </trkpt>
      <trkpt lat="44.93985" lon="6.54563">
        <ele>1815</ele>
        <time>2011-01-22T14:25:32Z</time>
      </trkpt>
      <trkpt lat="44.93985" lon="6.54573">
        <ele>1813.4</ele>
        <time>2011-01-22T14:25:33Z</time>
      </trkpt>
      <trkpt lat="44.93988" lon="6.54581">
        <ele>1811.8</ele>
        <time>2011-01-22T14:25:34Z</time>
      </trkpt>
      <trkpt lat="44.93995" lon="6.54596">
        <ele>1808.6</ele>
        <time>2011-01-22T14:25:36Z</time>
      </trkpt>
      <trkpt lat="44.94004" lon="6.54613">
        <ele>1805.4</ele>
        <time>2011-01-22T14:25:38Z</time>
      </trkpt>
      <trkpt lat="44.94012" lon="6.54621">
        <ele>1803.8</ele>
        <time>2011-01-22T14:25:39Z</time>
      </trkpt>
      <trkpt lat="44.94035" lon="6.54631">
        <ele>1800.2</ele>
        <time>2011-01-22T14:25:41Z</time>
      </trkpt>
      <trkpt lat="44.9406" lon="6.54636">
        <ele>1796.8</ele>
        <time>2011-01-22T14:25:43Z</time>
      </trkpt>
      <trkpt lat="44.94071" lon="6.54638">
        <ele>1795.2</ele>
        <time>2011-01-22T14:25:44Z</time>
      </trkpt>
      <trkpt lat="44.94081" lon="6.54638">
        <ele>1793.4</ele>
        <time>2011-01-22T14:25:45Z</time>
      </trkpt>
      <trkpt lat="44.94092" lon="6.54641">
        <ele>1791.6</ele>
        <time>2011-01-22T14:25:46Z</time>
      </trkpt>
      <trkpt lat="44.94102" lon="6.54649">
        <ele>1789.8</ele>
        <time>2011-01-22T14:25:47Z</time>
      </trkpt>
      <trkpt lat="44.94117" lon="6.54676">
        <ele>1786.2</ele>
        <time>2011-01-22T14:25:49Z</time>
      </trkpt>
      <trkpt lat="44.94123" lon="6.54691">
        <ele>1784.4</ele>
        <time>2011-01-22T14:25:50Z</time>
      </trkpt>
      <trkpt lat="44.94125" lon="6.54706">
        <ele>1782.6</ele>
        <time>2011-01-22T14:25:51Z</time>
      </trkpt>
      <trkpt lat="44.94122" lon="6.54717">
        <ele>1780.8</ele>
        <time>2011-01-22T14:25:52Z</time>
      </trkpt>
      <trkpt lat="44.94109" lon="6.54732">
        <ele>1777</ele>
        <time>2011-01-22T14:25:54Z</time>
      </trkpt>
      <trkpt lat="44.94108" lon="6.54749">
        <ele>1773.2</ele>
        <time>2011-01-22T14:25:56Z</time>
      </trkpt>
      <trkpt lat="44.94111" lon="6.54758">
        <ele>1771.4</ele>
        <time>2011-01-22T14:25:57Z</time>
      </trkpt>
      <trkpt lat="44.94118" lon="6.54765">
        <ele>1769.4</ele>
        <time>2011-01-22T14:25:58Z</time>
      </trkpt>
      <trkpt lat="44.94131" lon="6.54784">
        <ele>1765.6</ele>
        <time>2011-01-22T14:26:00Z</time>
      </trkpt>
      <trkpt lat="44.94137" lon="6.54796">
        <ele>1763.6</ele>
        <time>2011-01-22T14:26:01Z</time>
      </trkpt>
      <trkpt lat="44.94144" lon="6.54808">
        <ele>1761.6</ele>
        <time>2011-01-22T14:26:02Z</time>
      </trkpt>
      <trkpt lat="44.94162" lon="6.54821">
        <ele>1757.8</ele>
        <time>2011-01-22T14:26:04Z</time>
      </trkpt>
      <trkpt lat="44.94171" lon="6.54819">
        <ele>1755.8</ele>
        <time>2011-01-22T14:26:05Z</time>
      </trkpt>
      <trkpt lat="44.94179" lon="6.54813">
        <ele>1753.8</ele>
        <time>2011-01-22T14:26:06Z</time>
      </trkpt>
      <trkpt lat="44.94189" lon="6.54806">
        <ele>1751.8</ele>
        <time>2011-01-22T14:26:07Z</time>
      </trkpt>
      <trkpt lat="44.94198" lon="6.548">
        <ele>1749.8</ele>
        <time>2011-01-22T14:26:08Z</time>
      </trkpt>
      <trkpt lat="44.94207" lon="6.54793">
        <ele>1747.8</ele>
        <time>2011-01-22T14:26:09Z</time>
      </trkpt>
      <trkpt lat="44.9423" lon="6.54774">
        <ele>1742.2</ele>
        <time>2011-01-22T14:26:12Z</time>
      </trkpt>
      <trkpt lat="44.94239" lon="6.54769">
        <ele>1740.4</ele>
        <time>2011-01-22T14:26:13Z</time>
      </trkpt>
      <trkpt lat="44.94248" lon="6.54767">
        <ele>1738.4</ele>
        <time>2011-01-22T14:26:14Z</time>
      </trkpt>
      <trkpt lat="44.94267" lon="6.54764">
        <ele>1734.6</ele>
        <time>2011-01-22T14:26:16Z</time>
      </trkpt>
      <trkpt lat="44.94286" lon="6.54766">
        <ele>1731</ele>
        <time>2011-01-22T14:26:18Z</time>
      </trkpt>
      <trkpt lat="44.94306" lon="6.54772">
        <ele>1727.2</ele>
        <time>2011-01-22T14:26:20Z</time>
      </trkpt>
      <trkpt lat="44.94316" lon="6.54774">
        <ele>1725.4</ele>
        <time>2011-01-22T14:26:21Z</time>
      </trkpt>
      <trkpt lat="44.94326" lon="6.54773">
        <ele>1723.6</ele>
        <time>2011-01-22T14:26:22Z</time>
      </trkpt>
      <trkpt lat="44.94336" lon="6.54772">
        <ele>1721.8</ele>
        <time>2011-01-22T14:26:23Z</time>
      </trkpt>
      <trkpt lat="44.94345" lon="6.54775">
        <ele>1720</ele>
        <time>2011-01-22T14:26:24Z</time>
      </trkpt>
      <trkpt lat="44.9436" lon="6.54789">
        <ele>1716.2</ele>
        <time>2011-01-22T14:26:26Z</time>
      </trkpt>
      <trkpt lat="44.94368" lon="6.54811">
        <ele>1712.4</ele>
        <time>2011-01-22T14:26:28Z</time>
      </trkpt>
      <trkpt lat="44.94371" lon="6.54825">
        <ele>1710.4</ele>
        <time>2011-01-22T14:26:29Z</time>
      </trkpt>
      <trkpt lat="44.94363" lon="6.54859">
        <ele>1706.2</ele>
        <time>2011-01-22T14:26:31Z</time>
      </trkpt>
      <trkpt lat="44.94347" lon="6.54893">
        <ele>1702.2</ele>
        <time>2011-01-22T14:26:33Z</time>
      </trkpt>
      <trkpt lat="44.94331" lon="6.54928">
        <ele>1698</ele>
        <time>2011-01-22T14:26:35Z</time>
      </trkpt>
      <trkpt lat="44.94316" lon="6.54963">
        <ele>1694</ele>
        <time>2011-01-22T14:26:37Z</time>
      </trkpt>
      <trkpt lat="44.94305" lon="6.54997">
        <ele>1689.8</ele>
        <time>2011-01-22T14:26:39Z</time>
      </trkpt>
      <trkpt lat="44.943" lon="6.55014">
        <ele>1687.8</ele>
        <time>2011-01-22T14:26:40Z</time>
      </trkpt>
      <trkpt lat="44.94297" lon="6.55031">
        <ele>1685.6</ele>
        <time>2011-01-22T14:26:41Z</time>
      </trkpt>
      <trkpt lat="44.94291" lon="6.55065">
        <ele>1681.6</ele>
        <time>2011-01-22T14:26:43Z</time>
      </trkpt>
      <trkpt lat="44.94284" lon="6.55097">
        <ele>1677.4</ele>
        <time>2011-01-22T14:26:45Z</time>
      </trkpt>
      <trkpt lat="44.94275" lon="6.55127">
        <ele>1673.2</ele>
        <time>2011-01-22T14:26:47Z</time>
      </trkpt>
      <trkpt lat="44.94268" lon="6.55144">
        <ele>1671.2</ele>
        <time>2011-01-22T14:26:48Z</time>
      </trkpt>
      <trkpt lat="44.94258" lon="6.55158">
        <ele>1669.2</ele>
        <time>2011-01-22T14:26:49Z</time>
      </trkpt>
      <trkpt lat="44.94241" lon="6.55184">
        <ele>1665.2</ele>
        <time>2011-01-22T14:26:51Z</time>
      </trkpt>
      <trkpt lat="44.94229" lon="6.55206">
        <ele>1661.4</ele>
        <time>2011-01-22T14:26:53Z</time>
      </trkpt>
      <trkpt lat="44.94219" lon="6.55226">
        <ele>1657.6</ele>
        <time>2011-01-22T14:26:55Z</time>
      </trkpt>
      <trkpt lat="44.94215" lon="6.55236">
        <ele>1655.6</ele>
        <time>2011-01-22T14:26:56Z</time>
      </trkpt>
      <trkpt lat="44.94203" lon="6.55263">
        <ele>1650</ele>
        <time>2011-01-22T14:26:59Z</time>
      </trkpt>
      <trkpt lat="44.94192" lon="6.55283">
        <ele>1646.4</ele>
        <time>2011-01-22T14:27:01Z</time>
      </trkpt>
      <trkpt lat="44.94186" lon="6.55294">
        <ele>1644.4</ele>
        <time>2011-01-22T14:27:02Z</time>
      </trkpt>
      <trkpt lat="44.94174" lon="6.55317">
        <ele>1640.8</ele>
        <time>2011-01-22T14:27:04Z</time>
      </trkpt>
      <trkpt lat="44.94168" lon="6.5533">
        <ele>1639</ele>
        <time>2011-01-22T14:27:05Z</time>
      </trkpt>
      <trkpt lat="44.94163" lon="6.55343">
        <ele>1637.2</ele>
        <time>2011-01-22T14:27:06Z</time>
      </trkpt>
      <trkpt lat="44.94154" lon="6.55369">
        <ele>1633.6</ele>
        <time>2011-01-22T14:27:08Z</time>
      </trkpt>
      <trkpt lat="44.94146" lon="6.55396">
        <ele>1630.2</ele>
        <time>2011-01-22T14:27:10Z</time>
      </trkpt>
      <trkpt lat="44.94143" lon="6.5541">
        <ele>1628.4</ele>
        <time>2011-01-22T14:27:11Z</time>
      </trkpt>
      <trkpt lat="44.94141" lon="6.55424">
        <ele>1626.8</ele>
        <time>2011-01-22T14:27:12Z</time>
      </trkpt>
      <trkpt lat="44.94141" lon="6.55437">
        <ele>1625</ele>
        <time>2011-01-22T14:27:13Z</time>
      </trkpt>
      <trkpt lat="44.9414" lon="6.55451">
        <ele>1623.4</ele>
        <time>2011-01-22T14:27:14Z</time>
      </trkpt>
      <trkpt lat="44.94141" lon="6.55477">
        <ele>1620</ele>
        <time>2011-01-22T14:27:16Z</time>
      </trkpt>
      <trkpt lat="44.94139" lon="6.55504">
        <ele>1616.6</ele>
        <time>2011-01-22T14:27:18Z</time>
      </trkpt>
      <trkpt lat="44.94138" lon="6.55516">
        <ele>1615</ele>
        <time>2011-01-22T14:27:19Z</time>
      </trkpt>
      <trkpt lat="44.94139" lon="6.5554">
        <ele>1611.8</ele>
        <time>2011-01-22T14:27:21Z</time>
      </trkpt>
      <trkpt lat="44.94139" lon="6.55552">
        <ele>1610</ele>
        <time>2011-01-22T14:27:22Z</time>
      </trkpt>
      <trkpt lat="44.94142" lon="6.55576">
        <ele>1606.8</ele>
        <time>2011-01-22T14:27:24Z</time>
      </trkpt>
      <trkpt lat="44.94146" lon="6.55602">
        <ele>1603.6</ele>
        <time>2011-01-22T14:27:26Z</time>
      </trkpt>
      <trkpt lat="44.94151" lon="6.55613">
        <ele>1601.8</ele>
        <time>2011-01-22T14:27:27Z</time>
      </trkpt>
      <trkpt lat="44.94158" lon="6.55625">
        <ele>1600.2</ele>
        <time>2011-01-22T14:27:28Z</time>
      </trkpt>
      <trkpt lat="44.9417" lon="6.5565">
        <ele>1597</ele>
        <time>2011-01-22T14:27:30Z</time>
      </trkpt>
      <trkpt lat="44.94181" lon="6.5566">
        <ele>1595.4</ele>
        <time>2011-01-22T14:27:31Z</time>
      </trkpt>
      <trkpt lat="44.94191" lon="6.5567">
        <ele>1593.6</ele>
        <time>2011-01-22T14:27:32Z</time>
      </trkpt>
      <trkpt lat="44.94199" lon="6.5568">
        <ele>1592</ele>
        <time>2011-01-22T14:27:33Z</time>
      </trkpt>
      <trkpt lat="44.94205" lon="6.55691">
        <ele>1590.4</ele>
        <time>2011-01-22T14:27:34Z</time>
      </trkpt>
      <trkpt lat="44.9422" lon="6.55714">
        <ele>1587.2</ele>
        <time>2011-01-22T14:27:36Z</time>
      </trkpt>
      <trkpt lat="44.94226" lon="6.55726">
        <ele>1585.6</ele>
        <time>2011-01-22T14:27:37Z</time>
      </trkpt>
      <trkpt lat="44.94229" lon="6.5574">
        <ele>1584</ele>
        <time>2011-01-22T14:27:38Z</time>
      </trkpt>
      <trkpt lat="44.94232" lon="6.55766">
        <ele>1580.8</ele>
        <time>2011-01-22T14:27:40Z</time>
      </trkpt>
      <trkpt lat="44.94246" lon="6.55793">
        <ele>1576</ele>
        <time>2011-01-22T14:27:43Z</time>
      </trkpt>
      <trkpt lat="44.94262" lon="6.55799">
        <ele>1572.8</ele>
        <time>2011-01-22T14:27:45Z</time>
      </trkpt>
      <trkpt lat="44.9427" lon="6.55803">
        <ele>1571.2</ele>
        <time>2011-01-22T14:27:46Z</time>
      </trkpt>
      <trkpt lat="44.94287" lon="6.55825">
        <ele>1566.6</ele>
        <time>2011-01-22T14:27:49Z</time>
      </trkpt>
      <trkpt lat="44.94291" lon="6.55841">
        <ele>1563.6</ele>
        <time>2011-01-22T14:27:51Z</time>
      </trkpt>
      <trkpt lat="44.94295" lon="6.55855">
        <ele>1560.6</ele>
        <time>2011-01-22T14:27:53Z</time>
      </trkpt>
      <trkpt lat="44.94303" lon="6.55879">
        <ele>1553.6</ele>
        <time>2011-01-22T14:27:58Z</time>
      </trkpt>
      <trkpt lat="44.94305" lon="6.55884">
        <ele>1552.2</ele>
        <time>2011-01-22T14:27:59Z</time>
      </trkpt>
      <trkpt lat="44.94306" lon="6.5589">
        <ele>1549.6</ele>
        <time>2011-01-22T14:28:01Z</time>
      </trkpt>
      <trkpt lat="44.94306" lon="6.55892">
        <ele>1547</ele>
        <time>2011-01-22T14:28:03Z</time>
      </trkpt>
      <trkpt lat="44.94306" lon="6.55896">
        <ele>1543.2</ele>
        <time>2011-01-22T14:28:06Z</time>
      </trkpt>
      <trkpt lat="44.94306" lon="6.55896">
        <ele>1540.8</ele>
        <time>2011-01-22T14:28:08Z</time>
      </trkpt>
      <trkpt lat="44.94306" lon="6.55896">
        <ele>1534.8</ele>
        <time>2011-01-22T14:28:13Z</time>
      </trkpt>
      <trkpt lat="44.94305" lon="6.55895">
        <ele>1456.2</ele>
        <time>2011-01-22T14:29:59Z</time>
      </trkpt>
      <trkpt lat="44.94306" lon="6.55894">
        <ele>1436.8</ele>
        <time>2011-01-22T14:30:53Z</time>
      </trkpt>
      <trkpt lat="44.94303" lon="6.55895">
        <ele>1435.2</ele>
        <time>2011-01-22T14:30:59Z</time>
      </trkpt>
      <trkpt lat="44.94299" lon="6.55896">
        <ele>1433.6</ele>
        <time>2011-01-22T14:31:05Z</time>
      </trkpt>
      <trkpt lat="44.94296" lon="6.55895">
        <ele>1431.8</ele>
        <time>2011-01-22T14:31:12Z</time>
      </trkpt>
      <trkpt lat="44.94292" lon="6.55894">
        <ele>1430</ele>
        <time>2011-01-22T14:31:20Z</time>
      </trkpt>
      <trkpt lat="44.9429" lon="6.55893">
        <ele>1428.8</ele>
        <time>2011-01-22T14:31:25Z</time>
      </trkpt>
      <trkpt lat="44.94288" lon="6.55893">
        <ele>1428.2</ele>
        <time>2011-01-22T14:31:28Z</time>
      </trkpt>
      <trkpt lat="44.94287" lon="6.55893">
        <ele>1427.8</ele>
        <time>2011-01-22T14:31:30Z</time>
      </trkpt>
      <trkpt lat="44.94285" lon="6.55892">
        <ele>1426.4</ele>
        <time>2011-01-22T14:31:36Z</time>
      </trkpt>
      <trkpt lat="44.94278" lon="6.55889">
        <ele>1425</ele>
        <time>2011-01-22T14:31:42Z</time>
      </trkpt>
      <trkpt lat="44.94267" lon="6.55885">
        <ele>1424.4</ele>
        <time>2011-01-22T14:31:45Z</time>
      </trkpt>
      <trkpt lat="44.94263" lon="6.55884">
        <ele>1424.2</ele>
        <time>2011-01-22T14:31:46Z</time>
      </trkpt>
      <trkpt lat="44.94247" lon="6.55877">
        <ele>1424</ele>
        <time>2011-01-22T14:31:50Z</time>
      </trkpt>
      <trkpt lat="44.9424" lon="6.55873">
        <ele>1424</ele>
        <time>2011-01-22T14:31:52Z</time>
      </trkpt>
      <trkpt lat="44.94229" lon="6.55868">
        <ele>1424</ele>
        <time>2011-01-22T14:31:55Z</time>
      </trkpt>
      <trkpt lat="44.94217" lon="6.55863">
        <ele>1424.2</ele>
        <time>2011-01-22T14:31:58Z</time>
      </trkpt>
      <trkpt lat="44.94209" lon="6.5586">
        <ele>1424.2</ele>
        <time>2011-01-22T14:32:00Z</time>
      </trkpt>
      <trkpt lat="44.9419" lon="6.55852">
        <ele>1424.8</ele>
        <time>2011-01-22T14:32:05Z</time>
      </trkpt>
      <trkpt lat="44.9417" lon="6.55844">
        <ele>1425.8</ele>
        <time>2011-01-22T14:32:10Z</time>
      </trkpt>
      <trkpt lat="44.94158" lon="6.55839">
        <ele>1426.6</ele>
        <time>2011-01-22T14:32:13Z</time>
      </trkpt>
      <trkpt lat="44.9415" lon="6.55836">
        <ele>1427</ele>
        <time>2011-01-22T14:32:15Z</time>
      </trkpt>
      <trkpt lat="44.9413" lon="6.55829">
        <ele>1428.6</ele>
        <time>2011-01-22T14:32:20Z</time>
      </trkpt>
      <trkpt lat="44.94127" lon="6.55828">
        <ele>1428.8</ele>
        <time>2011-01-22T14:32:21Z</time>
      </trkpt>
      <trkpt lat="44.94111" lon="6.55822">
        <ele>1430.2</ele>
        <time>2011-01-22T14:32:25Z</time>
      </trkpt>
      <trkpt lat="44.94092" lon="6.55814">
        <ele>1432</ele>
        <time>2011-01-22T14:32:30Z</time>
      </trkpt>
      <trkpt lat="44.94088" lon="6.55812">
        <ele>1432.4</ele>
        <time>2011-01-22T14:32:31Z</time>
      </trkpt>
      <trkpt lat="44.94073" lon="6.55806">
        <ele>1434.4</ele>
        <time>2011-01-22T14:32:35Z</time>
      </trkpt>
      <trkpt lat="44.94056" lon="6.55799">
        <ele>1437.8</ele>
        <time>2011-01-22T14:32:40Z</time>
      </trkpt>
      <trkpt lat="44.94038" lon="6.55791">
        <ele>1442</ele>
        <time>2011-01-22T14:32:45Z</time>
      </trkpt>
      <trkpt lat="44.94024" lon="6.55785">
        <ele>1445.8</ele>
        <time>2011-01-22T14:32:49Z</time>
      </trkpt>
      <trkpt lat="44.94017" lon="6.55782">
        <ele>1447.8</ele>
        <time>2011-01-22T14:32:51Z</time>
      </trkpt>
      <trkpt lat="44.94003" lon="6.55776">
        <ele>1451.8</ele>
        <time>2011-01-22T14:32:55Z</time>
      </trkpt>
      <trkpt lat="44.93999" lon="6.55775">
        <ele>1452.8</ele>
        <time>2011-01-22T14:32:56Z</time>
      </trkpt>
      <trkpt lat="44.93982" lon="6.55767">
        <ele>1458.2</ele>
        <time>2011-01-22T14:33:01Z</time>
      </trkpt>
      <trkpt lat="44.93975" lon="6.55764">
        <ele>1460.4</ele>
        <time>2011-01-22T14:33:03Z</time>
      </trkpt>
      <trkpt lat="44.93965" lon="6.5576">
        <ele>1464</ele>
        <time>2011-01-22T14:33:06Z</time>
      </trkpt>
      <trkpt lat="44.9395" lon="6.55755">
        <ele>1469</ele>
        <time>2011-01-22T14:33:10Z</time>
      </trkpt>
      <trkpt lat="44.93944" lon="6.55752">
        <ele>1471.6</ele>
        <time>2011-01-22T14:33:12Z</time>
      </trkpt>
      <trkpt lat="44.93927" lon="6.55745">
        <ele>1478.4</ele>
        <time>2011-01-22T14:33:17Z</time>
      </trkpt>
      <trkpt lat="44.93924" lon="6.55743">
        <ele>1479.6</ele>
        <time>2011-01-22T14:33:18Z</time>
      </trkpt>
      <trkpt lat="44.93906" lon="6.55735">
        <ele>1486.6</ele>
        <time>2011-01-22T14:33:23Z</time>
      </trkpt>
      <trkpt lat="44.93895" lon="6.55731">
        <ele>1490.6</ele>
        <time>2011-01-22T14:33:26Z</time>
      </trkpt>
      <trkpt lat="44.93888" lon="6.55728">
        <ele>1493.4</ele>
        <time>2011-01-22T14:33:28Z</time>
      </trkpt>
      <trkpt lat="44.9387" lon="6.55721">
        <ele>1500.2</ele>
        <time>2011-01-22T14:33:33Z</time>
      </trkpt>
      <trkpt lat="44.93859" lon="6.55716">
        <ele>1504.4</ele>
        <time>2011-01-22T14:33:36Z</time>
      </trkpt>
      <trkpt lat="44.93852" lon="6.55713">
        <ele>1507.2</ele>
        <time>2011-01-22T14:33:38Z</time>
      </trkpt>
      <trkpt lat="44.93834" lon="6.55706">
        <ele>1514.6</ele>
        <time>2011-01-22T14:33:43Z</time>
      </trkpt>
      <trkpt lat="44.93827" lon="6.55703">
        <ele>1517.6</ele>
        <time>2011-01-22T14:33:45Z</time>
      </trkpt>
      <trkpt lat="44.93816" lon="6.55699">
        <ele>1522.2</ele>
        <time>2011-01-22T14:33:48Z</time>
      </trkpt>
      <trkpt lat="44.93798" lon="6.55692">
        <ele>1529.6</ele>
        <time>2011-01-22T14:33:53Z</time>
      </trkpt>
      <trkpt lat="44.93779" lon="6.55685">
        <ele>1537</ele>
        <time>2011-01-22T14:33:58Z</time>
      </trkpt>
      <trkpt lat="44.93765" lon="6.5568">
        <ele>1543</ele>
        <time>2011-01-22T14:34:02Z</time>
      </trkpt>
      <trkpt lat="44.93761" lon="6.55678">
        <ele>1544.6</ele>
        <time>2011-01-22T14:34:03Z</time>
      </trkpt>
      <trkpt lat="44.93743" lon="6.55671">
        <ele>1552.4</ele>
        <time>2011-01-22T14:34:08Z</time>
      </trkpt>
      <trkpt lat="44.93725" lon="6.55664">
        <ele>1560.2</ele>
        <time>2011-01-22T14:34:13Z</time>
      </trkpt>
      <trkpt lat="44.93708" lon="6.55657">
        <ele>1568.4</ele>
        <time>2011-01-22T14:34:18Z</time>
      </trkpt>
      <trkpt lat="44.93701" lon="6.55655">
        <ele>1571.8</ele>
        <time>2011-01-22T14:34:20Z</time>
      </trkpt>
      <trkpt lat="44.9369" lon="6.5565">
        <ele>1576.8</ele>
        <time>2011-01-22T14:34:23Z</time>
      </trkpt>
      <trkpt lat="44.93679" lon="6.55646">
        <ele>1581.8</ele>
        <time>2011-01-22T14:34:26Z</time>
      </trkpt>
      <trkpt lat="44.93672" lon="6.55643">
        <ele>1585</ele>
        <time>2011-01-22T14:34:28Z</time>
      </trkpt>
      <trkpt lat="44.93665" lon="6.5564">
        <ele>1588.4</ele>
        <time>2011-01-22T14:34:30Z</time>
      </trkpt>
      <trkpt lat="44.93654" lon="6.55635">
        <ele>1593.4</ele>
        <time>2011-01-22T14:34:33Z</time>
      </trkpt>
      <trkpt lat="44.93651" lon="6.55634">
        <ele>1595</ele>
        <time>2011-01-22T14:34:34Z</time>
      </trkpt>
      <trkpt lat="44.93637" lon="6.55628">
        <ele>1601.6</ele>
        <time>2011-01-22T14:34:38Z</time>
      </trkpt>
      <trkpt lat="44.93618" lon="6.5562">
        <ele>1609.6</ele>
        <time>2011-01-22T14:34:43Z</time>
      </trkpt>
      <trkpt lat="44.93599" lon="6.55613">
        <ele>1617.2</ele>
        <time>2011-01-22T14:34:48Z</time>
      </trkpt>
      <trkpt lat="44.93588" lon="6.55608">
        <ele>1621.6</ele>
        <time>2011-01-22T14:34:51Z</time>
      </trkpt>
      <trkpt lat="44.93581" lon="6.55605">
        <ele>1624.6</ele>
        <time>2011-01-22T14:34:53Z</time>
      </trkpt>
      <trkpt lat="44.93562" lon="6.55597">
        <ele>1631.4</ele>
        <time>2011-01-22T14:34:58Z</time>
      </trkpt>
      <trkpt lat="44.93558" lon="6.55595">
        <ele>1632.8</ele>
        <time>2011-01-22T14:34:59Z</time>
      </trkpt>
      <trkpt lat="44.93543" lon="6.55589">
        <ele>1637.8</ele>
        <time>2011-01-22T14:35:03Z</time>
      </trkpt>
      <trkpt lat="44.93524" lon="6.55581">
        <ele>1643.4</ele>
        <time>2011-01-22T14:35:08Z</time>
      </trkpt>
      <trkpt lat="44.93513" lon="6.55577">
        <ele>1646.8</ele>
        <time>2011-01-22T14:35:11Z</time>
      </trkpt>
      <trkpt lat="44.93505" lon="6.55574">
        <ele>1648.8</ele>
        <time>2011-01-22T14:35:13Z</time>
      </trkpt>
      <trkpt lat="44.93486" lon="6.55565">
        <ele>1653.8</ele>
        <time>2011-01-22T14:35:18Z</time>
      </trkpt>
      <trkpt lat="44.9347" lon="6.55559">
        <ele>1657.4</ele>
        <time>2011-01-22T14:35:22Z</time>
      </trkpt>
      <trkpt lat="44.93466" lon="6.55557">
        <ele>1658.4</ele>
        <time>2011-01-22T14:35:23Z</time>
      </trkpt>
      <trkpt lat="44.93447" lon="6.55549">
        <ele>1662.6</ele>
        <time>2011-01-22T14:35:28Z</time>
      </trkpt>
      <trkpt lat="44.93429" lon="6.5554">
        <ele>1666.4</ele>
        <time>2011-01-22T14:35:33Z</time>
      </trkpt>
      <trkpt lat="44.9341" lon="6.55532">
        <ele>1670.2</ele>
        <time>2011-01-22T14:35:38Z</time>
      </trkpt>
      <trkpt lat="44.93392" lon="6.55524">
        <ele>1674.2</ele>
        <time>2011-01-22T14:35:43Z</time>
      </trkpt>
      <trkpt lat="44.93374" lon="6.55517">
        <ele>1678.6</ele>
        <time>2011-01-22T14:35:48Z</time>
      </trkpt>
      <trkpt lat="44.93371" lon="6.55515">
        <ele>1679.6</ele>
        <time>2011-01-22T14:35:49Z</time>
      </trkpt>
      <trkpt lat="44.93354" lon="6.55508">
        <ele>1684.8</ele>
        <time>2011-01-22T14:35:54Z</time>
      </trkpt>
      <trkpt lat="44.93343" lon="6.55504">
        <ele>1688.2</ele>
        <time>2011-01-22T14:35:57Z</time>
      </trkpt>
      <trkpt lat="44.93336" lon="6.55501">
        <ele>1690.6</ele>
        <time>2011-01-22T14:35:59Z</time>
      </trkpt>
      <trkpt lat="44.93318" lon="6.55493">
        <ele>1696.8</ele>
        <time>2011-01-22T14:36:04Z</time>
      </trkpt>
      <trkpt lat="44.93314" lon="6.55491">
        <ele>1698</ele>
        <time>2011-01-22T14:36:05Z</time>
      </trkpt>
      <trkpt lat="44.93299" lon="6.55485">
        <ele>1702.6</ele>
        <time>2011-01-22T14:36:09Z</time>
      </trkpt>
      <trkpt lat="44.93284" lon="6.5548">
        <ele>1707.4</ele>
        <time>2011-01-22T14:36:13Z</time>
      </trkpt>
      <trkpt lat="44.9328" lon="6.55479">
        <ele>1708.8</ele>
        <time>2011-01-22T14:36:14Z</time>
      </trkpt>
      <trkpt lat="44.93261" lon="6.55471">
        <ele>1715</ele>
        <time>2011-01-22T14:36:19Z</time>
      </trkpt>
      <trkpt lat="44.93247" lon="6.55465">
        <ele>1720</ele>
        <time>2011-01-22T14:36:23Z</time>
      </trkpt>
      <trkpt lat="44.93243" lon="6.55463">
        <ele>1721.2</ele>
        <time>2011-01-22T14:36:24Z</time>
      </trkpt>
      <trkpt lat="44.93225" lon="6.55456">
        <ele>1727.8</ele>
        <time>2011-01-22T14:36:29Z</time>
      </trkpt>
      <trkpt lat="44.93214" lon="6.55452">
        <ele>1731.6</ele>
        <time>2011-01-22T14:36:32Z</time>
      </trkpt>
      <trkpt lat="44.93207" lon="6.55449">
        <ele>1734.4</ele>
        <time>2011-01-22T14:36:34Z</time>
      </trkpt>
      <trkpt lat="44.93189" lon="6.55442">
        <ele>1741.2</ele>
        <time>2011-01-22T14:36:39Z</time>
      </trkpt>
      <trkpt lat="44.93185" lon="6.55441">
        <ele>1742.6</ele>
        <time>2011-01-22T14:36:40Z</time>
      </trkpt>
      <trkpt lat="44.9317" lon="6.55435">
        <ele>1748.2</ele>
        <time>2011-01-22T14:36:44Z</time>
      </trkpt>
      <trkpt lat="44.93152" lon="6.55428">
        <ele>1755.4</ele>
        <time>2011-01-22T14:36:49Z</time>
      </trkpt>
      <trkpt lat="44.93134" lon="6.55422">
        <ele>1763</ele>
        <time>2011-01-22T14:36:54Z</time>
      </trkpt>
      <trkpt lat="44.9313" lon="6.5542">
        <ele>1764.6</ele>
        <time>2011-01-22T14:36:55Z</time>
      </trkpt>
      <trkpt lat="44.93113" lon="6.55413">
        <ele>1772.6</ele>
        <time>2011-01-22T14:37:00Z</time>
      </trkpt>
      <trkpt lat="44.9311" lon="6.55412">
        <ele>1774.2</ele>
        <time>2011-01-22T14:37:01Z</time>
      </trkpt>
      <trkpt lat="44.93093" lon="6.55405">
        <ele>1782.4</ele>
        <time>2011-01-22T14:37:06Z</time>
      </trkpt>
      <trkpt lat="44.9308" lon="6.554">
        <ele>1789.4</ele>
        <time>2011-01-22T14:37:10Z</time>
      </trkpt>
      <trkpt lat="44.93072" lon="6.55397">
        <ele>1792.8</ele>
        <time>2011-01-22T14:37:12Z</time>
      </trkpt>
      <trkpt lat="44.93058" lon="6.55391">
        <ele>1799.4</ele>
        <time>2011-01-22T14:37:16Z</time>
      </trkpt>
      <trkpt lat="44.93054" lon="6.5539">
        <ele>1801.2</ele>
        <time>2011-01-22T14:37:17Z</time>
      </trkpt>
      <trkpt lat="44.93036" lon="6.55382">
        <ele>1809.6</ele>
        <time>2011-01-22T14:37:22Z</time>
      </trkpt>
      <trkpt lat="44.93029" lon="6.55379">
        <ele>1813</ele>
        <time>2011-01-22T14:37:24Z</time>
      </trkpt>
      <trkpt lat="44.93018" lon="6.55375">
        <ele>1818</ele>
        <time>2011-01-22T14:37:27Z</time>
      </trkpt>
      <trkpt lat="44.93" lon="6.55368">
        <ele>1826.6</ele>
        <time>2011-01-22T14:37:32Z</time>
      </trkpt>
      <trkpt lat="44.92982" lon="6.5536">
        <ele>1835.2</ele>
        <time>2011-01-22T14:37:37Z</time>
      </trkpt>
      <trkpt lat="44.92963" lon="6.55353">
        <ele>1843.4</ele>
        <time>2011-01-22T14:37:42Z</time>
      </trkpt>
      <trkpt lat="44.92949" lon="6.55347">
        <ele>1849.8</ele>
        <time>2011-01-22T14:37:46Z</time>
      </trkpt>
      <trkpt lat="44.92945" lon="6.55345">
        <ele>1851.4</ele>
        <time>2011-01-22T14:37:47Z</time>
      </trkpt>
      <trkpt lat="44.92927" lon="6.55338">
        <ele>1859</ele>
        <time>2011-01-22T14:37:52Z</time>
      </trkpt>
      <trkpt lat="44.92909" lon="6.5533">
        <ele>1866.8</ele>
        <time>2011-01-22T14:37:57Z</time>
      </trkpt>
      <trkpt lat="44.92905" lon="6.55329">
        <ele>1868.2</ele>
        <time>2011-01-22T14:37:58Z</time>
      </trkpt>
      <trkpt lat="44.92891" lon="6.55323">
        <ele>1874.4</ele>
        <time>2011-01-22T14:38:02Z</time>
      </trkpt>
      <trkpt lat="44.92873" lon="6.55315">
        <ele>1882.2</ele>
        <time>2011-01-22T14:38:07Z</time>
      </trkpt>
      <trkpt lat="44.92856" lon="6.55308">
        <ele>1890.2</ele>
        <time>2011-01-22T14:38:12Z</time>
      </trkpt>
      <trkpt lat="44.92838" lon="6.55301">
        <ele>1898.6</ele>
        <time>2011-01-22T14:38:17Z</time>
      </trkpt>
      <trkpt lat="44.9282" lon="6.55293">
        <ele>1906.6</ele>
        <time>2011-01-22T14:38:22Z</time>
      </trkpt>
      <trkpt lat="44.92809" lon="6.55289">
        <ele>1911.4</ele>
        <time>2011-01-22T14:38:25Z</time>
      </trkpt>
      <trkpt lat="44.92801" lon="6.55286">
        <ele>1914.4</ele>
        <time>2011-01-22T14:38:27Z</time>
      </trkpt>
      <trkpt lat="44.92783" lon="6.55279">
        <ele>1922.2</ele>
        <time>2011-01-22T14:38:32Z</time>
      </trkpt>
      <trkpt lat="44.92769" lon="6.55273">
        <ele>1928.2</ele>
        <time>2011-01-22T14:38:36Z</time>
      </trkpt>
      <trkpt lat="44.92765" lon="6.55271">
        <ele>1929.8</ele>
        <time>2011-01-22T14:38:37Z</time>
      </trkpt>
      <trkpt lat="44.92746" lon="6.55264">
        <ele>1937.2</ele>
        <time>2011-01-22T14:38:42Z</time>
      </trkpt>
      <trkpt lat="44.92738" lon="6.55261">
        <ele>1940</ele>
        <time>2011-01-22T14:38:44Z</time>
      </trkpt>
      <trkpt lat="44.92727" lon="6.55256">
        <ele>1944.2</ele>
        <time>2011-01-22T14:38:47Z</time>
      </trkpt>
      <trkpt lat="44.92711" lon="6.5525">
        <ele>1949.6</ele>
        <time>2011-01-22T14:38:51Z</time>
      </trkpt>
      <trkpt lat="44.92707" lon="6.55248">
        <ele>1951</ele>
        <time>2011-01-22T14:38:52Z</time>
      </trkpt>
      <trkpt lat="44.92689" lon="6.55241">
        <ele>1957.6</ele>
        <time>2011-01-22T14:38:57Z</time>
      </trkpt>
      <trkpt lat="44.9267" lon="6.55234">
        <ele>1964.2</ele>
        <time>2011-01-22T14:39:02Z</time>
      </trkpt>
      <trkpt lat="44.92656" lon="6.55228">
        <ele>1969.8</ele>
        <time>2011-01-22T14:39:06Z</time>
      </trkpt>
      <trkpt lat="44.92652" lon="6.55227">
        <ele>1971.2</ele>
        <time>2011-01-22T14:39:07Z</time>
      </trkpt>
      <trkpt lat="44.92635" lon="6.5522">
        <ele>1978.4</ele>
        <time>2011-01-22T14:39:12Z</time>
      </trkpt>
      <trkpt lat="44.92618" lon="6.55213">
        <ele>1986.2</ele>
        <time>2011-01-22T14:39:17Z</time>
      </trkpt>
      <trkpt lat="44.92611" lon="6.5521">
        <ele>1989.4</ele>
        <time>2011-01-22T14:39:19Z</time>
      </trkpt>
      <trkpt lat="44.92597" lon="6.55204">
        <ele>1995.8</ele>
        <time>2011-01-22T14:39:23Z</time>
      </trkpt>
      <trkpt lat="44.92579" lon="6.55196">
        <ele>2004</ele>
        <time>2011-01-22T14:39:28Z</time>
      </trkpt>
      <trkpt lat="44.92575" lon="6.55195">
        <ele>2005.6</ele>
        <time>2011-01-22T14:39:29Z</time>
      </trkpt>
      <trkpt lat="44.92561" lon="6.55189">
        <ele>2012.4</ele>
        <time>2011-01-22T14:39:33Z</time>
      </trkpt>
      <trkpt lat="44.92544" lon="6.55181">
        <ele>2020.8</ele>
        <time>2011-01-22T14:39:38Z</time>
      </trkpt>
      <trkpt lat="44.92527" lon="6.55174">
        <ele>2029.6</ele>
        <time>2011-01-22T14:39:43Z</time>
      </trkpt>
      <trkpt lat="44.92523" lon="6.55173">
        <ele>2031.4</ele>
        <time>2011-01-22T14:39:44Z</time>
      </trkpt>
      <trkpt lat="44.92509" lon="6.55166">
        <ele>2038.4</ele>
        <time>2011-01-22T14:39:48Z</time>
      </trkpt>
      <trkpt lat="44.92491" lon="6.55159">
        <ele>2047</ele>
        <time>2011-01-22T14:39:53Z</time>
      </trkpt>
      <trkpt lat="44.92487" lon="6.55157">
        <ele>2048.8</ele>
        <time>2011-01-22T14:39:54Z</time>
      </trkpt>
      <trkpt lat="44.92473" lon="6.55151">
        <ele>2055.8</ele>
        <time>2011-01-22T14:39:58Z</time>
      </trkpt>
      <trkpt lat="44.92455" lon="6.55144">
        <ele>2064.6</ele>
        <time>2011-01-22T14:40:03Z</time>
      </trkpt>
      <trkpt lat="44.92448" lon="6.55141">
        <ele>2068.2</ele>
        <time>2011-01-22T14:40:05Z</time>
      </trkpt>
      <trkpt lat="44.92438" lon="6.55137">
        <ele>2073.6</ele>
        <time>2011-01-22T14:40:08Z</time>
      </trkpt>
      <trkpt lat="44.92417" lon="6.55128">
        <ele>2084.6</ele>
        <time>2011-01-22T14:40:14Z</time>
      </trkpt>
      <trkpt lat="44.92407" lon="6.55124">
        <ele>2090.2</ele>
        <time>2011-01-22T14:40:17Z</time>
      </trkpt>
      <trkpt lat="44.924" lon="6.55121">
        <ele>2093.8</ele>
        <time>2011-01-22T14:40:19Z</time>
      </trkpt>
      <trkpt lat="44.92382" lon="6.55115">
        <ele>2103.4</ele>
        <time>2011-01-22T14:40:24Z</time>
      </trkpt>
      <trkpt lat="44.92362" lon="6.55107">
        <ele>2115.2</ele>
        <time>2011-01-22T14:40:30Z</time>
      </trkpt>
      <trkpt lat="44.92342" lon="6.55099">
        <ele>2127.2</ele>
        <time>2011-01-22T14:40:36Z</time>
      </trkpt>
      <trkpt lat="44.92322" lon="6.55091">
        <ele>2139.4</ele>
        <time>2011-01-22T14:40:42Z</time>
      </trkpt>
      <trkpt lat="44.92319" lon="6.55089">
        <ele>2141.2</ele>
        <time>2011-01-22T14:40:43Z</time>
      </trkpt>
      <trkpt lat="44.92305" lon="6.55084">
        <ele>2149</ele>
        <time>2011-01-22T14:40:47Z</time>
      </trkpt>
      <trkpt lat="44.92293" lon="6.55079">
        <ele>2154.6</ele>
        <time>2011-01-22T14:40:50Z</time>
      </trkpt>
      <trkpt lat="44.92286" lon="6.55076">
        <ele>2158.2</ele>
        <time>2011-01-22T14:40:52Z</time>
      </trkpt>
      <trkpt lat="44.9227" lon="6.5507">
        <ele>2165</ele>
        <time>2011-01-22T14:40:56Z</time>
      </trkpt>
      <trkpt lat="44.92267" lon="6.55069">
        <ele>2166.6</ele>
        <time>2011-01-22T14:40:57Z</time>
      </trkpt>
      <trkpt lat="44.92248" lon="6.55061">
        <ele>2174.6</ele>
        <time>2011-01-22T14:41:02Z</time>
      </trkpt>
      <trkpt lat="44.92244" lon="6.5506">
        <ele>2176.2</ele>
        <time>2011-01-22T14:41:03Z</time>
      </trkpt>
      <trkpt lat="44.9223" lon="6.55054">
        <ele>2182</ele>
        <time>2011-01-22T14:41:07Z</time>
      </trkpt>
      <trkpt lat="44.92211" lon="6.55046">
        <ele>2189.4</ele>
        <time>2011-01-22T14:41:12Z</time>
      </trkpt>
      <trkpt lat="44.92207" lon="6.55045">
        <ele>2190.8</ele>
        <time>2011-01-22T14:41:13Z</time>
      </trkpt>
      <trkpt lat="44.92192" lon="6.55039">
        <ele>2196.4</ele>
        <time>2011-01-22T14:41:17Z</time>
      </trkpt>
      <trkpt lat="44.92173" lon="6.55031">
        <ele>2203</ele>
        <time>2011-01-22T14:41:22Z</time>
      </trkpt>
      <trkpt lat="44.92157" lon="6.55025">
        <ele>2208</ele>
        <time>2011-01-22T14:41:26Z</time>
      </trkpt>
      <trkpt lat="44.92153" lon="6.55023">
        <ele>2209.4</ele>
        <time>2011-01-22T14:41:27Z</time>
      </trkpt>
      <trkpt lat="44.92134" lon="6.55016">
        <ele>2215.4</ele>
        <time>2011-01-22T14:41:32Z</time>
      </trkpt>
      <trkpt lat="44.92115" lon="6.55008">
        <ele>2221.4</ele>
        <time>2011-01-22T14:41:37Z</time>
      </trkpt>
      <trkpt lat="44.92097" lon="6.55">
        <ele>2227.4</ele>
        <time>2011-01-22T14:41:42Z</time>
      </trkpt>
      <trkpt lat="44.92089" lon="6.54997">
        <ele>2229.8</ele>
        <time>2011-01-22T14:41:44Z</time>
      </trkpt>
      <trkpt lat="44.92078" lon="6.54992">
        <ele>2233.4</ele>
        <time>2011-01-22T14:41:47Z</time>
      </trkpt>
      <trkpt lat="44.92059" lon="6.54985">
        <ele>2239.2</ele>
        <time>2011-01-22T14:41:52Z</time>
      </trkpt>
      <trkpt lat="44.92045" lon="6.54979">
        <ele>2244</ele>
        <time>2011-01-22T14:41:56Z</time>
      </trkpt>
      <trkpt lat="44.92041" lon="6.54977">
        <ele>2245.2</ele>
        <time>2011-01-22T14:41:57Z</time>
      </trkpt>
      <trkpt lat="44.92023" lon="6.54969">
        <ele>2250.6</ele>
        <time>2011-01-22T14:42:02Z</time>
      </trkpt>
      <trkpt lat="44.92007" lon="6.54962">
        <ele>2255.8</ele>
        <time>2011-01-22T14:42:07Z</time>
      </trkpt>
      <trkpt lat="44.92004" lon="6.5496">
        <ele>2256.6</ele>
        <time>2011-01-22T14:42:08Z</time>
      </trkpt>
      <trkpt lat="44.91999" lon="6.54948">
        <ele>2258.8</ele>
        <time>2011-01-22T14:42:11Z</time>
      </trkpt>
      <trkpt lat="44.91999" lon="6.54937">
        <ele>2261.6</ele>
        <time>2011-01-22T14:42:15Z</time>
      </trkpt>
      <trkpt lat="44.91999" lon="6.54936">
        <ele>2263.6</ele>
        <time>2011-01-22T14:42:18Z</time>
      </trkpt>
      <trkpt lat="44.91999" lon="6.54935">
        <ele>2267.4</ele>
        <time>2011-01-22T14:42:25Z</time>
      </trkpt>
      <trkpt lat="44.92" lon="6.54929">
        <ele>2270.4</ele>
        <time>2011-01-22T14:42:32Z</time>
      </trkpt>
      <trkpt lat="44.92005" lon="6.54915">
        <ele>2272</ele>
        <time>2011-01-22T14:42:37Z</time>
      </trkpt>
      <trkpt lat="44.92007" lon="6.54909">
        <ele>2272.2</ele>
        <time>2011-01-22T14:42:38Z</time>
      </trkpt>
      <trkpt lat="44.92009" lon="6.5489">
        <ele>2272.2</ele>
        <time>2011-01-22T14:42:40Z</time>
      </trkpt>
      <trkpt lat="44.92009" lon="6.54879">
        <ele>2272.2</ele>
        <time>2011-01-22T14:42:41Z</time>
      </trkpt>
      <trkpt lat="44.92008" lon="6.54867">
        <ele>2272</ele>
        <time>2011-01-22T14:42:42Z</time>
      </trkpt>
      <trkpt lat="44.92005" lon="6.54853">
        <ele>2271.8</ele>
        <time>2011-01-22T14:42:43Z</time>
      </trkpt>
      <trkpt lat="44.91996" lon="6.54823">
        <ele>2271.8</ele>
        <time>2011-01-22T14:42:45Z</time>
      </trkpt>
      <trkpt lat="44.91992" lon="6.54807">
        <ele>2271.6</ele>
        <time>2011-01-22T14:42:46Z</time>
      </trkpt>
      <trkpt lat="44.91985" lon="6.5479">
        <ele>2271.4</ele>
        <time>2011-01-22T14:42:47Z</time>
      </trkpt>
      <trkpt lat="44.91967" lon="6.54758">
        <ele>2270.8</ele>
        <time>2011-01-22T14:42:49Z</time>
      </trkpt>
      <trkpt lat="44.91959" lon="6.54741">
        <ele>2270.4</ele>
        <time>2011-01-22T14:42:50Z</time>
      </trkpt>
      <trkpt lat="44.91953" lon="6.54722">
        <ele>2270</ele>
        <time>2011-01-22T14:42:51Z</time>
      </trkpt>
      <trkpt lat="44.91948" lon="6.54698">
        <ele>2269.6</ele>
        <time>2011-01-22T14:42:52Z</time>
      </trkpt>
      <trkpt lat="44.91946" lon="6.5465">
        <ele>2268.6</ele>
        <time>2011-01-22T14:42:54Z</time>
      </trkpt>
      <trkpt lat="44.91948" lon="6.54624">
        <ele>2268</ele>
        <time>2011-01-22T14:42:55Z</time>
      </trkpt>
      <trkpt lat="44.91949" lon="6.54598">
        <ele>2267.4</ele>
        <time>2011-01-22T14:42:56Z</time>
      </trkpt>
      <trkpt lat="44.91948" lon="6.54575">
        <ele>2266.8</ele>
        <time>2011-01-22T14:42:57Z</time>
      </trkpt>
      <trkpt lat="44.91948" lon="6.54553">
        <ele>2266.2</ele>
        <time>2011-01-22T14:42:58Z</time>
      </trkpt>
      <trkpt lat="44.91947" lon="6.54533">
        <ele>2265.6</ele>
        <time>2011-01-22T14:42:59Z</time>
      </trkpt>
      <trkpt lat="44.91944" lon="6.54514">
        <ele>2264.8</ele>
        <time>2011-01-22T14:43:00Z</time>
      </trkpt>
      <trkpt lat="44.91935" lon="6.54478">
        <ele>2263.4</ele>
        <time>2011-01-22T14:43:02Z</time>
      </trkpt>
      <trkpt lat="44.91922" lon="6.54446">
        <ele>2262</ele>
        <time>2011-01-22T14:43:04Z</time>
      </trkpt>
      <trkpt lat="44.91913" lon="6.54415">
        <ele>2260.4</ele>
        <time>2011-01-22T14:43:06Z</time>
      </trkpt>
      <trkpt lat="44.9191" lon="6.544">
        <ele>2259.6</ele>
        <time>2011-01-22T14:43:07Z</time>
      </trkpt>
      <trkpt lat="44.91907" lon="6.54384">
        <ele>2258.8</ele>
        <time>2011-01-22T14:43:08Z</time>
      </trkpt>
      <trkpt lat="44.91905" lon="6.54369">
        <ele>2258</ele>
        <time>2011-01-22T14:43:09Z</time>
      </trkpt>
      <trkpt lat="44.91904" lon="6.54354">
        <ele>2257.2</ele>
        <time>2011-01-22T14:43:10Z</time>
      </trkpt>
      <trkpt lat="44.91906" lon="6.54341">
        <ele>2256.2</ele>
        <time>2011-01-22T14:43:11Z</time>
      </trkpt>
      <trkpt lat="44.91917" lon="6.54322">
        <ele>2254.4</ele>
        <time>2011-01-22T14:43:13Z</time>
      </trkpt>
      <trkpt lat="44.91922" lon="6.543">
        <ele>2252.6</ele>
        <time>2011-01-22T14:43:15Z</time>
      </trkpt>
      <trkpt lat="44.91925" lon="6.54292">
        <ele>2251.6</ele>
        <time>2011-01-22T14:43:16Z</time>
      </trkpt>
      <trkpt lat="44.91927" lon="6.54284">
        <ele>2250.6</ele>
        <time>2011-01-22T14:43:17Z</time>
      </trkpt>
      <trkpt lat="44.91926" lon="6.54267">
        <ele>2248.6</ele>
        <time>2011-01-22T14:43:19Z</time>
      </trkpt>
      <trkpt lat="44.91929" lon="6.5424">
        <ele>2245.4</ele>
        <time>2011-01-22T14:43:22Z</time>
      </trkpt>
      <trkpt lat="44.91946" lon="6.54222">
        <ele>2242.2</ele>
        <time>2011-01-22T14:43:25Z</time>
      </trkpt>
      <trkpt lat="44.91955" lon="6.54208">
        <ele>2240</ele>
        <time>2011-01-22T14:43:27Z</time>
      </trkpt>
      <trkpt lat="44.91956" lon="6.54198">
        <ele>2238.8</ele>
        <time>2011-01-22T14:43:28Z</time>
      </trkpt>
      <trkpt lat="44.91955" lon="6.54188">
        <ele>2237.8</ele>
        <time>2011-01-22T14:43:29Z</time>
      </trkpt>
      <trkpt lat="44.9196" lon="6.54178">
        <ele>2235.4</ele>
        <time>2011-01-22T14:43:31Z</time>
      </trkpt>
      <trkpt lat="44.91964" lon="6.54176">
        <ele>2234.2</ele>
        <time>2011-01-22T14:43:32Z</time>
      </trkpt>
      <trkpt lat="44.91968" lon="6.54167">
        <ele>2232</ele>
        <time>2011-01-22T14:43:34Z</time>
      </trkpt>
      <trkpt lat="44.91968" lon="6.5416">
        <ele>2230.8</ele>
        <time>2011-01-22T14:43:35Z</time>
      </trkpt>
      <trkpt lat="44.91971" lon="6.54155">
        <ele>2229.4</ele>
        <time>2011-01-22T14:43:36Z</time>
      </trkpt>
      <trkpt lat="44.91976" lon="6.54152">
        <ele>2228.2</ele>
        <time>2011-01-22T14:43:37Z</time>
      </trkpt>
      <trkpt lat="44.91987" lon="6.54146">
        <ele>2224.8</ele>
        <time>2011-01-22T14:43:40Z</time>
      </trkpt>
      <trkpt lat="44.91987" lon="6.54146">
        <ele>2220.2</ele>
        <time>2011-01-22T14:43:44Z</time>
      </trkpt>
      <trkpt lat="44.91986" lon="6.54146">
        <ele>2204.2</ele>
        <time>2011-01-22T14:44:00Z</time>
      </trkpt>
      <trkpt lat="44.91986" lon="6.54143">
        <ele>2199.8</ele>
        <time>2011-01-22T14:44:05Z</time>
      </trkpt>
      <trkpt lat="44.91997" lon="6.54137">
        <ele>2197</ele>
        <time>2011-01-22T14:44:08Z</time>
      </trkpt>
      <trkpt lat="44.92002" lon="6.54138">
        <ele>2196.2</ele>
        <time>2011-01-22T14:44:09Z</time>
      </trkpt>
      <trkpt lat="44.92008" lon="6.54139">
        <ele>2195.2</ele>
        <time>2011-01-22T14:44:10Z</time>
      </trkpt>
      <trkpt lat="44.92019" lon="6.54141">
        <ele>2193.4</ele>
        <time>2011-01-22T14:44:12Z</time>
      </trkpt>
      <trkpt lat="44.92026" lon="6.54142">
        <ele>2192.6</ele>
        <time>2011-01-22T14:44:13Z</time>
      </trkpt>
      <trkpt lat="44.9205" lon="6.54143">
        <ele>2189.8</ele>
        <time>2011-01-22T14:44:16Z</time>
      </trkpt>
      <trkpt lat="44.92068" lon="6.54145">
        <ele>2187.8</ele>
        <time>2011-01-22T14:44:18Z</time>
      </trkpt>
      <trkpt lat="44.92086" lon="6.54149">
        <ele>2186</ele>
        <time>2011-01-22T14:44:20Z</time>
      </trkpt>
      <trkpt lat="44.92095" lon="6.54151">
        <ele>2185.2</ele>
        <time>2011-01-22T14:44:21Z</time>
      </trkpt>
      <trkpt lat="44.92112" lon="6.54156">
        <ele>2183.2</ele>
        <time>2011-01-22T14:44:23Z</time>
      </trkpt>
      <trkpt lat="44.92131" lon="6.54159">
        <ele>2181.2</ele>
        <time>2011-01-22T14:44:25Z</time>
      </trkpt>
      <trkpt lat="44.92151" lon="6.5416">
        <ele>2179.2</ele>
        <time>2011-01-22T14:44:27Z</time>
      </trkpt>
      <trkpt lat="44.92161" lon="6.54161">
        <ele>2178.4</ele>
        <time>2011-01-22T14:44:28Z</time>
      </trkpt>
      <trkpt lat="44.92171" lon="6.54165">
        <ele>2177.4</ele>
        <time>2011-01-22T14:44:29Z</time>
      </trkpt>
      <trkpt lat="44.92192" lon="6.54171">
        <ele>2175.2</ele>
        <time>2011-01-22T14:44:31Z</time>
      </trkpt>
      <trkpt lat="44.92213" lon="6.54174">
        <ele>2173.2</ele>
        <time>2011-01-22T14:44:33Z</time>
      </trkpt>
      <trkpt lat="44.92233" lon="6.54177">
        <ele>2171.2</ele>
        <time>2011-01-22T14:44:35Z</time>
      </trkpt>
      <trkpt lat="44.92253" lon="6.54174">
        <ele>2169.4</ele>
        <time>2011-01-22T14:44:37Z</time>
      </trkpt>
      <trkpt lat="44.92262" lon="6.54173">
        <ele>2168.4</ele>
        <time>2011-01-22T14:44:38Z</time>
      </trkpt>
      <trkpt lat="44.92278" lon="6.54174">
        <ele>2166.4</ele>
        <time>2011-01-22T14:44:40Z</time>
      </trkpt>
      <trkpt lat="44.92297" lon="6.54178">
        <ele>2163.4</ele>
        <time>2011-01-22T14:44:43Z</time>
      </trkpt>
      <trkpt lat="44.92312" lon="6.54179">
        <ele>2161.4</ele>
        <time>2011-01-22T14:44:45Z</time>
      </trkpt>
      <trkpt lat="44.9232" lon="6.54181">
        <ele>2160.4</ele>
        <time>2011-01-22T14:44:46Z</time>
      </trkpt>
      <trkpt lat="44.92329" lon="6.54183">
        <ele>2159.4</ele>
        <time>2011-01-22T14:44:47Z</time>
      </trkpt>
      <trkpt lat="44.92345" lon="6.54191">
        <ele>2157.6</ele>
        <time>2011-01-22T14:44:49Z</time>
      </trkpt>
      <trkpt lat="44.92362" lon="6.542">
        <ele>2155.6</ele>
        <time>2011-01-22T14:44:51Z</time>
      </trkpt>
      <trkpt lat="44.92379" lon="6.54211">
        <ele>2153.6</ele>
        <time>2011-01-22T14:44:53Z</time>
      </trkpt>
      <trkpt lat="44.92388" lon="6.54216">
        <ele>2152.6</ele>
        <time>2011-01-22T14:44:54Z</time>
      </trkpt>
      <trkpt lat="44.92397" lon="6.54219">
        <ele>2151.8</ele>
        <time>2011-01-22T14:44:55Z</time>
      </trkpt>
      <trkpt lat="44.92415" lon="6.54224">
        <ele>2149.8</ele>
        <time>2011-01-22T14:44:57Z</time>
      </trkpt>
      <trkpt lat="44.92434" lon="6.54229">
        <ele>2147.8</ele>
        <time>2011-01-22T14:44:59Z</time>
      </trkpt>
      <trkpt lat="44.92452" lon="6.54232">
        <ele>2146</ele>
        <time>2011-01-22T14:45:01Z</time>
      </trkpt>
      <trkpt lat="44.92472" lon="6.54233">
        <ele>2144</ele>
        <time>2011-01-22T14:45:03Z</time>
      </trkpt>
      <trkpt lat="44.92491" lon="6.54234">
        <ele>2142.2</ele>
        <time>2011-01-22T14:45:05Z</time>
      </trkpt>
      <trkpt lat="44.925" lon="6.54234">
        <ele>2141.2</ele>
        <time>2011-01-22T14:45:06Z</time>
      </trkpt>
      <trkpt lat="44.92509" lon="6.54232">
        <ele>2140.2</ele>
        <time>2011-01-22T14:45:07Z</time>
      </trkpt>
      <trkpt lat="44.92527" lon="6.54224">
        <ele>2138.2</ele>
        <time>2011-01-22T14:45:09Z</time>
      </trkpt>
      <trkpt lat="44.92546" lon="6.54215">
        <ele>2136.2</ele>
        <time>2011-01-22T14:45:11Z</time>
      </trkpt>
      <trkpt lat="44.92563" lon="6.54206">
        <ele>2134.2</ele>
        <time>2011-01-22T14:45:13Z</time>
      </trkpt>
      <trkpt lat="44.92581" lon="6.542">
        <ele>2132.4</ele>
        <time>2011-01-22T14:45:15Z</time>
      </trkpt>
      <trkpt lat="44.92598" lon="6.54193">
        <ele>2130.4</ele>
        <time>2011-01-22T14:45:17Z</time>
      </trkpt>
      <trkpt lat="44.92606" lon="6.54189">
        <ele>2129.4</ele>
        <time>2011-01-22T14:45:18Z</time>
      </trkpt>
      <trkpt lat="44.92631" lon="6.54176">
        <ele>2126.6</ele>
        <time>2011-01-22T14:45:21Z</time>
      </trkpt>
      <trkpt lat="44.92639" lon="6.54172">
        <ele>2125.6</ele>
        <time>2011-01-22T14:45:22Z</time>
      </trkpt>
      <trkpt lat="44.92646" lon="6.5417">
        <ele>2124.6</ele>
        <time>2011-01-22T14:45:23Z</time>
      </trkpt>
      <trkpt lat="44.92653" lon="6.54169">
        <ele>2123.6</ele>
        <time>2011-01-22T14:45:24Z</time>
      </trkpt>
      <trkpt lat="44.92657" lon="6.54166">
        <ele>2121.8</ele>
        <time>2011-01-22T14:45:26Z</time>
      </trkpt>
      <trkpt lat="44.92662" lon="6.54174">
        <ele>2119</ele>
        <time>2011-01-22T14:45:29Z</time>
      </trkpt>
      <trkpt lat="44.92667" lon="6.54179">
        <ele>2118</ele>
        <time>2011-01-22T14:45:30Z</time>
      </trkpt>
      <trkpt lat="44.92681" lon="6.54203">
        <ele>2115</ele>
        <time>2011-01-22T14:45:33Z</time>
      </trkpt>
      <trkpt lat="44.927" lon="6.54221">
        <ele>2111.8</ele>
        <time>2011-01-22T14:45:36Z</time>
      </trkpt>
      <trkpt lat="44.92715" lon="6.54237">
        <ele>2108.6</ele>
        <time>2011-01-22T14:45:39Z</time>
      </trkpt>
      <trkpt lat="44.92721" lon="6.54253">
        <ele>2105.4</ele>
        <time>2011-01-22T14:45:42Z</time>
      </trkpt>
      <trkpt lat="44.92724" lon="6.54268">
        <ele>2103</ele>
        <time>2011-01-22T14:45:44Z</time>
      </trkpt>
      <trkpt lat="44.92723" lon="6.54275">
        <ele>2101.8</ele>
        <time>2011-01-22T14:45:45Z</time>
      </trkpt>
      <trkpt lat="44.92714" lon="6.54295">
        <ele>2099.6</ele>
        <time>2011-01-22T14:45:47Z</time>
      </trkpt>
      <trkpt lat="44.92716" lon="6.54314">
        <ele>2096.2</ele>
        <time>2011-01-22T14:45:50Z</time>
      </trkpt>
      <trkpt lat="44.92721" lon="6.54319">
        <ele>2095</ele>
        <time>2011-01-22T14:45:51Z</time>
      </trkpt>
      <trkpt lat="44.92732" lon="6.54332">
        <ele>2092.6</ele>
        <time>2011-01-22T14:45:53Z</time>
      </trkpt>
      <trkpt lat="44.92738" lon="6.54339">
        <ele>2091.4</ele>
        <time>2011-01-22T14:45:54Z</time>
      </trkpt>
      <trkpt lat="44.92752" lon="6.54347">
        <ele>2089</ele>
        <time>2011-01-22T14:45:56Z</time>
      </trkpt>
      <trkpt lat="44.92758" lon="6.54351">
        <ele>2087.8</ele>
        <time>2011-01-22T14:45:57Z</time>
      </trkpt>
      <trkpt lat="44.92763" lon="6.54348">
        <ele>2086.4</ele>
        <time>2011-01-22T14:45:58Z</time>
      </trkpt>
      <trkpt lat="44.92765" lon="6.54349">
        <ele>2085.2</ele>
        <time>2011-01-22T14:45:59Z</time>
      </trkpt>
      <trkpt lat="44.92764" lon="6.5435">
        <ele>2081.6</ele>
        <time>2011-01-22T14:46:02Z</time>
      </trkpt>
      <trkpt lat="44.92763" lon="6.54348">
        <ele>2079.4</ele>
        <time>2011-01-22T14:46:04Z</time>
      </trkpt>
      <trkpt lat="44.92759" lon="6.54347">
        <ele>2076.2</ele>
        <time>2011-01-22T14:46:07Z</time>
      </trkpt>
      <trkpt lat="44.92757" lon="6.54347">
        <ele>2074</ele>
        <time>2011-01-22T14:46:09Z</time>
      </trkpt>
      <trkpt lat="44.92756" lon="6.54347">
        <ele>2071</ele>
        <time>2011-01-22T14:46:12Z</time>
      </trkpt>
      <trkpt lat="44.92753" lon="6.54354">
        <ele>2060.4</ele>
        <time>2011-01-22T14:46:23Z</time>
      </trkpt>
      <trkpt lat="44.92752" lon="6.54357">
        <ele>2059.6</ele>
        <time>2011-01-22T14:46:24Z</time>
      </trkpt>
      <trkpt lat="44.92755" lon="6.54366">
        <ele>2057.8</ele>
        <time>2011-01-22T14:46:26Z</time>
      </trkpt>
      <trkpt lat="44.92759" lon="6.54369">
        <ele>2056.8</ele>
        <time>2011-01-22T14:46:27Z</time>
      </trkpt>
      <trkpt lat="44.92763" lon="6.5437">
        <ele>2055.8</ele>
        <time>2011-01-22T14:46:28Z</time>
      </trkpt>
      <trkpt lat="44.92776" lon="6.54376">
        <ele>2053.2</ele>
        <time>2011-01-22T14:46:31Z</time>
      </trkpt>
      <trkpt lat="44.92778" lon="6.54384">
        <ele>2052.2</ele>
        <time>2011-01-22T14:46:32Z</time>
      </trkpt>
      <trkpt lat="44.92779" lon="6.54395">
        <ele>2050.4</ele>
        <time>2011-01-22T14:46:34Z</time>
      </trkpt>
      <trkpt lat="44.92787" lon="6.54407">
        <ele>2047.6</ele>
        <time>2011-01-22T14:46:37Z</time>
      </trkpt>
      <trkpt lat="44.92799" lon="6.54411">
        <ele>2044.8</ele>
        <time>2011-01-22T14:46:40Z</time>
      </trkpt>
      <trkpt lat="44.92804" lon="6.54421">
        <ele>2043</ele>
        <time>2011-01-22T14:46:42Z</time>
      </trkpt>
      <trkpt lat="44.92808" lon="6.54423">
        <ele>2042</ele>
        <time>2011-01-22T14:46:43Z</time>
      </trkpt>
      <trkpt lat="44.92828" lon="6.54415">
        <ele>2039</ele>
        <time>2011-01-22T14:46:46Z</time>
      </trkpt>
      <trkpt lat="44.92837" lon="6.54409">
        <ele>2038</ele>
        <time>2011-01-22T14:46:47Z</time>
      </trkpt>
      <trkpt lat="44.92846" lon="6.54404">
        <ele>2037</ele>
        <time>2011-01-22T14:46:48Z</time>
      </trkpt>
      <trkpt lat="44.92856" lon="6.54402">
        <ele>2036</ele>
        <time>2011-01-22T14:46:49Z</time>
      </trkpt>
      <trkpt lat="44.92867" lon="6.54401">
        <ele>2035</ele>
        <time>2011-01-22T14:46:50Z</time>
      </trkpt>
      <trkpt lat="44.92889" lon="6.54396">
        <ele>2033</ele>
        <time>2011-01-22T14:46:52Z</time>
      </trkpt>
      <trkpt lat="44.92909" lon="6.54392">
        <ele>2030.8</ele>
        <time>2011-01-22T14:46:54Z</time>
      </trkpt>
      <trkpt lat="44.92932" lon="6.54388">
        <ele>2028.8</ele>
        <time>2011-01-22T14:46:56Z</time>
      </trkpt>
      <trkpt lat="44.92943" lon="6.54386">
        <ele>2027.6</ele>
        <time>2011-01-22T14:46:57Z</time>
      </trkpt>
      <trkpt lat="44.92956" lon="6.54383">
        <ele>2026.6</ele>
        <time>2011-01-22T14:46:58Z</time>
      </trkpt>
      <trkpt lat="44.92981" lon="6.54377">
        <ele>2024.4</ele>
        <time>2011-01-22T14:47:00Z</time>
      </trkpt>
      <trkpt lat="44.92994" lon="6.54374">
        <ele>2023.2</ele>
        <time>2011-01-22T14:47:01Z</time>
      </trkpt>
      <trkpt lat="44.93006" lon="6.5437">
        <ele>2022</ele>
        <time>2011-01-22T14:47:02Z</time>
      </trkpt>
      <trkpt lat="44.93031" lon="6.54363">
        <ele>2019.8</ele>
        <time>2011-01-22T14:47:04Z</time>
      </trkpt>
      <trkpt lat="44.93043" lon="6.54358">
        <ele>2018.6</ele>
        <time>2011-01-22T14:47:05Z</time>
      </trkpt>
      <trkpt lat="44.93055" lon="6.54353">
        <ele>2017.6</ele>
        <time>2011-01-22T14:47:06Z</time>
      </trkpt>
      <trkpt lat="44.93081" lon="6.54344">
        <ele>2015.2</ele>
        <time>2011-01-22T14:47:08Z</time>
      </trkpt>
      <trkpt lat="44.93103" lon="6.54329">
        <ele>2012.8</ele>
        <time>2011-01-22T14:47:10Z</time>
      </trkpt>
      <trkpt lat="44.93113" lon="6.5432">
        <ele>2011.8</ele>
        <time>2011-01-22T14:47:11Z</time>
      </trkpt>
      <trkpt lat="44.93121" lon="6.5431">
        <ele>2010.6</ele>
        <time>2011-01-22T14:47:12Z</time>
      </trkpt>
      <trkpt lat="44.93134" lon="6.54288">
        <ele>2008.2</ele>
        <time>2011-01-22T14:47:14Z</time>
      </trkpt>
      <trkpt lat="44.9314" lon="6.54276">
        <ele>2007.2</ele>
        <time>2011-01-22T14:47:15Z</time>
      </trkpt>
      <trkpt lat="44.93146" lon="6.54265">
        <ele>2006</ele>
        <time>2011-01-22T14:47:16Z</time>
      </trkpt>
      <trkpt lat="44.93153" lon="6.54255">
        <ele>2005</ele>
        <time>2011-01-22T14:47:17Z</time>
      </trkpt>
      <trkpt lat="44.93159" lon="6.54246">
        <ele>2003.8</ele>
        <time>2011-01-22T14:47:18Z</time>
      </trkpt>
      <trkpt lat="44.93166" lon="6.54236">
        <ele>2002.6</ele>
        <time>2011-01-22T14:47:19Z</time>
      </trkpt>
      <trkpt lat="44.93174" lon="6.54226">
        <ele>2001.6</ele>
        <time>2011-01-22T14:47:20Z</time>
      </trkpt>
      <trkpt lat="44.93189" lon="6.54206">
        <ele>1999.2</ele>
        <time>2011-01-22T14:47:22Z</time>
      </trkpt>
      <trkpt lat="44.93194" lon="6.54194">
        <ele>1998.2</ele>
        <time>2011-01-22T14:47:23Z</time>
      </trkpt>
      <trkpt lat="44.93198" lon="6.5418">
        <ele>1997</ele>
        <time>2011-01-22T14:47:24Z</time>
      </trkpt>
      <trkpt lat="44.93207" lon="6.54158">
        <ele>1994.6</ele>
        <time>2011-01-22T14:47:26Z</time>
      </trkpt>
      <trkpt lat="44.93217" lon="6.54155">
        <ele>1992.4</ele>
        <time>2011-01-22T14:47:28Z</time>
      </trkpt>
      <trkpt lat="44.93228" lon="6.5415">
        <ele>1990</ele>
        <time>2011-01-22T14:47:30Z</time>
      </trkpt>
      <trkpt lat="44.93233" lon="6.54146">
        <ele>1989</ele>
        <time>2011-01-22T14:47:31Z</time>
      </trkpt>
      <trkpt lat="44.9324" lon="6.54146">
        <ele>1986.6</ele>
        <time>2011-01-22T14:47:33Z</time>
      </trkpt>
      <trkpt lat="44.9324" lon="6.54148">
        <ele>1985.4</ele>
        <time>2011-01-22T14:47:34Z</time>
      </trkpt>
      <trkpt lat="44.93238" lon="6.54149">
        <ele>1983.4</ele>
        <time>2011-01-22T14:47:36Z</time>
      </trkpt>
      <trkpt lat="44.93238" lon="6.54149">
        <ele>1981.2</ele>
        <time>2011-01-22T14:47:38Z</time>
      </trkpt>
      <trkpt lat="44.93237" lon="6.54149">
        <ele>1971</ele>
        <time>2011-01-22T14:47:48Z</time>
      </trkpt>
      <trkpt lat="44.93237" lon="6.5415">
        <ele>1945</ele>
        <time>2011-01-22T14:48:19Z</time>
      </trkpt>
      <trkpt lat="44.93237" lon="6.5415">
        <ele>1929.6</ele>
        <time>2011-01-22T14:48:43Z</time>
      </trkpt>
      <trkpt lat="44.93237" lon="6.54155">
        <ele>1928.4</ele>
        <time>2011-01-22T14:48:45Z</time>
      </trkpt>
      <trkpt lat="44.93239" lon="6.54159">
        <ele>1927.8</ele>
        <time>2011-01-22T14:48:46Z</time>
      </trkpt>
      <trkpt lat="44.93249" lon="6.54174">
        <ele>1926</ele>
        <time>2011-01-22T14:48:49Z</time>
      </trkpt>
      <trkpt lat="44.93253" lon="6.5418">
        <ele>1925.4</ele>
        <time>2011-01-22T14:48:50Z</time>
      </trkpt>
      <trkpt lat="44.93264" lon="6.54199">
        <ele>1923.2</ele>
        <time>2011-01-22T14:48:53Z</time>
      </trkpt>
      <trkpt lat="44.93267" lon="6.54204">
        <ele>1922.6</ele>
        <time>2011-01-22T14:48:54Z</time>
      </trkpt>
      <trkpt lat="44.93271" lon="6.5421">
        <ele>1921.8</ele>
        <time>2011-01-22T14:48:55Z</time>
      </trkpt>
      <trkpt lat="44.9328" lon="6.54221">
        <ele>1920.4</ele>
        <time>2011-01-22T14:48:57Z</time>
      </trkpt>
      <trkpt lat="44.93286" lon="6.54225">
        <ele>1919.6</ele>
        <time>2011-01-22T14:48:58Z</time>
      </trkpt>
      <trkpt lat="44.93292" lon="6.54228">
        <ele>1918.8</ele>
        <time>2011-01-22T14:48:59Z</time>
      </trkpt>
      <trkpt lat="44.93299" lon="6.54231">
        <ele>1918</ele>
        <time>2011-01-22T14:49:00Z</time>
      </trkpt>
      <trkpt lat="44.93306" lon="6.54234">
        <ele>1917.2</ele>
        <time>2011-01-22T14:49:01Z</time>
      </trkpt>
      <trkpt lat="44.93314" lon="6.54237">
        <ele>1916.2</ele>
        <time>2011-01-22T14:49:02Z</time>
      </trkpt>
      <trkpt lat="44.93325" lon="6.54232">
        <ele>1915.4</ele>
        <time>2011-01-22T14:49:03Z</time>
      </trkpt>
      <trkpt lat="44.93348" lon="6.54226">
        <ele>1913.4</ele>
        <time>2011-01-22T14:49:05Z</time>
      </trkpt>
      <trkpt lat="44.9337" lon="6.54246">
        <ele>1911.4</ele>
        <time>2011-01-22T14:49:07Z</time>
      </trkpt>
      <trkpt lat="44.93381" lon="6.54257">
        <ele>1910.4</ele>
        <time>2011-01-22T14:49:08Z</time>
      </trkpt>
      <trkpt lat="44.93393" lon="6.54269">
        <ele>1909.4</ele>
        <time>2011-01-22T14:49:09Z</time>
      </trkpt>
      <trkpt lat="44.93405" lon="6.54281">
        <ele>1908.4</ele>
        <time>2011-01-22T14:49:10Z</time>
      </trkpt>
      <trkpt lat="44.93416" lon="6.54294">
        <ele>1907.4</ele>
        <time>2011-01-22T14:49:11Z</time>
      </trkpt>
      <trkpt lat="44.93426" lon="6.54305">
        <ele>1906.4</ele>
        <time>2011-01-22T14:49:12Z</time>
      </trkpt>
      <trkpt lat="44.93436" lon="6.54312">
        <ele>1905.2</ele>
        <time>2011-01-22T14:49:13Z</time>
      </trkpt>
      <trkpt lat="44.93455" lon="6.54312">
        <ele>1903</ele>
        <time>2011-01-22T14:49:15Z</time>
      </trkpt>
      <trkpt lat="44.93465" lon="6.54309">
        <ele>1902</ele>
        <time>2011-01-22T14:49:16Z</time>
      </trkpt>
      <trkpt lat="44.93476" lon="6.54308">
        <ele>1901</ele>
        <time>2011-01-22T14:49:17Z</time>
      </trkpt>
      <trkpt lat="44.93487" lon="6.54309">
        <ele>1899.8</ele>
        <time>2011-01-22T14:49:18Z</time>
      </trkpt>
      <trkpt lat="44.93497" lon="6.54312">
        <ele>1898.8</ele>
        <time>2011-01-22T14:49:19Z</time>
      </trkpt>
      <trkpt lat="44.93509" lon="6.54314">
        <ele>1897.6</ele>
        <time>2011-01-22T14:49:20Z</time>
      </trkpt>
      <trkpt lat="44.9352" lon="6.54317">
        <ele>1896.4</ele>
        <time>2011-01-22T14:49:21Z</time>
      </trkpt>
      <trkpt lat="44.93531" lon="6.54321">
        <ele>1895.4</ele>
        <time>2011-01-22T14:49:22Z</time>
      </trkpt>
      <trkpt lat="44.93541" lon="6.54325">
        <ele>1894.2</ele>
        <time>2011-01-22T14:49:23Z</time>
      </trkpt>
      <trkpt lat="44.93562" lon="6.54333">
        <ele>1891.8</ele>
        <time>2011-01-22T14:49:25Z</time>
      </trkpt>
      <trkpt lat="44.93572" lon="6.54339">
        <ele>1890.8</ele>
        <time>2011-01-22T14:49:26Z</time>
      </trkpt>
      <trkpt lat="44.93584" lon="6.54346">
        <ele>1889.6</ele>
        <time>2011-01-22T14:49:27Z</time>
      </trkpt>
      <trkpt lat="44.93608" lon="6.54361">
        <ele>1887.2</ele>
        <time>2011-01-22T14:49:29Z</time>
      </trkpt>
      <trkpt lat="44.93618" lon="6.54372">
        <ele>1886</ele>
        <time>2011-01-22T14:49:30Z</time>
      </trkpt>
      <trkpt lat="44.93628" lon="6.54383">
        <ele>1884.8</ele>
        <time>2011-01-22T14:49:31Z</time>
      </trkpt>
      <trkpt lat="44.93654" lon="6.54395">
        <ele>1882.2</ele>
        <time>2011-01-22T14:49:33Z</time>
      </trkpt>
      <trkpt lat="44.93684" lon="6.5439">
        <ele>1879.8</ele>
        <time>2011-01-22T14:49:35Z</time>
      </trkpt>
      <trkpt lat="44.93696" lon="6.54384">
        <ele>1878.6</ele>
        <time>2011-01-22T14:49:36Z</time>
      </trkpt>
      <trkpt lat="44.93709" lon="6.54374">
        <ele>1877.4</ele>
        <time>2011-01-22T14:49:37Z</time>
      </trkpt>
      <trkpt lat="44.93734" lon="6.54358">
        <ele>1874.8</ele>
        <time>2011-01-22T14:49:39Z</time>
      </trkpt>
      <trkpt lat="44.93757" lon="6.54346">
        <ele>1872.4</ele>
        <time>2011-01-22T14:49:41Z</time>
      </trkpt>
      <trkpt lat="44.93769" lon="6.54343">
        <ele>1871.2</ele>
        <time>2011-01-22T14:49:42Z</time>
      </trkpt>
      <trkpt lat="44.93781" lon="6.54342">
        <ele>1869.8</ele>
        <time>2011-01-22T14:49:43Z</time>
      </trkpt>
      <trkpt lat="44.93805" lon="6.54342">
        <ele>1867.4</ele>
        <time>2011-01-22T14:49:45Z</time>
      </trkpt>
      <trkpt lat="44.93829" lon="6.54343">
        <ele>1864.8</ele>
        <time>2011-01-22T14:49:47Z</time>
      </trkpt>
      <trkpt lat="44.93853" lon="6.54348">
        <ele>1862.4</ele>
        <time>2011-01-22T14:49:49Z</time>
      </trkpt>
      <trkpt lat="44.93864" lon="6.54353">
        <ele>1861</ele>
        <time>2011-01-22T14:49:50Z</time>
      </trkpt>
      <trkpt lat="44.93875" lon="6.5436">
        <ele>1859.8</ele>
        <time>2011-01-22T14:49:51Z</time>
      </trkpt>
      <trkpt lat="44.93893" lon="6.54377">
        <ele>1857.2</ele>
        <time>2011-01-22T14:49:53Z</time>
      </trkpt>
      <trkpt lat="44.9391" lon="6.5439">
        <ele>1854.6</ele>
        <time>2011-01-22T14:49:55Z</time>
      </trkpt>
      <trkpt lat="44.93919" lon="6.54393">
        <ele>1853.4</ele>
        <time>2011-01-22T14:49:56Z</time>
      </trkpt>
      <trkpt lat="44.9393" lon="6.54409">
        <ele>1850.6</ele>
        <time>2011-01-22T14:49:58Z</time>
      </trkpt>
      <trkpt lat="44.93934" lon="6.54424">
        <ele>1849.4</ele>
        <time>2011-01-22T14:49:59Z</time>
      </trkpt>
      <trkpt lat="44.93937" lon="6.54438">
        <ele>1848</ele>
        <time>2011-01-22T14:50:00Z</time>
      </trkpt>
      <trkpt lat="44.93943" lon="6.54466">
        <ele>1845.2</ele>
        <time>2011-01-22T14:50:02Z</time>
      </trkpt>
      <trkpt lat="44.93946" lon="6.54478">
        <ele>1843.6</ele>
        <time>2011-01-22T14:50:03Z</time>
      </trkpt>
      <trkpt lat="44.93951" lon="6.54491">
        <ele>1842.2</ele>
        <time>2011-01-22T14:50:04Z</time>
      </trkpt>
      <trkpt lat="44.93957" lon="6.54501">
        <ele>1840.6</ele>
        <time>2011-01-22T14:50:05Z</time>
      </trkpt>
      <trkpt lat="44.93963" lon="6.5451">
        <ele>1839.2</ele>
        <time>2011-01-22T14:50:06Z</time>
      </trkpt>
      <trkpt lat="44.93975" lon="6.54532">
        <ele>1836</ele>
        <time>2011-01-22T14:50:08Z</time>
      </trkpt>
      <trkpt lat="44.93986" lon="6.54559">
        <ele>1832.8</ele>
        <time>2011-01-22T14:50:10Z</time>
      </trkpt>
      <trkpt lat="44.93989" lon="6.54585">
        <ele>1829.4</ele>
        <time>2011-01-22T14:50:12Z</time>
      </trkpt>
      <trkpt lat="44.93997" lon="6.5461">
        <ele>1826</ele>
        <time>2011-01-22T14:50:14Z</time>
      </trkpt>
      <trkpt lat="44.94006" lon="6.54619">
        <ele>1824.2</ele>
        <time>2011-01-22T14:50:15Z</time>
      </trkpt>
      <trkpt lat="44.94018" lon="6.54623">
        <ele>1822.2</ele>
        <time>2011-01-22T14:50:16Z</time>
      </trkpt>
      <trkpt lat="44.94032" lon="6.54628">
        <ele>1820.4</ele>
        <time>2011-01-22T14:50:17Z</time>
      </trkpt>
      <trkpt lat="44.94045" lon="6.54632">
        <ele>1818.6</ele>
        <time>2011-01-22T14:50:18Z</time>
      </trkpt>
      <trkpt lat="44.94058" lon="6.54636">
        <ele>1816.8</ele>
        <time>2011-01-22T14:50:19Z</time>
      </trkpt>
      <trkpt lat="44.9407" lon="6.54641">
        <ele>1814.8</ele>
        <time>2011-01-22T14:50:20Z</time>
      </trkpt>
      <trkpt lat="44.9408" lon="6.54647">
        <ele>1813</ele>
        <time>2011-01-22T14:50:21Z</time>
      </trkpt>
      <trkpt lat="44.94091" lon="6.54653">
        <ele>1811</ele>
        <time>2011-01-22T14:50:22Z</time>
      </trkpt>
      <trkpt lat="44.94102" lon="6.5466">
        <ele>1809</ele>
        <time>2011-01-22T14:50:23Z</time>
      </trkpt>
      <trkpt lat="44.94112" lon="6.54669">
        <ele>1807</ele>
        <time>2011-01-22T14:50:24Z</time>
      </trkpt>
      <trkpt lat="44.94127" lon="6.54696">
        <ele>1803</ele>
        <time>2011-01-22T14:50:26Z</time>
      </trkpt>
      <trkpt lat="44.94126" lon="6.54714">
        <ele>1801.2</ele>
        <time>2011-01-22T14:50:27Z</time>
      </trkpt>
      <trkpt lat="44.94115" lon="6.54733">
        <ele>1797.2</ele>
        <time>2011-01-22T14:50:29Z</time>
      </trkpt>
      <trkpt lat="44.94104" lon="6.54754">
        <ele>1793</ele>
        <time>2011-01-22T14:50:31Z</time>
      </trkpt>
      <trkpt lat="44.94108" lon="6.54782">
        <ele>1788.8</ele>
        <time>2011-01-22T14:50:33Z</time>
      </trkpt>
      <trkpt lat="44.94124" lon="6.54807">
        <ele>1784.6</ele>
        <time>2011-01-22T14:50:35Z</time>
      </trkpt>
      <trkpt lat="44.94144" lon="6.54819">
        <ele>1780.2</ele>
        <time>2011-01-22T14:50:37Z</time>
      </trkpt>
      <trkpt lat="44.94168" lon="6.54818">
        <ele>1776</ele>
        <time>2011-01-22T14:50:39Z</time>
      </trkpt>
      <trkpt lat="44.9418" lon="6.54811">
        <ele>1773.8</ele>
        <time>2011-01-22T14:50:40Z</time>
      </trkpt>
      <trkpt lat="44.94191" lon="6.54804">
        <ele>1771.6</ele>
        <time>2011-01-22T14:50:41Z</time>
      </trkpt>
      <trkpt lat="44.9421" lon="6.5479">
        <ele>1767.4</ele>
        <time>2011-01-22T14:50:43Z</time>
      </trkpt>
      <trkpt lat="44.94234" lon="6.54774">
        <ele>1760.8</ele>
        <time>2011-01-22T14:50:46Z</time>
      </trkpt>
      <trkpt lat="44.94252" lon="6.54767">
        <ele>1756.6</ele>
        <time>2011-01-22T14:50:48Z</time>
      </trkpt>
      <trkpt lat="44.94271" lon="6.54764">
        <ele>1752.4</ele>
        <time>2011-01-22T14:50:50Z</time>
      </trkpt>
      <trkpt lat="44.9429" lon="6.54772">
        <ele>1748.2</ele>
        <time>2011-01-22T14:50:52Z</time>
      </trkpt>
      <trkpt lat="44.9431" lon="6.54778">
        <ele>1744.2</ele>
        <time>2011-01-22T14:50:54Z</time>
      </trkpt>
      <trkpt lat="44.94321" lon="6.54777">
        <ele>1742</ele>
        <time>2011-01-22T14:50:55Z</time>
      </trkpt>
      <trkpt lat="44.94331" lon="6.54775">
        <ele>1740</ele>
        <time>2011-01-22T14:50:56Z</time>
      </trkpt>
      <trkpt lat="44.94342" lon="6.54773">
        <ele>1738</ele>
        <time>2011-01-22T14:50:57Z</time>
      </trkpt>
      <trkpt lat="44.94351" lon="6.54778">
        <ele>1736</ele>
        <time>2011-01-22T14:50:58Z</time>
      </trkpt>
      <trkpt lat="44.94359" lon="6.54785">
        <ele>1734</ele>
        <time>2011-01-22T14:50:59Z</time>
      </trkpt>
      <trkpt lat="44.94368" lon="6.54796">
        <ele>1732</ele>
        <time>2011-01-22T14:51:00Z</time>
      </trkpt>
      <trkpt lat="44.94375" lon="6.54808">
        <ele>1729.8</ele>
        <time>2011-01-22T14:51:01Z</time>
      </trkpt>
      <trkpt lat="44.94383" lon="6.54821">
        <ele>1727.8</ele>
        <time>2011-01-22T14:51:02Z</time>
      </trkpt>
      <trkpt lat="44.9439" lon="6.54833">
        <ele>1725.8</ele>
        <time>2011-01-22T14:51:03Z</time>
      </trkpt>
      <trkpt lat="44.94395" lon="6.54847">
        <ele>1723.6</ele>
        <time>2011-01-22T14:51:04Z</time>
      </trkpt>
      <trkpt lat="44.9441" lon="6.54872">
        <ele>1719.2</ele>
        <time>2011-01-22T14:51:06Z</time>
      </trkpt>
      <trkpt lat="44.94421" lon="6.54879">
        <ele>1717.2</ele>
        <time>2011-01-22T14:51:07Z</time>
      </trkpt>
      <trkpt lat="44.94432" lon="6.54886">
        <ele>1715</ele>
        <time>2011-01-22T14:51:08Z</time>
      </trkpt>
      <trkpt lat="44.94456" lon="6.54901">
        <ele>1710.6</ele>
        <time>2011-01-22T14:51:10Z</time>
      </trkpt>
      <trkpt lat="44.94467" lon="6.5491">
        <ele>1708.2</ele>
        <time>2011-01-22T14:51:11Z</time>
      </trkpt>
      <trkpt lat="44.94479" lon="6.54922">
        <ele>1706</ele>
        <time>2011-01-22T14:51:12Z</time>
      </trkpt>
      <trkpt lat="44.9449" lon="6.54936">
        <ele>1703.8</ele>
        <time>2011-01-22T14:51:13Z</time>
      </trkpt>
      <trkpt lat="44.94499" lon="6.54952">
        <ele>1701.4</ele>
        <time>2011-01-22T14:51:14Z</time>
      </trkpt>
      <trkpt lat="44.94516" lon="6.54986">
        <ele>1696.8</ele>
        <time>2011-01-22T14:51:16Z</time>
      </trkpt>
      <trkpt lat="44.94528" lon="6.5502">
        <ele>1692.2</ele>
        <time>2011-01-22T14:51:18Z</time>
      </trkpt>
      <trkpt lat="44.94534" lon="6.55037">
        <ele>1689.8</ele>
        <time>2011-01-22T14:51:19Z</time>
      </trkpt>
      <trkpt lat="44.94541" lon="6.55053">
        <ele>1687.4</ele>
        <time>2011-01-22T14:51:20Z</time>
      </trkpt>
      <trkpt lat="44.94546" lon="6.55069">
        <ele>1685.2</ele>
        <time>2011-01-22T14:51:21Z</time>
      </trkpt>
      <trkpt lat="44.9455" lon="6.55086">
        <ele>1682.8</ele>
        <time>2011-01-22T14:51:22Z</time>
      </trkpt>
      <trkpt lat="44.94549" lon="6.55122">
        <ele>1678</ele>
        <time>2011-01-22T14:51:24Z</time>
      </trkpt>
      <trkpt lat="44.9455" lon="6.55159">
        <ele>1673.2</ele>
        <time>2011-01-22T14:51:26Z</time>
      </trkpt>
      <trkpt lat="44.94553" lon="6.55177">
        <ele>1670.8</ele>
        <time>2011-01-22T14:51:27Z</time>
      </trkpt>
      <trkpt lat="44.94559" lon="6.55194">
        <ele>1668.4</ele>
        <time>2011-01-22T14:51:28Z</time>
      </trkpt>
      <trkpt lat="44.94577" lon="6.55215">
        <ele>1663.6</ele>
        <time>2011-01-22T14:51:30Z</time>
      </trkpt>
      <trkpt lat="44.94599" lon="6.55223">
        <ele>1658.8</ele>
        <time>2011-01-22T14:51:32Z</time>
      </trkpt>
      <trkpt lat="44.94624" lon="6.55225">
        <ele>1654.2</ele>
        <time>2011-01-22T14:51:34Z</time>
      </trkpt>
      <trkpt lat="44.94636" lon="6.55228">
        <ele>1651.8</ele>
        <time>2011-01-22T14:51:35Z</time>
      </trkpt>
      <trkpt lat="44.94646" lon="6.55233">
        <ele>1649.6</ele>
        <time>2011-01-22T14:51:36Z</time>
      </trkpt>
      <trkpt lat="44.94664" lon="6.55252">
        <ele>1644.8</ele>
        <time>2011-01-22T14:51:38Z</time>
      </trkpt>
      <trkpt lat="44.94677" lon="6.55272">
        <ele>1640.4</ele>
        <time>2011-01-22T14:51:40Z</time>
      </trkpt>
      <trkpt lat="44.94683" lon="6.55282">
        <ele>1638.2</ele>
        <time>2011-01-22T14:51:41Z</time>
      </trkpt>
      <trkpt lat="44.94693" lon="6.55301">
        <ele>1633.8</ele>
        <time>2011-01-22T14:51:43Z</time>
      </trkpt>
      <trkpt lat="44.94708" lon="6.55328">
        <ele>1627.4</ele>
        <time>2011-01-22T14:51:46Z</time>
      </trkpt>
      <trkpt lat="44.94712" lon="6.55336">
        <ele>1625.2</ele>
        <time>2011-01-22T14:51:47Z</time>
      </trkpt>
      <trkpt lat="44.94721" lon="6.55351">
        <ele>1621</ele>
        <time>2011-01-22T14:51:49Z</time>
      </trkpt>
      <trkpt lat="44.94733" lon="6.55372">
        <ele>1615</ele>
        <time>2011-01-22T14:51:52Z</time>
      </trkpt>
      <trkpt lat="44.94737" lon="6.55379">
        <ele>1613</ele>
        <time>2011-01-22T14:51:53Z</time>
      </trkpt>
      <trkpt lat="44.94749" lon="6.55396">
        <ele>1607</ele>
        <time>2011-01-22T14:51:56Z</time>
      </trkpt>
      <trkpt lat="44.9476" lon="6.55411">
        <ele>1603.2</ele>
        <time>2011-01-22T14:51:58Z</time>
      </trkpt>
      <trkpt lat="44.94764" lon="6.5542">
        <ele>1601.2</ele>
        <time>2011-01-22T14:51:59Z</time>
      </trkpt>
      <trkpt lat="44.94767" lon="6.55435">
        <ele>1597.4</ele>
        <time>2011-01-22T14:52:01Z</time>
      </trkpt>
      <trkpt lat="44.94768" lon="6.55438">
        <ele>1591.8</ele>
        <time>2011-01-22T14:52:04Z</time>
      </trkpt>
      <trkpt lat="44.94768" lon="6.55438">
        <ele>1581.2</ele>
        <time>2011-01-22T14:52:10Z</time>
      </trkpt>
      <trkpt lat="44.94769" lon="6.55437">
        <ele>1561.6</ele>
        <time>2011-01-22T14:52:22Z</time>
      </trkpt>
      <trkpt lat="44.94772" lon="6.55438">
        <ele>1555.4</ele>
        <time>2011-01-22T14:52:26Z</time>
      </trkpt>
      <trkpt lat="44.94774" lon="6.55439">
        <ele>1552.4</ele>
        <time>2011-01-22T14:52:28Z</time>
      </trkpt>
      <trkpt lat="44.94777" lon="6.55443">
        <ele>1546.8</ele>
        <time>2011-01-22T14:52:32Z</time>
      </trkpt>
      <trkpt lat="44.94777" lon="6.55443">
        <ele>1545.4</ele>
        <time>2011-01-22T14:52:33Z</time>
      </trkpt>
      <trkpt lat="44.94777" lon="6.55443">
        <ele>1537.2</ele>
        <time>2011-01-22T14:52:39Z</time>
      </trkpt>
      <trkpt lat="44.94777" lon="6.55442">
        <ele>1528.2</ele>
        <time>2011-01-22T14:52:46Z</time>
      </trkpt>
      <trkpt lat="44.94777" lon="6.55443">
        <ele>1515.4</ele>
        <time>2011-01-22T14:52:57Z</time>
      </trkpt>
      <trkpt lat="44.94777" lon="6.55445">
        <ele>1446.4</ele>
        <time>2011-01-22T14:54:32Z</time>
      </trkpt>
      <trkpt lat="44.94779" lon="6.55442">
        <ele>1437.8</ele>
        <time>2011-01-22T14:54:53Z</time>
      </trkpt>
    </trkseg>
  </trk>
</gpx>